<?xml version="1.0" encoding="UTF-8" standalone="no" ?>
<gpx xmlns="http://www.topografix.com/GPX/1/1" xmlns:xsi="http://www.w3.org/2001/XMLSchema-instance" xsi:schemaLocation="http://www.topografix.com/GPX/1/1 http://www.topografix.com/GPX/1/1/gpx.xsd" version="1.1" creator="VisuGPX - https://www.visugpx.com">
  <metadata>
    <name>Grenoble Trail - 2021-07-17</name>
    <desc><![CDATA[Ile verte - Bastille - Mont Jalla - Mas Cachet | Sentier JJ Rousseau - Lévetière - Serlin - Le Plat du Saut - Les Granges - Chemin des Batteries - La Chapelle - Col de Vences - La Chapelle - Chemin des Batteries - Chantemerle - La Bergerie - Sous le Mont - Mont Rachais - Bec Aigu - Bec de Corbeau - Vierge Noire - Bec de Corbeau - L'adret - Bastille - Ile Verte]]></desc>
  </metadata>
  <trk>
    <name><![CDATA[Grenoble Trail]]></name>
    <trkseg>
      <trkpt lat="45.19672" lon="5.73967">
        <ele>245.60000610352</ele>
        <time>2021-07-17T03:15:00.000Z</time>
      </trkpt>
      <trkpt lat="45.19671" lon="5.73967">
        <ele>245.60000610352</ele>
        <time>2021-07-17T03:15:01.000Z</time>
      </trkpt>
      <trkpt lat="45.19666" lon="5.7397">
        <ele>245.80000305176</ele>
        <time>2021-07-17T03:15:05.000Z</time>
      </trkpt>
      <trkpt lat="45.19665" lon="5.7397">
        <ele>245.80000305176</ele>
        <time>2021-07-17T03:15:06.000Z</time>
      </trkpt>
      <trkpt lat="45.19652" lon="5.73972">
        <ele>245.80000305176</ele>
        <time>2021-07-17T03:15:14.000Z</time>
      </trkpt>
      <trkpt lat="45.19649" lon="5.7397">
        <ele>245.80000305176</ele>
        <time>2021-07-17T03:15:19.000Z</time>
      </trkpt>
      <trkpt lat="45.19647" lon="5.73968">
        <ele>245.80000305176</ele>
        <time>2021-07-17T03:15:22.000Z</time>
      </trkpt>
      <trkpt lat="45.19646" lon="5.73967">
        <ele>245.60000610352</ele>
        <time>2021-07-17T03:15:24.000Z</time>
      </trkpt>
      <trkpt lat="45.19644" lon="5.7397">
        <ele>244.60000610352</ele>
        <time>2021-07-17T03:15:29.000Z</time>
      </trkpt>
      <trkpt lat="45.19645" lon="5.7398">
        <ele>243</ele>
        <time>2021-07-17T03:15:34.000Z</time>
      </trkpt>
      <trkpt lat="45.19643" lon="5.73978">
        <ele>242</ele>
        <time>2021-07-17T03:15:39.000Z</time>
      </trkpt>
      <trkpt lat="45.19642" lon="5.73977">
        <ele>241.39999389648</ele>
        <time>2021-07-17T03:15:40.000Z</time>
      </trkpt>
      <trkpt lat="45.19641" lon="5.73979">
        <ele>240.80000305176</ele>
        <time>2021-07-17T03:15:42.000Z</time>
      </trkpt>
      <trkpt lat="45.19638" lon="5.73979">
        <ele>240.19999694824</ele>
        <time>2021-07-17T03:15:45.000Z</time>
      </trkpt>
      <trkpt lat="45.19637" lon="5.73978">
        <ele>240.19999694824</ele>
        <time>2021-07-17T03:15:46.000Z</time>
      </trkpt>
      <trkpt lat="45.19638" lon="5.73976">
        <ele>239.39999389648</ele>
        <time>2021-07-17T03:15:49.000Z</time>
      </trkpt>
      <trkpt lat="45.19637" lon="5.73975">
        <ele>238.60000610352</ele>
        <time>2021-07-17T03:15:52.000Z</time>
      </trkpt>
      <trkpt lat="45.19637" lon="5.73975">
        <ele>238.39999389648</ele>
        <time>2021-07-17T03:15:53.000Z</time>
      </trkpt>
      <trkpt lat="45.19639" lon="5.73975">
        <ele>237.60000610352</ele>
        <time>2021-07-17T03:15:57.000Z</time>
      </trkpt>
      <trkpt lat="45.19647" lon="5.73971">
        <ele>237.60000610352</ele>
        <time>2021-07-17T03:16:04.000Z</time>
      </trkpt>
      <trkpt lat="45.19652" lon="5.73969">
        <ele>237.80000305176</ele>
        <time>2021-07-17T03:16:07.000Z</time>
      </trkpt>
      <trkpt lat="45.19657" lon="5.73969">
        <ele>237.80000305176</ele>
        <time>2021-07-17T03:16:09.000Z</time>
      </trkpt>
      <trkpt lat="45.19658" lon="5.73969">
        <ele>238</ele>
        <time>2021-07-17T03:16:10.000Z</time>
      </trkpt>
      <trkpt lat="45.19669" lon="5.73959">
        <ele>238</ele>
        <time>2021-07-17T03:16:15.000Z</time>
      </trkpt>
      <trkpt lat="45.19671" lon="5.73956">
        <ele>238.19999694824</ele>
        <time>2021-07-17T03:16:16.000Z</time>
      </trkpt>
      <trkpt lat="45.19674" lon="5.73952">
        <ele>238</ele>
        <time>2021-07-17T03:16:18.000Z</time>
      </trkpt>
      <trkpt lat="45.19675" lon="5.7395">
        <ele>237.80000305176</ele>
        <time>2021-07-17T03:16:20.000Z</time>
      </trkpt>
      <trkpt lat="45.19675" lon="5.73949">
        <ele>237.80000305176</ele>
        <time>2021-07-17T03:16:21.000Z</time>
      </trkpt>
      <trkpt lat="45.19676" lon="5.73948">
        <ele>237.80000305176</ele>
        <time>2021-07-17T03:16:22.000Z</time>
      </trkpt>
      <trkpt lat="45.19681" lon="5.73949">
        <ele>237.80000305176</ele>
        <time>2021-07-17T03:16:24.000Z</time>
      </trkpt>
      <trkpt lat="45.19687" lon="5.73953">
        <ele>237.80000305176</ele>
        <time>2021-07-17T03:16:26.000Z</time>
      </trkpt>
      <trkpt lat="45.19694" lon="5.73963">
        <ele>237.80000305176</ele>
        <time>2021-07-17T03:16:30.000Z</time>
      </trkpt>
      <trkpt lat="45.19695" lon="5.73965">
        <ele>238</ele>
        <time>2021-07-17T03:16:31.000Z</time>
      </trkpt>
      <trkpt lat="45.19699" lon="5.73976">
        <ele>238</ele>
        <time>2021-07-17T03:16:35.000Z</time>
      </trkpt>
      <trkpt lat="45.19702" lon="5.73981">
        <ele>238</ele>
        <time>2021-07-17T03:16:37.000Z</time>
      </trkpt>
      <trkpt lat="45.19703" lon="5.73984">
        <ele>238</ele>
        <time>2021-07-17T03:16:38.000Z</time>
      </trkpt>
      <trkpt lat="45.19704" lon="5.73989">
        <ele>238</ele>
        <time>2021-07-17T03:16:40.000Z</time>
      </trkpt>
      <trkpt lat="45.19704" lon="5.73991">
        <ele>238</ele>
        <time>2021-07-17T03:16:41.000Z</time>
      </trkpt>
      <trkpt lat="45.19706" lon="5.74001">
        <ele>237.80000305176</ele>
        <time>2021-07-17T03:16:45.000Z</time>
      </trkpt>
      <trkpt lat="45.1971" lon="5.74018">
        <ele>237.80000305176</ele>
        <time>2021-07-17T03:16:50.000Z</time>
      </trkpt>
      <trkpt lat="45.19711" lon="5.74021">
        <ele>237.80000305176</ele>
        <time>2021-07-17T03:16:51.000Z</time>
      </trkpt>
      <trkpt lat="45.19715" lon="5.74029">
        <ele>238</ele>
        <time>2021-07-17T03:16:55.000Z</time>
      </trkpt>
      <trkpt lat="45.19719" lon="5.74046">
        <ele>238</ele>
        <time>2021-07-17T03:17:00.000Z</time>
      </trkpt>
      <trkpt lat="45.19727" lon="5.74069">
        <ele>238</ele>
        <time>2021-07-17T03:17:07.000Z</time>
      </trkpt>
      <trkpt lat="45.19728" lon="5.74099">
        <ele>237.80000305176</ele>
        <time>2021-07-17T03:17:16.000Z</time>
      </trkpt>
      <trkpt lat="45.19729" lon="5.74105">
        <ele>238.19999694824</ele>
        <time>2021-07-17T03:17:18.000Z</time>
      </trkpt>
      <trkpt lat="45.19733" lon="5.74125">
        <ele>238</ele>
        <time>2021-07-17T03:17:24.000Z</time>
      </trkpt>
      <trkpt lat="45.19734" lon="5.74133">
        <ele>238</ele>
        <time>2021-07-17T03:17:27.000Z</time>
      </trkpt>
      <trkpt lat="45.1974" lon="5.74154">
        <ele>237.80000305176</ele>
        <time>2021-07-17T03:17:33.000Z</time>
      </trkpt>
      <trkpt lat="45.19745" lon="5.7418">
        <ele>237.80000305176</ele>
        <time>2021-07-17T03:17:41.000Z</time>
      </trkpt>
      <trkpt lat="45.19746" lon="5.74204">
        <ele>237.80000305176</ele>
        <time>2021-07-17T03:17:48.000Z</time>
      </trkpt>
      <trkpt lat="45.19747" lon="5.74223">
        <ele>238.19999694824</ele>
        <time>2021-07-17T03:17:54.000Z</time>
      </trkpt>
      <trkpt lat="45.19743" lon="5.74226">
        <ele>238.19999694824</ele>
        <time>2021-07-17T03:17:55.000Z</time>
      </trkpt>
      <trkpt lat="45.19729" lon="5.74233">
        <ele>238.39999389648</ele>
        <time>2021-07-17T03:18:00.000Z</time>
      </trkpt>
      <trkpt lat="45.19709" lon="5.74239">
        <ele>238.19999694824</ele>
        <time>2021-07-17T03:18:07.000Z</time>
      </trkpt>
      <trkpt lat="45.197" lon="5.74243">
        <ele>238.19999694824</ele>
        <time>2021-07-17T03:18:10.000Z</time>
      </trkpt>
      <trkpt lat="45.19681" lon="5.74246">
        <ele>238.19999694824</ele>
        <time>2021-07-17T03:18:16.000Z</time>
      </trkpt>
      <trkpt lat="45.19676" lon="5.74245">
        <ele>238.19999694824</ele>
        <time>2021-07-17T03:18:18.000Z</time>
      </trkpt>
      <trkpt lat="45.19671" lon="5.74246">
        <ele>238.19999694824</ele>
        <time>2021-07-17T03:18:20.000Z</time>
      </trkpt>
      <trkpt lat="45.19663" lon="5.74247">
        <ele>238.60000610352</ele>
        <time>2021-07-17T03:18:23.000Z</time>
      </trkpt>
      <trkpt lat="45.19645" lon="5.74246">
        <ele>238.19999694824</ele>
        <time>2021-07-17T03:18:30.000Z</time>
      </trkpt>
      <trkpt lat="45.19639" lon="5.74244">
        <ele>238.39999389648</ele>
        <time>2021-07-17T03:18:32.000Z</time>
      </trkpt>
      <trkpt lat="45.19619" lon="5.74245">
        <ele>238.60000610352</ele>
        <time>2021-07-17T03:18:40.000Z</time>
      </trkpt>
      <trkpt lat="45.19614" lon="5.74246">
        <ele>238.60000610352</ele>
        <time>2021-07-17T03:18:42.000Z</time>
      </trkpt>
      <trkpt lat="45.19606" lon="5.74245">
        <ele>238.60000610352</ele>
        <time>2021-07-17T03:18:45.000Z</time>
      </trkpt>
      <trkpt lat="45.19601" lon="5.74241">
        <ele>238.60000610352</ele>
        <time>2021-07-17T03:18:47.000Z</time>
      </trkpt>
      <trkpt lat="45.19592" lon="5.7424">
        <ele>238.80000305176</ele>
        <time>2021-07-17T03:18:50.000Z</time>
      </trkpt>
      <trkpt lat="45.1958" lon="5.74236">
        <ele>238.60000610352</ele>
        <time>2021-07-17T03:18:54.000Z</time>
      </trkpt>
      <trkpt lat="45.19562" lon="5.74232">
        <ele>238.60000610352</ele>
        <time>2021-07-17T03:19:00.000Z</time>
      </trkpt>
      <trkpt lat="45.19559" lon="5.74232">
        <ele>239</ele>
        <time>2021-07-17T03:19:01.000Z</time>
      </trkpt>
      <trkpt lat="45.19544" lon="5.7423">
        <ele>239</ele>
        <time>2021-07-17T03:19:07.000Z</time>
      </trkpt>
      <trkpt lat="45.19529" lon="5.74226">
        <ele>239</ele>
        <time>2021-07-17T03:19:13.000Z</time>
      </trkpt>
      <trkpt lat="45.19514" lon="5.74218">
        <ele>239.80000305176</ele>
        <time>2021-07-17T03:19:19.000Z</time>
      </trkpt>
      <trkpt lat="45.19509" lon="5.74214">
        <ele>239.80000305176</ele>
        <time>2021-07-17T03:19:21.000Z</time>
      </trkpt>
      <trkpt lat="45.19502" lon="5.74212">
        <ele>240.19999694824</ele>
        <time>2021-07-17T03:19:24.000Z</time>
      </trkpt>
      <trkpt lat="45.19495" lon="5.74209">
        <ele>240.39999389648</ele>
        <time>2021-07-17T03:19:27.000Z</time>
      </trkpt>
      <trkpt lat="45.19485" lon="5.74203">
        <ele>240.80000305176</ele>
        <time>2021-07-17T03:19:31.000Z</time>
      </trkpt>
      <trkpt lat="45.19474" lon="5.742">
        <ele>240.80000305176</ele>
        <time>2021-07-17T03:19:35.000Z</time>
      </trkpt>
      <trkpt lat="45.19465" lon="5.74194">
        <ele>240.60000610352</ele>
        <time>2021-07-17T03:19:41.000Z</time>
      </trkpt>
      <trkpt lat="45.19474" lon="5.7419">
        <ele>240.60000610352</ele>
        <time>2021-07-17T03:19:45.000Z</time>
      </trkpt>
      <trkpt lat="45.19485" lon="5.74192">
        <ele>240.80000305176</ele>
        <time>2021-07-17T03:19:50.000Z</time>
      </trkpt>
      <trkpt lat="45.19494" lon="5.74192">
        <ele>241</ele>
        <time>2021-07-17T03:19:54.000Z</time>
      </trkpt>
      <trkpt lat="45.1951" lon="5.74195">
        <ele>240.60000610352</ele>
        <time>2021-07-17T03:20:00.000Z</time>
      </trkpt>
      <trkpt lat="45.19522" lon="5.74196">
        <ele>240.19999694824</ele>
        <time>2021-07-17T03:20:04.000Z</time>
      </trkpt>
      <trkpt lat="45.1954" lon="5.74202">
        <ele>240</ele>
        <time>2021-07-17T03:20:11.000Z</time>
      </trkpt>
      <trkpt lat="45.19542" lon="5.74202">
        <ele>240</ele>
        <time>2021-07-17T03:20:12.000Z</time>
      </trkpt>
      <trkpt lat="45.19553" lon="5.74204">
        <ele>240</ele>
        <time>2021-07-17T03:20:17.000Z</time>
      </trkpt>
      <trkpt lat="45.19566" lon="5.74206">
        <ele>239.80000305176</ele>
        <time>2021-07-17T03:20:23.000Z</time>
      </trkpt>
      <trkpt lat="45.19579" lon="5.74208">
        <ele>240</ele>
        <time>2021-07-17T03:20:27.000Z</time>
      </trkpt>
      <trkpt lat="45.19584" lon="5.74209">
        <ele>240</ele>
        <time>2021-07-17T03:20:29.000Z</time>
      </trkpt>
      <trkpt lat="45.196" lon="5.74211">
        <ele>239.80000305176</ele>
        <time>2021-07-17T03:20:36.000Z</time>
      </trkpt>
      <trkpt lat="45.19617" lon="5.74217">
        <ele>239.80000305176</ele>
        <time>2021-07-17T03:20:43.000Z</time>
      </trkpt>
      <trkpt lat="45.19631" lon="5.7422">
        <ele>239.80000305176</ele>
        <time>2021-07-17T03:20:49.000Z</time>
      </trkpt>
      <trkpt lat="45.19637" lon="5.74221">
        <ele>240</ele>
        <time>2021-07-17T03:20:52.000Z</time>
      </trkpt>
      <trkpt lat="45.19645" lon="5.7422">
        <ele>240</ele>
        <time>2021-07-17T03:20:55.000Z</time>
      </trkpt>
      <trkpt lat="45.19659" lon="5.7422">
        <ele>240</ele>
        <time>2021-07-17T03:21:01.000Z</time>
      </trkpt>
      <trkpt lat="45.19665" lon="5.74221">
        <ele>240</ele>
        <time>2021-07-17T03:21:04.000Z</time>
      </trkpt>
      <trkpt lat="45.19677" lon="5.7422">
        <ele>240.19999694824</ele>
        <time>2021-07-17T03:21:09.000Z</time>
      </trkpt>
      <trkpt lat="45.1968" lon="5.7422">
        <ele>240</ele>
        <time>2021-07-17T03:21:10.000Z</time>
      </trkpt>
      <trkpt lat="45.19696" lon="5.74221">
        <ele>240</ele>
        <time>2021-07-17T03:21:16.000Z</time>
      </trkpt>
      <trkpt lat="45.19703" lon="5.74223">
        <ele>239.80000305176</ele>
        <time>2021-07-17T03:21:19.000Z</time>
      </trkpt>
      <trkpt lat="45.19716" lon="5.74222">
        <ele>240.19999694824</ele>
        <time>2021-07-17T03:21:23.000Z</time>
      </trkpt>
      <trkpt lat="45.19728" lon="5.74221">
        <ele>239.60000610352</ele>
        <time>2021-07-17T03:21:27.000Z</time>
      </trkpt>
      <trkpt lat="45.19736" lon="5.7422">
        <ele>239.60000610352</ele>
        <time>2021-07-17T03:21:30.000Z</time>
      </trkpt>
      <trkpt lat="45.19739" lon="5.74219">
        <ele>239.60000610352</ele>
        <time>2021-07-17T03:21:31.000Z</time>
      </trkpt>
      <trkpt lat="45.19758" lon="5.74221">
        <ele>240</ele>
        <time>2021-07-17T03:21:38.000Z</time>
      </trkpt>
      <trkpt lat="45.1976" lon="5.7422">
        <ele>240</ele>
        <time>2021-07-17T03:21:39.000Z</time>
      </trkpt>
      <trkpt lat="45.19778" lon="5.74217">
        <ele>240</ele>
        <time>2021-07-17T03:21:46.000Z</time>
      </trkpt>
      <trkpt lat="45.19782" lon="5.74217">
        <ele>240</ele>
        <time>2021-07-17T03:21:47.000Z</time>
      </trkpt>
      <trkpt lat="45.19791" lon="5.74216">
        <ele>239.80000305176</ele>
        <time>2021-07-17T03:21:53.000Z</time>
      </trkpt>
      <trkpt lat="45.19796" lon="5.74219">
        <ele>239.80000305176</ele>
        <time>2021-07-17T03:21:57.000Z</time>
      </trkpt>
      <trkpt lat="45.19801" lon="5.74224">
        <ele>239.80000305176</ele>
        <time>2021-07-17T03:21:59.000Z</time>
      </trkpt>
      <trkpt lat="45.19804" lon="5.74223">
        <ele>239.80000305176</ele>
        <time>2021-07-17T03:22:00.000Z</time>
      </trkpt>
      <trkpt lat="45.19807" lon="5.74222">
        <ele>239.80000305176</ele>
        <time>2021-07-17T03:22:01.000Z</time>
      </trkpt>
      <trkpt lat="45.1981" lon="5.74221">
        <ele>239.80000305176</ele>
        <time>2021-07-17T03:22:02.000Z</time>
      </trkpt>
      <trkpt lat="45.19823" lon="5.74217">
        <ele>240.19999694824</ele>
        <time>2021-07-17T03:22:06.000Z</time>
      </trkpt>
      <trkpt lat="45.19837" lon="5.7421">
        <ele>240</ele>
        <time>2021-07-17T03:22:13.000Z</time>
      </trkpt>
      <trkpt lat="45.19855" lon="5.74202">
        <ele>239.80000305176</ele>
        <time>2021-07-17T03:22:19.000Z</time>
      </trkpt>
      <trkpt lat="45.19866" lon="5.74198">
        <ele>240.19999694824</ele>
        <time>2021-07-17T03:22:22.000Z</time>
      </trkpt>
      <trkpt lat="45.19874" lon="5.74196">
        <ele>240.19999694824</ele>
        <time>2021-07-17T03:22:25.000Z</time>
      </trkpt>
      <trkpt lat="45.19882" lon="5.74194">
        <ele>239.80000305176</ele>
        <time>2021-07-17T03:22:28.000Z</time>
      </trkpt>
      <trkpt lat="45.19896" lon="5.74187">
        <ele>240.19999694824</ele>
        <time>2021-07-17T03:22:34.000Z</time>
      </trkpt>
      <trkpt lat="45.19914" lon="5.74178">
        <ele>239.80000305176</ele>
        <time>2021-07-17T03:22:40.000Z</time>
      </trkpt>
      <trkpt lat="45.19918" lon="5.74173">
        <ele>240.39999389648</ele>
        <time>2021-07-17T03:22:42.000Z</time>
      </trkpt>
      <trkpt lat="45.19926" lon="5.74166">
        <ele>240.19999694824</ele>
        <time>2021-07-17T03:22:45.000Z</time>
      </trkpt>
      <trkpt lat="45.19931" lon="5.74159">
        <ele>240.39999389648</ele>
        <time>2021-07-17T03:22:48.000Z</time>
      </trkpt>
      <trkpt lat="45.1994" lon="5.74146">
        <ele>240.19999694824</ele>
        <time>2021-07-17T03:22:54.000Z</time>
      </trkpt>
      <trkpt lat="45.19958" lon="5.74135">
        <ele>240.19999694824</ele>
        <time>2021-07-17T03:23:01.000Z</time>
      </trkpt>
      <trkpt lat="45.1996" lon="5.74133">
        <ele>240.19999694824</ele>
        <time>2021-07-17T03:23:02.000Z</time>
      </trkpt>
      <trkpt lat="45.19965" lon="5.74129">
        <ele>240.19999694824</ele>
        <time>2021-07-17T03:23:04.000Z</time>
      </trkpt>
      <trkpt lat="45.19967" lon="5.74126">
        <ele>240.19999694824</ele>
        <time>2021-07-17T03:23:05.000Z</time>
      </trkpt>
      <trkpt lat="45.19969" lon="5.74122">
        <ele>240.19999694824</ele>
        <time>2021-07-17T03:23:07.000Z</time>
      </trkpt>
      <trkpt lat="45.19972" lon="5.74119">
        <ele>240.19999694824</ele>
        <time>2021-07-17T03:23:09.000Z</time>
      </trkpt>
      <trkpt lat="45.19984" lon="5.7411">
        <ele>240</ele>
        <time>2021-07-17T03:23:15.000Z</time>
      </trkpt>
      <trkpt lat="45.19987" lon="5.74106">
        <ele>238.80000305176</ele>
        <time>2021-07-17T03:23:17.000Z</time>
      </trkpt>
      <trkpt lat="45.1999" lon="5.74103">
        <ele>238.60000610352</ele>
        <time>2021-07-17T03:23:18.000Z</time>
      </trkpt>
      <trkpt lat="45.19992" lon="5.741">
        <ele>238.60000610352</ele>
        <time>2021-07-17T03:23:19.000Z</time>
      </trkpt>
      <trkpt lat="45.20004" lon="5.74083">
        <ele>237.80000305176</ele>
        <time>2021-07-17T03:23:25.000Z</time>
      </trkpt>
      <trkpt lat="45.20006" lon="5.74081">
        <ele>237.80000305176</ele>
        <time>2021-07-17T03:23:26.000Z</time>
      </trkpt>
      <trkpt lat="45.2001" lon="5.7408">
        <ele>238</ele>
        <time>2021-07-17T03:23:28.000Z</time>
      </trkpt>
      <trkpt lat="45.20012" lon="5.74081">
        <ele>237.80000305176</ele>
        <time>2021-07-17T03:23:29.000Z</time>
      </trkpt>
      <trkpt lat="45.20047" lon="5.74039">
        <ele>237.80000305176</ele>
        <time>2021-07-17T03:23:42.000Z</time>
      </trkpt>
      <trkpt lat="45.20049" lon="5.74039">
        <ele>238.19999694824</ele>
        <time>2021-07-17T03:23:43.000Z</time>
      </trkpt>
      <trkpt lat="45.20045" lon="5.74025">
        <ele>238.80000305176</ele>
        <time>2021-07-17T03:23:47.000Z</time>
      </trkpt>
      <trkpt lat="45.2005" lon="5.7402">
        <ele>239</ele>
        <time>2021-07-17T03:23:50.000Z</time>
      </trkpt>
      <trkpt lat="45.20053" lon="5.74014">
        <ele>240</ele>
        <time>2021-07-17T03:23:52.000Z</time>
      </trkpt>
      <trkpt lat="45.20054" lon="5.74006">
        <ele>240</ele>
        <time>2021-07-17T03:23:54.000Z</time>
      </trkpt>
      <trkpt lat="45.20055" lon="5.74004">
        <ele>240.19999694824</ele>
        <time>2021-07-17T03:23:55.000Z</time>
      </trkpt>
      <trkpt lat="45.20061" lon="5.73997">
        <ele>240</ele>
        <time>2021-07-17T03:23:58.000Z</time>
      </trkpt>
      <trkpt lat="45.20064" lon="5.73992">
        <ele>239.60000610352</ele>
        <time>2021-07-17T03:24:01.000Z</time>
      </trkpt>
      <trkpt lat="45.20065" lon="5.7399">
        <ele>239.60000610352</ele>
        <time>2021-07-17T03:24:02.000Z</time>
      </trkpt>
      <trkpt lat="45.20066" lon="5.73987">
        <ele>239.60000610352</ele>
        <time>2021-07-17T03:24:03.000Z</time>
      </trkpt>
      <trkpt lat="45.20072" lon="5.73981">
        <ele>239.60000610352</ele>
        <time>2021-07-17T03:24:06.000Z</time>
      </trkpt>
      <trkpt lat="45.20074" lon="5.73979">
        <ele>239.39999389648</ele>
        <time>2021-07-17T03:24:07.000Z</time>
      </trkpt>
      <trkpt lat="45.20074" lon="5.73977">
        <ele>239.39999389648</ele>
        <time>2021-07-17T03:24:08.000Z</time>
      </trkpt>
      <trkpt lat="45.20078" lon="5.73973">
        <ele>239.60000610352</ele>
        <time>2021-07-17T03:24:10.000Z</time>
      </trkpt>
      <trkpt lat="45.2009" lon="5.73957">
        <ele>239.19999694824</ele>
        <time>2021-07-17T03:24:15.000Z</time>
      </trkpt>
      <trkpt lat="45.20095" lon="5.73949">
        <ele>239.19999694824</ele>
        <time>2021-07-17T03:24:18.000Z</time>
      </trkpt>
      <trkpt lat="45.20095" lon="5.73949">
        <ele>239</ele>
        <time>2021-07-17T03:24:19.000Z</time>
      </trkpt>
      <trkpt lat="45.20101" lon="5.73945">
        <ele>239</ele>
        <time>2021-07-17T03:24:20.000Z</time>
      </trkpt>
      <trkpt lat="45.20107" lon="5.7394">
        <ele>238.80000305176</ele>
        <time>2021-07-17T03:24:22.000Z</time>
      </trkpt>
      <trkpt lat="45.20113" lon="5.7393">
        <ele>238.80000305176</ele>
        <time>2021-07-17T03:24:25.000Z</time>
      </trkpt>
      <trkpt lat="45.20119" lon="5.73922">
        <ele>239</ele>
        <time>2021-07-17T03:24:28.000Z</time>
      </trkpt>
      <trkpt lat="45.20126" lon="5.73917">
        <ele>239.60000610352</ele>
        <time>2021-07-17T03:24:31.000Z</time>
      </trkpt>
      <trkpt lat="45.20127" lon="5.73914">
        <ele>239.60000610352</ele>
        <time>2021-07-17T03:24:32.000Z</time>
      </trkpt>
      <trkpt lat="45.20141" lon="5.73897">
        <ele>239.19999694824</ele>
        <time>2021-07-17T03:24:38.000Z</time>
      </trkpt>
      <trkpt lat="45.20143" lon="5.73894">
        <ele>239.19999694824</ele>
        <time>2021-07-17T03:24:39.000Z</time>
      </trkpt>
      <trkpt lat="45.20153" lon="5.73879">
        <ele>239.60000610352</ele>
        <time>2021-07-17T03:24:44.000Z</time>
      </trkpt>
      <trkpt lat="45.20159" lon="5.73866">
        <ele>239.60000610352</ele>
        <time>2021-07-17T03:24:48.000Z</time>
      </trkpt>
      <trkpt lat="45.2017" lon="5.73843">
        <ele>239</ele>
        <time>2021-07-17T03:24:55.000Z</time>
      </trkpt>
      <trkpt lat="45.20173" lon="5.73836">
        <ele>239</ele>
        <time>2021-07-17T03:24:57.000Z</time>
      </trkpt>
      <trkpt lat="45.20176" lon="5.73823">
        <ele>239.19999694824</ele>
        <time>2021-07-17T03:25:02.000Z</time>
      </trkpt>
      <trkpt lat="45.20179" lon="5.73799">
        <ele>239.19999694824</ele>
        <time>2021-07-17T03:25:08.000Z</time>
      </trkpt>
      <trkpt lat="45.2018" lon="5.73774">
        <ele>239.19999694824</ele>
        <time>2021-07-17T03:25:15.000Z</time>
      </trkpt>
      <trkpt lat="45.20182" lon="5.73757">
        <ele>239.19999694824</ele>
        <time>2021-07-17T03:25:20.000Z</time>
      </trkpt>
      <trkpt lat="45.20182" lon="5.73754">
        <ele>239</ele>
        <time>2021-07-17T03:25:21.000Z</time>
      </trkpt>
      <trkpt lat="45.20181" lon="5.73727">
        <ele>239.19999694824</ele>
        <time>2021-07-17T03:25:28.000Z</time>
      </trkpt>
      <trkpt lat="45.2018" lon="5.73723">
        <ele>239.19999694824</ele>
        <time>2021-07-17T03:25:29.000Z</time>
      </trkpt>
      <trkpt lat="45.2018" lon="5.73719">
        <ele>239.19999694824</ele>
        <time>2021-07-17T03:25:30.000Z</time>
      </trkpt>
      <trkpt lat="45.20175" lon="5.73705">
        <ele>239.39999389648</ele>
        <time>2021-07-17T03:25:34.000Z</time>
      </trkpt>
      <trkpt lat="45.20172" lon="5.73691">
        <ele>239.60000610352</ele>
        <time>2021-07-17T03:25:38.000Z</time>
      </trkpt>
      <trkpt lat="45.20172" lon="5.73689">
        <ele>239.39999389648</ele>
        <time>2021-07-17T03:25:39.000Z</time>
      </trkpt>
      <trkpt lat="45.20172" lon="5.73684">
        <ele>239.19999694824</ele>
        <time>2021-07-17T03:25:41.000Z</time>
      </trkpt>
      <trkpt lat="45.20171" lon="5.73678">
        <ele>239</ele>
        <time>2021-07-17T03:25:43.000Z</time>
      </trkpt>
      <trkpt lat="45.20168" lon="5.73661">
        <ele>239</ele>
        <time>2021-07-17T03:25:47.000Z</time>
      </trkpt>
      <trkpt lat="45.20165" lon="5.73652">
        <ele>239</ele>
        <time>2021-07-17T03:25:50.000Z</time>
      </trkpt>
      <trkpt lat="45.20164" lon="5.73648">
        <ele>239</ele>
        <time>2021-07-17T03:25:51.000Z</time>
      </trkpt>
      <trkpt lat="45.20156" lon="5.73625">
        <ele>239.19999694824</ele>
        <time>2021-07-17T03:25:58.000Z</time>
      </trkpt>
      <trkpt lat="45.2015" lon="5.73613">
        <ele>239.60000610352</ele>
        <time>2021-07-17T03:26:02.000Z</time>
      </trkpt>
      <trkpt lat="45.20137" lon="5.73593">
        <ele>239.39999389648</ele>
        <time>2021-07-17T03:26:09.000Z</time>
      </trkpt>
      <trkpt lat="45.20134" lon="5.73591">
        <ele>239.19999694824</ele>
        <time>2021-07-17T03:26:10.000Z</time>
      </trkpt>
      <trkpt lat="45.20123" lon="5.73576">
        <ele>238.80000305176</ele>
        <time>2021-07-17T03:26:15.000Z</time>
      </trkpt>
      <trkpt lat="45.2011" lon="5.73557">
        <ele>239.19999694824</ele>
        <time>2021-07-17T03:26:22.000Z</time>
      </trkpt>
      <trkpt lat="45.20106" lon="5.73552">
        <ele>239.19999694824</ele>
        <time>2021-07-17T03:26:24.000Z</time>
      </trkpt>
      <trkpt lat="45.20091" lon="5.73534">
        <ele>239.60000610352</ele>
        <time>2021-07-17T03:26:32.000Z</time>
      </trkpt>
      <trkpt lat="45.20089" lon="5.73532">
        <ele>239.60000610352</ele>
        <time>2021-07-17T03:26:33.000Z</time>
      </trkpt>
      <trkpt lat="45.20082" lon="5.73527">
        <ele>239.60000610352</ele>
        <time>2021-07-17T03:26:36.000Z</time>
      </trkpt>
      <trkpt lat="45.20071" lon="5.7352">
        <ele>239.39999389648</ele>
        <time>2021-07-17T03:26:41.000Z</time>
      </trkpt>
      <trkpt lat="45.20054" lon="5.7351">
        <ele>239.19999694824</ele>
        <time>2021-07-17T03:26:47.000Z</time>
      </trkpt>
      <trkpt lat="45.20051" lon="5.73509">
        <ele>239.19999694824</ele>
        <time>2021-07-17T03:26:48.000Z</time>
      </trkpt>
      <trkpt lat="45.20034" lon="5.735">
        <ele>239.19999694824</ele>
        <time>2021-07-17T03:26:55.000Z</time>
      </trkpt>
      <trkpt lat="45.20031" lon="5.73498">
        <ele>239</ele>
        <time>2021-07-17T03:26:56.000Z</time>
      </trkpt>
      <trkpt lat="45.20013" lon="5.73485">
        <ele>238.39999389648</ele>
        <time>2021-07-17T03:27:03.000Z</time>
      </trkpt>
      <trkpt lat="45.20011" lon="5.73483">
        <ele>238.39999389648</ele>
        <time>2021-07-17T03:27:04.000Z</time>
      </trkpt>
      <trkpt lat="45.19993" lon="5.73462">
        <ele>239.19999694824</ele>
        <time>2021-07-17T03:27:12.000Z</time>
      </trkpt>
      <trkpt lat="45.19991" lon="5.73461">
        <ele>239.19999694824</ele>
        <time>2021-07-17T03:27:13.000Z</time>
      </trkpt>
      <trkpt lat="45.19972" lon="5.73449">
        <ele>239</ele>
        <time>2021-07-17T03:27:21.000Z</time>
      </trkpt>
      <trkpt lat="45.19967" lon="5.73446">
        <ele>239</ele>
        <time>2021-07-17T03:27:23.000Z</time>
      </trkpt>
      <trkpt lat="45.19949" lon="5.73439">
        <ele>239.39999389648</ele>
        <time>2021-07-17T03:27:30.000Z</time>
      </trkpt>
      <trkpt lat="45.19944" lon="5.73437">
        <ele>239.60000610352</ele>
        <time>2021-07-17T03:27:32.000Z</time>
      </trkpt>
      <trkpt lat="45.19933" lon="5.73431">
        <ele>238.80000305176</ele>
        <time>2021-07-17T03:27:36.000Z</time>
      </trkpt>
      <trkpt lat="45.19924" lon="5.73426">
        <ele>239.19999694824</ele>
        <time>2021-07-17T03:27:39.000Z</time>
      </trkpt>
      <trkpt lat="45.19905" lon="5.73422">
        <ele>238.80000305176</ele>
        <time>2021-07-17T03:27:46.000Z</time>
      </trkpt>
      <trkpt lat="45.19902" lon="5.73422">
        <ele>238.80000305176</ele>
        <time>2021-07-17T03:27:47.000Z</time>
      </trkpt>
      <trkpt lat="45.19882" lon="5.73416">
        <ele>239</ele>
        <time>2021-07-17T03:27:55.000Z</time>
      </trkpt>
      <trkpt lat="45.19882" lon="5.73416">
        <ele>239</ele>
        <time>2021-07-17T03:27:56.000Z</time>
      </trkpt>
      <trkpt lat="45.19865" lon="5.73411">
        <ele>239</ele>
        <time>2021-07-17T03:28:02.000Z</time>
      </trkpt>
      <trkpt lat="45.19858" lon="5.73409">
        <ele>239.39999389648</ele>
        <time>2021-07-17T03:28:05.000Z</time>
      </trkpt>
      <trkpt lat="45.19845" lon="5.73407">
        <ele>239.60000610352</ele>
        <time>2021-07-17T03:28:10.000Z</time>
      </trkpt>
      <trkpt lat="45.19835" lon="5.73405">
        <ele>239.60000610352</ele>
        <time>2021-07-17T03:28:14.000Z</time>
      </trkpt>
      <trkpt lat="45.19818" lon="5.73398">
        <ele>239.19999694824</ele>
        <time>2021-07-17T03:28:20.000Z</time>
      </trkpt>
      <trkpt lat="45.19812" lon="5.73395">
        <ele>239.60000610352</ele>
        <time>2021-07-17T03:28:23.000Z</time>
      </trkpt>
      <trkpt lat="45.19807" lon="5.73393">
        <ele>239.39999389648</ele>
        <time>2021-07-17T03:28:25.000Z</time>
      </trkpt>
      <trkpt lat="45.19799" lon="5.7339">
        <ele>239.19999694824</ele>
        <time>2021-07-17T03:28:29.000Z</time>
      </trkpt>
      <trkpt lat="45.19785" lon="5.73385">
        <ele>239.19999694824</ele>
        <time>2021-07-17T03:28:33.000Z</time>
      </trkpt>
      <trkpt lat="45.19777" lon="5.73384">
        <ele>239.39999389648</ele>
        <time>2021-07-17T03:28:36.000Z</time>
      </trkpt>
      <trkpt lat="45.19765" lon="5.73382">
        <ele>239.39999389648</ele>
        <time>2021-07-17T03:28:40.000Z</time>
      </trkpt>
      <trkpt lat="45.19762" lon="5.73381">
        <ele>239.19999694824</ele>
        <time>2021-07-17T03:28:41.000Z</time>
      </trkpt>
      <trkpt lat="45.19748" lon="5.73381">
        <ele>240</ele>
        <time>2021-07-17T03:28:46.000Z</time>
      </trkpt>
      <trkpt lat="45.19742" lon="5.7338">
        <ele>240</ele>
        <time>2021-07-17T03:28:48.000Z</time>
      </trkpt>
      <trkpt lat="45.1973" lon="5.73378">
        <ele>240.60000610352</ele>
        <time>2021-07-17T03:28:53.000Z</time>
      </trkpt>
      <trkpt lat="45.19725" lon="5.73377">
        <ele>241</ele>
        <time>2021-07-17T03:28:55.000Z</time>
      </trkpt>
      <trkpt lat="45.19712" lon="5.73373">
        <ele>241</ele>
        <time>2021-07-17T03:29:00.000Z</time>
      </trkpt>
      <trkpt lat="45.19694" lon="5.73366">
        <ele>240.80000305176</ele>
        <time>2021-07-17T03:29:08.000Z</time>
      </trkpt>
      <trkpt lat="45.19687" lon="5.73364">
        <ele>240.60000610352</ele>
        <time>2021-07-17T03:29:10.000Z</time>
      </trkpt>
      <trkpt lat="45.19684" lon="5.73362">
        <ele>240.39999389648</ele>
        <time>2021-07-17T03:29:12.000Z</time>
      </trkpt>
      <trkpt lat="45.19681" lon="5.73358">
        <ele>240</ele>
        <time>2021-07-17T03:29:14.000Z</time>
      </trkpt>
      <trkpt lat="45.19675" lon="5.73351">
        <ele>239.39999389648</ele>
        <time>2021-07-17T03:29:17.000Z</time>
      </trkpt>
      <trkpt lat="45.19671" lon="5.73347">
        <ele>239.80000305176</ele>
        <time>2021-07-17T03:29:19.000Z</time>
      </trkpt>
      <trkpt lat="45.19668" lon="5.73344">
        <ele>239.80000305176</ele>
        <time>2021-07-17T03:29:20.000Z</time>
      </trkpt>
      <trkpt lat="45.19661" lon="5.73341">
        <ele>240</ele>
        <time>2021-07-17T03:29:23.000Z</time>
      </trkpt>
      <trkpt lat="45.19656" lon="5.73338">
        <ele>239.80000305176</ele>
        <time>2021-07-17T03:29:25.000Z</time>
      </trkpt>
      <trkpt lat="45.19641" lon="5.73321">
        <ele>239.19999694824</ele>
        <time>2021-07-17T03:29:33.000Z</time>
      </trkpt>
      <trkpt lat="45.19628" lon="5.73306">
        <ele>239.60000610352</ele>
        <time>2021-07-17T03:29:39.000Z</time>
      </trkpt>
      <trkpt lat="45.19614" lon="5.7329">
        <ele>239.80000305176</ele>
        <time>2021-07-17T03:29:47.000Z</time>
      </trkpt>
      <trkpt lat="45.19613" lon="5.73287">
        <ele>239.80000305176</ele>
        <time>2021-07-17T03:29:48.000Z</time>
      </trkpt>
      <trkpt lat="45.19604" lon="5.73271">
        <ele>240</ele>
        <time>2021-07-17T03:29:53.000Z</time>
      </trkpt>
      <trkpt lat="45.196" lon="5.73265">
        <ele>240.19999694824</ele>
        <time>2021-07-17T03:29:55.000Z</time>
      </trkpt>
      <trkpt lat="45.19592" lon="5.73257">
        <ele>240</ele>
        <time>2021-07-17T03:29:59.000Z</time>
      </trkpt>
      <trkpt lat="45.19585" lon="5.73249">
        <ele>240</ele>
        <time>2021-07-17T03:30:02.000Z</time>
      </trkpt>
      <trkpt lat="45.19571" lon="5.73227">
        <ele>240.60000610352</ele>
        <time>2021-07-17T03:30:09.000Z</time>
      </trkpt>
      <trkpt lat="45.19569" lon="5.73224">
        <ele>240.60000610352</ele>
        <time>2021-07-17T03:30:10.000Z</time>
      </trkpt>
      <trkpt lat="45.19558" lon="5.73204">
        <ele>241</ele>
        <time>2021-07-17T03:30:17.000Z</time>
      </trkpt>
      <trkpt lat="45.19545" lon="5.73184">
        <ele>240.80000305176</ele>
        <time>2021-07-17T03:30:24.000Z</time>
      </trkpt>
      <trkpt lat="45.19537" lon="5.73173">
        <ele>241.39999389648</ele>
        <time>2021-07-17T03:30:28.000Z</time>
      </trkpt>
      <trkpt lat="45.19535" lon="5.73171">
        <ele>241</ele>
        <time>2021-07-17T03:30:29.000Z</time>
      </trkpt>
      <trkpt lat="45.19521" lon="5.73151">
        <ele>241.60000610352</ele>
        <time>2021-07-17T03:30:37.000Z</time>
      </trkpt>
      <trkpt lat="45.1951" lon="5.73131">
        <ele>241.60000610352</ele>
        <time>2021-07-17T03:30:43.000Z</time>
      </trkpt>
      <trkpt lat="45.19509" lon="5.73127">
        <ele>241.60000610352</ele>
        <time>2021-07-17T03:30:44.000Z</time>
      </trkpt>
      <trkpt lat="45.19497" lon="5.73105">
        <ele>241.60000610352</ele>
        <time>2021-07-17T03:30:51.000Z</time>
      </trkpt>
      <trkpt lat="45.19491" lon="5.73094">
        <ele>241.80000305176</ele>
        <time>2021-07-17T03:30:55.000Z</time>
      </trkpt>
      <trkpt lat="45.1949" lon="5.73092">
        <ele>242</ele>
        <time>2021-07-17T03:30:56.000Z</time>
      </trkpt>
      <trkpt lat="45.19483" lon="5.73087">
        <ele>242</ele>
        <time>2021-07-17T03:30:59.000Z</time>
      </trkpt>
      <trkpt lat="45.19469" lon="5.73083">
        <ele>242.19999694824</ele>
        <time>2021-07-17T03:31:06.000Z</time>
      </trkpt>
      <trkpt lat="45.19467" lon="5.73082">
        <ele>242.19999694824</ele>
        <time>2021-07-17T03:31:07.000Z</time>
      </trkpt>
      <trkpt lat="45.19464" lon="5.73079">
        <ele>241.80000305176</ele>
        <time>2021-07-17T03:31:09.000Z</time>
      </trkpt>
      <trkpt lat="45.19464" lon="5.73076">
        <ele>242.19999694824</ele>
        <time>2021-07-17T03:31:10.000Z</time>
      </trkpt>
      <trkpt lat="45.19463" lon="5.73073">
        <ele>242.19999694824</ele>
        <time>2021-07-17T03:31:11.000Z</time>
      </trkpt>
      <trkpt lat="45.19457" lon="5.73061">
        <ele>241.60000610352</ele>
        <time>2021-07-17T03:31:15.000Z</time>
      </trkpt>
      <trkpt lat="45.19455" lon="5.73059">
        <ele>241.60000610352</ele>
        <time>2021-07-17T03:31:16.000Z</time>
      </trkpt>
      <trkpt lat="45.19449" lon="5.73055">
        <ele>240.19999694824</ele>
        <time>2021-07-17T03:31:20.000Z</time>
      </trkpt>
      <trkpt lat="45.19449" lon="5.73055">
        <ele>239.80000305176</ele>
        <time>2021-07-17T03:31:21.000Z</time>
      </trkpt>
      <trkpt lat="45.19444" lon="5.7305">
        <ele>239.80000305176</ele>
        <time>2021-07-17T03:31:24.000Z</time>
      </trkpt>
      <trkpt lat="45.19444" lon="5.73048">
        <ele>239.60000610352</ele>
        <time>2021-07-17T03:31:26.000Z</time>
      </trkpt>
      <trkpt lat="45.19442" lon="5.73046">
        <ele>240.39999389648</ele>
        <time>2021-07-17T03:31:28.000Z</time>
      </trkpt>
      <trkpt lat="45.19435" lon="5.73037">
        <ele>241.39999389648</ele>
        <time>2021-07-17T03:31:32.000Z</time>
      </trkpt>
      <trkpt lat="45.19434" lon="5.73033">
        <ele>241.39999389648</ele>
        <time>2021-07-17T03:31:33.000Z</time>
      </trkpt>
      <trkpt lat="45.19427" lon="5.73012">
        <ele>240.60000610352</ele>
        <time>2021-07-17T03:31:39.000Z</time>
      </trkpt>
      <trkpt lat="45.19417" lon="5.72995">
        <ele>240.60000610352</ele>
        <time>2021-07-17T03:31:44.000Z</time>
      </trkpt>
      <trkpt lat="45.19418" lon="5.72991">
        <ele>240.60000610352</ele>
        <time>2021-07-17T03:31:45.000Z</time>
      </trkpt>
      <trkpt lat="45.19417" lon="5.72986">
        <ele>240.19999694824</ele>
        <time>2021-07-17T03:31:47.000Z</time>
      </trkpt>
      <trkpt lat="45.19416" lon="5.72984">
        <ele>240.19999694824</ele>
        <time>2021-07-17T03:31:48.000Z</time>
      </trkpt>
      <trkpt lat="45.1941" lon="5.7298">
        <ele>240.19999694824</ele>
        <time>2021-07-17T03:31:50.000Z</time>
      </trkpt>
      <trkpt lat="45.19406" lon="5.72973">
        <ele>240</ele>
        <time>2021-07-17T03:31:52.000Z</time>
      </trkpt>
      <trkpt lat="45.19403" lon="5.72968">
        <ele>240.19999694824</ele>
        <time>2021-07-17T03:31:54.000Z</time>
      </trkpt>
      <trkpt lat="45.19402" lon="5.72965">
        <ele>240</ele>
        <time>2021-07-17T03:31:55.000Z</time>
      </trkpt>
      <trkpt lat="45.19396" lon="5.72956">
        <ele>239.80000305176</ele>
        <time>2021-07-17T03:31:59.000Z</time>
      </trkpt>
      <trkpt lat="45.19395" lon="5.72952">
        <ele>239.80000305176</ele>
        <time>2021-07-17T03:32:00.000Z</time>
      </trkpt>
      <trkpt lat="45.19389" lon="5.72937">
        <ele>239.80000305176</ele>
        <time>2021-07-17T03:32:04.000Z</time>
      </trkpt>
      <trkpt lat="45.19384" lon="5.72935">
        <ele>239.80000305176</ele>
        <time>2021-07-17T03:32:05.000Z</time>
      </trkpt>
      <trkpt lat="45.19372" lon="5.72927">
        <ele>239.39999389648</ele>
        <time>2021-07-17T03:32:10.000Z</time>
      </trkpt>
      <trkpt lat="45.19365" lon="5.72919">
        <ele>239.39999389648</ele>
        <time>2021-07-17T03:32:13.000Z</time>
      </trkpt>
      <trkpt lat="45.19352" lon="5.72916">
        <ele>239.39999389648</ele>
        <time>2021-07-17T03:32:19.000Z</time>
      </trkpt>
      <trkpt lat="45.19349" lon="5.72916">
        <ele>239</ele>
        <time>2021-07-17T03:32:20.000Z</time>
      </trkpt>
      <trkpt lat="45.1934" lon="5.72915">
        <ele>239</ele>
        <time>2021-07-17T03:32:23.000Z</time>
      </trkpt>
      <trkpt lat="45.19334" lon="5.72915">
        <ele>239</ele>
        <time>2021-07-17T03:32:25.000Z</time>
      </trkpt>
      <trkpt lat="45.1932" lon="5.72912">
        <ele>239.60000610352</ele>
        <time>2021-07-17T03:32:30.000Z</time>
      </trkpt>
      <trkpt lat="45.19316" lon="5.72913">
        <ele>240</ele>
        <time>2021-07-17T03:32:33.000Z</time>
      </trkpt>
      <trkpt lat="45.19316" lon="5.72915">
        <ele>240</ele>
        <time>2021-07-17T03:32:34.000Z</time>
      </trkpt>
      <trkpt lat="45.19317" lon="5.72908">
        <ele>240</ele>
        <time>2021-07-17T03:32:37.000Z</time>
      </trkpt>
      <trkpt lat="45.19324" lon="5.72886">
        <ele>240</ele>
        <time>2021-07-17T03:32:42.000Z</time>
      </trkpt>
      <trkpt lat="45.19318" lon="5.72867">
        <ele>240</ele>
        <time>2021-07-17T03:32:47.000Z</time>
      </trkpt>
      <trkpt lat="45.19312" lon="5.72839">
        <ele>239.80000305176</ele>
        <time>2021-07-17T03:32:53.000Z</time>
      </trkpt>
      <trkpt lat="45.19311" lon="5.72835">
        <ele>239.60000610352</ele>
        <time>2021-07-17T03:32:54.000Z</time>
      </trkpt>
      <trkpt lat="45.1931" lon="5.72806">
        <ele>239.60000610352</ele>
        <time>2021-07-17T03:33:01.000Z</time>
      </trkpt>
      <trkpt lat="45.19309" lon="5.72797">
        <ele>239.60000610352</ele>
        <time>2021-07-17T03:33:03.000Z</time>
      </trkpt>
      <trkpt lat="45.19317" lon="5.72772">
        <ele>239.39999389648</ele>
        <time>2021-07-17T03:33:09.000Z</time>
      </trkpt>
      <trkpt lat="45.19318" lon="5.72767">
        <ele>239</ele>
        <time>2021-07-17T03:33:10.000Z</time>
      </trkpt>
      <trkpt lat="45.19321" lon="5.72756">
        <ele>239</ele>
        <time>2021-07-17T03:33:13.000Z</time>
      </trkpt>
      <trkpt lat="45.19319" lon="5.72747">
        <ele>239</ele>
        <time>2021-07-17T03:33:15.000Z</time>
      </trkpt>
      <trkpt lat="45.19313" lon="5.72732">
        <ele>239</ele>
        <time>2021-07-17T03:33:19.000Z</time>
      </trkpt>
      <trkpt lat="45.19308" lon="5.72726">
        <ele>239.19999694824</ele>
        <time>2021-07-17T03:33:21.000Z</time>
      </trkpt>
      <trkpt lat="45.19294" lon="5.72708">
        <ele>238.80000305176</ele>
        <time>2021-07-17T03:33:26.000Z</time>
      </trkpt>
      <trkpt lat="45.19291" lon="5.72705">
        <ele>238.60000610352</ele>
        <time>2021-07-17T03:33:27.000Z</time>
      </trkpt>
      <trkpt lat="45.19285" lon="5.72696">
        <ele>238.19999694824</ele>
        <time>2021-07-17T03:33:30.000Z</time>
      </trkpt>
      <trkpt lat="45.19284" lon="5.72692">
        <ele>238.19999694824</ele>
        <time>2021-07-17T03:33:31.000Z</time>
      </trkpt>
      <trkpt lat="45.19282" lon="5.72689">
        <ele>238.19999694824</ele>
        <time>2021-07-17T03:33:32.000Z</time>
      </trkpt>
      <trkpt lat="45.19282" lon="5.72686">
        <ele>238.19999694824</ele>
        <time>2021-07-17T03:33:33.000Z</time>
      </trkpt>
      <trkpt lat="45.19283" lon="5.72671">
        <ele>238.60000610352</ele>
        <time>2021-07-17T03:33:37.000Z</time>
      </trkpt>
      <trkpt lat="45.19283" lon="5.72647">
        <ele>238.60000610352</ele>
        <time>2021-07-17T03:33:44.000Z</time>
      </trkpt>
      <trkpt lat="45.1928" lon="5.72621">
        <ele>238.39999389648</ele>
        <time>2021-07-17T03:33:50.000Z</time>
      </trkpt>
      <trkpt lat="45.19281" lon="5.72617">
        <ele>238.39999389648</ele>
        <time>2021-07-17T03:33:51.000Z</time>
      </trkpt>
      <trkpt lat="45.19283" lon="5.72603">
        <ele>238.60000610352</ele>
        <time>2021-07-17T03:33:54.000Z</time>
      </trkpt>
      <trkpt lat="45.19283" lon="5.72599">
        <ele>238.39999389648</ele>
        <time>2021-07-17T03:33:55.000Z</time>
      </trkpt>
      <trkpt lat="45.19283" lon="5.72596">
        <ele>238.39999389648</ele>
        <time>2021-07-17T03:33:56.000Z</time>
      </trkpt>
      <trkpt lat="45.19281" lon="5.7259">
        <ele>238.39999389648</ele>
        <time>2021-07-17T03:33:58.000Z</time>
      </trkpt>
      <trkpt lat="45.19279" lon="5.72582">
        <ele>238.39999389648</ele>
        <time>2021-07-17T03:34:00.000Z</time>
      </trkpt>
      <trkpt lat="45.19279" lon="5.72559">
        <ele>239</ele>
        <time>2021-07-17T03:34:06.000Z</time>
      </trkpt>
      <trkpt lat="45.19277" lon="5.72555">
        <ele>239</ele>
        <time>2021-07-17T03:34:07.000Z</time>
      </trkpt>
      <trkpt lat="45.19278" lon="5.72551">
        <ele>239</ele>
        <time>2021-07-17T03:34:08.000Z</time>
      </trkpt>
      <trkpt lat="45.19282" lon="5.72541">
        <ele>239</ele>
        <time>2021-07-17T03:34:11.000Z</time>
      </trkpt>
      <trkpt lat="45.19282" lon="5.72519">
        <ele>239</ele>
        <time>2021-07-17T03:34:16.000Z</time>
      </trkpt>
      <trkpt lat="45.1928" lon="5.72497">
        <ele>239.19999694824</ele>
        <time>2021-07-17T03:34:22.000Z</time>
      </trkpt>
      <trkpt lat="45.19279" lon="5.72485">
        <ele>239.19999694824</ele>
        <time>2021-07-17T03:34:25.000Z</time>
      </trkpt>
      <trkpt lat="45.19279" lon="5.72474">
        <ele>240</ele>
        <time>2021-07-17T03:34:28.000Z</time>
      </trkpt>
      <trkpt lat="45.19278" lon="5.7247">
        <ele>240</ele>
        <time>2021-07-17T03:34:29.000Z</time>
      </trkpt>
      <trkpt lat="45.19276" lon="5.72459">
        <ele>240.19999694824</ele>
        <time>2021-07-17T03:34:32.000Z</time>
      </trkpt>
      <trkpt lat="45.19274" lon="5.72446">
        <ele>240.60000610352</ele>
        <time>2021-07-17T03:34:36.000Z</time>
      </trkpt>
      <trkpt lat="45.19275" lon="5.72431">
        <ele>240.80000305176</ele>
        <time>2021-07-17T03:34:41.000Z</time>
      </trkpt>
      <trkpt lat="45.19277" lon="5.72428">
        <ele>241</ele>
        <time>2021-07-17T03:34:42.000Z</time>
      </trkpt>
      <trkpt lat="45.19279" lon="5.72427">
        <ele>241.19999694824</ele>
        <time>2021-07-17T03:34:43.000Z</time>
      </trkpt>
      <trkpt lat="45.19287" lon="5.72412">
        <ele>241.39999389648</ele>
        <time>2021-07-17T03:34:48.000Z</time>
      </trkpt>
      <trkpt lat="45.19302" lon="5.724">
        <ele>241.60000610352</ele>
        <time>2021-07-17T03:34:54.000Z</time>
      </trkpt>
      <trkpt lat="45.19307" lon="5.72399">
        <ele>242</ele>
        <time>2021-07-17T03:34:56.000Z</time>
      </trkpt>
      <trkpt lat="45.19319" lon="5.72395">
        <ele>241.80000305176</ele>
        <time>2021-07-17T03:35:00.000Z</time>
      </trkpt>
      <trkpt lat="45.19332" lon="5.72391">
        <ele>241.60000610352</ele>
        <time>2021-07-17T03:35:05.000Z</time>
      </trkpt>
      <trkpt lat="45.19343" lon="5.72388">
        <ele>241.60000610352</ele>
        <time>2021-07-17T03:35:09.000Z</time>
      </trkpt>
      <trkpt lat="45.19345" lon="5.72387">
        <ele>241.60000610352</ele>
        <time>2021-07-17T03:35:10.000Z</time>
      </trkpt>
      <trkpt lat="45.19348" lon="5.72386">
        <ele>241.60000610352</ele>
        <time>2021-07-17T03:35:11.000Z</time>
      </trkpt>
      <trkpt lat="45.19357" lon="5.72375">
        <ele>241.19999694824</ele>
        <time>2021-07-17T03:35:16.000Z</time>
      </trkpt>
      <trkpt lat="45.19358" lon="5.72371">
        <ele>241.19999694824</ele>
        <time>2021-07-17T03:35:17.000Z</time>
      </trkpt>
      <trkpt lat="45.19358" lon="5.72365">
        <ele>241.19999694824</ele>
        <time>2021-07-17T03:35:19.000Z</time>
      </trkpt>
      <trkpt lat="45.19357" lon="5.72353">
        <ele>241.60000610352</ele>
        <time>2021-07-17T03:35:22.000Z</time>
      </trkpt>
      <trkpt lat="45.19352" lon="5.72335">
        <ele>241.80000305176</ele>
        <time>2021-07-17T03:35:27.000Z</time>
      </trkpt>
      <trkpt lat="45.19351" lon="5.72314">
        <ele>241.80000305176</ele>
        <time>2021-07-17T03:35:32.000Z</time>
      </trkpt>
      <trkpt lat="45.19348" lon="5.72289">
        <ele>242.60000610352</ele>
        <time>2021-07-17T03:35:39.000Z</time>
      </trkpt>
      <trkpt lat="45.19346" lon="5.72283">
        <ele>242.60000610352</ele>
        <time>2021-07-17T03:35:41.000Z</time>
      </trkpt>
      <trkpt lat="45.19343" lon="5.72276">
        <ele>242.39999389648</ele>
        <time>2021-07-17T03:35:43.000Z</time>
      </trkpt>
      <trkpt lat="45.19343" lon="5.72273">
        <ele>242.39999389648</ele>
        <time>2021-07-17T03:35:44.000Z</time>
      </trkpt>
      <trkpt lat="45.19342" lon="5.7227">
        <ele>242.80000305176</ele>
        <time>2021-07-17T03:35:45.000Z</time>
      </trkpt>
      <trkpt lat="45.19339" lon="5.72243">
        <ele>242.39999389648</ele>
        <time>2021-07-17T03:35:51.000Z</time>
      </trkpt>
      <trkpt lat="45.19334" lon="5.72226">
        <ele>242.39999389648</ele>
        <time>2021-07-17T03:35:56.000Z</time>
      </trkpt>
      <trkpt lat="45.19332" lon="5.72214">
        <ele>242.39999389648</ele>
        <time>2021-07-17T03:35:59.000Z</time>
      </trkpt>
      <trkpt lat="45.19331" lon="5.72207">
        <ele>242.39999389648</ele>
        <time>2021-07-17T03:36:01.000Z</time>
      </trkpt>
      <trkpt lat="45.19331" lon="5.72203">
        <ele>242.39999389648</ele>
        <time>2021-07-17T03:36:02.000Z</time>
      </trkpt>
      <trkpt lat="45.19328" lon="5.72181">
        <ele>242.19999694824</ele>
        <time>2021-07-17T03:36:08.000Z</time>
      </trkpt>
      <trkpt lat="45.19328" lon="5.72172">
        <ele>242</ele>
        <time>2021-07-17T03:36:10.000Z</time>
      </trkpt>
      <trkpt lat="45.19329" lon="5.7215">
        <ele>242</ele>
        <time>2021-07-17T03:36:15.000Z</time>
      </trkpt>
      <trkpt lat="45.19325" lon="5.72124">
        <ele>241.60000610352</ele>
        <time>2021-07-17T03:36:21.000Z</time>
      </trkpt>
      <trkpt lat="45.19325" lon="5.72119">
        <ele>241.60000610352</ele>
        <time>2021-07-17T03:36:22.000Z</time>
      </trkpt>
      <trkpt lat="45.19327" lon="5.72108">
        <ele>241.19999694824</ele>
        <time>2021-07-17T03:36:24.000Z</time>
      </trkpt>
      <trkpt lat="45.19333" lon="5.7209">
        <ele>241.19999694824</ele>
        <time>2021-07-17T03:36:28.000Z</time>
      </trkpt>
      <trkpt lat="45.19337" lon="5.72062">
        <ele>241</ele>
        <time>2021-07-17T03:36:35.000Z</time>
      </trkpt>
      <trkpt lat="45.19342" lon="5.72037">
        <ele>240.60000610352</ele>
        <time>2021-07-17T03:36:41.000Z</time>
      </trkpt>
      <trkpt lat="45.19346" lon="5.7201">
        <ele>240.60000610352</ele>
        <time>2021-07-17T03:36:48.000Z</time>
      </trkpt>
      <trkpt lat="45.19351" lon="5.71992">
        <ele>240.39999389648</ele>
        <time>2021-07-17T03:36:53.000Z</time>
      </trkpt>
      <trkpt lat="45.19352" lon="5.71988">
        <ele>240.19999694824</ele>
        <time>2021-07-17T03:36:54.000Z</time>
      </trkpt>
      <trkpt lat="45.19352" lon="5.71988">
        <ele>240.19999694824</ele>
        <time>2021-07-17T03:36:55.000Z</time>
      </trkpt>
      <trkpt lat="45.19356" lon="5.7198">
        <ele>240.19999694824</ele>
        <time>2021-07-17T03:36:56.000Z</time>
      </trkpt>
      <trkpt lat="45.19363" lon="5.71965">
        <ele>240</ele>
        <time>2021-07-17T03:37:00.000Z</time>
      </trkpt>
      <trkpt lat="45.19377" lon="5.71947">
        <ele>239.80000305176</ele>
        <time>2021-07-17T03:37:06.000Z</time>
      </trkpt>
      <trkpt lat="45.19379" lon="5.71944">
        <ele>239.80000305176</ele>
        <time>2021-07-17T03:37:07.000Z</time>
      </trkpt>
      <trkpt lat="45.19389" lon="5.71927">
        <ele>239.80000305176</ele>
        <time>2021-07-17T03:37:12.000Z</time>
      </trkpt>
      <trkpt lat="45.19398" lon="5.71914">
        <ele>239.60000610352</ele>
        <time>2021-07-17T03:37:16.000Z</time>
      </trkpt>
      <trkpt lat="45.19419" lon="5.71909">
        <ele>239.19999694824</ele>
        <time>2021-07-17T03:37:23.000Z</time>
      </trkpt>
      <trkpt lat="45.19431" lon="5.71905">
        <ele>239</ele>
        <time>2021-07-17T03:37:28.000Z</time>
      </trkpt>
      <trkpt lat="45.19441" lon="5.71905">
        <ele>239</ele>
        <time>2021-07-17T03:37:32.000Z</time>
      </trkpt>
      <trkpt lat="45.19461" lon="5.71901">
        <ele>238.80000305176</ele>
        <time>2021-07-17T03:37:39.000Z</time>
      </trkpt>
      <trkpt lat="45.19473" lon="5.71897">
        <ele>238.60000610352</ele>
        <time>2021-07-17T03:37:44.000Z</time>
      </trkpt>
      <trkpt lat="45.19488" lon="5.71895">
        <ele>238.80000305176</ele>
        <time>2021-07-17T03:37:50.000Z</time>
      </trkpt>
      <trkpt lat="45.19502" lon="5.71894">
        <ele>238.60000610352</ele>
        <time>2021-07-17T03:37:55.000Z</time>
      </trkpt>
      <trkpt lat="45.19507" lon="5.71893">
        <ele>238.60000610352</ele>
        <time>2021-07-17T03:37:57.000Z</time>
      </trkpt>
      <trkpt lat="45.19524" lon="5.71894">
        <ele>239</ele>
        <time>2021-07-17T03:38:03.000Z</time>
      </trkpt>
      <trkpt lat="45.19541" lon="5.71888">
        <ele>238.80000305176</ele>
        <time>2021-07-17T03:38:10.000Z</time>
      </trkpt>
      <trkpt lat="45.19543" lon="5.71889">
        <ele>238.80000305176</ele>
        <time>2021-07-17T03:38:11.000Z</time>
      </trkpt>
      <trkpt lat="45.19546" lon="5.71893">
        <ele>239</ele>
        <time>2021-07-17T03:38:13.000Z</time>
      </trkpt>
      <trkpt lat="45.19554" lon="5.71908">
        <ele>240</ele>
        <time>2021-07-17T03:38:18.000Z</time>
      </trkpt>
      <trkpt lat="45.19556" lon="5.7191">
        <ele>241</ele>
        <time>2021-07-17T03:38:19.000Z</time>
      </trkpt>
      <trkpt lat="45.19558" lon="5.71912">
        <ele>241.60000610352</ele>
        <time>2021-07-17T03:38:22.000Z</time>
      </trkpt>
      <trkpt lat="45.19558" lon="5.71914">
        <ele>242.60000610352</ele>
        <time>2021-07-17T03:38:24.000Z</time>
      </trkpt>
      <trkpt lat="45.19558" lon="5.71916">
        <ele>242.80000305176</ele>
        <time>2021-07-17T03:38:25.000Z</time>
      </trkpt>
      <trkpt lat="45.19557" lon="5.71918">
        <ele>243.60000610352</ele>
        <time>2021-07-17T03:38:26.000Z</time>
      </trkpt>
      <trkpt lat="45.19557" lon="5.7192">
        <ele>243.60000610352</ele>
        <time>2021-07-17T03:38:27.000Z</time>
      </trkpt>
      <trkpt lat="45.19558" lon="5.71922">
        <ele>243.60000610352</ele>
        <time>2021-07-17T03:38:29.000Z</time>
      </trkpt>
      <trkpt lat="45.19559" lon="5.71924">
        <ele>244.39999389648</ele>
        <time>2021-07-17T03:38:30.000Z</time>
      </trkpt>
      <trkpt lat="45.1956" lon="5.71926">
        <ele>244.60000610352</ele>
        <time>2021-07-17T03:38:31.000Z</time>
      </trkpt>
      <trkpt lat="45.19565" lon="5.71937">
        <ele>245.80000305176</ele>
        <time>2021-07-17T03:38:35.000Z</time>
      </trkpt>
      <trkpt lat="45.19566" lon="5.71939">
        <ele>246.19999694824</ele>
        <time>2021-07-17T03:38:36.000Z</time>
      </trkpt>
      <trkpt lat="45.19567" lon="5.71945">
        <ele>246.80000305176</ele>
        <time>2021-07-17T03:38:39.000Z</time>
      </trkpt>
      <trkpt lat="45.19568" lon="5.71947">
        <ele>247</ele>
        <time>2021-07-17T03:38:40.000Z</time>
      </trkpt>
      <trkpt lat="45.19569" lon="5.71948">
        <ele>248.19999694824</ele>
        <time>2021-07-17T03:38:41.000Z</time>
      </trkpt>
      <trkpt lat="45.19573" lon="5.71956">
        <ele>249.19999694824</ele>
        <time>2021-07-17T03:38:46.000Z</time>
      </trkpt>
      <trkpt lat="45.19575" lon="5.71958">
        <ele>249.19999694824</ele>
        <time>2021-07-17T03:38:47.000Z</time>
      </trkpt>
      <trkpt lat="45.19577" lon="5.71959">
        <ele>249.60000610352</ele>
        <time>2021-07-17T03:38:49.000Z</time>
      </trkpt>
      <trkpt lat="45.1958" lon="5.71961">
        <ele>250.39999389648</ele>
        <time>2021-07-17T03:38:50.000Z</time>
      </trkpt>
      <trkpt lat="45.19586" lon="5.71966">
        <ele>251.60000610352</ele>
        <time>2021-07-17T03:38:54.000Z</time>
      </trkpt>
      <trkpt lat="45.19588" lon="5.71969">
        <ele>252</ele>
        <time>2021-07-17T03:38:56.000Z</time>
      </trkpt>
      <trkpt lat="45.19591" lon="5.7197">
        <ele>252.80000305176</ele>
        <time>2021-07-17T03:38:58.000Z</time>
      </trkpt>
      <trkpt lat="45.19596" lon="5.71971">
        <ele>253.19999694824</ele>
        <time>2021-07-17T03:39:01.000Z</time>
      </trkpt>
      <trkpt lat="45.19598" lon="5.71972">
        <ele>253.80000305176</ele>
        <time>2021-07-17T03:39:03.000Z</time>
      </trkpt>
      <trkpt lat="45.19604" lon="5.71977">
        <ele>255.19999694824</ele>
        <time>2021-07-17T03:39:07.000Z</time>
      </trkpt>
      <trkpt lat="45.19606" lon="5.71979">
        <ele>255.60000610352</ele>
        <time>2021-07-17T03:39:09.000Z</time>
      </trkpt>
      <trkpt lat="45.19609" lon="5.71979">
        <ele>256.60000610352</ele>
        <time>2021-07-17T03:39:12.000Z</time>
      </trkpt>
      <trkpt lat="45.19612" lon="5.71982">
        <ele>257</ele>
        <time>2021-07-17T03:39:14.000Z</time>
      </trkpt>
      <trkpt lat="45.19615" lon="5.71984">
        <ele>258</ele>
        <time>2021-07-17T03:39:16.000Z</time>
      </trkpt>
      <trkpt lat="45.19618" lon="5.71988">
        <ele>258.60000610352</ele>
        <time>2021-07-17T03:39:19.000Z</time>
      </trkpt>
      <trkpt lat="45.1962" lon="5.7199">
        <ele>259.79998779297</ele>
        <time>2021-07-17T03:39:21.000Z</time>
      </trkpt>
      <trkpt lat="45.1962" lon="5.71991">
        <ele>259.79998779297</ele>
        <time>2021-07-17T03:39:22.000Z</time>
      </trkpt>
      <trkpt lat="45.19621" lon="5.71993">
        <ele>260.60000610352</ele>
        <time>2021-07-17T03:39:24.000Z</time>
      </trkpt>
      <trkpt lat="45.19622" lon="5.71994">
        <ele>261</ele>
        <time>2021-07-17T03:39:25.000Z</time>
      </trkpt>
      <trkpt lat="45.19626" lon="5.71998">
        <ele>262.39999389648</ele>
        <time>2021-07-17T03:39:29.000Z</time>
      </trkpt>
      <trkpt lat="45.19627" lon="5.72">
        <ele>263</ele>
        <time>2021-07-17T03:39:30.000Z</time>
      </trkpt>
      <trkpt lat="45.19629" lon="5.72004">
        <ele>263.39999389648</ele>
        <time>2021-07-17T03:39:32.000Z</time>
      </trkpt>
      <trkpt lat="45.19631" lon="5.72006">
        <ele>264.60000610352</ele>
        <time>2021-07-17T03:39:35.000Z</time>
      </trkpt>
      <trkpt lat="45.19631" lon="5.72006">
        <ele>264.60000610352</ele>
        <time>2021-07-17T03:39:36.000Z</time>
      </trkpt>
      <trkpt lat="45.19633" lon="5.72008">
        <ele>266</ele>
        <time>2021-07-17T03:39:38.000Z</time>
      </trkpt>
      <trkpt lat="45.19633" lon="5.72009">
        <ele>266.60000610352</ele>
        <time>2021-07-17T03:39:39.000Z</time>
      </trkpt>
      <trkpt lat="45.19633" lon="5.72011">
        <ele>266.79998779297</ele>
        <time>2021-07-17T03:39:40.000Z</time>
      </trkpt>
      <trkpt lat="45.19634" lon="5.72011">
        <ele>267.20001220703</ele>
        <time>2021-07-17T03:39:41.000Z</time>
      </trkpt>
      <trkpt lat="45.19634" lon="5.72012">
        <ele>267.60000610352</ele>
        <time>2021-07-17T03:39:42.000Z</time>
      </trkpt>
      <trkpt lat="45.19635" lon="5.72012">
        <ele>268</ele>
        <time>2021-07-17T03:39:43.000Z</time>
      </trkpt>
      <trkpt lat="45.19636" lon="5.72013">
        <ele>269</ele>
        <time>2021-07-17T03:39:45.000Z</time>
      </trkpt>
      <trkpt lat="45.1964" lon="5.72019">
        <ele>270</ele>
        <time>2021-07-17T03:39:49.000Z</time>
      </trkpt>
      <trkpt lat="45.19641" lon="5.72021">
        <ele>270.20001220703</ele>
        <time>2021-07-17T03:39:50.000Z</time>
      </trkpt>
      <trkpt lat="45.19644" lon="5.72027">
        <ele>270.60000610352</ele>
        <time>2021-07-17T03:39:53.000Z</time>
      </trkpt>
      <trkpt lat="45.19645" lon="5.72028">
        <ele>271</ele>
        <time>2021-07-17T03:39:54.000Z</time>
      </trkpt>
      <trkpt lat="45.19646" lon="5.72031">
        <ele>271.20001220703</ele>
        <time>2021-07-17T03:39:56.000Z</time>
      </trkpt>
      <trkpt lat="45.19647" lon="5.7204">
        <ele>272.79998779297</ele>
        <time>2021-07-17T03:40:00.000Z</time>
      </trkpt>
      <trkpt lat="45.19648" lon="5.72043">
        <ele>272.79998779297</ele>
        <time>2021-07-17T03:40:02.000Z</time>
      </trkpt>
      <trkpt lat="45.19646" lon="5.72045">
        <ele>273.39999389648</ele>
        <time>2021-07-17T03:40:05.000Z</time>
      </trkpt>
      <trkpt lat="45.19646" lon="5.72045">
        <ele>273.39999389648</ele>
        <time>2021-07-17T03:40:06.000Z</time>
      </trkpt>
      <trkpt lat="45.19646" lon="5.72048">
        <ele>273.60000610352</ele>
        <time>2021-07-17T03:40:07.000Z</time>
      </trkpt>
      <trkpt lat="45.19646" lon="5.7205">
        <ele>273.79998779297</ele>
        <time>2021-07-17T03:40:09.000Z</time>
      </trkpt>
      <trkpt lat="45.19646" lon="5.72057">
        <ele>274.39999389648</ele>
        <time>2021-07-17T03:40:11.000Z</time>
      </trkpt>
      <trkpt lat="45.19646" lon="5.72059">
        <ele>274.39999389648</ele>
        <time>2021-07-17T03:40:12.000Z</time>
      </trkpt>
      <trkpt lat="45.19646" lon="5.72062">
        <ele>275</ele>
        <time>2021-07-17T03:40:13.000Z</time>
      </trkpt>
      <trkpt lat="45.19642" lon="5.72068">
        <ele>275.79998779297</ele>
        <time>2021-07-17T03:40:17.000Z</time>
      </trkpt>
      <trkpt lat="45.19641" lon="5.72069">
        <ele>276.39999389648</ele>
        <time>2021-07-17T03:40:19.000Z</time>
      </trkpt>
      <trkpt lat="45.19642" lon="5.72068">
        <ele>277.20001220703</ele>
        <time>2021-07-17T03:40:23.000Z</time>
      </trkpt>
      <trkpt lat="45.19642" lon="5.72067">
        <ele>278.20001220703</ele>
        <time>2021-07-17T03:40:24.000Z</time>
      </trkpt>
      <trkpt lat="45.19643" lon="5.72068">
        <ele>278.20001220703</ele>
        <time>2021-07-17T03:40:25.000Z</time>
      </trkpt>
      <trkpt lat="45.19645" lon="5.72067">
        <ele>278.39999389648</ele>
        <time>2021-07-17T03:40:28.000Z</time>
      </trkpt>
      <trkpt lat="45.19646" lon="5.72067">
        <ele>279.20001220703</ele>
        <time>2021-07-17T03:40:29.000Z</time>
      </trkpt>
      <trkpt lat="45.19648" lon="5.72068">
        <ele>279.60000610352</ele>
        <time>2021-07-17T03:40:32.000Z</time>
      </trkpt>
      <trkpt lat="45.1965" lon="5.72067">
        <ele>280.39999389648</ele>
        <time>2021-07-17T03:40:34.000Z</time>
      </trkpt>
      <trkpt lat="45.19652" lon="5.72067">
        <ele>280.60000610352</ele>
        <time>2021-07-17T03:40:37.000Z</time>
      </trkpt>
      <trkpt lat="45.19653" lon="5.72068">
        <ele>280.60000610352</ele>
        <time>2021-07-17T03:40:38.000Z</time>
      </trkpt>
      <trkpt lat="45.19654" lon="5.7207">
        <ele>282</ele>
        <time>2021-07-17T03:40:39.000Z</time>
      </trkpt>
      <trkpt lat="45.19655" lon="5.72074">
        <ele>282.39999389648</ele>
        <time>2021-07-17T03:40:41.000Z</time>
      </trkpt>
      <trkpt lat="45.19657" lon="5.72077">
        <ele>282.79998779297</ele>
        <time>2021-07-17T03:40:43.000Z</time>
      </trkpt>
      <trkpt lat="45.19657" lon="5.72078">
        <ele>283.20001220703</ele>
        <time>2021-07-17T03:40:44.000Z</time>
      </trkpt>
      <trkpt lat="45.19658" lon="5.72078">
        <ele>283.39999389648</ele>
        <time>2021-07-17T03:40:45.000Z</time>
      </trkpt>
      <trkpt lat="45.19658" lon="5.72077">
        <ele>283.39999389648</ele>
        <time>2021-07-17T03:40:46.000Z</time>
      </trkpt>
      <trkpt lat="45.19661" lon="5.72074">
        <ele>284.20001220703</ele>
        <time>2021-07-17T03:40:50.000Z</time>
      </trkpt>
      <trkpt lat="45.19664" lon="5.72075">
        <ele>285.79998779297</ele>
        <time>2021-07-17T03:40:54.000Z</time>
      </trkpt>
      <trkpt lat="45.19667" lon="5.72076">
        <ele>286.20001220703</ele>
        <time>2021-07-17T03:40:57.000Z</time>
      </trkpt>
      <trkpt lat="45.19669" lon="5.72076">
        <ele>287.20001220703</ele>
        <time>2021-07-17T03:41:00.000Z</time>
      </trkpt>
      <trkpt lat="45.1967" lon="5.72079">
        <ele>287.79998779297</ele>
        <time>2021-07-17T03:41:02.000Z</time>
      </trkpt>
      <trkpt lat="45.1967" lon="5.7208">
        <ele>288</ele>
        <time>2021-07-17T03:41:03.000Z</time>
      </trkpt>
      <trkpt lat="45.1967" lon="5.72083">
        <ele>288.20001220703</ele>
        <time>2021-07-17T03:41:04.000Z</time>
      </trkpt>
      <trkpt lat="45.1967" lon="5.72087">
        <ele>289</ele>
        <time>2021-07-17T03:41:06.000Z</time>
      </trkpt>
      <trkpt lat="45.1967" lon="5.72089">
        <ele>289.79998779297</ele>
        <time>2021-07-17T03:41:09.000Z</time>
      </trkpt>
      <trkpt lat="45.1967" lon="5.72091">
        <ele>290.39999389648</ele>
        <time>2021-07-17T03:41:10.000Z</time>
      </trkpt>
      <trkpt lat="45.1967" lon="5.72092">
        <ele>290.60000610352</ele>
        <time>2021-07-17T03:41:11.000Z</time>
      </trkpt>
      <trkpt lat="45.1967" lon="5.72093">
        <ele>290.79998779297</ele>
        <time>2021-07-17T03:41:12.000Z</time>
      </trkpt>
      <trkpt lat="45.1967" lon="5.72094">
        <ele>292</ele>
        <time>2021-07-17T03:41:13.000Z</time>
      </trkpt>
      <trkpt lat="45.19669" lon="5.721">
        <ele>292.20001220703</ele>
        <time>2021-07-17T03:41:16.000Z</time>
      </trkpt>
      <trkpt lat="45.19667" lon="5.72105">
        <ele>293.20001220703</ele>
        <time>2021-07-17T03:41:19.000Z</time>
      </trkpt>
      <trkpt lat="45.19666" lon="5.72105">
        <ele>293.79998779297</ele>
        <time>2021-07-17T03:41:21.000Z</time>
      </trkpt>
      <trkpt lat="45.19662" lon="5.7211">
        <ele>294.79998779297</ele>
        <time>2021-07-17T03:41:23.000Z</time>
      </trkpt>
      <trkpt lat="45.19659" lon="5.72112">
        <ele>295.20001220703</ele>
        <time>2021-07-17T03:41:25.000Z</time>
      </trkpt>
      <trkpt lat="45.19659" lon="5.72115">
        <ele>295.39999389648</ele>
        <time>2021-07-17T03:41:27.000Z</time>
      </trkpt>
      <trkpt lat="45.1966" lon="5.72117">
        <ele>295.39999389648</ele>
        <time>2021-07-17T03:41:28.000Z</time>
      </trkpt>
      <trkpt lat="45.19659" lon="5.72119">
        <ele>295.79998779297</ele>
        <time>2021-07-17T03:41:29.000Z</time>
      </trkpt>
      <trkpt lat="45.19658" lon="5.72121">
        <ele>296</ele>
        <time>2021-07-17T03:41:30.000Z</time>
      </trkpt>
      <trkpt lat="45.19657" lon="5.72126">
        <ele>296.39999389648</ele>
        <time>2021-07-17T03:41:32.000Z</time>
      </trkpt>
      <trkpt lat="45.19655" lon="5.72132">
        <ele>296.79998779297</ele>
        <time>2021-07-17T03:41:35.000Z</time>
      </trkpt>
      <trkpt lat="45.19653" lon="5.72134">
        <ele>297</ele>
        <time>2021-07-17T03:41:36.000Z</time>
      </trkpt>
      <trkpt lat="45.19634" lon="5.72142">
        <ele>296.79998779297</ele>
        <time>2021-07-17T03:41:42.000Z</time>
      </trkpt>
      <trkpt lat="45.19613" lon="5.72148">
        <ele>295.79998779297</ele>
        <time>2021-07-17T03:41:50.000Z</time>
      </trkpt>
      <trkpt lat="45.19598" lon="5.7215">
        <ele>295</ele>
        <time>2021-07-17T03:41:56.000Z</time>
      </trkpt>
      <trkpt lat="45.19594" lon="5.72151">
        <ele>294.20001220703</ele>
        <time>2021-07-17T03:41:58.000Z</time>
      </trkpt>
      <trkpt lat="45.1958" lon="5.7216">
        <ele>294.60000610352</ele>
        <time>2021-07-17T03:42:04.000Z</time>
      </trkpt>
      <trkpt lat="45.19571" lon="5.72171">
        <ele>294.79998779297</ele>
        <time>2021-07-17T03:42:10.000Z</time>
      </trkpt>
      <trkpt lat="45.19569" lon="5.72175">
        <ele>294.79998779297</ele>
        <time>2021-07-17T03:42:12.000Z</time>
      </trkpt>
      <trkpt lat="45.19568" lon="5.72181">
        <ele>295.39999389648</ele>
        <time>2021-07-17T03:42:15.000Z</time>
      </trkpt>
      <trkpt lat="45.19567" lon="5.72182">
        <ele>296.39999389648</ele>
        <time>2021-07-17T03:42:18.000Z</time>
      </trkpt>
      <trkpt lat="45.19565" lon="5.72184">
        <ele>296.60000610352</ele>
        <time>2021-07-17T03:42:19.000Z</time>
      </trkpt>
      <trkpt lat="45.1956" lon="5.72187">
        <ele>297.60000610352</ele>
        <time>2021-07-17T03:42:22.000Z</time>
      </trkpt>
      <trkpt lat="45.19554" lon="5.72188">
        <ele>298</ele>
        <time>2021-07-17T03:42:25.000Z</time>
      </trkpt>
      <trkpt lat="45.19551" lon="5.72186">
        <ele>298.79998779297</ele>
        <time>2021-07-17T03:42:27.000Z</time>
      </trkpt>
      <trkpt lat="45.19548" lon="5.72185">
        <ele>299</ele>
        <time>2021-07-17T03:42:29.000Z</time>
      </trkpt>
      <trkpt lat="45.19546" lon="5.72184">
        <ele>299.20001220703</ele>
        <time>2021-07-17T03:42:30.000Z</time>
      </trkpt>
      <trkpt lat="45.19537" lon="5.72182">
        <ele>299.39999389648</ele>
        <time>2021-07-17T03:42:35.000Z</time>
      </trkpt>
      <trkpt lat="45.19532" lon="5.72181">
        <ele>299.39999389648</ele>
        <time>2021-07-17T03:42:37.000Z</time>
      </trkpt>
      <trkpt lat="45.19527" lon="5.7218">
        <ele>299</ele>
        <time>2021-07-17T03:42:41.000Z</time>
      </trkpt>
      <trkpt lat="45.19525" lon="5.7218">
        <ele>299.20001220703</ele>
        <time>2021-07-17T03:42:42.000Z</time>
      </trkpt>
      <trkpt lat="45.19514" lon="5.72176">
        <ele>299.79998779297</ele>
        <time>2021-07-17T03:42:48.000Z</time>
      </trkpt>
      <trkpt lat="45.19504" lon="5.72173">
        <ele>300.39999389648</ele>
        <time>2021-07-17T03:42:54.000Z</time>
      </trkpt>
      <trkpt lat="45.19501" lon="5.72172">
        <ele>300.79998779297</ele>
        <time>2021-07-17T03:42:55.000Z</time>
      </trkpt>
      <trkpt lat="45.19495" lon="5.7217">
        <ele>300.79998779297</ele>
        <time>2021-07-17T03:42:58.000Z</time>
      </trkpt>
      <trkpt lat="45.19491" lon="5.7217">
        <ele>301.79998779297</ele>
        <time>2021-07-17T03:43:02.000Z</time>
      </trkpt>
      <trkpt lat="45.19489" lon="5.72171">
        <ele>302</ele>
        <time>2021-07-17T03:43:03.000Z</time>
      </trkpt>
      <trkpt lat="45.19486" lon="5.7217">
        <ele>303</ele>
        <time>2021-07-17T03:43:06.000Z</time>
      </trkpt>
      <trkpt lat="45.19483" lon="5.72171">
        <ele>303.79998779297</ele>
        <time>2021-07-17T03:43:09.000Z</time>
      </trkpt>
      <trkpt lat="45.19482" lon="5.72171">
        <ele>304.39999389648</ele>
        <time>2021-07-17T03:43:10.000Z</time>
      </trkpt>
      <trkpt lat="45.19479" lon="5.72172">
        <ele>306</ele>
        <time>2021-07-17T03:43:14.000Z</time>
      </trkpt>
      <trkpt lat="45.19479" lon="5.72172">
        <ele>306</ele>
        <time>2021-07-17T03:43:15.000Z</time>
      </trkpt>
      <trkpt lat="45.19476" lon="5.72171">
        <ele>306.20001220703</ele>
        <time>2021-07-17T03:43:18.000Z</time>
      </trkpt>
      <trkpt lat="45.19472" lon="5.72168">
        <ele>306</ele>
        <time>2021-07-17T03:43:19.000Z</time>
      </trkpt>
      <trkpt lat="45.19464" lon="5.72163">
        <ele>305.39999389648</ele>
        <time>2021-07-17T03:43:23.000Z</time>
      </trkpt>
      <trkpt lat="45.19463" lon="5.72162">
        <ele>304.79998779297</ele>
        <time>2021-07-17T03:43:24.000Z</time>
      </trkpt>
      <trkpt lat="45.1946" lon="5.72162">
        <ele>303.79998779297</ele>
        <time>2021-07-17T03:43:26.000Z</time>
      </trkpt>
      <trkpt lat="45.19458" lon="5.72162">
        <ele>303.39999389648</ele>
        <time>2021-07-17T03:43:28.000Z</time>
      </trkpt>
      <trkpt lat="45.19458" lon="5.72162">
        <ele>302.79998779297</ele>
        <time>2021-07-17T03:43:29.000Z</time>
      </trkpt>
      <trkpt lat="45.19455" lon="5.72164">
        <ele>302.20001220703</ele>
        <time>2021-07-17T03:43:32.000Z</time>
      </trkpt>
      <trkpt lat="45.19454" lon="5.72164">
        <ele>302</ele>
        <time>2021-07-17T03:43:33.000Z</time>
      </trkpt>
      <trkpt lat="45.19455" lon="5.72162">
        <ele>301.60000610352</ele>
        <time>2021-07-17T03:43:35.000Z</time>
      </trkpt>
      <trkpt lat="45.19453" lon="5.72165">
        <ele>301.20001220703</ele>
        <time>2021-07-17T03:43:38.000Z</time>
      </trkpt>
      <trkpt lat="45.19453" lon="5.72166">
        <ele>301.20001220703</ele>
        <time>2021-07-17T03:43:41.000Z</time>
      </trkpt>
      <trkpt lat="45.19455" lon="5.72163">
        <ele>301.60000610352</ele>
        <time>2021-07-17T03:43:43.000Z</time>
      </trkpt>
      <trkpt lat="45.19458" lon="5.72163">
        <ele>301.79998779297</ele>
        <time>2021-07-17T03:43:46.000Z</time>
      </trkpt>
      <trkpt lat="45.19457" lon="5.72164">
        <ele>301.79998779297</ele>
        <time>2021-07-17T03:43:48.000Z</time>
      </trkpt>
      <trkpt lat="45.19458" lon="5.72164">
        <ele>302.20001220703</ele>
        <time>2021-07-17T03:43:49.000Z</time>
      </trkpt>
      <trkpt lat="45.19458" lon="5.72165">
        <ele>303.39999389648</ele>
        <time>2021-07-17T03:43:50.000Z</time>
      </trkpt>
      <trkpt lat="45.19461" lon="5.72168">
        <ele>304</ele>
        <time>2021-07-17T03:43:53.000Z</time>
      </trkpt>
      <trkpt lat="45.19462" lon="5.72168">
        <ele>304.60000610352</ele>
        <time>2021-07-17T03:43:54.000Z</time>
      </trkpt>
      <trkpt lat="45.19463" lon="5.7217">
        <ele>305</ele>
        <time>2021-07-17T03:43:56.000Z</time>
      </trkpt>
      <trkpt lat="45.19464" lon="5.72169">
        <ele>305.20001220703</ele>
        <time>2021-07-17T03:43:57.000Z</time>
      </trkpt>
      <trkpt lat="45.19467" lon="5.72171">
        <ele>305.79998779297</ele>
        <time>2021-07-17T03:43:59.000Z</time>
      </trkpt>
      <trkpt lat="45.19468" lon="5.72173">
        <ele>306.20001220703</ele>
        <time>2021-07-17T03:44:01.000Z</time>
      </trkpt>
      <trkpt lat="45.19471" lon="5.72175">
        <ele>307</ele>
        <time>2021-07-17T03:44:04.000Z</time>
      </trkpt>
      <trkpt lat="45.19471" lon="5.72177">
        <ele>308</ele>
        <time>2021-07-17T03:44:06.000Z</time>
      </trkpt>
      <trkpt lat="45.19472" lon="5.72178">
        <ele>308.20001220703</ele>
        <time>2021-07-17T03:44:07.000Z</time>
      </trkpt>
      <trkpt lat="45.19473" lon="5.72182">
        <ele>309.20001220703</ele>
        <time>2021-07-17T03:44:10.000Z</time>
      </trkpt>
      <trkpt lat="45.19475" lon="5.72185">
        <ele>309.79998779297</ele>
        <time>2021-07-17T03:44:13.000Z</time>
      </trkpt>
      <trkpt lat="45.19476" lon="5.72187">
        <ele>310</ele>
        <time>2021-07-17T03:44:14.000Z</time>
      </trkpt>
      <trkpt lat="45.19477" lon="5.72188">
        <ele>310.60000610352</ele>
        <time>2021-07-17T03:44:15.000Z</time>
      </trkpt>
      <trkpt lat="45.1948" lon="5.72188">
        <ele>311.60000610352</ele>
        <time>2021-07-17T03:44:18.000Z</time>
      </trkpt>
      <trkpt lat="45.19482" lon="5.72189">
        <ele>312.39999389648</ele>
        <time>2021-07-17T03:44:20.000Z</time>
      </trkpt>
      <trkpt lat="45.19483" lon="5.72189">
        <ele>312.60000610352</ele>
        <time>2021-07-17T03:44:21.000Z</time>
      </trkpt>
      <trkpt lat="45.19488" lon="5.72191">
        <ele>314</ele>
        <time>2021-07-17T03:44:25.000Z</time>
      </trkpt>
      <trkpt lat="45.19489" lon="5.72191">
        <ele>314.20001220703</ele>
        <time>2021-07-17T03:44:26.000Z</time>
      </trkpt>
      <trkpt lat="45.19492" lon="5.72193">
        <ele>315.20001220703</ele>
        <time>2021-07-17T03:44:29.000Z</time>
      </trkpt>
      <trkpt lat="45.19495" lon="5.72196">
        <ele>315.39999389648</ele>
        <time>2021-07-17T03:44:32.000Z</time>
      </trkpt>
      <trkpt lat="45.19496" lon="5.72196">
        <ele>315.79998779297</ele>
        <time>2021-07-17T03:44:33.000Z</time>
      </trkpt>
      <trkpt lat="45.19497" lon="5.72196">
        <ele>316</ele>
        <time>2021-07-17T03:44:35.000Z</time>
      </trkpt>
      <trkpt lat="45.19499" lon="5.72197">
        <ele>316.60000610352</ele>
        <time>2021-07-17T03:44:37.000Z</time>
      </trkpt>
      <trkpt lat="45.195" lon="5.72198">
        <ele>316.60000610352</ele>
        <time>2021-07-17T03:44:38.000Z</time>
      </trkpt>
      <trkpt lat="45.19504" lon="5.72203">
        <ele>317.79998779297</ele>
        <time>2021-07-17T03:44:41.000Z</time>
      </trkpt>
      <trkpt lat="45.19508" lon="5.72206">
        <ele>318</ele>
        <time>2021-07-17T03:44:43.000Z</time>
      </trkpt>
      <trkpt lat="45.19508" lon="5.72206">
        <ele>318.20001220703</ele>
        <time>2021-07-17T03:44:44.000Z</time>
      </trkpt>
      <trkpt lat="45.19511" lon="5.72209">
        <ele>318.39999389648</ele>
        <time>2021-07-17T03:44:45.000Z</time>
      </trkpt>
      <trkpt lat="45.19514" lon="5.72215">
        <ele>318.39999389648</ele>
        <time>2021-07-17T03:44:48.000Z</time>
      </trkpt>
      <trkpt lat="45.19517" lon="5.72216">
        <ele>318.79998779297</ele>
        <time>2021-07-17T03:44:50.000Z</time>
      </trkpt>
      <trkpt lat="45.19519" lon="5.72219">
        <ele>319.39999389648</ele>
        <time>2021-07-17T03:44:52.000Z</time>
      </trkpt>
      <trkpt lat="45.1952" lon="5.72221">
        <ele>319.60000610352</ele>
        <time>2021-07-17T03:44:53.000Z</time>
      </trkpt>
      <trkpt lat="45.1952" lon="5.72222">
        <ele>319.60000610352</ele>
        <time>2021-07-17T03:44:54.000Z</time>
      </trkpt>
      <trkpt lat="45.19521" lon="5.72223">
        <ele>320.79998779297</ele>
        <time>2021-07-17T03:44:55.000Z</time>
      </trkpt>
      <trkpt lat="45.19521" lon="5.72223">
        <ele>320.79998779297</ele>
        <time>2021-07-17T03:44:56.000Z</time>
      </trkpt>
      <trkpt lat="45.19523" lon="5.72225">
        <ele>321.79998779297</ele>
        <time>2021-07-17T03:44:58.000Z</time>
      </trkpt>
      <trkpt lat="45.19523" lon="5.72226">
        <ele>322</ele>
        <time>2021-07-17T03:44:59.000Z</time>
      </trkpt>
      <trkpt lat="45.19525" lon="5.72228">
        <ele>323.20001220703</ele>
        <time>2021-07-17T03:45:01.000Z</time>
      </trkpt>
      <trkpt lat="45.19526" lon="5.72228">
        <ele>323.79998779297</ele>
        <time>2021-07-17T03:45:02.000Z</time>
      </trkpt>
      <trkpt lat="45.19528" lon="5.72227">
        <ele>324.60000610352</ele>
        <time>2021-07-17T03:45:04.000Z</time>
      </trkpt>
      <trkpt lat="45.19529" lon="5.72226">
        <ele>324.60000610352</ele>
        <time>2021-07-17T03:45:05.000Z</time>
      </trkpt>
      <trkpt lat="45.19534" lon="5.72225">
        <ele>325.20001220703</ele>
        <time>2021-07-17T03:45:07.000Z</time>
      </trkpt>
      <trkpt lat="45.1954" lon="5.72224">
        <ele>326</ele>
        <time>2021-07-17T03:45:10.000Z</time>
      </trkpt>
      <trkpt lat="45.19543" lon="5.72224">
        <ele>326</ele>
        <time>2021-07-17T03:45:12.000Z</time>
      </trkpt>
      <trkpt lat="45.19544" lon="5.72225">
        <ele>326.20001220703</ele>
        <time>2021-07-17T03:45:13.000Z</time>
      </trkpt>
      <trkpt lat="45.19552" lon="5.72234">
        <ele>326.60000610352</ele>
        <time>2021-07-17T03:45:17.000Z</time>
      </trkpt>
      <trkpt lat="45.19553" lon="5.72235">
        <ele>327.20001220703</ele>
        <time>2021-07-17T03:45:19.000Z</time>
      </trkpt>
      <trkpt lat="45.19555" lon="5.72238">
        <ele>327.60000610352</ele>
        <time>2021-07-17T03:45:21.000Z</time>
      </trkpt>
      <trkpt lat="45.19558" lon="5.7224">
        <ele>327.79998779297</ele>
        <time>2021-07-17T03:45:23.000Z</time>
      </trkpt>
      <trkpt lat="45.19559" lon="5.72242">
        <ele>328.20001220703</ele>
        <time>2021-07-17T03:45:24.000Z</time>
      </trkpt>
      <trkpt lat="45.19562" lon="5.72244">
        <ele>328.79998779297</ele>
        <time>2021-07-17T03:45:27.000Z</time>
      </trkpt>
      <trkpt lat="45.19564" lon="5.72245">
        <ele>329.60000610352</ele>
        <time>2021-07-17T03:45:29.000Z</time>
      </trkpt>
      <trkpt lat="45.19572" lon="5.7225">
        <ele>330.79998779297</ele>
        <time>2021-07-17T03:45:35.000Z</time>
      </trkpt>
      <trkpt lat="45.19576" lon="5.7225">
        <ele>331.39999389648</ele>
        <time>2021-07-17T03:45:39.000Z</time>
      </trkpt>
      <trkpt lat="45.1958" lon="5.72252">
        <ele>332</ele>
        <time>2021-07-17T03:45:42.000Z</time>
      </trkpt>
      <trkpt lat="45.19586" lon="5.72253">
        <ele>332.60000610352</ele>
        <time>2021-07-17T03:45:46.000Z</time>
      </trkpt>
      <trkpt lat="45.19593" lon="5.72254">
        <ele>333</ele>
        <time>2021-07-17T03:45:50.000Z</time>
      </trkpt>
      <trkpt lat="45.19606" lon="5.72259">
        <ele>334.39999389648</ele>
        <time>2021-07-17T03:45:56.000Z</time>
      </trkpt>
      <trkpt lat="45.19607" lon="5.72258">
        <ele>334.39999389648</ele>
        <time>2021-07-17T03:45:57.000Z</time>
      </trkpt>
      <trkpt lat="45.19609" lon="5.72257">
        <ele>334.79998779297</ele>
        <time>2021-07-17T03:45:58.000Z</time>
      </trkpt>
      <trkpt lat="45.19611" lon="5.72256">
        <ele>335</ele>
        <time>2021-07-17T03:46:00.000Z</time>
      </trkpt>
      <trkpt lat="45.19613" lon="5.72257">
        <ele>335.20001220703</ele>
        <time>2021-07-17T03:46:01.000Z</time>
      </trkpt>
      <trkpt lat="45.19617" lon="5.72257">
        <ele>335.39999389648</ele>
        <time>2021-07-17T03:46:03.000Z</time>
      </trkpt>
      <trkpt lat="45.19621" lon="5.72257">
        <ele>336</ele>
        <time>2021-07-17T03:46:06.000Z</time>
      </trkpt>
      <trkpt lat="45.19627" lon="5.72258">
        <ele>336.79998779297</ele>
        <time>2021-07-17T03:46:10.000Z</time>
      </trkpt>
      <trkpt lat="45.1963" lon="5.72259">
        <ele>337</ele>
        <time>2021-07-17T03:46:12.000Z</time>
      </trkpt>
      <trkpt lat="45.19636" lon="5.72259">
        <ele>337.79998779297</ele>
        <time>2021-07-17T03:46:16.000Z</time>
      </trkpt>
      <trkpt lat="45.19638" lon="5.72259">
        <ele>337.79998779297</ele>
        <time>2021-07-17T03:46:17.000Z</time>
      </trkpt>
      <trkpt lat="45.1964" lon="5.72259">
        <ele>338.20001220703</ele>
        <time>2021-07-17T03:46:18.000Z</time>
      </trkpt>
      <trkpt lat="45.19651" lon="5.72259">
        <ele>339</ele>
        <time>2021-07-17T03:46:24.000Z</time>
      </trkpt>
      <trkpt lat="45.19653" lon="5.72259">
        <ele>339.20001220703</ele>
        <time>2021-07-17T03:46:25.000Z</time>
      </trkpt>
      <trkpt lat="45.19662" lon="5.72259">
        <ele>340</ele>
        <time>2021-07-17T03:46:29.000Z</time>
      </trkpt>
      <trkpt lat="45.19666" lon="5.72257">
        <ele>340.39999389648</ele>
        <time>2021-07-17T03:46:32.000Z</time>
      </trkpt>
      <trkpt lat="45.19668" lon="5.72254">
        <ele>340.79998779297</ele>
        <time>2021-07-17T03:46:34.000Z</time>
      </trkpt>
      <trkpt lat="45.19673" lon="5.72248">
        <ele>341.20001220703</ele>
        <time>2021-07-17T03:46:38.000Z</time>
      </trkpt>
      <trkpt lat="45.19674" lon="5.72247">
        <ele>341.79998779297</ele>
        <time>2021-07-17T03:46:40.000Z</time>
      </trkpt>
      <trkpt lat="45.19679" lon="5.72241">
        <ele>342</ele>
        <time>2021-07-17T03:46:43.000Z</time>
      </trkpt>
      <trkpt lat="45.1968" lon="5.72239">
        <ele>342.39999389648</ele>
        <time>2021-07-17T03:46:44.000Z</time>
      </trkpt>
      <trkpt lat="45.19681" lon="5.72234">
        <ele>342.79998779297</ele>
        <time>2021-07-17T03:46:46.000Z</time>
      </trkpt>
      <trkpt lat="45.19684" lon="5.72226">
        <ele>343.39999389648</ele>
        <time>2021-07-17T03:46:50.000Z</time>
      </trkpt>
      <trkpt lat="45.19685" lon="5.72224">
        <ele>343.39999389648</ele>
        <time>2021-07-17T03:46:51.000Z</time>
      </trkpt>
      <trkpt lat="45.19687" lon="5.72223">
        <ele>343.60000610352</ele>
        <time>2021-07-17T03:46:52.000Z</time>
      </trkpt>
      <trkpt lat="45.19688" lon="5.7222">
        <ele>343.79998779297</ele>
        <time>2021-07-17T03:46:53.000Z</time>
      </trkpt>
      <trkpt lat="45.19689" lon="5.72218">
        <ele>344.60000610352</ele>
        <time>2021-07-17T03:46:54.000Z</time>
      </trkpt>
      <trkpt lat="45.19691" lon="5.72212">
        <ele>345</ele>
        <time>2021-07-17T03:46:57.000Z</time>
      </trkpt>
      <trkpt lat="45.19693" lon="5.72208">
        <ele>345</ele>
        <time>2021-07-17T03:46:59.000Z</time>
      </trkpt>
      <trkpt lat="45.19696" lon="5.72204">
        <ele>345.79998779297</ele>
        <time>2021-07-17T03:47:01.000Z</time>
      </trkpt>
      <trkpt lat="45.19697" lon="5.72203">
        <ele>345.79998779297</ele>
        <time>2021-07-17T03:47:02.000Z</time>
      </trkpt>
      <trkpt lat="45.19699" lon="5.72201">
        <ele>345.79998779297</ele>
        <time>2021-07-17T03:47:03.000Z</time>
      </trkpt>
      <trkpt lat="45.19704" lon="5.72199">
        <ele>346.20001220703</ele>
        <time>2021-07-17T03:47:06.000Z</time>
      </trkpt>
      <trkpt lat="45.19709" lon="5.72197">
        <ele>346.60000610352</ele>
        <time>2021-07-17T03:47:09.000Z</time>
      </trkpt>
      <trkpt lat="45.19711" lon="5.72197">
        <ele>347</ele>
        <time>2021-07-17T03:47:10.000Z</time>
      </trkpt>
      <trkpt lat="45.19713" lon="5.72197">
        <ele>347.20001220703</ele>
        <time>2021-07-17T03:47:12.000Z</time>
      </trkpt>
      <trkpt lat="45.19715" lon="5.72197">
        <ele>347.60000610352</ele>
        <time>2021-07-17T03:47:14.000Z</time>
      </trkpt>
      <trkpt lat="45.19717" lon="5.72197">
        <ele>347.79998779297</ele>
        <time>2021-07-17T03:47:16.000Z</time>
      </trkpt>
      <trkpt lat="45.19719" lon="5.72199">
        <ele>348.20001220703</ele>
        <time>2021-07-17T03:47:17.000Z</time>
      </trkpt>
      <trkpt lat="45.19721" lon="5.72206">
        <ele>348.60000610352</ele>
        <time>2021-07-17T03:47:20.000Z</time>
      </trkpt>
      <trkpt lat="45.19721" lon="5.72208">
        <ele>349.20001220703</ele>
        <time>2021-07-17T03:47:21.000Z</time>
      </trkpt>
      <trkpt lat="45.19721" lon="5.7221">
        <ele>349.39999389648</ele>
        <time>2021-07-17T03:47:22.000Z</time>
      </trkpt>
      <trkpt lat="45.1972" lon="5.72213">
        <ele>349.79998779297</ele>
        <time>2021-07-17T03:47:24.000Z</time>
      </trkpt>
      <trkpt lat="45.19719" lon="5.72213">
        <ele>350.39999389648</ele>
        <time>2021-07-17T03:47:25.000Z</time>
      </trkpt>
      <trkpt lat="45.19719" lon="5.72214">
        <ele>350.39999389648</ele>
        <time>2021-07-17T03:47:26.000Z</time>
      </trkpt>
      <trkpt lat="45.19718" lon="5.72216">
        <ele>350.79998779297</ele>
        <time>2021-07-17T03:47:28.000Z</time>
      </trkpt>
      <trkpt lat="45.19717" lon="5.72218">
        <ele>351.39999389648</ele>
        <time>2021-07-17T03:47:31.000Z</time>
      </trkpt>
      <trkpt lat="45.19716" lon="5.72219">
        <ele>351.79998779297</ele>
        <time>2021-07-17T03:47:32.000Z</time>
      </trkpt>
      <trkpt lat="45.19713" lon="5.72224">
        <ele>352.20001220703</ele>
        <time>2021-07-17T03:47:35.000Z</time>
      </trkpt>
      <trkpt lat="45.19712" lon="5.72227">
        <ele>352.79998779297</ele>
        <time>2021-07-17T03:47:37.000Z</time>
      </trkpt>
      <trkpt lat="45.19711" lon="5.72228">
        <ele>353.20001220703</ele>
        <time>2021-07-17T03:47:38.000Z</time>
      </trkpt>
      <trkpt lat="45.1971" lon="5.7223">
        <ele>353.20001220703</ele>
        <time>2021-07-17T03:47:40.000Z</time>
      </trkpt>
      <trkpt lat="45.19708" lon="5.72232">
        <ele>354</ele>
        <time>2021-07-17T03:47:42.000Z</time>
      </trkpt>
      <trkpt lat="45.19705" lon="5.72237">
        <ele>354.20001220703</ele>
        <time>2021-07-17T03:47:45.000Z</time>
      </trkpt>
      <trkpt lat="45.19704" lon="5.72238">
        <ele>354.20001220703</ele>
        <time>2021-07-17T03:47:46.000Z</time>
      </trkpt>
      <trkpt lat="45.19698" lon="5.72241">
        <ele>355.20001220703</ele>
        <time>2021-07-17T03:47:49.000Z</time>
      </trkpt>
      <trkpt lat="45.19697" lon="5.72242">
        <ele>355.60000610352</ele>
        <time>2021-07-17T03:47:51.000Z</time>
      </trkpt>
      <trkpt lat="45.19702" lon="5.72241">
        <ele>356.39999389648</ele>
        <time>2021-07-17T03:47:54.000Z</time>
      </trkpt>
      <trkpt lat="45.19705" lon="5.7224">
        <ele>356.39999389648</ele>
        <time>2021-07-17T03:47:56.000Z</time>
      </trkpt>
      <trkpt lat="45.19711" lon="5.72241">
        <ele>357.39999389648</ele>
        <time>2021-07-17T03:48:01.000Z</time>
      </trkpt>
      <trkpt lat="45.19713" lon="5.7224">
        <ele>358.39999389648</ele>
        <time>2021-07-17T03:48:04.000Z</time>
      </trkpt>
      <trkpt lat="45.19715" lon="5.72239">
        <ele>358.39999389648</ele>
        <time>2021-07-17T03:48:06.000Z</time>
      </trkpt>
      <trkpt lat="45.19718" lon="5.7224">
        <ele>359.39999389648</ele>
        <time>2021-07-17T03:48:10.000Z</time>
      </trkpt>
      <trkpt lat="45.19719" lon="5.7224">
        <ele>359.60000610352</ele>
        <time>2021-07-17T03:48:11.000Z</time>
      </trkpt>
      <trkpt lat="45.1972" lon="5.72239">
        <ele>359.79998779297</ele>
        <time>2021-07-17T03:48:12.000Z</time>
      </trkpt>
      <trkpt lat="45.19722" lon="5.72238">
        <ele>360.39999389648</ele>
        <time>2021-07-17T03:48:14.000Z</time>
      </trkpt>
      <trkpt lat="45.19723" lon="5.72238">
        <ele>360.39999389648</ele>
        <time>2021-07-17T03:48:15.000Z</time>
      </trkpt>
      <trkpt lat="45.19726" lon="5.72238">
        <ele>361.39999389648</ele>
        <time>2021-07-17T03:48:17.000Z</time>
      </trkpt>
      <trkpt lat="45.19729" lon="5.72239">
        <ele>361.60000610352</ele>
        <time>2021-07-17T03:48:19.000Z</time>
      </trkpt>
      <trkpt lat="45.19736" lon="5.72239">
        <ele>362.39999389648</ele>
        <time>2021-07-17T03:48:24.000Z</time>
      </trkpt>
      <trkpt lat="45.1974" lon="5.72239">
        <ele>362.79998779297</ele>
        <time>2021-07-17T03:48:26.000Z</time>
      </trkpt>
      <trkpt lat="45.19749" lon="5.72236">
        <ele>363.60000610352</ele>
        <time>2021-07-17T03:48:32.000Z</time>
      </trkpt>
      <trkpt lat="45.19751" lon="5.72235">
        <ele>363.79998779297</ele>
        <time>2021-07-17T03:48:34.000Z</time>
      </trkpt>
      <trkpt lat="45.19754" lon="5.72234">
        <ele>364.39999389648</ele>
        <time>2021-07-17T03:48:37.000Z</time>
      </trkpt>
      <trkpt lat="45.19756" lon="5.72234">
        <ele>364.60000610352</ele>
        <time>2021-07-17T03:48:38.000Z</time>
      </trkpt>
      <trkpt lat="45.19757" lon="5.72233">
        <ele>365.20001220703</ele>
        <time>2021-07-17T03:48:39.000Z</time>
      </trkpt>
      <trkpt lat="45.19761" lon="5.72233">
        <ele>365.60000610352</ele>
        <time>2021-07-17T03:48:42.000Z</time>
      </trkpt>
      <trkpt lat="45.19764" lon="5.72232">
        <ele>365.79998779297</ele>
        <time>2021-07-17T03:48:44.000Z</time>
      </trkpt>
      <trkpt lat="45.19765" lon="5.72233">
        <ele>366.39999389648</ele>
        <time>2021-07-17T03:48:46.000Z</time>
      </trkpt>
      <trkpt lat="45.19764" lon="5.72234">
        <ele>367.20001220703</ele>
        <time>2021-07-17T03:48:48.000Z</time>
      </trkpt>
      <trkpt lat="45.19764" lon="5.72236">
        <ele>367.60000610352</ele>
        <time>2021-07-17T03:48:49.000Z</time>
      </trkpt>
      <trkpt lat="45.19765" lon="5.72246">
        <ele>368.60000610352</ele>
        <time>2021-07-17T03:48:53.000Z</time>
      </trkpt>
      <trkpt lat="45.19765" lon="5.7225">
        <ele>368.79998779297</ele>
        <time>2021-07-17T03:48:56.000Z</time>
      </trkpt>
      <trkpt lat="45.19766" lon="5.7225">
        <ele>369.20001220703</ele>
        <time>2021-07-17T03:48:58.000Z</time>
      </trkpt>
      <trkpt lat="45.19767" lon="5.72249">
        <ele>369.60000610352</ele>
        <time>2021-07-17T03:49:00.000Z</time>
      </trkpt>
      <trkpt lat="45.19768" lon="5.72248">
        <ele>369.60000610352</ele>
        <time>2021-07-17T03:49:01.000Z</time>
      </trkpt>
      <trkpt lat="45.19771" lon="5.72245">
        <ele>370.20001220703</ele>
        <time>2021-07-17T03:49:04.000Z</time>
      </trkpt>
      <trkpt lat="45.19773" lon="5.72241">
        <ele>371</ele>
        <time>2021-07-17T03:49:06.000Z</time>
      </trkpt>
      <trkpt lat="45.19774" lon="5.7224">
        <ele>371</ele>
        <time>2021-07-17T03:49:07.000Z</time>
      </trkpt>
      <trkpt lat="45.19775" lon="5.72237">
        <ele>371.20001220703</ele>
        <time>2021-07-17T03:49:09.000Z</time>
      </trkpt>
      <trkpt lat="45.19776" lon="5.72234">
        <ele>371.20001220703</ele>
        <time>2021-07-17T03:49:11.000Z</time>
      </trkpt>
      <trkpt lat="45.19778" lon="5.72235">
        <ele>371.60000610352</ele>
        <time>2021-07-17T03:49:14.000Z</time>
      </trkpt>
      <trkpt lat="45.19778" lon="5.72235">
        <ele>371.60000610352</ele>
        <time>2021-07-17T03:49:15.000Z</time>
      </trkpt>
      <trkpt lat="45.19777" lon="5.72236">
        <ele>372.20001220703</ele>
        <time>2021-07-17T03:49:17.000Z</time>
      </trkpt>
      <trkpt lat="45.19778" lon="5.72235">
        <ele>372.39999389648</ele>
        <time>2021-07-17T03:49:20.000Z</time>
      </trkpt>
      <trkpt lat="45.1978" lon="5.72234">
        <ele>372.39999389648</ele>
        <time>2021-07-17T03:49:22.000Z</time>
      </trkpt>
      <trkpt lat="45.19782" lon="5.72231">
        <ele>373.20001220703</ele>
        <time>2021-07-17T03:49:25.000Z</time>
      </trkpt>
      <trkpt lat="45.19782" lon="5.72232">
        <ele>373.60000610352</ele>
        <time>2021-07-17T03:49:26.000Z</time>
      </trkpt>
      <trkpt lat="45.19782" lon="5.72235">
        <ele>374.20001220703</ele>
        <time>2021-07-17T03:49:29.000Z</time>
      </trkpt>
      <trkpt lat="45.19782" lon="5.72236">
        <ele>374.79998779297</ele>
        <time>2021-07-17T03:49:30.000Z</time>
      </trkpt>
      <trkpt lat="45.19782" lon="5.72237">
        <ele>375</ele>
        <time>2021-07-17T03:49:31.000Z</time>
      </trkpt>
      <trkpt lat="45.19781" lon="5.72237">
        <ele>375</ele>
        <time>2021-07-17T03:49:32.000Z</time>
      </trkpt>
      <trkpt lat="45.19782" lon="5.72238">
        <ele>375.39999389648</ele>
        <time>2021-07-17T03:49:34.000Z</time>
      </trkpt>
      <trkpt lat="45.19784" lon="5.72236">
        <ele>376</ele>
        <time>2021-07-17T03:49:37.000Z</time>
      </trkpt>
      <trkpt lat="45.19784" lon="5.72235">
        <ele>376</ele>
        <time>2021-07-17T03:49:38.000Z</time>
      </trkpt>
      <trkpt lat="45.19786" lon="5.72234">
        <ele>376.20001220703</ele>
        <time>2021-07-17T03:49:40.000Z</time>
      </trkpt>
      <trkpt lat="45.19788" lon="5.72237">
        <ele>377.39999389648</ele>
        <time>2021-07-17T03:49:42.000Z</time>
      </trkpt>
      <trkpt lat="45.1979" lon="5.72244">
        <ele>377.79998779297</ele>
        <time>2021-07-17T03:49:45.000Z</time>
      </trkpt>
      <trkpt lat="45.19788" lon="5.72247">
        <ele>378</ele>
        <time>2021-07-17T03:49:48.000Z</time>
      </trkpt>
      <trkpt lat="45.19789" lon="5.72247">
        <ele>378.79998779297</ele>
        <time>2021-07-17T03:49:49.000Z</time>
      </trkpt>
      <trkpt lat="45.19791" lon="5.72243">
        <ele>379.20001220703</ele>
        <time>2021-07-17T03:49:52.000Z</time>
      </trkpt>
      <trkpt lat="45.19793" lon="5.72239">
        <ele>380</ele>
        <time>2021-07-17T03:49:55.000Z</time>
      </trkpt>
      <trkpt lat="45.19794" lon="5.7224">
        <ele>380.20001220703</ele>
        <time>2021-07-17T03:49:57.000Z</time>
      </trkpt>
      <trkpt lat="45.1979" lon="5.72248">
        <ele>381</ele>
        <time>2021-07-17T03:50:02.000Z</time>
      </trkpt>
      <trkpt lat="45.1979" lon="5.7225">
        <ele>381.39999389648</ele>
        <time>2021-07-17T03:50:03.000Z</time>
      </trkpt>
      <trkpt lat="45.19789" lon="5.7225">
        <ele>381.79998779297</ele>
        <time>2021-07-17T03:50:05.000Z</time>
      </trkpt>
      <trkpt lat="45.1979" lon="5.7225">
        <ele>382</ele>
        <time>2021-07-17T03:50:07.000Z</time>
      </trkpt>
      <trkpt lat="45.19791" lon="5.7225">
        <ele>382</ele>
        <time>2021-07-17T03:50:08.000Z</time>
      </trkpt>
      <trkpt lat="45.19792" lon="5.7225">
        <ele>382.79998779297</ele>
        <time>2021-07-17T03:50:09.000Z</time>
      </trkpt>
      <trkpt lat="45.19792" lon="5.72253">
        <ele>383</ele>
        <time>2021-07-17T03:50:12.000Z</time>
      </trkpt>
      <trkpt lat="45.19792" lon="5.72253">
        <ele>383.39999389648</ele>
        <time>2021-07-17T03:50:13.000Z</time>
      </trkpt>
      <trkpt lat="45.19792" lon="5.72255">
        <ele>383.79998779297</ele>
        <time>2021-07-17T03:50:14.000Z</time>
      </trkpt>
      <trkpt lat="45.19792" lon="5.72258">
        <ele>384.39999389648</ele>
        <time>2021-07-17T03:50:17.000Z</time>
      </trkpt>
      <trkpt lat="45.19794" lon="5.72257">
        <ele>384.79998779297</ele>
        <time>2021-07-17T03:50:19.000Z</time>
      </trkpt>
      <trkpt lat="45.19796" lon="5.72254">
        <ele>385.60000610352</ele>
        <time>2021-07-17T03:50:23.000Z</time>
      </trkpt>
      <trkpt lat="45.19796" lon="5.72255">
        <ele>385.60000610352</ele>
        <time>2021-07-17T03:50:25.000Z</time>
      </trkpt>
      <trkpt lat="45.19796" lon="5.72256">
        <ele>385.79998779297</ele>
        <time>2021-07-17T03:50:26.000Z</time>
      </trkpt>
      <trkpt lat="45.19796" lon="5.72261">
        <ele>386.20001220703</ele>
        <time>2021-07-17T03:50:28.000Z</time>
      </trkpt>
      <trkpt lat="45.19795" lon="5.72263">
        <ele>386.60000610352</ele>
        <time>2021-07-17T03:50:30.000Z</time>
      </trkpt>
      <trkpt lat="45.19794" lon="5.72263">
        <ele>387.60000610352</ele>
        <time>2021-07-17T03:50:31.000Z</time>
      </trkpt>
      <trkpt lat="45.19795" lon="5.72262">
        <ele>388</ele>
        <time>2021-07-17T03:50:33.000Z</time>
      </trkpt>
      <trkpt lat="45.19796" lon="5.72261">
        <ele>388.20001220703</ele>
        <time>2021-07-17T03:50:34.000Z</time>
      </trkpt>
      <trkpt lat="45.19797" lon="5.7226">
        <ele>388.39999389648</ele>
        <time>2021-07-17T03:50:35.000Z</time>
      </trkpt>
      <trkpt lat="45.19798" lon="5.72259">
        <ele>388.79998779297</ele>
        <time>2021-07-17T03:50:37.000Z</time>
      </trkpt>
      <trkpt lat="45.19797" lon="5.72262">
        <ele>389.20001220703</ele>
        <time>2021-07-17T03:50:39.000Z</time>
      </trkpt>
      <trkpt lat="45.19797" lon="5.72262">
        <ele>389.60000610352</ele>
        <time>2021-07-17T03:50:40.000Z</time>
      </trkpt>
      <trkpt lat="45.19797" lon="5.72262">
        <ele>390.20001220703</ele>
        <time>2021-07-17T03:50:41.000Z</time>
      </trkpt>
      <trkpt lat="45.19797" lon="5.72261">
        <ele>391.39999389648</ele>
        <time>2021-07-17T03:50:44.000Z</time>
      </trkpt>
      <trkpt lat="45.19796" lon="5.72258">
        <ele>393</ele>
        <time>2021-07-17T03:50:49.000Z</time>
      </trkpt>
      <trkpt lat="45.19796" lon="5.72257">
        <ele>393.20001220703</ele>
        <time>2021-07-17T03:50:50.000Z</time>
      </trkpt>
      <trkpt lat="45.19796" lon="5.72256">
        <ele>393.20001220703</ele>
        <time>2021-07-17T03:50:51.000Z</time>
      </trkpt>
      <trkpt lat="45.19798" lon="5.72258">
        <ele>394</ele>
        <time>2021-07-17T03:50:54.000Z</time>
      </trkpt>
      <trkpt lat="45.19798" lon="5.72258">
        <ele>394.39999389648</ele>
        <time>2021-07-17T03:50:55.000Z</time>
      </trkpt>
      <trkpt lat="45.19797" lon="5.72258">
        <ele>395.39999389648</ele>
        <time>2021-07-17T03:50:57.000Z</time>
      </trkpt>
      <trkpt lat="45.19798" lon="5.72257">
        <ele>396</ele>
        <time>2021-07-17T03:50:59.000Z</time>
      </trkpt>
      <trkpt lat="45.19799" lon="5.72257">
        <ele>396.20001220703</ele>
        <time>2021-07-17T03:51:00.000Z</time>
      </trkpt>
      <trkpt lat="45.198" lon="5.72254">
        <ele>396.60000610352</ele>
        <time>2021-07-17T03:51:02.000Z</time>
      </trkpt>
      <trkpt lat="45.198" lon="5.72251">
        <ele>398.20001220703</ele>
        <time>2021-07-17T03:51:04.000Z</time>
      </trkpt>
      <trkpt lat="45.19802" lon="5.72247">
        <ele>398.20001220703</ele>
        <time>2021-07-17T03:51:06.000Z</time>
      </trkpt>
      <trkpt lat="45.19804" lon="5.72234">
        <ele>399.20001220703</ele>
        <time>2021-07-17T03:51:11.000Z</time>
      </trkpt>
      <trkpt lat="45.19805" lon="5.72232">
        <ele>399.20001220703</ele>
        <time>2021-07-17T03:51:12.000Z</time>
      </trkpt>
      <trkpt lat="45.19807" lon="5.72228">
        <ele>399.20001220703</ele>
        <time>2021-07-17T03:51:14.000Z</time>
      </trkpt>
      <trkpt lat="45.19809" lon="5.72226">
        <ele>399.60000610352</ele>
        <time>2021-07-17T03:51:16.000Z</time>
      </trkpt>
      <trkpt lat="45.19811" lon="5.72227">
        <ele>400</ele>
        <time>2021-07-17T03:51:18.000Z</time>
      </trkpt>
      <trkpt lat="45.19812" lon="5.72229">
        <ele>400.79998779297</ele>
        <time>2021-07-17T03:51:19.000Z</time>
      </trkpt>
      <trkpt lat="45.19813" lon="5.72231">
        <ele>400.79998779297</ele>
        <time>2021-07-17T03:51:20.000Z</time>
      </trkpt>
      <trkpt lat="45.19814" lon="5.72233">
        <ele>401.39999389648</ele>
        <time>2021-07-17T03:51:22.000Z</time>
      </trkpt>
      <trkpt lat="45.19816" lon="5.72234">
        <ele>401.60000610352</ele>
        <time>2021-07-17T03:51:25.000Z</time>
      </trkpt>
      <trkpt lat="45.19816" lon="5.72235">
        <ele>402.39999389648</ele>
        <time>2021-07-17T03:51:26.000Z</time>
      </trkpt>
      <trkpt lat="45.19817" lon="5.72236">
        <ele>403.60000610352</ele>
        <time>2021-07-17T03:51:29.000Z</time>
      </trkpt>
      <trkpt lat="45.19817" lon="5.72237">
        <ele>404</ele>
        <time>2021-07-17T03:51:30.000Z</time>
      </trkpt>
      <trkpt lat="45.19818" lon="5.72237">
        <ele>405</ele>
        <time>2021-07-17T03:51:32.000Z</time>
      </trkpt>
      <trkpt lat="45.19817" lon="5.72241">
        <ele>405.60000610352</ele>
        <time>2021-07-17T03:51:36.000Z</time>
      </trkpt>
      <trkpt lat="45.19817" lon="5.72243">
        <ele>406</ele>
        <time>2021-07-17T03:51:38.000Z</time>
      </trkpt>
      <trkpt lat="45.19817" lon="5.72247">
        <ele>407.20001220703</ele>
        <time>2021-07-17T03:51:41.000Z</time>
      </trkpt>
      <trkpt lat="45.19817" lon="5.72247">
        <ele>407.20001220703</ele>
        <time>2021-07-17T03:51:42.000Z</time>
      </trkpt>
      <trkpt lat="45.19816" lon="5.72252">
        <ele>408</ele>
        <time>2021-07-17T03:51:47.000Z</time>
      </trkpt>
      <trkpt lat="45.19815" lon="5.72253">
        <ele>408.20001220703</ele>
        <time>2021-07-17T03:51:48.000Z</time>
      </trkpt>
      <trkpt lat="45.19816" lon="5.72251">
        <ele>408.79998779297</ele>
        <time>2021-07-17T03:51:51.000Z</time>
      </trkpt>
      <trkpt lat="45.19817" lon="5.72251">
        <ele>409.79998779297</ele>
        <time>2021-07-17T03:51:53.000Z</time>
      </trkpt>
      <trkpt lat="45.19833" lon="5.72235">
        <ele>418</ele>
        <time>2021-07-17T03:52:18.000Z</time>
      </trkpt>
      <trkpt lat="45.19832" lon="5.72233">
        <ele>418.79998779297</ele>
        <time>2021-07-17T03:52:20.000Z</time>
      </trkpt>
      <trkpt lat="45.19832" lon="5.72237">
        <ele>418.79998779297</ele>
        <time>2021-07-17T03:52:21.000Z</time>
      </trkpt>
      <trkpt lat="45.19835" lon="5.72245">
        <ele>420.60000610352</ele>
        <time>2021-07-17T03:52:26.000Z</time>
      </trkpt>
      <trkpt lat="45.19836" lon="5.72246">
        <ele>421</ele>
        <time>2021-07-17T03:52:28.000Z</time>
      </trkpt>
      <trkpt lat="45.19836" lon="5.72247">
        <ele>421.79998779297</ele>
        <time>2021-07-17T03:52:30.000Z</time>
      </trkpt>
      <trkpt lat="45.19836" lon="5.72251">
        <ele>423.20001220703</ele>
        <time>2021-07-17T03:52:33.000Z</time>
      </trkpt>
      <trkpt lat="45.19834" lon="5.72262">
        <ele>423.60000610352</ele>
        <time>2021-07-17T03:52:39.000Z</time>
      </trkpt>
      <trkpt lat="45.1983" lon="5.72277">
        <ele>424.20001220703</ele>
        <time>2021-07-17T03:52:46.000Z</time>
      </trkpt>
      <trkpt lat="45.19829" lon="5.72282">
        <ele>424.39999389648</ele>
        <time>2021-07-17T03:52:48.000Z</time>
      </trkpt>
      <trkpt lat="45.19825" lon="5.72293">
        <ele>425.39999389648</ele>
        <time>2021-07-17T03:52:52.000Z</time>
      </trkpt>
      <trkpt lat="45.19824" lon="5.72295">
        <ele>425.60000610352</ele>
        <time>2021-07-17T03:52:53.000Z</time>
      </trkpt>
      <trkpt lat="45.19818" lon="5.72311">
        <ele>426.20001220703</ele>
        <time>2021-07-17T03:53:00.000Z</time>
      </trkpt>
      <trkpt lat="45.19814" lon="5.7233">
        <ele>426.60000610352</ele>
        <time>2021-07-17T03:53:08.000Z</time>
      </trkpt>
      <trkpt lat="45.19814" lon="5.72331">
        <ele>426.79998779297</ele>
        <time>2021-07-17T03:53:09.000Z</time>
      </trkpt>
      <trkpt lat="45.19816" lon="5.72335">
        <ele>427</ele>
        <time>2021-07-17T03:53:12.000Z</time>
      </trkpt>
      <trkpt lat="45.19815" lon="5.72347">
        <ele>436.79998779297</ele>
        <time>2021-07-17T03:53:40.000Z</time>
      </trkpt>
      <trkpt lat="45.19815" lon="5.72344">
        <ele>437</ele>
        <time>2021-07-17T03:53:42.000Z</time>
      </trkpt>
      <trkpt lat="45.19816" lon="5.72338">
        <ele>437</ele>
        <time>2021-07-17T03:53:43.000Z</time>
      </trkpt>
      <trkpt lat="45.1982" lon="5.7233">
        <ele>437</ele>
        <time>2021-07-17T03:53:47.000Z</time>
      </trkpt>
      <trkpt lat="45.19822" lon="5.72327">
        <ele>437</ele>
        <time>2021-07-17T03:53:49.000Z</time>
      </trkpt>
      <trkpt lat="45.19824" lon="5.72327">
        <ele>437.39999389648</ele>
        <time>2021-07-17T03:53:53.000Z</time>
      </trkpt>
      <trkpt lat="45.19824" lon="5.72328">
        <ele>438</ele>
        <time>2021-07-17T03:53:54.000Z</time>
      </trkpt>
      <trkpt lat="45.19824" lon="5.72332">
        <ele>439.39999389648</ele>
        <time>2021-07-17T03:53:57.000Z</time>
      </trkpt>
      <trkpt lat="45.19825" lon="5.72333">
        <ele>440.20001220703</ele>
        <time>2021-07-17T03:53:59.000Z</time>
      </trkpt>
      <trkpt lat="45.19825" lon="5.72334">
        <ele>440.60000610352</ele>
        <time>2021-07-17T03:54:00.000Z</time>
      </trkpt>
      <trkpt lat="45.19825" lon="5.72335">
        <ele>440.60000610352</ele>
        <time>2021-07-17T03:54:01.000Z</time>
      </trkpt>
      <trkpt lat="45.19823" lon="5.72339">
        <ele>441.39999389648</ele>
        <time>2021-07-17T03:54:03.000Z</time>
      </trkpt>
      <trkpt lat="45.19823" lon="5.72341">
        <ele>442.39999389648</ele>
        <time>2021-07-17T03:54:04.000Z</time>
      </trkpt>
      <trkpt lat="45.19822" lon="5.72344">
        <ele>442.60000610352</ele>
        <time>2021-07-17T03:54:06.000Z</time>
      </trkpt>
      <trkpt lat="45.19822" lon="5.72344">
        <ele>443.79998779297</ele>
        <time>2021-07-17T03:54:08.000Z</time>
      </trkpt>
      <trkpt lat="45.19822" lon="5.72348">
        <ele>445</ele>
        <time>2021-07-17T03:54:13.000Z</time>
      </trkpt>
      <trkpt lat="45.19825" lon="5.7235">
        <ele>446.39999389648</ele>
        <time>2021-07-17T03:54:15.000Z</time>
      </trkpt>
      <trkpt lat="45.19829" lon="5.72359">
        <ele>448.20001220703</ele>
        <time>2021-07-17T03:54:21.000Z</time>
      </trkpt>
      <trkpt lat="45.19823" lon="5.72371">
        <ele>448.39999389648</ele>
        <time>2021-07-17T03:54:25.000Z</time>
      </trkpt>
      <trkpt lat="45.19822" lon="5.72379">
        <ele>448.39999389648</ele>
        <time>2021-07-17T03:54:29.000Z</time>
      </trkpt>
      <trkpt lat="45.19823" lon="5.72379">
        <ele>448.79998779297</ele>
        <time>2021-07-17T03:54:30.000Z</time>
      </trkpt>
      <trkpt lat="45.19823" lon="5.72377">
        <ele>449.39999389648</ele>
        <time>2021-07-17T03:54:33.000Z</time>
      </trkpt>
      <trkpt lat="45.19823" lon="5.72376">
        <ele>450.20001220703</ele>
        <time>2021-07-17T03:54:34.000Z</time>
      </trkpt>
      <trkpt lat="45.19823" lon="5.72376">
        <ele>451</ele>
        <time>2021-07-17T03:54:35.000Z</time>
      </trkpt>
      <trkpt lat="45.19824" lon="5.72374">
        <ele>451.39999389648</ele>
        <time>2021-07-17T03:54:37.000Z</time>
      </trkpt>
      <trkpt lat="45.19825" lon="5.72374">
        <ele>452.60000610352</ele>
        <time>2021-07-17T03:54:39.000Z</time>
      </trkpt>
      <trkpt lat="45.19826" lon="5.72375">
        <ele>453.20001220703</ele>
        <time>2021-07-17T03:54:40.000Z</time>
      </trkpt>
      <trkpt lat="45.19824" lon="5.72377">
        <ele>453.60000610352</ele>
        <time>2021-07-17T03:54:43.000Z</time>
      </trkpt>
      <trkpt lat="45.19824" lon="5.72382">
        <ele>455.39999389648</ele>
        <time>2021-07-17T03:54:46.000Z</time>
      </trkpt>
      <trkpt lat="45.19825" lon="5.72385">
        <ele>455.39999389648</ele>
        <time>2021-07-17T03:54:48.000Z</time>
      </trkpt>
      <trkpt lat="45.19826" lon="5.72386">
        <ele>455.39999389648</ele>
        <time>2021-07-17T03:54:49.000Z</time>
      </trkpt>
      <trkpt lat="45.19831" lon="5.72391">
        <ele>456.39999389648</ele>
        <time>2021-07-17T03:54:54.000Z</time>
      </trkpt>
      <trkpt lat="45.19831" lon="5.72391">
        <ele>456.39999389648</ele>
        <time>2021-07-17T03:54:55.000Z</time>
      </trkpt>
      <trkpt lat="45.19832" lon="5.7239">
        <ele>456.39999389648</ele>
        <time>2021-07-17T03:54:56.000Z</time>
      </trkpt>
      <trkpt lat="45.19833" lon="5.7239">
        <ele>456.79998779297</ele>
        <time>2021-07-17T03:54:57.000Z</time>
      </trkpt>
      <trkpt lat="45.19835" lon="5.72389">
        <ele>457.79998779297</ele>
        <time>2021-07-17T03:55:00.000Z</time>
      </trkpt>
      <trkpt lat="45.19836" lon="5.72389">
        <ele>458</ele>
        <time>2021-07-17T03:55:01.000Z</time>
      </trkpt>
      <trkpt lat="45.19837" lon="5.72388">
        <ele>458.60000610352</ele>
        <time>2021-07-17T03:55:03.000Z</time>
      </trkpt>
      <trkpt lat="45.19837" lon="5.72387">
        <ele>458.79998779297</ele>
        <time>2021-07-17T03:55:04.000Z</time>
      </trkpt>
      <trkpt lat="45.19838" lon="5.72386">
        <ele>460</ele>
        <time>2021-07-17T03:55:05.000Z</time>
      </trkpt>
      <trkpt lat="45.19841" lon="5.72385">
        <ele>460</ele>
        <time>2021-07-17T03:55:07.000Z</time>
      </trkpt>
      <trkpt lat="45.19844" lon="5.72386">
        <ele>460.39999389648</ele>
        <time>2021-07-17T03:55:09.000Z</time>
      </trkpt>
      <trkpt lat="45.19846" lon="5.72389">
        <ele>460.60000610352</ele>
        <time>2021-07-17T03:55:11.000Z</time>
      </trkpt>
      <trkpt lat="45.19846" lon="5.72391">
        <ele>460.79998779297</ele>
        <time>2021-07-17T03:55:12.000Z</time>
      </trkpt>
      <trkpt lat="45.19847" lon="5.72392">
        <ele>461.20001220703</ele>
        <time>2021-07-17T03:55:13.000Z</time>
      </trkpt>
      <trkpt lat="45.19848" lon="5.72393">
        <ele>461.60000610352</ele>
        <time>2021-07-17T03:55:15.000Z</time>
      </trkpt>
      <trkpt lat="45.19848" lon="5.72394">
        <ele>462.20001220703</ele>
        <time>2021-07-17T03:55:17.000Z</time>
      </trkpt>
      <trkpt lat="45.19848" lon="5.72393">
        <ele>463.39999389648</ele>
        <time>2021-07-17T03:55:18.000Z</time>
      </trkpt>
      <trkpt lat="45.19847" lon="5.72393">
        <ele>463.39999389648</ele>
        <time>2021-07-17T03:55:19.000Z</time>
      </trkpt>
      <trkpt lat="45.19847" lon="5.72393">
        <ele>464.39999389648</ele>
        <time>2021-07-17T03:55:21.000Z</time>
      </trkpt>
      <trkpt lat="45.19848" lon="5.72393">
        <ele>465</ele>
        <time>2021-07-17T03:55:22.000Z</time>
      </trkpt>
      <trkpt lat="45.19848" lon="5.72393">
        <ele>465</ele>
        <time>2021-07-17T03:55:24.000Z</time>
      </trkpt>
      <trkpt lat="45.19848" lon="5.72395">
        <ele>465.39999389648</ele>
        <time>2021-07-17T03:55:27.000Z</time>
      </trkpt>
      <trkpt lat="45.19848" lon="5.72396">
        <ele>466.79998779297</ele>
        <time>2021-07-17T03:55:29.000Z</time>
      </trkpt>
      <trkpt lat="45.19847" lon="5.72397">
        <ele>467.79998779297</ele>
        <time>2021-07-17T03:55:31.000Z</time>
      </trkpt>
      <trkpt lat="45.19847" lon="5.72398">
        <ele>468</ele>
        <time>2021-07-17T03:55:32.000Z</time>
      </trkpt>
      <trkpt lat="45.19848" lon="5.72401">
        <ele>469.20001220703</ele>
        <time>2021-07-17T03:55:35.000Z</time>
      </trkpt>
      <trkpt lat="45.19849" lon="5.72403">
        <ele>470.39999389648</ele>
        <time>2021-07-17T03:55:37.000Z</time>
      </trkpt>
      <trkpt lat="45.19848" lon="5.72404">
        <ele>471.20001220703</ele>
        <time>2021-07-17T03:55:38.000Z</time>
      </trkpt>
      <trkpt lat="45.19848" lon="5.72403">
        <ele>471.39999389648</ele>
        <time>2021-07-17T03:55:41.000Z</time>
      </trkpt>
      <trkpt lat="45.19848" lon="5.72402">
        <ele>472.39999389648</ele>
        <time>2021-07-17T03:55:43.000Z</time>
      </trkpt>
      <trkpt lat="45.19849" lon="5.72401">
        <ele>472.79998779297</ele>
        <time>2021-07-17T03:55:44.000Z</time>
      </trkpt>
      <trkpt lat="45.19851" lon="5.72402">
        <ele>474</ele>
        <time>2021-07-17T03:55:47.000Z</time>
      </trkpt>
      <trkpt lat="45.19851" lon="5.72404">
        <ele>474.39999389648</ele>
        <time>2021-07-17T03:55:48.000Z</time>
      </trkpt>
      <trkpt lat="45.19851" lon="5.72405">
        <ele>475</ele>
        <time>2021-07-17T03:55:50.000Z</time>
      </trkpt>
      <trkpt lat="45.19851" lon="5.72406">
        <ele>475.20001220703</ele>
        <time>2021-07-17T03:55:51.000Z</time>
      </trkpt>
      <trkpt lat="45.1985" lon="5.72408">
        <ele>475.79998779297</ele>
        <time>2021-07-17T03:55:54.000Z</time>
      </trkpt>
      <trkpt lat="45.1985" lon="5.7241">
        <ele>476.79998779297</ele>
        <time>2021-07-17T03:55:55.000Z</time>
      </trkpt>
      <trkpt lat="45.19849" lon="5.72413">
        <ele>478</ele>
        <time>2021-07-17T03:55:59.000Z</time>
      </trkpt>
      <trkpt lat="45.19849" lon="5.72415">
        <ele>479.39999389648</ele>
        <time>2021-07-17T03:56:02.000Z</time>
      </trkpt>
      <trkpt lat="45.1985" lon="5.72418">
        <ele>481</ele>
        <time>2021-07-17T03:56:05.000Z</time>
      </trkpt>
      <trkpt lat="45.19849" lon="5.72421">
        <ele>481.79998779297</ele>
        <time>2021-07-17T03:56:09.000Z</time>
      </trkpt>
      <trkpt lat="45.1985" lon="5.72422">
        <ele>482.20001220703</ele>
        <time>2021-07-17T03:56:10.000Z</time>
      </trkpt>
      <trkpt lat="45.19849" lon="5.72426">
        <ele>483.20001220703</ele>
        <time>2021-07-17T03:56:13.000Z</time>
      </trkpt>
      <trkpt lat="45.19848" lon="5.72436">
        <ele>483.60000610352</ele>
        <time>2021-07-17T03:56:16.000Z</time>
      </trkpt>
      <trkpt lat="45.1985" lon="5.7244">
        <ele>483.79998779297</ele>
        <time>2021-07-17T03:56:18.000Z</time>
      </trkpt>
      <trkpt lat="45.19851" lon="5.72447">
        <ele>484.39999389648</ele>
        <time>2021-07-17T03:56:21.000Z</time>
      </trkpt>
      <trkpt lat="45.19852" lon="5.7245">
        <ele>485</ele>
        <time>2021-07-17T03:56:22.000Z</time>
      </trkpt>
      <trkpt lat="45.19855" lon="5.7246">
        <ele>485.60000610352</ele>
        <time>2021-07-17T03:56:26.000Z</time>
      </trkpt>
      <trkpt lat="45.19854" lon="5.72461">
        <ele>485.79998779297</ele>
        <time>2021-07-17T03:56:27.000Z</time>
      </trkpt>
      <trkpt lat="45.19855" lon="5.72474">
        <ele>486.60000610352</ele>
        <time>2021-07-17T03:56:32.000Z</time>
      </trkpt>
      <trkpt lat="45.19855" lon="5.72476">
        <ele>487</ele>
        <time>2021-07-17T03:56:33.000Z</time>
      </trkpt>
      <trkpt lat="45.19855" lon="5.72488">
        <ele>487.79998779297</ele>
        <time>2021-07-17T03:56:38.000Z</time>
      </trkpt>
      <trkpt lat="45.19855" lon="5.7249">
        <ele>488</ele>
        <time>2021-07-17T03:56:39.000Z</time>
      </trkpt>
      <trkpt lat="45.19855" lon="5.72501">
        <ele>489</ele>
        <time>2021-07-17T03:56:44.000Z</time>
      </trkpt>
      <trkpt lat="45.19856" lon="5.72506">
        <ele>489.20001220703</ele>
        <time>2021-07-17T03:56:46.000Z</time>
      </trkpt>
      <trkpt lat="45.19856" lon="5.72522">
        <ele>490.39999389648</ele>
        <time>2021-07-17T03:56:52.000Z</time>
      </trkpt>
      <trkpt lat="45.19856" lon="5.72525">
        <ele>490.39999389648</ele>
        <time>2021-07-17T03:56:53.000Z</time>
      </trkpt>
      <trkpt lat="45.19856" lon="5.72531">
        <ele>491.20001220703</ele>
        <time>2021-07-17T03:56:56.000Z</time>
      </trkpt>
      <trkpt lat="45.19857" lon="5.72536">
        <ele>491.39999389648</ele>
        <time>2021-07-17T03:56:58.000Z</time>
      </trkpt>
      <trkpt lat="45.19861" lon="5.72546">
        <ele>492</ele>
        <time>2021-07-17T03:57:02.000Z</time>
      </trkpt>
      <trkpt lat="45.19863" lon="5.72549">
        <ele>492.39999389648</ele>
        <time>2021-07-17T03:57:04.000Z</time>
      </trkpt>
      <trkpt lat="45.19863" lon="5.72549">
        <ele>492.39999389648</ele>
        <time>2021-07-17T03:57:05.000Z</time>
      </trkpt>
      <trkpt lat="45.19862" lon="5.72548">
        <ele>492.60000610352</ele>
        <time>2021-07-17T03:57:06.000Z</time>
      </trkpt>
      <trkpt lat="45.19859" lon="5.72536">
        <ele>493.60000610352</ele>
        <time>2021-07-17T03:57:11.000Z</time>
      </trkpt>
      <trkpt lat="45.19859" lon="5.72536">
        <ele>494</ele>
        <time>2021-07-17T03:57:12.000Z</time>
      </trkpt>
      <trkpt lat="45.19858" lon="5.72526">
        <ele>494.79998779297</ele>
        <time>2021-07-17T03:57:15.000Z</time>
      </trkpt>
      <trkpt lat="45.19856" lon="5.72515">
        <ele>495.39999389648</ele>
        <time>2021-07-17T03:57:19.000Z</time>
      </trkpt>
      <trkpt lat="45.19856" lon="5.72506">
        <ele>496</ele>
        <time>2021-07-17T03:57:22.000Z</time>
      </trkpt>
      <trkpt lat="45.1986" lon="5.72496">
        <ele>496.20001220703</ele>
        <time>2021-07-17T03:57:26.000Z</time>
      </trkpt>
      <trkpt lat="45.19865" lon="5.72493">
        <ele>496.79998779297</ele>
        <time>2021-07-17T03:57:31.000Z</time>
      </trkpt>
      <trkpt lat="45.19865" lon="5.72492">
        <ele>497.39999389648</ele>
        <time>2021-07-17T03:57:32.000Z</time>
      </trkpt>
      <trkpt lat="45.19866" lon="5.72491">
        <ele>498.39999389648</ele>
        <time>2021-07-17T03:57:33.000Z</time>
      </trkpt>
      <trkpt lat="45.19866" lon="5.72491">
        <ele>498.79998779297</ele>
        <time>2021-07-17T03:57:34.000Z</time>
      </trkpt>
      <trkpt lat="45.19867" lon="5.72489">
        <ele>499.39999389648</ele>
        <time>2021-07-17T03:57:36.000Z</time>
      </trkpt>
      <trkpt lat="45.19867" lon="5.72489">
        <ele>500.20001220703</ele>
        <time>2021-07-17T03:57:37.000Z</time>
      </trkpt>
      <trkpt lat="45.19867" lon="5.72488">
        <ele>500.60000610352</ele>
        <time>2021-07-17T03:57:38.000Z</time>
      </trkpt>
      <trkpt lat="45.19868" lon="5.72487">
        <ele>501.39999389648</ele>
        <time>2021-07-17T03:57:39.000Z</time>
      </trkpt>
      <trkpt lat="45.19871" lon="5.72483">
        <ele>501.79998779297</ele>
        <time>2021-07-17T03:57:42.000Z</time>
      </trkpt>
      <trkpt lat="45.19872" lon="5.72481">
        <ele>502.79998779297</ele>
        <time>2021-07-17T03:57:44.000Z</time>
      </trkpt>
      <trkpt lat="45.19875" lon="5.7248">
        <ele>503.79998779297</ele>
        <time>2021-07-17T03:57:48.000Z</time>
      </trkpt>
      <trkpt lat="45.19875" lon="5.7248">
        <ele>505</ele>
        <time>2021-07-17T03:57:49.000Z</time>
      </trkpt>
      <trkpt lat="45.19879" lon="5.72488">
        <ele>506.20001220703</ele>
        <time>2021-07-17T03:57:53.000Z</time>
      </trkpt>
      <trkpt lat="45.1988" lon="5.72492">
        <ele>506.20001220703</ele>
        <time>2021-07-17T03:57:54.000Z</time>
      </trkpt>
      <trkpt lat="45.19883" lon="5.72501">
        <ele>506.20001220703</ele>
        <time>2021-07-17T03:57:57.000Z</time>
      </trkpt>
      <trkpt lat="45.19886" lon="5.72507">
        <ele>506.20001220703</ele>
        <time>2021-07-17T03:57:59.000Z</time>
      </trkpt>
      <trkpt lat="45.19887" lon="5.72509">
        <ele>506.20001220703</ele>
        <time>2021-07-17T03:58:00.000Z</time>
      </trkpt>
      <trkpt lat="45.19892" lon="5.72524">
        <ele>506.20001220703</ele>
        <time>2021-07-17T03:58:05.000Z</time>
      </trkpt>
      <trkpt lat="45.19896" lon="5.72528">
        <ele>506.20001220703</ele>
        <time>2021-07-17T03:58:07.000Z</time>
      </trkpt>
      <trkpt lat="45.19896" lon="5.7253">
        <ele>506.79998779297</ele>
        <time>2021-07-17T03:58:08.000Z</time>
      </trkpt>
      <trkpt lat="45.19898" lon="5.72532">
        <ele>506.79998779297</ele>
        <time>2021-07-17T03:58:10.000Z</time>
      </trkpt>
      <trkpt lat="45.19899" lon="5.72533">
        <ele>507.20001220703</ele>
        <time>2021-07-17T03:58:11.000Z</time>
      </trkpt>
      <trkpt lat="45.19902" lon="5.72536">
        <ele>508.20001220703</ele>
        <time>2021-07-17T03:58:13.000Z</time>
      </trkpt>
      <trkpt lat="45.19902" lon="5.72537">
        <ele>508.39999389648</ele>
        <time>2021-07-17T03:58:14.000Z</time>
      </trkpt>
      <trkpt lat="45.19899" lon="5.7254">
        <ele>509.60000610352</ele>
        <time>2021-07-17T03:58:16.000Z</time>
      </trkpt>
      <trkpt lat="45.19897" lon="5.72545">
        <ele>511</ele>
        <time>2021-07-17T03:58:19.000Z</time>
      </trkpt>
      <trkpt lat="45.19894" lon="5.72554">
        <ele>511.60000610352</ele>
        <time>2021-07-17T03:58:24.000Z</time>
      </trkpt>
      <trkpt lat="45.19891" lon="5.72564">
        <ele>511.79998779297</ele>
        <time>2021-07-17T03:58:28.000Z</time>
      </trkpt>
      <trkpt lat="45.19888" lon="5.72565">
        <ele>511.79998779297</ele>
        <time>2021-07-17T03:58:29.000Z</time>
      </trkpt>
      <trkpt lat="45.19884" lon="5.72565">
        <ele>511.79998779297</ele>
        <time>2021-07-17T03:58:31.000Z</time>
      </trkpt>
      <trkpt lat="45.19882" lon="5.7256">
        <ele>512</ele>
        <time>2021-07-17T03:58:33.000Z</time>
      </trkpt>
      <trkpt lat="45.19875" lon="5.72534">
        <ele>512.20001220703</ele>
        <time>2021-07-17T03:58:41.000Z</time>
      </trkpt>
      <trkpt lat="45.1987" lon="5.72509">
        <ele>512</ele>
        <time>2021-07-17T03:58:49.000Z</time>
      </trkpt>
      <trkpt lat="45.19871" lon="5.72504">
        <ele>512</ele>
        <time>2021-07-17T03:58:51.000Z</time>
      </trkpt>
      <trkpt lat="45.19874" lon="5.72505">
        <ele>512</ele>
        <time>2021-07-17T03:58:53.000Z</time>
      </trkpt>
      <trkpt lat="45.19877" lon="5.72514">
        <ele>511.79998779297</ele>
        <time>2021-07-17T03:58:56.000Z</time>
      </trkpt>
      <trkpt lat="45.19876" lon="5.72525">
        <ele>511.20001220703</ele>
        <time>2021-07-17T03:58:59.000Z</time>
      </trkpt>
      <trkpt lat="45.1988" lon="5.72543">
        <ele>511.79998779297</ele>
        <time>2021-07-17T03:59:05.000Z</time>
      </trkpt>
      <trkpt lat="45.19881" lon="5.72546">
        <ele>511.60000610352</ele>
        <time>2021-07-17T03:59:10.000Z</time>
      </trkpt>
      <trkpt lat="45.1988" lon="5.72544">
        <ele>510.79998779297</ele>
        <time>2021-07-17T03:59:12.000Z</time>
      </trkpt>
      <trkpt lat="45.19879" lon="5.7254">
        <ele>509.60000610352</ele>
        <time>2021-07-17T03:59:15.000Z</time>
      </trkpt>
      <trkpt lat="45.19879" lon="5.72539">
        <ele>509.20001220703</ele>
        <time>2021-07-17T03:59:16.000Z</time>
      </trkpt>
      <trkpt lat="45.19879" lon="5.72537">
        <ele>508.20001220703</ele>
        <time>2021-07-17T03:59:18.000Z</time>
      </trkpt>
      <trkpt lat="45.19877" lon="5.72535">
        <ele>507.20001220703</ele>
        <time>2021-07-17T03:59:20.000Z</time>
      </trkpt>
      <trkpt lat="45.19877" lon="5.72535">
        <ele>506.60000610352</ele>
        <time>2021-07-17T03:59:22.000Z</time>
      </trkpt>
      <trkpt lat="45.19879" lon="5.72539">
        <ele>506.39999389648</ele>
        <time>2021-07-17T03:59:24.000Z</time>
      </trkpt>
      <trkpt lat="45.1988" lon="5.72541">
        <ele>506.39999389648</ele>
        <time>2021-07-17T03:59:25.000Z</time>
      </trkpt>
      <trkpt lat="45.19884" lon="5.72551">
        <ele>506.39999389648</ele>
        <time>2021-07-17T03:59:28.000Z</time>
      </trkpt>
      <trkpt lat="45.19885" lon="5.72555">
        <ele>506.60000610352</ele>
        <time>2021-07-17T03:59:29.000Z</time>
      </trkpt>
      <trkpt lat="45.19891" lon="5.72577">
        <ele>506.39999389648</ele>
        <time>2021-07-17T03:59:35.000Z</time>
      </trkpt>
      <trkpt lat="45.19891" lon="5.7258">
        <ele>506.60000610352</ele>
        <time>2021-07-17T03:59:37.000Z</time>
      </trkpt>
      <trkpt lat="45.19894" lon="5.72578">
        <ele>506.39999389648</ele>
        <time>2021-07-17T03:59:39.000Z</time>
      </trkpt>
      <trkpt lat="45.19894" lon="5.72563">
        <ele>506.39999389648</ele>
        <time>2021-07-17T03:59:44.000Z</time>
      </trkpt>
      <trkpt lat="45.19891" lon="5.72534">
        <ele>506.79998779297</ele>
        <time>2021-07-17T03:59:52.000Z</time>
      </trkpt>
      <trkpt lat="45.1989" lon="5.72529">
        <ele>506.79998779297</ele>
        <time>2021-07-17T03:59:53.000Z</time>
      </trkpt>
      <trkpt lat="45.19888" lon="5.72513">
        <ele>507.39999389648</ele>
        <time>2021-07-17T03:59:58.000Z</time>
      </trkpt>
      <trkpt lat="45.19887" lon="5.72507">
        <ele>506.79998779297</ele>
        <time>2021-07-17T04:00:00.000Z</time>
      </trkpt>
      <trkpt lat="45.19884" lon="5.72489">
        <ele>506.20001220703</ele>
        <time>2021-07-17T04:00:06.000Z</time>
      </trkpt>
      <trkpt lat="45.19882" lon="5.72488">
        <ele>506.39999389648</ele>
        <time>2021-07-17T04:00:07.000Z</time>
      </trkpt>
      <trkpt lat="45.1988" lon="5.72489">
        <ele>506</ele>
        <time>2021-07-17T04:00:09.000Z</time>
      </trkpt>
      <trkpt lat="45.1988" lon="5.72489">
        <ele>506</ele>
        <time>2021-07-17T04:00:10.000Z</time>
      </trkpt>
      <trkpt lat="45.19877" lon="5.7249">
        <ele>504.79998779297</ele>
        <time>2021-07-17T04:00:13.000Z</time>
      </trkpt>
      <trkpt lat="45.19875" lon="5.7249">
        <ele>503.79998779297</ele>
        <time>2021-07-17T04:00:15.000Z</time>
      </trkpt>
      <trkpt lat="45.19873" lon="5.72491">
        <ele>502.39999389648</ele>
        <time>2021-07-17T04:00:17.000Z</time>
      </trkpt>
      <trkpt lat="45.19872" lon="5.72492">
        <ele>502.20001220703</ele>
        <time>2021-07-17T04:00:18.000Z</time>
      </trkpt>
      <trkpt lat="45.19869" lon="5.72494">
        <ele>501.39999389648</ele>
        <time>2021-07-17T04:00:22.000Z</time>
      </trkpt>
      <trkpt lat="45.19866" lon="5.72495">
        <ele>500.20001220703</ele>
        <time>2021-07-17T04:00:25.000Z</time>
      </trkpt>
      <trkpt lat="45.19864" lon="5.72494">
        <ele>498.20001220703</ele>
        <time>2021-07-17T04:00:27.000Z</time>
      </trkpt>
      <trkpt lat="45.19859" lon="5.72493">
        <ele>497</ele>
        <time>2021-07-17T04:00:30.000Z</time>
      </trkpt>
      <trkpt lat="45.19858" lon="5.7249">
        <ele>496.20001220703</ele>
        <time>2021-07-17T04:00:32.000Z</time>
      </trkpt>
      <trkpt lat="45.1986" lon="5.72489">
        <ele>496.20001220703</ele>
        <time>2021-07-17T04:00:33.000Z</time>
      </trkpt>
      <trkpt lat="45.19861" lon="5.72487">
        <ele>496.20001220703</ele>
        <time>2021-07-17T04:00:34.000Z</time>
      </trkpt>
      <trkpt lat="45.19863" lon="5.72485">
        <ele>496.20001220703</ele>
        <time>2021-07-17T04:00:35.000Z</time>
      </trkpt>
      <trkpt lat="45.1988" lon="5.72475">
        <ele>496.60000610352</ele>
        <time>2021-07-17T04:00:42.000Z</time>
      </trkpt>
      <trkpt lat="45.19881" lon="5.72475">
        <ele>496.79998779297</ele>
        <time>2021-07-17T04:00:43.000Z</time>
      </trkpt>
      <trkpt lat="45.19891" lon="5.72473">
        <ele>496.79998779297</ele>
        <time>2021-07-17T04:00:46.000Z</time>
      </trkpt>
      <trkpt lat="45.19893" lon="5.72469">
        <ele>497</ele>
        <time>2021-07-17T04:00:47.000Z</time>
      </trkpt>
      <trkpt lat="45.19893" lon="5.72465">
        <ele>496.79998779297</ele>
        <time>2021-07-17T04:00:48.000Z</time>
      </trkpt>
      <trkpt lat="45.19895" lon="5.72447">
        <ele>496</ele>
        <time>2021-07-17T04:00:53.000Z</time>
      </trkpt>
      <trkpt lat="45.19896" lon="5.72445">
        <ele>495.79998779297</ele>
        <time>2021-07-17T04:00:54.000Z</time>
      </trkpt>
      <trkpt lat="45.1991" lon="5.72435">
        <ele>495</ele>
        <time>2021-07-17T04:01:00.000Z</time>
      </trkpt>
      <trkpt lat="45.19912" lon="5.72433">
        <ele>494.20001220703</ele>
        <time>2021-07-17T04:01:01.000Z</time>
      </trkpt>
      <trkpt lat="45.19925" lon="5.72426">
        <ele>493.20001220703</ele>
        <time>2021-07-17T04:01:06.000Z</time>
      </trkpt>
      <trkpt lat="45.19928" lon="5.72425">
        <ele>493</ele>
        <time>2021-07-17T04:01:07.000Z</time>
      </trkpt>
      <trkpt lat="45.19947" lon="5.72422">
        <ele>492.39999389648</ele>
        <time>2021-07-17T04:01:14.000Z</time>
      </trkpt>
      <trkpt lat="45.19954" lon="5.72421">
        <ele>492.39999389648</ele>
        <time>2021-07-17T04:01:17.000Z</time>
      </trkpt>
      <trkpt lat="45.19968" lon="5.72421">
        <ele>493.39999389648</ele>
        <time>2021-07-17T04:01:23.000Z</time>
      </trkpt>
      <trkpt lat="45.19975" lon="5.72421">
        <ele>493.79998779297</ele>
        <time>2021-07-17T04:01:26.000Z</time>
      </trkpt>
      <trkpt lat="45.19977" lon="5.72421">
        <ele>494.39999389648</ele>
        <time>2021-07-17T04:01:27.000Z</time>
      </trkpt>
      <trkpt lat="45.19983" lon="5.72421">
        <ele>495.39999389648</ele>
        <time>2021-07-17T04:01:30.000Z</time>
      </trkpt>
      <trkpt lat="45.19985" lon="5.72421">
        <ele>495.39999389648</ele>
        <time>2021-07-17T04:01:31.000Z</time>
      </trkpt>
      <trkpt lat="45.19993" lon="5.72422">
        <ele>496.60000610352</ele>
        <time>2021-07-17T04:01:35.000Z</time>
      </trkpt>
      <trkpt lat="45.19999" lon="5.72423">
        <ele>497.20001220703</ele>
        <time>2021-07-17T04:01:38.000Z</time>
      </trkpt>
      <trkpt lat="45.20001" lon="5.72423">
        <ele>497.60000610352</ele>
        <time>2021-07-17T04:01:39.000Z</time>
      </trkpt>
      <trkpt lat="45.20011" lon="5.72424">
        <ele>498.79998779297</ele>
        <time>2021-07-17T04:01:44.000Z</time>
      </trkpt>
      <trkpt lat="45.20014" lon="5.72424">
        <ele>499.20001220703</ele>
        <time>2021-07-17T04:01:46.000Z</time>
      </trkpt>
      <trkpt lat="45.20016" lon="5.72424">
        <ele>499.39999389648</ele>
        <time>2021-07-17T04:01:47.000Z</time>
      </trkpt>
      <trkpt lat="45.20019" lon="5.72424">
        <ele>499.79998779297</ele>
        <time>2021-07-17T04:01:49.000Z</time>
      </trkpt>
      <trkpt lat="45.20029" lon="5.72426">
        <ele>501</ele>
        <time>2021-07-17T04:01:54.000Z</time>
      </trkpt>
      <trkpt lat="45.20032" lon="5.72426">
        <ele>501</ele>
        <time>2021-07-17T04:01:55.000Z</time>
      </trkpt>
      <trkpt lat="45.20044" lon="5.72429">
        <ele>501.79998779297</ele>
        <time>2021-07-17T04:02:02.000Z</time>
      </trkpt>
      <trkpt lat="45.2005" lon="5.72429">
        <ele>502.39999389648</ele>
        <time>2021-07-17T04:02:04.000Z</time>
      </trkpt>
      <trkpt lat="45.20058" lon="5.72429">
        <ele>503.60000610352</ele>
        <time>2021-07-17T04:02:08.000Z</time>
      </trkpt>
      <trkpt lat="45.20061" lon="5.7243">
        <ele>504.20001220703</ele>
        <time>2021-07-17T04:02:10.000Z</time>
      </trkpt>
      <trkpt lat="45.20064" lon="5.72432">
        <ele>504.60000610352</ele>
        <time>2021-07-17T04:02:12.000Z</time>
      </trkpt>
      <trkpt lat="45.2007" lon="5.72439">
        <ele>505.39999389648</ele>
        <time>2021-07-17T04:02:16.000Z</time>
      </trkpt>
      <trkpt lat="45.20073" lon="5.72443">
        <ele>506</ele>
        <time>2021-07-17T04:02:18.000Z</time>
      </trkpt>
      <trkpt lat="45.20079" lon="5.72452">
        <ele>507</ele>
        <time>2021-07-17T04:02:22.000Z</time>
      </trkpt>
      <trkpt lat="45.20085" lon="5.72464">
        <ele>507.79998779297</ele>
        <time>2021-07-17T04:02:26.000Z</time>
      </trkpt>
      <trkpt lat="45.20085" lon="5.72468">
        <ele>507.79998779297</ele>
        <time>2021-07-17T04:02:27.000Z</time>
      </trkpt>
      <trkpt lat="45.20085" lon="5.72471">
        <ele>508</ele>
        <time>2021-07-17T04:02:28.000Z</time>
      </trkpt>
      <trkpt lat="45.20083" lon="5.72488">
        <ele>508.60000610352</ele>
        <time>2021-07-17T04:02:33.000Z</time>
      </trkpt>
      <trkpt lat="45.2008" lon="5.72502">
        <ele>509.20001220703</ele>
        <time>2021-07-17T04:02:37.000Z</time>
      </trkpt>
      <trkpt lat="45.20076" lon="5.72517">
        <ele>509.79998779297</ele>
        <time>2021-07-17T04:02:42.000Z</time>
      </trkpt>
      <trkpt lat="45.20077" lon="5.72526">
        <ele>510.20001220703</ele>
        <time>2021-07-17T04:02:45.000Z</time>
      </trkpt>
      <trkpt lat="45.20078" lon="5.72528">
        <ele>510.20001220703</ele>
        <time>2021-07-17T04:02:46.000Z</time>
      </trkpt>
      <trkpt lat="45.20081" lon="5.72533">
        <ele>510.39999389648</ele>
        <time>2021-07-17T04:02:48.000Z</time>
      </trkpt>
      <trkpt lat="45.2009" lon="5.72541">
        <ele>511</ele>
        <time>2021-07-17T04:02:55.000Z</time>
      </trkpt>
      <trkpt lat="45.20094" lon="5.72541">
        <ele>511.20001220703</ele>
        <time>2021-07-17T04:02:58.000Z</time>
      </trkpt>
      <trkpt lat="45.20097" lon="5.7254">
        <ele>512.40002441406</ele>
        <time>2021-07-17T04:03:00.000Z</time>
      </trkpt>
      <trkpt lat="45.201" lon="5.7254">
        <ele>513.40002441406</ele>
        <time>2021-07-17T04:03:03.000Z</time>
      </trkpt>
      <trkpt lat="45.20103" lon="5.72539">
        <ele>513.79998779297</ele>
        <time>2021-07-17T04:03:05.000Z</time>
      </trkpt>
      <trkpt lat="45.20106" lon="5.7254">
        <ele>514.59997558594</ele>
        <time>2021-07-17T04:03:07.000Z</time>
      </trkpt>
      <trkpt lat="45.2011" lon="5.72541">
        <ele>515.79998779297</ele>
        <time>2021-07-17T04:03:10.000Z</time>
      </trkpt>
      <trkpt lat="45.20112" lon="5.72541">
        <ele>516.20001220703</ele>
        <time>2021-07-17T04:03:12.000Z</time>
      </trkpt>
      <trkpt lat="45.20114" lon="5.72541">
        <ele>517</ele>
        <time>2021-07-17T04:03:14.000Z</time>
      </trkpt>
      <trkpt lat="45.20117" lon="5.72539">
        <ele>518</ele>
        <time>2021-07-17T04:03:18.000Z</time>
      </trkpt>
      <trkpt lat="45.20117" lon="5.72538">
        <ele>518.40002441406</ele>
        <time>2021-07-17T04:03:19.000Z</time>
      </trkpt>
      <trkpt lat="45.20113" lon="5.72535">
        <ele>519.40002441406</ele>
        <time>2021-07-17T04:03:23.000Z</time>
      </trkpt>
      <trkpt lat="45.20111" lon="5.72532">
        <ele>519.40002441406</ele>
        <time>2021-07-17T04:03:25.000Z</time>
      </trkpt>
      <trkpt lat="45.20109" lon="5.72527">
        <ele>520.20001220703</ele>
        <time>2021-07-17T04:03:28.000Z</time>
      </trkpt>
      <trkpt lat="45.20109" lon="5.72522">
        <ele>520.59997558594</ele>
        <time>2021-07-17T04:03:31.000Z</time>
      </trkpt>
      <trkpt lat="45.20109" lon="5.72519">
        <ele>521.40002441406</ele>
        <time>2021-07-17T04:03:33.000Z</time>
      </trkpt>
      <trkpt lat="45.2011" lon="5.72517">
        <ele>521.59997558594</ele>
        <time>2021-07-17T04:03:35.000Z</time>
      </trkpt>
      <trkpt lat="45.20111" lon="5.72515">
        <ele>521.59997558594</ele>
        <time>2021-07-17T04:03:36.000Z</time>
      </trkpt>
      <trkpt lat="45.20113" lon="5.72513">
        <ele>523</ele>
        <time>2021-07-17T04:03:38.000Z</time>
      </trkpt>
      <trkpt lat="45.20118" lon="5.72508">
        <ele>524</ele>
        <time>2021-07-17T04:03:43.000Z</time>
      </trkpt>
      <trkpt lat="45.20121" lon="5.72502">
        <ele>524.79998779297</ele>
        <time>2021-07-17T04:03:47.000Z</time>
      </trkpt>
      <trkpt lat="45.20122" lon="5.72501">
        <ele>525</ele>
        <time>2021-07-17T04:03:48.000Z</time>
      </trkpt>
      <trkpt lat="45.20126" lon="5.72496">
        <ele>526.20001220703</ele>
        <time>2021-07-17T04:03:52.000Z</time>
      </trkpt>
      <trkpt lat="45.20127" lon="5.72495">
        <ele>526.20001220703</ele>
        <time>2021-07-17T04:03:53.000Z</time>
      </trkpt>
      <trkpt lat="45.20128" lon="5.72492">
        <ele>527.20001220703</ele>
        <time>2021-07-17T04:03:55.000Z</time>
      </trkpt>
      <trkpt lat="45.20131" lon="5.72485">
        <ele>528.40002441406</ele>
        <time>2021-07-17T04:04:00.000Z</time>
      </trkpt>
      <trkpt lat="45.20132" lon="5.72484">
        <ele>528.59997558594</ele>
        <time>2021-07-17T04:04:01.000Z</time>
      </trkpt>
      <trkpt lat="45.20133" lon="5.7248">
        <ele>529.40002441406</ele>
        <time>2021-07-17T04:04:04.000Z</time>
      </trkpt>
      <trkpt lat="45.20133" lon="5.72479">
        <ele>530.20001220703</ele>
        <time>2021-07-17T04:04:05.000Z</time>
      </trkpt>
      <trkpt lat="45.20134" lon="5.72472">
        <ele>531.20001220703</ele>
        <time>2021-07-17T04:04:11.000Z</time>
      </trkpt>
      <trkpt lat="45.20135" lon="5.72471">
        <ele>531.20001220703</ele>
        <time>2021-07-17T04:04:12.000Z</time>
      </trkpt>
      <trkpt lat="45.20136" lon="5.7247">
        <ele>532</ele>
        <time>2021-07-17T04:04:13.000Z</time>
      </trkpt>
      <trkpt lat="45.20136" lon="5.72469">
        <ele>532.20001220703</ele>
        <time>2021-07-17T04:04:15.000Z</time>
      </trkpt>
      <trkpt lat="45.20137" lon="5.72469">
        <ele>532.59997558594</ele>
        <time>2021-07-17T04:04:16.000Z</time>
      </trkpt>
      <trkpt lat="45.20138" lon="5.72465">
        <ele>533</ele>
        <time>2021-07-17T04:04:19.000Z</time>
      </trkpt>
      <trkpt lat="45.20139" lon="5.72464">
        <ele>533.59997558594</ele>
        <time>2021-07-17T04:04:20.000Z</time>
      </trkpt>
      <trkpt lat="45.2014" lon="5.72465">
        <ele>533.79998779297</ele>
        <time>2021-07-17T04:04:21.000Z</time>
      </trkpt>
      <trkpt lat="45.20142" lon="5.72464">
        <ele>534.79998779297</ele>
        <time>2021-07-17T04:04:24.000Z</time>
      </trkpt>
      <trkpt lat="45.20143" lon="5.72462">
        <ele>534.79998779297</ele>
        <time>2021-07-17T04:04:25.000Z</time>
      </trkpt>
      <trkpt lat="45.20145" lon="5.72458">
        <ele>536</ele>
        <time>2021-07-17T04:04:28.000Z</time>
      </trkpt>
      <trkpt lat="45.20147" lon="5.72457">
        <ele>536.79998779297</ele>
        <time>2021-07-17T04:04:31.000Z</time>
      </trkpt>
      <trkpt lat="45.20148" lon="5.72459">
        <ele>537.40002441406</ele>
        <time>2021-07-17T04:04:33.000Z</time>
      </trkpt>
      <trkpt lat="45.2015" lon="5.7246">
        <ele>538.40002441406</ele>
        <time>2021-07-17T04:04:36.000Z</time>
      </trkpt>
      <trkpt lat="45.20151" lon="5.72462">
        <ele>539.59997558594</ele>
        <time>2021-07-17T04:04:41.000Z</time>
      </trkpt>
      <trkpt lat="45.20152" lon="5.72463">
        <ele>540.40002441406</ele>
        <time>2021-07-17T04:04:43.000Z</time>
      </trkpt>
      <trkpt lat="45.20153" lon="5.72463">
        <ele>540.59997558594</ele>
        <time>2021-07-17T04:04:44.000Z</time>
      </trkpt>
      <trkpt lat="45.20153" lon="5.72463">
        <ele>540.79998779297</ele>
        <time>2021-07-17T04:04:45.000Z</time>
      </trkpt>
      <trkpt lat="45.20154" lon="5.72465">
        <ele>542.20001220703</ele>
        <time>2021-07-17T04:04:49.000Z</time>
      </trkpt>
      <trkpt lat="45.20154" lon="5.72466">
        <ele>542.59997558594</ele>
        <time>2021-07-17T04:04:50.000Z</time>
      </trkpt>
      <trkpt lat="45.20156" lon="5.72468">
        <ele>543.40002441406</ele>
        <time>2021-07-17T04:04:53.000Z</time>
      </trkpt>
      <trkpt lat="45.20158" lon="5.72469">
        <ele>544.40002441406</ele>
        <time>2021-07-17T04:04:55.000Z</time>
      </trkpt>
      <trkpt lat="45.20158" lon="5.7247">
        <ele>544.40002441406</ele>
        <time>2021-07-17T04:04:56.000Z</time>
      </trkpt>
      <trkpt lat="45.20161" lon="5.72471">
        <ele>546.20001220703</ele>
        <time>2021-07-17T04:05:00.000Z</time>
      </trkpt>
      <trkpt lat="45.20163" lon="5.72473">
        <ele>546.59997558594</ele>
        <time>2021-07-17T04:05:04.000Z</time>
      </trkpt>
      <trkpt lat="45.20165" lon="5.72476">
        <ele>548</ele>
        <time>2021-07-17T04:05:07.000Z</time>
      </trkpt>
      <trkpt lat="45.20167" lon="5.72481">
        <ele>548.79998779297</ele>
        <time>2021-07-17T04:05:11.000Z</time>
      </trkpt>
      <trkpt lat="45.20169" lon="5.72482">
        <ele>549.20001220703</ele>
        <time>2021-07-17T04:05:13.000Z</time>
      </trkpt>
      <trkpt lat="45.20171" lon="5.72484">
        <ele>550.40002441406</ele>
        <time>2021-07-17T04:05:16.000Z</time>
      </trkpt>
      <trkpt lat="45.20172" lon="5.72485">
        <ele>550.59997558594</ele>
        <time>2021-07-17T04:05:17.000Z</time>
      </trkpt>
      <trkpt lat="45.20176" lon="5.72491">
        <ele>551.59997558594</ele>
        <time>2021-07-17T04:05:21.000Z</time>
      </trkpt>
      <trkpt lat="45.20177" lon="5.72491">
        <ele>551.79998779297</ele>
        <time>2021-07-17T04:05:23.000Z</time>
      </trkpt>
      <trkpt lat="45.2018" lon="5.72491">
        <ele>553</ele>
        <time>2021-07-17T04:05:27.000Z</time>
      </trkpt>
      <trkpt lat="45.20183" lon="5.72494">
        <ele>553.59997558594</ele>
        <time>2021-07-17T04:05:31.000Z</time>
      </trkpt>
      <trkpt lat="45.20185" lon="5.72496">
        <ele>554</ele>
        <time>2021-07-17T04:05:33.000Z</time>
      </trkpt>
      <trkpt lat="45.20188" lon="5.72499">
        <ele>554.40002441406</ele>
        <time>2021-07-17T04:05:36.000Z</time>
      </trkpt>
      <trkpt lat="45.20189" lon="5.725">
        <ele>554.40002441406</ele>
        <time>2021-07-17T04:05:37.000Z</time>
      </trkpt>
      <trkpt lat="45.2019" lon="5.72501">
        <ele>555.20001220703</ele>
        <time>2021-07-17T04:05:39.000Z</time>
      </trkpt>
      <trkpt lat="45.20191" lon="5.72501">
        <ele>555.40002441406</ele>
        <time>2021-07-17T04:05:40.000Z</time>
      </trkpt>
      <trkpt lat="45.20193" lon="5.72503">
        <ele>556</ele>
        <time>2021-07-17T04:05:43.000Z</time>
      </trkpt>
      <trkpt lat="45.20194" lon="5.72504">
        <ele>556.59997558594</ele>
        <time>2021-07-17T04:05:44.000Z</time>
      </trkpt>
      <trkpt lat="45.20197" lon="5.72508">
        <ele>556.79998779297</ele>
        <time>2021-07-17T04:05:47.000Z</time>
      </trkpt>
      <trkpt lat="45.202" lon="5.72511">
        <ele>557</ele>
        <time>2021-07-17T04:05:49.000Z</time>
      </trkpt>
      <trkpt lat="45.20201" lon="5.72512">
        <ele>557.59997558594</ele>
        <time>2021-07-17T04:05:50.000Z</time>
      </trkpt>
      <trkpt lat="45.20203" lon="5.72515">
        <ele>558.20001220703</ele>
        <time>2021-07-17T04:05:54.000Z</time>
      </trkpt>
      <trkpt lat="45.20205" lon="5.72516">
        <ele>558.40002441406</ele>
        <time>2021-07-17T04:05:55.000Z</time>
      </trkpt>
      <trkpt lat="45.20205" lon="5.72516">
        <ele>558.79998779297</ele>
        <time>2021-07-17T04:05:56.000Z</time>
      </trkpt>
      <trkpt lat="45.20207" lon="5.72517">
        <ele>559.59997558594</ele>
        <time>2021-07-17T04:05:58.000Z</time>
      </trkpt>
      <trkpt lat="45.20208" lon="5.72517">
        <ele>559.79998779297</ele>
        <time>2021-07-17T04:05:59.000Z</time>
      </trkpt>
      <trkpt lat="45.2021" lon="5.72517">
        <ele>560</ele>
        <time>2021-07-17T04:06:01.000Z</time>
      </trkpt>
      <trkpt lat="45.20214" lon="5.72517">
        <ele>561.20001220703</ele>
        <time>2021-07-17T04:06:04.000Z</time>
      </trkpt>
      <trkpt lat="45.20214" lon="5.72518">
        <ele>561.40002441406</ele>
        <time>2021-07-17T04:06:05.000Z</time>
      </trkpt>
      <trkpt lat="45.20216" lon="5.72519">
        <ele>561.79998779297</ele>
        <time>2021-07-17T04:06:07.000Z</time>
      </trkpt>
      <trkpt lat="45.20217" lon="5.72519">
        <ele>562.40002441406</ele>
        <time>2021-07-17T04:06:08.000Z</time>
      </trkpt>
      <trkpt lat="45.20219" lon="5.72519">
        <ele>562.59997558594</ele>
        <time>2021-07-17T04:06:10.000Z</time>
      </trkpt>
      <trkpt lat="45.20221" lon="5.72519">
        <ele>563.59997558594</ele>
        <time>2021-07-17T04:06:12.000Z</time>
      </trkpt>
      <trkpt lat="45.20223" lon="5.72519">
        <ele>563.79998779297</ele>
        <time>2021-07-17T04:06:14.000Z</time>
      </trkpt>
      <trkpt lat="45.20225" lon="5.72519">
        <ele>564.20001220703</ele>
        <time>2021-07-17T04:06:16.000Z</time>
      </trkpt>
      <trkpt lat="45.20226" lon="5.72519">
        <ele>564.59997558594</ele>
        <time>2021-07-17T04:06:17.000Z</time>
      </trkpt>
      <trkpt lat="45.20227" lon="5.72519">
        <ele>565</ele>
        <time>2021-07-17T04:06:19.000Z</time>
      </trkpt>
      <trkpt lat="45.2023" lon="5.72521">
        <ele>565.59997558594</ele>
        <time>2021-07-17T04:06:21.000Z</time>
      </trkpt>
      <trkpt lat="45.20231" lon="5.7252">
        <ele>565.79998779297</ele>
        <time>2021-07-17T04:06:22.000Z</time>
      </trkpt>
      <trkpt lat="45.20231" lon="5.72519">
        <ele>566</ele>
        <time>2021-07-17T04:06:23.000Z</time>
      </trkpt>
      <trkpt lat="45.20233" lon="5.7252">
        <ele>567</ele>
        <time>2021-07-17T04:06:26.000Z</time>
      </trkpt>
      <trkpt lat="45.20237" lon="5.72522">
        <ele>568.40002441406</ele>
        <time>2021-07-17T04:06:30.000Z</time>
      </trkpt>
      <trkpt lat="45.2024" lon="5.72521">
        <ele>569</ele>
        <time>2021-07-17T04:06:33.000Z</time>
      </trkpt>
      <trkpt lat="45.20241" lon="5.7252">
        <ele>569.59997558594</ele>
        <time>2021-07-17T04:06:34.000Z</time>
      </trkpt>
      <trkpt lat="45.20244" lon="5.72522">
        <ele>570.40002441406</ele>
        <time>2021-07-17T04:06:38.000Z</time>
      </trkpt>
      <trkpt lat="45.20245" lon="5.72522">
        <ele>570.59997558594</ele>
        <time>2021-07-17T04:06:39.000Z</time>
      </trkpt>
      <trkpt lat="45.20245" lon="5.72522">
        <ele>571</ele>
        <time>2021-07-17T04:06:40.000Z</time>
      </trkpt>
      <trkpt lat="45.20246" lon="5.72522">
        <ele>571.40002441406</ele>
        <time>2021-07-17T04:06:41.000Z</time>
      </trkpt>
      <trkpt lat="45.20248" lon="5.7252">
        <ele>572.40002441406</ele>
        <time>2021-07-17T04:06:44.000Z</time>
      </trkpt>
      <trkpt lat="45.20248" lon="5.7252">
        <ele>572.40002441406</ele>
        <time>2021-07-17T04:06:45.000Z</time>
      </trkpt>
      <trkpt lat="45.20249" lon="5.7252">
        <ele>572.40002441406</ele>
        <time>2021-07-17T04:06:46.000Z</time>
      </trkpt>
      <trkpt lat="45.20251" lon="5.7252">
        <ele>573.79998779297</ele>
        <time>2021-07-17T04:06:48.000Z</time>
      </trkpt>
      <trkpt lat="45.20252" lon="5.72521">
        <ele>574</ele>
        <time>2021-07-17T04:06:49.000Z</time>
      </trkpt>
      <trkpt lat="45.20257" lon="5.72521">
        <ele>574.40002441406</ele>
        <time>2021-07-17T04:06:53.000Z</time>
      </trkpt>
      <trkpt lat="45.20257" lon="5.72521">
        <ele>574.59997558594</ele>
        <time>2021-07-17T04:06:54.000Z</time>
      </trkpt>
      <trkpt lat="45.20258" lon="5.72522">
        <ele>575.40002441406</ele>
        <time>2021-07-17T04:06:55.000Z</time>
      </trkpt>
      <trkpt lat="45.20258" lon="5.72522">
        <ele>575.40002441406</ele>
        <time>2021-07-17T04:06:56.000Z</time>
      </trkpt>
      <trkpt lat="45.2026" lon="5.72522">
        <ele>575.79998779297</ele>
        <time>2021-07-17T04:06:58.000Z</time>
      </trkpt>
      <trkpt lat="45.20261" lon="5.72522">
        <ele>576.40002441406</ele>
        <time>2021-07-17T04:07:00.000Z</time>
      </trkpt>
      <trkpt lat="45.20264" lon="5.7252">
        <ele>577.20001220703</ele>
        <time>2021-07-17T04:07:03.000Z</time>
      </trkpt>
      <trkpt lat="45.20265" lon="5.7252">
        <ele>577.59997558594</ele>
        <time>2021-07-17T04:07:04.000Z</time>
      </trkpt>
      <trkpt lat="45.20267" lon="5.7252">
        <ele>577.79998779297</ele>
        <time>2021-07-17T04:07:06.000Z</time>
      </trkpt>
      <trkpt lat="45.2027" lon="5.72519">
        <ele>578.79998779297</ele>
        <time>2021-07-17T04:07:08.000Z</time>
      </trkpt>
      <trkpt lat="45.20282" lon="5.72518">
        <ele>580</ele>
        <time>2021-07-17T04:07:15.000Z</time>
      </trkpt>
      <trkpt lat="45.20288" lon="5.72519">
        <ele>581</ele>
        <time>2021-07-17T04:07:20.000Z</time>
      </trkpt>
      <trkpt lat="45.20292" lon="5.72518">
        <ele>581.40002441406</ele>
        <time>2021-07-17T04:07:23.000Z</time>
      </trkpt>
      <trkpt lat="45.20295" lon="5.72517">
        <ele>581.59997558594</ele>
        <time>2021-07-17T04:07:25.000Z</time>
      </trkpt>
      <trkpt lat="45.20297" lon="5.72517">
        <ele>582.20001220703</ele>
        <time>2021-07-17T04:07:27.000Z</time>
      </trkpt>
      <trkpt lat="45.20299" lon="5.72517">
        <ele>582.79998779297</ele>
        <time>2021-07-17T04:07:29.000Z</time>
      </trkpt>
      <trkpt lat="45.20304" lon="5.72517">
        <ele>583.40002441406</ele>
        <time>2021-07-17T04:07:33.000Z</time>
      </trkpt>
      <trkpt lat="45.20307" lon="5.72516">
        <ele>584.20001220703</ele>
        <time>2021-07-17T04:07:36.000Z</time>
      </trkpt>
      <trkpt lat="45.20307" lon="5.72516">
        <ele>584.40002441406</ele>
        <time>2021-07-17T04:07:37.000Z</time>
      </trkpt>
      <trkpt lat="45.20309" lon="5.72516">
        <ele>585.59997558594</ele>
        <time>2021-07-17T04:07:40.000Z</time>
      </trkpt>
      <trkpt lat="45.2031" lon="5.72515">
        <ele>585.79998779297</ele>
        <time>2021-07-17T04:07:42.000Z</time>
      </trkpt>
      <trkpt lat="45.20314" lon="5.72516">
        <ele>586.40002441406</ele>
        <time>2021-07-17T04:07:45.000Z</time>
      </trkpt>
      <trkpt lat="45.20315" lon="5.72517">
        <ele>587</ele>
        <time>2021-07-17T04:07:46.000Z</time>
      </trkpt>
      <trkpt lat="45.20315" lon="5.72518">
        <ele>587.59997558594</ele>
        <time>2021-07-17T04:07:48.000Z</time>
      </trkpt>
      <trkpt lat="45.20316" lon="5.72519">
        <ele>587.79998779297</ele>
        <time>2021-07-17T04:07:49.000Z</time>
      </trkpt>
      <trkpt lat="45.20316" lon="5.72519">
        <ele>588</ele>
        <time>2021-07-17T04:07:50.000Z</time>
      </trkpt>
      <trkpt lat="45.20317" lon="5.72518">
        <ele>588.20001220703</ele>
        <time>2021-07-17T04:07:51.000Z</time>
      </trkpt>
      <trkpt lat="45.20317" lon="5.72519">
        <ele>589.20001220703</ele>
        <time>2021-07-17T04:07:53.000Z</time>
      </trkpt>
      <trkpt lat="45.20317" lon="5.7252">
        <ele>589.20001220703</ele>
        <time>2021-07-17T04:07:54.000Z</time>
      </trkpt>
      <trkpt lat="45.20317" lon="5.7252">
        <ele>589.40002441406</ele>
        <time>2021-07-17T04:07:55.000Z</time>
      </trkpt>
      <trkpt lat="45.20319" lon="5.7252">
        <ele>589.79998779297</ele>
        <time>2021-07-17T04:07:57.000Z</time>
      </trkpt>
      <trkpt lat="45.20319" lon="5.7252">
        <ele>590.40002441406</ele>
        <time>2021-07-17T04:07:58.000Z</time>
      </trkpt>
      <trkpt lat="45.20322" lon="5.7252">
        <ele>590.79998779297</ele>
        <time>2021-07-17T04:08:00.000Z</time>
      </trkpt>
      <trkpt lat="45.20325" lon="5.72518">
        <ele>592.59997558594</ele>
        <time>2021-07-17T04:08:04.000Z</time>
      </trkpt>
      <trkpt lat="45.20327" lon="5.72519">
        <ele>593.20001220703</ele>
        <time>2021-07-17T04:08:07.000Z</time>
      </trkpt>
      <trkpt lat="45.20329" lon="5.72519">
        <ele>593.20001220703</ele>
        <time>2021-07-17T04:08:08.000Z</time>
      </trkpt>
      <trkpt lat="45.20334" lon="5.72519">
        <ele>593.59997558594</ele>
        <time>2021-07-17T04:08:12.000Z</time>
      </trkpt>
      <trkpt lat="45.20335" lon="5.72519">
        <ele>594.59997558594</ele>
        <time>2021-07-17T04:08:14.000Z</time>
      </trkpt>
      <trkpt lat="45.20336" lon="5.7252">
        <ele>594.59997558594</ele>
        <time>2021-07-17T04:08:15.000Z</time>
      </trkpt>
      <trkpt lat="45.20336" lon="5.72519">
        <ele>594.79998779297</ele>
        <time>2021-07-17T04:08:16.000Z</time>
      </trkpt>
      <trkpt lat="45.20337" lon="5.72519">
        <ele>595.40002441406</ele>
        <time>2021-07-17T04:08:17.000Z</time>
      </trkpt>
      <trkpt lat="45.20337" lon="5.72518">
        <ele>596</ele>
        <time>2021-07-17T04:08:18.000Z</time>
      </trkpt>
      <trkpt lat="45.20338" lon="5.72518">
        <ele>596</ele>
        <time>2021-07-17T04:08:19.000Z</time>
      </trkpt>
      <trkpt lat="45.20338" lon="5.72519">
        <ele>596.20001220703</ele>
        <time>2021-07-17T04:08:21.000Z</time>
      </trkpt>
      <trkpt lat="45.20338" lon="5.72519">
        <ele>596.40002441406</ele>
        <time>2021-07-17T04:08:22.000Z</time>
      </trkpt>
      <trkpt lat="45.20338" lon="5.7252">
        <ele>597</ele>
        <time>2021-07-17T04:08:23.000Z</time>
      </trkpt>
      <trkpt lat="45.20338" lon="5.72521">
        <ele>597.40002441406</ele>
        <time>2021-07-17T04:08:25.000Z</time>
      </trkpt>
      <trkpt lat="45.20339" lon="5.72522">
        <ele>598</ele>
        <time>2021-07-17T04:08:26.000Z</time>
      </trkpt>
      <trkpt lat="45.2034" lon="5.72522">
        <ele>598.40002441406</ele>
        <time>2021-07-17T04:08:28.000Z</time>
      </trkpt>
      <trkpt lat="45.20343" lon="5.72522">
        <ele>599</ele>
        <time>2021-07-17T04:08:32.000Z</time>
      </trkpt>
      <trkpt lat="45.20343" lon="5.72522">
        <ele>600</ele>
        <time>2021-07-17T04:08:33.000Z</time>
      </trkpt>
      <trkpt lat="45.20345" lon="5.72521">
        <ele>600</ele>
        <time>2021-07-17T04:08:34.000Z</time>
      </trkpt>
      <trkpt lat="45.20346" lon="5.7252">
        <ele>601.20001220703</ele>
        <time>2021-07-17T04:08:38.000Z</time>
      </trkpt>
      <trkpt lat="45.20347" lon="5.7252">
        <ele>601.20001220703</ele>
        <time>2021-07-17T04:08:39.000Z</time>
      </trkpt>
      <trkpt lat="45.20347" lon="5.72518">
        <ele>602.40002441406</ele>
        <time>2021-07-17T04:08:41.000Z</time>
      </trkpt>
      <trkpt lat="45.20351" lon="5.72519">
        <ele>602.59997558594</ele>
        <time>2021-07-17T04:08:45.000Z</time>
      </trkpt>
      <trkpt lat="45.20352" lon="5.72519">
        <ele>603.59997558594</ele>
        <time>2021-07-17T04:08:48.000Z</time>
      </trkpt>
      <trkpt lat="45.20354" lon="5.72522">
        <ele>604</ele>
        <time>2021-07-17T04:08:50.000Z</time>
      </trkpt>
      <trkpt lat="45.20355" lon="5.72523">
        <ele>605</ele>
        <time>2021-07-17T04:08:52.000Z</time>
      </trkpt>
      <trkpt lat="45.20359" lon="5.72522">
        <ele>605.20001220703</ele>
        <time>2021-07-17T04:08:55.000Z</time>
      </trkpt>
      <trkpt lat="45.2036" lon="5.72522">
        <ele>605.40002441406</ele>
        <time>2021-07-17T04:08:57.000Z</time>
      </trkpt>
      <trkpt lat="45.20363" lon="5.72522">
        <ele>606</ele>
        <time>2021-07-17T04:08:59.000Z</time>
      </trkpt>
      <trkpt lat="45.20364" lon="5.72522">
        <ele>606.20001220703</ele>
        <time>2021-07-17T04:09:00.000Z</time>
      </trkpt>
      <trkpt lat="45.20366" lon="5.72523">
        <ele>606.40002441406</ele>
        <time>2021-07-17T04:09:03.000Z</time>
      </trkpt>
      <trkpt lat="45.20367" lon="5.72524">
        <ele>607.20001220703</ele>
        <time>2021-07-17T04:09:04.000Z</time>
      </trkpt>
      <trkpt lat="45.20369" lon="5.72526">
        <ele>607.40002441406</ele>
        <time>2021-07-17T04:09:06.000Z</time>
      </trkpt>
      <trkpt lat="45.20371" lon="5.72529">
        <ele>608.20001220703</ele>
        <time>2021-07-17T04:09:10.000Z</time>
      </trkpt>
      <trkpt lat="45.20372" lon="5.72529">
        <ele>608.59997558594</ele>
        <time>2021-07-17T04:09:11.000Z</time>
      </trkpt>
      <trkpt lat="45.20373" lon="5.7253">
        <ele>609.20001220703</ele>
        <time>2021-07-17T04:09:13.000Z</time>
      </trkpt>
      <trkpt lat="45.20375" lon="5.72532">
        <ele>609.79998779297</ele>
        <time>2021-07-17T04:09:15.000Z</time>
      </trkpt>
      <trkpt lat="45.20376" lon="5.72533">
        <ele>610.40002441406</ele>
        <time>2021-07-17T04:09:16.000Z</time>
      </trkpt>
      <trkpt lat="45.20377" lon="5.72534">
        <ele>611</ele>
        <time>2021-07-17T04:09:17.000Z</time>
      </trkpt>
      <trkpt lat="45.20379" lon="5.72534">
        <ele>611</ele>
        <time>2021-07-17T04:09:18.000Z</time>
      </trkpt>
      <trkpt lat="45.20383" lon="5.72536">
        <ele>611.59997558594</ele>
        <time>2021-07-17T04:09:21.000Z</time>
      </trkpt>
      <trkpt lat="45.20384" lon="5.72537">
        <ele>612</ele>
        <time>2021-07-17T04:09:22.000Z</time>
      </trkpt>
      <trkpt lat="45.20385" lon="5.72539">
        <ele>612.20001220703</ele>
        <time>2021-07-17T04:09:24.000Z</time>
      </trkpt>
      <trkpt lat="45.20386" lon="5.7254">
        <ele>612.40002441406</ele>
        <time>2021-07-17T04:09:25.000Z</time>
      </trkpt>
      <trkpt lat="45.20387" lon="5.72539">
        <ele>613.20001220703</ele>
        <time>2021-07-17T04:09:27.000Z</time>
      </trkpt>
      <trkpt lat="45.20387" lon="5.72538">
        <ele>613.40002441406</ele>
        <time>2021-07-17T04:09:28.000Z</time>
      </trkpt>
      <trkpt lat="45.20388" lon="5.72538">
        <ele>613.40002441406</ele>
        <time>2021-07-17T04:09:30.000Z</time>
      </trkpt>
      <trkpt lat="45.20389" lon="5.72539">
        <ele>614.40002441406</ele>
        <time>2021-07-17T04:09:32.000Z</time>
      </trkpt>
      <trkpt lat="45.2039" lon="5.72538">
        <ele>615.59997558594</ele>
        <time>2021-07-17T04:09:34.000Z</time>
      </trkpt>
      <trkpt lat="45.20391" lon="5.72538">
        <ele>615.79998779297</ele>
        <time>2021-07-17T04:09:36.000Z</time>
      </trkpt>
      <trkpt lat="45.20393" lon="5.72537">
        <ele>616.20001220703</ele>
        <time>2021-07-17T04:09:38.000Z</time>
      </trkpt>
      <trkpt lat="45.20393" lon="5.72536">
        <ele>616.79998779297</ele>
        <time>2021-07-17T04:09:39.000Z</time>
      </trkpt>
      <trkpt lat="45.20395" lon="5.7254">
        <ele>617.79998779297</ele>
        <time>2021-07-17T04:09:44.000Z</time>
      </trkpt>
      <trkpt lat="45.20396" lon="5.7254">
        <ele>618</ele>
        <time>2021-07-17T04:09:45.000Z</time>
      </trkpt>
      <trkpt lat="45.20397" lon="5.7254">
        <ele>618.20001220703</ele>
        <time>2021-07-17T04:09:48.000Z</time>
      </trkpt>
      <trkpt lat="45.20397" lon="5.72539">
        <ele>618.20001220703</ele>
        <time>2021-07-17T04:09:49.000Z</time>
      </trkpt>
      <trkpt lat="45.20398" lon="5.72539">
        <ele>619.20001220703</ele>
        <time>2021-07-17T04:09:50.000Z</time>
      </trkpt>
      <trkpt lat="45.20399" lon="5.72539">
        <ele>619.40002441406</ele>
        <time>2021-07-17T04:09:51.000Z</time>
      </trkpt>
      <trkpt lat="45.20402" lon="5.72537">
        <ele>620.40002441406</ele>
        <time>2021-07-17T04:09:55.000Z</time>
      </trkpt>
      <trkpt lat="45.20406" lon="5.72535">
        <ele>620.79998779297</ele>
        <time>2021-07-17T04:09:59.000Z</time>
      </trkpt>
      <trkpt lat="45.20407" lon="5.72534">
        <ele>621.40002441406</ele>
        <time>2021-07-17T04:10:00.000Z</time>
      </trkpt>
      <trkpt lat="45.2041" lon="5.72531">
        <ele>622.59997558594</ele>
        <time>2021-07-17T04:10:04.000Z</time>
      </trkpt>
      <trkpt lat="45.20412" lon="5.72531">
        <ele>623.40002441406</ele>
        <time>2021-07-17T04:10:07.000Z</time>
      </trkpt>
      <trkpt lat="45.20414" lon="5.7253">
        <ele>623.79998779297</ele>
        <time>2021-07-17T04:10:09.000Z</time>
      </trkpt>
      <trkpt lat="45.20415" lon="5.72528">
        <ele>624.20001220703</ele>
        <time>2021-07-17T04:10:12.000Z</time>
      </trkpt>
      <trkpt lat="45.20415" lon="5.72526">
        <ele>625.59997558594</ele>
        <time>2021-07-17T04:10:13.000Z</time>
      </trkpt>
      <trkpt lat="45.20415" lon="5.72526">
        <ele>625.59997558594</ele>
        <time>2021-07-17T04:10:14.000Z</time>
      </trkpt>
      <trkpt lat="45.20417" lon="5.72522">
        <ele>625.59997558594</ele>
        <time>2021-07-17T04:10:15.000Z</time>
      </trkpt>
      <trkpt lat="45.20419" lon="5.7252">
        <ele>626.59997558594</ele>
        <time>2021-07-17T04:10:18.000Z</time>
      </trkpt>
      <trkpt lat="45.2042" lon="5.7252">
        <ele>627.20001220703</ele>
        <time>2021-07-17T04:10:20.000Z</time>
      </trkpt>
      <trkpt lat="45.20421" lon="5.7252">
        <ele>627.59997558594</ele>
        <time>2021-07-17T04:10:21.000Z</time>
      </trkpt>
      <trkpt lat="45.20421" lon="5.72519">
        <ele>627.79998779297</ele>
        <time>2021-07-17T04:10:22.000Z</time>
      </trkpt>
      <trkpt lat="45.20422" lon="5.72519">
        <ele>629</ele>
        <time>2021-07-17T04:10:25.000Z</time>
      </trkpt>
      <trkpt lat="45.20423" lon="5.72519">
        <ele>629.79998779297</ele>
        <time>2021-07-17T04:10:27.000Z</time>
      </trkpt>
      <trkpt lat="45.20424" lon="5.72519">
        <ele>630.20001220703</ele>
        <time>2021-07-17T04:10:29.000Z</time>
      </trkpt>
      <trkpt lat="45.20425" lon="5.72519">
        <ele>630.20001220703</ele>
        <time>2021-07-17T04:10:30.000Z</time>
      </trkpt>
      <trkpt lat="45.20428" lon="5.72517">
        <ele>631.59997558594</ele>
        <time>2021-07-17T04:10:34.000Z</time>
      </trkpt>
      <trkpt lat="45.2043" lon="5.72517">
        <ele>633</ele>
        <time>2021-07-17T04:10:37.000Z</time>
      </trkpt>
      <trkpt lat="45.20431" lon="5.72516">
        <ele>633.40002441406</ele>
        <time>2021-07-17T04:10:39.000Z</time>
      </trkpt>
      <trkpt lat="45.2044" lon="5.72515">
        <ele>634.20001220703</ele>
        <time>2021-07-17T04:10:43.000Z</time>
      </trkpt>
      <trkpt lat="45.20442" lon="5.72515">
        <ele>634.40002441406</ele>
        <time>2021-07-17T04:10:45.000Z</time>
      </trkpt>
      <trkpt lat="45.20442" lon="5.72515">
        <ele>634.40002441406</ele>
        <time>2021-07-17T04:10:46.000Z</time>
      </trkpt>
      <trkpt lat="45.20445" lon="5.72517">
        <ele>635.40002441406</ele>
        <time>2021-07-17T04:10:50.000Z</time>
      </trkpt>
      <trkpt lat="45.20446" lon="5.72518">
        <ele>635.79998779297</ele>
        <time>2021-07-17T04:10:51.000Z</time>
      </trkpt>
      <trkpt lat="45.20449" lon="5.72521">
        <ele>635.79998779297</ele>
        <time>2021-07-17T04:10:54.000Z</time>
      </trkpt>
      <trkpt lat="45.20454" lon="5.72526">
        <ele>636.59997558594</ele>
        <time>2021-07-17T04:10:57.000Z</time>
      </trkpt>
      <trkpt lat="45.20456" lon="5.72527">
        <ele>636.79998779297</ele>
        <time>2021-07-17T04:10:59.000Z</time>
      </trkpt>
      <trkpt lat="45.2046" lon="5.72531">
        <ele>637.20001220703</ele>
        <time>2021-07-17T04:11:02.000Z</time>
      </trkpt>
      <trkpt lat="45.20462" lon="5.72533">
        <ele>637.79998779297</ele>
        <time>2021-07-17T04:11:04.000Z</time>
      </trkpt>
      <trkpt lat="45.20464" lon="5.72536">
        <ele>638.20001220703</ele>
        <time>2021-07-17T04:11:07.000Z</time>
      </trkpt>
      <trkpt lat="45.20466" lon="5.72541">
        <ele>638.79998779297</ele>
        <time>2021-07-17T04:11:09.000Z</time>
      </trkpt>
      <trkpt lat="45.20468" lon="5.72543">
        <ele>639</ele>
        <time>2021-07-17T04:11:10.000Z</time>
      </trkpt>
      <trkpt lat="45.20469" lon="5.72545">
        <ele>639.20001220703</ele>
        <time>2021-07-17T04:11:11.000Z</time>
      </trkpt>
      <trkpt lat="45.20472" lon="5.72549">
        <ele>639.40002441406</ele>
        <time>2021-07-17T04:11:13.000Z</time>
      </trkpt>
      <trkpt lat="45.20473" lon="5.7255">
        <ele>639.40002441406</ele>
        <time>2021-07-17T04:11:14.000Z</time>
      </trkpt>
      <trkpt lat="45.20473" lon="5.72551">
        <ele>639.59997558594</ele>
        <time>2021-07-17T04:11:15.000Z</time>
      </trkpt>
      <trkpt lat="45.20474" lon="5.72552">
        <ele>640</ele>
        <time>2021-07-17T04:11:16.000Z</time>
      </trkpt>
      <trkpt lat="45.20475" lon="5.72553">
        <ele>640.20001220703</ele>
        <time>2021-07-17T04:11:17.000Z</time>
      </trkpt>
      <trkpt lat="45.20476" lon="5.72554">
        <ele>640.20001220703</ele>
        <time>2021-07-17T04:11:18.000Z</time>
      </trkpt>
      <trkpt lat="45.2048" lon="5.72555">
        <ele>640.40002441406</ele>
        <time>2021-07-17T04:11:21.000Z</time>
      </trkpt>
      <trkpt lat="45.20483" lon="5.72553">
        <ele>640.79998779297</ele>
        <time>2021-07-17T04:11:23.000Z</time>
      </trkpt>
      <trkpt lat="45.20484" lon="5.72552">
        <ele>641.20001220703</ele>
        <time>2021-07-17T04:11:24.000Z</time>
      </trkpt>
      <trkpt lat="45.20485" lon="5.72551">
        <ele>641.20001220703</ele>
        <time>2021-07-17T04:11:25.000Z</time>
      </trkpt>
      <trkpt lat="45.20483" lon="5.72548">
        <ele>642.40002441406</ele>
        <time>2021-07-17T04:11:28.000Z</time>
      </trkpt>
      <trkpt lat="45.20483" lon="5.72548">
        <ele>642.59997558594</ele>
        <time>2021-07-17T04:11:29.000Z</time>
      </trkpt>
      <trkpt lat="45.20482" lon="5.72546">
        <ele>643</ele>
        <time>2021-07-17T04:11:30.000Z</time>
      </trkpt>
      <trkpt lat="45.20483" lon="5.72545">
        <ele>643.20001220703</ele>
        <time>2021-07-17T04:11:32.000Z</time>
      </trkpt>
      <trkpt lat="45.20482" lon="5.72544">
        <ele>643.20001220703</ele>
        <time>2021-07-17T04:11:33.000Z</time>
      </trkpt>
      <trkpt lat="45.20482" lon="5.72542">
        <ele>643.40002441406</ele>
        <time>2021-07-17T04:11:35.000Z</time>
      </trkpt>
      <trkpt lat="45.2048" lon="5.72537">
        <ele>644.59997558594</ele>
        <time>2021-07-17T04:11:38.000Z</time>
      </trkpt>
      <trkpt lat="45.20479" lon="5.72534">
        <ele>645.20001220703</ele>
        <time>2021-07-17T04:11:40.000Z</time>
      </trkpt>
      <trkpt lat="45.20479" lon="5.72532">
        <ele>645.59997558594</ele>
        <time>2021-07-17T04:11:41.000Z</time>
      </trkpt>
      <trkpt lat="45.20481" lon="5.72519">
        <ele>646.40002441406</ele>
        <time>2021-07-17T04:11:46.000Z</time>
      </trkpt>
      <trkpt lat="45.20481" lon="5.72514">
        <ele>646.40002441406</ele>
        <time>2021-07-17T04:11:48.000Z</time>
      </trkpt>
      <trkpt lat="45.20475" lon="5.725">
        <ele>646</ele>
        <time>2021-07-17T04:11:54.000Z</time>
      </trkpt>
      <trkpt lat="45.20472" lon="5.72486">
        <ele>646.20001220703</ele>
        <time>2021-07-17T04:12:00.000Z</time>
      </trkpt>
      <trkpt lat="45.20471" lon="5.72485">
        <ele>646.59997558594</ele>
        <time>2021-07-17T04:12:01.000Z</time>
      </trkpt>
      <trkpt lat="45.20471" lon="5.72482">
        <ele>646.79998779297</ele>
        <time>2021-07-17T04:12:03.000Z</time>
      </trkpt>
      <trkpt lat="45.20472" lon="5.72477">
        <ele>647.59997558594</ele>
        <time>2021-07-17T04:12:05.000Z</time>
      </trkpt>
      <trkpt lat="45.20472" lon="5.72475">
        <ele>647.79998779297</ele>
        <time>2021-07-17T04:12:06.000Z</time>
      </trkpt>
      <trkpt lat="45.20472" lon="5.72469">
        <ele>649</ele>
        <time>2021-07-17T04:12:08.000Z</time>
      </trkpt>
      <trkpt lat="45.2047" lon="5.72455">
        <ele>650.20001220703</ele>
        <time>2021-07-17T04:12:13.000Z</time>
      </trkpt>
      <trkpt lat="45.2047" lon="5.72453">
        <ele>650.20001220703</ele>
        <time>2021-07-17T04:12:14.000Z</time>
      </trkpt>
      <trkpt lat="45.20465" lon="5.72439">
        <ele>651</ele>
        <time>2021-07-17T04:12:20.000Z</time>
      </trkpt>
      <trkpt lat="45.20462" lon="5.72436">
        <ele>651</ele>
        <time>2021-07-17T04:12:22.000Z</time>
      </trkpt>
      <trkpt lat="45.20457" lon="5.72434">
        <ele>651</ele>
        <time>2021-07-17T04:12:25.000Z</time>
      </trkpt>
      <trkpt lat="45.20454" lon="5.72432">
        <ele>651.40002441406</ele>
        <time>2021-07-17T04:12:28.000Z</time>
      </trkpt>
      <trkpt lat="45.20449" lon="5.72429">
        <ele>651.20001220703</ele>
        <time>2021-07-17T04:12:31.000Z</time>
      </trkpt>
      <trkpt lat="45.20439" lon="5.72426">
        <ele>650.59997558594</ele>
        <time>2021-07-17T04:12:37.000Z</time>
      </trkpt>
      <trkpt lat="45.20438" lon="5.72426">
        <ele>650.59997558594</ele>
        <time>2021-07-17T04:12:38.000Z</time>
      </trkpt>
      <trkpt lat="45.20427" lon="5.72428">
        <ele>650.59997558594</ele>
        <time>2021-07-17T04:12:45.000Z</time>
      </trkpt>
      <trkpt lat="45.20419" lon="5.72432">
        <ele>651.59997558594</ele>
        <time>2021-07-17T04:12:51.000Z</time>
      </trkpt>
      <trkpt lat="45.20408" lon="5.72435">
        <ele>652</ele>
        <time>2021-07-17T04:12:56.000Z</time>
      </trkpt>
      <trkpt lat="45.20402" lon="5.72433">
        <ele>652</ele>
        <time>2021-07-17T04:12:59.000Z</time>
      </trkpt>
      <trkpt lat="45.20399" lon="5.72426">
        <ele>652.20001220703</ele>
        <time>2021-07-17T04:13:02.000Z</time>
      </trkpt>
      <trkpt lat="45.20399" lon="5.72421">
        <ele>652.20001220703</ele>
        <time>2021-07-17T04:13:04.000Z</time>
      </trkpt>
      <trkpt lat="45.20398" lon="5.72421">
        <ele>652.40002441406</ele>
        <time>2021-07-17T04:13:05.000Z</time>
      </trkpt>
      <trkpt lat="45.20397" lon="5.72422">
        <ele>652</ele>
        <time>2021-07-17T04:13:07.000Z</time>
      </trkpt>
      <trkpt lat="45.20395" lon="5.72424">
        <ele>651.59997558594</ele>
        <time>2021-07-17T04:13:09.000Z</time>
      </trkpt>
      <trkpt lat="45.20392" lon="5.72425">
        <ele>650.79998779297</ele>
        <time>2021-07-17T04:13:12.000Z</time>
      </trkpt>
      <trkpt lat="45.20389" lon="5.72425">
        <ele>650.59997558594</ele>
        <time>2021-07-17T04:13:14.000Z</time>
      </trkpt>
      <trkpt lat="45.20389" lon="5.72429">
        <ele>650.40002441406</ele>
        <time>2021-07-17T04:13:16.000Z</time>
      </trkpt>
      <trkpt lat="45.20388" lon="5.72431">
        <ele>649.79998779297</ele>
        <time>2021-07-17T04:13:17.000Z</time>
      </trkpt>
      <trkpt lat="45.20385" lon="5.7244">
        <ele>650</ele>
        <time>2021-07-17T04:13:21.000Z</time>
      </trkpt>
      <trkpt lat="45.20384" lon="5.72441">
        <ele>649.79998779297</ele>
        <time>2021-07-17T04:13:22.000Z</time>
      </trkpt>
      <trkpt lat="45.20382" lon="5.72441">
        <ele>649.79998779297</ele>
        <time>2021-07-17T04:13:23.000Z</time>
      </trkpt>
      <trkpt lat="45.2038" lon="5.7244">
        <ele>649.79998779297</ele>
        <time>2021-07-17T04:13:24.000Z</time>
      </trkpt>
      <trkpt lat="45.20377" lon="5.72437">
        <ele>649.59997558594</ele>
        <time>2021-07-17T04:13:26.000Z</time>
      </trkpt>
      <trkpt lat="45.20375" lon="5.72434">
        <ele>648.59997558594</ele>
        <time>2021-07-17T04:13:30.000Z</time>
      </trkpt>
      <trkpt lat="45.20374" lon="5.72433">
        <ele>648</ele>
        <time>2021-07-17T04:13:31.000Z</time>
      </trkpt>
      <trkpt lat="45.20373" lon="5.72433">
        <ele>647.79998779297</ele>
        <time>2021-07-17T04:13:33.000Z</time>
      </trkpt>
      <trkpt lat="45.20372" lon="5.72432">
        <ele>647.40002441406</ele>
        <time>2021-07-17T04:13:34.000Z</time>
      </trkpt>
      <trkpt lat="45.20369" lon="5.7243">
        <ele>646.79998779297</ele>
        <time>2021-07-17T04:13:37.000Z</time>
      </trkpt>
      <trkpt lat="45.20369" lon="5.72424">
        <ele>646.20001220703</ele>
        <time>2021-07-17T04:13:40.000Z</time>
      </trkpt>
      <trkpt lat="45.20369" lon="5.72421">
        <ele>646.20001220703</ele>
        <time>2021-07-17T04:13:41.000Z</time>
      </trkpt>
      <trkpt lat="45.20372" lon="5.72408">
        <ele>646.20001220703</ele>
        <time>2021-07-17T04:13:45.000Z</time>
      </trkpt>
      <trkpt lat="45.20376" lon="5.72403">
        <ele>646.20001220703</ele>
        <time>2021-07-17T04:13:47.000Z</time>
      </trkpt>
      <trkpt lat="45.20389" lon="5.7239">
        <ele>646.20001220703</ele>
        <time>2021-07-17T04:13:53.000Z</time>
      </trkpt>
      <trkpt lat="45.20405" lon="5.72387">
        <ele>646.59997558594</ele>
        <time>2021-07-17T04:14:00.000Z</time>
      </trkpt>
      <trkpt lat="45.20427" lon="5.72392">
        <ele>646.59997558594</ele>
        <time>2021-07-17T04:14:08.000Z</time>
      </trkpt>
      <trkpt lat="45.2043" lon="5.72393">
        <ele>646.59997558594</ele>
        <time>2021-07-17T04:14:09.000Z</time>
      </trkpt>
      <trkpt lat="45.20448" lon="5.72391">
        <ele>646.79998779297</ele>
        <time>2021-07-17T04:14:16.000Z</time>
      </trkpt>
      <trkpt lat="45.20463" lon="5.72392">
        <ele>647.20001220703</ele>
        <time>2021-07-17T04:14:22.000Z</time>
      </trkpt>
      <trkpt lat="45.20473" lon="5.72393">
        <ele>647.40002441406</ele>
        <time>2021-07-17T04:14:26.000Z</time>
      </trkpt>
      <trkpt lat="45.2048" lon="5.72394">
        <ele>647</ele>
        <time>2021-07-17T04:14:29.000Z</time>
      </trkpt>
      <trkpt lat="45.20488" lon="5.72394">
        <ele>647</ele>
        <time>2021-07-17T04:14:32.000Z</time>
      </trkpt>
      <trkpt lat="45.20507" lon="5.72397">
        <ele>647.20001220703</ele>
        <time>2021-07-17T04:14:40.000Z</time>
      </trkpt>
      <trkpt lat="45.20512" lon="5.72398">
        <ele>647.20001220703</ele>
        <time>2021-07-17T04:14:42.000Z</time>
      </trkpt>
      <trkpt lat="45.20528" lon="5.72399">
        <ele>647.79998779297</ele>
        <time>2021-07-17T04:14:49.000Z</time>
      </trkpt>
      <trkpt lat="45.20533" lon="5.72399">
        <ele>647.40002441406</ele>
        <time>2021-07-17T04:14:51.000Z</time>
      </trkpt>
      <trkpt lat="45.20551" lon="5.724">
        <ele>647.40002441406</ele>
        <time>2021-07-17T04:15:00.000Z</time>
      </trkpt>
      <trkpt lat="45.20561" lon="5.72404">
        <ele>647.40002441406</ele>
        <time>2021-07-17T04:15:05.000Z</time>
      </trkpt>
      <trkpt lat="45.20564" lon="5.72405">
        <ele>647.40002441406</ele>
        <time>2021-07-17T04:15:06.000Z</time>
      </trkpt>
      <trkpt lat="45.20581" lon="5.72409">
        <ele>647.59997558594</ele>
        <time>2021-07-17T04:15:14.000Z</time>
      </trkpt>
      <trkpt lat="45.20601" lon="5.72406">
        <ele>648.40002441406</ele>
        <time>2021-07-17T04:15:22.000Z</time>
      </trkpt>
      <trkpt lat="45.20604" lon="5.72405">
        <ele>648.40002441406</ele>
        <time>2021-07-17T04:15:23.000Z</time>
      </trkpt>
      <trkpt lat="45.20618" lon="5.72401">
        <ele>648.59997558594</ele>
        <time>2021-07-17T04:15:28.000Z</time>
      </trkpt>
      <trkpt lat="45.2062" lon="5.724">
        <ele>648.59997558594</ele>
        <time>2021-07-17T04:15:29.000Z</time>
      </trkpt>
      <trkpt lat="45.20633" lon="5.72398">
        <ele>648.59997558594</ele>
        <time>2021-07-17T04:15:33.000Z</time>
      </trkpt>
      <trkpt lat="45.20648" lon="5.72395">
        <ele>648.59997558594</ele>
        <time>2021-07-17T04:15:39.000Z</time>
      </trkpt>
      <trkpt lat="45.20651" lon="5.72394">
        <ele>648.79998779297</ele>
        <time>2021-07-17T04:15:40.000Z</time>
      </trkpt>
      <trkpt lat="45.20664" lon="5.72396">
        <ele>649</ele>
        <time>2021-07-17T04:15:45.000Z</time>
      </trkpt>
      <trkpt lat="45.20684" lon="5.72399">
        <ele>649</ele>
        <time>2021-07-17T04:15:52.000Z</time>
      </trkpt>
      <trkpt lat="45.20688" lon="5.724">
        <ele>649</ele>
        <time>2021-07-17T04:15:54.000Z</time>
      </trkpt>
      <trkpt lat="45.207" lon="5.72402">
        <ele>649</ele>
        <time>2021-07-17T04:15:59.000Z</time>
      </trkpt>
      <trkpt lat="45.20705" lon="5.72403">
        <ele>649</ele>
        <time>2021-07-17T04:16:01.000Z</time>
      </trkpt>
      <trkpt lat="45.20723" lon="5.72409">
        <ele>649.59997558594</ele>
        <time>2021-07-17T04:16:08.000Z</time>
      </trkpt>
      <trkpt lat="45.20726" lon="5.72409">
        <ele>649.40002441406</ele>
        <time>2021-07-17T04:16:09.000Z</time>
      </trkpt>
      <trkpt lat="45.20739" lon="5.72412">
        <ele>649.40002441406</ele>
        <time>2021-07-17T04:16:14.000Z</time>
      </trkpt>
      <trkpt lat="45.20753" lon="5.72414">
        <ele>649.20001220703</ele>
        <time>2021-07-17T04:16:20.000Z</time>
      </trkpt>
      <trkpt lat="45.20766" lon="5.72419">
        <ele>649</ele>
        <time>2021-07-17T04:16:25.000Z</time>
      </trkpt>
      <trkpt lat="45.20769" lon="5.7242">
        <ele>649.20001220703</ele>
        <time>2021-07-17T04:16:26.000Z</time>
      </trkpt>
      <trkpt lat="45.20782" lon="5.72424">
        <ele>649.20001220703</ele>
        <time>2021-07-17T04:16:31.000Z</time>
      </trkpt>
      <trkpt lat="45.20796" lon="5.72427">
        <ele>649.20001220703</ele>
        <time>2021-07-17T04:16:36.000Z</time>
      </trkpt>
      <trkpt lat="45.2081" lon="5.72433">
        <ele>650</ele>
        <time>2021-07-17T04:16:42.000Z</time>
      </trkpt>
      <trkpt lat="45.20823" lon="5.72438">
        <ele>650.40002441406</ele>
        <time>2021-07-17T04:16:47.000Z</time>
      </trkpt>
      <trkpt lat="45.20828" lon="5.72439">
        <ele>650.20001220703</ele>
        <time>2021-07-17T04:16:49.000Z</time>
      </trkpt>
      <trkpt lat="45.20831" lon="5.7244">
        <ele>650.20001220703</ele>
        <time>2021-07-17T04:16:50.000Z</time>
      </trkpt>
      <trkpt lat="45.2084" lon="5.72444">
        <ele>650.20001220703</ele>
        <time>2021-07-17T04:16:53.000Z</time>
      </trkpt>
      <trkpt lat="45.20856" lon="5.7245">
        <ele>650.40002441406</ele>
        <time>2021-07-17T04:16:59.000Z</time>
      </trkpt>
      <trkpt lat="45.20874" lon="5.72456">
        <ele>650.59997558594</ele>
        <time>2021-07-17T04:17:06.000Z</time>
      </trkpt>
      <trkpt lat="45.20876" lon="5.72457">
        <ele>650.59997558594</ele>
        <time>2021-07-17T04:17:07.000Z</time>
      </trkpt>
      <trkpt lat="45.20883" lon="5.72459">
        <ele>650.59997558594</ele>
        <time>2021-07-17T04:17:10.000Z</time>
      </trkpt>
      <trkpt lat="45.20897" lon="5.72463">
        <ele>650.59997558594</ele>
        <time>2021-07-17T04:17:15.000Z</time>
      </trkpt>
      <trkpt lat="45.2091" lon="5.72468">
        <ele>650.79998779297</ele>
        <time>2021-07-17T04:17:20.000Z</time>
      </trkpt>
      <trkpt lat="45.20917" lon="5.72472">
        <ele>650.79998779297</ele>
        <time>2021-07-17T04:17:23.000Z</time>
      </trkpt>
      <trkpt lat="45.20925" lon="5.72476">
        <ele>650.79998779297</ele>
        <time>2021-07-17T04:17:26.000Z</time>
      </trkpt>
      <trkpt lat="45.20931" lon="5.72479">
        <ele>650.79998779297</ele>
        <time>2021-07-17T04:17:29.000Z</time>
      </trkpt>
      <trkpt lat="45.20944" lon="5.72479">
        <ele>650.79998779297</ele>
        <time>2021-07-17T04:17:35.000Z</time>
      </trkpt>
      <trkpt lat="45.20954" lon="5.72479">
        <ele>650.79998779297</ele>
        <time>2021-07-17T04:17:40.000Z</time>
      </trkpt>
      <trkpt lat="45.20961" lon="5.7248">
        <ele>651</ele>
        <time>2021-07-17T04:17:43.000Z</time>
      </trkpt>
      <trkpt lat="45.20966" lon="5.72479">
        <ele>651</ele>
        <time>2021-07-17T04:17:45.000Z</time>
      </trkpt>
      <trkpt lat="45.20971" lon="5.72477">
        <ele>651.59997558594</ele>
        <time>2021-07-17T04:17:47.000Z</time>
      </trkpt>
      <trkpt lat="45.20976" lon="5.72478">
        <ele>651.40002441406</ele>
        <time>2021-07-17T04:17:49.000Z</time>
      </trkpt>
      <trkpt lat="45.20981" lon="5.7248">
        <ele>651.40002441406</ele>
        <time>2021-07-17T04:17:51.000Z</time>
      </trkpt>
      <trkpt lat="45.21" lon="5.72484">
        <ele>651.59997558594</ele>
        <time>2021-07-17T04:17:58.000Z</time>
      </trkpt>
      <trkpt lat="45.21008" lon="5.72483">
        <ele>651.59997558594</ele>
        <time>2021-07-17T04:18:01.000Z</time>
      </trkpt>
      <trkpt lat="45.21015" lon="5.72481">
        <ele>650.79998779297</ele>
        <time>2021-07-17T04:18:04.000Z</time>
      </trkpt>
      <trkpt lat="45.2102" lon="5.72482">
        <ele>650.40002441406</ele>
        <time>2021-07-17T04:18:07.000Z</time>
      </trkpt>
      <trkpt lat="45.21024" lon="5.72482">
        <ele>649.79998779297</ele>
        <time>2021-07-17T04:18:09.000Z</time>
      </trkpt>
      <trkpt lat="45.21025" lon="5.72482">
        <ele>649.20001220703</ele>
        <time>2021-07-17T04:18:10.000Z</time>
      </trkpt>
      <trkpt lat="45.21029" lon="5.72483">
        <ele>648.40002441406</ele>
        <time>2021-07-17T04:18:12.000Z</time>
      </trkpt>
      <trkpt lat="45.2103" lon="5.72483">
        <ele>647.79998779297</ele>
        <time>2021-07-17T04:18:13.000Z</time>
      </trkpt>
      <trkpt lat="45.21033" lon="5.72483">
        <ele>647.40002441406</ele>
        <time>2021-07-17T04:18:15.000Z</time>
      </trkpt>
      <trkpt lat="45.21035" lon="5.72483">
        <ele>646.59997558594</ele>
        <time>2021-07-17T04:18:16.000Z</time>
      </trkpt>
      <trkpt lat="45.21043" lon="5.72479">
        <ele>645.20001220703</ele>
        <time>2021-07-17T04:18:21.000Z</time>
      </trkpt>
      <trkpt lat="45.21049" lon="5.72478">
        <ele>643.79998779297</ele>
        <time>2021-07-17T04:18:24.000Z</time>
      </trkpt>
      <trkpt lat="45.21054" lon="5.72475">
        <ele>642.40002441406</ele>
        <time>2021-07-17T04:18:27.000Z</time>
      </trkpt>
      <trkpt lat="45.21056" lon="5.72475">
        <ele>642.20001220703</ele>
        <time>2021-07-17T04:18:28.000Z</time>
      </trkpt>
      <trkpt lat="45.21061" lon="5.72474">
        <ele>641.79998779297</ele>
        <time>2021-07-17T04:18:31.000Z</time>
      </trkpt>
      <trkpt lat="45.21062" lon="5.72473">
        <ele>640.79998779297</ele>
        <time>2021-07-17T04:18:32.000Z</time>
      </trkpt>
      <trkpt lat="45.21065" lon="5.72471">
        <ele>640.59997558594</ele>
        <time>2021-07-17T04:18:34.000Z</time>
      </trkpt>
      <trkpt lat="45.21066" lon="5.72471">
        <ele>640.40002441406</ele>
        <time>2021-07-17T04:18:35.000Z</time>
      </trkpt>
      <trkpt lat="45.21068" lon="5.72468">
        <ele>639.79998779297</ele>
        <time>2021-07-17T04:18:37.000Z</time>
      </trkpt>
      <trkpt lat="45.2107" lon="5.72468">
        <ele>639.20001220703</ele>
        <time>2021-07-17T04:18:38.000Z</time>
      </trkpt>
      <trkpt lat="45.21071" lon="5.72468">
        <ele>638.40002441406</ele>
        <time>2021-07-17T04:18:39.000Z</time>
      </trkpt>
      <trkpt lat="45.21076" lon="5.72466">
        <ele>637.59997558594</ele>
        <time>2021-07-17T04:18:42.000Z</time>
      </trkpt>
      <trkpt lat="45.21077" lon="5.72466">
        <ele>637.40002441406</ele>
        <time>2021-07-17T04:18:43.000Z</time>
      </trkpt>
      <trkpt lat="45.21078" lon="5.72466">
        <ele>637.40002441406</ele>
        <time>2021-07-17T04:18:44.000Z</time>
      </trkpt>
      <trkpt lat="45.2108" lon="5.72465">
        <ele>637.20001220703</ele>
        <time>2021-07-17T04:18:45.000Z</time>
      </trkpt>
      <trkpt lat="45.21082" lon="5.72465">
        <ele>635.79998779297</ele>
        <time>2021-07-17T04:18:46.000Z</time>
      </trkpt>
      <trkpt lat="45.21087" lon="5.72462">
        <ele>635.20001220703</ele>
        <time>2021-07-17T04:18:49.000Z</time>
      </trkpt>
      <trkpt lat="45.2109" lon="5.7246">
        <ele>634.79998779297</ele>
        <time>2021-07-17T04:18:51.000Z</time>
      </trkpt>
      <trkpt lat="45.21092" lon="5.7246">
        <ele>634.40002441406</ele>
        <time>2021-07-17T04:18:52.000Z</time>
      </trkpt>
      <trkpt lat="45.21093" lon="5.72458">
        <ele>633.20001220703</ele>
        <time>2021-07-17T04:18:53.000Z</time>
      </trkpt>
      <trkpt lat="45.21098" lon="5.72457">
        <ele>632.40002441406</ele>
        <time>2021-07-17T04:18:56.000Z</time>
      </trkpt>
      <trkpt lat="45.211" lon="5.72456">
        <ele>632</ele>
        <time>2021-07-17T04:18:57.000Z</time>
      </trkpt>
      <trkpt lat="45.21105" lon="5.72455">
        <ele>631</ele>
        <time>2021-07-17T04:19:00.000Z</time>
      </trkpt>
      <trkpt lat="45.21106" lon="5.72454">
        <ele>630.40002441406</ele>
        <time>2021-07-17T04:19:01.000Z</time>
      </trkpt>
      <trkpt lat="45.21111" lon="5.72449">
        <ele>629.40002441406</ele>
        <time>2021-07-17T04:19:04.000Z</time>
      </trkpt>
      <trkpt lat="45.21113" lon="5.72448">
        <ele>629.20001220703</ele>
        <time>2021-07-17T04:19:05.000Z</time>
      </trkpt>
      <trkpt lat="45.21117" lon="5.72447">
        <ele>628.20001220703</ele>
        <time>2021-07-17T04:19:07.000Z</time>
      </trkpt>
      <trkpt lat="45.21119" lon="5.72446">
        <ele>628</ele>
        <time>2021-07-17T04:19:08.000Z</time>
      </trkpt>
      <trkpt lat="45.21123" lon="5.72446">
        <ele>627</ele>
        <time>2021-07-17T04:19:10.000Z</time>
      </trkpt>
      <trkpt lat="45.21126" lon="5.72446">
        <ele>627</ele>
        <time>2021-07-17T04:19:11.000Z</time>
      </trkpt>
      <trkpt lat="45.21133" lon="5.72445">
        <ele>626</ele>
        <time>2021-07-17T04:19:14.000Z</time>
      </trkpt>
      <trkpt lat="45.21139" lon="5.72442">
        <ele>625.79998779297</ele>
        <time>2021-07-17T04:19:17.000Z</time>
      </trkpt>
      <trkpt lat="45.21143" lon="5.72441">
        <ele>624.59997558594</ele>
        <time>2021-07-17T04:19:19.000Z</time>
      </trkpt>
      <trkpt lat="45.2115" lon="5.72442">
        <ele>623.59997558594</ele>
        <time>2021-07-17T04:19:22.000Z</time>
      </trkpt>
      <trkpt lat="45.21154" lon="5.72441">
        <ele>623</ele>
        <time>2021-07-17T04:19:24.000Z</time>
      </trkpt>
      <trkpt lat="45.21157" lon="5.72437">
        <ele>623</ele>
        <time>2021-07-17T04:19:25.000Z</time>
      </trkpt>
      <trkpt lat="45.2116" lon="5.72432">
        <ele>622.40002441406</ele>
        <time>2021-07-17T04:19:27.000Z</time>
      </trkpt>
      <trkpt lat="45.21162" lon="5.72431">
        <ele>622.40002441406</ele>
        <time>2021-07-17T04:19:28.000Z</time>
      </trkpt>
      <trkpt lat="45.21171" lon="5.72422">
        <ele>621.40002441406</ele>
        <time>2021-07-17T04:19:33.000Z</time>
      </trkpt>
      <trkpt lat="45.21173" lon="5.7242">
        <ele>621.40002441406</ele>
        <time>2021-07-17T04:19:34.000Z</time>
      </trkpt>
      <trkpt lat="45.2118" lon="5.72416">
        <ele>620.40002441406</ele>
        <time>2021-07-17T04:19:38.000Z</time>
      </trkpt>
      <trkpt lat="45.21182" lon="5.72411">
        <ele>620.20001220703</ele>
        <time>2021-07-17T04:19:40.000Z</time>
      </trkpt>
      <trkpt lat="45.21184" lon="5.72408">
        <ele>620.20001220703</ele>
        <time>2021-07-17T04:19:41.000Z</time>
      </trkpt>
      <trkpt lat="45.21188" lon="5.72388">
        <ele>619.79998779297</ele>
        <time>2021-07-17T04:19:47.000Z</time>
      </trkpt>
      <trkpt lat="45.2119" lon="5.72371">
        <ele>619.59997558594</ele>
        <time>2021-07-17T04:19:52.000Z</time>
      </trkpt>
      <trkpt lat="45.2119" lon="5.72364">
        <ele>619.59997558594</ele>
        <time>2021-07-17T04:19:54.000Z</time>
      </trkpt>
      <trkpt lat="45.2119" lon="5.72351">
        <ele>619</ele>
        <time>2021-07-17T04:19:58.000Z</time>
      </trkpt>
      <trkpt lat="45.21188" lon="5.72345">
        <ele>618.79998779297</ele>
        <time>2021-07-17T04:20:00.000Z</time>
      </trkpt>
      <trkpt lat="45.21187" lon="5.72334">
        <ele>618.40002441406</ele>
        <time>2021-07-17T04:20:04.000Z</time>
      </trkpt>
      <trkpt lat="45.21186" lon="5.72332">
        <ele>618.40002441406</ele>
        <time>2021-07-17T04:20:05.000Z</time>
      </trkpt>
      <trkpt lat="45.21186" lon="5.72329">
        <ele>618.79998779297</ele>
        <time>2021-07-17T04:20:06.000Z</time>
      </trkpt>
      <trkpt lat="45.21189" lon="5.72324">
        <ele>618.59997558594</ele>
        <time>2021-07-17T04:20:08.000Z</time>
      </trkpt>
      <trkpt lat="45.21192" lon="5.72322">
        <ele>618.59997558594</ele>
        <time>2021-07-17T04:20:09.000Z</time>
      </trkpt>
      <trkpt lat="45.21201" lon="5.72324">
        <ele>617.79998779297</ele>
        <time>2021-07-17T04:20:13.000Z</time>
      </trkpt>
      <trkpt lat="45.21203" lon="5.72324">
        <ele>617.79998779297</ele>
        <time>2021-07-17T04:20:14.000Z</time>
      </trkpt>
      <trkpt lat="45.21206" lon="5.72324">
        <ele>617</ele>
        <time>2021-07-17T04:20:15.000Z</time>
      </trkpt>
      <trkpt lat="45.21209" lon="5.72322">
        <ele>616.59997558594</ele>
        <time>2021-07-17T04:20:16.000Z</time>
      </trkpt>
      <trkpt lat="45.21217" lon="5.7232">
        <ele>616.20001220703</ele>
        <time>2021-07-17T04:20:19.000Z</time>
      </trkpt>
      <trkpt lat="45.21231" lon="5.72321">
        <ele>615.40002441406</ele>
        <time>2021-07-17T04:20:25.000Z</time>
      </trkpt>
      <trkpt lat="45.21238" lon="5.7232">
        <ele>614.40002441406</ele>
        <time>2021-07-17T04:20:28.000Z</time>
      </trkpt>
      <trkpt lat="45.21248" lon="5.72319">
        <ele>613.79998779297</ele>
        <time>2021-07-17T04:20:32.000Z</time>
      </trkpt>
      <trkpt lat="45.21253" lon="5.72319">
        <ele>613.20001220703</ele>
        <time>2021-07-17T04:20:34.000Z</time>
      </trkpt>
      <trkpt lat="45.21263" lon="5.72318">
        <ele>612.20001220703</ele>
        <time>2021-07-17T04:20:39.000Z</time>
      </trkpt>
      <trkpt lat="45.21273" lon="5.72321">
        <ele>611</ele>
        <time>2021-07-17T04:20:44.000Z</time>
      </trkpt>
      <trkpt lat="45.21275" lon="5.72321">
        <ele>610.40002441406</ele>
        <time>2021-07-17T04:20:45.000Z</time>
      </trkpt>
      <trkpt lat="45.21277" lon="5.72321">
        <ele>609.79998779297</ele>
        <time>2021-07-17T04:20:46.000Z</time>
      </trkpt>
      <trkpt lat="45.21281" lon="5.72322">
        <ele>609.59997558594</ele>
        <time>2021-07-17T04:20:48.000Z</time>
      </trkpt>
      <trkpt lat="45.21282" lon="5.72322">
        <ele>609.20001220703</ele>
        <time>2021-07-17T04:20:49.000Z</time>
      </trkpt>
      <trkpt lat="45.21284" lon="5.72322">
        <ele>608.79998779297</ele>
        <time>2021-07-17T04:20:50.000Z</time>
      </trkpt>
      <trkpt lat="45.21286" lon="5.72321">
        <ele>608</ele>
        <time>2021-07-17T04:20:51.000Z</time>
      </trkpt>
      <trkpt lat="45.21288" lon="5.72322">
        <ele>607.20001220703</ele>
        <time>2021-07-17T04:20:52.000Z</time>
      </trkpt>
      <trkpt lat="45.21293" lon="5.72324">
        <ele>606.79998779297</ele>
        <time>2021-07-17T04:20:55.000Z</time>
      </trkpt>
      <trkpt lat="45.21295" lon="5.72324">
        <ele>606.20001220703</ele>
        <time>2021-07-17T04:20:56.000Z</time>
      </trkpt>
      <trkpt lat="45.213" lon="5.72322">
        <ele>605</ele>
        <time>2021-07-17T04:20:59.000Z</time>
      </trkpt>
      <trkpt lat="45.21305" lon="5.72321">
        <ele>604.40002441406</ele>
        <time>2021-07-17T04:21:01.000Z</time>
      </trkpt>
      <trkpt lat="45.21307" lon="5.72322">
        <ele>603.79998779297</ele>
        <time>2021-07-17T04:21:02.000Z</time>
      </trkpt>
      <trkpt lat="45.21311" lon="5.72323">
        <ele>603</ele>
        <time>2021-07-17T04:21:04.000Z</time>
      </trkpt>
      <trkpt lat="45.21316" lon="5.72325">
        <ele>602.79998779297</ele>
        <time>2021-07-17T04:21:07.000Z</time>
      </trkpt>
      <trkpt lat="45.21318" lon="5.72328">
        <ele>601.20001220703</ele>
        <time>2021-07-17T04:21:08.000Z</time>
      </trkpt>
      <trkpt lat="45.21324" lon="5.7233">
        <ele>601</ele>
        <time>2021-07-17T04:21:11.000Z</time>
      </trkpt>
      <trkpt lat="45.21327" lon="5.72332">
        <ele>600.40002441406</ele>
        <time>2021-07-17T04:21:13.000Z</time>
      </trkpt>
      <trkpt lat="45.21329" lon="5.72332">
        <ele>599.40002441406</ele>
        <time>2021-07-17T04:21:14.000Z</time>
      </trkpt>
      <trkpt lat="45.21332" lon="5.7233">
        <ele>598.59997558594</ele>
        <time>2021-07-17T04:21:16.000Z</time>
      </trkpt>
      <trkpt lat="45.21333" lon="5.7233">
        <ele>598.40002441406</ele>
        <time>2021-07-17T04:21:17.000Z</time>
      </trkpt>
      <trkpt lat="45.21336" lon="5.72328">
        <ele>598</ele>
        <time>2021-07-17T04:21:19.000Z</time>
      </trkpt>
      <trkpt lat="45.21338" lon="5.72326">
        <ele>597.20001220703</ele>
        <time>2021-07-17T04:21:21.000Z</time>
      </trkpt>
      <trkpt lat="45.2134" lon="5.72326">
        <ele>596.59997558594</ele>
        <time>2021-07-17T04:21:22.000Z</time>
      </trkpt>
      <trkpt lat="45.21342" lon="5.72326">
        <ele>596.59997558594</ele>
        <time>2021-07-17T04:21:23.000Z</time>
      </trkpt>
      <trkpt lat="45.21343" lon="5.72326">
        <ele>595.59997558594</ele>
        <time>2021-07-17T04:21:24.000Z</time>
      </trkpt>
      <trkpt lat="45.21344" lon="5.72326">
        <ele>595</ele>
        <time>2021-07-17T04:21:25.000Z</time>
      </trkpt>
      <trkpt lat="45.21347" lon="5.72325">
        <ele>593.79998779297</ele>
        <time>2021-07-17T04:21:27.000Z</time>
      </trkpt>
      <trkpt lat="45.21348" lon="5.72324">
        <ele>593.59997558594</ele>
        <time>2021-07-17T04:21:28.000Z</time>
      </trkpt>
      <trkpt lat="45.21349" lon="5.72322">
        <ele>593.20001220703</ele>
        <time>2021-07-17T04:21:29.000Z</time>
      </trkpt>
      <trkpt lat="45.21351" lon="5.72322">
        <ele>592.59997558594</ele>
        <time>2021-07-17T04:21:31.000Z</time>
      </trkpt>
      <trkpt lat="45.21354" lon="5.72321">
        <ele>592</ele>
        <time>2021-07-17T04:21:34.000Z</time>
      </trkpt>
      <trkpt lat="45.21355" lon="5.7232">
        <ele>590.79998779297</ele>
        <time>2021-07-17T04:21:35.000Z</time>
      </trkpt>
      <trkpt lat="45.21356" lon="5.72319">
        <ele>590.59997558594</ele>
        <time>2021-07-17T04:21:36.000Z</time>
      </trkpt>
      <trkpt lat="45.21359" lon="5.72316">
        <ele>590</ele>
        <time>2021-07-17T04:21:39.000Z</time>
      </trkpt>
      <trkpt lat="45.2136" lon="5.72316">
        <ele>589.59997558594</ele>
        <time>2021-07-17T04:21:40.000Z</time>
      </trkpt>
      <trkpt lat="45.21362" lon="5.72314">
        <ele>588.40002441406</ele>
        <time>2021-07-17T04:21:42.000Z</time>
      </trkpt>
      <trkpt lat="45.21364" lon="5.72313">
        <ele>587.59997558594</ele>
        <time>2021-07-17T04:21:44.000Z</time>
      </trkpt>
      <trkpt lat="45.21365" lon="5.72313">
        <ele>587.40002441406</ele>
        <time>2021-07-17T04:21:45.000Z</time>
      </trkpt>
      <trkpt lat="45.21366" lon="5.72313">
        <ele>587.20001220703</ele>
        <time>2021-07-17T04:21:46.000Z</time>
      </trkpt>
      <trkpt lat="45.21369" lon="5.72314">
        <ele>585.79998779297</ele>
        <time>2021-07-17T04:21:49.000Z</time>
      </trkpt>
      <trkpt lat="45.21373" lon="5.72312">
        <ele>585</ele>
        <time>2021-07-17T04:21:52.000Z</time>
      </trkpt>
      <trkpt lat="45.21374" lon="5.72311">
        <ele>584.79998779297</ele>
        <time>2021-07-17T04:21:53.000Z</time>
      </trkpt>
      <trkpt lat="45.21377" lon="5.72309">
        <ele>583.59997558594</ele>
        <time>2021-07-17T04:21:56.000Z</time>
      </trkpt>
      <trkpt lat="45.21378" lon="5.72308">
        <ele>583.40002441406</ele>
        <time>2021-07-17T04:21:57.000Z</time>
      </trkpt>
      <trkpt lat="45.21379" lon="5.72306">
        <ele>582.79998779297</ele>
        <time>2021-07-17T04:21:59.000Z</time>
      </trkpt>
      <trkpt lat="45.21381" lon="5.72305">
        <ele>582</ele>
        <time>2021-07-17T04:22:00.000Z</time>
      </trkpt>
      <trkpt lat="45.21382" lon="5.72304">
        <ele>582</ele>
        <time>2021-07-17T04:22:01.000Z</time>
      </trkpt>
      <trkpt lat="45.21386" lon="5.72302">
        <ele>580.59997558594</ele>
        <time>2021-07-17T04:22:04.000Z</time>
      </trkpt>
      <trkpt lat="45.21389" lon="5.723">
        <ele>580</ele>
        <time>2021-07-17T04:22:07.000Z</time>
      </trkpt>
      <trkpt lat="45.2139" lon="5.72299">
        <ele>579.59997558594</ele>
        <time>2021-07-17T04:22:08.000Z</time>
      </trkpt>
      <trkpt lat="45.21391" lon="5.72298">
        <ele>579.40002441406</ele>
        <time>2021-07-17T04:22:09.000Z</time>
      </trkpt>
      <trkpt lat="45.21396" lon="5.72296">
        <ele>577.59997558594</ele>
        <time>2021-07-17T04:22:12.000Z</time>
      </trkpt>
      <trkpt lat="45.21397" lon="5.72295">
        <ele>577.40002441406</ele>
        <time>2021-07-17T04:22:13.000Z</time>
      </trkpt>
      <trkpt lat="45.214" lon="5.72294">
        <ele>576.79998779297</ele>
        <time>2021-07-17T04:22:16.000Z</time>
      </trkpt>
      <trkpt lat="45.21402" lon="5.72294">
        <ele>575.40002441406</ele>
        <time>2021-07-17T04:22:17.000Z</time>
      </trkpt>
      <trkpt lat="45.21403" lon="5.72295">
        <ele>575.40002441406</ele>
        <time>2021-07-17T04:22:18.000Z</time>
      </trkpt>
      <trkpt lat="45.21406" lon="5.72296">
        <ele>574.79998779297</ele>
        <time>2021-07-17T04:22:20.000Z</time>
      </trkpt>
      <trkpt lat="45.21408" lon="5.72295">
        <ele>574.40002441406</ele>
        <time>2021-07-17T04:22:22.000Z</time>
      </trkpt>
      <trkpt lat="45.21411" lon="5.72294">
        <ele>573.59997558594</ele>
        <time>2021-07-17T04:22:24.000Z</time>
      </trkpt>
      <trkpt lat="45.21413" lon="5.72292">
        <ele>573</ele>
        <time>2021-07-17T04:22:26.000Z</time>
      </trkpt>
      <trkpt lat="45.21414" lon="5.72292">
        <ele>572.40002441406</ele>
        <time>2021-07-17T04:22:27.000Z</time>
      </trkpt>
      <trkpt lat="45.21415" lon="5.72291">
        <ele>571.79998779297</ele>
        <time>2021-07-17T04:22:28.000Z</time>
      </trkpt>
      <trkpt lat="45.21418" lon="5.72291">
        <ele>571.40002441406</ele>
        <time>2021-07-17T04:22:29.000Z</time>
      </trkpt>
      <trkpt lat="45.21421" lon="5.72292">
        <ele>571.20001220703</ele>
        <time>2021-07-17T04:22:31.000Z</time>
      </trkpt>
      <trkpt lat="45.21423" lon="5.72291">
        <ele>570</ele>
        <time>2021-07-17T04:22:32.000Z</time>
      </trkpt>
      <trkpt lat="45.21424" lon="5.72291">
        <ele>569.79998779297</ele>
        <time>2021-07-17T04:22:33.000Z</time>
      </trkpt>
      <trkpt lat="45.21426" lon="5.7229">
        <ele>569.40002441406</ele>
        <time>2021-07-17T04:22:35.000Z</time>
      </trkpt>
      <trkpt lat="45.21428" lon="5.7229">
        <ele>568.59997558594</ele>
        <time>2021-07-17T04:22:37.000Z</time>
      </trkpt>
      <trkpt lat="45.21429" lon="5.72289">
        <ele>568.59997558594</ele>
        <time>2021-07-17T04:22:38.000Z</time>
      </trkpt>
      <trkpt lat="45.21431" lon="5.72289">
        <ele>568.40002441406</ele>
        <time>2021-07-17T04:22:39.000Z</time>
      </trkpt>
      <trkpt lat="45.21434" lon="5.72289">
        <ele>567.59997558594</ele>
        <time>2021-07-17T04:22:42.000Z</time>
      </trkpt>
      <trkpt lat="45.21437" lon="5.72289">
        <ele>566.40002441406</ele>
        <time>2021-07-17T04:22:44.000Z</time>
      </trkpt>
      <trkpt lat="45.21438" lon="5.72289">
        <ele>566.40002441406</ele>
        <time>2021-07-17T04:22:45.000Z</time>
      </trkpt>
      <trkpt lat="45.21441" lon="5.72287">
        <ele>565.40002441406</ele>
        <time>2021-07-17T04:22:48.000Z</time>
      </trkpt>
      <trkpt lat="45.21444" lon="5.72286">
        <ele>564.20001220703</ele>
        <time>2021-07-17T04:22:51.000Z</time>
      </trkpt>
      <trkpt lat="45.21445" lon="5.72285">
        <ele>563.59997558594</ele>
        <time>2021-07-17T04:22:52.000Z</time>
      </trkpt>
      <trkpt lat="45.21446" lon="5.72285">
        <ele>563.20001220703</ele>
        <time>2021-07-17T04:22:53.000Z</time>
      </trkpt>
      <trkpt lat="45.21448" lon="5.72286">
        <ele>563.20001220703</ele>
        <time>2021-07-17T04:22:55.000Z</time>
      </trkpt>
      <trkpt lat="45.21449" lon="5.72284">
        <ele>563</ele>
        <time>2021-07-17T04:22:56.000Z</time>
      </trkpt>
      <trkpt lat="45.2145" lon="5.72283">
        <ele>562.20001220703</ele>
        <time>2021-07-17T04:22:57.000Z</time>
      </trkpt>
      <trkpt lat="45.21453" lon="5.72282">
        <ele>562.20001220703</ele>
        <time>2021-07-17T04:22:59.000Z</time>
      </trkpt>
      <trkpt lat="45.21454" lon="5.72283">
        <ele>561.20001220703</ele>
        <time>2021-07-17T04:23:00.000Z</time>
      </trkpt>
      <trkpt lat="45.21456" lon="5.72283">
        <ele>560.79998779297</ele>
        <time>2021-07-17T04:23:02.000Z</time>
      </trkpt>
      <trkpt lat="45.21457" lon="5.72283">
        <ele>560.20001220703</ele>
        <time>2021-07-17T04:23:03.000Z</time>
      </trkpt>
      <trkpt lat="45.21458" lon="5.72284">
        <ele>559.79998779297</ele>
        <time>2021-07-17T04:23:04.000Z</time>
      </trkpt>
      <trkpt lat="45.21461" lon="5.72284">
        <ele>558.59997558594</ele>
        <time>2021-07-17T04:23:07.000Z</time>
      </trkpt>
      <trkpt lat="45.21464" lon="5.72284">
        <ele>558</ele>
        <time>2021-07-17T04:23:11.000Z</time>
      </trkpt>
      <trkpt lat="45.21466" lon="5.72283">
        <ele>557</ele>
        <time>2021-07-17T04:23:13.000Z</time>
      </trkpt>
      <trkpt lat="45.21467" lon="5.72282">
        <ele>556.40002441406</ele>
        <time>2021-07-17T04:23:14.000Z</time>
      </trkpt>
      <trkpt lat="45.21468" lon="5.72282">
        <ele>555.79998779297</ele>
        <time>2021-07-17T04:23:15.000Z</time>
      </trkpt>
      <trkpt lat="45.2147" lon="5.72282">
        <ele>555.20001220703</ele>
        <time>2021-07-17T04:23:18.000Z</time>
      </trkpt>
      <trkpt lat="45.21475" lon="5.72279">
        <ele>554</ele>
        <time>2021-07-17T04:23:21.000Z</time>
      </trkpt>
      <trkpt lat="45.21479" lon="5.72278">
        <ele>553.20001220703</ele>
        <time>2021-07-17T04:23:24.000Z</time>
      </trkpt>
      <trkpt lat="45.21489" lon="5.7228">
        <ele>554.40002441406</ele>
        <time>2021-07-17T04:23:30.000Z</time>
      </trkpt>
      <trkpt lat="45.21493" lon="5.7228">
        <ele>554.59997558594</ele>
        <time>2021-07-17T04:23:31.000Z</time>
      </trkpt>
      <trkpt lat="45.21497" lon="5.72282">
        <ele>554.59997558594</ele>
        <time>2021-07-17T04:23:33.000Z</time>
      </trkpt>
      <trkpt lat="45.21499" lon="5.72283">
        <ele>555</ele>
        <time>2021-07-17T04:23:34.000Z</time>
      </trkpt>
      <trkpt lat="45.21503" lon="5.72284">
        <ele>555.40002441406</ele>
        <time>2021-07-17T04:23:36.000Z</time>
      </trkpt>
      <trkpt lat="45.21508" lon="5.72285">
        <ele>555.79998779297</ele>
        <time>2021-07-17T04:23:40.000Z</time>
      </trkpt>
      <trkpt lat="45.21507" lon="5.72285">
        <ele>555.79998779297</ele>
        <time>2021-07-17T04:23:41.000Z</time>
      </trkpt>
      <trkpt lat="45.21504" lon="5.72287">
        <ele>555.79998779297</ele>
        <time>2021-07-17T04:23:43.000Z</time>
      </trkpt>
      <trkpt lat="45.21501" lon="5.72289">
        <ele>555.59997558594</ele>
        <time>2021-07-17T04:23:45.000Z</time>
      </trkpt>
      <trkpt lat="45.21499" lon="5.7229">
        <ele>555.59997558594</ele>
        <time>2021-07-17T04:23:46.000Z</time>
      </trkpt>
      <trkpt lat="45.21498" lon="5.7229">
        <ele>555.20001220703</ele>
        <time>2021-07-17T04:23:47.000Z</time>
      </trkpt>
      <trkpt lat="45.21497" lon="5.7229">
        <ele>555.20001220703</ele>
        <time>2021-07-17T04:23:48.000Z</time>
      </trkpt>
      <trkpt lat="45.21493" lon="5.72291">
        <ele>554.79998779297</ele>
        <time>2021-07-17T04:23:50.000Z</time>
      </trkpt>
      <trkpt lat="45.21492" lon="5.72291">
        <ele>554.20001220703</ele>
        <time>2021-07-17T04:23:53.000Z</time>
      </trkpt>
      <trkpt lat="45.21492" lon="5.72291">
        <ele>554.20001220703</ele>
        <time>2021-07-17T04:23:54.000Z</time>
      </trkpt>
      <trkpt lat="45.21491" lon="5.7229">
        <ele>554.20001220703</ele>
        <time>2021-07-17T04:23:57.000Z</time>
      </trkpt>
      <trkpt lat="45.21492" lon="5.72289">
        <ele>554.20001220703</ele>
        <time>2021-07-17T04:23:59.000Z</time>
      </trkpt>
      <trkpt lat="45.21495" lon="5.72287">
        <ele>554.20001220703</ele>
        <time>2021-07-17T04:24:06.000Z</time>
      </trkpt>
      <trkpt lat="45.21498" lon="5.72284">
        <ele>554.20001220703</ele>
        <time>2021-07-17T04:24:11.000Z</time>
      </trkpt>
      <trkpt lat="45.21498" lon="5.72283">
        <ele>554.20001220703</ele>
        <time>2021-07-17T04:24:21.000Z</time>
      </trkpt>
      <trkpt lat="45.21495" lon="5.72281">
        <ele>554</ele>
        <time>2021-07-17T04:24:23.000Z</time>
      </trkpt>
      <trkpt lat="45.21489" lon="5.7228">
        <ele>553.59997558594</ele>
        <time>2021-07-17T04:24:26.000Z</time>
      </trkpt>
      <trkpt lat="45.21487" lon="5.7228">
        <ele>553.40002441406</ele>
        <time>2021-07-17T04:24:27.000Z</time>
      </trkpt>
      <trkpt lat="45.21485" lon="5.72281">
        <ele>553</ele>
        <time>2021-07-17T04:24:29.000Z</time>
      </trkpt>
      <trkpt lat="45.21484" lon="5.72282">
        <ele>553</ele>
        <time>2021-07-17T04:24:31.000Z</time>
      </trkpt>
      <trkpt lat="45.21484" lon="5.72282">
        <ele>553.20001220703</ele>
        <time>2021-07-17T04:24:32.000Z</time>
      </trkpt>
      <trkpt lat="45.21484" lon="5.72284">
        <ele>554.40002441406</ele>
        <time>2021-07-17T04:24:34.000Z</time>
      </trkpt>
      <trkpt lat="45.21481" lon="5.72286">
        <ele>554.79998779297</ele>
        <time>2021-07-17T04:24:36.000Z</time>
      </trkpt>
      <trkpt lat="45.21479" lon="5.72288">
        <ele>555</ele>
        <time>2021-07-17T04:24:37.000Z</time>
      </trkpt>
      <trkpt lat="45.21479" lon="5.72289">
        <ele>555.40002441406</ele>
        <time>2021-07-17T04:24:38.000Z</time>
      </trkpt>
      <trkpt lat="45.21479" lon="5.72289">
        <ele>555.79998779297</ele>
        <time>2021-07-17T04:24:39.000Z</time>
      </trkpt>
      <trkpt lat="45.21479" lon="5.72289">
        <ele>556.40002441406</ele>
        <time>2021-07-17T04:24:40.000Z</time>
      </trkpt>
      <trkpt lat="45.21475" lon="5.72288">
        <ele>556.79998779297</ele>
        <time>2021-07-17T04:24:43.000Z</time>
      </trkpt>
      <trkpt lat="45.21474" lon="5.7229">
        <ele>558.20001220703</ele>
        <time>2021-07-17T04:24:44.000Z</time>
      </trkpt>
      <trkpt lat="45.21471" lon="5.72292">
        <ele>558.59997558594</ele>
        <time>2021-07-17T04:24:47.000Z</time>
      </trkpt>
      <trkpt lat="45.2147" lon="5.72292">
        <ele>558.79998779297</ele>
        <time>2021-07-17T04:24:48.000Z</time>
      </trkpt>
      <trkpt lat="45.2147" lon="5.72291">
        <ele>559.59997558594</ele>
        <time>2021-07-17T04:24:49.000Z</time>
      </trkpt>
      <trkpt lat="45.21469" lon="5.72291">
        <ele>559.79998779297</ele>
        <time>2021-07-17T04:24:50.000Z</time>
      </trkpt>
      <trkpt lat="45.21469" lon="5.72291">
        <ele>560</ele>
        <time>2021-07-17T04:24:51.000Z</time>
      </trkpt>
      <trkpt lat="45.21467" lon="5.72292">
        <ele>561</ele>
        <time>2021-07-17T04:24:54.000Z</time>
      </trkpt>
      <trkpt lat="45.21466" lon="5.72292">
        <ele>561.20001220703</ele>
        <time>2021-07-17T04:24:56.000Z</time>
      </trkpt>
      <trkpt lat="45.21465" lon="5.72293">
        <ele>561.40002441406</ele>
        <time>2021-07-17T04:24:58.000Z</time>
      </trkpt>
      <trkpt lat="45.21464" lon="5.72293">
        <ele>562.40002441406</ele>
        <time>2021-07-17T04:24:59.000Z</time>
      </trkpt>
      <trkpt lat="45.21464" lon="5.72294">
        <ele>562.40002441406</ele>
        <time>2021-07-17T04:25:00.000Z</time>
      </trkpt>
      <trkpt lat="45.2146" lon="5.72297">
        <ele>563</ele>
        <time>2021-07-17T04:25:04.000Z</time>
      </trkpt>
      <trkpt lat="45.21459" lon="5.72298">
        <ele>563.59997558594</ele>
        <time>2021-07-17T04:25:05.000Z</time>
      </trkpt>
      <trkpt lat="45.21457" lon="5.72299">
        <ele>564.79998779297</ele>
        <time>2021-07-17T04:25:08.000Z</time>
      </trkpt>
      <trkpt lat="45.21456" lon="5.72299">
        <ele>564.79998779297</ele>
        <time>2021-07-17T04:25:09.000Z</time>
      </trkpt>
      <trkpt lat="45.21455" lon="5.72299">
        <ele>565</ele>
        <time>2021-07-17T04:25:11.000Z</time>
      </trkpt>
      <trkpt lat="45.21453" lon="5.72299">
        <ele>565.79998779297</ele>
        <time>2021-07-17T04:25:14.000Z</time>
      </trkpt>
      <trkpt lat="45.21451" lon="5.723">
        <ele>566.40002441406</ele>
        <time>2021-07-17T04:25:16.000Z</time>
      </trkpt>
      <trkpt lat="45.21448" lon="5.723">
        <ele>567</ele>
        <time>2021-07-17T04:25:19.000Z</time>
      </trkpt>
      <trkpt lat="45.21445" lon="5.72301">
        <ele>567.59997558594</ele>
        <time>2021-07-17T04:25:22.000Z</time>
      </trkpt>
      <trkpt lat="45.21444" lon="5.72302">
        <ele>568.40002441406</ele>
        <time>2021-07-17T04:25:23.000Z</time>
      </trkpt>
      <trkpt lat="45.21438" lon="5.72304">
        <ele>569</ele>
        <time>2021-07-17T04:25:26.000Z</time>
      </trkpt>
      <trkpt lat="45.21436" lon="5.72304">
        <ele>569.20001220703</ele>
        <time>2021-07-17T04:25:28.000Z</time>
      </trkpt>
      <trkpt lat="45.21436" lon="5.72304">
        <ele>569.59997558594</ele>
        <time>2021-07-17T04:25:29.000Z</time>
      </trkpt>
      <trkpt lat="45.21432" lon="5.72308">
        <ele>570.59997558594</ele>
        <time>2021-07-17T04:25:32.000Z</time>
      </trkpt>
      <trkpt lat="45.21428" lon="5.72311">
        <ele>571.79998779297</ele>
        <time>2021-07-17T04:25:37.000Z</time>
      </trkpt>
      <trkpt lat="45.21426" lon="5.7231">
        <ele>572</ele>
        <time>2021-07-17T04:25:38.000Z</time>
      </trkpt>
      <trkpt lat="45.21421" lon="5.72313">
        <ele>573</ele>
        <time>2021-07-17T04:25:41.000Z</time>
      </trkpt>
      <trkpt lat="45.21419" lon="5.72315">
        <ele>573.40002441406</ele>
        <time>2021-07-17T04:25:43.000Z</time>
      </trkpt>
      <trkpt lat="45.21418" lon="5.72315">
        <ele>573.59997558594</ele>
        <time>2021-07-17T04:25:44.000Z</time>
      </trkpt>
      <trkpt lat="45.21416" lon="5.72315">
        <ele>574.20001220703</ele>
        <time>2021-07-17T04:25:46.000Z</time>
      </trkpt>
      <trkpt lat="45.21413" lon="5.72316">
        <ele>575.20001220703</ele>
        <time>2021-07-17T04:25:49.000Z</time>
      </trkpt>
      <trkpt lat="45.21412" lon="5.72316">
        <ele>575.20001220703</ele>
        <time>2021-07-17T04:25:50.000Z</time>
      </trkpt>
      <trkpt lat="45.21412" lon="5.72316">
        <ele>576</ele>
        <time>2021-07-17T04:25:51.000Z</time>
      </trkpt>
      <trkpt lat="45.21408" lon="5.72318">
        <ele>576.20001220703</ele>
        <time>2021-07-17T04:25:54.000Z</time>
      </trkpt>
      <trkpt lat="45.21406" lon="5.72318">
        <ele>577.20001220703</ele>
        <time>2021-07-17T04:25:56.000Z</time>
      </trkpt>
      <trkpt lat="45.21406" lon="5.72317">
        <ele>577.20001220703</ele>
        <time>2021-07-17T04:25:57.000Z</time>
      </trkpt>
      <trkpt lat="45.21405" lon="5.72316">
        <ele>577.79998779297</ele>
        <time>2021-07-17T04:25:59.000Z</time>
      </trkpt>
      <trkpt lat="45.21402" lon="5.72316">
        <ele>578.59997558594</ele>
        <time>2021-07-17T04:26:03.000Z</time>
      </trkpt>
      <trkpt lat="45.214" lon="5.72316">
        <ele>579.40002441406</ele>
        <time>2021-07-17T04:26:05.000Z</time>
      </trkpt>
      <trkpt lat="45.21398" lon="5.72317">
        <ele>579.79998779297</ele>
        <time>2021-07-17T04:26:07.000Z</time>
      </trkpt>
      <trkpt lat="45.21396" lon="5.72318">
        <ele>580.40002441406</ele>
        <time>2021-07-17T04:26:09.000Z</time>
      </trkpt>
      <trkpt lat="45.21395" lon="5.72318">
        <ele>580.59997558594</ele>
        <time>2021-07-17T04:26:10.000Z</time>
      </trkpt>
      <trkpt lat="45.21394" lon="5.72319">
        <ele>580.79998779297</ele>
        <time>2021-07-17T04:26:12.000Z</time>
      </trkpt>
      <trkpt lat="45.21393" lon="5.7232">
        <ele>581.40002441406</ele>
        <time>2021-07-17T04:26:13.000Z</time>
      </trkpt>
      <trkpt lat="45.21389" lon="5.72325">
        <ele>581.79998779297</ele>
        <time>2021-07-17T04:26:15.000Z</time>
      </trkpt>
      <trkpt lat="45.21387" lon="5.72325">
        <ele>582.20001220703</ele>
        <time>2021-07-17T04:26:16.000Z</time>
      </trkpt>
      <trkpt lat="45.21386" lon="5.72325">
        <ele>582.40002441406</ele>
        <time>2021-07-17T04:26:17.000Z</time>
      </trkpt>
      <trkpt lat="45.21384" lon="5.72325">
        <ele>582.79998779297</ele>
        <time>2021-07-17T04:26:19.000Z</time>
      </trkpt>
      <trkpt lat="45.21382" lon="5.72324">
        <ele>584.40002441406</ele>
        <time>2021-07-17T04:26:23.000Z</time>
      </trkpt>
      <trkpt lat="45.21381" lon="5.72324">
        <ele>584.59997558594</ele>
        <time>2021-07-17T04:26:24.000Z</time>
      </trkpt>
      <trkpt lat="45.21379" lon="5.72324">
        <ele>585</ele>
        <time>2021-07-17T04:26:26.000Z</time>
      </trkpt>
      <trkpt lat="45.21377" lon="5.72324">
        <ele>585.59997558594</ele>
        <time>2021-07-17T04:26:29.000Z</time>
      </trkpt>
      <trkpt lat="45.21376" lon="5.72324">
        <ele>586.20001220703</ele>
        <time>2021-07-17T04:26:30.000Z</time>
      </trkpt>
      <trkpt lat="45.21374" lon="5.72325">
        <ele>586.59997558594</ele>
        <time>2021-07-17T04:26:32.000Z</time>
      </trkpt>
      <trkpt lat="45.21373" lon="5.72326">
        <ele>586.79998779297</ele>
        <time>2021-07-17T04:26:33.000Z</time>
      </trkpt>
      <trkpt lat="45.21372" lon="5.72327">
        <ele>587</ele>
        <time>2021-07-17T04:26:34.000Z</time>
      </trkpt>
      <trkpt lat="45.2137" lon="5.72328">
        <ele>587.40002441406</ele>
        <time>2021-07-17T04:26:36.000Z</time>
      </trkpt>
      <trkpt lat="45.2137" lon="5.72328">
        <ele>587.59997558594</ele>
        <time>2021-07-17T04:26:37.000Z</time>
      </trkpt>
      <trkpt lat="45.2137" lon="5.72329">
        <ele>587.79998779297</ele>
        <time>2021-07-17T04:26:38.000Z</time>
      </trkpt>
      <trkpt lat="45.21366" lon="5.7233">
        <ele>589</ele>
        <time>2021-07-17T04:26:42.000Z</time>
      </trkpt>
      <trkpt lat="45.21362" lon="5.72332">
        <ele>590.20001220703</ele>
        <time>2021-07-17T04:26:45.000Z</time>
      </trkpt>
      <trkpt lat="45.21361" lon="5.72333">
        <ele>590.20001220703</ele>
        <time>2021-07-17T04:26:47.000Z</time>
      </trkpt>
      <trkpt lat="45.21359" lon="5.72333">
        <ele>591.20001220703</ele>
        <time>2021-07-17T04:26:50.000Z</time>
      </trkpt>
      <trkpt lat="45.21358" lon="5.72334">
        <ele>591.79998779297</ele>
        <time>2021-07-17T04:26:52.000Z</time>
      </trkpt>
      <trkpt lat="45.21357" lon="5.72335">
        <ele>592.40002441406</ele>
        <time>2021-07-17T04:26:54.000Z</time>
      </trkpt>
      <trkpt lat="45.21352" lon="5.72335">
        <ele>593.20001220703</ele>
        <time>2021-07-17T04:26:59.000Z</time>
      </trkpt>
      <trkpt lat="45.21351" lon="5.72336">
        <ele>593.59997558594</ele>
        <time>2021-07-17T04:27:00.000Z</time>
      </trkpt>
      <trkpt lat="45.21347" lon="5.7234">
        <ele>594.59997558594</ele>
        <time>2021-07-17T04:27:03.000Z</time>
      </trkpt>
      <trkpt lat="45.21347" lon="5.7234">
        <ele>595.40002441406</ele>
        <time>2021-07-17T04:27:05.000Z</time>
      </trkpt>
      <trkpt lat="45.21343" lon="5.72342">
        <ele>595.79998779297</ele>
        <time>2021-07-17T04:27:08.000Z</time>
      </trkpt>
      <trkpt lat="45.21343" lon="5.72343">
        <ele>596.59997558594</ele>
        <time>2021-07-17T04:27:11.000Z</time>
      </trkpt>
      <trkpt lat="45.21344" lon="5.72344">
        <ele>597</ele>
        <time>2021-07-17T04:27:13.000Z</time>
      </trkpt>
      <trkpt lat="45.21344" lon="5.72345">
        <ele>597.40002441406</ele>
        <time>2021-07-17T04:27:16.000Z</time>
      </trkpt>
      <trkpt lat="45.21344" lon="5.72345">
        <ele>598</ele>
        <time>2021-07-17T04:27:17.000Z</time>
      </trkpt>
      <trkpt lat="45.21344" lon="5.72346">
        <ele>598.59997558594</ele>
        <time>2021-07-17T04:27:20.000Z</time>
      </trkpt>
      <trkpt lat="45.21345" lon="5.72348">
        <ele>599</ele>
        <time>2021-07-17T04:27:21.000Z</time>
      </trkpt>
      <trkpt lat="45.21345" lon="5.72349">
        <ele>599.40002441406</ele>
        <time>2021-07-17T04:27:22.000Z</time>
      </trkpt>
      <trkpt lat="45.21347" lon="5.7235">
        <ele>600.40002441406</ele>
        <time>2021-07-17T04:27:24.000Z</time>
      </trkpt>
      <trkpt lat="45.21349" lon="5.72349">
        <ele>600.79998779297</ele>
        <time>2021-07-17T04:27:26.000Z</time>
      </trkpt>
      <trkpt lat="45.21351" lon="5.7235">
        <ele>601.20001220703</ele>
        <time>2021-07-17T04:27:28.000Z</time>
      </trkpt>
      <trkpt lat="45.21351" lon="5.72349">
        <ele>601.59997558594</ele>
        <time>2021-07-17T04:27:29.000Z</time>
      </trkpt>
      <trkpt lat="45.21352" lon="5.7235">
        <ele>602.40002441406</ele>
        <time>2021-07-17T04:27:31.000Z</time>
      </trkpt>
      <trkpt lat="45.21353" lon="5.72351">
        <ele>602.79998779297</ele>
        <time>2021-07-17T04:27:32.000Z</time>
      </trkpt>
      <trkpt lat="45.21353" lon="5.72351">
        <ele>602.79998779297</ele>
        <time>2021-07-17T04:27:33.000Z</time>
      </trkpt>
      <trkpt lat="45.21354" lon="5.72352">
        <ele>603</ele>
        <time>2021-07-17T04:27:35.000Z</time>
      </trkpt>
      <trkpt lat="45.21355" lon="5.72353">
        <ele>603.20001220703</ele>
        <time>2021-07-17T04:27:36.000Z</time>
      </trkpt>
      <trkpt lat="45.21356" lon="5.72354">
        <ele>603.40002441406</ele>
        <time>2021-07-17T04:27:37.000Z</time>
      </trkpt>
      <trkpt lat="45.21356" lon="5.72355">
        <ele>603.79998779297</ele>
        <time>2021-07-17T04:27:38.000Z</time>
      </trkpt>
      <trkpt lat="45.21357" lon="5.72356">
        <ele>603.79998779297</ele>
        <time>2021-07-17T04:27:39.000Z</time>
      </trkpt>
      <trkpt lat="45.21358" lon="5.72356">
        <ele>605</ele>
        <time>2021-07-17T04:27:40.000Z</time>
      </trkpt>
      <trkpt lat="45.21359" lon="5.72357">
        <ele>605.20001220703</ele>
        <time>2021-07-17T04:27:42.000Z</time>
      </trkpt>
      <trkpt lat="45.21359" lon="5.72358">
        <ele>605.40002441406</ele>
        <time>2021-07-17T04:27:43.000Z</time>
      </trkpt>
      <trkpt lat="45.2136" lon="5.72359">
        <ele>606</ele>
        <time>2021-07-17T04:27:45.000Z</time>
      </trkpt>
      <trkpt lat="45.2136" lon="5.72359">
        <ele>606</ele>
        <time>2021-07-17T04:27:46.000Z</time>
      </trkpt>
      <trkpt lat="45.21361" lon="5.7236">
        <ele>606</ele>
        <time>2021-07-17T04:27:47.000Z</time>
      </trkpt>
      <trkpt lat="45.21362" lon="5.72361">
        <ele>606.79998779297</ele>
        <time>2021-07-17T04:27:49.000Z</time>
      </trkpt>
      <trkpt lat="45.21363" lon="5.72363">
        <ele>607.20001220703</ele>
        <time>2021-07-17T04:27:50.000Z</time>
      </trkpt>
      <trkpt lat="45.21364" lon="5.72363">
        <ele>607.59997558594</ele>
        <time>2021-07-17T04:27:51.000Z</time>
      </trkpt>
      <trkpt lat="45.21364" lon="5.72362">
        <ele>608.20001220703</ele>
        <time>2021-07-17T04:27:52.000Z</time>
      </trkpt>
      <trkpt lat="45.21366" lon="5.72363">
        <ele>608.59997558594</ele>
        <time>2021-07-17T04:27:54.000Z</time>
      </trkpt>
      <trkpt lat="45.21368" lon="5.72366">
        <ele>609</ele>
        <time>2021-07-17T04:27:56.000Z</time>
      </trkpt>
      <trkpt lat="45.21369" lon="5.72366">
        <ele>609</ele>
        <time>2021-07-17T04:27:58.000Z</time>
      </trkpt>
      <trkpt lat="45.2137" lon="5.72366">
        <ele>609.59997558594</ele>
        <time>2021-07-17T04:27:59.000Z</time>
      </trkpt>
      <trkpt lat="45.21374" lon="5.72368">
        <ele>609.79998779297</ele>
        <time>2021-07-17T04:28:02.000Z</time>
      </trkpt>
      <trkpt lat="45.21375" lon="5.72368">
        <ele>610.59997558594</ele>
        <time>2021-07-17T04:28:03.000Z</time>
      </trkpt>
      <trkpt lat="45.21376" lon="5.72368">
        <ele>610.59997558594</ele>
        <time>2021-07-17T04:28:04.000Z</time>
      </trkpt>
      <trkpt lat="45.21377" lon="5.72368">
        <ele>610.59997558594</ele>
        <time>2021-07-17T04:28:05.000Z</time>
      </trkpt>
      <trkpt lat="45.2138" lon="5.7237">
        <ele>611.79998779297</ele>
        <time>2021-07-17T04:28:09.000Z</time>
      </trkpt>
      <trkpt lat="45.21381" lon="5.72371">
        <ele>612.40002441406</ele>
        <time>2021-07-17T04:28:11.000Z</time>
      </trkpt>
      <trkpt lat="45.21383" lon="5.72375">
        <ele>613</ele>
        <time>2021-07-17T04:28:14.000Z</time>
      </trkpt>
      <trkpt lat="45.21384" lon="5.72376">
        <ele>614</ele>
        <time>2021-07-17T04:28:17.000Z</time>
      </trkpt>
      <trkpt lat="45.21385" lon="5.72375">
        <ele>614.20001220703</ele>
        <time>2021-07-17T04:28:18.000Z</time>
      </trkpt>
      <trkpt lat="45.21388" lon="5.72377">
        <ele>615.40002441406</ele>
        <time>2021-07-17T04:28:21.000Z</time>
      </trkpt>
      <trkpt lat="45.2139" lon="5.72377">
        <ele>615.40002441406</ele>
        <time>2021-07-17T04:28:22.000Z</time>
      </trkpt>
      <trkpt lat="45.21393" lon="5.72378">
        <ele>616.40002441406</ele>
        <time>2021-07-17T04:28:24.000Z</time>
      </trkpt>
      <trkpt lat="45.21394" lon="5.72379">
        <ele>617.79998779297</ele>
        <time>2021-07-17T04:28:27.000Z</time>
      </trkpt>
      <trkpt lat="45.21396" lon="5.7238">
        <ele>618.20001220703</ele>
        <time>2021-07-17T04:28:30.000Z</time>
      </trkpt>
      <trkpt lat="45.21397" lon="5.72383">
        <ele>619</ele>
        <time>2021-07-17T04:28:32.000Z</time>
      </trkpt>
      <trkpt lat="45.21398" lon="5.72385">
        <ele>619.20001220703</ele>
        <time>2021-07-17T04:28:34.000Z</time>
      </trkpt>
      <trkpt lat="45.21398" lon="5.72385">
        <ele>619.79998779297</ele>
        <time>2021-07-17T04:28:35.000Z</time>
      </trkpt>
      <trkpt lat="45.21399" lon="5.72386">
        <ele>620</ele>
        <time>2021-07-17T04:28:36.000Z</time>
      </trkpt>
      <trkpt lat="45.21399" lon="5.72385">
        <ele>620.59997558594</ele>
        <time>2021-07-17T04:28:37.000Z</time>
      </trkpt>
      <trkpt lat="45.214" lon="5.72385">
        <ele>621</ele>
        <time>2021-07-17T04:28:38.000Z</time>
      </trkpt>
      <trkpt lat="45.214" lon="5.72385">
        <ele>621.20001220703</ele>
        <time>2021-07-17T04:28:40.000Z</time>
      </trkpt>
      <trkpt lat="45.21402" lon="5.72385">
        <ele>622.40002441406</ele>
        <time>2021-07-17T04:28:41.000Z</time>
      </trkpt>
      <trkpt lat="45.21403" lon="5.72386">
        <ele>622.59997558594</ele>
        <time>2021-07-17T04:28:42.000Z</time>
      </trkpt>
      <trkpt lat="45.21406" lon="5.72388">
        <ele>623.40002441406</ele>
        <time>2021-07-17T04:28:46.000Z</time>
      </trkpt>
      <trkpt lat="45.21407" lon="5.72389">
        <ele>623.79998779297</ele>
        <time>2021-07-17T04:28:48.000Z</time>
      </trkpt>
      <trkpt lat="45.21409" lon="5.72391">
        <ele>624.79998779297</ele>
        <time>2021-07-17T04:28:50.000Z</time>
      </trkpt>
      <trkpt lat="45.2141" lon="5.7239">
        <ele>625.40002441406</ele>
        <time>2021-07-17T04:28:51.000Z</time>
      </trkpt>
      <trkpt lat="45.2141" lon="5.7239">
        <ele>625.40002441406</ele>
        <time>2021-07-17T04:28:52.000Z</time>
      </trkpt>
      <trkpt lat="45.21411" lon="5.72389">
        <ele>625.79998779297</ele>
        <time>2021-07-17T04:28:54.000Z</time>
      </trkpt>
      <trkpt lat="45.21411" lon="5.72388">
        <ele>626.20001220703</ele>
        <time>2021-07-17T04:28:55.000Z</time>
      </trkpt>
      <trkpt lat="45.21413" lon="5.72388">
        <ele>627</ele>
        <time>2021-07-17T04:28:57.000Z</time>
      </trkpt>
      <trkpt lat="45.21415" lon="5.7239">
        <ele>627</ele>
        <time>2021-07-17T04:28:59.000Z</time>
      </trkpt>
      <trkpt lat="45.21417" lon="5.72393">
        <ele>627.79998779297</ele>
        <time>2021-07-17T04:29:02.000Z</time>
      </trkpt>
      <trkpt lat="45.21418" lon="5.72395">
        <ele>628.40002441406</ele>
        <time>2021-07-17T04:29:03.000Z</time>
      </trkpt>
      <trkpt lat="45.21421" lon="5.72395">
        <ele>629</ele>
        <time>2021-07-17T04:29:07.000Z</time>
      </trkpt>
      <trkpt lat="45.21422" lon="5.72396">
        <ele>629.59997558594</ele>
        <time>2021-07-17T04:29:08.000Z</time>
      </trkpt>
      <trkpt lat="45.21428" lon="5.72398">
        <ele>630.59997558594</ele>
        <time>2021-07-17T04:29:13.000Z</time>
      </trkpt>
      <trkpt lat="45.21429" lon="5.72398">
        <ele>631</ele>
        <time>2021-07-17T04:29:14.000Z</time>
      </trkpt>
      <trkpt lat="45.21431" lon="5.724">
        <ele>631.20001220703</ele>
        <time>2021-07-17T04:29:16.000Z</time>
      </trkpt>
      <trkpt lat="45.21435" lon="5.72402">
        <ele>631.59997558594</ele>
        <time>2021-07-17T04:29:19.000Z</time>
      </trkpt>
      <trkpt lat="45.21437" lon="5.72402">
        <ele>632.40002441406</ele>
        <time>2021-07-17T04:29:21.000Z</time>
      </trkpt>
      <trkpt lat="45.21444" lon="5.72406">
        <ele>633</ele>
        <time>2021-07-17T04:29:26.000Z</time>
      </trkpt>
      <trkpt lat="45.21448" lon="5.72407">
        <ele>633.59997558594</ele>
        <time>2021-07-17T04:29:29.000Z</time>
      </trkpt>
      <trkpt lat="45.21451" lon="5.72409">
        <ele>633.79998779297</ele>
        <time>2021-07-17T04:29:31.000Z</time>
      </trkpt>
      <trkpt lat="45.21451" lon="5.72409">
        <ele>634.79998779297</ele>
        <time>2021-07-17T04:29:32.000Z</time>
      </trkpt>
      <trkpt lat="45.21454" lon="5.72409">
        <ele>635.20001220703</ele>
        <time>2021-07-17T04:29:34.000Z</time>
      </trkpt>
      <trkpt lat="45.2146" lon="5.72412">
        <ele>635.79998779297</ele>
        <time>2021-07-17T04:29:39.000Z</time>
      </trkpt>
      <trkpt lat="45.21461" lon="5.72413">
        <ele>636.20001220703</ele>
        <time>2021-07-17T04:29:40.000Z</time>
      </trkpt>
      <trkpt lat="45.21464" lon="5.72415">
        <ele>636.40002441406</ele>
        <time>2021-07-17T04:29:42.000Z</time>
      </trkpt>
      <trkpt lat="45.21466" lon="5.72416">
        <ele>636.59997558594</ele>
        <time>2021-07-17T04:29:44.000Z</time>
      </trkpt>
      <trkpt lat="45.21467" lon="5.72416">
        <ele>637.20001220703</ele>
        <time>2021-07-17T04:29:45.000Z</time>
      </trkpt>
      <trkpt lat="45.21471" lon="5.72416">
        <ele>637.59997558594</ele>
        <time>2021-07-17T04:29:47.000Z</time>
      </trkpt>
      <trkpt lat="45.21479" lon="5.72422">
        <ele>638.20001220703</ele>
        <time>2021-07-17T04:29:53.000Z</time>
      </trkpt>
      <trkpt lat="45.2148" lon="5.72422">
        <ele>638.59997558594</ele>
        <time>2021-07-17T04:29:54.000Z</time>
      </trkpt>
      <trkpt lat="45.21486" lon="5.72423">
        <ele>638.79998779297</ele>
        <time>2021-07-17T04:29:58.000Z</time>
      </trkpt>
      <trkpt lat="45.21489" lon="5.72425">
        <ele>638.40002441406</ele>
        <time>2021-07-17T04:30:00.000Z</time>
      </trkpt>
      <trkpt lat="45.21491" lon="5.72425">
        <ele>638.40002441406</ele>
        <time>2021-07-17T04:30:01.000Z</time>
      </trkpt>
      <trkpt lat="45.21496" lon="5.72426">
        <ele>638</ele>
        <time>2021-07-17T04:30:04.000Z</time>
      </trkpt>
      <trkpt lat="45.21503" lon="5.72431">
        <ele>637.40002441406</ele>
        <time>2021-07-17T04:30:08.000Z</time>
      </trkpt>
      <trkpt lat="45.21506" lon="5.72433">
        <ele>637.20001220703</ele>
        <time>2021-07-17T04:30:10.000Z</time>
      </trkpt>
      <trkpt lat="45.21512" lon="5.72436">
        <ele>636.59997558594</ele>
        <time>2021-07-17T04:30:14.000Z</time>
      </trkpt>
      <trkpt lat="45.21514" lon="5.72437">
        <ele>636.40002441406</ele>
        <time>2021-07-17T04:30:15.000Z</time>
      </trkpt>
      <trkpt lat="45.21516" lon="5.72439">
        <ele>636.40002441406</ele>
        <time>2021-07-17T04:30:16.000Z</time>
      </trkpt>
      <trkpt lat="45.21525" lon="5.72446">
        <ele>636.20001220703</ele>
        <time>2021-07-17T04:30:21.000Z</time>
      </trkpt>
      <trkpt lat="45.21526" lon="5.72447">
        <ele>636.20001220703</ele>
        <time>2021-07-17T04:30:22.000Z</time>
      </trkpt>
      <trkpt lat="45.21527" lon="5.72448">
        <ele>636.20001220703</ele>
        <time>2021-07-17T04:30:23.000Z</time>
      </trkpt>
      <trkpt lat="45.21535" lon="5.7245">
        <ele>636.20001220703</ele>
        <time>2021-07-17T04:30:27.000Z</time>
      </trkpt>
      <trkpt lat="45.21551" lon="5.72457">
        <ele>636</ele>
        <time>2021-07-17T04:30:34.000Z</time>
      </trkpt>
      <trkpt lat="45.21552" lon="5.72459">
        <ele>635.79998779297</ele>
        <time>2021-07-17T04:30:35.000Z</time>
      </trkpt>
      <trkpt lat="45.21558" lon="5.72463">
        <ele>635.79998779297</ele>
        <time>2021-07-17T04:30:38.000Z</time>
      </trkpt>
      <trkpt lat="45.21566" lon="5.7247">
        <ele>636</ele>
        <time>2021-07-17T04:30:42.000Z</time>
      </trkpt>
      <trkpt lat="45.21568" lon="5.72471">
        <ele>635.79998779297</ele>
        <time>2021-07-17T04:30:43.000Z</time>
      </trkpt>
      <trkpt lat="45.21575" lon="5.72473">
        <ele>636</ele>
        <time>2021-07-17T04:30:46.000Z</time>
      </trkpt>
      <trkpt lat="45.21582" lon="5.72476">
        <ele>636.59997558594</ele>
        <time>2021-07-17T04:30:50.000Z</time>
      </trkpt>
      <trkpt lat="45.21595" lon="5.72483">
        <ele>637.40002441406</ele>
        <time>2021-07-17T04:30:57.000Z</time>
      </trkpt>
      <trkpt lat="45.21604" lon="5.72488">
        <ele>637.59997558594</ele>
        <time>2021-07-17T04:31:01.000Z</time>
      </trkpt>
      <trkpt lat="45.21607" lon="5.7249">
        <ele>637.59997558594</ele>
        <time>2021-07-17T04:31:03.000Z</time>
      </trkpt>
      <trkpt lat="45.21613" lon="5.72491">
        <ele>638.40002441406</ele>
        <time>2021-07-17T04:31:06.000Z</time>
      </trkpt>
      <trkpt lat="45.21617" lon="5.72494">
        <ele>638.79998779297</ele>
        <time>2021-07-17T04:31:08.000Z</time>
      </trkpt>
      <trkpt lat="45.21617" lon="5.72494">
        <ele>639</ele>
        <time>2021-07-17T04:31:09.000Z</time>
      </trkpt>
      <trkpt lat="45.21626" lon="5.72497">
        <ele>639.40002441406</ele>
        <time>2021-07-17T04:31:12.000Z</time>
      </trkpt>
      <trkpt lat="45.2163" lon="5.72497">
        <ele>640</ele>
        <time>2021-07-17T04:31:15.000Z</time>
      </trkpt>
      <trkpt lat="45.21638" lon="5.72496">
        <ele>641.40002441406</ele>
        <time>2021-07-17T04:31:18.000Z</time>
      </trkpt>
      <trkpt lat="45.21645" lon="5.72497">
        <ele>641.40002441406</ele>
        <time>2021-07-17T04:31:22.000Z</time>
      </trkpt>
      <trkpt lat="45.21652" lon="5.72501">
        <ele>642</ele>
        <time>2021-07-17T04:31:26.000Z</time>
      </trkpt>
      <trkpt lat="45.21655" lon="5.72502">
        <ele>642.20001220703</ele>
        <time>2021-07-17T04:31:28.000Z</time>
      </trkpt>
      <trkpt lat="45.21657" lon="5.72502">
        <ele>642.20001220703</ele>
        <time>2021-07-17T04:31:29.000Z</time>
      </trkpt>
      <trkpt lat="45.21669" lon="5.72509">
        <ele>642.59997558594</ele>
        <time>2021-07-17T04:31:34.000Z</time>
      </trkpt>
      <trkpt lat="45.2167" lon="5.7251">
        <ele>643</ele>
        <time>2021-07-17T04:31:35.000Z</time>
      </trkpt>
      <trkpt lat="45.21676" lon="5.72511">
        <ele>643.59997558594</ele>
        <time>2021-07-17T04:31:38.000Z</time>
      </trkpt>
      <trkpt lat="45.2168" lon="5.72513">
        <ele>644</ele>
        <time>2021-07-17T04:31:40.000Z</time>
      </trkpt>
      <trkpt lat="45.21682" lon="5.72514">
        <ele>644.40002441406</ele>
        <time>2021-07-17T04:31:41.000Z</time>
      </trkpt>
      <trkpt lat="45.21686" lon="5.72519">
        <ele>644.79998779297</ele>
        <time>2021-07-17T04:31:44.000Z</time>
      </trkpt>
      <trkpt lat="45.21688" lon="5.7252">
        <ele>644.79998779297</ele>
        <time>2021-07-17T04:31:45.000Z</time>
      </trkpt>
      <trkpt lat="45.21694" lon="5.72522">
        <ele>644.79998779297</ele>
        <time>2021-07-17T04:31:48.000Z</time>
      </trkpt>
      <trkpt lat="45.21699" lon="5.72525">
        <ele>644.40002441406</ele>
        <time>2021-07-17T04:31:51.000Z</time>
      </trkpt>
      <trkpt lat="45.21703" lon="5.72527">
        <ele>645</ele>
        <time>2021-07-17T04:31:53.000Z</time>
      </trkpt>
      <trkpt lat="45.21711" lon="5.7253">
        <ele>645</ele>
        <time>2021-07-17T04:31:56.000Z</time>
      </trkpt>
      <trkpt lat="45.21713" lon="5.7253">
        <ele>644.59997558594</ele>
        <time>2021-07-17T04:31:57.000Z</time>
      </trkpt>
      <trkpt lat="45.21715" lon="5.7253">
        <ele>645</ele>
        <time>2021-07-17T04:31:58.000Z</time>
      </trkpt>
      <trkpt lat="45.21721" lon="5.72533">
        <ele>644.59997558594</ele>
        <time>2021-07-17T04:32:01.000Z</time>
      </trkpt>
      <trkpt lat="45.21728" lon="5.72539">
        <ele>644.79998779297</ele>
        <time>2021-07-17T04:32:04.000Z</time>
      </trkpt>
      <trkpt lat="45.21732" lon="5.72539">
        <ele>644.79998779297</ele>
        <time>2021-07-17T04:32:06.000Z</time>
      </trkpt>
      <trkpt lat="45.21742" lon="5.72544">
        <ele>645.79998779297</ele>
        <time>2021-07-17T04:32:11.000Z</time>
      </trkpt>
      <trkpt lat="45.21746" lon="5.72546">
        <ele>645.79998779297</ele>
        <time>2021-07-17T04:32:13.000Z</time>
      </trkpt>
      <trkpt lat="45.21748" lon="5.72548">
        <ele>646</ele>
        <time>2021-07-17T04:32:14.000Z</time>
      </trkpt>
      <trkpt lat="45.21753" lon="5.7255">
        <ele>646.40002441406</ele>
        <time>2021-07-17T04:32:17.000Z</time>
      </trkpt>
      <trkpt lat="45.21759" lon="5.72553">
        <ele>647</ele>
        <time>2021-07-17T04:32:20.000Z</time>
      </trkpt>
      <trkpt lat="45.21765" lon="5.72557">
        <ele>647.59997558594</ele>
        <time>2021-07-17T04:32:23.000Z</time>
      </trkpt>
      <trkpt lat="45.21769" lon="5.72558">
        <ele>648</ele>
        <time>2021-07-17T04:32:25.000Z</time>
      </trkpt>
      <trkpt lat="45.21776" lon="5.7256">
        <ele>649</ele>
        <time>2021-07-17T04:32:29.000Z</time>
      </trkpt>
      <trkpt lat="45.21777" lon="5.72561">
        <ele>649.20001220703</ele>
        <time>2021-07-17T04:32:30.000Z</time>
      </trkpt>
      <trkpt lat="45.2178" lon="5.72561">
        <ele>649.40002441406</ele>
        <time>2021-07-17T04:32:32.000Z</time>
      </trkpt>
      <trkpt lat="45.21782" lon="5.72562">
        <ele>650.20001220703</ele>
        <time>2021-07-17T04:32:33.000Z</time>
      </trkpt>
      <trkpt lat="45.21784" lon="5.72563">
        <ele>650.20001220703</ele>
        <time>2021-07-17T04:32:35.000Z</time>
      </trkpt>
      <trkpt lat="45.21785" lon="5.72564">
        <ele>650.20001220703</ele>
        <time>2021-07-17T04:32:36.000Z</time>
      </trkpt>
      <trkpt lat="45.21786" lon="5.72564">
        <ele>650.20001220703</ele>
        <time>2021-07-17T04:32:37.000Z</time>
      </trkpt>
      <trkpt lat="45.21787" lon="5.72565">
        <ele>650.20001220703</ele>
        <time>2021-07-17T04:32:38.000Z</time>
      </trkpt>
      <trkpt lat="45.2179" lon="5.72565">
        <ele>649.20001220703</ele>
        <time>2021-07-17T04:32:41.000Z</time>
      </trkpt>
      <trkpt lat="45.21792" lon="5.72566">
        <ele>649.20001220703</ele>
        <time>2021-07-17T04:32:42.000Z</time>
      </trkpt>
      <trkpt lat="45.21794" lon="5.72566">
        <ele>649</ele>
        <time>2021-07-17T04:32:43.000Z</time>
      </trkpt>
      <trkpt lat="45.21797" lon="5.72564">
        <ele>648.20001220703</ele>
        <time>2021-07-17T04:32:45.000Z</time>
      </trkpt>
      <trkpt lat="45.218" lon="5.72563">
        <ele>647.79998779297</ele>
        <time>2021-07-17T04:32:47.000Z</time>
      </trkpt>
      <trkpt lat="45.21803" lon="5.72563">
        <ele>646.59997558594</ele>
        <time>2021-07-17T04:32:49.000Z</time>
      </trkpt>
      <trkpt lat="45.21812" lon="5.72563">
        <ele>645.20001220703</ele>
        <time>2021-07-17T04:32:53.000Z</time>
      </trkpt>
      <trkpt lat="45.21813" lon="5.72565">
        <ele>645.20001220703</ele>
        <time>2021-07-17T04:32:54.000Z</time>
      </trkpt>
      <trkpt lat="45.21816" lon="5.72567">
        <ele>644</ele>
        <time>2021-07-17T04:32:56.000Z</time>
      </trkpt>
      <trkpt lat="45.21818" lon="5.72567">
        <ele>643.79998779297</ele>
        <time>2021-07-17T04:32:57.000Z</time>
      </trkpt>
      <trkpt lat="45.21822" lon="5.72568">
        <ele>643</ele>
        <time>2021-07-17T04:32:59.000Z</time>
      </trkpt>
      <trkpt lat="45.21824" lon="5.72569">
        <ele>642.59997558594</ele>
        <time>2021-07-17T04:33:00.000Z</time>
      </trkpt>
      <trkpt lat="45.21828" lon="5.7257">
        <ele>641.59997558594</ele>
        <time>2021-07-17T04:33:02.000Z</time>
      </trkpt>
      <trkpt lat="45.21831" lon="5.72571">
        <ele>641</ele>
        <time>2021-07-17T04:33:04.000Z</time>
      </trkpt>
      <trkpt lat="45.21835" lon="5.72573">
        <ele>640.40002441406</ele>
        <time>2021-07-17T04:33:06.000Z</time>
      </trkpt>
      <trkpt lat="45.21837" lon="5.72574">
        <ele>640</ele>
        <time>2021-07-17T04:33:07.000Z</time>
      </trkpt>
      <trkpt lat="45.21842" lon="5.72577">
        <ele>639.79998779297</ele>
        <time>2021-07-17T04:33:10.000Z</time>
      </trkpt>
      <trkpt lat="45.21845" lon="5.72578">
        <ele>638.79998779297</ele>
        <time>2021-07-17T04:33:12.000Z</time>
      </trkpt>
      <trkpt lat="45.21849" lon="5.72577">
        <ele>638</ele>
        <time>2021-07-17T04:33:15.000Z</time>
      </trkpt>
      <trkpt lat="45.2185" lon="5.72576">
        <ele>637.40002441406</ele>
        <time>2021-07-17T04:33:16.000Z</time>
      </trkpt>
      <trkpt lat="45.21852" lon="5.72575">
        <ele>636.79998779297</ele>
        <time>2021-07-17T04:33:18.000Z</time>
      </trkpt>
      <trkpt lat="45.21854" lon="5.72569">
        <ele>636</ele>
        <time>2021-07-17T04:33:21.000Z</time>
      </trkpt>
      <trkpt lat="45.21854" lon="5.72565">
        <ele>635.79998779297</ele>
        <time>2021-07-17T04:33:23.000Z</time>
      </trkpt>
      <trkpt lat="45.21856" lon="5.72559">
        <ele>635.20001220703</ele>
        <time>2021-07-17T04:33:25.000Z</time>
      </trkpt>
      <trkpt lat="45.21856" lon="5.72558">
        <ele>635</ele>
        <time>2021-07-17T04:33:26.000Z</time>
      </trkpt>
      <trkpt lat="45.21857" lon="5.72556">
        <ele>634.59997558594</ele>
        <time>2021-07-17T04:33:27.000Z</time>
      </trkpt>
      <trkpt lat="45.21861" lon="5.72551">
        <ele>633.79998779297</ele>
        <time>2021-07-17T04:33:29.000Z</time>
      </trkpt>
      <trkpt lat="45.2187" lon="5.72547">
        <ele>632.79998779297</ele>
        <time>2021-07-17T04:33:33.000Z</time>
      </trkpt>
      <trkpt lat="45.21877" lon="5.72545">
        <ele>631.59997558594</ele>
        <time>2021-07-17T04:33:37.000Z</time>
      </trkpt>
      <trkpt lat="45.21881" lon="5.72544">
        <ele>630.59997558594</ele>
        <time>2021-07-17T04:33:39.000Z</time>
      </trkpt>
      <trkpt lat="45.21885" lon="5.72541">
        <ele>630</ele>
        <time>2021-07-17T04:33:42.000Z</time>
      </trkpt>
      <trkpt lat="45.21889" lon="5.72537">
        <ele>629.40002441406</ele>
        <time>2021-07-17T04:33:45.000Z</time>
      </trkpt>
      <trkpt lat="45.21894" lon="5.72536">
        <ele>627.59997558594</ele>
        <time>2021-07-17T04:33:48.000Z</time>
      </trkpt>
      <trkpt lat="45.21896" lon="5.72536">
        <ele>626.79998779297</ele>
        <time>2021-07-17T04:33:49.000Z</time>
      </trkpt>
      <trkpt lat="45.21897" lon="5.72536">
        <ele>626.59997558594</ele>
        <time>2021-07-17T04:33:50.000Z</time>
      </trkpt>
      <trkpt lat="45.21899" lon="5.72534">
        <ele>626.40002441406</ele>
        <time>2021-07-17T04:33:51.000Z</time>
      </trkpt>
      <trkpt lat="45.21903" lon="5.72532">
        <ele>624.79998779297</ele>
        <time>2021-07-17T04:33:54.000Z</time>
      </trkpt>
      <trkpt lat="45.21907" lon="5.72529">
        <ele>623.59997558594</ele>
        <time>2021-07-17T04:33:57.000Z</time>
      </trkpt>
      <trkpt lat="45.21909" lon="5.72528">
        <ele>623</ele>
        <time>2021-07-17T04:33:58.000Z</time>
      </trkpt>
      <trkpt lat="45.2191" lon="5.72525">
        <ele>622.79998779297</ele>
        <time>2021-07-17T04:33:59.000Z</time>
      </trkpt>
      <trkpt lat="45.21911" lon="5.72522">
        <ele>622.40002441406</ele>
        <time>2021-07-17T04:34:00.000Z</time>
      </trkpt>
      <trkpt lat="45.21915" lon="5.7252">
        <ele>622.20001220703</ele>
        <time>2021-07-17T04:34:02.000Z</time>
      </trkpt>
      <trkpt lat="45.21917" lon="5.7252">
        <ele>620.79998779297</ele>
        <time>2021-07-17T04:34:03.000Z</time>
      </trkpt>
      <trkpt lat="45.21918" lon="5.72519">
        <ele>620.40002441406</ele>
        <time>2021-07-17T04:34:04.000Z</time>
      </trkpt>
      <trkpt lat="45.2192" lon="5.72519">
        <ele>620.20001220703</ele>
        <time>2021-07-17T04:34:05.000Z</time>
      </trkpt>
      <trkpt lat="45.21922" lon="5.72518">
        <ele>619.59997558594</ele>
        <time>2021-07-17T04:34:06.000Z</time>
      </trkpt>
      <trkpt lat="45.21926" lon="5.72516">
        <ele>619.40002441406</ele>
        <time>2021-07-17T04:34:08.000Z</time>
      </trkpt>
      <trkpt lat="45.21927" lon="5.72514">
        <ele>618.59997558594</ele>
        <time>2021-07-17T04:34:09.000Z</time>
      </trkpt>
      <trkpt lat="45.2193" lon="5.72511">
        <ele>617.20001220703</ele>
        <time>2021-07-17T04:34:11.000Z</time>
      </trkpt>
      <trkpt lat="45.21933" lon="5.72511">
        <ele>616.59997558594</ele>
        <time>2021-07-17T04:34:13.000Z</time>
      </trkpt>
      <trkpt lat="45.21934" lon="5.72511">
        <ele>616.20001220703</ele>
        <time>2021-07-17T04:34:14.000Z</time>
      </trkpt>
      <trkpt lat="45.21936" lon="5.7251">
        <ele>616.20001220703</ele>
        <time>2021-07-17T04:34:15.000Z</time>
      </trkpt>
      <trkpt lat="45.21941" lon="5.72507">
        <ele>615.20001220703</ele>
        <time>2021-07-17T04:34:18.000Z</time>
      </trkpt>
      <trkpt lat="45.21945" lon="5.72505">
        <ele>614.40002441406</ele>
        <time>2021-07-17T04:34:20.000Z</time>
      </trkpt>
      <trkpt lat="45.21948" lon="5.72505">
        <ele>613.59997558594</ele>
        <time>2021-07-17T04:34:21.000Z</time>
      </trkpt>
      <trkpt lat="45.21955" lon="5.72504">
        <ele>612.79998779297</ele>
        <time>2021-07-17T04:34:24.000Z</time>
      </trkpt>
      <trkpt lat="45.21956" lon="5.72503">
        <ele>612.20001220703</ele>
        <time>2021-07-17T04:34:25.000Z</time>
      </trkpt>
      <trkpt lat="45.21962" lon="5.72502">
        <ele>611.20001220703</ele>
        <time>2021-07-17T04:34:28.000Z</time>
      </trkpt>
      <trkpt lat="45.21968" lon="5.72502">
        <ele>610</ele>
        <time>2021-07-17T04:34:32.000Z</time>
      </trkpt>
      <trkpt lat="45.21972" lon="5.72503">
        <ele>609</ele>
        <time>2021-07-17T04:34:36.000Z</time>
      </trkpt>
      <trkpt lat="45.21972" lon="5.72504">
        <ele>609</ele>
        <time>2021-07-17T04:34:37.000Z</time>
      </trkpt>
      <trkpt lat="45.21971" lon="5.72506">
        <ele>609</ele>
        <time>2021-07-17T04:34:39.000Z</time>
      </trkpt>
      <trkpt lat="45.2197" lon="5.7251">
        <ele>609.40002441406</ele>
        <time>2021-07-17T04:34:42.000Z</time>
      </trkpt>
      <trkpt lat="45.2197" lon="5.72512">
        <ele>609.59997558594</ele>
        <time>2021-07-17T04:34:43.000Z</time>
      </trkpt>
      <trkpt lat="45.21968" lon="5.72515">
        <ele>610.59997558594</ele>
        <time>2021-07-17T04:34:47.000Z</time>
      </trkpt>
      <trkpt lat="45.21967" lon="5.72515">
        <ele>611</ele>
        <time>2021-07-17T04:34:48.000Z</time>
      </trkpt>
      <trkpt lat="45.21966" lon="5.72516">
        <ele>611.20001220703</ele>
        <time>2021-07-17T04:34:49.000Z</time>
      </trkpt>
      <trkpt lat="45.21966" lon="5.72517">
        <ele>611.40002441406</ele>
        <time>2021-07-17T04:34:50.000Z</time>
      </trkpt>
      <trkpt lat="45.21963" lon="5.72519">
        <ele>612.20001220703</ele>
        <time>2021-07-17T04:34:52.000Z</time>
      </trkpt>
      <trkpt lat="45.21954" lon="5.72525">
        <ele>613.20001220703</ele>
        <time>2021-07-17T04:34:57.000Z</time>
      </trkpt>
      <trkpt lat="45.21954" lon="5.72525">
        <ele>613.40002441406</ele>
        <time>2021-07-17T04:34:58.000Z</time>
      </trkpt>
      <trkpt lat="45.21951" lon="5.72527">
        <ele>613.59997558594</ele>
        <time>2021-07-17T04:35:01.000Z</time>
      </trkpt>
      <trkpt lat="45.2195" lon="5.72528">
        <ele>614.40002441406</ele>
        <time>2021-07-17T04:35:02.000Z</time>
      </trkpt>
      <trkpt lat="45.21949" lon="5.72529">
        <ele>614.40002441406</ele>
        <time>2021-07-17T04:35:03.000Z</time>
      </trkpt>
      <trkpt lat="45.21948" lon="5.72529">
        <ele>615</ele>
        <time>2021-07-17T04:35:05.000Z</time>
      </trkpt>
      <trkpt lat="45.21948" lon="5.72529">
        <ele>615.79998779297</ele>
        <time>2021-07-17T04:35:06.000Z</time>
      </trkpt>
      <trkpt lat="45.21947" lon="5.7253">
        <ele>615.79998779297</ele>
        <time>2021-07-17T04:35:07.000Z</time>
      </trkpt>
      <trkpt lat="45.21944" lon="5.72532">
        <ele>616.40002441406</ele>
        <time>2021-07-17T04:35:09.000Z</time>
      </trkpt>
      <trkpt lat="45.21942" lon="5.72534">
        <ele>616.79998779297</ele>
        <time>2021-07-17T04:35:11.000Z</time>
      </trkpt>
      <trkpt lat="45.21941" lon="5.72535">
        <ele>617.20001220703</ele>
        <time>2021-07-17T04:35:12.000Z</time>
      </trkpt>
      <trkpt lat="45.2194" lon="5.72534">
        <ele>617.40002441406</ele>
        <time>2021-07-17T04:35:14.000Z</time>
      </trkpt>
      <trkpt lat="45.21938" lon="5.72534">
        <ele>618.20001220703</ele>
        <time>2021-07-17T04:35:16.000Z</time>
      </trkpt>
      <trkpt lat="45.21937" lon="5.72535">
        <ele>618.79998779297</ele>
        <time>2021-07-17T04:35:17.000Z</time>
      </trkpt>
      <trkpt lat="45.21935" lon="5.72535">
        <ele>619</ele>
        <time>2021-07-17T04:35:19.000Z</time>
      </trkpt>
      <trkpt lat="45.21933" lon="5.72536">
        <ele>619.20001220703</ele>
        <time>2021-07-17T04:35:21.000Z</time>
      </trkpt>
      <trkpt lat="45.21931" lon="5.72537">
        <ele>619.79998779297</ele>
        <time>2021-07-17T04:35:23.000Z</time>
      </trkpt>
      <trkpt lat="45.21931" lon="5.72538">
        <ele>620.40002441406</ele>
        <time>2021-07-17T04:35:24.000Z</time>
      </trkpt>
      <trkpt lat="45.2193" lon="5.72538">
        <ele>620.79998779297</ele>
        <time>2021-07-17T04:35:25.000Z</time>
      </trkpt>
      <trkpt lat="45.21928" lon="5.72539">
        <ele>620.79998779297</ele>
        <time>2021-07-17T04:35:27.000Z</time>
      </trkpt>
      <trkpt lat="45.21926" lon="5.7254">
        <ele>621.59997558594</ele>
        <time>2021-07-17T04:35:29.000Z</time>
      </trkpt>
      <trkpt lat="45.21923" lon="5.72538">
        <ele>622.40002441406</ele>
        <time>2021-07-17T04:35:32.000Z</time>
      </trkpt>
      <trkpt lat="45.21923" lon="5.72539">
        <ele>622.79998779297</ele>
        <time>2021-07-17T04:35:33.000Z</time>
      </trkpt>
      <trkpt lat="45.21921" lon="5.72541">
        <ele>623.20001220703</ele>
        <time>2021-07-17T04:35:35.000Z</time>
      </trkpt>
      <trkpt lat="45.2192" lon="5.72542">
        <ele>623.79998779297</ele>
        <time>2021-07-17T04:35:37.000Z</time>
      </trkpt>
      <trkpt lat="45.21918" lon="5.72544">
        <ele>624</ele>
        <time>2021-07-17T04:35:39.000Z</time>
      </trkpt>
      <trkpt lat="45.21916" lon="5.72544">
        <ele>624.79998779297</ele>
        <time>2021-07-17T04:35:40.000Z</time>
      </trkpt>
      <trkpt lat="45.21914" lon="5.72545">
        <ele>625</ele>
        <time>2021-07-17T04:35:41.000Z</time>
      </trkpt>
      <trkpt lat="45.21912" lon="5.72545">
        <ele>625.40002441406</ele>
        <time>2021-07-17T04:35:42.000Z</time>
      </trkpt>
      <trkpt lat="45.21911" lon="5.72546">
        <ele>625.59997558594</ele>
        <time>2021-07-17T04:35:43.000Z</time>
      </trkpt>
      <trkpt lat="45.21907" lon="5.72548">
        <ele>626.20001220703</ele>
        <time>2021-07-17T04:35:46.000Z</time>
      </trkpt>
      <trkpt lat="45.21906" lon="5.72549">
        <ele>627.20001220703</ele>
        <time>2021-07-17T04:35:47.000Z</time>
      </trkpt>
      <trkpt lat="45.21902" lon="5.72552">
        <ele>627.59997558594</ele>
        <time>2021-07-17T04:35:49.000Z</time>
      </trkpt>
      <trkpt lat="45.21899" lon="5.72553">
        <ele>628.20001220703</ele>
        <time>2021-07-17T04:35:52.000Z</time>
      </trkpt>
      <trkpt lat="45.21899" lon="5.72553">
        <ele>628.40002441406</ele>
        <time>2021-07-17T04:35:53.000Z</time>
      </trkpt>
      <trkpt lat="45.21896" lon="5.72554">
        <ele>628.40002441406</ele>
        <time>2021-07-17T04:35:54.000Z</time>
      </trkpt>
      <trkpt lat="45.21895" lon="5.72555">
        <ele>628.79998779297</ele>
        <time>2021-07-17T04:35:55.000Z</time>
      </trkpt>
      <trkpt lat="45.21894" lon="5.72557">
        <ele>629.59997558594</ele>
        <time>2021-07-17T04:35:58.000Z</time>
      </trkpt>
      <trkpt lat="45.2189" lon="5.72559">
        <ele>629.79998779297</ele>
        <time>2021-07-17T04:36:00.000Z</time>
      </trkpt>
      <trkpt lat="45.21889" lon="5.7256">
        <ele>630.40002441406</ele>
        <time>2021-07-17T04:36:01.000Z</time>
      </trkpt>
      <trkpt lat="45.21888" lon="5.72561">
        <ele>630.59997558594</ele>
        <time>2021-07-17T04:36:02.000Z</time>
      </trkpt>
      <trkpt lat="45.21885" lon="5.72562">
        <ele>631.40002441406</ele>
        <time>2021-07-17T04:36:05.000Z</time>
      </trkpt>
      <trkpt lat="45.21883" lon="5.72563">
        <ele>631.59997558594</ele>
        <time>2021-07-17T04:36:06.000Z</time>
      </trkpt>
      <trkpt lat="45.21881" lon="5.72562">
        <ele>631.79998779297</ele>
        <time>2021-07-17T04:36:07.000Z</time>
      </trkpt>
      <trkpt lat="45.2188" lon="5.72561">
        <ele>632.20001220703</ele>
        <time>2021-07-17T04:36:09.000Z</time>
      </trkpt>
      <trkpt lat="45.21879" lon="5.72562">
        <ele>632.59997558594</ele>
        <time>2021-07-17T04:36:11.000Z</time>
      </trkpt>
      <trkpt lat="45.21878" lon="5.72563">
        <ele>632.79998779297</ele>
        <time>2021-07-17T04:36:12.000Z</time>
      </trkpt>
      <trkpt lat="45.21876" lon="5.72566">
        <ele>633.20001220703</ele>
        <time>2021-07-17T04:36:14.000Z</time>
      </trkpt>
      <trkpt lat="45.21874" lon="5.72568">
        <ele>633.59997558594</ele>
        <time>2021-07-17T04:36:16.000Z</time>
      </trkpt>
      <trkpt lat="45.21873" lon="5.7257">
        <ele>633.59997558594</ele>
        <time>2021-07-17T04:36:17.000Z</time>
      </trkpt>
      <trkpt lat="45.21872" lon="5.72574">
        <ele>634.20001220703</ele>
        <time>2021-07-17T04:36:20.000Z</time>
      </trkpt>
      <trkpt lat="45.21867" lon="5.72581">
        <ele>635.20001220703</ele>
        <time>2021-07-17T04:36:25.000Z</time>
      </trkpt>
      <trkpt lat="45.21865" lon="5.72584">
        <ele>635.40002441406</ele>
        <time>2021-07-17T04:36:27.000Z</time>
      </trkpt>
      <trkpt lat="45.21864" lon="5.72585">
        <ele>636.40002441406</ele>
        <time>2021-07-17T04:36:28.000Z</time>
      </trkpt>
      <trkpt lat="45.21863" lon="5.72589">
        <ele>636.79998779297</ele>
        <time>2021-07-17T04:36:31.000Z</time>
      </trkpt>
      <trkpt lat="45.21863" lon="5.72591">
        <ele>637.20001220703</ele>
        <time>2021-07-17T04:36:32.000Z</time>
      </trkpt>
      <trkpt lat="45.21862" lon="5.72593">
        <ele>637.79998779297</ele>
        <time>2021-07-17T04:36:34.000Z</time>
      </trkpt>
      <trkpt lat="45.21862" lon="5.72596">
        <ele>638.20001220703</ele>
        <time>2021-07-17T04:36:37.000Z</time>
      </trkpt>
      <trkpt lat="45.21861" lon="5.72598">
        <ele>638.59997558594</ele>
        <time>2021-07-17T04:36:38.000Z</time>
      </trkpt>
      <trkpt lat="45.2186" lon="5.726">
        <ele>639</ele>
        <time>2021-07-17T04:36:40.000Z</time>
      </trkpt>
      <trkpt lat="45.21859" lon="5.72601">
        <ele>639.40002441406</ele>
        <time>2021-07-17T04:36:41.000Z</time>
      </trkpt>
      <trkpt lat="45.21859" lon="5.72602">
        <ele>640.20001220703</ele>
        <time>2021-07-17T04:36:43.000Z</time>
      </trkpt>
      <trkpt lat="45.21858" lon="5.72603">
        <ele>640.40002441406</ele>
        <time>2021-07-17T04:36:44.000Z</time>
      </trkpt>
      <trkpt lat="45.21857" lon="5.72605">
        <ele>640.79998779297</ele>
        <time>2021-07-17T04:36:45.000Z</time>
      </trkpt>
      <trkpt lat="45.21855" lon="5.72608">
        <ele>641.40002441406</ele>
        <time>2021-07-17T04:36:47.000Z</time>
      </trkpt>
      <trkpt lat="45.21855" lon="5.72609">
        <ele>641.40002441406</ele>
        <time>2021-07-17T04:36:48.000Z</time>
      </trkpt>
      <trkpt lat="45.21854" lon="5.72613">
        <ele>642.59997558594</ele>
        <time>2021-07-17T04:36:50.000Z</time>
      </trkpt>
      <trkpt lat="45.21854" lon="5.72614">
        <ele>642.79998779297</ele>
        <time>2021-07-17T04:36:51.000Z</time>
      </trkpt>
      <trkpt lat="45.21854" lon="5.72615">
        <ele>643</ele>
        <time>2021-07-17T04:36:52.000Z</time>
      </trkpt>
      <trkpt lat="45.21853" lon="5.72616">
        <ele>643.20001220703</ele>
        <time>2021-07-17T04:36:53.000Z</time>
      </trkpt>
      <trkpt lat="45.21853" lon="5.72617">
        <ele>643.59997558594</ele>
        <time>2021-07-17T04:36:54.000Z</time>
      </trkpt>
      <trkpt lat="45.21853" lon="5.72618">
        <ele>644.20001220703</ele>
        <time>2021-07-17T04:36:55.000Z</time>
      </trkpt>
      <trkpt lat="45.21852" lon="5.72619">
        <ele>644.79998779297</ele>
        <time>2021-07-17T04:36:57.000Z</time>
      </trkpt>
      <trkpt lat="45.21852" lon="5.72619">
        <ele>644.79998779297</ele>
        <time>2021-07-17T04:36:58.000Z</time>
      </trkpt>
      <trkpt lat="45.21853" lon="5.7262">
        <ele>645</ele>
        <time>2021-07-17T04:36:59.000Z</time>
      </trkpt>
      <trkpt lat="45.21851" lon="5.72625">
        <ele>646</ele>
        <time>2021-07-17T04:37:03.000Z</time>
      </trkpt>
      <trkpt lat="45.21852" lon="5.72625">
        <ele>646.20001220703</ele>
        <time>2021-07-17T04:37:04.000Z</time>
      </trkpt>
      <trkpt lat="45.21852" lon="5.72626">
        <ele>647.40002441406</ele>
        <time>2021-07-17T04:37:06.000Z</time>
      </trkpt>
      <trkpt lat="45.21852" lon="5.72627">
        <ele>647.59997558594</ele>
        <time>2021-07-17T04:37:07.000Z</time>
      </trkpt>
      <trkpt lat="45.21853" lon="5.72628">
        <ele>648</ele>
        <time>2021-07-17T04:37:09.000Z</time>
      </trkpt>
      <trkpt lat="45.21853" lon="5.72629">
        <ele>648</ele>
        <time>2021-07-17T04:37:10.000Z</time>
      </trkpt>
      <trkpt lat="45.21853" lon="5.7263">
        <ele>648.59997558594</ele>
        <time>2021-07-17T04:37:11.000Z</time>
      </trkpt>
      <trkpt lat="45.21852" lon="5.72631">
        <ele>648.79998779297</ele>
        <time>2021-07-17T04:37:12.000Z</time>
      </trkpt>
      <trkpt lat="45.21852" lon="5.72633">
        <ele>649.40002441406</ele>
        <time>2021-07-17T04:37:15.000Z</time>
      </trkpt>
      <trkpt lat="45.21852" lon="5.72634">
        <ele>649.79998779297</ele>
        <time>2021-07-17T04:37:16.000Z</time>
      </trkpt>
      <trkpt lat="45.21853" lon="5.72634">
        <ele>650.59997558594</ele>
        <time>2021-07-17T04:37:17.000Z</time>
      </trkpt>
      <trkpt lat="45.21854" lon="5.72635">
        <ele>651</ele>
        <time>2021-07-17T04:37:19.000Z</time>
      </trkpt>
      <trkpt lat="45.21856" lon="5.72636">
        <ele>652</ele>
        <time>2021-07-17T04:37:23.000Z</time>
      </trkpt>
      <trkpt lat="45.21856" lon="5.72636">
        <ele>652</ele>
        <time>2021-07-17T04:37:24.000Z</time>
      </trkpt>
      <trkpt lat="45.21858" lon="5.72636">
        <ele>653</ele>
        <time>2021-07-17T04:37:26.000Z</time>
      </trkpt>
      <trkpt lat="45.2186" lon="5.72635">
        <ele>653.79998779297</ele>
        <time>2021-07-17T04:37:30.000Z</time>
      </trkpt>
      <trkpt lat="45.2186" lon="5.72634">
        <ele>654.20001220703</ele>
        <time>2021-07-17T04:37:31.000Z</time>
      </trkpt>
      <trkpt lat="45.2186" lon="5.72635">
        <ele>654.59997558594</ele>
        <time>2021-07-17T04:37:33.000Z</time>
      </trkpt>
      <trkpt lat="45.2186" lon="5.72634">
        <ele>654.79998779297</ele>
        <time>2021-07-17T04:37:34.000Z</time>
      </trkpt>
      <trkpt lat="45.21861" lon="5.72633">
        <ele>655.79998779297</ele>
        <time>2021-07-17T04:37:36.000Z</time>
      </trkpt>
      <trkpt lat="45.21862" lon="5.72633">
        <ele>656</ele>
        <time>2021-07-17T04:37:38.000Z</time>
      </trkpt>
      <trkpt lat="45.21863" lon="5.72632">
        <ele>656.79998779297</ele>
        <time>2021-07-17T04:37:40.000Z</time>
      </trkpt>
      <trkpt lat="45.21866" lon="5.72629">
        <ele>658</ele>
        <time>2021-07-17T04:37:45.000Z</time>
      </trkpt>
      <trkpt lat="45.21868" lon="5.72627">
        <ele>659</ele>
        <time>2021-07-17T04:37:48.000Z</time>
      </trkpt>
      <trkpt lat="45.21869" lon="5.72626">
        <ele>659.40002441406</ele>
        <time>2021-07-17T04:37:50.000Z</time>
      </trkpt>
      <trkpt lat="45.2187" lon="5.72626">
        <ele>660.59997558594</ele>
        <time>2021-07-17T04:37:53.000Z</time>
      </trkpt>
      <trkpt lat="45.21871" lon="5.72626">
        <ele>660.79998779297</ele>
        <time>2021-07-17T04:37:54.000Z</time>
      </trkpt>
      <trkpt lat="45.21872" lon="5.72626">
        <ele>661.59997558594</ele>
        <time>2021-07-17T04:37:56.000Z</time>
      </trkpt>
      <trkpt lat="45.21875" lon="5.72623">
        <ele>663.20001220703</ele>
        <time>2021-07-17T04:38:02.000Z</time>
      </trkpt>
      <trkpt lat="45.21878" lon="5.72622">
        <ele>664.20001220703</ele>
        <time>2021-07-17T04:38:06.000Z</time>
      </trkpt>
      <trkpt lat="45.21881" lon="5.7262">
        <ele>665.40002441406</ele>
        <time>2021-07-17T04:38:10.000Z</time>
      </trkpt>
      <trkpt lat="45.21883" lon="5.72619">
        <ele>665.79998779297</ele>
        <time>2021-07-17T04:38:11.000Z</time>
      </trkpt>
      <trkpt lat="45.21885" lon="5.72619">
        <ele>666.59997558594</ele>
        <time>2021-07-17T04:38:14.000Z</time>
      </trkpt>
      <trkpt lat="45.21887" lon="5.72619">
        <ele>667.79998779297</ele>
        <time>2021-07-17T04:38:17.000Z</time>
      </trkpt>
      <trkpt lat="45.21892" lon="5.72619">
        <ele>668.79998779297</ele>
        <time>2021-07-17T04:38:22.000Z</time>
      </trkpt>
      <trkpt lat="45.21893" lon="5.7262">
        <ele>669</ele>
        <time>2021-07-17T04:38:24.000Z</time>
      </trkpt>
      <trkpt lat="45.21895" lon="5.72622">
        <ele>669.79998779297</ele>
        <time>2021-07-17T04:38:27.000Z</time>
      </trkpt>
      <trkpt lat="45.21897" lon="5.72624">
        <ele>670.79998779297</ele>
        <time>2021-07-17T04:38:30.000Z</time>
      </trkpt>
      <trkpt lat="45.21897" lon="5.72624">
        <ele>671</ele>
        <time>2021-07-17T04:38:31.000Z</time>
      </trkpt>
      <trkpt lat="45.21898" lon="5.72624">
        <ele>672.20001220703</ele>
        <time>2021-07-17T04:38:33.000Z</time>
      </trkpt>
      <trkpt lat="45.21899" lon="5.72626">
        <ele>673</ele>
        <time>2021-07-17T04:38:37.000Z</time>
      </trkpt>
      <trkpt lat="45.21899" lon="5.72626">
        <ele>673.20001220703</ele>
        <time>2021-07-17T04:38:38.000Z</time>
      </trkpt>
      <trkpt lat="45.21905" lon="5.72631">
        <ele>674.59997558594</ele>
        <time>2021-07-17T04:38:43.000Z</time>
      </trkpt>
      <trkpt lat="45.21906" lon="5.72633">
        <ele>675</ele>
        <time>2021-07-17T04:38:45.000Z</time>
      </trkpt>
      <trkpt lat="45.21908" lon="5.7264">
        <ele>675.79998779297</ele>
        <time>2021-07-17T04:38:49.000Z</time>
      </trkpt>
      <trkpt lat="45.21909" lon="5.72641">
        <ele>675.79998779297</ele>
        <time>2021-07-17T04:38:50.000Z</time>
      </trkpt>
      <trkpt lat="45.21909" lon="5.72642">
        <ele>676</ele>
        <time>2021-07-17T04:38:51.000Z</time>
      </trkpt>
      <trkpt lat="45.21912" lon="5.72644">
        <ele>676.79998779297</ele>
        <time>2021-07-17T04:38:53.000Z</time>
      </trkpt>
      <trkpt lat="45.21913" lon="5.72645">
        <ele>677.59997558594</ele>
        <time>2021-07-17T04:38:56.000Z</time>
      </trkpt>
      <trkpt lat="45.21913" lon="5.72645">
        <ele>678</ele>
        <time>2021-07-17T04:38:57.000Z</time>
      </trkpt>
      <trkpt lat="45.21916" lon="5.72648">
        <ele>679.59997558594</ele>
        <time>2021-07-17T04:39:03.000Z</time>
      </trkpt>
      <trkpt lat="45.2192" lon="5.7265">
        <ele>680.59997558594</ele>
        <time>2021-07-17T04:39:08.000Z</time>
      </trkpt>
      <trkpt lat="45.21922" lon="5.7265">
        <ele>681.59997558594</ele>
        <time>2021-07-17T04:39:10.000Z</time>
      </trkpt>
      <trkpt lat="45.21923" lon="5.72651">
        <ele>681.79998779297</ele>
        <time>2021-07-17T04:39:11.000Z</time>
      </trkpt>
      <trkpt lat="45.21927" lon="5.72654">
        <ele>683</ele>
        <time>2021-07-17T04:39:16.000Z</time>
      </trkpt>
      <trkpt lat="45.21927" lon="5.72655">
        <ele>683.40002441406</ele>
        <time>2021-07-17T04:39:17.000Z</time>
      </trkpt>
      <trkpt lat="45.21929" lon="5.72657">
        <ele>684.20001220703</ele>
        <time>2021-07-17T04:39:21.000Z</time>
      </trkpt>
      <trkpt lat="45.21932" lon="5.72658">
        <ele>684.59997558594</ele>
        <time>2021-07-17T04:39:24.000Z</time>
      </trkpt>
      <trkpt lat="45.21933" lon="5.72659">
        <ele>685.20001220703</ele>
        <time>2021-07-17T04:39:26.000Z</time>
      </trkpt>
      <trkpt lat="45.21935" lon="5.72661">
        <ele>686.40002441406</ele>
        <time>2021-07-17T04:39:28.000Z</time>
      </trkpt>
      <trkpt lat="45.21938" lon="5.72664">
        <ele>686.59997558594</ele>
        <time>2021-07-17T04:39:31.000Z</time>
      </trkpt>
      <trkpt lat="45.21939" lon="5.72664">
        <ele>687.59997558594</ele>
        <time>2021-07-17T04:39:32.000Z</time>
      </trkpt>
      <trkpt lat="45.2194" lon="5.72664">
        <ele>687.59997558594</ele>
        <time>2021-07-17T04:39:33.000Z</time>
      </trkpt>
      <trkpt lat="45.21943" lon="5.72666">
        <ele>688</ele>
        <time>2021-07-17T04:39:35.000Z</time>
      </trkpt>
      <trkpt lat="45.21945" lon="5.72667">
        <ele>688</ele>
        <time>2021-07-17T04:39:36.000Z</time>
      </trkpt>
      <trkpt lat="45.21946" lon="5.72667">
        <ele>688.40002441406</ele>
        <time>2021-07-17T04:39:37.000Z</time>
      </trkpt>
      <trkpt lat="45.21948" lon="5.72668">
        <ele>688.40002441406</ele>
        <time>2021-07-17T04:39:38.000Z</time>
      </trkpt>
      <trkpt lat="45.21949" lon="5.72669">
        <ele>688.79998779297</ele>
        <time>2021-07-17T04:39:39.000Z</time>
      </trkpt>
      <trkpt lat="45.21955" lon="5.72671">
        <ele>688.59997558594</ele>
        <time>2021-07-17T04:39:42.000Z</time>
      </trkpt>
      <trkpt lat="45.21964" lon="5.72674">
        <ele>687.59997558594</ele>
        <time>2021-07-17T04:39:47.000Z</time>
      </trkpt>
      <trkpt lat="45.21972" lon="5.72676">
        <ele>686.79998779297</ele>
        <time>2021-07-17T04:39:51.000Z</time>
      </trkpt>
      <trkpt lat="45.21976" lon="5.72676">
        <ele>686.59997558594</ele>
        <time>2021-07-17T04:39:53.000Z</time>
      </trkpt>
      <trkpt lat="45.21988" lon="5.72678">
        <ele>686.20001220703</ele>
        <time>2021-07-17T04:39:59.000Z</time>
      </trkpt>
      <trkpt lat="45.21992" lon="5.7268">
        <ele>685.40002441406</ele>
        <time>2021-07-17T04:40:01.000Z</time>
      </trkpt>
      <trkpt lat="45.21996" lon="5.72682">
        <ele>684.59997558594</ele>
        <time>2021-07-17T04:40:04.000Z</time>
      </trkpt>
      <trkpt lat="45.22" lon="5.72685">
        <ele>683.59997558594</ele>
        <time>2021-07-17T04:40:07.000Z</time>
      </trkpt>
      <trkpt lat="45.22004" lon="5.7269">
        <ele>682.59997558594</ele>
        <time>2021-07-17T04:40:10.000Z</time>
      </trkpt>
      <trkpt lat="45.22005" lon="5.7269">
        <ele>682.40002441406</ele>
        <time>2021-07-17T04:40:11.000Z</time>
      </trkpt>
      <trkpt lat="45.22012" lon="5.72696">
        <ele>681</ele>
        <time>2021-07-17T04:40:15.000Z</time>
      </trkpt>
      <trkpt lat="45.22015" lon="5.727">
        <ele>680</ele>
        <time>2021-07-17T04:40:17.000Z</time>
      </trkpt>
      <trkpt lat="45.22016" lon="5.72702">
        <ele>680</ele>
        <time>2021-07-17T04:40:18.000Z</time>
      </trkpt>
      <trkpt lat="45.2202" lon="5.72706">
        <ele>678.79998779297</ele>
        <time>2021-07-17T04:40:20.000Z</time>
      </trkpt>
      <trkpt lat="45.22023" lon="5.72707">
        <ele>678.40002441406</ele>
        <time>2021-07-17T04:40:22.000Z</time>
      </trkpt>
      <trkpt lat="45.22025" lon="5.72707">
        <ele>678.20001220703</ele>
        <time>2021-07-17T04:40:23.000Z</time>
      </trkpt>
      <trkpt lat="45.22028" lon="5.72708">
        <ele>677.20001220703</ele>
        <time>2021-07-17T04:40:25.000Z</time>
      </trkpt>
      <trkpt lat="45.22036" lon="5.7271">
        <ele>676.79998779297</ele>
        <time>2021-07-17T04:40:29.000Z</time>
      </trkpt>
      <trkpt lat="45.22039" lon="5.72712">
        <ele>676.20001220703</ele>
        <time>2021-07-17T04:40:31.000Z</time>
      </trkpt>
      <trkpt lat="45.22045" lon="5.72719">
        <ele>675.59997558594</ele>
        <time>2021-07-17T04:40:34.000Z</time>
      </trkpt>
      <trkpt lat="45.22048" lon="5.72721">
        <ele>675.59997558594</ele>
        <time>2021-07-17T04:40:35.000Z</time>
      </trkpt>
      <trkpt lat="45.22062" lon="5.72728">
        <ele>675.79998779297</ele>
        <time>2021-07-17T04:40:42.000Z</time>
      </trkpt>
      <trkpt lat="45.22063" lon="5.72729">
        <ele>675.79998779297</ele>
        <time>2021-07-17T04:40:43.000Z</time>
      </trkpt>
      <trkpt lat="45.22069" lon="5.72731">
        <ele>677.20001220703</ele>
        <time>2021-07-17T04:40:48.000Z</time>
      </trkpt>
      <trkpt lat="45.2207" lon="5.72732">
        <ele>677.20001220703</ele>
        <time>2021-07-17T04:40:49.000Z</time>
      </trkpt>
      <trkpt lat="45.22074" lon="5.72731">
        <ele>678.20001220703</ele>
        <time>2021-07-17T04:40:52.000Z</time>
      </trkpt>
      <trkpt lat="45.2208" lon="5.72732">
        <ele>679.20001220703</ele>
        <time>2021-07-17T04:40:56.000Z</time>
      </trkpt>
      <trkpt lat="45.22082" lon="5.72733">
        <ele>679.20001220703</ele>
        <time>2021-07-17T04:40:57.000Z</time>
      </trkpt>
      <trkpt lat="45.22085" lon="5.72736">
        <ele>679.59997558594</ele>
        <time>2021-07-17T04:40:59.000Z</time>
      </trkpt>
      <trkpt lat="45.22087" lon="5.72738">
        <ele>680.40002441406</ele>
        <time>2021-07-17T04:41:01.000Z</time>
      </trkpt>
      <trkpt lat="45.22088" lon="5.72739">
        <ele>680.79998779297</ele>
        <time>2021-07-17T04:41:02.000Z</time>
      </trkpt>
      <trkpt lat="45.2209" lon="5.72739">
        <ele>681</ele>
        <time>2021-07-17T04:41:03.000Z</time>
      </trkpt>
      <trkpt lat="45.22092" lon="5.72739">
        <ele>681.20001220703</ele>
        <time>2021-07-17T04:41:05.000Z</time>
      </trkpt>
      <trkpt lat="45.22092" lon="5.72741">
        <ele>681.20001220703</ele>
        <time>2021-07-17T04:41:06.000Z</time>
      </trkpt>
      <trkpt lat="45.22094" lon="5.72742">
        <ele>682.40002441406</ele>
        <time>2021-07-17T04:41:07.000Z</time>
      </trkpt>
      <trkpt lat="45.221" lon="5.72742">
        <ele>682.79998779297</ele>
        <time>2021-07-17T04:41:10.000Z</time>
      </trkpt>
      <trkpt lat="45.22104" lon="5.72744">
        <ele>683.59997558594</ele>
        <time>2021-07-17T04:41:12.000Z</time>
      </trkpt>
      <trkpt lat="45.22113" lon="5.72755">
        <ele>683.79998779297</ele>
        <time>2021-07-17T04:41:18.000Z</time>
      </trkpt>
      <trkpt lat="45.22115" lon="5.72757">
        <ele>683.59997558594</ele>
        <time>2021-07-17T04:41:20.000Z</time>
      </trkpt>
      <trkpt lat="45.22119" lon="5.72759">
        <ele>683.40002441406</ele>
        <time>2021-07-17T04:41:23.000Z</time>
      </trkpt>
      <trkpt lat="45.22128" lon="5.72759">
        <ele>682.40002441406</ele>
        <time>2021-07-17T04:41:28.000Z</time>
      </trkpt>
      <trkpt lat="45.22129" lon="5.72759">
        <ele>682.20001220703</ele>
        <time>2021-07-17T04:41:29.000Z</time>
      </trkpt>
      <trkpt lat="45.2213" lon="5.72759">
        <ele>682</ele>
        <time>2021-07-17T04:41:30.000Z</time>
      </trkpt>
      <trkpt lat="45.22131" lon="5.72759">
        <ele>681.59997558594</ele>
        <time>2021-07-17T04:41:31.000Z</time>
      </trkpt>
      <trkpt lat="45.22132" lon="5.72759">
        <ele>681.40002441406</ele>
        <time>2021-07-17T04:41:32.000Z</time>
      </trkpt>
      <trkpt lat="45.22133" lon="5.7276">
        <ele>681.40002441406</ele>
        <time>2021-07-17T04:41:33.000Z</time>
      </trkpt>
      <trkpt lat="45.22133" lon="5.7276">
        <ele>680.79998779297</ele>
        <time>2021-07-17T04:41:34.000Z</time>
      </trkpt>
      <trkpt lat="45.22133" lon="5.7276">
        <ele>680</ele>
        <time>2021-07-17T04:41:35.000Z</time>
      </trkpt>
      <trkpt lat="45.22133" lon="5.72762">
        <ele>679.59997558594</ele>
        <time>2021-07-17T04:41:36.000Z</time>
      </trkpt>
      <trkpt lat="45.22134" lon="5.72763">
        <ele>679</ele>
        <time>2021-07-17T04:41:39.000Z</time>
      </trkpt>
      <trkpt lat="45.22134" lon="5.72761">
        <ele>678.40002441406</ele>
        <time>2021-07-17T04:41:40.000Z</time>
      </trkpt>
      <trkpt lat="45.22135" lon="5.7276">
        <ele>677.79998779297</ele>
        <time>2021-07-17T04:41:41.000Z</time>
      </trkpt>
      <trkpt lat="45.22136" lon="5.72759">
        <ele>677.79998779297</ele>
        <time>2021-07-17T04:41:42.000Z</time>
      </trkpt>
      <trkpt lat="45.22138" lon="5.72757">
        <ele>677.40002441406</ele>
        <time>2021-07-17T04:41:44.000Z</time>
      </trkpt>
      <trkpt lat="45.2214" lon="5.72757">
        <ele>677</ele>
        <time>2021-07-17T04:41:45.000Z</time>
      </trkpt>
      <trkpt lat="45.22141" lon="5.72757">
        <ele>676.20001220703</ele>
        <time>2021-07-17T04:41:46.000Z</time>
      </trkpt>
      <trkpt lat="45.22142" lon="5.72756">
        <ele>675</ele>
        <time>2021-07-17T04:41:47.000Z</time>
      </trkpt>
      <trkpt lat="45.22146" lon="5.72755">
        <ele>674.20001220703</ele>
        <time>2021-07-17T04:41:51.000Z</time>
      </trkpt>
      <trkpt lat="45.22147" lon="5.72754">
        <ele>674.20001220703</ele>
        <time>2021-07-17T04:41:52.000Z</time>
      </trkpt>
      <trkpt lat="45.22148" lon="5.72753">
        <ele>673.40002441406</ele>
        <time>2021-07-17T04:41:53.000Z</time>
      </trkpt>
      <trkpt lat="45.22149" lon="5.72752">
        <ele>672.79998779297</ele>
        <time>2021-07-17T04:41:54.000Z</time>
      </trkpt>
      <trkpt lat="45.22152" lon="5.72749">
        <ele>672.20001220703</ele>
        <time>2021-07-17T04:41:56.000Z</time>
      </trkpt>
      <trkpt lat="45.22153" lon="5.72748">
        <ele>672</ele>
        <time>2021-07-17T04:41:57.000Z</time>
      </trkpt>
      <trkpt lat="45.22154" lon="5.72747">
        <ele>671.20001220703</ele>
        <time>2021-07-17T04:41:58.000Z</time>
      </trkpt>
      <trkpt lat="45.22156" lon="5.72744">
        <ele>670.79998779297</ele>
        <time>2021-07-17T04:42:00.000Z</time>
      </trkpt>
      <trkpt lat="45.22157" lon="5.72743">
        <ele>669.79998779297</ele>
        <time>2021-07-17T04:42:02.000Z</time>
      </trkpt>
      <trkpt lat="45.22158" lon="5.72742">
        <ele>669.40002441406</ele>
        <time>2021-07-17T04:42:03.000Z</time>
      </trkpt>
      <trkpt lat="45.22158" lon="5.72739">
        <ele>668.40002441406</ele>
        <time>2021-07-17T04:42:05.000Z</time>
      </trkpt>
      <trkpt lat="45.22158" lon="5.72738">
        <ele>667.40002441406</ele>
        <time>2021-07-17T04:42:06.000Z</time>
      </trkpt>
      <trkpt lat="45.22161" lon="5.72734">
        <ele>667</ele>
        <time>2021-07-17T04:42:08.000Z</time>
      </trkpt>
      <trkpt lat="45.22162" lon="5.72728">
        <ele>666.20001220703</ele>
        <time>2021-07-17T04:42:10.000Z</time>
      </trkpt>
      <trkpt lat="45.22168" lon="5.72719">
        <ele>666.79998779297</ele>
        <time>2021-07-17T04:42:14.000Z</time>
      </trkpt>
      <trkpt lat="45.22171" lon="5.72716">
        <ele>667.40002441406</ele>
        <time>2021-07-17T04:42:16.000Z</time>
      </trkpt>
      <trkpt lat="45.22175" lon="5.72711">
        <ele>668.20001220703</ele>
        <time>2021-07-17T04:42:19.000Z</time>
      </trkpt>
      <trkpt lat="45.22177" lon="5.7271">
        <ele>668.59997558594</ele>
        <time>2021-07-17T04:42:20.000Z</time>
      </trkpt>
      <trkpt lat="45.22178" lon="5.72709">
        <ele>668.59997558594</ele>
        <time>2021-07-17T04:42:21.000Z</time>
      </trkpt>
      <trkpt lat="45.22181" lon="5.72708">
        <ele>668.79998779297</ele>
        <time>2021-07-17T04:42:23.000Z</time>
      </trkpt>
      <trkpt lat="45.22182" lon="5.72707">
        <ele>669.59997558594</ele>
        <time>2021-07-17T04:42:24.000Z</time>
      </trkpt>
      <trkpt lat="45.22184" lon="5.72705">
        <ele>669.59997558594</ele>
        <time>2021-07-17T04:42:25.000Z</time>
      </trkpt>
      <trkpt lat="45.22199" lon="5.727">
        <ele>669.79998779297</ele>
        <time>2021-07-17T04:42:32.000Z</time>
      </trkpt>
      <trkpt lat="45.22206" lon="5.72697">
        <ele>669.79998779297</ele>
        <time>2021-07-17T04:42:36.000Z</time>
      </trkpt>
      <trkpt lat="45.22211" lon="5.72698">
        <ele>669.79998779297</ele>
        <time>2021-07-17T04:42:38.000Z</time>
      </trkpt>
      <trkpt lat="45.22214" lon="5.727">
        <ele>669.59997558594</ele>
        <time>2021-07-17T04:42:40.000Z</time>
      </trkpt>
      <trkpt lat="45.22219" lon="5.727">
        <ele>669.40002441406</ele>
        <time>2021-07-17T04:42:43.000Z</time>
      </trkpt>
      <trkpt lat="45.22223" lon="5.72702">
        <ele>669.40002441406</ele>
        <time>2021-07-17T04:42:45.000Z</time>
      </trkpt>
      <trkpt lat="45.22226" lon="5.72704">
        <ele>669.40002441406</ele>
        <time>2021-07-17T04:42:47.000Z</time>
      </trkpt>
      <trkpt lat="45.22236" lon="5.72707">
        <ele>668.79998779297</ele>
        <time>2021-07-17T04:42:50.000Z</time>
      </trkpt>
      <trkpt lat="45.22238" lon="5.72707">
        <ele>668.79998779297</ele>
        <time>2021-07-17T04:42:51.000Z</time>
      </trkpt>
      <trkpt lat="45.22251" lon="5.7271">
        <ele>669.79998779297</ele>
        <time>2021-07-17T04:42:56.000Z</time>
      </trkpt>
      <trkpt lat="45.22255" lon="5.72714">
        <ele>670</ele>
        <time>2021-07-17T04:42:59.000Z</time>
      </trkpt>
      <trkpt lat="45.22257" lon="5.72716">
        <ele>670</ele>
        <time>2021-07-17T04:43:00.000Z</time>
      </trkpt>
      <trkpt lat="45.2226" lon="5.72716">
        <ele>670.40002441406</ele>
        <time>2021-07-17T04:43:01.000Z</time>
      </trkpt>
      <trkpt lat="45.22262" lon="5.72716">
        <ele>670.40002441406</ele>
        <time>2021-07-17T04:43:02.000Z</time>
      </trkpt>
      <trkpt lat="45.22267" lon="5.72715">
        <ele>670.79998779297</ele>
        <time>2021-07-17T04:43:05.000Z</time>
      </trkpt>
      <trkpt lat="45.22272" lon="5.72716">
        <ele>670.79998779297</ele>
        <time>2021-07-17T04:43:07.000Z</time>
      </trkpt>
      <trkpt lat="45.22276" lon="5.72717">
        <ele>671</ele>
        <time>2021-07-17T04:43:09.000Z</time>
      </trkpt>
      <trkpt lat="45.22283" lon="5.72722">
        <ele>672</ele>
        <time>2021-07-17T04:43:12.000Z</time>
      </trkpt>
      <trkpt lat="45.22286" lon="5.72724">
        <ele>672</ele>
        <time>2021-07-17T04:43:13.000Z</time>
      </trkpt>
      <trkpt lat="45.223" lon="5.72727">
        <ele>671.59997558594</ele>
        <time>2021-07-17T04:43:20.000Z</time>
      </trkpt>
      <trkpt lat="45.22306" lon="5.72723">
        <ele>670.59997558594</ele>
        <time>2021-07-17T04:43:25.000Z</time>
      </trkpt>
      <trkpt lat="45.22308" lon="5.72724">
        <ele>670.59997558594</ele>
        <time>2021-07-17T04:43:26.000Z</time>
      </trkpt>
      <trkpt lat="45.2231" lon="5.72724">
        <ele>670.20001220703</ele>
        <time>2021-07-17T04:43:27.000Z</time>
      </trkpt>
      <trkpt lat="45.22312" lon="5.72725">
        <ele>669.40002441406</ele>
        <time>2021-07-17T04:43:28.000Z</time>
      </trkpt>
      <trkpt lat="45.22316" lon="5.72725">
        <ele>669.40002441406</ele>
        <time>2021-07-17T04:43:31.000Z</time>
      </trkpt>
      <trkpt lat="45.22319" lon="5.72724">
        <ele>668.79998779297</ele>
        <time>2021-07-17T04:43:33.000Z</time>
      </trkpt>
      <trkpt lat="45.2232" lon="5.72725">
        <ele>668.20001220703</ele>
        <time>2021-07-17T04:43:34.000Z</time>
      </trkpt>
      <trkpt lat="45.22331" lon="5.72726">
        <ele>667.79998779297</ele>
        <time>2021-07-17T04:43:39.000Z</time>
      </trkpt>
      <trkpt lat="45.22332" lon="5.72725">
        <ele>667.20001220703</ele>
        <time>2021-07-17T04:43:40.000Z</time>
      </trkpt>
      <trkpt lat="45.22335" lon="5.72725">
        <ele>666.79998779297</ele>
        <time>2021-07-17T04:43:42.000Z</time>
      </trkpt>
      <trkpt lat="45.22339" lon="5.72726">
        <ele>666.40002441406</ele>
        <time>2021-07-17T04:43:45.000Z</time>
      </trkpt>
      <trkpt lat="45.22345" lon="5.72724">
        <ele>666</ele>
        <time>2021-07-17T04:43:48.000Z</time>
      </trkpt>
      <trkpt lat="45.22346" lon="5.72724">
        <ele>666</ele>
        <time>2021-07-17T04:43:49.000Z</time>
      </trkpt>
      <trkpt lat="45.22348" lon="5.72724">
        <ele>666</ele>
        <time>2021-07-17T04:43:50.000Z</time>
      </trkpt>
      <trkpt lat="45.22351" lon="5.72723">
        <ele>666</ele>
        <time>2021-07-17T04:43:52.000Z</time>
      </trkpt>
      <trkpt lat="45.22356" lon="5.72723">
        <ele>666</ele>
        <time>2021-07-17T04:43:55.000Z</time>
      </trkpt>
      <trkpt lat="45.2236" lon="5.72723">
        <ele>666</ele>
        <time>2021-07-17T04:43:57.000Z</time>
      </trkpt>
      <trkpt lat="45.22371" lon="5.72723">
        <ele>666.40002441406</ele>
        <time>2021-07-17T04:44:01.000Z</time>
      </trkpt>
      <trkpt lat="45.22376" lon="5.72726">
        <ele>667</ele>
        <time>2021-07-17T04:44:03.000Z</time>
      </trkpt>
      <trkpt lat="45.22381" lon="5.7273">
        <ele>667.40002441406</ele>
        <time>2021-07-17T04:44:05.000Z</time>
      </trkpt>
      <trkpt lat="45.22384" lon="5.72733">
        <ele>667.20001220703</ele>
        <time>2021-07-17T04:44:07.000Z</time>
      </trkpt>
      <trkpt lat="45.22393" lon="5.72735">
        <ele>666.79998779297</ele>
        <time>2021-07-17T04:44:11.000Z</time>
      </trkpt>
      <trkpt lat="45.22396" lon="5.72735">
        <ele>666.40002441406</ele>
        <time>2021-07-17T04:44:12.000Z</time>
      </trkpt>
      <trkpt lat="45.22401" lon="5.72734">
        <ele>665.40002441406</ele>
        <time>2021-07-17T04:44:16.000Z</time>
      </trkpt>
      <trkpt lat="45.22402" lon="5.72733">
        <ele>664.79998779297</ele>
        <time>2021-07-17T04:44:18.000Z</time>
      </trkpt>
      <trkpt lat="45.22402" lon="5.72732">
        <ele>664.59997558594</ele>
        <time>2021-07-17T04:44:19.000Z</time>
      </trkpt>
      <trkpt lat="45.22403" lon="5.72731">
        <ele>663.79998779297</ele>
        <time>2021-07-17T04:44:21.000Z</time>
      </trkpt>
      <trkpt lat="45.22406" lon="5.72731">
        <ele>663</ele>
        <time>2021-07-17T04:44:23.000Z</time>
      </trkpt>
      <trkpt lat="45.22407" lon="5.7273">
        <ele>662.59997558594</ele>
        <time>2021-07-17T04:44:24.000Z</time>
      </trkpt>
      <trkpt lat="45.22409" lon="5.7273">
        <ele>662.40002441406</ele>
        <time>2021-07-17T04:44:25.000Z</time>
      </trkpt>
      <trkpt lat="45.22411" lon="5.72729">
        <ele>662.40002441406</ele>
        <time>2021-07-17T04:44:26.000Z</time>
      </trkpt>
      <trkpt lat="45.22413" lon="5.72728">
        <ele>660.79998779297</ele>
        <time>2021-07-17T04:44:28.000Z</time>
      </trkpt>
      <trkpt lat="45.22416" lon="5.72726">
        <ele>660.59997558594</ele>
        <time>2021-07-17T04:44:30.000Z</time>
      </trkpt>
      <trkpt lat="45.22417" lon="5.72726">
        <ele>660.40002441406</ele>
        <time>2021-07-17T04:44:31.000Z</time>
      </trkpt>
      <trkpt lat="45.22422" lon="5.72724">
        <ele>659.59997558594</ele>
        <time>2021-07-17T04:44:33.000Z</time>
      </trkpt>
      <trkpt lat="45.22429" lon="5.72724">
        <ele>658.79998779297</ele>
        <time>2021-07-17T04:44:36.000Z</time>
      </trkpt>
      <trkpt lat="45.22431" lon="5.72726">
        <ele>658.20001220703</ele>
        <time>2021-07-17T04:44:37.000Z</time>
      </trkpt>
      <trkpt lat="45.22434" lon="5.72726">
        <ele>658.20001220703</ele>
        <time>2021-07-17T04:44:38.000Z</time>
      </trkpt>
      <trkpt lat="45.22438" lon="5.72728">
        <ele>657.79998779297</ele>
        <time>2021-07-17T04:44:40.000Z</time>
      </trkpt>
      <trkpt lat="45.22443" lon="5.7273">
        <ele>657.79998779297</ele>
        <time>2021-07-17T04:44:42.000Z</time>
      </trkpt>
      <trkpt lat="45.22446" lon="5.72731">
        <ele>657.79998779297</ele>
        <time>2021-07-17T04:44:44.000Z</time>
      </trkpt>
      <trkpt lat="45.22449" lon="5.72731">
        <ele>657.79998779297</ele>
        <time>2021-07-17T04:44:45.000Z</time>
      </trkpt>
      <trkpt lat="45.2245" lon="5.72732">
        <ele>657.79998779297</ele>
        <time>2021-07-17T04:44:46.000Z</time>
      </trkpt>
      <trkpt lat="45.22455" lon="5.72734">
        <ele>657</ele>
        <time>2021-07-17T04:44:49.000Z</time>
      </trkpt>
      <trkpt lat="45.22457" lon="5.72736">
        <ele>658</ele>
        <time>2021-07-17T04:44:50.000Z</time>
      </trkpt>
      <trkpt lat="45.22458" lon="5.72738">
        <ele>657.40002441406</ele>
        <time>2021-07-17T04:44:51.000Z</time>
      </trkpt>
      <trkpt lat="45.2246" lon="5.72739">
        <ele>657</ele>
        <time>2021-07-17T04:44:52.000Z</time>
      </trkpt>
      <trkpt lat="45.22464" lon="5.72743">
        <ele>657.40002441406</ele>
        <time>2021-07-17T04:44:55.000Z</time>
      </trkpt>
      <trkpt lat="45.22468" lon="5.72745">
        <ele>657.79998779297</ele>
        <time>2021-07-17T04:44:57.000Z</time>
      </trkpt>
      <trkpt lat="45.2247" lon="5.72746">
        <ele>658.20001220703</ele>
        <time>2021-07-17T04:44:58.000Z</time>
      </trkpt>
      <trkpt lat="45.22473" lon="5.72748">
        <ele>658.59997558594</ele>
        <time>2021-07-17T04:45:00.000Z</time>
      </trkpt>
      <trkpt lat="45.22479" lon="5.7275">
        <ele>659.59997558594</ele>
        <time>2021-07-17T04:45:03.000Z</time>
      </trkpt>
      <trkpt lat="45.2248" lon="5.72751">
        <ele>659.59997558594</ele>
        <time>2021-07-17T04:45:04.000Z</time>
      </trkpt>
      <trkpt lat="45.22481" lon="5.72752">
        <ele>659.59997558594</ele>
        <time>2021-07-17T04:45:05.000Z</time>
      </trkpt>
      <trkpt lat="45.22484" lon="5.72754">
        <ele>659.20001220703</ele>
        <time>2021-07-17T04:45:08.000Z</time>
      </trkpt>
      <trkpt lat="45.22484" lon="5.72753">
        <ele>659.20001220703</ele>
        <time>2021-07-17T04:45:09.000Z</time>
      </trkpt>
      <trkpt lat="45.22486" lon="5.72747">
        <ele>659.20001220703</ele>
        <time>2021-07-17T04:45:12.000Z</time>
      </trkpt>
      <trkpt lat="45.22487" lon="5.72745">
        <ele>659.20001220703</ele>
        <time>2021-07-17T04:45:13.000Z</time>
      </trkpt>
      <trkpt lat="45.22488" lon="5.72743">
        <ele>659</ele>
        <time>2021-07-17T04:45:14.000Z</time>
      </trkpt>
      <trkpt lat="45.22492" lon="5.72734">
        <ele>658.59997558594</ele>
        <time>2021-07-17T04:45:19.000Z</time>
      </trkpt>
      <trkpt lat="45.22492" lon="5.72732">
        <ele>658.59997558594</ele>
        <time>2021-07-17T04:45:20.000Z</time>
      </trkpt>
      <trkpt lat="45.22494" lon="5.72732">
        <ele>658.59997558594</ele>
        <time>2021-07-17T04:45:21.000Z</time>
      </trkpt>
      <trkpt lat="45.22499" lon="5.72731">
        <ele>658.20001220703</ele>
        <time>2021-07-17T04:45:24.000Z</time>
      </trkpt>
      <trkpt lat="45.22501" lon="5.72732">
        <ele>658.20001220703</ele>
        <time>2021-07-17T04:45:26.000Z</time>
      </trkpt>
      <trkpt lat="45.22504" lon="5.72731">
        <ele>657.40002441406</ele>
        <time>2021-07-17T04:45:29.000Z</time>
      </trkpt>
      <trkpt lat="45.22508" lon="5.72728">
        <ele>657.20001220703</ele>
        <time>2021-07-17T04:45:31.000Z</time>
      </trkpt>
      <trkpt lat="45.22511" lon="5.72726">
        <ele>656.20001220703</ele>
        <time>2021-07-17T04:45:33.000Z</time>
      </trkpt>
      <trkpt lat="45.22516" lon="5.72724">
        <ele>655</ele>
        <time>2021-07-17T04:45:36.000Z</time>
      </trkpt>
      <trkpt lat="45.22518" lon="5.72723">
        <ele>655</ele>
        <time>2021-07-17T04:45:37.000Z</time>
      </trkpt>
      <trkpt lat="45.22525" lon="5.72721">
        <ele>654</ele>
        <time>2021-07-17T04:45:40.000Z</time>
      </trkpt>
      <trkpt lat="45.22531" lon="5.72719">
        <ele>653.40002441406</ele>
        <time>2021-07-17T04:45:43.000Z</time>
      </trkpt>
      <trkpt lat="45.22534" lon="5.72719">
        <ele>652.20001220703</ele>
        <time>2021-07-17T04:45:45.000Z</time>
      </trkpt>
      <trkpt lat="45.22537" lon="5.72719">
        <ele>650.79998779297</ele>
        <time>2021-07-17T04:45:47.000Z</time>
      </trkpt>
      <trkpt lat="45.22539" lon="5.72716">
        <ele>650.40002441406</ele>
        <time>2021-07-17T04:45:49.000Z</time>
      </trkpt>
      <trkpt lat="45.22542" lon="5.72715">
        <ele>649.79998779297</ele>
        <time>2021-07-17T04:45:50.000Z</time>
      </trkpt>
      <trkpt lat="45.22545" lon="5.72715">
        <ele>648.59997558594</ele>
        <time>2021-07-17T04:45:53.000Z</time>
      </trkpt>
      <trkpt lat="45.22547" lon="5.72714">
        <ele>648</ele>
        <time>2021-07-17T04:45:55.000Z</time>
      </trkpt>
      <trkpt lat="45.22548" lon="5.72713">
        <ele>647.59997558594</ele>
        <time>2021-07-17T04:45:56.000Z</time>
      </trkpt>
      <trkpt lat="45.22549" lon="5.72711">
        <ele>647.59997558594</ele>
        <time>2021-07-17T04:45:57.000Z</time>
      </trkpt>
      <trkpt lat="45.22551" lon="5.7271">
        <ele>647.40002441406</ele>
        <time>2021-07-17T04:45:58.000Z</time>
      </trkpt>
      <trkpt lat="45.22556" lon="5.72708">
        <ele>645.79998779297</ele>
        <time>2021-07-17T04:46:01.000Z</time>
      </trkpt>
      <trkpt lat="45.2256" lon="5.72707">
        <ele>644.40002441406</ele>
        <time>2021-07-17T04:46:03.000Z</time>
      </trkpt>
      <trkpt lat="45.22562" lon="5.72706">
        <ele>644</ele>
        <time>2021-07-17T04:46:05.000Z</time>
      </trkpt>
      <trkpt lat="45.22565" lon="5.72707">
        <ele>643.20001220703</ele>
        <time>2021-07-17T04:46:07.000Z</time>
      </trkpt>
      <trkpt lat="45.2257" lon="5.72708">
        <ele>642</ele>
        <time>2021-07-17T04:46:10.000Z</time>
      </trkpt>
      <trkpt lat="45.22572" lon="5.72708">
        <ele>640.79998779297</ele>
        <time>2021-07-17T04:46:11.000Z</time>
      </trkpt>
      <trkpt lat="45.22577" lon="5.72705">
        <ele>640.20001220703</ele>
        <time>2021-07-17T04:46:14.000Z</time>
      </trkpt>
      <trkpt lat="45.22579" lon="5.72704">
        <ele>639.59997558594</ele>
        <time>2021-07-17T04:46:15.000Z</time>
      </trkpt>
      <trkpt lat="45.22584" lon="5.72703">
        <ele>638.59997558594</ele>
        <time>2021-07-17T04:46:19.000Z</time>
      </trkpt>
      <trkpt lat="45.22587" lon="5.72703">
        <ele>638.40002441406</ele>
        <time>2021-07-17T04:46:20.000Z</time>
      </trkpt>
      <trkpt lat="45.22589" lon="5.72704">
        <ele>638.20001220703</ele>
        <time>2021-07-17T04:46:21.000Z</time>
      </trkpt>
      <trkpt lat="45.22593" lon="5.72705">
        <ele>637.20001220703</ele>
        <time>2021-07-17T04:46:23.000Z</time>
      </trkpt>
      <trkpt lat="45.22597" lon="5.72707">
        <ele>637</ele>
        <time>2021-07-17T04:46:25.000Z</time>
      </trkpt>
      <trkpt lat="45.22602" lon="5.7271">
        <ele>636</ele>
        <time>2021-07-17T04:46:27.000Z</time>
      </trkpt>
      <trkpt lat="45.22609" lon="5.72715">
        <ele>634.79998779297</ele>
        <time>2021-07-17T04:46:31.000Z</time>
      </trkpt>
      <trkpt lat="45.2261" lon="5.72716">
        <ele>634.79998779297</ele>
        <time>2021-07-17T04:46:32.000Z</time>
      </trkpt>
      <trkpt lat="45.22613" lon="5.72717">
        <ele>634.20001220703</ele>
        <time>2021-07-17T04:46:34.000Z</time>
      </trkpt>
      <trkpt lat="45.22616" lon="5.72718">
        <ele>633.79998779297</ele>
        <time>2021-07-17T04:46:35.000Z</time>
      </trkpt>
      <trkpt lat="45.22621" lon="5.72718">
        <ele>633</ele>
        <time>2021-07-17T04:46:37.000Z</time>
      </trkpt>
      <trkpt lat="45.22625" lon="5.72717">
        <ele>632.79998779297</ele>
        <time>2021-07-17T04:46:39.000Z</time>
      </trkpt>
      <trkpt lat="45.2263" lon="5.72718">
        <ele>631.59997558594</ele>
        <time>2021-07-17T04:46:42.000Z</time>
      </trkpt>
      <trkpt lat="45.22631" lon="5.7272">
        <ele>631.20001220703</ele>
        <time>2021-07-17T04:46:43.000Z</time>
      </trkpt>
      <trkpt lat="45.22632" lon="5.72723">
        <ele>631.20001220703</ele>
        <time>2021-07-17T04:46:45.000Z</time>
      </trkpt>
      <trkpt lat="45.22634" lon="5.72724">
        <ele>631</ele>
        <time>2021-07-17T04:46:47.000Z</time>
      </trkpt>
      <trkpt lat="45.22634" lon="5.72724">
        <ele>631</ele>
        <time>2021-07-17T04:46:49.000Z</time>
      </trkpt>
      <trkpt lat="45.22635" lon="5.72726">
        <ele>631</ele>
        <time>2021-07-17T04:46:55.000Z</time>
      </trkpt>
      <trkpt lat="45.22635" lon="5.72727">
        <ele>631.20001220703</ele>
        <time>2021-07-17T04:46:56.000Z</time>
      </trkpt>
      <trkpt lat="45.22638" lon="5.72729">
        <ele>631</ele>
        <time>2021-07-17T04:47:01.000Z</time>
      </trkpt>
      <trkpt lat="45.22638" lon="5.72729">
        <ele>631</ele>
        <time>2021-07-17T04:47:10.000Z</time>
      </trkpt>
      <trkpt lat="45.22638" lon="5.72729">
        <ele>631</ele>
        <time>2021-07-17T04:47:13.000Z</time>
      </trkpt>
      <trkpt lat="45.22638" lon="5.72729">
        <ele>631</ele>
        <time>2021-07-17T04:47:17.000Z</time>
      </trkpt>
      <trkpt lat="45.22637" lon="5.72729">
        <ele>631</ele>
        <time>2021-07-17T04:47:22.000Z</time>
      </trkpt>
      <trkpt lat="45.22637" lon="5.72729">
        <ele>631.20001220703</ele>
        <time>2021-07-17T04:47:25.000Z</time>
      </trkpt>
      <trkpt lat="45.22632" lon="5.7273">
        <ele>631.59997558594</ele>
        <time>2021-07-17T04:47:28.000Z</time>
      </trkpt>
      <trkpt lat="45.22628" lon="5.72732">
        <ele>632.59997558594</ele>
        <time>2021-07-17T04:47:31.000Z</time>
      </trkpt>
      <trkpt lat="45.22626" lon="5.72732">
        <ele>632.79998779297</ele>
        <time>2021-07-17T04:47:32.000Z</time>
      </trkpt>
      <trkpt lat="45.22621" lon="5.72733">
        <ele>633.59997558594</ele>
        <time>2021-07-17T04:47:35.000Z</time>
      </trkpt>
      <trkpt lat="45.22619" lon="5.72734">
        <ele>633.59997558594</ele>
        <time>2021-07-17T04:47:36.000Z</time>
      </trkpt>
      <trkpt lat="45.22617" lon="5.72734">
        <ele>634.20001220703</ele>
        <time>2021-07-17T04:47:37.000Z</time>
      </trkpt>
      <trkpt lat="45.22609" lon="5.72734">
        <ele>634.40002441406</ele>
        <time>2021-07-17T04:47:41.000Z</time>
      </trkpt>
      <trkpt lat="45.22603" lon="5.72734">
        <ele>635.20001220703</ele>
        <time>2021-07-17T04:47:44.000Z</time>
      </trkpt>
      <trkpt lat="45.22603" lon="5.72734">
        <ele>635.59997558594</ele>
        <time>2021-07-17T04:47:45.000Z</time>
      </trkpt>
      <trkpt lat="45.22599" lon="5.72732">
        <ele>636.59997558594</ele>
        <time>2021-07-17T04:47:48.000Z</time>
      </trkpt>
      <trkpt lat="45.22596" lon="5.7273">
        <ele>636.79998779297</ele>
        <time>2021-07-17T04:47:50.000Z</time>
      </trkpt>
      <trkpt lat="45.22594" lon="5.72728">
        <ele>637</ele>
        <time>2021-07-17T04:47:52.000Z</time>
      </trkpt>
      <trkpt lat="45.22592" lon="5.72728">
        <ele>637.79998779297</ele>
        <time>2021-07-17T04:47:54.000Z</time>
      </trkpt>
      <trkpt lat="45.22591" lon="5.72728">
        <ele>637.79998779297</ele>
        <time>2021-07-17T04:47:55.000Z</time>
      </trkpt>
      <trkpt lat="45.22589" lon="5.72728">
        <ele>638.59997558594</ele>
        <time>2021-07-17T04:47:58.000Z</time>
      </trkpt>
      <trkpt lat="45.22586" lon="5.72728">
        <ele>639</ele>
        <time>2021-07-17T04:48:01.000Z</time>
      </trkpt>
      <trkpt lat="45.2258" lon="5.72729">
        <ele>639.40002441406</ele>
        <time>2021-07-17T04:48:04.000Z</time>
      </trkpt>
      <trkpt lat="45.22579" lon="5.7273">
        <ele>639.59997558594</ele>
        <time>2021-07-17T04:48:05.000Z</time>
      </trkpt>
      <trkpt lat="45.22577" lon="5.72729">
        <ele>640.40002441406</ele>
        <time>2021-07-17T04:48:08.000Z</time>
      </trkpt>
      <trkpt lat="45.22574" lon="5.7273">
        <ele>641.40002441406</ele>
        <time>2021-07-17T04:48:11.000Z</time>
      </trkpt>
      <trkpt lat="45.2257" lon="5.72727">
        <ele>642.40002441406</ele>
        <time>2021-07-17T04:48:14.000Z</time>
      </trkpt>
      <trkpt lat="45.22569" lon="5.72726">
        <ele>642.59997558594</ele>
        <time>2021-07-17T04:48:15.000Z</time>
      </trkpt>
      <trkpt lat="45.22566" lon="5.72727">
        <ele>642.79998779297</ele>
        <time>2021-07-17T04:48:17.000Z</time>
      </trkpt>
      <trkpt lat="45.22565" lon="5.72727">
        <ele>643.59997558594</ele>
        <time>2021-07-17T04:48:18.000Z</time>
      </trkpt>
      <trkpt lat="45.22563" lon="5.72727">
        <ele>644.20001220703</ele>
        <time>2021-07-17T04:48:20.000Z</time>
      </trkpt>
      <trkpt lat="45.22561" lon="5.72726">
        <ele>644.59997558594</ele>
        <time>2021-07-17T04:48:22.000Z</time>
      </trkpt>
      <trkpt lat="45.22559" lon="5.72728">
        <ele>645.79998779297</ele>
        <time>2021-07-17T04:48:25.000Z</time>
      </trkpt>
      <trkpt lat="45.22559" lon="5.72729">
        <ele>645.79998779297</ele>
        <time>2021-07-17T04:48:26.000Z</time>
      </trkpt>
      <trkpt lat="45.22559" lon="5.72729">
        <ele>646.40002441406</ele>
        <time>2021-07-17T04:48:27.000Z</time>
      </trkpt>
      <trkpt lat="45.22558" lon="5.72731">
        <ele>646.79998779297</ele>
        <time>2021-07-17T04:48:29.000Z</time>
      </trkpt>
      <trkpt lat="45.22555" lon="5.72732">
        <ele>647.20001220703</ele>
        <time>2021-07-17T04:48:31.000Z</time>
      </trkpt>
      <trkpt lat="45.22555" lon="5.72733">
        <ele>648</ele>
        <time>2021-07-17T04:48:32.000Z</time>
      </trkpt>
      <trkpt lat="45.22553" lon="5.72733">
        <ele>648.20001220703</ele>
        <time>2021-07-17T04:48:33.000Z</time>
      </trkpt>
      <trkpt lat="45.22552" lon="5.72731">
        <ele>648.59997558594</ele>
        <time>2021-07-17T04:48:35.000Z</time>
      </trkpt>
      <trkpt lat="45.2255" lon="5.72732">
        <ele>649</ele>
        <time>2021-07-17T04:48:37.000Z</time>
      </trkpt>
      <trkpt lat="45.22548" lon="5.72732">
        <ele>649.20001220703</ele>
        <time>2021-07-17T04:48:38.000Z</time>
      </trkpt>
      <trkpt lat="45.22546" lon="5.72731">
        <ele>650.20001220703</ele>
        <time>2021-07-17T04:48:40.000Z</time>
      </trkpt>
      <trkpt lat="45.22543" lon="5.72732">
        <ele>650.59997558594</ele>
        <time>2021-07-17T04:48:43.000Z</time>
      </trkpt>
      <trkpt lat="45.2254" lon="5.72732">
        <ele>651.79998779297</ele>
        <time>2021-07-17T04:48:46.000Z</time>
      </trkpt>
      <trkpt lat="45.22539" lon="5.72732">
        <ele>651.79998779297</ele>
        <time>2021-07-17T04:48:47.000Z</time>
      </trkpt>
      <trkpt lat="45.22537" lon="5.72731">
        <ele>652.40002441406</ele>
        <time>2021-07-17T04:48:48.000Z</time>
      </trkpt>
      <trkpt lat="45.22537" lon="5.72731">
        <ele>652.79998779297</ele>
        <time>2021-07-17T04:48:50.000Z</time>
      </trkpt>
      <trkpt lat="45.22535" lon="5.72733">
        <ele>653.20001220703</ele>
        <time>2021-07-17T04:48:53.000Z</time>
      </trkpt>
      <trkpt lat="45.22534" lon="5.72732">
        <ele>653.59997558594</ele>
        <time>2021-07-17T04:48:54.000Z</time>
      </trkpt>
      <trkpt lat="45.22533" lon="5.72732">
        <ele>653.79998779297</ele>
        <time>2021-07-17T04:48:55.000Z</time>
      </trkpt>
      <trkpt lat="45.22533" lon="5.72733">
        <ele>654</ele>
        <time>2021-07-17T04:48:56.000Z</time>
      </trkpt>
      <trkpt lat="45.22531" lon="5.72733">
        <ele>654.40002441406</ele>
        <time>2021-07-17T04:48:58.000Z</time>
      </trkpt>
      <trkpt lat="45.22529" lon="5.72733">
        <ele>655</ele>
        <time>2021-07-17T04:49:01.000Z</time>
      </trkpt>
      <trkpt lat="45.22525" lon="5.72736">
        <ele>656</ele>
        <time>2021-07-17T04:49:05.000Z</time>
      </trkpt>
      <trkpt lat="45.22525" lon="5.72737">
        <ele>656</ele>
        <time>2021-07-17T04:49:06.000Z</time>
      </trkpt>
      <trkpt lat="45.22523" lon="5.72739">
        <ele>656.40002441406</ele>
        <time>2021-07-17T04:49:08.000Z</time>
      </trkpt>
      <trkpt lat="45.22522" lon="5.7274">
        <ele>656.79998779297</ele>
        <time>2021-07-17T04:49:10.000Z</time>
      </trkpt>
      <trkpt lat="45.22521" lon="5.72741">
        <ele>657.40002441406</ele>
        <time>2021-07-17T04:49:11.000Z</time>
      </trkpt>
      <trkpt lat="45.22522" lon="5.72741">
        <ele>657.59997558594</ele>
        <time>2021-07-17T04:49:12.000Z</time>
      </trkpt>
      <trkpt lat="45.22522" lon="5.72741">
        <ele>657.79998779297</ele>
        <time>2021-07-17T04:49:13.000Z</time>
      </trkpt>
      <trkpt lat="45.22521" lon="5.72742">
        <ele>658.20001220703</ele>
        <time>2021-07-17T04:49:15.000Z</time>
      </trkpt>
      <trkpt lat="45.22519" lon="5.72744">
        <ele>658.40002441406</ele>
        <time>2021-07-17T04:49:17.000Z</time>
      </trkpt>
      <trkpt lat="45.22518" lon="5.72747">
        <ele>659.20001220703</ele>
        <time>2021-07-17T04:49:19.000Z</time>
      </trkpt>
      <trkpt lat="45.22518" lon="5.72748">
        <ele>659.59997558594</ele>
        <time>2021-07-17T04:49:20.000Z</time>
      </trkpt>
      <trkpt lat="45.22516" lon="5.72752">
        <ele>660.20001220703</ele>
        <time>2021-07-17T04:49:23.000Z</time>
      </trkpt>
      <trkpt lat="45.22516" lon="5.72754">
        <ele>660.79998779297</ele>
        <time>2021-07-17T04:49:25.000Z</time>
      </trkpt>
      <trkpt lat="45.22515" lon="5.72756">
        <ele>661</ele>
        <time>2021-07-17T04:49:27.000Z</time>
      </trkpt>
      <trkpt lat="45.22513" lon="5.7276">
        <ele>661.79998779297</ele>
        <time>2021-07-17T04:49:30.000Z</time>
      </trkpt>
      <trkpt lat="45.22512" lon="5.72762">
        <ele>662.40002441406</ele>
        <time>2021-07-17T04:49:31.000Z</time>
      </trkpt>
      <trkpt lat="45.22511" lon="5.72765">
        <ele>663.20001220703</ele>
        <time>2021-07-17T04:49:34.000Z</time>
      </trkpt>
      <trkpt lat="45.22511" lon="5.72767">
        <ele>663.40002441406</ele>
        <time>2021-07-17T04:49:35.000Z</time>
      </trkpt>
      <trkpt lat="45.2251" lon="5.7277">
        <ele>663.79998779297</ele>
        <time>2021-07-17T04:49:37.000Z</time>
      </trkpt>
      <trkpt lat="45.22509" lon="5.72772">
        <ele>664.59997558594</ele>
        <time>2021-07-17T04:49:39.000Z</time>
      </trkpt>
      <trkpt lat="45.22509" lon="5.72774">
        <ele>665</ele>
        <time>2021-07-17T04:49:41.000Z</time>
      </trkpt>
      <trkpt lat="45.22507" lon="5.72779">
        <ele>665.59997558594</ele>
        <time>2021-07-17T04:49:44.000Z</time>
      </trkpt>
      <trkpt lat="45.22506" lon="5.72782">
        <ele>666</ele>
        <time>2021-07-17T04:49:47.000Z</time>
      </trkpt>
      <trkpt lat="45.22505" lon="5.72783">
        <ele>666.40002441406</ele>
        <time>2021-07-17T04:49:48.000Z</time>
      </trkpt>
      <trkpt lat="45.22505" lon="5.72784">
        <ele>666.79998779297</ele>
        <time>2021-07-17T04:49:49.000Z</time>
      </trkpt>
      <trkpt lat="45.22504" lon="5.72786">
        <ele>667</ele>
        <time>2021-07-17T04:49:51.000Z</time>
      </trkpt>
      <trkpt lat="45.22503" lon="5.72789">
        <ele>668</ele>
        <time>2021-07-17T04:49:53.000Z</time>
      </trkpt>
      <trkpt lat="45.22504" lon="5.7279">
        <ele>668</ele>
        <time>2021-07-17T04:49:54.000Z</time>
      </trkpt>
      <trkpt lat="45.22505" lon="5.72797">
        <ele>669</ele>
        <time>2021-07-17T04:49:58.000Z</time>
      </trkpt>
      <trkpt lat="45.22506" lon="5.72799">
        <ele>669.79998779297</ele>
        <time>2021-07-17T04:50:00.000Z</time>
      </trkpt>
      <trkpt lat="45.22506" lon="5.728">
        <ele>670.20001220703</ele>
        <time>2021-07-17T04:50:02.000Z</time>
      </trkpt>
      <trkpt lat="45.22505" lon="5.72801">
        <ele>670.40002441406</ele>
        <time>2021-07-17T04:50:03.000Z</time>
      </trkpt>
      <trkpt lat="45.22504" lon="5.72804">
        <ele>670.79998779297</ele>
        <time>2021-07-17T04:50:05.000Z</time>
      </trkpt>
      <trkpt lat="45.22504" lon="5.72807">
        <ele>671.59997558594</ele>
        <time>2021-07-17T04:50:07.000Z</time>
      </trkpt>
      <trkpt lat="45.22504" lon="5.72808">
        <ele>671.59997558594</ele>
        <time>2021-07-17T04:50:08.000Z</time>
      </trkpt>
      <trkpt lat="45.22504" lon="5.72811">
        <ele>672.20001220703</ele>
        <time>2021-07-17T04:50:11.000Z</time>
      </trkpt>
      <trkpt lat="45.22503" lon="5.72812">
        <ele>672.79998779297</ele>
        <time>2021-07-17T04:50:12.000Z</time>
      </trkpt>
      <trkpt lat="45.22503" lon="5.72813">
        <ele>673</ele>
        <time>2021-07-17T04:50:14.000Z</time>
      </trkpt>
      <trkpt lat="45.22503" lon="5.72814">
        <ele>673</ele>
        <time>2021-07-17T04:50:15.000Z</time>
      </trkpt>
      <trkpt lat="45.22503" lon="5.72816">
        <ele>673.40002441406</ele>
        <time>2021-07-17T04:50:17.000Z</time>
      </trkpt>
      <trkpt lat="45.22503" lon="5.72817">
        <ele>674.40002441406</ele>
        <time>2021-07-17T04:50:18.000Z</time>
      </trkpt>
      <trkpt lat="45.22502" lon="5.72819">
        <ele>675.20001220703</ele>
        <time>2021-07-17T04:50:22.000Z</time>
      </trkpt>
      <trkpt lat="45.22502" lon="5.72822">
        <ele>675.40002441406</ele>
        <time>2021-07-17T04:50:24.000Z</time>
      </trkpt>
      <trkpt lat="45.22502" lon="5.72825">
        <ele>675.59997558594</ele>
        <time>2021-07-17T04:50:25.000Z</time>
      </trkpt>
      <trkpt lat="45.22502" lon="5.7283">
        <ele>676.40002441406</ele>
        <time>2021-07-17T04:50:28.000Z</time>
      </trkpt>
      <trkpt lat="45.22502" lon="5.72831">
        <ele>676.59997558594</ele>
        <time>2021-07-17T04:50:29.000Z</time>
      </trkpt>
      <trkpt lat="45.22502" lon="5.72834">
        <ele>677.40002441406</ele>
        <time>2021-07-17T04:50:31.000Z</time>
      </trkpt>
      <trkpt lat="45.22502" lon="5.72835">
        <ele>677.59997558594</ele>
        <time>2021-07-17T04:50:32.000Z</time>
      </trkpt>
      <trkpt lat="45.22502" lon="5.72838">
        <ele>677.79998779297</ele>
        <time>2021-07-17T04:50:34.000Z</time>
      </trkpt>
      <trkpt lat="45.22503" lon="5.7284">
        <ele>678</ele>
        <time>2021-07-17T04:50:35.000Z</time>
      </trkpt>
      <trkpt lat="45.22502" lon="5.72842">
        <ele>678.79998779297</ele>
        <time>2021-07-17T04:50:37.000Z</time>
      </trkpt>
      <trkpt lat="45.22502" lon="5.72843">
        <ele>679.40002441406</ele>
        <time>2021-07-17T04:50:38.000Z</time>
      </trkpt>
      <trkpt lat="45.22502" lon="5.72845">
        <ele>680</ele>
        <time>2021-07-17T04:50:41.000Z</time>
      </trkpt>
      <trkpt lat="45.22501" lon="5.72846">
        <ele>680.59997558594</ele>
        <time>2021-07-17T04:50:43.000Z</time>
      </trkpt>
      <trkpt lat="45.225" lon="5.72848">
        <ele>680.79998779297</ele>
        <time>2021-07-17T04:50:46.000Z</time>
      </trkpt>
      <trkpt lat="45.22501" lon="5.72849">
        <ele>681</ele>
        <time>2021-07-17T04:50:47.000Z</time>
      </trkpt>
      <trkpt lat="45.225" lon="5.72851">
        <ele>682.20001220703</ele>
        <time>2021-07-17T04:50:49.000Z</time>
      </trkpt>
      <trkpt lat="45.22501" lon="5.72854">
        <ele>682.59997558594</ele>
        <time>2021-07-17T04:50:52.000Z</time>
      </trkpt>
      <trkpt lat="45.22502" lon="5.72857">
        <ele>683.40002441406</ele>
        <time>2021-07-17T04:50:54.000Z</time>
      </trkpt>
      <trkpt lat="45.22503" lon="5.72858">
        <ele>683.40002441406</ele>
        <time>2021-07-17T04:50:55.000Z</time>
      </trkpt>
      <trkpt lat="45.22503" lon="5.72859">
        <ele>683.40002441406</ele>
        <time>2021-07-17T04:50:56.000Z</time>
      </trkpt>
      <trkpt lat="45.22504" lon="5.72861">
        <ele>684.20001220703</ele>
        <time>2021-07-17T04:50:58.000Z</time>
      </trkpt>
      <trkpt lat="45.22504" lon="5.72862">
        <ele>684.40002441406</ele>
        <time>2021-07-17T04:50:59.000Z</time>
      </trkpt>
      <trkpt lat="45.22505" lon="5.72865">
        <ele>685.20001220703</ele>
        <time>2021-07-17T04:51:02.000Z</time>
      </trkpt>
      <trkpt lat="45.22507" lon="5.72866">
        <ele>685.59997558594</ele>
        <time>2021-07-17T04:51:04.000Z</time>
      </trkpt>
      <trkpt lat="45.22507" lon="5.72866">
        <ele>685.79998779297</ele>
        <time>2021-07-17T04:51:05.000Z</time>
      </trkpt>
      <trkpt lat="45.22507" lon="5.72866">
        <ele>686.59997558594</ele>
        <time>2021-07-17T04:51:06.000Z</time>
      </trkpt>
      <trkpt lat="45.22507" lon="5.72866">
        <ele>687</ele>
        <time>2021-07-17T04:51:07.000Z</time>
      </trkpt>
      <trkpt lat="45.22508" lon="5.72867">
        <ele>687.59997558594</ele>
        <time>2021-07-17T04:51:10.000Z</time>
      </trkpt>
      <trkpt lat="45.22509" lon="5.72867">
        <ele>687.79998779297</ele>
        <time>2021-07-17T04:51:11.000Z</time>
      </trkpt>
      <trkpt lat="45.22512" lon="5.72869">
        <ele>688.20001220703</ele>
        <time>2021-07-17T04:51:15.000Z</time>
      </trkpt>
      <trkpt lat="45.22512" lon="5.72869">
        <ele>689</ele>
        <time>2021-07-17T04:51:16.000Z</time>
      </trkpt>
      <trkpt lat="45.22513" lon="5.72869">
        <ele>689.20001220703</ele>
        <time>2021-07-17T04:51:17.000Z</time>
      </trkpt>
      <trkpt lat="45.22516" lon="5.7287">
        <ele>689.79998779297</ele>
        <time>2021-07-17T04:51:22.000Z</time>
      </trkpt>
      <trkpt lat="45.22517" lon="5.72871">
        <ele>690.59997558594</ele>
        <time>2021-07-17T04:51:24.000Z</time>
      </trkpt>
      <trkpt lat="45.22521" lon="5.72871">
        <ele>691.59997558594</ele>
        <time>2021-07-17T04:51:29.000Z</time>
      </trkpt>
      <trkpt lat="45.22521" lon="5.72871">
        <ele>691.79998779297</ele>
        <time>2021-07-17T04:51:30.000Z</time>
      </trkpt>
      <trkpt lat="45.22526" lon="5.72871">
        <ele>692.79998779297</ele>
        <time>2021-07-17T04:51:35.000Z</time>
      </trkpt>
      <trkpt lat="45.22528" lon="5.72871">
        <ele>693.20001220703</ele>
        <time>2021-07-17T04:51:36.000Z</time>
      </trkpt>
      <trkpt lat="45.22533" lon="5.72872">
        <ele>694</ele>
        <time>2021-07-17T04:51:41.000Z</time>
      </trkpt>
      <trkpt lat="45.22534" lon="5.72872">
        <ele>694.20001220703</ele>
        <time>2021-07-17T04:51:42.000Z</time>
      </trkpt>
      <trkpt lat="45.22536" lon="5.72872">
        <ele>695</ele>
        <time>2021-07-17T04:51:44.000Z</time>
      </trkpt>
      <trkpt lat="45.22537" lon="5.72872">
        <ele>695.20001220703</ele>
        <time>2021-07-17T04:51:45.000Z</time>
      </trkpt>
      <trkpt lat="45.22541" lon="5.72871">
        <ele>696</ele>
        <time>2021-07-17T04:51:49.000Z</time>
      </trkpt>
      <trkpt lat="45.22541" lon="5.72872">
        <ele>696</ele>
        <time>2021-07-17T04:51:50.000Z</time>
      </trkpt>
      <trkpt lat="45.22541" lon="5.72872">
        <ele>696.40002441406</ele>
        <time>2021-07-17T04:51:51.000Z</time>
      </trkpt>
      <trkpt lat="45.22543" lon="5.72872">
        <ele>697</ele>
        <time>2021-07-17T04:51:53.000Z</time>
      </trkpt>
      <trkpt lat="45.22546" lon="5.72872">
        <ele>697.79998779297</ele>
        <time>2021-07-17T04:51:56.000Z</time>
      </trkpt>
      <trkpt lat="45.22547" lon="5.72871">
        <ele>698.20001220703</ele>
        <time>2021-07-17T04:51:58.000Z</time>
      </trkpt>
      <trkpt lat="45.22548" lon="5.72871">
        <ele>698.79998779297</ele>
        <time>2021-07-17T04:51:59.000Z</time>
      </trkpt>
      <trkpt lat="45.22549" lon="5.72871">
        <ele>698.79998779297</ele>
        <time>2021-07-17T04:52:00.000Z</time>
      </trkpt>
      <trkpt lat="45.22551" lon="5.72871">
        <ele>699.59997558594</ele>
        <time>2021-07-17T04:52:03.000Z</time>
      </trkpt>
      <trkpt lat="45.22551" lon="5.72871">
        <ele>699.79998779297</ele>
        <time>2021-07-17T04:52:04.000Z</time>
      </trkpt>
      <trkpt lat="45.22552" lon="5.7287">
        <ele>699.79998779297</ele>
        <time>2021-07-17T04:52:06.000Z</time>
      </trkpt>
      <trkpt lat="45.22554" lon="5.7287">
        <ele>700</ele>
        <time>2021-07-17T04:52:07.000Z</time>
      </trkpt>
      <trkpt lat="45.22556" lon="5.72869">
        <ele>701</ele>
        <time>2021-07-17T04:52:09.000Z</time>
      </trkpt>
      <trkpt lat="45.22557" lon="5.72868">
        <ele>701.40002441406</ele>
        <time>2021-07-17T04:52:10.000Z</time>
      </trkpt>
      <trkpt lat="45.22559" lon="5.72867">
        <ele>701.59997558594</ele>
        <time>2021-07-17T04:52:12.000Z</time>
      </trkpt>
      <trkpt lat="45.2256" lon="5.72866">
        <ele>702.20001220703</ele>
        <time>2021-07-17T04:52:14.000Z</time>
      </trkpt>
      <trkpt lat="45.22564" lon="5.72866">
        <ele>703</ele>
        <time>2021-07-17T04:52:17.000Z</time>
      </trkpt>
      <trkpt lat="45.22566" lon="5.72867">
        <ele>703.40002441406</ele>
        <time>2021-07-17T04:52:19.000Z</time>
      </trkpt>
      <trkpt lat="45.22568" lon="5.72867">
        <ele>704</ele>
        <time>2021-07-17T04:52:20.000Z</time>
      </trkpt>
      <trkpt lat="45.22569" lon="5.72868">
        <ele>704.40002441406</ele>
        <time>2021-07-17T04:52:22.000Z</time>
      </trkpt>
      <trkpt lat="45.22572" lon="5.72869">
        <ele>705.79998779297</ele>
        <time>2021-07-17T04:52:26.000Z</time>
      </trkpt>
      <trkpt lat="45.22573" lon="5.7287">
        <ele>705.79998779297</ele>
        <time>2021-07-17T04:52:27.000Z</time>
      </trkpt>
      <trkpt lat="45.22574" lon="5.72871">
        <ele>706.20001220703</ele>
        <time>2021-07-17T04:52:29.000Z</time>
      </trkpt>
      <trkpt lat="45.22577" lon="5.72874">
        <ele>706.59997558594</ele>
        <time>2021-07-17T04:52:32.000Z</time>
      </trkpt>
      <trkpt lat="45.2258" lon="5.72877">
        <ele>707.20001220703</ele>
        <time>2021-07-17T04:52:33.000Z</time>
      </trkpt>
      <trkpt lat="45.22582" lon="5.72879">
        <ele>707.79998779297</ele>
        <time>2021-07-17T04:52:35.000Z</time>
      </trkpt>
      <trkpt lat="45.22584" lon="5.72883">
        <ele>708.59997558594</ele>
        <time>2021-07-17T04:52:38.000Z</time>
      </trkpt>
      <trkpt lat="45.22588" lon="5.72885">
        <ele>709.79998779297</ele>
        <time>2021-07-17T04:52:42.000Z</time>
      </trkpt>
      <trkpt lat="45.22592" lon="5.72889">
        <ele>710.79998779297</ele>
        <time>2021-07-17T04:52:46.000Z</time>
      </trkpt>
      <trkpt lat="45.22592" lon="5.7289">
        <ele>711</ele>
        <time>2021-07-17T04:52:47.000Z</time>
      </trkpt>
      <trkpt lat="45.22594" lon="5.72892">
        <ele>712</ele>
        <time>2021-07-17T04:52:49.000Z</time>
      </trkpt>
      <trkpt lat="45.22597" lon="5.72897">
        <ele>713.40002441406</ele>
        <time>2021-07-17T04:52:53.000Z</time>
      </trkpt>
      <trkpt lat="45.22599" lon="5.72898">
        <ele>713.79998779297</ele>
        <time>2021-07-17T04:52:55.000Z</time>
      </trkpt>
      <trkpt lat="45.226" lon="5.729">
        <ele>714.79998779297</ele>
        <time>2021-07-17T04:52:57.000Z</time>
      </trkpt>
      <trkpt lat="45.22603" lon="5.72907">
        <ele>716</ele>
        <time>2021-07-17T04:53:02.000Z</time>
      </trkpt>
      <trkpt lat="45.22603" lon="5.72908">
        <ele>716.40002441406</ele>
        <time>2021-07-17T04:53:03.000Z</time>
      </trkpt>
      <trkpt lat="45.22604" lon="5.72913">
        <ele>717.59997558594</ele>
        <time>2021-07-17T04:53:06.000Z</time>
      </trkpt>
      <trkpt lat="45.22604" lon="5.72915">
        <ele>717.79998779297</ele>
        <time>2021-07-17T04:53:07.000Z</time>
      </trkpt>
      <trkpt lat="45.22607" lon="5.72919">
        <ele>718.79998779297</ele>
        <time>2021-07-17T04:53:11.000Z</time>
      </trkpt>
      <trkpt lat="45.22611" lon="5.72925">
        <ele>719</ele>
        <time>2021-07-17T04:53:15.000Z</time>
      </trkpt>
      <trkpt lat="45.22612" lon="5.72926">
        <ele>719</ele>
        <time>2021-07-17T04:53:16.000Z</time>
      </trkpt>
      <trkpt lat="45.22612" lon="5.72928">
        <ele>719</ele>
        <time>2021-07-17T04:53:17.000Z</time>
      </trkpt>
      <trkpt lat="45.22616" lon="5.72934">
        <ele>719</ele>
        <time>2021-07-17T04:53:21.000Z</time>
      </trkpt>
      <trkpt lat="45.2262" lon="5.7294">
        <ele>719</ele>
        <time>2021-07-17T04:53:24.000Z</time>
      </trkpt>
      <trkpt lat="45.22631" lon="5.72945">
        <ele>719</ele>
        <time>2021-07-17T04:53:30.000Z</time>
      </trkpt>
      <trkpt lat="45.22644" lon="5.72944">
        <ele>718</ele>
        <time>2021-07-17T04:53:35.000Z</time>
      </trkpt>
      <trkpt lat="45.22647" lon="5.72945">
        <ele>717.79998779297</ele>
        <time>2021-07-17T04:53:36.000Z</time>
      </trkpt>
      <trkpt lat="45.22659" lon="5.72947">
        <ele>717.40002441406</ele>
        <time>2021-07-17T04:53:41.000Z</time>
      </trkpt>
      <trkpt lat="45.22673" lon="5.7295">
        <ele>716.59997558594</ele>
        <time>2021-07-17T04:53:48.000Z</time>
      </trkpt>
      <trkpt lat="45.22674" lon="5.7295">
        <ele>717</ele>
        <time>2021-07-17T04:53:49.000Z</time>
      </trkpt>
      <trkpt lat="45.22676" lon="5.7295">
        <ele>716.59997558594</ele>
        <time>2021-07-17T04:53:50.000Z</time>
      </trkpt>
      <trkpt lat="45.2268" lon="5.72952">
        <ele>716.59997558594</ele>
        <time>2021-07-17T04:53:52.000Z</time>
      </trkpt>
      <trkpt lat="45.22682" lon="5.72953">
        <ele>716.40002441406</ele>
        <time>2021-07-17T04:53:53.000Z</time>
      </trkpt>
      <trkpt lat="45.22685" lon="5.72953">
        <ele>716.20001220703</ele>
        <time>2021-07-17T04:53:54.000Z</time>
      </trkpt>
      <trkpt lat="45.22687" lon="5.72954">
        <ele>716.20001220703</ele>
        <time>2021-07-17T04:53:55.000Z</time>
      </trkpt>
      <trkpt lat="45.22696" lon="5.72958">
        <ele>715.40002441406</ele>
        <time>2021-07-17T04:53:59.000Z</time>
      </trkpt>
      <trkpt lat="45.22703" lon="5.72961">
        <ele>714.40002441406</ele>
        <time>2021-07-17T04:54:03.000Z</time>
      </trkpt>
      <trkpt lat="45.22706" lon="5.72962">
        <ele>714.40002441406</ele>
        <time>2021-07-17T04:54:04.000Z</time>
      </trkpt>
      <trkpt lat="45.22712" lon="5.72967">
        <ele>713.20001220703</ele>
        <time>2021-07-17T04:54:07.000Z</time>
      </trkpt>
      <trkpt lat="45.22718" lon="5.72972">
        <ele>712.59997558594</ele>
        <time>2021-07-17T04:54:10.000Z</time>
      </trkpt>
      <trkpt lat="45.2272" lon="5.72972">
        <ele>712.20001220703</ele>
        <time>2021-07-17T04:54:11.000Z</time>
      </trkpt>
      <trkpt lat="45.22722" lon="5.72973">
        <ele>712</ele>
        <time>2021-07-17T04:54:12.000Z</time>
      </trkpt>
      <trkpt lat="45.22732" lon="5.72978">
        <ele>711</ele>
        <time>2021-07-17T04:54:16.000Z</time>
      </trkpt>
      <trkpt lat="45.2274" lon="5.72982">
        <ele>710.20001220703</ele>
        <time>2021-07-17T04:54:19.000Z</time>
      </trkpt>
      <trkpt lat="45.22744" lon="5.72985">
        <ele>710</ele>
        <time>2021-07-17T04:54:21.000Z</time>
      </trkpt>
      <trkpt lat="45.22746" lon="5.72986">
        <ele>709.79998779297</ele>
        <time>2021-07-17T04:54:22.000Z</time>
      </trkpt>
      <trkpt lat="45.2275" lon="5.72988">
        <ele>709.59997558594</ele>
        <time>2021-07-17T04:54:24.000Z</time>
      </trkpt>
      <trkpt lat="45.22756" lon="5.72988">
        <ele>709.40002441406</ele>
        <time>2021-07-17T04:54:27.000Z</time>
      </trkpt>
      <trkpt lat="45.22767" lon="5.72991">
        <ele>708.79998779297</ele>
        <time>2021-07-17T04:54:32.000Z</time>
      </trkpt>
      <trkpt lat="45.22774" lon="5.72994">
        <ele>707.79998779297</ele>
        <time>2021-07-17T04:54:36.000Z</time>
      </trkpt>
      <trkpt lat="45.22783" lon="5.73002">
        <ele>706.59997558594</ele>
        <time>2021-07-17T04:54:41.000Z</time>
      </trkpt>
      <trkpt lat="45.22788" lon="5.73005">
        <ele>706.59997558594</ele>
        <time>2021-07-17T04:54:43.000Z</time>
      </trkpt>
      <trkpt lat="45.22798" lon="5.73012">
        <ele>705.59997558594</ele>
        <time>2021-07-17T04:54:48.000Z</time>
      </trkpt>
      <trkpt lat="45.22803" lon="5.73014">
        <ele>705.20001220703</ele>
        <time>2021-07-17T04:54:50.000Z</time>
      </trkpt>
      <trkpt lat="45.22808" lon="5.73017">
        <ele>703.59997558594</ele>
        <time>2021-07-17T04:54:52.000Z</time>
      </trkpt>
      <trkpt lat="45.22813" lon="5.73018">
        <ele>703.40002441406</ele>
        <time>2021-07-17T04:54:54.000Z</time>
      </trkpt>
      <trkpt lat="45.22818" lon="5.73022">
        <ele>703.20001220703</ele>
        <time>2021-07-17T04:54:57.000Z</time>
      </trkpt>
      <trkpt lat="45.22833" lon="5.73033">
        <ele>703.40002441406</ele>
        <time>2021-07-17T04:55:03.000Z</time>
      </trkpt>
      <trkpt lat="45.22835" lon="5.73034">
        <ele>703.20001220703</ele>
        <time>2021-07-17T04:55:04.000Z</time>
      </trkpt>
      <trkpt lat="45.22846" lon="5.73043">
        <ele>703.20001220703</ele>
        <time>2021-07-17T04:55:09.000Z</time>
      </trkpt>
      <trkpt lat="45.22848" lon="5.73044">
        <ele>703.20001220703</ele>
        <time>2021-07-17T04:55:10.000Z</time>
      </trkpt>
      <trkpt lat="45.22852" lon="5.73047">
        <ele>703.20001220703</ele>
        <time>2021-07-17T04:55:12.000Z</time>
      </trkpt>
      <trkpt lat="45.22864" lon="5.73055">
        <ele>703.20001220703</ele>
        <time>2021-07-17T04:55:18.000Z</time>
      </trkpt>
      <trkpt lat="45.22877" lon="5.73058">
        <ele>702.59997558594</ele>
        <time>2021-07-17T04:55:24.000Z</time>
      </trkpt>
      <trkpt lat="45.22882" lon="5.73058">
        <ele>701.79998779297</ele>
        <time>2021-07-17T04:55:26.000Z</time>
      </trkpt>
      <trkpt lat="45.22897" lon="5.73062">
        <ele>701.79998779297</ele>
        <time>2021-07-17T04:55:32.000Z</time>
      </trkpt>
      <trkpt lat="45.229" lon="5.73063">
        <ele>701.40002441406</ele>
        <time>2021-07-17T04:55:33.000Z</time>
      </trkpt>
      <trkpt lat="45.22902" lon="5.73063">
        <ele>701.20001220703</ele>
        <time>2021-07-17T04:55:34.000Z</time>
      </trkpt>
      <trkpt lat="45.22909" lon="5.73066">
        <ele>701</ele>
        <time>2021-07-17T04:55:37.000Z</time>
      </trkpt>
      <trkpt lat="45.22923" lon="5.73071">
        <ele>700.79998779297</ele>
        <time>2021-07-17T04:55:44.000Z</time>
      </trkpt>
      <trkpt lat="45.22934" lon="5.73073">
        <ele>700.79998779297</ele>
        <time>2021-07-17T04:55:49.000Z</time>
      </trkpt>
      <trkpt lat="45.22936" lon="5.73073">
        <ele>700.40002441406</ele>
        <time>2021-07-17T04:55:50.000Z</time>
      </trkpt>
      <trkpt lat="45.22947" lon="5.73074">
        <ele>699.59997558594</ele>
        <time>2021-07-17T04:55:56.000Z</time>
      </trkpt>
      <trkpt lat="45.22951" lon="5.73075">
        <ele>699</ele>
        <time>2021-07-17T04:55:58.000Z</time>
      </trkpt>
      <trkpt lat="45.22954" lon="5.73074">
        <ele>698.79998779297</ele>
        <time>2021-07-17T04:55:59.000Z</time>
      </trkpt>
      <trkpt lat="45.22959" lon="5.73072">
        <ele>697.59997558594</ele>
        <time>2021-07-17T04:56:01.000Z</time>
      </trkpt>
      <trkpt lat="45.2296" lon="5.73072">
        <ele>697.20001220703</ele>
        <time>2021-07-17T04:56:02.000Z</time>
      </trkpt>
      <trkpt lat="45.22962" lon="5.73072">
        <ele>696.59997558594</ele>
        <time>2021-07-17T04:56:03.000Z</time>
      </trkpt>
      <trkpt lat="45.22964" lon="5.73073">
        <ele>696.40002441406</ele>
        <time>2021-07-17T04:56:04.000Z</time>
      </trkpt>
      <trkpt lat="45.22965" lon="5.73073">
        <ele>695.40002441406</ele>
        <time>2021-07-17T04:56:06.000Z</time>
      </trkpt>
      <trkpt lat="45.22965" lon="5.73075">
        <ele>694.79998779297</ele>
        <time>2021-07-17T04:56:08.000Z</time>
      </trkpt>
      <trkpt lat="45.22965" lon="5.73077">
        <ele>694.79998779297</ele>
        <time>2021-07-17T04:56:09.000Z</time>
      </trkpt>
      <trkpt lat="45.22965" lon="5.73077">
        <ele>694.79998779297</ele>
        <time>2021-07-17T04:56:10.000Z</time>
      </trkpt>
      <trkpt lat="45.22964" lon="5.73076">
        <ele>694.20001220703</ele>
        <time>2021-07-17T04:56:16.000Z</time>
      </trkpt>
      <trkpt lat="45.22963" lon="5.73076">
        <ele>692.40002441406</ele>
        <time>2021-07-17T04:56:19.000Z</time>
      </trkpt>
      <trkpt lat="45.22962" lon="5.73074">
        <ele>691.79998779297</ele>
        <time>2021-07-17T04:56:22.000Z</time>
      </trkpt>
      <trkpt lat="45.22962" lon="5.73074">
        <ele>690.79998779297</ele>
        <time>2021-07-17T04:56:23.000Z</time>
      </trkpt>
      <trkpt lat="45.22959" lon="5.73071">
        <ele>690.20001220703</ele>
        <time>2021-07-17T04:56:26.000Z</time>
      </trkpt>
      <trkpt lat="45.2296" lon="5.73072">
        <ele>689.79998779297</ele>
        <time>2021-07-17T04:56:28.000Z</time>
      </trkpt>
      <trkpt lat="45.2296" lon="5.73072">
        <ele>689.20001220703</ele>
        <time>2021-07-17T04:56:29.000Z</time>
      </trkpt>
      <trkpt lat="45.22959" lon="5.73071">
        <ele>688.40002441406</ele>
        <time>2021-07-17T04:56:30.000Z</time>
      </trkpt>
      <trkpt lat="45.22959" lon="5.73071">
        <ele>688</ele>
        <time>2021-07-17T04:56:32.000Z</time>
      </trkpt>
      <trkpt lat="45.22958" lon="5.7307">
        <ele>687.20001220703</ele>
        <time>2021-07-17T04:56:34.000Z</time>
      </trkpt>
      <trkpt lat="45.22956" lon="5.73068">
        <ele>686.79998779297</ele>
        <time>2021-07-17T04:56:36.000Z</time>
      </trkpt>
      <trkpt lat="45.22955" lon="5.73064">
        <ele>686.20001220703</ele>
        <time>2021-07-17T04:56:38.000Z</time>
      </trkpt>
      <trkpt lat="45.22954" lon="5.73063">
        <ele>684.40002441406</ele>
        <time>2021-07-17T04:56:39.000Z</time>
      </trkpt>
      <trkpt lat="45.22953" lon="5.73062">
        <ele>684.40002441406</ele>
        <time>2021-07-17T04:56:40.000Z</time>
      </trkpt>
      <trkpt lat="45.22952" lon="5.7306">
        <ele>684</ele>
        <time>2021-07-17T04:56:42.000Z</time>
      </trkpt>
      <trkpt lat="45.22952" lon="5.73058">
        <ele>683.79998779297</ele>
        <time>2021-07-17T04:56:43.000Z</time>
      </trkpt>
      <trkpt lat="45.22951" lon="5.73056">
        <ele>683</ele>
        <time>2021-07-17T04:56:45.000Z</time>
      </trkpt>
      <trkpt lat="45.2295" lon="5.73053">
        <ele>682</ele>
        <time>2021-07-17T04:56:48.000Z</time>
      </trkpt>
      <trkpt lat="45.22949" lon="5.7305">
        <ele>681</ele>
        <time>2021-07-17T04:56:50.000Z</time>
      </trkpt>
      <trkpt lat="45.22948" lon="5.73049">
        <ele>681</ele>
        <time>2021-07-17T04:56:51.000Z</time>
      </trkpt>
      <trkpt lat="45.22946" lon="5.73046">
        <ele>679.79998779297</ele>
        <time>2021-07-17T04:56:54.000Z</time>
      </trkpt>
      <trkpt lat="45.22945" lon="5.73044">
        <ele>679.40002441406</ele>
        <time>2021-07-17T04:56:56.000Z</time>
      </trkpt>
      <trkpt lat="45.22945" lon="5.73043">
        <ele>679</ele>
        <time>2021-07-17T04:56:57.000Z</time>
      </trkpt>
      <trkpt lat="45.22945" lon="5.73042">
        <ele>678.59997558594</ele>
        <time>2021-07-17T04:56:58.000Z</time>
      </trkpt>
      <trkpt lat="45.22944" lon="5.73041">
        <ele>677.59997558594</ele>
        <time>2021-07-17T04:57:00.000Z</time>
      </trkpt>
      <trkpt lat="45.22943" lon="5.73038">
        <ele>677.20001220703</ele>
        <time>2021-07-17T04:57:02.000Z</time>
      </trkpt>
      <trkpt lat="45.22942" lon="5.73037">
        <ele>677</ele>
        <time>2021-07-17T04:57:03.000Z</time>
      </trkpt>
      <trkpt lat="45.22941" lon="5.73035">
        <ele>676.40002441406</ele>
        <time>2021-07-17T04:57:04.000Z</time>
      </trkpt>
      <trkpt lat="45.2294" lon="5.73033">
        <ele>675.20001220703</ele>
        <time>2021-07-17T04:57:06.000Z</time>
      </trkpt>
      <trkpt lat="45.22938" lon="5.73032">
        <ele>674.79998779297</ele>
        <time>2021-07-17T04:57:09.000Z</time>
      </trkpt>
      <trkpt lat="45.22937" lon="5.73031">
        <ele>674.20001220703</ele>
        <time>2021-07-17T04:57:10.000Z</time>
      </trkpt>
      <trkpt lat="45.22936" lon="5.73027">
        <ele>673.79998779297</ele>
        <time>2021-07-17T04:57:12.000Z</time>
      </trkpt>
      <trkpt lat="45.22936" lon="5.73025">
        <ele>672.59997558594</ele>
        <time>2021-07-17T04:57:14.000Z</time>
      </trkpt>
      <trkpt lat="45.22936" lon="5.73023">
        <ele>672.40002441406</ele>
        <time>2021-07-17T04:57:15.000Z</time>
      </trkpt>
      <trkpt lat="45.22936" lon="5.73021">
        <ele>671.79998779297</ele>
        <time>2021-07-17T04:57:17.000Z</time>
      </trkpt>
      <trkpt lat="45.22933" lon="5.73016">
        <ele>671.40002441406</ele>
        <time>2021-07-17T04:57:19.000Z</time>
      </trkpt>
      <trkpt lat="45.22932" lon="5.73014">
        <ele>671</ele>
        <time>2021-07-17T04:57:20.000Z</time>
      </trkpt>
      <trkpt lat="45.22931" lon="5.7301">
        <ele>670.40002441406</ele>
        <time>2021-07-17T04:57:22.000Z</time>
      </trkpt>
      <trkpt lat="45.2293" lon="5.73006">
        <ele>669.59997558594</ele>
        <time>2021-07-17T04:57:24.000Z</time>
      </trkpt>
      <trkpt lat="45.22929" lon="5.73002">
        <ele>669.20001220703</ele>
        <time>2021-07-17T04:57:27.000Z</time>
      </trkpt>
      <trkpt lat="45.22928" lon="5.72999">
        <ele>668.20001220703</ele>
        <time>2021-07-17T04:57:30.000Z</time>
      </trkpt>
      <trkpt lat="45.22927" lon="5.72996">
        <ele>667.40002441406</ele>
        <time>2021-07-17T04:57:32.000Z</time>
      </trkpt>
      <trkpt lat="45.22927" lon="5.72994">
        <ele>667.20001220703</ele>
        <time>2021-07-17T04:57:33.000Z</time>
      </trkpt>
      <trkpt lat="45.22923" lon="5.72992">
        <ele>666.40002441406</ele>
        <time>2021-07-17T04:57:36.000Z</time>
      </trkpt>
      <trkpt lat="45.22922" lon="5.72987">
        <ele>665.59997558594</ele>
        <time>2021-07-17T04:57:38.000Z</time>
      </trkpt>
      <trkpt lat="45.22922" lon="5.72987">
        <ele>665</ele>
        <time>2021-07-17T04:57:39.000Z</time>
      </trkpt>
      <trkpt lat="45.22924" lon="5.72987">
        <ele>665</ele>
        <time>2021-07-17T04:57:41.000Z</time>
      </trkpt>
      <trkpt lat="45.22926" lon="5.72986">
        <ele>665.40002441406</ele>
        <time>2021-07-17T04:57:45.000Z</time>
      </trkpt>
      <trkpt lat="45.22926" lon="5.72985">
        <ele>665.59997558594</ele>
        <time>2021-07-17T04:57:46.000Z</time>
      </trkpt>
      <trkpt lat="45.22926" lon="5.72982">
        <ele>666</ele>
        <time>2021-07-17T04:57:50.000Z</time>
      </trkpt>
      <trkpt lat="45.22925" lon="5.72981">
        <ele>666</ele>
        <time>2021-07-17T04:57:53.000Z</time>
      </trkpt>
      <trkpt lat="45.22925" lon="5.72978">
        <ele>665.79998779297</ele>
        <time>2021-07-17T04:57:58.000Z</time>
      </trkpt>
      <trkpt lat="45.22925" lon="5.72976">
        <ele>665.79998779297</ele>
        <time>2021-07-17T04:58:00.000Z</time>
      </trkpt>
      <trkpt lat="45.22926" lon="5.72969">
        <ele>665.59997558594</ele>
        <time>2021-07-17T04:58:04.000Z</time>
      </trkpt>
      <trkpt lat="45.22926" lon="5.72963">
        <ele>665.40002441406</ele>
        <time>2021-07-17T04:58:13.000Z</time>
      </trkpt>
      <trkpt lat="45.22925" lon="5.72963">
        <ele>665.79998779297</ele>
        <time>2021-07-17T04:58:17.000Z</time>
      </trkpt>
      <trkpt lat="45.22926" lon="5.72968">
        <ele>666</ele>
        <time>2021-07-17T04:58:20.000Z</time>
      </trkpt>
      <trkpt lat="45.22927" lon="5.72971">
        <ele>666.40002441406</ele>
        <time>2021-07-17T04:58:22.000Z</time>
      </trkpt>
      <trkpt lat="45.22928" lon="5.72971">
        <ele>666.79998779297</ele>
        <time>2021-07-17T04:58:24.000Z</time>
      </trkpt>
      <trkpt lat="45.22929" lon="5.72971">
        <ele>668</ele>
        <time>2021-07-17T04:58:27.000Z</time>
      </trkpt>
      <trkpt lat="45.22929" lon="5.72976">
        <ele>668.79998779297</ele>
        <time>2021-07-17T04:58:32.000Z</time>
      </trkpt>
      <trkpt lat="45.2293" lon="5.72976">
        <ele>669</ele>
        <time>2021-07-17T04:58:34.000Z</time>
      </trkpt>
      <trkpt lat="45.2293" lon="5.7298">
        <ele>670.20001220703</ele>
        <time>2021-07-17T04:58:37.000Z</time>
      </trkpt>
      <trkpt lat="45.2293" lon="5.72982">
        <ele>670.40002441406</ele>
        <time>2021-07-17T04:58:38.000Z</time>
      </trkpt>
      <trkpt lat="45.22931" lon="5.7299">
        <ele>671</ele>
        <time>2021-07-17T04:58:41.000Z</time>
      </trkpt>
      <trkpt lat="45.22932" lon="5.72992">
        <ele>671.20001220703</ele>
        <time>2021-07-17T04:58:42.000Z</time>
      </trkpt>
      <trkpt lat="45.22934" lon="5.73001">
        <ele>672.20001220703</ele>
        <time>2021-07-17T04:58:45.000Z</time>
      </trkpt>
      <trkpt lat="45.22935" lon="5.73004">
        <ele>672.20001220703</ele>
        <time>2021-07-17T04:58:46.000Z</time>
      </trkpt>
      <trkpt lat="45.22937" lon="5.73008">
        <ele>673.79998779297</ele>
        <time>2021-07-17T04:58:50.000Z</time>
      </trkpt>
      <trkpt lat="45.22939" lon="5.73011">
        <ele>674.40002441406</ele>
        <time>2021-07-17T04:58:53.000Z</time>
      </trkpt>
      <trkpt lat="45.22939" lon="5.73013">
        <ele>674.79998779297</ele>
        <time>2021-07-17T04:58:55.000Z</time>
      </trkpt>
      <trkpt lat="45.22939" lon="5.73014">
        <ele>675</ele>
        <time>2021-07-17T04:58:56.000Z</time>
      </trkpt>
      <trkpt lat="45.2294" lon="5.73016">
        <ele>675</ele>
        <time>2021-07-17T04:58:57.000Z</time>
      </trkpt>
      <trkpt lat="45.22941" lon="5.7302">
        <ele>675.79998779297</ele>
        <time>2021-07-17T04:58:59.000Z</time>
      </trkpt>
      <trkpt lat="45.22942" lon="5.73021">
        <ele>676</ele>
        <time>2021-07-17T04:59:00.000Z</time>
      </trkpt>
      <trkpt lat="45.22943" lon="5.73022">
        <ele>676.20001220703</ele>
        <time>2021-07-17T04:59:02.000Z</time>
      </trkpt>
      <trkpt lat="45.22944" lon="5.73023">
        <ele>676.79998779297</ele>
        <time>2021-07-17T04:59:04.000Z</time>
      </trkpt>
      <trkpt lat="45.22944" lon="5.73025">
        <ele>677.20001220703</ele>
        <time>2021-07-17T04:59:06.000Z</time>
      </trkpt>
      <trkpt lat="45.22946" lon="5.73026">
        <ele>678.20001220703</ele>
        <time>2021-07-17T04:59:09.000Z</time>
      </trkpt>
      <trkpt lat="45.22946" lon="5.73027">
        <ele>678.40002441406</ele>
        <time>2021-07-17T04:59:10.000Z</time>
      </trkpt>
      <trkpt lat="45.22947" lon="5.73028">
        <ele>678.59997558594</ele>
        <time>2021-07-17T04:59:11.000Z</time>
      </trkpt>
      <trkpt lat="45.22947" lon="5.73029">
        <ele>678.79998779297</ele>
        <time>2021-07-17T04:59:12.000Z</time>
      </trkpt>
      <trkpt lat="45.22947" lon="5.73032">
        <ele>679</ele>
        <time>2021-07-17T04:59:14.000Z</time>
      </trkpt>
      <trkpt lat="45.22948" lon="5.73034">
        <ele>679.20001220703</ele>
        <time>2021-07-17T04:59:15.000Z</time>
      </trkpt>
      <trkpt lat="45.22949" lon="5.73036">
        <ele>679.79998779297</ele>
        <time>2021-07-17T04:59:16.000Z</time>
      </trkpt>
      <trkpt lat="45.2295" lon="5.73037">
        <ele>680.20001220703</ele>
        <time>2021-07-17T04:59:17.000Z</time>
      </trkpt>
      <trkpt lat="45.2295" lon="5.73038">
        <ele>680.40002441406</ele>
        <time>2021-07-17T04:59:18.000Z</time>
      </trkpt>
      <trkpt lat="45.22951" lon="5.7304">
        <ele>680.79998779297</ele>
        <time>2021-07-17T04:59:20.000Z</time>
      </trkpt>
      <trkpt lat="45.22952" lon="5.7304">
        <ele>681</ele>
        <time>2021-07-17T04:59:21.000Z</time>
      </trkpt>
      <trkpt lat="45.22954" lon="5.73046">
        <ele>682.20001220703</ele>
        <time>2021-07-17T04:59:26.000Z</time>
      </trkpt>
      <trkpt lat="45.22954" lon="5.73047">
        <ele>682.59997558594</ele>
        <time>2021-07-17T04:59:27.000Z</time>
      </trkpt>
      <trkpt lat="45.22956" lon="5.73051">
        <ele>683.59997558594</ele>
        <time>2021-07-17T04:59:30.000Z</time>
      </trkpt>
      <trkpt lat="45.22955" lon="5.73053">
        <ele>683.79998779297</ele>
        <time>2021-07-17T04:59:31.000Z</time>
      </trkpt>
      <trkpt lat="45.22956" lon="5.73058">
        <ele>684.40002441406</ele>
        <time>2021-07-17T04:59:34.000Z</time>
      </trkpt>
      <trkpt lat="45.22957" lon="5.7306">
        <ele>685</ele>
        <time>2021-07-17T04:59:35.000Z</time>
      </trkpt>
      <trkpt lat="45.22958" lon="5.73063">
        <ele>685.59997558594</ele>
        <time>2021-07-17T04:59:37.000Z</time>
      </trkpt>
      <trkpt lat="45.22959" lon="5.73065">
        <ele>685.79998779297</ele>
        <time>2021-07-17T04:59:39.000Z</time>
      </trkpt>
      <trkpt lat="45.22959" lon="5.73066">
        <ele>686.20001220703</ele>
        <time>2021-07-17T04:59:40.000Z</time>
      </trkpt>
      <trkpt lat="45.2296" lon="5.73067">
        <ele>686.20001220703</ele>
        <time>2021-07-17T04:59:41.000Z</time>
      </trkpt>
      <trkpt lat="45.22961" lon="5.73067">
        <ele>686.59997558594</ele>
        <time>2021-07-17T04:59:43.000Z</time>
      </trkpt>
      <trkpt lat="45.22961" lon="5.73069">
        <ele>687.20001220703</ele>
        <time>2021-07-17T04:59:45.000Z</time>
      </trkpt>
      <trkpt lat="45.22962" lon="5.73069">
        <ele>687.79998779297</ele>
        <time>2021-07-17T04:59:46.000Z</time>
      </trkpt>
      <trkpt lat="45.22963" lon="5.73072">
        <ele>688.40002441406</ele>
        <time>2021-07-17T04:59:49.000Z</time>
      </trkpt>
      <trkpt lat="45.22964" lon="5.73073">
        <ele>688.79998779297</ele>
        <time>2021-07-17T04:59:50.000Z</time>
      </trkpt>
      <trkpt lat="45.22966" lon="5.73079">
        <ele>689.40002441406</ele>
        <time>2021-07-17T04:59:54.000Z</time>
      </trkpt>
      <trkpt lat="45.22966" lon="5.73081">
        <ele>689.79998779297</ele>
        <time>2021-07-17T04:59:55.000Z</time>
      </trkpt>
      <trkpt lat="45.22967" lon="5.73084">
        <ele>690.40002441406</ele>
        <time>2021-07-17T04:59:57.000Z</time>
      </trkpt>
      <trkpt lat="45.22967" lon="5.73089">
        <ele>691.20001220703</ele>
        <time>2021-07-17T05:00:00.000Z</time>
      </trkpt>
      <trkpt lat="45.22967" lon="5.7309">
        <ele>691.59997558594</ele>
        <time>2021-07-17T05:00:02.000Z</time>
      </trkpt>
      <trkpt lat="45.22968" lon="5.7309">
        <ele>691.79998779297</ele>
        <time>2021-07-17T05:00:03.000Z</time>
      </trkpt>
      <trkpt lat="45.22968" lon="5.7309">
        <ele>692.20001220703</ele>
        <time>2021-07-17T05:00:04.000Z</time>
      </trkpt>
      <trkpt lat="45.22968" lon="5.73092">
        <ele>692.59997558594</ele>
        <time>2021-07-17T05:00:05.000Z</time>
      </trkpt>
      <trkpt lat="45.2297" lon="5.73096">
        <ele>693.40002441406</ele>
        <time>2021-07-17T05:00:10.000Z</time>
      </trkpt>
      <trkpt lat="45.22971" lon="5.73097">
        <ele>693.59997558594</ele>
        <time>2021-07-17T05:00:11.000Z</time>
      </trkpt>
      <trkpt lat="45.22972" lon="5.73099">
        <ele>694.20001220703</ele>
        <time>2021-07-17T05:00:14.000Z</time>
      </trkpt>
      <trkpt lat="45.22972" lon="5.73101">
        <ele>695.40002441406</ele>
        <time>2021-07-17T05:00:16.000Z</time>
      </trkpt>
      <trkpt lat="45.22972" lon="5.73102">
        <ele>695.59997558594</ele>
        <time>2021-07-17T05:00:17.000Z</time>
      </trkpt>
      <trkpt lat="45.22973" lon="5.73102">
        <ele>696</ele>
        <time>2021-07-17T05:00:19.000Z</time>
      </trkpt>
      <trkpt lat="45.22974" lon="5.73103">
        <ele>696.40002441406</ele>
        <time>2021-07-17T05:00:20.000Z</time>
      </trkpt>
      <trkpt lat="45.22975" lon="5.73104">
        <ele>696.79998779297</ele>
        <time>2021-07-17T05:00:21.000Z</time>
      </trkpt>
      <trkpt lat="45.22977" lon="5.73106">
        <ele>697.20001220703</ele>
        <time>2021-07-17T05:00:23.000Z</time>
      </trkpt>
      <trkpt lat="45.22979" lon="5.7311">
        <ele>697.79998779297</ele>
        <time>2021-07-17T05:00:25.000Z</time>
      </trkpt>
      <trkpt lat="45.2298" lon="5.73112">
        <ele>699</ele>
        <time>2021-07-17T05:00:27.000Z</time>
      </trkpt>
      <trkpt lat="45.22981" lon="5.73114">
        <ele>699</ele>
        <time>2021-07-17T05:00:29.000Z</time>
      </trkpt>
      <trkpt lat="45.22984" lon="5.73116">
        <ele>700.20001220703</ele>
        <time>2021-07-17T05:00:32.000Z</time>
      </trkpt>
      <trkpt lat="45.22985" lon="5.73117">
        <ele>700.40002441406</ele>
        <time>2021-07-17T05:00:34.000Z</time>
      </trkpt>
      <trkpt lat="45.22989" lon="5.73119">
        <ele>701.20001220703</ele>
        <time>2021-07-17T05:00:37.000Z</time>
      </trkpt>
      <trkpt lat="45.2299" lon="5.73119">
        <ele>701.40002441406</ele>
        <time>2021-07-17T05:00:38.000Z</time>
      </trkpt>
      <trkpt lat="45.22993" lon="5.73117">
        <ele>702.20001220703</ele>
        <time>2021-07-17T05:00:42.000Z</time>
      </trkpt>
      <trkpt lat="45.22993" lon="5.73117">
        <ele>702.59997558594</ele>
        <time>2021-07-17T05:00:43.000Z</time>
      </trkpt>
      <trkpt lat="45.22995" lon="5.73116">
        <ele>702.59997558594</ele>
        <time>2021-07-17T05:00:44.000Z</time>
      </trkpt>
      <trkpt lat="45.23001" lon="5.73114">
        <ele>704.20001220703</ele>
        <time>2021-07-17T05:00:50.000Z</time>
      </trkpt>
      <trkpt lat="45.23005" lon="5.73114">
        <ele>704.79998779297</ele>
        <time>2021-07-17T05:00:54.000Z</time>
      </trkpt>
      <trkpt lat="45.23008" lon="5.73116">
        <ele>705.40002441406</ele>
        <time>2021-07-17T05:00:56.000Z</time>
      </trkpt>
      <trkpt lat="45.2301" lon="5.73118">
        <ele>706</ele>
        <time>2021-07-17T05:00:58.000Z</time>
      </trkpt>
      <trkpt lat="45.23012" lon="5.73119">
        <ele>706.40002441406</ele>
        <time>2021-07-17T05:01:00.000Z</time>
      </trkpt>
      <trkpt lat="45.23015" lon="5.7312">
        <ele>706.79998779297</ele>
        <time>2021-07-17T05:01:02.000Z</time>
      </trkpt>
      <trkpt lat="45.23017" lon="5.73122">
        <ele>707.40002441406</ele>
        <time>2021-07-17T05:01:04.000Z</time>
      </trkpt>
      <trkpt lat="45.23018" lon="5.73122">
        <ele>707.59997558594</ele>
        <time>2021-07-17T05:01:05.000Z</time>
      </trkpt>
      <trkpt lat="45.23019" lon="5.73122">
        <ele>707.59997558594</ele>
        <time>2021-07-17T05:01:06.000Z</time>
      </trkpt>
      <trkpt lat="45.23025" lon="5.73125">
        <ele>708.59997558594</ele>
        <time>2021-07-17T05:01:13.000Z</time>
      </trkpt>
      <trkpt lat="45.23025" lon="5.73127">
        <ele>708.79998779297</ele>
        <time>2021-07-17T05:01:14.000Z</time>
      </trkpt>
      <trkpt lat="45.23026" lon="5.73128">
        <ele>709</ele>
        <time>2021-07-17T05:01:15.000Z</time>
      </trkpt>
      <trkpt lat="45.23028" lon="5.73129">
        <ele>709.79998779297</ele>
        <time>2021-07-17T05:01:16.000Z</time>
      </trkpt>
      <trkpt lat="45.23029" lon="5.73128">
        <ele>710</ele>
        <time>2021-07-17T05:01:17.000Z</time>
      </trkpt>
      <trkpt lat="45.2303" lon="5.73128">
        <ele>710.20001220703</ele>
        <time>2021-07-17T05:01:18.000Z</time>
      </trkpt>
      <trkpt lat="45.23031" lon="5.73128">
        <ele>710.40002441406</ele>
        <time>2021-07-17T05:01:19.000Z</time>
      </trkpt>
      <trkpt lat="45.23032" lon="5.73128">
        <ele>711.20001220703</ele>
        <time>2021-07-17T05:01:21.000Z</time>
      </trkpt>
      <trkpt lat="45.23034" lon="5.73129">
        <ele>711.79998779297</ele>
        <time>2021-07-17T05:01:23.000Z</time>
      </trkpt>
      <trkpt lat="45.23035" lon="5.7313">
        <ele>712.20001220703</ele>
        <time>2021-07-17T05:01:25.000Z</time>
      </trkpt>
      <trkpt lat="45.23037" lon="5.7313">
        <ele>713</ele>
        <time>2021-07-17T05:01:28.000Z</time>
      </trkpt>
      <trkpt lat="45.23039" lon="5.73131">
        <ele>713.20001220703</ele>
        <time>2021-07-17T05:01:30.000Z</time>
      </trkpt>
      <trkpt lat="45.2304" lon="5.73131">
        <ele>713.40002441406</ele>
        <time>2021-07-17T05:01:31.000Z</time>
      </trkpt>
      <trkpt lat="45.23042" lon="5.73133">
        <ele>714.20001220703</ele>
        <time>2021-07-17T05:01:33.000Z</time>
      </trkpt>
      <trkpt lat="45.23043" lon="5.73134">
        <ele>714.40002441406</ele>
        <time>2021-07-17T05:01:34.000Z</time>
      </trkpt>
      <trkpt lat="45.23045" lon="5.73135">
        <ele>715</ele>
        <time>2021-07-17T05:01:36.000Z</time>
      </trkpt>
      <trkpt lat="45.23045" lon="5.73136">
        <ele>715.59997558594</ele>
        <time>2021-07-17T05:01:37.000Z</time>
      </trkpt>
      <trkpt lat="45.23047" lon="5.73137">
        <ele>716.20001220703</ele>
        <time>2021-07-17T05:01:40.000Z</time>
      </trkpt>
      <trkpt lat="45.23047" lon="5.73137">
        <ele>716.40002441406</ele>
        <time>2021-07-17T05:01:41.000Z</time>
      </trkpt>
      <trkpt lat="45.23048" lon="5.73138">
        <ele>716.79998779297</ele>
        <time>2021-07-17T05:01:42.000Z</time>
      </trkpt>
      <trkpt lat="45.23049" lon="5.73139">
        <ele>717.20001220703</ele>
        <time>2021-07-17T05:01:44.000Z</time>
      </trkpt>
      <trkpt lat="45.23051" lon="5.73143">
        <ele>718.20001220703</ele>
        <time>2021-07-17T05:01:47.000Z</time>
      </trkpt>
      <trkpt lat="45.23052" lon="5.73145">
        <ele>718.40002441406</ele>
        <time>2021-07-17T05:01:48.000Z</time>
      </trkpt>
      <trkpt lat="45.23055" lon="5.73149">
        <ele>719.20001220703</ele>
        <time>2021-07-17T05:01:52.000Z</time>
      </trkpt>
      <trkpt lat="45.23058" lon="5.7315">
        <ele>720.20001220703</ele>
        <time>2021-07-17T05:01:54.000Z</time>
      </trkpt>
      <trkpt lat="45.2306" lon="5.73151">
        <ele>720.40002441406</ele>
        <time>2021-07-17T05:01:55.000Z</time>
      </trkpt>
      <trkpt lat="45.23062" lon="5.73154">
        <ele>720.40002441406</ele>
        <time>2021-07-17T05:01:57.000Z</time>
      </trkpt>
      <trkpt lat="45.23064" lon="5.73156">
        <ele>720.79998779297</ele>
        <time>2021-07-17T05:01:59.000Z</time>
      </trkpt>
      <trkpt lat="45.23065" lon="5.73158">
        <ele>721.79998779297</ele>
        <time>2021-07-17T05:02:00.000Z</time>
      </trkpt>
      <trkpt lat="45.23068" lon="5.73163">
        <ele>722</ele>
        <time>2021-07-17T05:02:03.000Z</time>
      </trkpt>
      <trkpt lat="45.23071" lon="5.73166">
        <ele>722.20001220703</ele>
        <time>2021-07-17T05:02:05.000Z</time>
      </trkpt>
      <trkpt lat="45.23074" lon="5.73167">
        <ele>723</ele>
        <time>2021-07-17T05:02:08.000Z</time>
      </trkpt>
      <trkpt lat="45.23079" lon="5.73166">
        <ele>724</ele>
        <time>2021-07-17T05:02:11.000Z</time>
      </trkpt>
      <trkpt lat="45.23082" lon="5.73166">
        <ele>724</ele>
        <time>2021-07-17T05:02:13.000Z</time>
      </trkpt>
      <trkpt lat="45.23089" lon="5.73167">
        <ele>724.59997558594</ele>
        <time>2021-07-17T05:02:18.000Z</time>
      </trkpt>
      <trkpt lat="45.23098" lon="5.73165">
        <ele>725.20001220703</ele>
        <time>2021-07-17T05:02:24.000Z</time>
      </trkpt>
      <trkpt lat="45.231" lon="5.73166">
        <ele>725.40002441406</ele>
        <time>2021-07-17T05:02:26.000Z</time>
      </trkpt>
      <trkpt lat="45.23105" lon="5.73166">
        <ele>726.20001220703</ele>
        <time>2021-07-17T05:02:29.000Z</time>
      </trkpt>
      <trkpt lat="45.2311" lon="5.73166">
        <ele>727</ele>
        <time>2021-07-17T05:02:32.000Z</time>
      </trkpt>
      <trkpt lat="45.23111" lon="5.73166">
        <ele>727.40002441406</ele>
        <time>2021-07-17T05:02:33.000Z</time>
      </trkpt>
      <trkpt lat="45.23115" lon="5.73166">
        <ele>728.59997558594</ele>
        <time>2021-07-17T05:02:36.000Z</time>
      </trkpt>
      <trkpt lat="45.23118" lon="5.73166">
        <ele>728.79998779297</ele>
        <time>2021-07-17T05:02:38.000Z</time>
      </trkpt>
      <trkpt lat="45.23119" lon="5.73166">
        <ele>729.59997558594</ele>
        <time>2021-07-17T05:02:39.000Z</time>
      </trkpt>
      <trkpt lat="45.23123" lon="5.73167">
        <ele>730.20001220703</ele>
        <time>2021-07-17T05:02:42.000Z</time>
      </trkpt>
      <trkpt lat="45.23126" lon="5.73168">
        <ele>731</ele>
        <time>2021-07-17T05:02:44.000Z</time>
      </trkpt>
      <trkpt lat="45.23128" lon="5.73169">
        <ele>731.40002441406</ele>
        <time>2021-07-17T05:02:46.000Z</time>
      </trkpt>
      <trkpt lat="45.23133" lon="5.73171">
        <ele>732.20001220703</ele>
        <time>2021-07-17T05:02:50.000Z</time>
      </trkpt>
      <trkpt lat="45.23138" lon="5.73172">
        <ele>732.40002441406</ele>
        <time>2021-07-17T05:02:53.000Z</time>
      </trkpt>
      <trkpt lat="45.2314" lon="5.73172">
        <ele>732.79998779297</ele>
        <time>2021-07-17T05:02:54.000Z</time>
      </trkpt>
      <trkpt lat="45.23144" lon="5.73173">
        <ele>733.20001220703</ele>
        <time>2021-07-17T05:02:56.000Z</time>
      </trkpt>
      <trkpt lat="45.23155" lon="5.73176">
        <ele>734</ele>
        <time>2021-07-17T05:03:03.000Z</time>
      </trkpt>
      <trkpt lat="45.23161" lon="5.73181">
        <ele>734.40002441406</ele>
        <time>2021-07-17T05:03:06.000Z</time>
      </trkpt>
      <trkpt lat="45.23168" lon="5.73186">
        <ele>735.40002441406</ele>
        <time>2021-07-17T05:03:10.000Z</time>
      </trkpt>
      <trkpt lat="45.2317" lon="5.73187">
        <ele>735.40002441406</ele>
        <time>2021-07-17T05:03:11.000Z</time>
      </trkpt>
      <trkpt lat="45.23171" lon="5.73188">
        <ele>735.79998779297</ele>
        <time>2021-07-17T05:03:12.000Z</time>
      </trkpt>
      <trkpt lat="45.23173" lon="5.73189">
        <ele>736</ele>
        <time>2021-07-17T05:03:13.000Z</time>
      </trkpt>
      <trkpt lat="45.23182" lon="5.73193">
        <ele>736.40002441406</ele>
        <time>2021-07-17T05:03:20.000Z</time>
      </trkpt>
      <trkpt lat="45.23184" lon="5.73195">
        <ele>736.79998779297</ele>
        <time>2021-07-17T05:03:22.000Z</time>
      </trkpt>
      <trkpt lat="45.23188" lon="5.73199">
        <ele>737.40002441406</ele>
        <time>2021-07-17T05:03:25.000Z</time>
      </trkpt>
      <trkpt lat="45.2319" lon="5.73199">
        <ele>737.40002441406</ele>
        <time>2021-07-17T05:03:26.000Z</time>
      </trkpt>
      <trkpt lat="45.23193" lon="5.73202">
        <ele>737.79998779297</ele>
        <time>2021-07-17T05:03:28.000Z</time>
      </trkpt>
      <trkpt lat="45.232" lon="5.73207">
        <ele>738.79998779297</ele>
        <time>2021-07-17T05:03:33.000Z</time>
      </trkpt>
      <trkpt lat="45.23202" lon="5.73208">
        <ele>739</ele>
        <time>2021-07-17T05:03:34.000Z</time>
      </trkpt>
      <trkpt lat="45.23208" lon="5.73209">
        <ele>740</ele>
        <time>2021-07-17T05:03:38.000Z</time>
      </trkpt>
      <trkpt lat="45.23209" lon="5.7321">
        <ele>740.40002441406</ele>
        <time>2021-07-17T05:03:39.000Z</time>
      </trkpt>
      <trkpt lat="45.23213" lon="5.73212">
        <ele>741.20001220703</ele>
        <time>2021-07-17T05:03:42.000Z</time>
      </trkpt>
      <trkpt lat="45.23216" lon="5.73214">
        <ele>741.79998779297</ele>
        <time>2021-07-17T05:03:45.000Z</time>
      </trkpt>
      <trkpt lat="45.23217" lon="5.73215">
        <ele>742.59997558594</ele>
        <time>2021-07-17T05:03:46.000Z</time>
      </trkpt>
      <trkpt lat="45.23218" lon="5.73215">
        <ele>742.59997558594</ele>
        <time>2021-07-17T05:03:47.000Z</time>
      </trkpt>
      <trkpt lat="45.23219" lon="5.73215">
        <ele>743</ele>
        <time>2021-07-17T05:03:48.000Z</time>
      </trkpt>
      <trkpt lat="45.23224" lon="5.73217">
        <ele>743.59997558594</ele>
        <time>2021-07-17T05:03:51.000Z</time>
      </trkpt>
      <trkpt lat="45.23225" lon="5.73219">
        <ele>744.20001220703</ele>
        <time>2021-07-17T05:03:52.000Z</time>
      </trkpt>
      <trkpt lat="45.23227" lon="5.7322">
        <ele>744.20001220703</ele>
        <time>2021-07-17T05:03:53.000Z</time>
      </trkpt>
      <trkpt lat="45.23228" lon="5.7322">
        <ele>744.79998779297</ele>
        <time>2021-07-17T05:03:54.000Z</time>
      </trkpt>
      <trkpt lat="45.23232" lon="5.73223">
        <ele>746</ele>
        <time>2021-07-17T05:03:58.000Z</time>
      </trkpt>
      <trkpt lat="45.23235" lon="5.73223">
        <ele>746.59997558594</ele>
        <time>2021-07-17T05:04:01.000Z</time>
      </trkpt>
      <trkpt lat="45.23238" lon="5.73225">
        <ele>747.79998779297</ele>
        <time>2021-07-17T05:04:04.000Z</time>
      </trkpt>
      <trkpt lat="45.2324" lon="5.73227">
        <ele>748.20001220703</ele>
        <time>2021-07-17T05:04:07.000Z</time>
      </trkpt>
      <trkpt lat="45.23241" lon="5.7323">
        <ele>748.79998779297</ele>
        <time>2021-07-17T05:04:09.000Z</time>
      </trkpt>
      <trkpt lat="45.23243" lon="5.73234">
        <ele>749.40002441406</ele>
        <time>2021-07-17T05:04:11.000Z</time>
      </trkpt>
      <trkpt lat="45.23244" lon="5.73235">
        <ele>750.20001220703</ele>
        <time>2021-07-17T05:04:12.000Z</time>
      </trkpt>
      <trkpt lat="45.23246" lon="5.73237">
        <ele>750.79998779297</ele>
        <time>2021-07-17T05:04:15.000Z</time>
      </trkpt>
      <trkpt lat="45.23248" lon="5.73239">
        <ele>751.20001220703</ele>
        <time>2021-07-17T05:04:17.000Z</time>
      </trkpt>
      <trkpt lat="45.23252" lon="5.73242">
        <ele>752.40002441406</ele>
        <time>2021-07-17T05:04:20.000Z</time>
      </trkpt>
      <trkpt lat="45.23256" lon="5.73244">
        <ele>753.20001220703</ele>
        <time>2021-07-17T05:04:23.000Z</time>
      </trkpt>
      <trkpt lat="45.23258" lon="5.73247">
        <ele>753.59997558594</ele>
        <time>2021-07-17T05:04:25.000Z</time>
      </trkpt>
      <trkpt lat="45.23261" lon="5.73249">
        <ele>754.79998779297</ele>
        <time>2021-07-17T05:04:27.000Z</time>
      </trkpt>
      <trkpt lat="45.23262" lon="5.73253">
        <ele>755.20001220703</ele>
        <time>2021-07-17T05:04:29.000Z</time>
      </trkpt>
      <trkpt lat="45.23262" lon="5.73257">
        <ele>755.40002441406</ele>
        <time>2021-07-17T05:04:31.000Z</time>
      </trkpt>
      <trkpt lat="45.23263" lon="5.73259">
        <ele>756</ele>
        <time>2021-07-17T05:04:33.000Z</time>
      </trkpt>
      <trkpt lat="45.23265" lon="5.73265">
        <ele>757.40002441406</ele>
        <time>2021-07-17T05:04:38.000Z</time>
      </trkpt>
      <trkpt lat="45.23265" lon="5.73266">
        <ele>757.40002441406</ele>
        <time>2021-07-17T05:04:39.000Z</time>
      </trkpt>
      <trkpt lat="45.23263" lon="5.73272">
        <ele>758.40002441406</ele>
        <time>2021-07-17T05:04:43.000Z</time>
      </trkpt>
      <trkpt lat="45.23264" lon="5.73274">
        <ele>759</ele>
        <time>2021-07-17T05:04:46.000Z</time>
      </trkpt>
      <trkpt lat="45.23264" lon="5.73275">
        <ele>759.40002441406</ele>
        <time>2021-07-17T05:04:47.000Z</time>
      </trkpt>
      <trkpt lat="45.23264" lon="5.73277">
        <ele>759.59997558594</ele>
        <time>2021-07-17T05:04:48.000Z</time>
      </trkpt>
      <trkpt lat="45.23263" lon="5.7328">
        <ele>760.59997558594</ele>
        <time>2021-07-17T05:04:51.000Z</time>
      </trkpt>
      <trkpt lat="45.23263" lon="5.73282">
        <ele>760.59997558594</ele>
        <time>2021-07-17T05:04:53.000Z</time>
      </trkpt>
      <trkpt lat="45.23263" lon="5.73284">
        <ele>760.79998779297</ele>
        <time>2021-07-17T05:04:55.000Z</time>
      </trkpt>
      <trkpt lat="45.23262" lon="5.73284">
        <ele>761</ele>
        <time>2021-07-17T05:04:57.000Z</time>
      </trkpt>
      <trkpt lat="45.23263" lon="5.73286">
        <ele>761.20001220703</ele>
        <time>2021-07-17T05:05:05.000Z</time>
      </trkpt>
      <trkpt lat="45.23262" lon="5.73286">
        <ele>761.20001220703</ele>
        <time>2021-07-17T05:05:06.000Z</time>
      </trkpt>
      <trkpt lat="45.23257" lon="5.73283">
        <ele>760.79998779297</ele>
        <time>2021-07-17T05:05:10.000Z</time>
      </trkpt>
      <trkpt lat="45.23257" lon="5.73281">
        <ele>760.40002441406</ele>
        <time>2021-07-17T05:05:12.000Z</time>
      </trkpt>
      <trkpt lat="45.23256" lon="5.73281">
        <ele>759.79998779297</ele>
        <time>2021-07-17T05:05:14.000Z</time>
      </trkpt>
      <trkpt lat="45.23256" lon="5.73282">
        <ele>759.40002441406</ele>
        <time>2021-07-17T05:05:15.000Z</time>
      </trkpt>
      <trkpt lat="45.23254" lon="5.73284">
        <ele>759.20001220703</ele>
        <time>2021-07-17T05:05:21.000Z</time>
      </trkpt>
      <trkpt lat="45.23255" lon="5.73286">
        <ele>759.20001220703</ele>
        <time>2021-07-17T05:05:26.000Z</time>
      </trkpt>
      <trkpt lat="45.23255" lon="5.73285">
        <ele>759.20001220703</ele>
        <time>2021-07-17T05:05:27.000Z</time>
      </trkpt>
      <trkpt lat="45.23256" lon="5.73286">
        <ele>760.20001220703</ele>
        <time>2021-07-17T05:05:30.000Z</time>
      </trkpt>
      <trkpt lat="45.23256" lon="5.73286">
        <ele>760.59997558594</ele>
        <time>2021-07-17T05:05:31.000Z</time>
      </trkpt>
      <trkpt lat="45.23258" lon="5.73286">
        <ele>761</ele>
        <time>2021-07-17T05:05:36.000Z</time>
      </trkpt>
      <trkpt lat="45.23258" lon="5.73286">
        <ele>761.20001220703</ele>
        <time>2021-07-17T05:05:41.000Z</time>
      </trkpt>
      <trkpt lat="45.23258" lon="5.73286">
        <ele>761</ele>
        <time>2021-07-17T05:05:44.000Z</time>
      </trkpt>
      <trkpt lat="45.23258" lon="5.73286">
        <ele>760.79998779297</ele>
        <time>2021-07-17T05:05:47.000Z</time>
      </trkpt>
      <trkpt lat="45.23257" lon="5.73286">
        <ele>761.59997558594</ele>
        <time>2021-07-17T05:05:52.000Z</time>
      </trkpt>
      <trkpt lat="45.23256" lon="5.73287">
        <ele>762.59997558594</ele>
        <time>2021-07-17T05:05:58.000Z</time>
      </trkpt>
      <trkpt lat="45.23254" lon="5.73287">
        <ele>763.79998779297</ele>
        <time>2021-07-17T05:06:03.000Z</time>
      </trkpt>
      <trkpt lat="45.23244" lon="5.73291">
        <ele>764.40002441406</ele>
        <time>2021-07-17T05:06:22.000Z</time>
      </trkpt>
      <trkpt lat="45.23242" lon="5.73291">
        <ele>763.79998779297</ele>
        <time>2021-07-17T05:06:28.000Z</time>
      </trkpt>
      <trkpt lat="45.23245" lon="5.7329">
        <ele>763.20001220703</ele>
        <time>2021-07-17T05:06:31.000Z</time>
      </trkpt>
      <trkpt lat="45.23247" lon="5.73289">
        <ele>762.59997558594</ele>
        <time>2021-07-17T05:06:33.000Z</time>
      </trkpt>
      <trkpt lat="45.23249" lon="5.73288">
        <ele>762.40002441406</ele>
        <time>2021-07-17T05:06:34.000Z</time>
      </trkpt>
      <trkpt lat="45.23253" lon="5.73284">
        <ele>761.59997558594</ele>
        <time>2021-07-17T05:06:37.000Z</time>
      </trkpt>
      <trkpt lat="45.23254" lon="5.73283">
        <ele>761.40002441406</ele>
        <time>2021-07-17T05:06:38.000Z</time>
      </trkpt>
      <trkpt lat="45.23258" lon="5.73279">
        <ele>760.59997558594</ele>
        <time>2021-07-17T05:06:42.000Z</time>
      </trkpt>
      <trkpt lat="45.23259" lon="5.73278">
        <ele>760.59997558594</ele>
        <time>2021-07-17T05:06:43.000Z</time>
      </trkpt>
      <trkpt lat="45.23261" lon="5.73276">
        <ele>760.40002441406</ele>
        <time>2021-07-17T05:06:44.000Z</time>
      </trkpt>
      <trkpt lat="45.23268" lon="5.73266">
        <ele>760.20001220703</ele>
        <time>2021-07-17T05:06:51.000Z</time>
      </trkpt>
      <trkpt lat="45.23271" lon="5.73262">
        <ele>760</ele>
        <time>2021-07-17T05:06:53.000Z</time>
      </trkpt>
      <trkpt lat="45.23272" lon="5.7326">
        <ele>760</ele>
        <time>2021-07-17T05:06:54.000Z</time>
      </trkpt>
      <trkpt lat="45.23277" lon="5.73258">
        <ele>759.20001220703</ele>
        <time>2021-07-17T05:06:57.000Z</time>
      </trkpt>
      <trkpt lat="45.23284" lon="5.73256">
        <ele>758.20001220703</ele>
        <time>2021-07-17T05:07:01.000Z</time>
      </trkpt>
      <trkpt lat="45.23288" lon="5.73255">
        <ele>757.20001220703</ele>
        <time>2021-07-17T05:07:03.000Z</time>
      </trkpt>
      <trkpt lat="45.2329" lon="5.73255">
        <ele>757</ele>
        <time>2021-07-17T05:07:04.000Z</time>
      </trkpt>
      <trkpt lat="45.23298" lon="5.73257">
        <ele>755.20001220703</ele>
        <time>2021-07-17T05:07:08.000Z</time>
      </trkpt>
      <trkpt lat="45.23304" lon="5.73257">
        <ele>754</ele>
        <time>2021-07-17T05:07:11.000Z</time>
      </trkpt>
      <trkpt lat="45.23307" lon="5.73257">
        <ele>753.79998779297</ele>
        <time>2021-07-17T05:07:12.000Z</time>
      </trkpt>
      <trkpt lat="45.23319" lon="5.73261">
        <ele>753</ele>
        <time>2021-07-17T05:07:18.000Z</time>
      </trkpt>
      <trkpt lat="45.23321" lon="5.73262">
        <ele>752.79998779297</ele>
        <time>2021-07-17T05:07:19.000Z</time>
      </trkpt>
      <trkpt lat="45.23341" lon="5.73268">
        <ele>752.40002441406</ele>
        <time>2021-07-17T05:07:26.000Z</time>
      </trkpt>
      <trkpt lat="45.23344" lon="5.73271">
        <ele>752.40002441406</ele>
        <time>2021-07-17T05:07:28.000Z</time>
      </trkpt>
      <trkpt lat="45.23349" lon="5.73272">
        <ele>751.79998779297</ele>
        <time>2021-07-17T05:07:31.000Z</time>
      </trkpt>
      <trkpt lat="45.23367" lon="5.73277">
        <ele>751.59997558594</ele>
        <time>2021-07-17T05:07:38.000Z</time>
      </trkpt>
      <trkpt lat="45.23384" lon="5.73279">
        <ele>751.79998779297</ele>
        <time>2021-07-17T05:07:45.000Z</time>
      </trkpt>
      <trkpt lat="45.23391" lon="5.73279">
        <ele>752.20001220703</ele>
        <time>2021-07-17T05:07:48.000Z</time>
      </trkpt>
      <trkpt lat="45.23393" lon="5.73278">
        <ele>752.20001220703</ele>
        <time>2021-07-17T05:07:49.000Z</time>
      </trkpt>
      <trkpt lat="45.23398" lon="5.73276">
        <ele>752</ele>
        <time>2021-07-17T05:07:51.000Z</time>
      </trkpt>
      <trkpt lat="45.23401" lon="5.73276">
        <ele>752</ele>
        <time>2021-07-17T05:07:52.000Z</time>
      </trkpt>
      <trkpt lat="45.23406" lon="5.73276">
        <ele>751.79998779297</ele>
        <time>2021-07-17T05:07:54.000Z</time>
      </trkpt>
      <trkpt lat="45.23422" lon="5.73277">
        <ele>751.59997558594</ele>
        <time>2021-07-17T05:08:00.000Z</time>
      </trkpt>
      <trkpt lat="45.23427" lon="5.73278">
        <ele>751.79998779297</ele>
        <time>2021-07-17T05:08:03.000Z</time>
      </trkpt>
      <trkpt lat="45.23433" lon="5.73276">
        <ele>752.20001220703</ele>
        <time>2021-07-17T05:08:06.000Z</time>
      </trkpt>
      <trkpt lat="45.23434" lon="5.73274">
        <ele>751</ele>
        <time>2021-07-17T05:08:10.000Z</time>
      </trkpt>
      <trkpt lat="45.23434" lon="5.73273">
        <ele>751</ele>
        <time>2021-07-17T05:08:11.000Z</time>
      </trkpt>
      <trkpt lat="45.23435" lon="5.73273">
        <ele>750.59997558594</ele>
        <time>2021-07-17T05:08:12.000Z</time>
      </trkpt>
      <trkpt lat="45.23437" lon="5.73269">
        <ele>749.59997558594</ele>
        <time>2021-07-17T05:08:15.000Z</time>
      </trkpt>
      <trkpt lat="45.2344" lon="5.73265">
        <ele>749</ele>
        <time>2021-07-17T05:08:17.000Z</time>
      </trkpt>
      <trkpt lat="45.23442" lon="5.73264">
        <ele>748.40002441406</ele>
        <time>2021-07-17T05:08:19.000Z</time>
      </trkpt>
      <trkpt lat="45.23443" lon="5.73261">
        <ele>746.59997558594</ele>
        <time>2021-07-17T05:08:22.000Z</time>
      </trkpt>
      <trkpt lat="45.23444" lon="5.7326">
        <ele>746.59997558594</ele>
        <time>2021-07-17T05:08:23.000Z</time>
      </trkpt>
      <trkpt lat="45.23445" lon="5.73258">
        <ele>745.59997558594</ele>
        <time>2021-07-17T05:08:25.000Z</time>
      </trkpt>
      <trkpt lat="45.23445" lon="5.73257">
        <ele>745.59997558594</ele>
        <time>2021-07-17T05:08:26.000Z</time>
      </trkpt>
      <trkpt lat="45.23446" lon="5.73254">
        <ele>744.59997558594</ele>
        <time>2021-07-17T05:08:29.000Z</time>
      </trkpt>
      <trkpt lat="45.23446" lon="5.73253">
        <ele>744.20001220703</ele>
        <time>2021-07-17T05:08:30.000Z</time>
      </trkpt>
      <trkpt lat="45.23447" lon="5.73249">
        <ele>742.59997558594</ele>
        <time>2021-07-17T05:08:33.000Z</time>
      </trkpt>
      <trkpt lat="45.23448" lon="5.73244">
        <ele>741.20001220703</ele>
        <time>2021-07-17T05:08:36.000Z</time>
      </trkpt>
      <trkpt lat="45.23448" lon="5.73242">
        <ele>741</ele>
        <time>2021-07-17T05:08:37.000Z</time>
      </trkpt>
      <trkpt lat="45.2345" lon="5.73238">
        <ele>740</ele>
        <time>2021-07-17T05:08:39.000Z</time>
      </trkpt>
      <trkpt lat="45.23452" lon="5.73231">
        <ele>738.40002441406</ele>
        <time>2021-07-17T05:08:42.000Z</time>
      </trkpt>
      <trkpt lat="45.23454" lon="5.73225">
        <ele>737.79998779297</ele>
        <time>2021-07-17T05:08:45.000Z</time>
      </trkpt>
      <trkpt lat="45.23455" lon="5.73223">
        <ele>736.79998779297</ele>
        <time>2021-07-17T05:08:47.000Z</time>
      </trkpt>
      <trkpt lat="45.23457" lon="5.73219">
        <ele>736.20001220703</ele>
        <time>2021-07-17T05:08:49.000Z</time>
      </trkpt>
      <trkpt lat="45.23457" lon="5.73218">
        <ele>736.20001220703</ele>
        <time>2021-07-17T05:08:50.000Z</time>
      </trkpt>
      <trkpt lat="45.23458" lon="5.73214">
        <ele>735</ele>
        <time>2021-07-17T05:08:52.000Z</time>
      </trkpt>
      <trkpt lat="45.2346" lon="5.7321">
        <ele>734</ele>
        <time>2021-07-17T05:08:55.000Z</time>
      </trkpt>
      <trkpt lat="45.23462" lon="5.73208">
        <ele>733.59997558594</ele>
        <time>2021-07-17T05:08:56.000Z</time>
      </trkpt>
      <trkpt lat="45.23465" lon="5.73203">
        <ele>732.79998779297</ele>
        <time>2021-07-17T05:08:58.000Z</time>
      </trkpt>
      <trkpt lat="45.23471" lon="5.73194">
        <ele>731.40002441406</ele>
        <time>2021-07-17T05:09:02.000Z</time>
      </trkpt>
      <trkpt lat="45.23473" lon="5.73192">
        <ele>731.20001220703</ele>
        <time>2021-07-17T05:09:03.000Z</time>
      </trkpt>
      <trkpt lat="45.23476" lon="5.73187">
        <ele>730.40002441406</ele>
        <time>2021-07-17T05:09:05.000Z</time>
      </trkpt>
      <trkpt lat="45.23478" lon="5.73185">
        <ele>729.79998779297</ele>
        <time>2021-07-17T05:09:06.000Z</time>
      </trkpt>
      <trkpt lat="45.23479" lon="5.73183">
        <ele>729</ele>
        <time>2021-07-17T05:09:07.000Z</time>
      </trkpt>
      <trkpt lat="45.23486" lon="5.73177">
        <ele>728.79998779297</ele>
        <time>2021-07-17T05:09:11.000Z</time>
      </trkpt>
      <trkpt lat="45.23488" lon="5.73174">
        <ele>727.20001220703</ele>
        <time>2021-07-17T05:09:13.000Z</time>
      </trkpt>
      <trkpt lat="45.23489" lon="5.73172">
        <ele>727</ele>
        <time>2021-07-17T05:09:15.000Z</time>
      </trkpt>
      <trkpt lat="45.2349" lon="5.73171">
        <ele>727</ele>
        <time>2021-07-17T05:09:16.000Z</time>
      </trkpt>
      <trkpt lat="45.23493" lon="5.73169">
        <ele>726.20001220703</ele>
        <time>2021-07-17T05:09:18.000Z</time>
      </trkpt>
      <trkpt lat="45.23495" lon="5.73168">
        <ele>725.59997558594</ele>
        <time>2021-07-17T05:09:19.000Z</time>
      </trkpt>
      <trkpt lat="45.23495" lon="5.73166">
        <ele>725.40002441406</ele>
        <time>2021-07-17T05:09:20.000Z</time>
      </trkpt>
      <trkpt lat="45.23498" lon="5.73162">
        <ele>724.79998779297</ele>
        <time>2021-07-17T05:09:22.000Z</time>
      </trkpt>
      <trkpt lat="45.235" lon="5.73158">
        <ele>724.20001220703</ele>
        <time>2021-07-17T05:09:24.000Z</time>
      </trkpt>
      <trkpt lat="45.23503" lon="5.73154">
        <ele>723.59997558594</ele>
        <time>2021-07-17T05:09:26.000Z</time>
      </trkpt>
      <trkpt lat="45.23505" lon="5.73151">
        <ele>723</ele>
        <time>2021-07-17T05:09:28.000Z</time>
      </trkpt>
      <trkpt lat="45.23505" lon="5.73149">
        <ele>722.40002441406</ele>
        <time>2021-07-17T05:09:29.000Z</time>
      </trkpt>
      <trkpt lat="45.23506" lon="5.73148">
        <ele>722.40002441406</ele>
        <time>2021-07-17T05:09:31.000Z</time>
      </trkpt>
      <trkpt lat="45.23505" lon="5.73148">
        <ele>722.40002441406</ele>
        <time>2021-07-17T05:09:32.000Z</time>
      </trkpt>
      <trkpt lat="45.23506" lon="5.73147">
        <ele>722.40002441406</ele>
        <time>2021-07-17T05:09:34.000Z</time>
      </trkpt>
      <trkpt lat="45.2351" lon="5.73143">
        <ele>722.20001220703</ele>
        <time>2021-07-17T05:09:38.000Z</time>
      </trkpt>
      <trkpt lat="45.2351" lon="5.73144">
        <ele>722.20001220703</ele>
        <time>2021-07-17T05:09:41.000Z</time>
      </trkpt>
      <trkpt lat="45.23509" lon="5.73145">
        <ele>722.20001220703</ele>
        <time>2021-07-17T05:09:45.000Z</time>
      </trkpt>
      <trkpt lat="45.2351" lon="5.73144">
        <ele>722.40002441406</ele>
        <time>2021-07-17T05:09:49.000Z</time>
      </trkpt>
      <trkpt lat="45.23511" lon="5.73144">
        <ele>722.40002441406</ele>
        <time>2021-07-17T05:09:52.000Z</time>
      </trkpt>
      <trkpt lat="45.23507" lon="5.73148">
        <ele>722</ele>
        <time>2021-07-17T05:09:59.000Z</time>
      </trkpt>
      <trkpt lat="45.23507" lon="5.73148">
        <ele>722.20001220703</ele>
        <time>2021-07-17T05:10:04.000Z</time>
      </trkpt>
      <trkpt lat="45.23507" lon="5.73148">
        <ele>722.20001220703</ele>
        <time>2021-07-17T05:10:07.000Z</time>
      </trkpt>
      <trkpt lat="45.23507" lon="5.73148">
        <ele>722</ele>
        <time>2021-07-17T05:10:12.000Z</time>
      </trkpt>
      <trkpt lat="45.23508" lon="5.7315">
        <ele>721.59997558594</ele>
        <time>2021-07-17T05:10:29.000Z</time>
      </trkpt>
      <trkpt lat="45.23508" lon="5.7315">
        <ele>721.59997558594</ele>
        <time>2021-07-17T05:10:31.000Z</time>
      </trkpt>
      <trkpt lat="45.23508" lon="5.73151">
        <ele>721.79998779297</ele>
        <time>2021-07-17T05:10:35.000Z</time>
      </trkpt>
      <trkpt lat="45.23509" lon="5.73152">
        <ele>722.20001220703</ele>
        <time>2021-07-17T05:10:39.000Z</time>
      </trkpt>
      <trkpt lat="45.23508" lon="5.73155">
        <ele>722.40002441406</ele>
        <time>2021-07-17T05:10:42.000Z</time>
      </trkpt>
      <trkpt lat="45.23508" lon="5.73159">
        <ele>723.40002441406</ele>
        <time>2021-07-17T05:10:45.000Z</time>
      </trkpt>
      <trkpt lat="45.23507" lon="5.7316">
        <ele>723.59997558594</ele>
        <time>2021-07-17T05:10:46.000Z</time>
      </trkpt>
      <trkpt lat="45.23506" lon="5.73164">
        <ele>724</ele>
        <time>2021-07-17T05:10:48.000Z</time>
      </trkpt>
      <trkpt lat="45.23504" lon="5.73168">
        <ele>725</ele>
        <time>2021-07-17T05:10:51.000Z</time>
      </trkpt>
      <trkpt lat="45.23504" lon="5.73169">
        <ele>725.40002441406</ele>
        <time>2021-07-17T05:10:53.000Z</time>
      </trkpt>
      <trkpt lat="45.23501" lon="5.73173">
        <ele>726</ele>
        <time>2021-07-17T05:10:56.000Z</time>
      </trkpt>
      <trkpt lat="45.23499" lon="5.73175">
        <ele>726</ele>
        <time>2021-07-17T05:10:57.000Z</time>
      </trkpt>
      <trkpt lat="45.23498" lon="5.73179">
        <ele>727</ele>
        <time>2021-07-17T05:11:00.000Z</time>
      </trkpt>
      <trkpt lat="45.23497" lon="5.73181">
        <ele>727.20001220703</ele>
        <time>2021-07-17T05:11:01.000Z</time>
      </trkpt>
      <trkpt lat="45.23496" lon="5.73182">
        <ele>727.79998779297</ele>
        <time>2021-07-17T05:11:02.000Z</time>
      </trkpt>
      <trkpt lat="45.23495" lon="5.73183">
        <ele>727.79998779297</ele>
        <time>2021-07-17T05:11:03.000Z</time>
      </trkpt>
      <trkpt lat="45.23493" lon="5.73184">
        <ele>728.40002441406</ele>
        <time>2021-07-17T05:11:04.000Z</time>
      </trkpt>
      <trkpt lat="45.23491" lon="5.73186">
        <ele>728.79998779297</ele>
        <time>2021-07-17T05:11:06.000Z</time>
      </trkpt>
      <trkpt lat="45.23489" lon="5.73188">
        <ele>729</ele>
        <time>2021-07-17T05:11:08.000Z</time>
      </trkpt>
      <trkpt lat="45.23487" lon="5.7319">
        <ele>729.79998779297</ele>
        <time>2021-07-17T05:11:09.000Z</time>
      </trkpt>
      <trkpt lat="45.23486" lon="5.73191">
        <ele>730.20001220703</ele>
        <time>2021-07-17T05:11:10.000Z</time>
      </trkpt>
      <trkpt lat="45.23485" lon="5.73192">
        <ele>730.40002441406</ele>
        <time>2021-07-17T05:11:11.000Z</time>
      </trkpt>
      <trkpt lat="45.23485" lon="5.73193">
        <ele>730.59997558594</ele>
        <time>2021-07-17T05:11:12.000Z</time>
      </trkpt>
      <trkpt lat="45.23484" lon="5.73194">
        <ele>730.79998779297</ele>
        <time>2021-07-17T05:11:13.000Z</time>
      </trkpt>
      <trkpt lat="45.23483" lon="5.73197">
        <ele>731.40002441406</ele>
        <time>2021-07-17T05:11:15.000Z</time>
      </trkpt>
      <trkpt lat="45.23479" lon="5.73201">
        <ele>732.40002441406</ele>
        <time>2021-07-17T05:11:18.000Z</time>
      </trkpt>
      <trkpt lat="45.23478" lon="5.73203">
        <ele>732.40002441406</ele>
        <time>2021-07-17T05:11:19.000Z</time>
      </trkpt>
      <trkpt lat="45.23472" lon="5.7321">
        <ele>733.79998779297</ele>
        <time>2021-07-17T05:11:23.000Z</time>
      </trkpt>
      <trkpt lat="45.2347" lon="5.73215">
        <ele>734.40002441406</ele>
        <time>2021-07-17T05:11:26.000Z</time>
      </trkpt>
      <trkpt lat="45.23471" lon="5.73216">
        <ele>734.40002441406</ele>
        <time>2021-07-17T05:11:27.000Z</time>
      </trkpt>
      <trkpt lat="45.23471" lon="5.73218">
        <ele>735.20001220703</ele>
        <time>2021-07-17T05:11:29.000Z</time>
      </trkpt>
      <trkpt lat="45.23471" lon="5.7322">
        <ele>735.40002441406</ele>
        <time>2021-07-17T05:11:30.000Z</time>
      </trkpt>
      <trkpt lat="45.23468" lon="5.73224">
        <ele>735.79998779297</ele>
        <time>2021-07-17T05:11:32.000Z</time>
      </trkpt>
      <trkpt lat="45.23466" lon="5.73229">
        <ele>737</ele>
        <time>2021-07-17T05:11:35.000Z</time>
      </trkpt>
      <trkpt lat="45.23466" lon="5.7323">
        <ele>737.20001220703</ele>
        <time>2021-07-17T05:11:37.000Z</time>
      </trkpt>
      <trkpt lat="45.23466" lon="5.73233">
        <ele>737.40002441406</ele>
        <time>2021-07-17T05:11:39.000Z</time>
      </trkpt>
      <trkpt lat="45.23466" lon="5.73236">
        <ele>738.40002441406</ele>
        <time>2021-07-17T05:11:41.000Z</time>
      </trkpt>
      <trkpt lat="45.23465" lon="5.73237">
        <ele>738.59997558594</ele>
        <time>2021-07-17T05:11:42.000Z</time>
      </trkpt>
      <trkpt lat="45.23465" lon="5.73238">
        <ele>739.20001220703</ele>
        <time>2021-07-17T05:11:44.000Z</time>
      </trkpt>
      <trkpt lat="45.23464" lon="5.7324">
        <ele>739.40002441406</ele>
        <time>2021-07-17T05:11:46.000Z</time>
      </trkpt>
      <trkpt lat="45.23464" lon="5.73241">
        <ele>739.79998779297</ele>
        <time>2021-07-17T05:11:47.000Z</time>
      </trkpt>
      <trkpt lat="45.23463" lon="5.73245">
        <ele>740.79998779297</ele>
        <time>2021-07-17T05:11:50.000Z</time>
      </trkpt>
      <trkpt lat="45.23463" lon="5.73246">
        <ele>740.79998779297</ele>
        <time>2021-07-17T05:11:51.000Z</time>
      </trkpt>
      <trkpt lat="45.23462" lon="5.73247">
        <ele>741.20001220703</ele>
        <time>2021-07-17T05:11:52.000Z</time>
      </trkpt>
      <trkpt lat="45.23462" lon="5.73248">
        <ele>741.79998779297</ele>
        <time>2021-07-17T05:11:54.000Z</time>
      </trkpt>
      <trkpt lat="45.23462" lon="5.73251">
        <ele>742.40002441406</ele>
        <time>2021-07-17T05:11:56.000Z</time>
      </trkpt>
      <trkpt lat="45.23461" lon="5.73253">
        <ele>742.79998779297</ele>
        <time>2021-07-17T05:11:58.000Z</time>
      </trkpt>
      <trkpt lat="45.23461" lon="5.73254">
        <ele>743.20001220703</ele>
        <time>2021-07-17T05:11:59.000Z</time>
      </trkpt>
      <trkpt lat="45.23461" lon="5.73256">
        <ele>743.79998779297</ele>
        <time>2021-07-17T05:12:01.000Z</time>
      </trkpt>
      <trkpt lat="45.23461" lon="5.73257">
        <ele>744.20001220703</ele>
        <time>2021-07-17T05:12:02.000Z</time>
      </trkpt>
      <trkpt lat="45.2346" lon="5.73258">
        <ele>745</ele>
        <time>2021-07-17T05:12:03.000Z</time>
      </trkpt>
      <trkpt lat="45.23459" lon="5.73261">
        <ele>745.20001220703</ele>
        <time>2021-07-17T05:12:05.000Z</time>
      </trkpt>
      <trkpt lat="45.23458" lon="5.73263">
        <ele>745.59997558594</ele>
        <time>2021-07-17T05:12:07.000Z</time>
      </trkpt>
      <trkpt lat="45.23458" lon="5.73263">
        <ele>745.79998779297</ele>
        <time>2021-07-17T05:12:08.000Z</time>
      </trkpt>
      <trkpt lat="45.23458" lon="5.73264">
        <ele>746.20001220703</ele>
        <time>2021-07-17T05:12:09.000Z</time>
      </trkpt>
      <trkpt lat="45.23456" lon="5.73267">
        <ele>746.79998779297</ele>
        <time>2021-07-17T05:12:11.000Z</time>
      </trkpt>
      <trkpt lat="45.23455" lon="5.73268">
        <ele>747.40002441406</ele>
        <time>2021-07-17T05:12:12.000Z</time>
      </trkpt>
      <trkpt lat="45.23454" lon="5.7327">
        <ele>747.40002441406</ele>
        <time>2021-07-17T05:12:14.000Z</time>
      </trkpt>
      <trkpt lat="45.23454" lon="5.73271">
        <ele>748</ele>
        <time>2021-07-17T05:12:15.000Z</time>
      </trkpt>
      <trkpt lat="45.23453" lon="5.73274">
        <ele>748</ele>
        <time>2021-07-17T05:12:17.000Z</time>
      </trkpt>
      <trkpt lat="45.23451" lon="5.73277">
        <ele>748.40002441406</ele>
        <time>2021-07-17T05:12:19.000Z</time>
      </trkpt>
      <trkpt lat="45.2345" lon="5.73278">
        <ele>749.59997558594</ele>
        <time>2021-07-17T05:12:21.000Z</time>
      </trkpt>
      <trkpt lat="45.23449" lon="5.7328">
        <ele>749.79998779297</ele>
        <time>2021-07-17T05:12:22.000Z</time>
      </trkpt>
      <trkpt lat="45.23448" lon="5.73281">
        <ele>750.40002441406</ele>
        <time>2021-07-17T05:12:23.000Z</time>
      </trkpt>
      <trkpt lat="45.23447" lon="5.73283">
        <ele>750.40002441406</ele>
        <time>2021-07-17T05:12:24.000Z</time>
      </trkpt>
      <trkpt lat="45.23445" lon="5.73288">
        <ele>751.40002441406</ele>
        <time>2021-07-17T05:12:27.000Z</time>
      </trkpt>
      <trkpt lat="45.23443" lon="5.7329">
        <ele>751.59997558594</ele>
        <time>2021-07-17T05:12:29.000Z</time>
      </trkpt>
      <trkpt lat="45.23438" lon="5.73293">
        <ele>751.59997558594</ele>
        <time>2021-07-17T05:12:32.000Z</time>
      </trkpt>
      <trkpt lat="45.23436" lon="5.73294">
        <ele>751.59997558594</ele>
        <time>2021-07-17T05:12:33.000Z</time>
      </trkpt>
      <trkpt lat="45.23429" lon="5.73296">
        <ele>751.59997558594</ele>
        <time>2021-07-17T05:12:37.000Z</time>
      </trkpt>
      <trkpt lat="45.23424" lon="5.73297">
        <ele>751.20001220703</ele>
        <time>2021-07-17T05:12:40.000Z</time>
      </trkpt>
      <trkpt lat="45.23421" lon="5.73297">
        <ele>751</ele>
        <time>2021-07-17T05:12:42.000Z</time>
      </trkpt>
      <trkpt lat="45.23419" lon="5.73297">
        <ele>751</ele>
        <time>2021-07-17T05:12:43.000Z</time>
      </trkpt>
      <trkpt lat="45.23416" lon="5.73296">
        <ele>751</ele>
        <time>2021-07-17T05:12:46.000Z</time>
      </trkpt>
      <trkpt lat="45.23415" lon="5.73295">
        <ele>751.40002441406</ele>
        <time>2021-07-17T05:12:49.000Z</time>
      </trkpt>
      <trkpt lat="45.23412" lon="5.73296">
        <ele>751.40002441406</ele>
        <time>2021-07-17T05:12:50.000Z</time>
      </trkpt>
      <trkpt lat="45.23407" lon="5.73297">
        <ele>752</ele>
        <time>2021-07-17T05:12:53.000Z</time>
      </trkpt>
      <trkpt lat="45.23403" lon="5.73297">
        <ele>752</ele>
        <time>2021-07-17T05:12:55.000Z</time>
      </trkpt>
      <trkpt lat="45.23392" lon="5.733">
        <ele>751.59997558594</ele>
        <time>2021-07-17T05:13:01.000Z</time>
      </trkpt>
      <trkpt lat="45.2339" lon="5.733">
        <ele>751.59997558594</ele>
        <time>2021-07-17T05:13:02.000Z</time>
      </trkpt>
      <trkpt lat="45.23387" lon="5.73299">
        <ele>751.59997558594</ele>
        <time>2021-07-17T05:13:04.000Z</time>
      </trkpt>
      <trkpt lat="45.23385" lon="5.733">
        <ele>751.59997558594</ele>
        <time>2021-07-17T05:13:05.000Z</time>
      </trkpt>
      <trkpt lat="45.2338" lon="5.73302">
        <ele>751.59997558594</ele>
        <time>2021-07-17T05:13:08.000Z</time>
      </trkpt>
      <trkpt lat="45.23377" lon="5.73303">
        <ele>752</ele>
        <time>2021-07-17T05:13:11.000Z</time>
      </trkpt>
      <trkpt lat="45.23375" lon="5.73305">
        <ele>752.40002441406</ele>
        <time>2021-07-17T05:13:12.000Z</time>
      </trkpt>
      <trkpt lat="45.23374" lon="5.73307">
        <ele>752.40002441406</ele>
        <time>2021-07-17T05:13:13.000Z</time>
      </trkpt>
      <trkpt lat="45.23374" lon="5.73308">
        <ele>752.79998779297</ele>
        <time>2021-07-17T05:13:14.000Z</time>
      </trkpt>
      <trkpt lat="45.23373" lon="5.7331">
        <ele>753.79998779297</ele>
        <time>2021-07-17T05:13:17.000Z</time>
      </trkpt>
      <trkpt lat="45.23368" lon="5.73317">
        <ele>755.40002441406</ele>
        <time>2021-07-17T05:13:22.000Z</time>
      </trkpt>
      <trkpt lat="45.23372" lon="5.73323">
        <ele>756.79998779297</ele>
        <time>2021-07-17T05:13:28.000Z</time>
      </trkpt>
      <trkpt lat="45.2337" lon="5.73325">
        <ele>757.79998779297</ele>
        <time>2021-07-17T05:13:32.000Z</time>
      </trkpt>
      <trkpt lat="45.2337" lon="5.73325">
        <ele>757.79998779297</ele>
        <time>2021-07-17T05:13:33.000Z</time>
      </trkpt>
      <trkpt lat="45.23369" lon="5.73326">
        <ele>759</ele>
        <time>2021-07-17T05:13:35.000Z</time>
      </trkpt>
      <trkpt lat="45.23368" lon="5.73328">
        <ele>759.20001220703</ele>
        <time>2021-07-17T05:13:37.000Z</time>
      </trkpt>
      <trkpt lat="45.23368" lon="5.73331">
        <ele>759.59997558594</ele>
        <time>2021-07-17T05:13:39.000Z</time>
      </trkpt>
      <trkpt lat="45.23368" lon="5.73332">
        <ele>760</ele>
        <time>2021-07-17T05:13:40.000Z</time>
      </trkpt>
      <trkpt lat="45.23368" lon="5.73333">
        <ele>760</ele>
        <time>2021-07-17T05:13:41.000Z</time>
      </trkpt>
      <trkpt lat="45.23368" lon="5.73333">
        <ele>760.40002441406</ele>
        <time>2021-07-17T05:13:42.000Z</time>
      </trkpt>
      <trkpt lat="45.23367" lon="5.73337">
        <ele>760.79998779297</ele>
        <time>2021-07-17T05:13:45.000Z</time>
      </trkpt>
      <trkpt lat="45.23367" lon="5.73339">
        <ele>760.79998779297</ele>
        <time>2021-07-17T05:13:46.000Z</time>
      </trkpt>
      <trkpt lat="45.23368" lon="5.73339">
        <ele>761.40002441406</ele>
        <time>2021-07-17T05:13:47.000Z</time>
      </trkpt>
      <trkpt lat="45.23368" lon="5.7334">
        <ele>761.79998779297</ele>
        <time>2021-07-17T05:13:48.000Z</time>
      </trkpt>
      <trkpt lat="45.23369" lon="5.73341">
        <ele>762</ele>
        <time>2021-07-17T05:13:51.000Z</time>
      </trkpt>
      <trkpt lat="45.2337" lon="5.73343">
        <ele>762.59997558594</ele>
        <time>2021-07-17T05:13:53.000Z</time>
      </trkpt>
      <trkpt lat="45.23371" lon="5.73345">
        <ele>763.40002441406</ele>
        <time>2021-07-17T05:13:55.000Z</time>
      </trkpt>
      <trkpt lat="45.23373" lon="5.73346">
        <ele>763.59997558594</ele>
        <time>2021-07-17T05:13:57.000Z</time>
      </trkpt>
      <trkpt lat="45.23372" lon="5.73346">
        <ele>764</ele>
        <time>2021-07-17T05:14:00.000Z</time>
      </trkpt>
      <trkpt lat="45.23373" lon="5.7335">
        <ele>764.40002441406</ele>
        <time>2021-07-17T05:14:02.000Z</time>
      </trkpt>
      <trkpt lat="45.23374" lon="5.73351">
        <ele>764.59997558594</ele>
        <time>2021-07-17T05:14:03.000Z</time>
      </trkpt>
      <trkpt lat="45.23376" lon="5.73353">
        <ele>765</ele>
        <time>2021-07-17T05:14:04.000Z</time>
      </trkpt>
      <trkpt lat="45.23376" lon="5.73355">
        <ele>765.59997558594</ele>
        <time>2021-07-17T05:14:05.000Z</time>
      </trkpt>
      <trkpt lat="45.23377" lon="5.73359">
        <ele>766.40002441406</ele>
        <time>2021-07-17T05:14:08.000Z</time>
      </trkpt>
      <trkpt lat="45.23381" lon="5.73363">
        <ele>766.79998779297</ele>
        <time>2021-07-17T05:14:11.000Z</time>
      </trkpt>
      <trkpt lat="45.23384" lon="5.73369">
        <ele>767.79998779297</ele>
        <time>2021-07-17T05:14:15.000Z</time>
      </trkpt>
      <trkpt lat="45.23385" lon="5.7337">
        <ele>769.20001220703</ele>
        <time>2021-07-17T05:14:18.000Z</time>
      </trkpt>
      <trkpt lat="45.23385" lon="5.73371">
        <ele>769.40002441406</ele>
        <time>2021-07-17T05:14:20.000Z</time>
      </trkpt>
      <trkpt lat="45.23385" lon="5.73372">
        <ele>769.79998779297</ele>
        <time>2021-07-17T05:14:21.000Z</time>
      </trkpt>
      <trkpt lat="45.23386" lon="5.73373">
        <ele>770.40002441406</ele>
        <time>2021-07-17T05:14:22.000Z</time>
      </trkpt>
      <trkpt lat="45.23386" lon="5.73374">
        <ele>770.59997558594</ele>
        <time>2021-07-17T05:14:23.000Z</time>
      </trkpt>
      <trkpt lat="45.23387" lon="5.73376">
        <ele>771</ele>
        <time>2021-07-17T05:14:25.000Z</time>
      </trkpt>
      <trkpt lat="45.23387" lon="5.73377">
        <ele>771.59997558594</ele>
        <time>2021-07-17T05:14:26.000Z</time>
      </trkpt>
      <trkpt lat="45.23389" lon="5.73384">
        <ele>773.20001220703</ele>
        <time>2021-07-17T05:14:31.000Z</time>
      </trkpt>
      <trkpt lat="45.23389" lon="5.73385">
        <ele>773.20001220703</ele>
        <time>2021-07-17T05:14:32.000Z</time>
      </trkpt>
      <trkpt lat="45.23389" lon="5.73386">
        <ele>773.59997558594</ele>
        <time>2021-07-17T05:14:33.000Z</time>
      </trkpt>
      <trkpt lat="45.23389" lon="5.73387">
        <ele>774.20001220703</ele>
        <time>2021-07-17T05:14:34.000Z</time>
      </trkpt>
      <trkpt lat="45.2339" lon="5.73388">
        <ele>774.40002441406</ele>
        <time>2021-07-17T05:14:35.000Z</time>
      </trkpt>
      <trkpt lat="45.23391" lon="5.7339">
        <ele>774.59997558594</ele>
        <time>2021-07-17T05:14:37.000Z</time>
      </trkpt>
      <trkpt lat="45.23392" lon="5.73391">
        <ele>774.79998779297</ele>
        <time>2021-07-17T05:14:38.000Z</time>
      </trkpt>
      <trkpt lat="45.23393" lon="5.73393">
        <ele>775.40002441406</ele>
        <time>2021-07-17T05:14:39.000Z</time>
      </trkpt>
      <trkpt lat="45.23393" lon="5.73394">
        <ele>775.40002441406</ele>
        <time>2021-07-17T05:14:40.000Z</time>
      </trkpt>
      <trkpt lat="45.23396" lon="5.734">
        <ele>776.20001220703</ele>
        <time>2021-07-17T05:14:44.000Z</time>
      </trkpt>
      <trkpt lat="45.23397" lon="5.73401">
        <ele>776.79998779297</ele>
        <time>2021-07-17T05:14:45.000Z</time>
      </trkpt>
      <trkpt lat="45.23398" lon="5.73404">
        <ele>777.20001220703</ele>
        <time>2021-07-17T05:14:48.000Z</time>
      </trkpt>
      <trkpt lat="45.23399" lon="5.73405">
        <ele>777.79998779297</ele>
        <time>2021-07-17T05:14:50.000Z</time>
      </trkpt>
      <trkpt lat="45.234" lon="5.73407">
        <ele>778.79998779297</ele>
        <time>2021-07-17T05:14:52.000Z</time>
      </trkpt>
      <trkpt lat="45.234" lon="5.7341">
        <ele>778.79998779297</ele>
        <time>2021-07-17T05:14:54.000Z</time>
      </trkpt>
      <trkpt lat="45.234" lon="5.73412">
        <ele>779.40002441406</ele>
        <time>2021-07-17T05:14:56.000Z</time>
      </trkpt>
      <trkpt lat="45.23401" lon="5.73415">
        <ele>779.79998779297</ele>
        <time>2021-07-17T05:14:58.000Z</time>
      </trkpt>
      <trkpt lat="45.23402" lon="5.73418">
        <ele>781</ele>
        <time>2021-07-17T05:15:01.000Z</time>
      </trkpt>
      <trkpt lat="45.23403" lon="5.73421">
        <ele>781.40002441406</ele>
        <time>2021-07-17T05:15:05.000Z</time>
      </trkpt>
      <trkpt lat="45.23403" lon="5.73423">
        <ele>781.59997558594</ele>
        <time>2021-07-17T05:15:06.000Z</time>
      </trkpt>
      <trkpt lat="45.23404" lon="5.73424">
        <ele>782</ele>
        <time>2021-07-17T05:15:07.000Z</time>
      </trkpt>
      <trkpt lat="45.23403" lon="5.73426">
        <ele>782.79998779297</ele>
        <time>2021-07-17T05:15:08.000Z</time>
      </trkpt>
      <trkpt lat="45.23403" lon="5.73427">
        <ele>782.79998779297</ele>
        <time>2021-07-17T05:15:09.000Z</time>
      </trkpt>
      <trkpt lat="45.23403" lon="5.73428">
        <ele>783.20001220703</ele>
        <time>2021-07-17T05:15:10.000Z</time>
      </trkpt>
      <trkpt lat="45.23404" lon="5.73429">
        <ele>783.20001220703</ele>
        <time>2021-07-17T05:15:11.000Z</time>
      </trkpt>
      <trkpt lat="45.23404" lon="5.73428">
        <ele>783.79998779297</ele>
        <time>2021-07-17T05:15:13.000Z</time>
      </trkpt>
      <trkpt lat="45.23404" lon="5.73429">
        <ele>784.59997558594</ele>
        <time>2021-07-17T05:15:14.000Z</time>
      </trkpt>
      <trkpt lat="45.23404" lon="5.73431">
        <ele>784.59997558594</ele>
        <time>2021-07-17T05:15:16.000Z</time>
      </trkpt>
      <trkpt lat="45.23404" lon="5.73433">
        <ele>785.79998779297</ele>
        <time>2021-07-17T05:15:20.000Z</time>
      </trkpt>
      <trkpt lat="45.23409" lon="5.73435">
        <ele>787</ele>
        <time>2021-07-17T05:15:26.000Z</time>
      </trkpt>
      <trkpt lat="45.2341" lon="5.73436">
        <ele>787.59997558594</ele>
        <time>2021-07-17T05:15:27.000Z</time>
      </trkpt>
      <trkpt lat="45.23411" lon="5.73439">
        <ele>788.20001220703</ele>
        <time>2021-07-17T05:15:31.000Z</time>
      </trkpt>
      <trkpt lat="45.23411" lon="5.7344">
        <ele>788.79998779297</ele>
        <time>2021-07-17T05:15:33.000Z</time>
      </trkpt>
      <trkpt lat="45.23411" lon="5.73442">
        <ele>789.59997558594</ele>
        <time>2021-07-17T05:15:34.000Z</time>
      </trkpt>
      <trkpt lat="45.23412" lon="5.73447">
        <ele>790.79998779297</ele>
        <time>2021-07-17T05:15:39.000Z</time>
      </trkpt>
      <trkpt lat="45.23414" lon="5.73454">
        <ele>791.59997558594</ele>
        <time>2021-07-17T05:15:44.000Z</time>
      </trkpt>
      <trkpt lat="45.23415" lon="5.73455">
        <ele>792</ele>
        <time>2021-07-17T05:15:45.000Z</time>
      </trkpt>
      <trkpt lat="45.23415" lon="5.73456">
        <ele>792.40002441406</ele>
        <time>2021-07-17T05:15:46.000Z</time>
      </trkpt>
      <trkpt lat="45.23415" lon="5.73458">
        <ele>792.79998779297</ele>
        <time>2021-07-17T05:15:47.000Z</time>
      </trkpt>
      <trkpt lat="45.23418" lon="5.73462">
        <ele>793.20001220703</ele>
        <time>2021-07-17T05:15:49.000Z</time>
      </trkpt>
      <trkpt lat="45.2342" lon="5.73465">
        <ele>793.79998779297</ele>
        <time>2021-07-17T05:15:51.000Z</time>
      </trkpt>
      <trkpt lat="45.2342" lon="5.73466">
        <ele>794</ele>
        <time>2021-07-17T05:15:52.000Z</time>
      </trkpt>
      <trkpt lat="45.23421" lon="5.73467">
        <ele>794.20001220703</ele>
        <time>2021-07-17T05:15:53.000Z</time>
      </trkpt>
      <trkpt lat="45.23421" lon="5.73469">
        <ele>794.20001220703</ele>
        <time>2021-07-17T05:15:54.000Z</time>
      </trkpt>
      <trkpt lat="45.23425" lon="5.73472">
        <ele>795.40002441406</ele>
        <time>2021-07-17T05:15:57.000Z</time>
      </trkpt>
      <trkpt lat="45.23427" lon="5.73475">
        <ele>796</ele>
        <time>2021-07-17T05:16:00.000Z</time>
      </trkpt>
      <trkpt lat="45.23428" lon="5.73477">
        <ele>796.20001220703</ele>
        <time>2021-07-17T05:16:01.000Z</time>
      </trkpt>
      <trkpt lat="45.23429" lon="5.73479">
        <ele>796.59997558594</ele>
        <time>2021-07-17T05:16:03.000Z</time>
      </trkpt>
      <trkpt lat="45.23429" lon="5.7348">
        <ele>796.59997558594</ele>
        <time>2021-07-17T05:16:04.000Z</time>
      </trkpt>
      <trkpt lat="45.23429" lon="5.73482">
        <ele>797.59997558594</ele>
        <time>2021-07-17T05:16:06.000Z</time>
      </trkpt>
      <trkpt lat="45.23429" lon="5.73483">
        <ele>797.79998779297</ele>
        <time>2021-07-17T05:16:07.000Z</time>
      </trkpt>
      <trkpt lat="45.23429" lon="5.73485">
        <ele>798.59997558594</ele>
        <time>2021-07-17T05:16:10.000Z</time>
      </trkpt>
      <trkpt lat="45.2343" lon="5.73488">
        <ele>799.40002441406</ele>
        <time>2021-07-17T05:16:13.000Z</time>
      </trkpt>
      <trkpt lat="45.23431" lon="5.73489">
        <ele>799.79998779297</ele>
        <time>2021-07-17T05:16:14.000Z</time>
      </trkpt>
      <trkpt lat="45.23433" lon="5.73495">
        <ele>801</ele>
        <time>2021-07-17T05:16:19.000Z</time>
      </trkpt>
      <trkpt lat="45.23435" lon="5.73499">
        <ele>802.20001220703</ele>
        <time>2021-07-17T05:16:23.000Z</time>
      </trkpt>
      <trkpt lat="45.23436" lon="5.73502">
        <ele>803.20001220703</ele>
        <time>2021-07-17T05:16:26.000Z</time>
      </trkpt>
      <trkpt lat="45.23438" lon="5.73505">
        <ele>804.20001220703</ele>
        <time>2021-07-17T05:16:31.000Z</time>
      </trkpt>
      <trkpt lat="45.23441" lon="5.73509">
        <ele>805.40002441406</ele>
        <time>2021-07-17T05:16:36.000Z</time>
      </trkpt>
      <trkpt lat="45.23444" lon="5.73514">
        <ele>806.40002441406</ele>
        <time>2021-07-17T05:16:41.000Z</time>
      </trkpt>
      <trkpt lat="45.23444" lon="5.73516">
        <ele>806.79998779297</ele>
        <time>2021-07-17T05:16:43.000Z</time>
      </trkpt>
      <trkpt lat="45.23444" lon="5.73518">
        <ele>808</ele>
        <time>2021-07-17T05:16:45.000Z</time>
      </trkpt>
      <trkpt lat="45.23445" lon="5.73519">
        <ele>808</ele>
        <time>2021-07-17T05:16:46.000Z</time>
      </trkpt>
      <trkpt lat="45.23449" lon="5.73521">
        <ele>808.79998779297</ele>
        <time>2021-07-17T05:16:49.000Z</time>
      </trkpt>
      <trkpt lat="45.2345" lon="5.73521">
        <ele>809</ele>
        <time>2021-07-17T05:16:50.000Z</time>
      </trkpt>
      <trkpt lat="45.23452" lon="5.73525">
        <ele>809.59997558594</ele>
        <time>2021-07-17T05:16:53.000Z</time>
      </trkpt>
      <trkpt lat="45.23453" lon="5.73526">
        <ele>810.20001220703</ele>
        <time>2021-07-17T05:16:54.000Z</time>
      </trkpt>
      <trkpt lat="45.23453" lon="5.73526">
        <ele>810.40002441406</ele>
        <time>2021-07-17T05:16:55.000Z</time>
      </trkpt>
      <trkpt lat="45.23454" lon="5.73528">
        <ele>810.79998779297</ele>
        <time>2021-07-17T05:16:57.000Z</time>
      </trkpt>
      <trkpt lat="45.23455" lon="5.73528">
        <ele>811.59997558594</ele>
        <time>2021-07-17T05:16:58.000Z</time>
      </trkpt>
      <trkpt lat="45.23456" lon="5.73529">
        <ele>811.59997558594</ele>
        <time>2021-07-17T05:17:00.000Z</time>
      </trkpt>
      <trkpt lat="45.23458" lon="5.73531">
        <ele>811.79998779297</ele>
        <time>2021-07-17T05:17:02.000Z</time>
      </trkpt>
      <trkpt lat="45.23458" lon="5.73532">
        <ele>812.20001220703</ele>
        <time>2021-07-17T05:17:03.000Z</time>
      </trkpt>
      <trkpt lat="45.23459" lon="5.73534">
        <ele>812.79998779297</ele>
        <time>2021-07-17T05:17:04.000Z</time>
      </trkpt>
      <trkpt lat="45.23461" lon="5.73535">
        <ele>813</ele>
        <time>2021-07-17T05:17:06.000Z</time>
      </trkpt>
      <trkpt lat="45.23462" lon="5.73536">
        <ele>814</ele>
        <time>2021-07-17T05:17:08.000Z</time>
      </trkpt>
      <trkpt lat="45.23462" lon="5.73537">
        <ele>814.20001220703</ele>
        <time>2021-07-17T05:17:09.000Z</time>
      </trkpt>
      <trkpt lat="45.23463" lon="5.73539">
        <ele>815.20001220703</ele>
        <time>2021-07-17T05:17:12.000Z</time>
      </trkpt>
      <trkpt lat="45.23465" lon="5.73541">
        <ele>816.20001220703</ele>
        <time>2021-07-17T05:17:15.000Z</time>
      </trkpt>
      <trkpt lat="45.23467" lon="5.73544">
        <ele>816.79998779297</ele>
        <time>2021-07-17T05:17:18.000Z</time>
      </trkpt>
      <trkpt lat="45.23468" lon="5.73544">
        <ele>817</ele>
        <time>2021-07-17T05:17:19.000Z</time>
      </trkpt>
      <trkpt lat="45.23469" lon="5.73545">
        <ele>817.59997558594</ele>
        <time>2021-07-17T05:17:20.000Z</time>
      </trkpt>
      <trkpt lat="45.23469" lon="5.73545">
        <ele>818.20001220703</ele>
        <time>2021-07-17T05:17:21.000Z</time>
      </trkpt>
      <trkpt lat="45.2347" lon="5.73548">
        <ele>818.59997558594</ele>
        <time>2021-07-17T05:17:23.000Z</time>
      </trkpt>
      <trkpt lat="45.23471" lon="5.7355">
        <ele>818.59997558594</ele>
        <time>2021-07-17T05:17:25.000Z</time>
      </trkpt>
      <trkpt lat="45.23472" lon="5.73552">
        <ele>820</ele>
        <time>2021-07-17T05:17:28.000Z</time>
      </trkpt>
      <trkpt lat="45.23473" lon="5.73553">
        <ele>820.20001220703</ele>
        <time>2021-07-17T05:17:29.000Z</time>
      </trkpt>
      <trkpt lat="45.23474" lon="5.73556">
        <ele>820.79998779297</ele>
        <time>2021-07-17T05:17:31.000Z</time>
      </trkpt>
      <trkpt lat="45.23474" lon="5.73558">
        <ele>821.79998779297</ele>
        <time>2021-07-17T05:17:33.000Z</time>
      </trkpt>
      <trkpt lat="45.23474" lon="5.73559">
        <ele>822.20001220703</ele>
        <time>2021-07-17T05:17:34.000Z</time>
      </trkpt>
      <trkpt lat="45.23475" lon="5.73561">
        <ele>822.40002441406</ele>
        <time>2021-07-17T05:17:37.000Z</time>
      </trkpt>
      <trkpt lat="45.23477" lon="5.73563">
        <ele>823.20001220703</ele>
        <time>2021-07-17T05:17:39.000Z</time>
      </trkpt>
      <trkpt lat="45.23478" lon="5.73566">
        <ele>824</ele>
        <time>2021-07-17T05:17:42.000Z</time>
      </trkpt>
      <trkpt lat="45.23479" lon="5.73568">
        <ele>824.59997558594</ele>
        <time>2021-07-17T05:17:44.000Z</time>
      </trkpt>
      <trkpt lat="45.23482" lon="5.7357">
        <ele>825.79998779297</ele>
        <time>2021-07-17T05:17:48.000Z</time>
      </trkpt>
      <trkpt lat="45.23484" lon="5.73574">
        <ele>827.20001220703</ele>
        <time>2021-07-17T05:17:53.000Z</time>
      </trkpt>
      <trkpt lat="45.23485" lon="5.73579">
        <ele>827.59997558594</ele>
        <time>2021-07-17T05:17:55.000Z</time>
      </trkpt>
      <trkpt lat="45.23485" lon="5.73581">
        <ele>828.20001220703</ele>
        <time>2021-07-17T05:17:56.000Z</time>
      </trkpt>
      <trkpt lat="45.23485" lon="5.73583">
        <ele>829.20001220703</ele>
        <time>2021-07-17T05:17:59.000Z</time>
      </trkpt>
      <trkpt lat="45.23485" lon="5.73583">
        <ele>829.59997558594</ele>
        <time>2021-07-17T05:18:00.000Z</time>
      </trkpt>
      <trkpt lat="45.23487" lon="5.73582">
        <ele>829.79998779297</ele>
        <time>2021-07-17T05:18:02.000Z</time>
      </trkpt>
      <trkpt lat="45.23488" lon="5.73583">
        <ele>830.40002441406</ele>
        <time>2021-07-17T05:18:03.000Z</time>
      </trkpt>
      <trkpt lat="45.2349" lon="5.73584">
        <ele>831</ele>
        <time>2021-07-17T05:18:04.000Z</time>
      </trkpt>
      <trkpt lat="45.23491" lon="5.73584">
        <ele>831.40002441406</ele>
        <time>2021-07-17T05:18:05.000Z</time>
      </trkpt>
      <trkpt lat="45.23493" lon="5.73585">
        <ele>832</ele>
        <time>2021-07-17T05:18:08.000Z</time>
      </trkpt>
      <trkpt lat="45.23494" lon="5.73585">
        <ele>832.20001220703</ele>
        <time>2021-07-17T05:18:09.000Z</time>
      </trkpt>
      <trkpt lat="45.23494" lon="5.73586">
        <ele>832.20001220703</ele>
        <time>2021-07-17T05:18:10.000Z</time>
      </trkpt>
      <trkpt lat="45.23502" lon="5.73589">
        <ele>832.59997558594</ele>
        <time>2021-07-17T05:18:17.000Z</time>
      </trkpt>
      <trkpt lat="45.23506" lon="5.73594">
        <ele>833.40002441406</ele>
        <time>2021-07-17T05:18:21.000Z</time>
      </trkpt>
      <trkpt lat="45.23508" lon="5.73595">
        <ele>833.59997558594</ele>
        <time>2021-07-17T05:18:23.000Z</time>
      </trkpt>
      <trkpt lat="45.2351" lon="5.73597">
        <ele>834.20001220703</ele>
        <time>2021-07-17T05:18:25.000Z</time>
      </trkpt>
      <trkpt lat="45.23512" lon="5.73598">
        <ele>834.40002441406</ele>
        <time>2021-07-17T05:18:27.000Z</time>
      </trkpt>
      <trkpt lat="45.23515" lon="5.73599">
        <ele>835.59997558594</ele>
        <time>2021-07-17T05:18:30.000Z</time>
      </trkpt>
      <trkpt lat="45.23517" lon="5.73599">
        <ele>836</ele>
        <time>2021-07-17T05:18:32.000Z</time>
      </trkpt>
      <trkpt lat="45.23518" lon="5.73599">
        <ele>836.59997558594</ele>
        <time>2021-07-17T05:18:33.000Z</time>
      </trkpt>
      <trkpt lat="45.23519" lon="5.73601">
        <ele>836.59997558594</ele>
        <time>2021-07-17T05:18:34.000Z</time>
      </trkpt>
      <trkpt lat="45.2352" lon="5.73603">
        <ele>836.79998779297</ele>
        <time>2021-07-17T05:18:35.000Z</time>
      </trkpt>
      <trkpt lat="45.23521" lon="5.73607">
        <ele>837.20001220703</ele>
        <time>2021-07-17T05:18:37.000Z</time>
      </trkpt>
      <trkpt lat="45.23523" lon="5.73609">
        <ele>838.20001220703</ele>
        <time>2021-07-17T05:18:39.000Z</time>
      </trkpt>
      <trkpt lat="45.23525" lon="5.73609">
        <ele>838.79998779297</ele>
        <time>2021-07-17T05:18:42.000Z</time>
      </trkpt>
      <trkpt lat="45.23525" lon="5.7361">
        <ele>839</ele>
        <time>2021-07-17T05:18:43.000Z</time>
      </trkpt>
      <trkpt lat="45.23525" lon="5.7361">
        <ele>839.20001220703</ele>
        <time>2021-07-17T05:18:44.000Z</time>
      </trkpt>
      <trkpt lat="45.23526" lon="5.73611">
        <ele>839.40002441406</ele>
        <time>2021-07-17T05:18:45.000Z</time>
      </trkpt>
      <trkpt lat="45.23527" lon="5.73612">
        <ele>840.40002441406</ele>
        <time>2021-07-17T05:18:47.000Z</time>
      </trkpt>
      <trkpt lat="45.23527" lon="5.73614">
        <ele>840.40002441406</ele>
        <time>2021-07-17T05:18:48.000Z</time>
      </trkpt>
      <trkpt lat="45.23528" lon="5.73615">
        <ele>840.79998779297</ele>
        <time>2021-07-17T05:18:49.000Z</time>
      </trkpt>
      <trkpt lat="45.23529" lon="5.73616">
        <ele>841</ele>
        <time>2021-07-17T05:18:50.000Z</time>
      </trkpt>
      <trkpt lat="45.23531" lon="5.73618">
        <ele>841.79998779297</ele>
        <time>2021-07-17T05:18:53.000Z</time>
      </trkpt>
      <trkpt lat="45.23534" lon="5.73619">
        <ele>842.40002441406</ele>
        <time>2021-07-17T05:18:56.000Z</time>
      </trkpt>
      <trkpt lat="45.23536" lon="5.73619">
        <ele>843.20001220703</ele>
        <time>2021-07-17T05:18:58.000Z</time>
      </trkpt>
      <trkpt lat="45.23537" lon="5.73619">
        <ele>843.79998779297</ele>
        <time>2021-07-17T05:19:00.000Z</time>
      </trkpt>
      <trkpt lat="45.23539" lon="5.73619">
        <ele>844.40002441406</ele>
        <time>2021-07-17T05:19:02.000Z</time>
      </trkpt>
      <trkpt lat="45.23538" lon="5.73619">
        <ele>844.40002441406</ele>
        <time>2021-07-17T05:19:03.000Z</time>
      </trkpt>
      <trkpt lat="45.23541" lon="5.7362">
        <ele>845.20001220703</ele>
        <time>2021-07-17T05:19:06.000Z</time>
      </trkpt>
      <trkpt lat="45.23542" lon="5.73621">
        <ele>845.20001220703</ele>
        <time>2021-07-17T05:19:08.000Z</time>
      </trkpt>
      <trkpt lat="45.23543" lon="5.73621">
        <ele>845.79998779297</ele>
        <time>2021-07-17T05:19:09.000Z</time>
      </trkpt>
      <trkpt lat="45.23544" lon="5.73622">
        <ele>846.40002441406</ele>
        <time>2021-07-17T05:19:10.000Z</time>
      </trkpt>
      <trkpt lat="45.23547" lon="5.73624">
        <ele>847</ele>
        <time>2021-07-17T05:19:12.000Z</time>
      </trkpt>
      <trkpt lat="45.23548" lon="5.73625">
        <ele>848.20001220703</ele>
        <time>2021-07-17T05:19:14.000Z</time>
      </trkpt>
      <trkpt lat="45.2355" lon="5.73627">
        <ele>848.40002441406</ele>
        <time>2021-07-17T05:19:16.000Z</time>
      </trkpt>
      <trkpt lat="45.23551" lon="5.73629">
        <ele>848.59997558594</ele>
        <time>2021-07-17T05:19:19.000Z</time>
      </trkpt>
      <trkpt lat="45.23554" lon="5.73631">
        <ele>849.59997558594</ele>
        <time>2021-07-17T05:19:21.000Z</time>
      </trkpt>
      <trkpt lat="45.23554" lon="5.7363">
        <ele>850</ele>
        <time>2021-07-17T05:19:22.000Z</time>
      </trkpt>
      <trkpt lat="45.23555" lon="5.73631">
        <ele>850.59997558594</ele>
        <time>2021-07-17T05:19:24.000Z</time>
      </trkpt>
      <trkpt lat="45.23556" lon="5.73632">
        <ele>850.79998779297</ele>
        <time>2021-07-17T05:19:25.000Z</time>
      </trkpt>
      <trkpt lat="45.23556" lon="5.73632">
        <ele>851</ele>
        <time>2021-07-17T05:19:26.000Z</time>
      </trkpt>
      <trkpt lat="45.23557" lon="5.73633">
        <ele>851.40002441406</ele>
        <time>2021-07-17T05:19:28.000Z</time>
      </trkpt>
      <trkpt lat="45.23558" lon="5.73634">
        <ele>851.59997558594</ele>
        <time>2021-07-17T05:19:29.000Z</time>
      </trkpt>
      <trkpt lat="45.2356" lon="5.73636">
        <ele>852</ele>
        <time>2021-07-17T05:19:31.000Z</time>
      </trkpt>
      <trkpt lat="45.2356" lon="5.73636">
        <ele>853</ele>
        <time>2021-07-17T05:19:33.000Z</time>
      </trkpt>
      <trkpt lat="45.23561" lon="5.73636">
        <ele>853.40002441406</ele>
        <time>2021-07-17T05:19:34.000Z</time>
      </trkpt>
      <trkpt lat="45.23561" lon="5.73635">
        <ele>853.59997558594</ele>
        <time>2021-07-17T05:19:35.000Z</time>
      </trkpt>
      <trkpt lat="45.23562" lon="5.73634">
        <ele>854.40002441406</ele>
        <time>2021-07-17T05:19:37.000Z</time>
      </trkpt>
      <trkpt lat="45.23564" lon="5.73637">
        <ele>854.79998779297</ele>
        <time>2021-07-17T05:19:40.000Z</time>
      </trkpt>
      <trkpt lat="45.23566" lon="5.73639">
        <ele>855.79998779297</ele>
        <time>2021-07-17T05:19:43.000Z</time>
      </trkpt>
      <trkpt lat="45.23567" lon="5.7364">
        <ele>856.20001220703</ele>
        <time>2021-07-17T05:19:44.000Z</time>
      </trkpt>
      <trkpt lat="45.23567" lon="5.73641">
        <ele>857</ele>
        <time>2021-07-17T05:19:45.000Z</time>
      </trkpt>
      <trkpt lat="45.23568" lon="5.73642">
        <ele>857.59997558594</ele>
        <time>2021-07-17T05:19:46.000Z</time>
      </trkpt>
      <trkpt lat="45.23568" lon="5.73642">
        <ele>857.59997558594</ele>
        <time>2021-07-17T05:19:48.000Z</time>
      </trkpt>
      <trkpt lat="45.23569" lon="5.73644">
        <ele>858</ele>
        <time>2021-07-17T05:19:49.000Z</time>
      </trkpt>
      <trkpt lat="45.23569" lon="5.73645">
        <ele>858.20001220703</ele>
        <time>2021-07-17T05:19:50.000Z</time>
      </trkpt>
      <trkpt lat="45.23571" lon="5.73649">
        <ele>859.20001220703</ele>
        <time>2021-07-17T05:19:53.000Z</time>
      </trkpt>
      <trkpt lat="45.23572" lon="5.7365">
        <ele>859.20001220703</ele>
        <time>2021-07-17T05:19:54.000Z</time>
      </trkpt>
      <trkpt lat="45.23574" lon="5.73653">
        <ele>860.40002441406</ele>
        <time>2021-07-17T05:19:57.000Z</time>
      </trkpt>
      <trkpt lat="45.23574" lon="5.73654">
        <ele>860.40002441406</ele>
        <time>2021-07-17T05:19:58.000Z</time>
      </trkpt>
      <trkpt lat="45.23574" lon="5.73655">
        <ele>860.40002441406</ele>
        <time>2021-07-17T05:19:59.000Z</time>
      </trkpt>
      <trkpt lat="45.23573" lon="5.73657">
        <ele>861.59997558594</ele>
        <time>2021-07-17T05:20:03.000Z</time>
      </trkpt>
      <trkpt lat="45.23574" lon="5.73656">
        <ele>861.79998779297</ele>
        <time>2021-07-17T05:20:04.000Z</time>
      </trkpt>
      <trkpt lat="45.23575" lon="5.73656">
        <ele>862</ele>
        <time>2021-07-17T05:20:06.000Z</time>
      </trkpt>
      <trkpt lat="45.23576" lon="5.73657">
        <ele>862.59997558594</ele>
        <time>2021-07-17T05:20:07.000Z</time>
      </trkpt>
      <trkpt lat="45.23577" lon="5.73658">
        <ele>863.59997558594</ele>
        <time>2021-07-17T05:20:08.000Z</time>
      </trkpt>
      <trkpt lat="45.23578" lon="5.73661">
        <ele>864</ele>
        <time>2021-07-17T05:20:10.000Z</time>
      </trkpt>
      <trkpt lat="45.23579" lon="5.73662">
        <ele>864</ele>
        <time>2021-07-17T05:20:11.000Z</time>
      </trkpt>
      <trkpt lat="45.23579" lon="5.73663">
        <ele>864.20001220703</ele>
        <time>2021-07-17T05:20:12.000Z</time>
      </trkpt>
      <trkpt lat="45.23582" lon="5.73666">
        <ele>865.40002441406</ele>
        <time>2021-07-17T05:20:16.000Z</time>
      </trkpt>
      <trkpt lat="45.23584" lon="5.7367">
        <ele>866.20001220703</ele>
        <time>2021-07-17T05:20:19.000Z</time>
      </trkpt>
      <trkpt lat="45.23586" lon="5.73672">
        <ele>866.59997558594</ele>
        <time>2021-07-17T05:20:22.000Z</time>
      </trkpt>
      <trkpt lat="45.23588" lon="5.73673">
        <ele>867.79998779297</ele>
        <time>2021-07-17T05:20:25.000Z</time>
      </trkpt>
      <trkpt lat="45.23589" lon="5.73672">
        <ele>868.20001220703</ele>
        <time>2021-07-17T05:20:27.000Z</time>
      </trkpt>
      <trkpt lat="45.2359" lon="5.73675">
        <ele>868.79998779297</ele>
        <time>2021-07-17T05:20:29.000Z</time>
      </trkpt>
      <trkpt lat="45.2359" lon="5.73679">
        <ele>869.40002441406</ele>
        <time>2021-07-17T05:20:32.000Z</time>
      </trkpt>
      <trkpt lat="45.2359" lon="5.73679">
        <ele>870.20001220703</ele>
        <time>2021-07-17T05:20:33.000Z</time>
      </trkpt>
      <trkpt lat="45.23593" lon="5.73679">
        <ele>871</ele>
        <time>2021-07-17T05:20:36.000Z</time>
      </trkpt>
      <trkpt lat="45.23593" lon="5.73679">
        <ele>871.40002441406</ele>
        <time>2021-07-17T05:20:37.000Z</time>
      </trkpt>
      <trkpt lat="45.23592" lon="5.73683">
        <ele>872.20001220703</ele>
        <time>2021-07-17T05:20:41.000Z</time>
      </trkpt>
      <trkpt lat="45.23593" lon="5.73684">
        <ele>873.20001220703</ele>
        <time>2021-07-17T05:20:42.000Z</time>
      </trkpt>
      <trkpt lat="45.23593" lon="5.73684">
        <ele>873.79998779297</ele>
        <time>2021-07-17T05:20:44.000Z</time>
      </trkpt>
      <trkpt lat="45.23594" lon="5.73683">
        <ele>874.40002441406</ele>
        <time>2021-07-17T05:20:47.000Z</time>
      </trkpt>
      <trkpt lat="45.23596" lon="5.73684">
        <ele>875.59997558594</ele>
        <time>2021-07-17T05:20:52.000Z</time>
      </trkpt>
      <trkpt lat="45.23596" lon="5.73685">
        <ele>875.79998779297</ele>
        <time>2021-07-17T05:20:53.000Z</time>
      </trkpt>
      <trkpt lat="45.23598" lon="5.73685">
        <ele>877</ele>
        <time>2021-07-17T05:20:56.000Z</time>
      </trkpt>
      <trkpt lat="45.23599" lon="5.73687">
        <ele>878</ele>
        <time>2021-07-17T05:20:58.000Z</time>
      </trkpt>
      <trkpt lat="45.23599" lon="5.73687">
        <ele>878</ele>
        <time>2021-07-17T05:20:59.000Z</time>
      </trkpt>
      <trkpt lat="45.236" lon="5.73688">
        <ele>878.20001220703</ele>
        <time>2021-07-17T05:21:02.000Z</time>
      </trkpt>
      <trkpt lat="45.236" lon="5.73689">
        <ele>878.59997558594</ele>
        <time>2021-07-17T05:21:03.000Z</time>
      </trkpt>
      <trkpt lat="45.236" lon="5.7369">
        <ele>879.20001220703</ele>
        <time>2021-07-17T05:21:05.000Z</time>
      </trkpt>
      <trkpt lat="45.23602" lon="5.73695">
        <ele>879.79998779297</ele>
        <time>2021-07-17T05:21:08.000Z</time>
      </trkpt>
      <trkpt lat="45.23604" lon="5.73697">
        <ele>880.79998779297</ele>
        <time>2021-07-17T05:21:10.000Z</time>
      </trkpt>
      <trkpt lat="45.23606" lon="5.73698">
        <ele>881.59997558594</ele>
        <time>2021-07-17T05:21:14.000Z</time>
      </trkpt>
      <trkpt lat="45.23607" lon="5.737">
        <ele>882.20001220703</ele>
        <time>2021-07-17T05:21:16.000Z</time>
      </trkpt>
      <trkpt lat="45.23608" lon="5.73703">
        <ele>882.79998779297</ele>
        <time>2021-07-17T05:21:19.000Z</time>
      </trkpt>
      <trkpt lat="45.23609" lon="5.73707">
        <ele>883.20001220703</ele>
        <time>2021-07-17T05:21:21.000Z</time>
      </trkpt>
      <trkpt lat="45.23609" lon="5.73708">
        <ele>884.20001220703</ele>
        <time>2021-07-17T05:21:22.000Z</time>
      </trkpt>
      <trkpt lat="45.23611" lon="5.73708">
        <ele>885.59997558594</ele>
        <time>2021-07-17T05:21:26.000Z</time>
      </trkpt>
      <trkpt lat="45.23612" lon="5.73709">
        <ele>885.79998779297</ele>
        <time>2021-07-17T05:21:27.000Z</time>
      </trkpt>
      <trkpt lat="45.23613" lon="5.73714">
        <ele>886.79998779297</ele>
        <time>2021-07-17T05:21:31.000Z</time>
      </trkpt>
      <trkpt lat="45.23614" lon="5.73716">
        <ele>887.59997558594</ele>
        <time>2021-07-17T05:21:33.000Z</time>
      </trkpt>
      <trkpt lat="45.23615" lon="5.73715">
        <ele>887.79998779297</ele>
        <time>2021-07-17T05:21:34.000Z</time>
      </trkpt>
      <trkpt lat="45.23615" lon="5.73717">
        <ele>888</ele>
        <time>2021-07-17T05:21:35.000Z</time>
      </trkpt>
      <trkpt lat="45.23616" lon="5.73719">
        <ele>888.40002441406</ele>
        <time>2021-07-17T05:21:36.000Z</time>
      </trkpt>
      <trkpt lat="45.23617" lon="5.7372">
        <ele>889</ele>
        <time>2021-07-17T05:21:38.000Z</time>
      </trkpt>
      <trkpt lat="45.23618" lon="5.73719">
        <ele>889.20001220703</ele>
        <time>2021-07-17T05:21:40.000Z</time>
      </trkpt>
      <trkpt lat="45.2362" lon="5.73722">
        <ele>890.79998779297</ele>
        <time>2021-07-17T05:21:43.000Z</time>
      </trkpt>
      <trkpt lat="45.23621" lon="5.73725">
        <ele>891.59997558594</ele>
        <time>2021-07-17T05:21:46.000Z</time>
      </trkpt>
      <trkpt lat="45.23621" lon="5.73725">
        <ele>891.79998779297</ele>
        <time>2021-07-17T05:21:47.000Z</time>
      </trkpt>
      <trkpt lat="45.23622" lon="5.73726">
        <ele>892.40002441406</ele>
        <time>2021-07-17T05:21:49.000Z</time>
      </trkpt>
      <trkpt lat="45.23624" lon="5.73729">
        <ele>893.40002441406</ele>
        <time>2021-07-17T05:21:52.000Z</time>
      </trkpt>
      <trkpt lat="45.23625" lon="5.7373">
        <ele>894.59997558594</ele>
        <time>2021-07-17T05:21:54.000Z</time>
      </trkpt>
      <trkpt lat="45.23626" lon="5.7373">
        <ele>894.59997558594</ele>
        <time>2021-07-17T05:21:55.000Z</time>
      </trkpt>
      <trkpt lat="45.23627" lon="5.7373">
        <ele>895.59997558594</ele>
        <time>2021-07-17T05:21:58.000Z</time>
      </trkpt>
      <trkpt lat="45.23629" lon="5.73731">
        <ele>895.79998779297</ele>
        <time>2021-07-17T05:22:00.000Z</time>
      </trkpt>
      <trkpt lat="45.23631" lon="5.73735">
        <ele>897.20001220703</ele>
        <time>2021-07-17T05:22:04.000Z</time>
      </trkpt>
      <trkpt lat="45.23633" lon="5.73739">
        <ele>897.79998779297</ele>
        <time>2021-07-17T05:22:07.000Z</time>
      </trkpt>
      <trkpt lat="45.23634" lon="5.7374">
        <ele>898.20001220703</ele>
        <time>2021-07-17T05:22:08.000Z</time>
      </trkpt>
      <trkpt lat="45.23636" lon="5.73746">
        <ele>899.40002441406</ele>
        <time>2021-07-17T05:22:13.000Z</time>
      </trkpt>
      <trkpt lat="45.23636" lon="5.73746">
        <ele>900</ele>
        <time>2021-07-17T05:22:14.000Z</time>
      </trkpt>
      <trkpt lat="45.23636" lon="5.73747">
        <ele>901</ele>
        <time>2021-07-17T05:22:15.000Z</time>
      </trkpt>
      <trkpt lat="45.23642" lon="5.73755">
        <ele>901.59997558594</ele>
        <time>2021-07-17T05:22:21.000Z</time>
      </trkpt>
      <trkpt lat="45.23642" lon="5.73756">
        <ele>902.40002441406</ele>
        <time>2021-07-17T05:22:22.000Z</time>
      </trkpt>
      <trkpt lat="45.23644" lon="5.7376">
        <ele>903</ele>
        <time>2021-07-17T05:22:26.000Z</time>
      </trkpt>
      <trkpt lat="45.23645" lon="5.73761">
        <ele>903.79998779297</ele>
        <time>2021-07-17T05:22:27.000Z</time>
      </trkpt>
      <trkpt lat="45.23646" lon="5.73764">
        <ele>905.20001220703</ele>
        <time>2021-07-17T05:22:29.000Z</time>
      </trkpt>
      <trkpt lat="45.23646" lon="5.73768">
        <ele>905.59997558594</ele>
        <time>2021-07-17T05:22:31.000Z</time>
      </trkpt>
      <trkpt lat="45.23647" lon="5.7377">
        <ele>906.40002441406</ele>
        <time>2021-07-17T05:22:34.000Z</time>
      </trkpt>
      <trkpt lat="45.23648" lon="5.73772">
        <ele>906.79998779297</ele>
        <time>2021-07-17T05:22:36.000Z</time>
      </trkpt>
      <trkpt lat="45.23648" lon="5.73773">
        <ele>907.20001220703</ele>
        <time>2021-07-17T05:22:38.000Z</time>
      </trkpt>
      <trkpt lat="45.23649" lon="5.73776">
        <ele>908.20001220703</ele>
        <time>2021-07-17T05:22:40.000Z</time>
      </trkpt>
      <trkpt lat="45.2365" lon="5.73778">
        <ele>908.20001220703</ele>
        <time>2021-07-17T05:22:41.000Z</time>
      </trkpt>
      <trkpt lat="45.23653" lon="5.73782">
        <ele>908.79998779297</ele>
        <time>2021-07-17T05:22:44.000Z</time>
      </trkpt>
      <trkpt lat="45.23655" lon="5.73784">
        <ele>909.20001220703</ele>
        <time>2021-07-17T05:22:46.000Z</time>
      </trkpt>
      <trkpt lat="45.23656" lon="5.73786">
        <ele>909.79998779297</ele>
        <time>2021-07-17T05:22:48.000Z</time>
      </trkpt>
      <trkpt lat="45.23658" lon="5.7379">
        <ele>910.20001220703</ele>
        <time>2021-07-17T05:22:51.000Z</time>
      </trkpt>
      <trkpt lat="45.23658" lon="5.7379">
        <ele>910.40002441406</ele>
        <time>2021-07-17T05:22:52.000Z</time>
      </trkpt>
      <trkpt lat="45.23662" lon="5.73799">
        <ele>911</ele>
        <time>2021-07-17T05:22:56.000Z</time>
      </trkpt>
      <trkpt lat="45.23662" lon="5.738">
        <ele>911.40002441406</ele>
        <time>2021-07-17T05:22:57.000Z</time>
      </trkpt>
      <trkpt lat="45.23662" lon="5.73801">
        <ele>911.59997558594</ele>
        <time>2021-07-17T05:22:58.000Z</time>
      </trkpt>
      <trkpt lat="45.23667" lon="5.73807">
        <ele>912.40002441406</ele>
        <time>2021-07-17T05:23:02.000Z</time>
      </trkpt>
      <trkpt lat="45.23668" lon="5.73809">
        <ele>912.59997558594</ele>
        <time>2021-07-17T05:23:03.000Z</time>
      </trkpt>
      <trkpt lat="45.23669" lon="5.73814">
        <ele>913.20001220703</ele>
        <time>2021-07-17T05:23:05.000Z</time>
      </trkpt>
      <trkpt lat="45.2367" lon="5.73816">
        <ele>913.79998779297</ele>
        <time>2021-07-17T05:23:07.000Z</time>
      </trkpt>
      <trkpt lat="45.23671" lon="5.73819">
        <ele>914.59997558594</ele>
        <time>2021-07-17T05:23:09.000Z</time>
      </trkpt>
      <trkpt lat="45.23672" lon="5.73821">
        <ele>914.79998779297</ele>
        <time>2021-07-17T05:23:10.000Z</time>
      </trkpt>
      <trkpt lat="45.23675" lon="5.73827">
        <ele>915.59997558594</ele>
        <time>2021-07-17T05:23:14.000Z</time>
      </trkpt>
      <trkpt lat="45.23676" lon="5.73828">
        <ele>916.20001220703</ele>
        <time>2021-07-17T05:23:15.000Z</time>
      </trkpt>
      <trkpt lat="45.2368" lon="5.73833">
        <ele>916.79998779297</ele>
        <time>2021-07-17T05:23:18.000Z</time>
      </trkpt>
      <trkpt lat="45.23681" lon="5.73838">
        <ele>917.40002441406</ele>
        <time>2021-07-17T05:23:21.000Z</time>
      </trkpt>
      <trkpt lat="45.23682" lon="5.7384">
        <ele>917.59997558594</ele>
        <time>2021-07-17T05:23:22.000Z</time>
      </trkpt>
      <trkpt lat="45.23684" lon="5.73843">
        <ele>918.40002441406</ele>
        <time>2021-07-17T05:23:25.000Z</time>
      </trkpt>
      <trkpt lat="45.23685" lon="5.73844">
        <ele>918.59997558594</ele>
        <time>2021-07-17T05:23:26.000Z</time>
      </trkpt>
      <trkpt lat="45.23687" lon="5.73848">
        <ele>919.59997558594</ele>
        <time>2021-07-17T05:23:29.000Z</time>
      </trkpt>
      <trkpt lat="45.23688" lon="5.7385">
        <ele>920.20001220703</ele>
        <time>2021-07-17T05:23:31.000Z</time>
      </trkpt>
      <trkpt lat="45.23689" lon="5.73851">
        <ele>920.20001220703</ele>
        <time>2021-07-17T05:23:32.000Z</time>
      </trkpt>
      <trkpt lat="45.2369" lon="5.73853">
        <ele>920.20001220703</ele>
        <time>2021-07-17T05:23:33.000Z</time>
      </trkpt>
      <trkpt lat="45.23692" lon="5.73855">
        <ele>920.59997558594</ele>
        <time>2021-07-17T05:23:35.000Z</time>
      </trkpt>
      <trkpt lat="45.23693" lon="5.73857">
        <ele>921</ele>
        <time>2021-07-17T05:23:36.000Z</time>
      </trkpt>
      <trkpt lat="45.23697" lon="5.73863">
        <ele>921.59997558594</ele>
        <time>2021-07-17T05:23:40.000Z</time>
      </trkpt>
      <trkpt lat="45.23697" lon="5.73865">
        <ele>921.59997558594</ele>
        <time>2021-07-17T05:23:41.000Z</time>
      </trkpt>
      <trkpt lat="45.23697" lon="5.73867">
        <ele>921.59997558594</ele>
        <time>2021-07-17T05:23:42.000Z</time>
      </trkpt>
      <trkpt lat="45.23698" lon="5.73872">
        <ele>921.59997558594</ele>
        <time>2021-07-17T05:23:44.000Z</time>
      </trkpt>
      <trkpt lat="45.237" lon="5.73874">
        <ele>921.59997558594</ele>
        <time>2021-07-17T05:23:45.000Z</time>
      </trkpt>
      <trkpt lat="45.23703" lon="5.7388">
        <ele>921.40002441406</ele>
        <time>2021-07-17T05:23:48.000Z</time>
      </trkpt>
      <trkpt lat="45.23706" lon="5.73886">
        <ele>921.40002441406</ele>
        <time>2021-07-17T05:23:51.000Z</time>
      </trkpt>
      <trkpt lat="45.23707" lon="5.73889">
        <ele>921.20001220703</ele>
        <time>2021-07-17T05:23:52.000Z</time>
      </trkpt>
      <trkpt lat="45.23709" lon="5.73892">
        <ele>921.40002441406</ele>
        <time>2021-07-17T05:23:53.000Z</time>
      </trkpt>
      <trkpt lat="45.23713" lon="5.73898">
        <ele>921.59997558594</ele>
        <time>2021-07-17T05:23:55.000Z</time>
      </trkpt>
      <trkpt lat="45.23714" lon="5.73901">
        <ele>921.79998779297</ele>
        <time>2021-07-17T05:23:56.000Z</time>
      </trkpt>
      <trkpt lat="45.23715" lon="5.73903">
        <ele>921.79998779297</ele>
        <time>2021-07-17T05:23:57.000Z</time>
      </trkpt>
      <trkpt lat="45.23716" lon="5.73904">
        <ele>922.20001220703</ele>
        <time>2021-07-17T05:23:58.000Z</time>
      </trkpt>
      <trkpt lat="45.23716" lon="5.73905">
        <ele>922.79998779297</ele>
        <time>2021-07-17T05:24:00.000Z</time>
      </trkpt>
      <trkpt lat="45.23718" lon="5.73907">
        <ele>922.59997558594</ele>
        <time>2021-07-17T05:24:02.000Z</time>
      </trkpt>
      <trkpt lat="45.23723" lon="5.73911">
        <ele>923</ele>
        <time>2021-07-17T05:24:06.000Z</time>
      </trkpt>
      <trkpt lat="45.23727" lon="5.73915">
        <ele>923.20001220703</ele>
        <time>2021-07-17T05:24:09.000Z</time>
      </trkpt>
      <trkpt lat="45.23728" lon="5.73916">
        <ele>923.20001220703</ele>
        <time>2021-07-17T05:24:10.000Z</time>
      </trkpt>
      <trkpt lat="45.23733" lon="5.73921">
        <ele>923.59997558594</ele>
        <time>2021-07-17T05:24:13.000Z</time>
      </trkpt>
      <trkpt lat="45.23738" lon="5.73926">
        <ele>924.59997558594</ele>
        <time>2021-07-17T05:24:16.000Z</time>
      </trkpt>
      <trkpt lat="45.23743" lon="5.7393">
        <ele>924.59997558594</ele>
        <time>2021-07-17T05:24:18.000Z</time>
      </trkpt>
      <trkpt lat="45.23745" lon="5.73935">
        <ele>925.20001220703</ele>
        <time>2021-07-17T05:24:20.000Z</time>
      </trkpt>
      <trkpt lat="45.2375" lon="5.73941">
        <ele>926</ele>
        <time>2021-07-17T05:24:24.000Z</time>
      </trkpt>
      <trkpt lat="45.23755" lon="5.73949">
        <ele>926.59997558594</ele>
        <time>2021-07-17T05:24:28.000Z</time>
      </trkpt>
      <trkpt lat="45.23759" lon="5.73959">
        <ele>927.20001220703</ele>
        <time>2021-07-17T05:24:31.000Z</time>
      </trkpt>
      <trkpt lat="45.23761" lon="5.73962">
        <ele>927.40002441406</ele>
        <time>2021-07-17T05:24:32.000Z</time>
      </trkpt>
      <trkpt lat="45.23762" lon="5.73973">
        <ele>927.79998779297</ele>
        <time>2021-07-17T05:24:35.000Z</time>
      </trkpt>
      <trkpt lat="45.23763" lon="5.73977">
        <ele>927.79998779297</ele>
        <time>2021-07-17T05:24:36.000Z</time>
      </trkpt>
      <trkpt lat="45.23763" lon="5.73979">
        <ele>928</ele>
        <time>2021-07-17T05:24:37.000Z</time>
      </trkpt>
      <trkpt lat="45.23764" lon="5.73986">
        <ele>928.40002441406</ele>
        <time>2021-07-17T05:24:39.000Z</time>
      </trkpt>
      <trkpt lat="45.23765" lon="5.7399">
        <ele>928.59997558594</ele>
        <time>2021-07-17T05:24:41.000Z</time>
      </trkpt>
      <trkpt lat="45.23765" lon="5.73995">
        <ele>929.59997558594</ele>
        <time>2021-07-17T05:24:43.000Z</time>
      </trkpt>
      <trkpt lat="45.23765" lon="5.73997">
        <ele>929.20001220703</ele>
        <time>2021-07-17T05:24:44.000Z</time>
      </trkpt>
      <trkpt lat="45.23769" lon="5.74008">
        <ele>929.59997558594</ele>
        <time>2021-07-17T05:24:47.000Z</time>
      </trkpt>
      <trkpt lat="45.23772" lon="5.74015">
        <ele>929.59997558594</ele>
        <time>2021-07-17T05:24:49.000Z</time>
      </trkpt>
      <trkpt lat="45.23775" lon="5.74026">
        <ele>930.20001220703</ele>
        <time>2021-07-17T05:24:52.000Z</time>
      </trkpt>
      <trkpt lat="45.23775" lon="5.74029">
        <ele>930.59997558594</ele>
        <time>2021-07-17T05:24:53.000Z</time>
      </trkpt>
      <trkpt lat="45.23781" lon="5.74037">
        <ele>931</ele>
        <time>2021-07-17T05:24:57.000Z</time>
      </trkpt>
      <trkpt lat="45.23781" lon="5.74038">
        <ele>931</ele>
        <time>2021-07-17T05:24:58.000Z</time>
      </trkpt>
      <trkpt lat="45.23781" lon="5.7404">
        <ele>931.20001220703</ele>
        <time>2021-07-17T05:24:59.000Z</time>
      </trkpt>
      <trkpt lat="45.23782" lon="5.74042">
        <ele>931.20001220703</ele>
        <time>2021-07-17T05:25:01.000Z</time>
      </trkpt>
      <trkpt lat="45.23785" lon="5.74042">
        <ele>930.40002441406</ele>
        <time>2021-07-17T05:25:03.000Z</time>
      </trkpt>
      <trkpt lat="45.23785" lon="5.74042">
        <ele>929.59997558594</ele>
        <time>2021-07-17T05:25:04.000Z</time>
      </trkpt>
      <trkpt lat="45.23788" lon="5.74042">
        <ele>928.40002441406</ele>
        <time>2021-07-17T05:25:07.000Z</time>
      </trkpt>
      <trkpt lat="45.23791" lon="5.74044">
        <ele>928.20001220703</ele>
        <time>2021-07-17T05:25:09.000Z</time>
      </trkpt>
      <trkpt lat="45.23794" lon="5.74045">
        <ele>927.40002441406</ele>
        <time>2021-07-17T05:25:11.000Z</time>
      </trkpt>
      <trkpt lat="45.238" lon="5.74046">
        <ele>926.40002441406</ele>
        <time>2021-07-17T05:25:14.000Z</time>
      </trkpt>
      <trkpt lat="45.23801" lon="5.74046">
        <ele>926</ele>
        <time>2021-07-17T05:25:15.000Z</time>
      </trkpt>
      <trkpt lat="45.23804" lon="5.74046">
        <ele>925</ele>
        <time>2021-07-17T05:25:17.000Z</time>
      </trkpt>
      <trkpt lat="45.23812" lon="5.74046">
        <ele>924.20001220703</ele>
        <time>2021-07-17T05:25:21.000Z</time>
      </trkpt>
      <trkpt lat="45.23813" lon="5.74047">
        <ele>923.79998779297</ele>
        <time>2021-07-17T05:25:22.000Z</time>
      </trkpt>
      <trkpt lat="45.23819" lon="5.74051">
        <ele>922.59997558594</ele>
        <time>2021-07-17T05:25:25.000Z</time>
      </trkpt>
      <trkpt lat="45.23823" lon="5.74057">
        <ele>921.79998779297</ele>
        <time>2021-07-17T05:25:27.000Z</time>
      </trkpt>
      <trkpt lat="45.23825" lon="5.7406">
        <ele>921.40002441406</ele>
        <time>2021-07-17T05:25:28.000Z</time>
      </trkpt>
      <trkpt lat="45.23827" lon="5.74066">
        <ele>921</ele>
        <time>2021-07-17T05:25:30.000Z</time>
      </trkpt>
      <trkpt lat="45.23829" lon="5.74074">
        <ele>920.20001220703</ele>
        <time>2021-07-17T05:25:33.000Z</time>
      </trkpt>
      <trkpt lat="45.23831" lon="5.74076">
        <ele>919.20001220703</ele>
        <time>2021-07-17T05:25:34.000Z</time>
      </trkpt>
      <trkpt lat="45.23833" lon="5.74077">
        <ele>919</ele>
        <time>2021-07-17T05:25:35.000Z</time>
      </trkpt>
      <trkpt lat="45.23838" lon="5.74078">
        <ele>917.59997558594</ele>
        <time>2021-07-17T05:25:39.000Z</time>
      </trkpt>
      <trkpt lat="45.23839" lon="5.74078">
        <ele>918.20001220703</ele>
        <time>2021-07-17T05:25:40.000Z</time>
      </trkpt>
      <trkpt lat="45.23844" lon="5.74076">
        <ele>917.40002441406</ele>
        <time>2021-07-17T05:25:43.000Z</time>
      </trkpt>
      <trkpt lat="45.23846" lon="5.74076">
        <ele>917</ele>
        <time>2021-07-17T05:25:45.000Z</time>
      </trkpt>
      <trkpt lat="45.23849" lon="5.74073">
        <ele>916.40002441406</ele>
        <time>2021-07-17T05:25:48.000Z</time>
      </trkpt>
      <trkpt lat="45.23851" lon="5.74072">
        <ele>915.59997558594</ele>
        <time>2021-07-17T05:25:50.000Z</time>
      </trkpt>
      <trkpt lat="45.23851" lon="5.74071">
        <ele>915.20001220703</ele>
        <time>2021-07-17T05:25:51.000Z</time>
      </trkpt>
      <trkpt lat="45.23853" lon="5.7407">
        <ele>915.20001220703</ele>
        <time>2021-07-17T05:25:52.000Z</time>
      </trkpt>
      <trkpt lat="45.23858" lon="5.74069">
        <ele>914.20001220703</ele>
        <time>2021-07-17T05:25:55.000Z</time>
      </trkpt>
      <trkpt lat="45.2386" lon="5.74068">
        <ele>914.20001220703</ele>
        <time>2021-07-17T05:25:56.000Z</time>
      </trkpt>
      <trkpt lat="45.23861" lon="5.74067">
        <ele>914</ele>
        <time>2021-07-17T05:25:57.000Z</time>
      </trkpt>
      <trkpt lat="45.23864" lon="5.74065">
        <ele>913.20001220703</ele>
        <time>2021-07-17T05:25:59.000Z</time>
      </trkpt>
      <trkpt lat="45.23871" lon="5.74062">
        <ele>912.20001220703</ele>
        <time>2021-07-17T05:26:04.000Z</time>
      </trkpt>
      <trkpt lat="45.23872" lon="5.74061">
        <ele>911.79998779297</ele>
        <time>2021-07-17T05:26:05.000Z</time>
      </trkpt>
      <trkpt lat="45.23879" lon="5.74061">
        <ele>911</ele>
        <time>2021-07-17T05:26:09.000Z</time>
      </trkpt>
      <trkpt lat="45.23881" lon="5.74062">
        <ele>910.40002441406</ele>
        <time>2021-07-17T05:26:10.000Z</time>
      </trkpt>
      <trkpt lat="45.23885" lon="5.74062">
        <ele>909.59997558594</ele>
        <time>2021-07-17T05:26:12.000Z</time>
      </trkpt>
      <trkpt lat="45.23888" lon="5.74062">
        <ele>909.20001220703</ele>
        <time>2021-07-17T05:26:14.000Z</time>
      </trkpt>
      <trkpt lat="45.23892" lon="5.74063">
        <ele>908</ele>
        <time>2021-07-17T05:26:17.000Z</time>
      </trkpt>
      <trkpt lat="45.23895" lon="5.74064">
        <ele>907.40002441406</ele>
        <time>2021-07-17T05:26:19.000Z</time>
      </trkpt>
      <trkpt lat="45.23897" lon="5.74064">
        <ele>906.79998779297</ele>
        <time>2021-07-17T05:26:20.000Z</time>
      </trkpt>
      <trkpt lat="45.23898" lon="5.74065">
        <ele>906</ele>
        <time>2021-07-17T05:26:22.000Z</time>
      </trkpt>
      <trkpt lat="45.23899" lon="5.74066">
        <ele>905.40002441406</ele>
        <time>2021-07-17T05:26:23.000Z</time>
      </trkpt>
      <trkpt lat="45.23903" lon="5.74068">
        <ele>904.79998779297</ele>
        <time>2021-07-17T05:26:25.000Z</time>
      </trkpt>
      <trkpt lat="45.23905" lon="5.74071">
        <ele>903.20001220703</ele>
        <time>2021-07-17T05:26:27.000Z</time>
      </trkpt>
      <trkpt lat="45.23906" lon="5.74073">
        <ele>902.79998779297</ele>
        <time>2021-07-17T05:26:30.000Z</time>
      </trkpt>
      <trkpt lat="45.23907" lon="5.74075">
        <ele>902</ele>
        <time>2021-07-17T05:26:31.000Z</time>
      </trkpt>
      <trkpt lat="45.23907" lon="5.74077">
        <ele>901.79998779297</ele>
        <time>2021-07-17T05:26:32.000Z</time>
      </trkpt>
      <trkpt lat="45.23911" lon="5.74082">
        <ele>901.59997558594</ele>
        <time>2021-07-17T05:26:35.000Z</time>
      </trkpt>
      <trkpt lat="45.23913" lon="5.74084">
        <ele>901.40002441406</ele>
        <time>2021-07-17T05:26:36.000Z</time>
      </trkpt>
      <trkpt lat="45.23914" lon="5.74085">
        <ele>900.40002441406</ele>
        <time>2021-07-17T05:26:37.000Z</time>
      </trkpt>
      <trkpt lat="45.23915" lon="5.74085">
        <ele>899.20001220703</ele>
        <time>2021-07-17T05:26:39.000Z</time>
      </trkpt>
      <trkpt lat="45.23915" lon="5.74084">
        <ele>898.79998779297</ele>
        <time>2021-07-17T05:26:40.000Z</time>
      </trkpt>
      <trkpt lat="45.23916" lon="5.74085">
        <ele>898.20001220703</ele>
        <time>2021-07-17T05:26:42.000Z</time>
      </trkpt>
      <trkpt lat="45.23917" lon="5.74085">
        <ele>898</ele>
        <time>2021-07-17T05:26:43.000Z</time>
      </trkpt>
      <trkpt lat="45.2392" lon="5.74086">
        <ele>896.59997558594</ele>
        <time>2021-07-17T05:26:46.000Z</time>
      </trkpt>
      <trkpt lat="45.23923" lon="5.74089">
        <ele>895.40002441406</ele>
        <time>2021-07-17T05:26:50.000Z</time>
      </trkpt>
      <trkpt lat="45.23925" lon="5.74088">
        <ele>894.79998779297</ele>
        <time>2021-07-17T05:26:52.000Z</time>
      </trkpt>
      <trkpt lat="45.23927" lon="5.74088">
        <ele>894.40002441406</ele>
        <time>2021-07-17T05:26:54.000Z</time>
      </trkpt>
      <trkpt lat="45.23929" lon="5.74087">
        <ele>894</ele>
        <time>2021-07-17T05:26:55.000Z</time>
      </trkpt>
      <trkpt lat="45.23929" lon="5.74087">
        <ele>893.20001220703</ele>
        <time>2021-07-17T05:26:56.000Z</time>
      </trkpt>
      <trkpt lat="45.2393" lon="5.74087">
        <ele>892.79998779297</ele>
        <time>2021-07-17T05:26:58.000Z</time>
      </trkpt>
      <trkpt lat="45.2393" lon="5.74086">
        <ele>892</ele>
        <time>2021-07-17T05:26:59.000Z</time>
      </trkpt>
      <trkpt lat="45.23931" lon="5.74085">
        <ele>891.40002441406</ele>
        <time>2021-07-17T05:27:01.000Z</time>
      </trkpt>
      <trkpt lat="45.23932" lon="5.74084">
        <ele>891</ele>
        <time>2021-07-17T05:27:02.000Z</time>
      </trkpt>
      <trkpt lat="45.23939" lon="5.74084">
        <ele>890.40002441406</ele>
        <time>2021-07-17T05:27:06.000Z</time>
      </trkpt>
      <trkpt lat="45.2394" lon="5.74084">
        <ele>889.59997558594</ele>
        <time>2021-07-17T05:27:08.000Z</time>
      </trkpt>
      <trkpt lat="45.23942" lon="5.74086">
        <ele>889.20001220703</ele>
        <time>2021-07-17T05:27:10.000Z</time>
      </trkpt>
      <trkpt lat="45.23943" lon="5.74086">
        <ele>888.59997558594</ele>
        <time>2021-07-17T05:27:12.000Z</time>
      </trkpt>
      <trkpt lat="45.23943" lon="5.74086">
        <ele>888.40002441406</ele>
        <time>2021-07-17T05:27:13.000Z</time>
      </trkpt>
      <trkpt lat="45.23945" lon="5.74084">
        <ele>887.59997558594</ele>
        <time>2021-07-17T05:27:15.000Z</time>
      </trkpt>
      <trkpt lat="45.23946" lon="5.74084">
        <ele>887.20001220703</ele>
        <time>2021-07-17T05:27:16.000Z</time>
      </trkpt>
      <trkpt lat="45.23948" lon="5.74081">
        <ele>886.40002441406</ele>
        <time>2021-07-17T05:27:18.000Z</time>
      </trkpt>
      <trkpt lat="45.23949" lon="5.74079">
        <ele>886</ele>
        <time>2021-07-17T05:27:19.000Z</time>
      </trkpt>
      <trkpt lat="45.23953" lon="5.74079">
        <ele>885.79998779297</ele>
        <time>2021-07-17T05:27:21.000Z</time>
      </trkpt>
      <trkpt lat="45.23956" lon="5.74077">
        <ele>884.79998779297</ele>
        <time>2021-07-17T05:27:23.000Z</time>
      </trkpt>
      <trkpt lat="45.23959" lon="5.74074">
        <ele>884</ele>
        <time>2021-07-17T05:27:25.000Z</time>
      </trkpt>
      <trkpt lat="45.23964" lon="5.74071">
        <ele>883.40002441406</ele>
        <time>2021-07-17T05:27:28.000Z</time>
      </trkpt>
      <trkpt lat="45.23969" lon="5.74065">
        <ele>882</ele>
        <time>2021-07-17T05:27:32.000Z</time>
      </trkpt>
      <trkpt lat="45.23971" lon="5.74064">
        <ele>882</ele>
        <time>2021-07-17T05:27:33.000Z</time>
      </trkpt>
      <trkpt lat="45.23973" lon="5.74062">
        <ele>881</ele>
        <time>2021-07-17T05:27:35.000Z</time>
      </trkpt>
      <trkpt lat="45.2398" lon="5.74054">
        <ele>879.79998779297</ele>
        <time>2021-07-17T05:27:40.000Z</time>
      </trkpt>
      <trkpt lat="45.23983" lon="5.74051">
        <ele>879.20001220703</ele>
        <time>2021-07-17T05:27:42.000Z</time>
      </trkpt>
      <trkpt lat="45.23984" lon="5.74048">
        <ele>878.79998779297</ele>
        <time>2021-07-17T05:27:43.000Z</time>
      </trkpt>
      <trkpt lat="45.23988" lon="5.74042">
        <ele>878.20001220703</ele>
        <time>2021-07-17T05:27:46.000Z</time>
      </trkpt>
      <trkpt lat="45.23989" lon="5.74039">
        <ele>877.59997558594</ele>
        <time>2021-07-17T05:27:47.000Z</time>
      </trkpt>
      <trkpt lat="45.23991" lon="5.74036">
        <ele>877</ele>
        <time>2021-07-17T05:27:49.000Z</time>
      </trkpt>
      <trkpt lat="45.23994" lon="5.74034">
        <ele>876.40002441406</ele>
        <time>2021-07-17T05:27:50.000Z</time>
      </trkpt>
      <trkpt lat="45.23999" lon="5.74031">
        <ele>876.40002441406</ele>
        <time>2021-07-17T05:27:52.000Z</time>
      </trkpt>
      <trkpt lat="45.24" lon="5.74031">
        <ele>875.40002441406</ele>
        <time>2021-07-17T05:27:53.000Z</time>
      </trkpt>
      <trkpt lat="45.24001" lon="5.74031">
        <ele>875.40002441406</ele>
        <time>2021-07-17T05:27:54.000Z</time>
      </trkpt>
      <trkpt lat="45.24003" lon="5.7403">
        <ele>875</ele>
        <time>2021-07-17T05:27:55.000Z</time>
      </trkpt>
      <trkpt lat="45.24005" lon="5.74029">
        <ele>874.79998779297</ele>
        <time>2021-07-17T05:27:56.000Z</time>
      </trkpt>
      <trkpt lat="45.24006" lon="5.74029">
        <ele>874.59997558594</ele>
        <time>2021-07-17T05:27:57.000Z</time>
      </trkpt>
      <trkpt lat="45.24008" lon="5.74029">
        <ele>874.20001220703</ele>
        <time>2021-07-17T05:27:58.000Z</time>
      </trkpt>
      <trkpt lat="45.24013" lon="5.74026">
        <ele>873.20001220703</ele>
        <time>2021-07-17T05:28:01.000Z</time>
      </trkpt>
      <trkpt lat="45.24015" lon="5.74026">
        <ele>871.79998779297</ele>
        <time>2021-07-17T05:28:02.000Z</time>
      </trkpt>
      <trkpt lat="45.24017" lon="5.74025">
        <ele>871.79998779297</ele>
        <time>2021-07-17T05:28:03.000Z</time>
      </trkpt>
      <trkpt lat="45.24019" lon="5.74023">
        <ele>871.40002441406</ele>
        <time>2021-07-17T05:28:05.000Z</time>
      </trkpt>
      <trkpt lat="45.24021" lon="5.74022">
        <ele>871.20001220703</ele>
        <time>2021-07-17T05:28:07.000Z</time>
      </trkpt>
      <trkpt lat="45.24022" lon="5.74022">
        <ele>870.59997558594</ele>
        <time>2021-07-17T05:28:08.000Z</time>
      </trkpt>
      <trkpt lat="45.24024" lon="5.74022">
        <ele>870.40002441406</ele>
        <time>2021-07-17T05:28:09.000Z</time>
      </trkpt>
      <trkpt lat="45.2403" lon="5.74021">
        <ele>869</ele>
        <time>2021-07-17T05:28:13.000Z</time>
      </trkpt>
      <trkpt lat="45.24032" lon="5.74021">
        <ele>869</ele>
        <time>2021-07-17T05:28:14.000Z</time>
      </trkpt>
      <trkpt lat="45.24036" lon="5.74017">
        <ele>868.20001220703</ele>
        <time>2021-07-17T05:28:17.000Z</time>
      </trkpt>
      <trkpt lat="45.24038" lon="5.74016">
        <ele>867.59997558594</ele>
        <time>2021-07-17T05:28:18.000Z</time>
      </trkpt>
      <trkpt lat="45.2404" lon="5.74013">
        <ele>867.40002441406</ele>
        <time>2021-07-17T05:28:20.000Z</time>
      </trkpt>
      <trkpt lat="45.24042" lon="5.7401">
        <ele>867</ele>
        <time>2021-07-17T05:28:21.000Z</time>
      </trkpt>
      <trkpt lat="45.24044" lon="5.74007">
        <ele>866.59997558594</ele>
        <time>2021-07-17T05:28:22.000Z</time>
      </trkpt>
      <trkpt lat="45.24045" lon="5.74004">
        <ele>866</ele>
        <time>2021-07-17T05:28:23.000Z</time>
      </trkpt>
      <trkpt lat="45.24046" lon="5.74001">
        <ele>866</ele>
        <time>2021-07-17T05:28:24.000Z</time>
      </trkpt>
      <trkpt lat="45.24047" lon="5.73993">
        <ele>865.79998779297</ele>
        <time>2021-07-17T05:28:26.000Z</time>
      </trkpt>
      <trkpt lat="45.24047" lon="5.73991">
        <ele>864.79998779297</ele>
        <time>2021-07-17T05:28:27.000Z</time>
      </trkpt>
      <trkpt lat="45.24048" lon="5.7399">
        <ele>864.79998779297</ele>
        <time>2021-07-17T05:28:28.000Z</time>
      </trkpt>
      <trkpt lat="45.24054" lon="5.73981">
        <ele>863.20001220703</ele>
        <time>2021-07-17T05:28:33.000Z</time>
      </trkpt>
      <trkpt lat="45.24057" lon="5.73978">
        <ele>862.59997558594</ele>
        <time>2021-07-17T05:28:35.000Z</time>
      </trkpt>
      <trkpt lat="45.24058" lon="5.73977">
        <ele>862.40002441406</ele>
        <time>2021-07-17T05:28:36.000Z</time>
      </trkpt>
      <trkpt lat="45.24061" lon="5.73974">
        <ele>861.40002441406</ele>
        <time>2021-07-17T05:28:38.000Z</time>
      </trkpt>
      <trkpt lat="45.24064" lon="5.73972">
        <ele>861.20001220703</ele>
        <time>2021-07-17T05:28:40.000Z</time>
      </trkpt>
      <trkpt lat="45.24068" lon="5.73964">
        <ele>860</ele>
        <time>2021-07-17T05:28:43.000Z</time>
      </trkpt>
      <trkpt lat="45.24074" lon="5.73958">
        <ele>859.59997558594</ele>
        <time>2021-07-17T05:28:46.000Z</time>
      </trkpt>
      <trkpt lat="45.24079" lon="5.73957">
        <ele>858.40002441406</ele>
        <time>2021-07-17T05:28:48.000Z</time>
      </trkpt>
      <trkpt lat="45.24083" lon="5.73954">
        <ele>858</ele>
        <time>2021-07-17T05:28:50.000Z</time>
      </trkpt>
      <trkpt lat="45.24086" lon="5.7395">
        <ele>857.20001220703</ele>
        <time>2021-07-17T05:28:52.000Z</time>
      </trkpt>
      <trkpt lat="45.24092" lon="5.73948">
        <ele>856.40002441406</ele>
        <time>2021-07-17T05:28:55.000Z</time>
      </trkpt>
      <trkpt lat="45.24094" lon="5.73947">
        <ele>856</ele>
        <time>2021-07-17T05:28:56.000Z</time>
      </trkpt>
      <trkpt lat="45.24099" lon="5.73944">
        <ele>855.20001220703</ele>
        <time>2021-07-17T05:28:59.000Z</time>
      </trkpt>
      <trkpt lat="45.24102" lon="5.73941">
        <ele>854.59997558594</ele>
        <time>2021-07-17T05:29:01.000Z</time>
      </trkpt>
      <trkpt lat="45.24108" lon="5.73938">
        <ele>853.40002441406</ele>
        <time>2021-07-17T05:29:06.000Z</time>
      </trkpt>
      <trkpt lat="45.24109" lon="5.73941">
        <ele>853</ele>
        <time>2021-07-17T05:29:09.000Z</time>
      </trkpt>
      <trkpt lat="45.24108" lon="5.73943">
        <ele>852.79998779297</ele>
        <time>2021-07-17T05:29:10.000Z</time>
      </trkpt>
      <trkpt lat="45.24107" lon="5.73945">
        <ele>852.79998779297</ele>
        <time>2021-07-17T05:29:11.000Z</time>
      </trkpt>
      <trkpt lat="45.24105" lon="5.73947">
        <ele>852.79998779297</ele>
        <time>2021-07-17T05:29:13.000Z</time>
      </trkpt>
      <trkpt lat="45.24103" lon="5.73949">
        <ele>853.20001220703</ele>
        <time>2021-07-17T05:29:15.000Z</time>
      </trkpt>
      <trkpt lat="45.24101" lon="5.73949">
        <ele>853.59997558594</ele>
        <time>2021-07-17T05:29:18.000Z</time>
      </trkpt>
      <trkpt lat="45.241" lon="5.73951">
        <ele>854.20001220703</ele>
        <time>2021-07-17T05:29:20.000Z</time>
      </trkpt>
      <trkpt lat="45.24099" lon="5.73951">
        <ele>854.20001220703</ele>
        <time>2021-07-17T05:29:21.000Z</time>
      </trkpt>
      <trkpt lat="45.24098" lon="5.73953">
        <ele>854.40002441406</ele>
        <time>2021-07-17T05:29:22.000Z</time>
      </trkpt>
      <trkpt lat="45.24096" lon="5.73957">
        <ele>855.40002441406</ele>
        <time>2021-07-17T05:29:26.000Z</time>
      </trkpt>
      <trkpt lat="45.24094" lon="5.73959">
        <ele>856</ele>
        <time>2021-07-17T05:29:30.000Z</time>
      </trkpt>
      <trkpt lat="45.24091" lon="5.73962">
        <ele>856.79998779297</ele>
        <time>2021-07-17T05:29:33.000Z</time>
      </trkpt>
      <trkpt lat="45.2409" lon="5.73962">
        <ele>857.20001220703</ele>
        <time>2021-07-17T05:29:34.000Z</time>
      </trkpt>
      <trkpt lat="45.24087" lon="5.73964">
        <ele>858.40002441406</ele>
        <time>2021-07-17T05:29:38.000Z</time>
      </trkpt>
      <trkpt lat="45.24086" lon="5.73965">
        <ele>858.40002441406</ele>
        <time>2021-07-17T05:29:39.000Z</time>
      </trkpt>
      <trkpt lat="45.24084" lon="5.73966">
        <ele>858.59997558594</ele>
        <time>2021-07-17T05:29:41.000Z</time>
      </trkpt>
      <trkpt lat="45.24079" lon="5.7397">
        <ele>859.40002441406</ele>
        <time>2021-07-17T05:29:44.000Z</time>
      </trkpt>
      <trkpt lat="45.24078" lon="5.7397">
        <ele>859.59997558594</ele>
        <time>2021-07-17T05:29:45.000Z</time>
      </trkpt>
      <trkpt lat="45.24077" lon="5.73971">
        <ele>859.59997558594</ele>
        <time>2021-07-17T05:29:46.000Z</time>
      </trkpt>
      <trkpt lat="45.24075" lon="5.73972">
        <ele>860.40002441406</ele>
        <time>2021-07-17T05:29:47.000Z</time>
      </trkpt>
      <trkpt lat="45.24074" lon="5.73973">
        <ele>860.59997558594</ele>
        <time>2021-07-17T05:29:49.000Z</time>
      </trkpt>
      <trkpt lat="45.24072" lon="5.73976">
        <ele>861.20001220703</ele>
        <time>2021-07-17T05:29:52.000Z</time>
      </trkpt>
      <trkpt lat="45.24069" lon="5.73977">
        <ele>861.79998779297</ele>
        <time>2021-07-17T05:29:54.000Z</time>
      </trkpt>
      <trkpt lat="45.24067" lon="5.7398">
        <ele>862.20001220703</ele>
        <time>2021-07-17T05:29:57.000Z</time>
      </trkpt>
      <trkpt lat="45.24065" lon="5.73982">
        <ele>862.79998779297</ele>
        <time>2021-07-17T05:30:00.000Z</time>
      </trkpt>
      <trkpt lat="45.24061" lon="5.73987">
        <ele>863.40002441406</ele>
        <time>2021-07-17T05:30:03.000Z</time>
      </trkpt>
      <trkpt lat="45.24059" lon="5.73989">
        <ele>863.79998779297</ele>
        <time>2021-07-17T05:30:05.000Z</time>
      </trkpt>
      <trkpt lat="45.24058" lon="5.7399">
        <ele>864.20001220703</ele>
        <time>2021-07-17T05:30:06.000Z</time>
      </trkpt>
      <trkpt lat="45.24055" lon="5.73998">
        <ele>864.59997558594</ele>
        <time>2021-07-17T05:30:09.000Z</time>
      </trkpt>
      <trkpt lat="45.24054" lon="5.74006">
        <ele>865.20001220703</ele>
        <time>2021-07-17T05:30:12.000Z</time>
      </trkpt>
      <trkpt lat="45.24048" lon="5.74011">
        <ele>865.79998779297</ele>
        <time>2021-07-17T05:30:16.000Z</time>
      </trkpt>
      <trkpt lat="45.24047" lon="5.74012">
        <ele>866.20001220703</ele>
        <time>2021-07-17T05:30:17.000Z</time>
      </trkpt>
      <trkpt lat="45.24042" lon="5.74016">
        <ele>867.40002441406</ele>
        <time>2021-07-17T05:30:22.000Z</time>
      </trkpt>
      <trkpt lat="45.24041" lon="5.74017">
        <ele>867.59997558594</ele>
        <time>2021-07-17T05:30:23.000Z</time>
      </trkpt>
      <trkpt lat="45.24037" lon="5.74021">
        <ele>868.59997558594</ele>
        <time>2021-07-17T05:30:28.000Z</time>
      </trkpt>
      <trkpt lat="45.24035" lon="5.74024">
        <ele>869.40002441406</ele>
        <time>2021-07-17T05:30:32.000Z</time>
      </trkpt>
      <trkpt lat="45.24034" lon="5.74024">
        <ele>869.79998779297</ele>
        <time>2021-07-17T05:30:33.000Z</time>
      </trkpt>
      <trkpt lat="45.24032" lon="5.74026">
        <ele>870</ele>
        <time>2021-07-17T05:30:35.000Z</time>
      </trkpt>
      <trkpt lat="45.2403" lon="5.74029">
        <ele>870.79998779297</ele>
        <time>2021-07-17T05:30:38.000Z</time>
      </trkpt>
      <trkpt lat="45.24029" lon="5.7403">
        <ele>871.20001220703</ele>
        <time>2021-07-17T05:30:39.000Z</time>
      </trkpt>
      <trkpt lat="45.24021" lon="5.74039">
        <ele>872.20001220703</ele>
        <time>2021-07-17T05:30:44.000Z</time>
      </trkpt>
      <trkpt lat="45.2402" lon="5.7404">
        <ele>872.40002441406</ele>
        <time>2021-07-17T05:30:45.000Z</time>
      </trkpt>
      <trkpt lat="45.2402" lon="5.74041">
        <ele>872.40002441406</ele>
        <time>2021-07-17T05:30:46.000Z</time>
      </trkpt>
      <trkpt lat="45.24017" lon="5.74045">
        <ele>873.20001220703</ele>
        <time>2021-07-17T05:30:49.000Z</time>
      </trkpt>
      <trkpt lat="45.24013" lon="5.74048">
        <ele>873.79998779297</ele>
        <time>2021-07-17T05:30:52.000Z</time>
      </trkpt>
      <trkpt lat="45.24012" lon="5.74049">
        <ele>874.40002441406</ele>
        <time>2021-07-17T05:30:53.000Z</time>
      </trkpt>
      <trkpt lat="45.24008" lon="5.74052">
        <ele>875.20001220703</ele>
        <time>2021-07-17T05:30:57.000Z</time>
      </trkpt>
      <trkpt lat="45.24006" lon="5.74055">
        <ele>876</ele>
        <time>2021-07-17T05:30:59.000Z</time>
      </trkpt>
      <trkpt lat="45.24005" lon="5.74056">
        <ele>876</ele>
        <time>2021-07-17T05:31:00.000Z</time>
      </trkpt>
      <trkpt lat="45.24002" lon="5.74061">
        <ele>876.79998779297</ele>
        <time>2021-07-17T05:31:04.000Z</time>
      </trkpt>
      <trkpt lat="45.24001" lon="5.74062">
        <ele>876.79998779297</ele>
        <time>2021-07-17T05:31:05.000Z</time>
      </trkpt>
      <trkpt lat="45.24" lon="5.74064">
        <ele>877.20001220703</ele>
        <time>2021-07-17T05:31:07.000Z</time>
      </trkpt>
      <trkpt lat="45.23999" lon="5.74067">
        <ele>877.20001220703</ele>
        <time>2021-07-17T05:31:08.000Z</time>
      </trkpt>
      <trkpt lat="45.23997" lon="5.74067">
        <ele>877.40002441406</ele>
        <time>2021-07-17T05:31:09.000Z</time>
      </trkpt>
      <trkpt lat="45.23995" lon="5.74068">
        <ele>878.20001220703</ele>
        <time>2021-07-17T05:31:11.000Z</time>
      </trkpt>
      <trkpt lat="45.23993" lon="5.74069">
        <ele>878.20001220703</ele>
        <time>2021-07-17T05:31:12.000Z</time>
      </trkpt>
      <trkpt lat="45.23991" lon="5.7407">
        <ele>878.20001220703</ele>
        <time>2021-07-17T05:31:13.000Z</time>
      </trkpt>
      <trkpt lat="45.23986" lon="5.74075">
        <ele>879.20001220703</ele>
        <time>2021-07-17T05:31:17.000Z</time>
      </trkpt>
      <trkpt lat="45.23985" lon="5.74077">
        <ele>879.40002441406</ele>
        <time>2021-07-17T05:31:18.000Z</time>
      </trkpt>
      <trkpt lat="45.23982" lon="5.74078">
        <ele>880.20001220703</ele>
        <time>2021-07-17T05:31:20.000Z</time>
      </trkpt>
      <trkpt lat="45.23976" lon="5.74084">
        <ele>881.40002441406</ele>
        <time>2021-07-17T05:31:25.000Z</time>
      </trkpt>
      <trkpt lat="45.23978" lon="5.74089">
        <ele>882</ele>
        <time>2021-07-17T05:31:29.000Z</time>
      </trkpt>
      <trkpt lat="45.23977" lon="5.74089">
        <ele>882.59997558594</ele>
        <time>2021-07-17T05:31:30.000Z</time>
      </trkpt>
      <trkpt lat="45.23973" lon="5.74092">
        <ele>883.40002441406</ele>
        <time>2021-07-17T05:31:33.000Z</time>
      </trkpt>
      <trkpt lat="45.23973" lon="5.74094">
        <ele>884</ele>
        <time>2021-07-17T05:31:35.000Z</time>
      </trkpt>
      <trkpt lat="45.23969" lon="5.74097">
        <ele>885</ele>
        <time>2021-07-17T05:31:39.000Z</time>
      </trkpt>
      <trkpt lat="45.23967" lon="5.74099">
        <ele>885.20001220703</ele>
        <time>2021-07-17T05:31:40.000Z</time>
      </trkpt>
      <trkpt lat="45.23961" lon="5.741">
        <ele>886</ele>
        <time>2021-07-17T05:31:43.000Z</time>
      </trkpt>
      <trkpt lat="45.2396" lon="5.74101">
        <ele>886.40002441406</ele>
        <time>2021-07-17T05:31:44.000Z</time>
      </trkpt>
      <trkpt lat="45.23958" lon="5.74105">
        <ele>887</ele>
        <time>2021-07-17T05:31:47.000Z</time>
      </trkpt>
      <trkpt lat="45.23956" lon="5.74105">
        <ele>887.20001220703</ele>
        <time>2021-07-17T05:31:48.000Z</time>
      </trkpt>
      <trkpt lat="45.23956" lon="5.74105">
        <ele>887.59997558594</ele>
        <time>2021-07-17T05:31:49.000Z</time>
      </trkpt>
      <trkpt lat="45.23956" lon="5.74107">
        <ele>888</ele>
        <time>2021-07-17T05:31:50.000Z</time>
      </trkpt>
      <trkpt lat="45.23956" lon="5.74108">
        <ele>888.20001220703</ele>
        <time>2021-07-17T05:31:51.000Z</time>
      </trkpt>
      <trkpt lat="45.23954" lon="5.7411">
        <ele>888.59997558594</ele>
        <time>2021-07-17T05:31:53.000Z</time>
      </trkpt>
      <trkpt lat="45.23953" lon="5.7411">
        <ele>888.79998779297</ele>
        <time>2021-07-17T05:31:55.000Z</time>
      </trkpt>
      <trkpt lat="45.2395" lon="5.74111">
        <ele>889.59997558594</ele>
        <time>2021-07-17T05:31:57.000Z</time>
      </trkpt>
      <trkpt lat="45.23949" lon="5.74112">
        <ele>890</ele>
        <time>2021-07-17T05:31:58.000Z</time>
      </trkpt>
      <trkpt lat="45.23944" lon="5.74112">
        <ele>891.20001220703</ele>
        <time>2021-07-17T05:32:02.000Z</time>
      </trkpt>
      <trkpt lat="45.23945" lon="5.74112">
        <ele>891.40002441406</ele>
        <time>2021-07-17T05:32:03.000Z</time>
      </trkpt>
      <trkpt lat="45.23944" lon="5.74112">
        <ele>891.59997558594</ele>
        <time>2021-07-17T05:32:04.000Z</time>
      </trkpt>
      <trkpt lat="45.23941" lon="5.74111">
        <ele>892.40002441406</ele>
        <time>2021-07-17T05:32:07.000Z</time>
      </trkpt>
      <trkpt lat="45.2394" lon="5.74112">
        <ele>893.40002441406</ele>
        <time>2021-07-17T05:32:10.000Z</time>
      </trkpt>
      <trkpt lat="45.23938" lon="5.74112">
        <ele>893.40002441406</ele>
        <time>2021-07-17T05:32:11.000Z</time>
      </trkpt>
      <trkpt lat="45.23936" lon="5.74112">
        <ele>893.59997558594</ele>
        <time>2021-07-17T05:32:12.000Z</time>
      </trkpt>
      <trkpt lat="45.23935" lon="5.74112">
        <ele>894.59997558594</ele>
        <time>2021-07-17T05:32:14.000Z</time>
      </trkpt>
      <trkpt lat="45.23929" lon="5.74113">
        <ele>895.79998779297</ele>
        <time>2021-07-17T05:32:19.000Z</time>
      </trkpt>
      <trkpt lat="45.23927" lon="5.74111">
        <ele>896.20001220703</ele>
        <time>2021-07-17T05:32:21.000Z</time>
      </trkpt>
      <trkpt lat="45.23926" lon="5.7411">
        <ele>896.79998779297</ele>
        <time>2021-07-17T05:32:22.000Z</time>
      </trkpt>
      <trkpt lat="45.23924" lon="5.7411">
        <ele>897</ele>
        <time>2021-07-17T05:32:24.000Z</time>
      </trkpt>
      <trkpt lat="45.23921" lon="5.7411">
        <ele>897.40002441406</ele>
        <time>2021-07-17T05:32:26.000Z</time>
      </trkpt>
      <trkpt lat="45.23921" lon="5.74109">
        <ele>898.20001220703</ele>
        <time>2021-07-17T05:32:27.000Z</time>
      </trkpt>
      <trkpt lat="45.23921" lon="5.74107">
        <ele>898.20001220703</ele>
        <time>2021-07-17T05:32:28.000Z</time>
      </trkpt>
      <trkpt lat="45.2392" lon="5.74109">
        <ele>898.79998779297</ele>
        <time>2021-07-17T05:32:31.000Z</time>
      </trkpt>
      <trkpt lat="45.23921" lon="5.7411">
        <ele>898.79998779297</ele>
        <time>2021-07-17T05:32:32.000Z</time>
      </trkpt>
      <trkpt lat="45.23922" lon="5.74113">
        <ele>899.40002441406</ele>
        <time>2021-07-17T05:32:35.000Z</time>
      </trkpt>
      <trkpt lat="45.23922" lon="5.74113">
        <ele>899.40002441406</ele>
        <time>2021-07-17T05:32:36.000Z</time>
      </trkpt>
      <trkpt lat="45.23922" lon="5.74114">
        <ele>899.79998779297</ele>
        <time>2021-07-17T05:32:37.000Z</time>
      </trkpt>
      <trkpt lat="45.23922" lon="5.74116">
        <ele>900.20001220703</ele>
        <time>2021-07-17T05:32:39.000Z</time>
      </trkpt>
      <trkpt lat="45.23923" lon="5.74118">
        <ele>900.79998779297</ele>
        <time>2021-07-17T05:32:40.000Z</time>
      </trkpt>
      <trkpt lat="45.23923" lon="5.74119">
        <ele>901</ele>
        <time>2021-07-17T05:32:41.000Z</time>
      </trkpt>
      <trkpt lat="45.23923" lon="5.7412">
        <ele>901</ele>
        <time>2021-07-17T05:32:42.000Z</time>
      </trkpt>
      <trkpt lat="45.23922" lon="5.74119">
        <ele>901</ele>
        <time>2021-07-17T05:32:43.000Z</time>
      </trkpt>
      <trkpt lat="45.23923" lon="5.7412">
        <ele>901.79998779297</ele>
        <time>2021-07-17T05:32:45.000Z</time>
      </trkpt>
      <trkpt lat="45.23924" lon="5.74121">
        <ele>902.20001220703</ele>
        <time>2021-07-17T05:32:46.000Z</time>
      </trkpt>
      <trkpt lat="45.23925" lon="5.74122">
        <ele>902.59997558594</ele>
        <time>2021-07-17T05:32:48.000Z</time>
      </trkpt>
      <trkpt lat="45.23928" lon="5.74125">
        <ele>902.79998779297</ele>
        <time>2021-07-17T05:32:50.000Z</time>
      </trkpt>
      <trkpt lat="45.23928" lon="5.74126">
        <ele>903</ele>
        <time>2021-07-17T05:32:51.000Z</time>
      </trkpt>
      <trkpt lat="45.2393" lon="5.7413">
        <ele>903.59997558594</ele>
        <time>2021-07-17T05:32:53.000Z</time>
      </trkpt>
      <trkpt lat="45.2393" lon="5.74131">
        <ele>904.20001220703</ele>
        <time>2021-07-17T05:32:54.000Z</time>
      </trkpt>
      <trkpt lat="45.23931" lon="5.74133">
        <ele>905</ele>
        <time>2021-07-17T05:32:59.000Z</time>
      </trkpt>
      <trkpt lat="45.23931" lon="5.74133">
        <ele>905.79998779297</ele>
        <time>2021-07-17T05:33:00.000Z</time>
      </trkpt>
      <trkpt lat="45.23932" lon="5.74133">
        <ele>905.79998779297</ele>
        <time>2021-07-17T05:33:01.000Z</time>
      </trkpt>
      <trkpt lat="45.23933" lon="5.74133">
        <ele>906</ele>
        <time>2021-07-17T05:33:03.000Z</time>
      </trkpt>
      <trkpt lat="45.23933" lon="5.74133">
        <ele>906.59997558594</ele>
        <time>2021-07-17T05:33:04.000Z</time>
      </trkpt>
      <trkpt lat="45.23933" lon="5.74134">
        <ele>907.20001220703</ele>
        <time>2021-07-17T05:33:05.000Z</time>
      </trkpt>
      <trkpt lat="45.23933" lon="5.74134">
        <ele>907.59997558594</ele>
        <time>2021-07-17T05:33:07.000Z</time>
      </trkpt>
      <trkpt lat="45.23934" lon="5.74135">
        <ele>908.20001220703</ele>
        <time>2021-07-17T05:33:09.000Z</time>
      </trkpt>
      <trkpt lat="45.23934" lon="5.74135">
        <ele>908.79998779297</ele>
        <time>2021-07-17T05:33:11.000Z</time>
      </trkpt>
      <trkpt lat="45.23935" lon="5.74138">
        <ele>909.40002441406</ele>
        <time>2021-07-17T05:33:13.000Z</time>
      </trkpt>
      <trkpt lat="45.23936" lon="5.74139">
        <ele>909.59997558594</ele>
        <time>2021-07-17T05:33:14.000Z</time>
      </trkpt>
      <trkpt lat="45.23939" lon="5.74142">
        <ele>910.40002441406</ele>
        <time>2021-07-17T05:33:17.000Z</time>
      </trkpt>
      <trkpt lat="45.23939" lon="5.74145">
        <ele>911.40002441406</ele>
        <time>2021-07-17T05:33:20.000Z</time>
      </trkpt>
      <trkpt lat="45.23939" lon="5.74146">
        <ele>911.40002441406</ele>
        <time>2021-07-17T05:33:21.000Z</time>
      </trkpt>
      <trkpt lat="45.23939" lon="5.74148">
        <ele>911.59997558594</ele>
        <time>2021-07-17T05:33:22.000Z</time>
      </trkpt>
      <trkpt lat="45.23938" lon="5.74151">
        <ele>912</ele>
        <time>2021-07-17T05:33:24.000Z</time>
      </trkpt>
      <trkpt lat="45.23936" lon="5.74153">
        <ele>913.40002441406</ele>
        <time>2021-07-17T05:33:26.000Z</time>
      </trkpt>
      <trkpt lat="45.23936" lon="5.74158">
        <ele>914.40002441406</ele>
        <time>2021-07-17T05:33:31.000Z</time>
      </trkpt>
      <trkpt lat="45.23936" lon="5.74159">
        <ele>914.59997558594</ele>
        <time>2021-07-17T05:33:32.000Z</time>
      </trkpt>
      <trkpt lat="45.23937" lon="5.7416">
        <ele>915.40002441406</ele>
        <time>2021-07-17T05:33:33.000Z</time>
      </trkpt>
      <trkpt lat="45.23938" lon="5.7416">
        <ele>915.40002441406</ele>
        <time>2021-07-17T05:33:34.000Z</time>
      </trkpt>
      <trkpt lat="45.23938" lon="5.74161">
        <ele>915.59997558594</ele>
        <time>2021-07-17T05:33:35.000Z</time>
      </trkpt>
      <trkpt lat="45.23937" lon="5.74163">
        <ele>916</ele>
        <time>2021-07-17T05:33:38.000Z</time>
      </trkpt>
      <trkpt lat="45.23934" lon="5.74163">
        <ele>916.59997558594</ele>
        <time>2021-07-17T05:33:40.000Z</time>
      </trkpt>
      <trkpt lat="45.23932" lon="5.74162">
        <ele>917.59997558594</ele>
        <time>2021-07-17T05:33:42.000Z</time>
      </trkpt>
      <trkpt lat="45.23931" lon="5.74162">
        <ele>917.79998779297</ele>
        <time>2021-07-17T05:33:43.000Z</time>
      </trkpt>
      <trkpt lat="45.23931" lon="5.74162">
        <ele>918</ele>
        <time>2021-07-17T05:33:44.000Z</time>
      </trkpt>
      <trkpt lat="45.23931" lon="5.74162">
        <ele>918.79998779297</ele>
        <time>2021-07-17T05:33:46.000Z</time>
      </trkpt>
      <trkpt lat="45.23931" lon="5.74163">
        <ele>919.20001220703</ele>
        <time>2021-07-17T05:33:48.000Z</time>
      </trkpt>
      <trkpt lat="45.23932" lon="5.74164">
        <ele>920.40002441406</ele>
        <time>2021-07-17T05:33:51.000Z</time>
      </trkpt>
      <trkpt lat="45.23931" lon="5.74165">
        <ele>920.79998779297</ele>
        <time>2021-07-17T05:33:53.000Z</time>
      </trkpt>
      <trkpt lat="45.23931" lon="5.74166">
        <ele>920.79998779297</ele>
        <time>2021-07-17T05:33:54.000Z</time>
      </trkpt>
      <trkpt lat="45.23928" lon="5.74167">
        <ele>921.59997558594</ele>
        <time>2021-07-17T05:33:56.000Z</time>
      </trkpt>
      <trkpt lat="45.23924" lon="5.74167">
        <ele>921.79998779297</ele>
        <time>2021-07-17T05:33:58.000Z</time>
      </trkpt>
      <trkpt lat="45.2392" lon="5.74169">
        <ele>922.40002441406</ele>
        <time>2021-07-17T05:34:00.000Z</time>
      </trkpt>
      <trkpt lat="45.23919" lon="5.7417">
        <ele>923</ele>
        <time>2021-07-17T05:34:01.000Z</time>
      </trkpt>
      <trkpt lat="45.23916" lon="5.7417">
        <ele>923.79998779297</ele>
        <time>2021-07-17T05:34:04.000Z</time>
      </trkpt>
      <trkpt lat="45.23916" lon="5.7417">
        <ele>924.20001220703</ele>
        <time>2021-07-17T05:34:05.000Z</time>
      </trkpt>
      <trkpt lat="45.23912" lon="5.74171">
        <ele>925.40002441406</ele>
        <time>2021-07-17T05:34:10.000Z</time>
      </trkpt>
      <trkpt lat="45.2391" lon="5.74175">
        <ele>926.59997558594</ele>
        <time>2021-07-17T05:34:14.000Z</time>
      </trkpt>
      <trkpt lat="45.23911" lon="5.74178">
        <ele>927.20001220703</ele>
        <time>2021-07-17T05:34:16.000Z</time>
      </trkpt>
      <trkpt lat="45.23909" lon="5.74181">
        <ele>927.79998779297</ele>
        <time>2021-07-17T05:34:19.000Z</time>
      </trkpt>
      <trkpt lat="45.23908" lon="5.74183">
        <ele>928.79998779297</ele>
        <time>2021-07-17T05:34:21.000Z</time>
      </trkpt>
      <trkpt lat="45.23907" lon="5.74185">
        <ele>929</ele>
        <time>2021-07-17T05:34:23.000Z</time>
      </trkpt>
      <trkpt lat="45.23906" lon="5.74187">
        <ele>929.40002441406</ele>
        <time>2021-07-17T05:34:26.000Z</time>
      </trkpt>
      <trkpt lat="45.23906" lon="5.74189">
        <ele>929.79998779297</ele>
        <time>2021-07-17T05:34:27.000Z</time>
      </trkpt>
      <trkpt lat="45.23904" lon="5.74191">
        <ele>930.79998779297</ele>
        <time>2021-07-17T05:34:29.000Z</time>
      </trkpt>
      <trkpt lat="45.23904" lon="5.74193">
        <ele>931</ele>
        <time>2021-07-17T05:34:30.000Z</time>
      </trkpt>
      <trkpt lat="45.23904" lon="5.74194">
        <ele>931.40002441406</ele>
        <time>2021-07-17T05:34:31.000Z</time>
      </trkpt>
      <trkpt lat="45.23903" lon="5.74198">
        <ele>932.40002441406</ele>
        <time>2021-07-17T05:34:34.000Z</time>
      </trkpt>
      <trkpt lat="45.23902" lon="5.74198">
        <ele>932.40002441406</ele>
        <time>2021-07-17T05:34:35.000Z</time>
      </trkpt>
      <trkpt lat="45.23901" lon="5.742">
        <ele>932.59997558594</ele>
        <time>2021-07-17T05:34:36.000Z</time>
      </trkpt>
      <trkpt lat="45.23899" lon="5.74202">
        <ele>933.59997558594</ele>
        <time>2021-07-17T05:34:40.000Z</time>
      </trkpt>
      <trkpt lat="45.23897" lon="5.74203">
        <ele>933.79998779297</ele>
        <time>2021-07-17T05:34:41.000Z</time>
      </trkpt>
      <trkpt lat="45.23896" lon="5.74204">
        <ele>933.79998779297</ele>
        <time>2021-07-17T05:34:42.000Z</time>
      </trkpt>
      <trkpt lat="45.23891" lon="5.7421">
        <ele>935</ele>
        <time>2021-07-17T05:34:47.000Z</time>
      </trkpt>
      <trkpt lat="45.23892" lon="5.74214">
        <ele>935.59997558594</ele>
        <time>2021-07-17T05:34:51.000Z</time>
      </trkpt>
      <trkpt lat="45.2389" lon="5.74215">
        <ele>936.59997558594</ele>
        <time>2021-07-17T05:34:53.000Z</time>
      </trkpt>
      <trkpt lat="45.23886" lon="5.74216">
        <ele>937.40002441406</ele>
        <time>2021-07-17T05:34:56.000Z</time>
      </trkpt>
      <trkpt lat="45.23886" lon="5.74216">
        <ele>937.40002441406</ele>
        <time>2021-07-17T05:34:57.000Z</time>
      </trkpt>
      <trkpt lat="45.23885" lon="5.74217">
        <ele>937.59997558594</ele>
        <time>2021-07-17T05:34:58.000Z</time>
      </trkpt>
      <trkpt lat="45.23882" lon="5.7422">
        <ele>938.59997558594</ele>
        <time>2021-07-17T05:35:02.000Z</time>
      </trkpt>
      <trkpt lat="45.23882" lon="5.7422">
        <ele>939</ele>
        <time>2021-07-17T05:35:03.000Z</time>
      </trkpt>
      <trkpt lat="45.23883" lon="5.74221">
        <ele>939.20001220703</ele>
        <time>2021-07-17T05:35:04.000Z</time>
      </trkpt>
      <trkpt lat="45.23882" lon="5.74223">
        <ele>939.59997558594</ele>
        <time>2021-07-17T05:35:06.000Z</time>
      </trkpt>
      <trkpt lat="45.23882" lon="5.74225">
        <ele>939.59997558594</ele>
        <time>2021-07-17T05:35:07.000Z</time>
      </trkpt>
      <trkpt lat="45.23881" lon="5.74228">
        <ele>939.79998779297</ele>
        <time>2021-07-17T05:35:08.000Z</time>
      </trkpt>
      <trkpt lat="45.23878" lon="5.74231">
        <ele>940.40002441406</ele>
        <time>2021-07-17T05:35:10.000Z</time>
      </trkpt>
      <trkpt lat="45.23873" lon="5.74235">
        <ele>941.20001220703</ele>
        <time>2021-07-17T05:35:13.000Z</time>
      </trkpt>
      <trkpt lat="45.23871" lon="5.74236">
        <ele>942</ele>
        <time>2021-07-17T05:35:16.000Z</time>
      </trkpt>
      <trkpt lat="45.23871" lon="5.74237">
        <ele>942.20001220703</ele>
        <time>2021-07-17T05:35:17.000Z</time>
      </trkpt>
      <trkpt lat="45.23871" lon="5.74237">
        <ele>942.40002441406</ele>
        <time>2021-07-17T05:35:19.000Z</time>
      </trkpt>
      <trkpt lat="45.23869" lon="5.74238">
        <ele>943</ele>
        <time>2021-07-17T05:35:21.000Z</time>
      </trkpt>
      <trkpt lat="45.23868" lon="5.74239">
        <ele>943.40002441406</ele>
        <time>2021-07-17T05:35:22.000Z</time>
      </trkpt>
      <trkpt lat="45.23867" lon="5.74239">
        <ele>943.79998779297</ele>
        <time>2021-07-17T05:35:23.000Z</time>
      </trkpt>
      <trkpt lat="45.23866" lon="5.74239">
        <ele>944.40002441406</ele>
        <time>2021-07-17T05:35:24.000Z</time>
      </trkpt>
      <trkpt lat="45.23865" lon="5.74239">
        <ele>944.59997558594</ele>
        <time>2021-07-17T05:35:25.000Z</time>
      </trkpt>
      <trkpt lat="45.23864" lon="5.74241">
        <ele>945</ele>
        <time>2021-07-17T05:35:28.000Z</time>
      </trkpt>
      <trkpt lat="45.23861" lon="5.74243">
        <ele>946</ele>
        <time>2021-07-17T05:35:30.000Z</time>
      </trkpt>
      <trkpt lat="45.23858" lon="5.74245">
        <ele>946.20001220703</ele>
        <time>2021-07-17T05:35:32.000Z</time>
      </trkpt>
      <trkpt lat="45.23853" lon="5.74248">
        <ele>947.40002441406</ele>
        <time>2021-07-17T05:35:35.000Z</time>
      </trkpt>
      <trkpt lat="45.2385" lon="5.74251">
        <ele>948</ele>
        <time>2021-07-17T05:35:37.000Z</time>
      </trkpt>
      <trkpt lat="45.23847" lon="5.74255">
        <ele>948</ele>
        <time>2021-07-17T05:35:39.000Z</time>
      </trkpt>
      <trkpt lat="45.23844" lon="5.74257">
        <ele>948.79998779297</ele>
        <time>2021-07-17T05:35:41.000Z</time>
      </trkpt>
      <trkpt lat="45.23841" lon="5.7426">
        <ele>949.40002441406</ele>
        <time>2021-07-17T05:35:43.000Z</time>
      </trkpt>
      <trkpt lat="45.23838" lon="5.74262">
        <ele>950.20001220703</ele>
        <time>2021-07-17T05:35:45.000Z</time>
      </trkpt>
      <trkpt lat="45.23836" lon="5.74262">
        <ele>950.40002441406</ele>
        <time>2021-07-17T05:35:46.000Z</time>
      </trkpt>
      <trkpt lat="45.23836" lon="5.74263">
        <ele>950.79998779297</ele>
        <time>2021-07-17T05:35:47.000Z</time>
      </trkpt>
      <trkpt lat="45.23836" lon="5.74265">
        <ele>951.20001220703</ele>
        <time>2021-07-17T05:35:49.000Z</time>
      </trkpt>
      <trkpt lat="45.23834" lon="5.74268">
        <ele>952</ele>
        <time>2021-07-17T05:35:51.000Z</time>
      </trkpt>
      <trkpt lat="45.23833" lon="5.74269">
        <ele>952.40002441406</ele>
        <time>2021-07-17T05:35:52.000Z</time>
      </trkpt>
      <trkpt lat="45.23832" lon="5.74272">
        <ele>952.79998779297</ele>
        <time>2021-07-17T05:35:54.000Z</time>
      </trkpt>
      <trkpt lat="45.2383" lon="5.74273">
        <ele>953.79998779297</ele>
        <time>2021-07-17T05:35:56.000Z</time>
      </trkpt>
      <trkpt lat="45.2383" lon="5.74275">
        <ele>954.20001220703</ele>
        <time>2021-07-17T05:35:57.000Z</time>
      </trkpt>
      <trkpt lat="45.23829" lon="5.74277">
        <ele>954.20001220703</ele>
        <time>2021-07-17T05:35:59.000Z</time>
      </trkpt>
      <trkpt lat="45.2383" lon="5.74278">
        <ele>954.40002441406</ele>
        <time>2021-07-17T05:36:00.000Z</time>
      </trkpt>
      <trkpt lat="45.23827" lon="5.74279">
        <ele>954.59997558594</ele>
        <time>2021-07-17T05:36:04.000Z</time>
      </trkpt>
      <trkpt lat="45.23827" lon="5.74279">
        <ele>954.59997558594</ele>
        <time>2021-07-17T05:36:05.000Z</time>
      </trkpt>
      <trkpt lat="45.23826" lon="5.74279">
        <ele>954.59997558594</ele>
        <time>2021-07-17T05:36:06.000Z</time>
      </trkpt>
      <trkpt lat="45.23823" lon="5.74279">
        <ele>954.40002441406</ele>
        <time>2021-07-17T05:36:09.000Z</time>
      </trkpt>
      <trkpt lat="45.23821" lon="5.74279">
        <ele>954.20001220703</ele>
        <time>2021-07-17T05:36:10.000Z</time>
      </trkpt>
      <trkpt lat="45.2382" lon="5.74279">
        <ele>953.59997558594</ele>
        <time>2021-07-17T05:36:11.000Z</time>
      </trkpt>
      <trkpt lat="45.23818" lon="5.74277">
        <ele>953.20001220703</ele>
        <time>2021-07-17T05:36:14.000Z</time>
      </trkpt>
      <trkpt lat="45.23818" lon="5.74275">
        <ele>952.59997558594</ele>
        <time>2021-07-17T05:36:15.000Z</time>
      </trkpt>
      <trkpt lat="45.23817" lon="5.74273">
        <ele>951.59997558594</ele>
        <time>2021-07-17T05:36:17.000Z</time>
      </trkpt>
      <trkpt lat="45.23817" lon="5.74271">
        <ele>951.40002441406</ele>
        <time>2021-07-17T05:36:18.000Z</time>
      </trkpt>
      <trkpt lat="45.23818" lon="5.74268">
        <ele>950.79998779297</ele>
        <time>2021-07-17T05:36:20.000Z</time>
      </trkpt>
      <trkpt lat="45.23818" lon="5.74266">
        <ele>950.20001220703</ele>
        <time>2021-07-17T05:36:21.000Z</time>
      </trkpt>
      <trkpt lat="45.23822" lon="5.74264">
        <ele>949.20001220703</ele>
        <time>2021-07-17T05:36:24.000Z</time>
      </trkpt>
      <trkpt lat="45.23823" lon="5.74264">
        <ele>949</ele>
        <time>2021-07-17T05:36:25.000Z</time>
      </trkpt>
      <trkpt lat="45.23823" lon="5.74263">
        <ele>948.79998779297</ele>
        <time>2021-07-17T05:36:26.000Z</time>
      </trkpt>
      <trkpt lat="45.23824" lon="5.74262">
        <ele>947.79998779297</ele>
        <time>2021-07-17T05:36:28.000Z</time>
      </trkpt>
      <trkpt lat="45.23825" lon="5.74262">
        <ele>947.59997558594</ele>
        <time>2021-07-17T05:36:29.000Z</time>
      </trkpt>
      <trkpt lat="45.23826" lon="5.74261">
        <ele>947.59997558594</ele>
        <time>2021-07-17T05:36:30.000Z</time>
      </trkpt>
      <trkpt lat="45.23827" lon="5.7426">
        <ele>947</ele>
        <time>2021-07-17T05:36:33.000Z</time>
      </trkpt>
      <trkpt lat="45.23827" lon="5.74258">
        <ele>946.79998779297</ele>
        <time>2021-07-17T05:36:34.000Z</time>
      </trkpt>
      <trkpt lat="45.23827" lon="5.74256">
        <ele>946.20001220703</ele>
        <time>2021-07-17T05:36:35.000Z</time>
      </trkpt>
      <trkpt lat="45.23825" lon="5.74253">
        <ele>945.40002441406</ele>
        <time>2021-07-17T05:36:38.000Z</time>
      </trkpt>
      <trkpt lat="45.23825" lon="5.74251">
        <ele>945.20001220703</ele>
        <time>2021-07-17T05:36:39.000Z</time>
      </trkpt>
      <trkpt lat="45.23829" lon="5.74246">
        <ele>944.40002441406</ele>
        <time>2021-07-17T05:36:42.000Z</time>
      </trkpt>
      <trkpt lat="45.2383" lon="5.74245">
        <ele>944.20001220703</ele>
        <time>2021-07-17T05:36:44.000Z</time>
      </trkpt>
      <trkpt lat="45.2383" lon="5.74244">
        <ele>943.79998779297</ele>
        <time>2021-07-17T05:36:45.000Z</time>
      </trkpt>
      <trkpt lat="45.23833" lon="5.74238">
        <ele>942.79998779297</ele>
        <time>2021-07-17T05:36:49.000Z</time>
      </trkpt>
      <trkpt lat="45.23835" lon="5.74236">
        <ele>942.20001220703</ele>
        <time>2021-07-17T05:36:51.000Z</time>
      </trkpt>
      <trkpt lat="45.23834" lon="5.74233">
        <ele>941.40002441406</ele>
        <time>2021-07-17T05:36:54.000Z</time>
      </trkpt>
      <trkpt lat="45.23835" lon="5.7423">
        <ele>940.59997558594</ele>
        <time>2021-07-17T05:36:56.000Z</time>
      </trkpt>
      <trkpt lat="45.23836" lon="5.74229">
        <ele>940.59997558594</ele>
        <time>2021-07-17T05:36:57.000Z</time>
      </trkpt>
      <trkpt lat="45.23839" lon="5.74225">
        <ele>940.59997558594</ele>
        <time>2021-07-17T05:37:00.000Z</time>
      </trkpt>
      <trkpt lat="45.2384" lon="5.74223">
        <ele>940.40002441406</ele>
        <time>2021-07-17T05:37:01.000Z</time>
      </trkpt>
      <trkpt lat="45.2384" lon="5.74221">
        <ele>940</ele>
        <time>2021-07-17T05:37:02.000Z</time>
      </trkpt>
      <trkpt lat="45.23843" lon="5.74216">
        <ele>939.20001220703</ele>
        <time>2021-07-17T05:37:04.000Z</time>
      </trkpt>
      <trkpt lat="45.23843" lon="5.74214">
        <ele>939.20001220703</ele>
        <time>2021-07-17T05:37:05.000Z</time>
      </trkpt>
      <trkpt lat="45.23844" lon="5.74213">
        <ele>938.59997558594</ele>
        <time>2021-07-17T05:37:06.000Z</time>
      </trkpt>
      <trkpt lat="45.23844" lon="5.74208">
        <ele>938.20001220703</ele>
        <time>2021-07-17T05:37:10.000Z</time>
      </trkpt>
      <trkpt lat="45.23843" lon="5.74207">
        <ele>937.59997558594</ele>
        <time>2021-07-17T05:37:11.000Z</time>
      </trkpt>
      <trkpt lat="45.23839" lon="5.74205">
        <ele>937.20001220703</ele>
        <time>2021-07-17T05:37:13.000Z</time>
      </trkpt>
      <trkpt lat="45.23838" lon="5.74203">
        <ele>936.20001220703</ele>
        <time>2021-07-17T05:37:16.000Z</time>
      </trkpt>
      <trkpt lat="45.23839" lon="5.742">
        <ele>935</ele>
        <time>2021-07-17T05:37:18.000Z</time>
      </trkpt>
      <trkpt lat="45.2384" lon="5.74198">
        <ele>934.40002441406</ele>
        <time>2021-07-17T05:37:20.000Z</time>
      </trkpt>
      <trkpt lat="45.2384" lon="5.74197">
        <ele>934.40002441406</ele>
        <time>2021-07-17T05:37:21.000Z</time>
      </trkpt>
      <trkpt lat="45.23841" lon="5.74194">
        <ele>933.59997558594</ele>
        <time>2021-07-17T05:37:24.000Z</time>
      </trkpt>
      <trkpt lat="45.23841" lon="5.74192">
        <ele>932.59997558594</ele>
        <time>2021-07-17T05:37:26.000Z</time>
      </trkpt>
      <trkpt lat="45.23841" lon="5.7419">
        <ele>932.20001220703</ele>
        <time>2021-07-17T05:37:27.000Z</time>
      </trkpt>
      <trkpt lat="45.23842" lon="5.74187">
        <ele>931.40002441406</ele>
        <time>2021-07-17T05:37:30.000Z</time>
      </trkpt>
      <trkpt lat="45.23843" lon="5.74185">
        <ele>930.79998779297</ele>
        <time>2021-07-17T05:37:32.000Z</time>
      </trkpt>
      <trkpt lat="45.23844" lon="5.74183">
        <ele>929.79998779297</ele>
        <time>2021-07-17T05:37:34.000Z</time>
      </trkpt>
      <trkpt lat="45.23845" lon="5.74181">
        <ele>929.79998779297</ele>
        <time>2021-07-17T05:37:35.000Z</time>
      </trkpt>
      <trkpt lat="45.23845" lon="5.7418">
        <ele>929.59997558594</ele>
        <time>2021-07-17T05:37:36.000Z</time>
      </trkpt>
      <trkpt lat="45.23845" lon="5.74178">
        <ele>929.40002441406</ele>
        <time>2021-07-17T05:37:37.000Z</time>
      </trkpt>
      <trkpt lat="45.23844" lon="5.74177">
        <ele>929</ele>
        <time>2021-07-17T05:37:39.000Z</time>
      </trkpt>
      <trkpt lat="45.23844" lon="5.74176">
        <ele>928.20001220703</ele>
        <time>2021-07-17T05:37:40.000Z</time>
      </trkpt>
      <trkpt lat="45.23844" lon="5.74175">
        <ele>928.20001220703</ele>
        <time>2021-07-17T05:37:41.000Z</time>
      </trkpt>
      <trkpt lat="45.23843" lon="5.74172">
        <ele>928</ele>
        <time>2021-07-17T05:37:43.000Z</time>
      </trkpt>
      <trkpt lat="45.23843" lon="5.74169">
        <ele>927</ele>
        <time>2021-07-17T05:37:45.000Z</time>
      </trkpt>
      <trkpt lat="45.23843" lon="5.74168">
        <ele>926.59997558594</ele>
        <time>2021-07-17T05:37:46.000Z</time>
      </trkpt>
      <trkpt lat="45.23845" lon="5.74162">
        <ele>926</ele>
        <time>2021-07-17T05:37:49.000Z</time>
      </trkpt>
      <trkpt lat="45.23848" lon="5.74157">
        <ele>924.79998779297</ele>
        <time>2021-07-17T05:37:52.000Z</time>
      </trkpt>
      <trkpt lat="45.23846" lon="5.74152">
        <ele>923.59997558594</ele>
        <time>2021-07-17T05:37:55.000Z</time>
      </trkpt>
      <trkpt lat="45.23845" lon="5.74151">
        <ele>923.40002441406</ele>
        <time>2021-07-17T05:37:56.000Z</time>
      </trkpt>
      <trkpt lat="45.23845" lon="5.74149">
        <ele>922</ele>
        <time>2021-07-17T05:37:58.000Z</time>
      </trkpt>
      <trkpt lat="45.23844" lon="5.74148">
        <ele>922</ele>
        <time>2021-07-17T05:37:59.000Z</time>
      </trkpt>
      <trkpt lat="45.23843" lon="5.74147">
        <ele>921.79998779297</ele>
        <time>2021-07-17T05:38:01.000Z</time>
      </trkpt>
      <trkpt lat="45.23843" lon="5.74142">
        <ele>921.20001220703</ele>
        <time>2021-07-17T05:38:04.000Z</time>
      </trkpt>
      <trkpt lat="45.23843" lon="5.74141">
        <ele>921.20001220703</ele>
        <time>2021-07-17T05:38:05.000Z</time>
      </trkpt>
      <trkpt lat="45.23843" lon="5.74139">
        <ele>920.20001220703</ele>
        <time>2021-07-17T05:38:06.000Z</time>
      </trkpt>
      <trkpt lat="45.23843" lon="5.74137">
        <ele>920</ele>
        <time>2021-07-17T05:38:07.000Z</time>
      </trkpt>
      <trkpt lat="45.23844" lon="5.74133">
        <ele>919</ele>
        <time>2021-07-17T05:38:09.000Z</time>
      </trkpt>
      <trkpt lat="45.23844" lon="5.74127">
        <ele>917.40002441406</ele>
        <time>2021-07-17T05:38:12.000Z</time>
      </trkpt>
      <trkpt lat="45.2385" lon="5.74115">
        <ele>917</ele>
        <time>2021-07-17T05:38:17.000Z</time>
      </trkpt>
      <trkpt lat="45.23853" lon="5.7411">
        <ele>916.20001220703</ele>
        <time>2021-07-17T05:38:19.000Z</time>
      </trkpt>
      <trkpt lat="45.23856" lon="5.74105">
        <ele>915.20001220703</ele>
        <time>2021-07-17T05:38:22.000Z</time>
      </trkpt>
      <trkpt lat="45.23857" lon="5.74104">
        <ele>914.79998779297</ele>
        <time>2021-07-17T05:38:23.000Z</time>
      </trkpt>
      <trkpt lat="45.23858" lon="5.74103">
        <ele>914.79998779297</ele>
        <time>2021-07-17T05:38:24.000Z</time>
      </trkpt>
      <trkpt lat="45.2386" lon="5.74098">
        <ele>914</ele>
        <time>2021-07-17T05:38:26.000Z</time>
      </trkpt>
      <trkpt lat="45.23865" lon="5.74084">
        <ele>913.79998779297</ele>
        <time>2021-07-17T05:38:30.000Z</time>
      </trkpt>
      <trkpt lat="45.23868" lon="5.74079">
        <ele>912.59997558594</ele>
        <time>2021-07-17T05:38:32.000Z</time>
      </trkpt>
      <trkpt lat="45.23871" lon="5.74077">
        <ele>912.59997558594</ele>
        <time>2021-07-17T05:38:33.000Z</time>
      </trkpt>
      <trkpt lat="45.23874" lon="5.74073">
        <ele>911.79998779297</ele>
        <time>2021-07-17T05:38:35.000Z</time>
      </trkpt>
      <trkpt lat="45.23875" lon="5.74072">
        <ele>911.20001220703</ele>
        <time>2021-07-17T05:38:36.000Z</time>
      </trkpt>
      <trkpt lat="45.23885" lon="5.74069">
        <ele>910</ele>
        <time>2021-07-17T05:38:42.000Z</time>
      </trkpt>
      <trkpt lat="45.23888" lon="5.74069">
        <ele>908.79998779297</ele>
        <time>2021-07-17T05:38:44.000Z</time>
      </trkpt>
      <trkpt lat="45.23889" lon="5.74068">
        <ele>908.59997558594</ele>
        <time>2021-07-17T05:38:45.000Z</time>
      </trkpt>
      <trkpt lat="45.23892" lon="5.74068">
        <ele>907.40002441406</ele>
        <time>2021-07-17T05:38:47.000Z</time>
      </trkpt>
      <trkpt lat="45.23894" lon="5.74067">
        <ele>907</ele>
        <time>2021-07-17T05:38:48.000Z</time>
      </trkpt>
      <trkpt lat="45.23897" lon="5.74066">
        <ele>906.79998779297</ele>
        <time>2021-07-17T05:38:50.000Z</time>
      </trkpt>
      <trkpt lat="45.23899" lon="5.74067">
        <ele>905.20001220703</ele>
        <time>2021-07-17T05:38:52.000Z</time>
      </trkpt>
      <trkpt lat="45.23901" lon="5.7407">
        <ele>905</ele>
        <time>2021-07-17T05:38:54.000Z</time>
      </trkpt>
      <trkpt lat="45.23904" lon="5.74072">
        <ele>904.59997558594</ele>
        <time>2021-07-17T05:38:56.000Z</time>
      </trkpt>
      <trkpt lat="45.23904" lon="5.74073">
        <ele>904.40002441406</ele>
        <time>2021-07-17T05:38:57.000Z</time>
      </trkpt>
      <trkpt lat="45.23905" lon="5.74074">
        <ele>904</ele>
        <time>2021-07-17T05:38:58.000Z</time>
      </trkpt>
      <trkpt lat="45.23905" lon="5.74075">
        <ele>903.59997558594</ele>
        <time>2021-07-17T05:38:59.000Z</time>
      </trkpt>
      <trkpt lat="45.23906" lon="5.74076">
        <ele>903.20001220703</ele>
        <time>2021-07-17T05:39:01.000Z</time>
      </trkpt>
      <trkpt lat="45.23907" lon="5.74078">
        <ele>903</ele>
        <time>2021-07-17T05:39:02.000Z</time>
      </trkpt>
      <trkpt lat="45.23908" lon="5.74081">
        <ele>901.59997558594</ele>
        <time>2021-07-17T05:39:04.000Z</time>
      </trkpt>
      <trkpt lat="45.23908" lon="5.74084">
        <ele>901.20001220703</ele>
        <time>2021-07-17T05:39:05.000Z</time>
      </trkpt>
      <trkpt lat="45.23908" lon="5.74087">
        <ele>900.40002441406</ele>
        <time>2021-07-17T05:39:07.000Z</time>
      </trkpt>
      <trkpt lat="45.23908" lon="5.74087">
        <ele>899.40002441406</ele>
        <time>2021-07-17T05:39:08.000Z</time>
      </trkpt>
      <trkpt lat="45.23908" lon="5.74088">
        <ele>899</ele>
        <time>2021-07-17T05:39:09.000Z</time>
      </trkpt>
      <trkpt lat="45.23906" lon="5.74094">
        <ele>898.40002441406</ele>
        <time>2021-07-17T05:39:13.000Z</time>
      </trkpt>
      <trkpt lat="45.23907" lon="5.74097">
        <ele>899</ele>
        <time>2021-07-17T05:39:15.000Z</time>
      </trkpt>
      <trkpt lat="45.23912" lon="5.74102">
        <ele>899.79998779297</ele>
        <time>2021-07-17T05:39:18.000Z</time>
      </trkpt>
      <trkpt lat="45.23913" lon="5.74104">
        <ele>899.79998779297</ele>
        <time>2021-07-17T05:39:20.000Z</time>
      </trkpt>
      <trkpt lat="45.23913" lon="5.74104">
        <ele>900.79998779297</ele>
        <time>2021-07-17T05:39:21.000Z</time>
      </trkpt>
      <trkpt lat="45.23913" lon="5.74106">
        <ele>901.40002441406</ele>
        <time>2021-07-17T05:39:23.000Z</time>
      </trkpt>
      <trkpt lat="45.23913" lon="5.74107">
        <ele>901.59997558594</ele>
        <time>2021-07-17T05:39:24.000Z</time>
      </trkpt>
      <trkpt lat="45.23914" lon="5.74108">
        <ele>901.59997558594</ele>
        <time>2021-07-17T05:39:25.000Z</time>
      </trkpt>
      <trkpt lat="45.23915" lon="5.7411">
        <ele>902</ele>
        <time>2021-07-17T05:39:26.000Z</time>
      </trkpt>
      <trkpt lat="45.23915" lon="5.74111">
        <ele>902.20001220703</ele>
        <time>2021-07-17T05:39:27.000Z</time>
      </trkpt>
      <trkpt lat="45.23916" lon="5.74113">
        <ele>902.79998779297</ele>
        <time>2021-07-17T05:39:28.000Z</time>
      </trkpt>
      <trkpt lat="45.23916" lon="5.74114">
        <ele>903.20001220703</ele>
        <time>2021-07-17T05:39:29.000Z</time>
      </trkpt>
      <trkpt lat="45.23919" lon="5.74117">
        <ele>903.59997558594</ele>
        <time>2021-07-17T05:39:33.000Z</time>
      </trkpt>
      <trkpt lat="45.23919" lon="5.74118">
        <ele>904</ele>
        <time>2021-07-17T05:39:34.000Z</time>
      </trkpt>
      <trkpt lat="45.2392" lon="5.74119">
        <ele>904.79998779297</ele>
        <time>2021-07-17T05:39:35.000Z</time>
      </trkpt>
      <trkpt lat="45.23921" lon="5.74121">
        <ele>905.20001220703</ele>
        <time>2021-07-17T05:39:37.000Z</time>
      </trkpt>
      <trkpt lat="45.23923" lon="5.74123">
        <ele>905.79998779297</ele>
        <time>2021-07-17T05:39:40.000Z</time>
      </trkpt>
      <trkpt lat="45.23922" lon="5.74123">
        <ele>906.40002441406</ele>
        <time>2021-07-17T05:39:41.000Z</time>
      </trkpt>
      <trkpt lat="45.23926" lon="5.74126">
        <ele>906.79998779297</ele>
        <time>2021-07-17T05:39:44.000Z</time>
      </trkpt>
      <trkpt lat="45.23925" lon="5.74125">
        <ele>907.40002441406</ele>
        <time>2021-07-17T05:39:46.000Z</time>
      </trkpt>
      <trkpt lat="45.23925" lon="5.74125">
        <ele>908.20001220703</ele>
        <time>2021-07-17T05:39:47.000Z</time>
      </trkpt>
      <trkpt lat="45.23926" lon="5.74128">
        <ele>908.59997558594</ele>
        <time>2021-07-17T05:39:51.000Z</time>
      </trkpt>
      <trkpt lat="45.23927" lon="5.74129">
        <ele>909.20001220703</ele>
        <time>2021-07-17T05:39:52.000Z</time>
      </trkpt>
      <trkpt lat="45.23928" lon="5.74133">
        <ele>910.40002441406</ele>
        <time>2021-07-17T05:39:55.000Z</time>
      </trkpt>
      <trkpt lat="45.23928" lon="5.74133">
        <ele>910.40002441406</ele>
        <time>2021-07-17T05:39:56.000Z</time>
      </trkpt>
      <trkpt lat="45.23928" lon="5.74136">
        <ele>911.20001220703</ele>
        <time>2021-07-17T05:40:00.000Z</time>
      </trkpt>
      <trkpt lat="45.23928" lon="5.74138">
        <ele>911.40002441406</ele>
        <time>2021-07-17T05:40:01.000Z</time>
      </trkpt>
      <trkpt lat="45.23931" lon="5.74144">
        <ele>912.40002441406</ele>
        <time>2021-07-17T05:40:04.000Z</time>
      </trkpt>
      <trkpt lat="45.2393" lon="5.74145">
        <ele>912.79998779297</ele>
        <time>2021-07-17T05:40:05.000Z</time>
      </trkpt>
      <trkpt lat="45.23932" lon="5.7415">
        <ele>913.40002441406</ele>
        <time>2021-07-17T05:40:08.000Z</time>
      </trkpt>
      <trkpt lat="45.2393" lon="5.74152">
        <ele>914.59997558594</ele>
        <time>2021-07-17T05:40:11.000Z</time>
      </trkpt>
      <trkpt lat="45.23928" lon="5.74151">
        <ele>915</ele>
        <time>2021-07-17T05:40:12.000Z</time>
      </trkpt>
      <trkpt lat="45.23926" lon="5.74151">
        <ele>915.20001220703</ele>
        <time>2021-07-17T05:40:15.000Z</time>
      </trkpt>
      <trkpt lat="45.23926" lon="5.74153">
        <ele>915.59997558594</ele>
        <time>2021-07-17T05:40:17.000Z</time>
      </trkpt>
      <trkpt lat="45.23925" lon="5.74154">
        <ele>916.79998779297</ele>
        <time>2021-07-17T05:40:19.000Z</time>
      </trkpt>
      <trkpt lat="45.23926" lon="5.74156">
        <ele>917.40002441406</ele>
        <time>2021-07-17T05:40:22.000Z</time>
      </trkpt>
      <trkpt lat="45.23926" lon="5.74156">
        <ele>917.59997558594</ele>
        <time>2021-07-17T05:40:23.000Z</time>
      </trkpt>
      <trkpt lat="45.23926" lon="5.74156">
        <ele>918.20001220703</ele>
        <time>2021-07-17T05:40:24.000Z</time>
      </trkpt>
      <trkpt lat="45.23922" lon="5.74157">
        <ele>918.59997558594</ele>
        <time>2021-07-17T05:40:27.000Z</time>
      </trkpt>
      <trkpt lat="45.23922" lon="5.74159">
        <ele>919.79998779297</ele>
        <time>2021-07-17T05:40:29.000Z</time>
      </trkpt>
      <trkpt lat="45.23922" lon="5.74161">
        <ele>920.59997558594</ele>
        <time>2021-07-17T05:40:32.000Z</time>
      </trkpt>
      <trkpt lat="45.23922" lon="5.74163">
        <ele>921.20001220703</ele>
        <time>2021-07-17T05:40:34.000Z</time>
      </trkpt>
      <trkpt lat="45.2392" lon="5.74164">
        <ele>921.79998779297</ele>
        <time>2021-07-17T05:40:36.000Z</time>
      </trkpt>
      <trkpt lat="45.23917" lon="5.74167">
        <ele>922.20001220703</ele>
        <time>2021-07-17T05:40:40.000Z</time>
      </trkpt>
      <trkpt lat="45.23914" lon="5.74167">
        <ele>923.20001220703</ele>
        <time>2021-07-17T05:40:42.000Z</time>
      </trkpt>
      <trkpt lat="45.23914" lon="5.74169">
        <ele>923.59997558594</ele>
        <time>2021-07-17T05:40:43.000Z</time>
      </trkpt>
      <trkpt lat="45.23912" lon="5.7417">
        <ele>924.40002441406</ele>
        <time>2021-07-17T05:40:45.000Z</time>
      </trkpt>
      <trkpt lat="45.2391" lon="5.7417">
        <ele>925</ele>
        <time>2021-07-17T05:40:48.000Z</time>
      </trkpt>
      <trkpt lat="45.23911" lon="5.74172">
        <ele>926.20001220703</ele>
        <time>2021-07-17T05:40:51.000Z</time>
      </trkpt>
      <trkpt lat="45.23911" lon="5.74174">
        <ele>926.79998779297</ele>
        <time>2021-07-17T05:40:53.000Z</time>
      </trkpt>
      <trkpt lat="45.23912" lon="5.74174">
        <ele>927.79998779297</ele>
        <time>2021-07-17T05:40:56.000Z</time>
      </trkpt>
      <trkpt lat="45.23912" lon="5.74175">
        <ele>928</ele>
        <time>2021-07-17T05:40:57.000Z</time>
      </trkpt>
      <trkpt lat="45.23914" lon="5.74175">
        <ele>928.40002441406</ele>
        <time>2021-07-17T05:40:59.000Z</time>
      </trkpt>
      <trkpt lat="45.23914" lon="5.74176">
        <ele>929</ele>
        <time>2021-07-17T05:41:00.000Z</time>
      </trkpt>
      <trkpt lat="45.23914" lon="5.74177">
        <ele>930</ele>
        <time>2021-07-17T05:41:02.000Z</time>
      </trkpt>
      <trkpt lat="45.23914" lon="5.74179">
        <ele>931</ele>
        <time>2021-07-17T05:41:06.000Z</time>
      </trkpt>
      <trkpt lat="45.23913" lon="5.74179">
        <ele>931.40002441406</ele>
        <time>2021-07-17T05:41:07.000Z</time>
      </trkpt>
      <trkpt lat="45.23914" lon="5.74179">
        <ele>932.20001220703</ele>
        <time>2021-07-17T05:41:09.000Z</time>
      </trkpt>
      <trkpt lat="45.23915" lon="5.74181">
        <ele>932.40002441406</ele>
        <time>2021-07-17T05:41:11.000Z</time>
      </trkpt>
      <trkpt lat="45.23917" lon="5.74188">
        <ele>933.20001220703</ele>
        <time>2021-07-17T05:41:17.000Z</time>
      </trkpt>
      <trkpt lat="45.23917" lon="5.7419">
        <ele>933.59997558594</ele>
        <time>2021-07-17T05:41:19.000Z</time>
      </trkpt>
      <trkpt lat="45.23919" lon="5.74193">
        <ele>935.20001220703</ele>
        <time>2021-07-17T05:41:22.000Z</time>
      </trkpt>
      <trkpt lat="45.23922" lon="5.74194">
        <ele>936.20001220703</ele>
        <time>2021-07-17T05:41:26.000Z</time>
      </trkpt>
      <trkpt lat="45.23923" lon="5.74196">
        <ele>936.79998779297</ele>
        <time>2021-07-17T05:41:28.000Z</time>
      </trkpt>
      <trkpt lat="45.23924" lon="5.74197">
        <ele>937.40002441406</ele>
        <time>2021-07-17T05:41:32.000Z</time>
      </trkpt>
      <trkpt lat="45.23924" lon="5.74196">
        <ele>937.79998779297</ele>
        <time>2021-07-17T05:41:33.000Z</time>
      </trkpt>
      <trkpt lat="45.23923" lon="5.74194">
        <ele>938.40002441406</ele>
        <time>2021-07-17T05:41:37.000Z</time>
      </trkpt>
      <trkpt lat="45.23923" lon="5.74194">
        <ele>939.40002441406</ele>
        <time>2021-07-17T05:41:39.000Z</time>
      </trkpt>
      <trkpt lat="45.23924" lon="5.74194">
        <ele>939.59997558594</ele>
        <time>2021-07-17T05:41:40.000Z</time>
      </trkpt>
      <trkpt lat="45.23928" lon="5.74198">
        <ele>940</ele>
        <time>2021-07-17T05:41:43.000Z</time>
      </trkpt>
      <trkpt lat="45.23929" lon="5.74199">
        <ele>940.40002441406</ele>
        <time>2021-07-17T05:41:44.000Z</time>
      </trkpt>
      <trkpt lat="45.23933" lon="5.74204">
        <ele>941.40002441406</ele>
        <time>2021-07-17T05:41:47.000Z</time>
      </trkpt>
      <trkpt lat="45.23934" lon="5.74205">
        <ele>942</ele>
        <time>2021-07-17T05:41:49.000Z</time>
      </trkpt>
      <trkpt lat="45.23934" lon="5.74205">
        <ele>942.40002441406</ele>
        <time>2021-07-17T05:41:51.000Z</time>
      </trkpt>
      <trkpt lat="45.23936" lon="5.74208">
        <ele>943</ele>
        <time>2021-07-17T05:41:55.000Z</time>
      </trkpt>
      <trkpt lat="45.23939" lon="5.74209">
        <ele>944.20001220703</ele>
        <time>2021-07-17T05:41:57.000Z</time>
      </trkpt>
      <trkpt lat="45.23941" lon="5.7421">
        <ele>945</ele>
        <time>2021-07-17T05:42:00.000Z</time>
      </trkpt>
      <trkpt lat="45.23943" lon="5.74209">
        <ele>945.40002441406</ele>
        <time>2021-07-17T05:42:02.000Z</time>
      </trkpt>
      <trkpt lat="45.23944" lon="5.74208">
        <ele>945.59997558594</ele>
        <time>2021-07-17T05:42:04.000Z</time>
      </trkpt>
      <trkpt lat="45.23946" lon="5.74208">
        <ele>946.40002441406</ele>
        <time>2021-07-17T05:42:06.000Z</time>
      </trkpt>
      <trkpt lat="45.23947" lon="5.74208">
        <ele>947.20001220703</ele>
        <time>2021-07-17T05:42:09.000Z</time>
      </trkpt>
      <trkpt lat="45.23948" lon="5.74207">
        <ele>947.59997558594</ele>
        <time>2021-07-17T05:42:10.000Z</time>
      </trkpt>
      <trkpt lat="45.23952" lon="5.74208">
        <ele>948.20001220703</ele>
        <time>2021-07-17T05:42:14.000Z</time>
      </trkpt>
      <trkpt lat="45.23953" lon="5.74207">
        <ele>948.20001220703</ele>
        <time>2021-07-17T05:42:15.000Z</time>
      </trkpt>
      <trkpt lat="45.23954" lon="5.74208">
        <ele>949.20001220703</ele>
        <time>2021-07-17T05:42:16.000Z</time>
      </trkpt>
      <trkpt lat="45.23955" lon="5.74209">
        <ele>949.20001220703</ele>
        <time>2021-07-17T05:42:17.000Z</time>
      </trkpt>
      <trkpt lat="45.23958" lon="5.7421">
        <ele>949.59997558594</ele>
        <time>2021-07-17T05:42:20.000Z</time>
      </trkpt>
      <trkpt lat="45.23961" lon="5.7421">
        <ele>950.59997558594</ele>
        <time>2021-07-17T05:42:23.000Z</time>
      </trkpt>
      <trkpt lat="45.23963" lon="5.7421">
        <ele>950.79998779297</ele>
        <time>2021-07-17T05:42:25.000Z</time>
      </trkpt>
      <trkpt lat="45.23964" lon="5.7421">
        <ele>951</ele>
        <time>2021-07-17T05:42:26.000Z</time>
      </trkpt>
      <trkpt lat="45.23969" lon="5.74211">
        <ele>951.40002441406</ele>
        <time>2021-07-17T05:42:29.000Z</time>
      </trkpt>
      <trkpt lat="45.23969" lon="5.7421">
        <ele>952</ele>
        <time>2021-07-17T05:42:30.000Z</time>
      </trkpt>
      <trkpt lat="45.23971" lon="5.74209">
        <ele>952.20001220703</ele>
        <time>2021-07-17T05:42:32.000Z</time>
      </trkpt>
      <trkpt lat="45.23972" lon="5.74209">
        <ele>952.79998779297</ele>
        <time>2021-07-17T05:42:34.000Z</time>
      </trkpt>
      <trkpt lat="45.23973" lon="5.74209">
        <ele>952.79998779297</ele>
        <time>2021-07-17T05:42:35.000Z</time>
      </trkpt>
      <trkpt lat="45.23973" lon="5.74208">
        <ele>953.40002441406</ele>
        <time>2021-07-17T05:42:36.000Z</time>
      </trkpt>
      <trkpt lat="45.23976" lon="5.74206">
        <ele>954.40002441406</ele>
        <time>2021-07-17T05:42:40.000Z</time>
      </trkpt>
      <trkpt lat="45.2398" lon="5.74207">
        <ele>955.20001220703</ele>
        <time>2021-07-17T05:42:43.000Z</time>
      </trkpt>
      <trkpt lat="45.23983" lon="5.74206">
        <ele>955.40002441406</ele>
        <time>2021-07-17T05:42:46.000Z</time>
      </trkpt>
      <trkpt lat="45.23986" lon="5.74205">
        <ele>956.40002441406</ele>
        <time>2021-07-17T05:42:49.000Z</time>
      </trkpt>
      <trkpt lat="45.23986" lon="5.74205">
        <ele>957</ele>
        <time>2021-07-17T05:42:50.000Z</time>
      </trkpt>
      <trkpt lat="45.23986" lon="5.74204">
        <ele>957</ele>
        <time>2021-07-17T05:42:51.000Z</time>
      </trkpt>
      <trkpt lat="45.23987" lon="5.74204">
        <ele>957.59997558594</ele>
        <time>2021-07-17T05:42:53.000Z</time>
      </trkpt>
      <trkpt lat="45.23989" lon="5.74203">
        <ele>958</ele>
        <time>2021-07-17T05:42:55.000Z</time>
      </trkpt>
      <trkpt lat="45.2399" lon="5.74203">
        <ele>959</ele>
        <time>2021-07-17T05:42:58.000Z</time>
      </trkpt>
      <trkpt lat="45.23991" lon="5.74203">
        <ele>959.20001220703</ele>
        <time>2021-07-17T05:42:59.000Z</time>
      </trkpt>
      <trkpt lat="45.23992" lon="5.74201">
        <ele>959.79998779297</ele>
        <time>2021-07-17T05:43:01.000Z</time>
      </trkpt>
      <trkpt lat="45.23993" lon="5.74202">
        <ele>960.20001220703</ele>
        <time>2021-07-17T05:43:03.000Z</time>
      </trkpt>
      <trkpt lat="45.23997" lon="5.74206">
        <ele>961.40002441406</ele>
        <time>2021-07-17T05:43:06.000Z</time>
      </trkpt>
      <trkpt lat="45.23997" lon="5.74206">
        <ele>961.59997558594</ele>
        <time>2021-07-17T05:43:08.000Z</time>
      </trkpt>
      <trkpt lat="45.23997" lon="5.74206">
        <ele>961.79998779297</ele>
        <time>2021-07-17T05:43:09.000Z</time>
      </trkpt>
      <trkpt lat="45.23998" lon="5.74206">
        <ele>962.40002441406</ele>
        <time>2021-07-17T05:43:10.000Z</time>
      </trkpt>
      <trkpt lat="45.23999" lon="5.74205">
        <ele>962.59997558594</ele>
        <time>2021-07-17T05:43:12.000Z</time>
      </trkpt>
      <trkpt lat="45.24004" lon="5.74206">
        <ele>963.79998779297</ele>
        <time>2021-07-17T05:43:16.000Z</time>
      </trkpt>
      <trkpt lat="45.24006" lon="5.74208">
        <ele>964.79998779297</ele>
        <time>2021-07-17T05:43:19.000Z</time>
      </trkpt>
      <trkpt lat="45.24007" lon="5.74209">
        <ele>965</ele>
        <time>2021-07-17T05:43:20.000Z</time>
      </trkpt>
      <trkpt lat="45.2401" lon="5.74211">
        <ele>965.79998779297</ele>
        <time>2021-07-17T05:43:22.000Z</time>
      </trkpt>
      <trkpt lat="45.2401" lon="5.74211">
        <ele>966.20001220703</ele>
        <time>2021-07-17T05:43:23.000Z</time>
      </trkpt>
      <trkpt lat="45.24012" lon="5.74213">
        <ele>966.79998779297</ele>
        <time>2021-07-17T05:43:27.000Z</time>
      </trkpt>
      <trkpt lat="45.24013" lon="5.74214">
        <ele>967.40002441406</ele>
        <time>2021-07-17T05:43:29.000Z</time>
      </trkpt>
      <trkpt lat="45.24016" lon="5.74218">
        <ele>968.40002441406</ele>
        <time>2021-07-17T05:43:31.000Z</time>
      </trkpt>
      <trkpt lat="45.24019" lon="5.74219">
        <ele>969</ele>
        <time>2021-07-17T05:43:33.000Z</time>
      </trkpt>
      <trkpt lat="45.24021" lon="5.74221">
        <ele>969.40002441406</ele>
        <time>2021-07-17T05:43:35.000Z</time>
      </trkpt>
      <trkpt lat="45.24025" lon="5.74222">
        <ele>971</ele>
        <time>2021-07-17T05:43:39.000Z</time>
      </trkpt>
      <trkpt lat="45.24024" lon="5.74221">
        <ele>971.40002441406</ele>
        <time>2021-07-17T05:43:40.000Z</time>
      </trkpt>
      <trkpt lat="45.24024" lon="5.7422">
        <ele>972.40002441406</ele>
        <time>2021-07-17T05:43:43.000Z</time>
      </trkpt>
      <trkpt lat="45.24025" lon="5.7422">
        <ele>973</ele>
        <time>2021-07-17T05:43:44.000Z</time>
      </trkpt>
      <trkpt lat="45.24027" lon="5.7422">
        <ele>973.40002441406</ele>
        <time>2021-07-17T05:43:47.000Z</time>
      </trkpt>
      <trkpt lat="45.24028" lon="5.74219">
        <ele>974.40002441406</ele>
        <time>2021-07-17T05:43:50.000Z</time>
      </trkpt>
      <trkpt lat="45.2403" lon="5.7422">
        <ele>975.59997558594</ele>
        <time>2021-07-17T05:43:53.000Z</time>
      </trkpt>
      <trkpt lat="45.24031" lon="5.74221">
        <ele>976.59997558594</ele>
        <time>2021-07-17T05:43:56.000Z</time>
      </trkpt>
      <trkpt lat="45.24033" lon="5.74223">
        <ele>977</ele>
        <time>2021-07-17T05:43:58.000Z</time>
      </trkpt>
      <trkpt lat="45.24033" lon="5.74224">
        <ele>977.20001220703</ele>
        <time>2021-07-17T05:43:59.000Z</time>
      </trkpt>
      <trkpt lat="45.24034" lon="5.74225">
        <ele>977.20001220703</ele>
        <time>2021-07-17T05:44:00.000Z</time>
      </trkpt>
      <trkpt lat="45.24034" lon="5.74226">
        <ele>977.59997558594</ele>
        <time>2021-07-17T05:44:02.000Z</time>
      </trkpt>
      <trkpt lat="45.24036" lon="5.74227">
        <ele>978.79998779297</ele>
        <time>2021-07-17T05:44:04.000Z</time>
      </trkpt>
      <trkpt lat="45.24037" lon="5.74227">
        <ele>979.59997558594</ele>
        <time>2021-07-17T05:44:05.000Z</time>
      </trkpt>
      <trkpt lat="45.24038" lon="5.74228">
        <ele>979.79998779297</ele>
        <time>2021-07-17T05:44:07.000Z</time>
      </trkpt>
      <trkpt lat="45.2404" lon="5.74227">
        <ele>981</ele>
        <time>2021-07-17T05:44:11.000Z</time>
      </trkpt>
      <trkpt lat="45.24042" lon="5.74228">
        <ele>981.59997558594</ele>
        <time>2021-07-17T05:44:15.000Z</time>
      </trkpt>
      <trkpt lat="45.24043" lon="5.74228">
        <ele>982</ele>
        <time>2021-07-17T05:44:16.000Z</time>
      </trkpt>
      <trkpt lat="45.24044" lon="5.7423">
        <ele>983</ele>
        <time>2021-07-17T05:44:18.000Z</time>
      </trkpt>
      <trkpt lat="45.24045" lon="5.7423">
        <ele>983.20001220703</ele>
        <time>2021-07-17T05:44:19.000Z</time>
      </trkpt>
      <trkpt lat="45.24046" lon="5.74232">
        <ele>984.20001220703</ele>
        <time>2021-07-17T05:44:23.000Z</time>
      </trkpt>
      <trkpt lat="45.24047" lon="5.74233">
        <ele>984.79998779297</ele>
        <time>2021-07-17T05:44:24.000Z</time>
      </trkpt>
      <trkpt lat="45.24048" lon="5.74233">
        <ele>985.40002441406</ele>
        <time>2021-07-17T05:44:27.000Z</time>
      </trkpt>
      <trkpt lat="45.24052" lon="5.74235">
        <ele>986.40002441406</ele>
        <time>2021-07-17T05:44:31.000Z</time>
      </trkpt>
      <trkpt lat="45.24057" lon="5.74236">
        <ele>988.20001220703</ele>
        <time>2021-07-17T05:44:36.000Z</time>
      </trkpt>
      <trkpt lat="45.24059" lon="5.74237">
        <ele>988.20001220703</ele>
        <time>2021-07-17T05:44:37.000Z</time>
      </trkpt>
      <trkpt lat="45.24064" lon="5.74239">
        <ele>989.20001220703</ele>
        <time>2021-07-17T05:44:42.000Z</time>
      </trkpt>
      <trkpt lat="45.24064" lon="5.74239">
        <ele>989.20001220703</ele>
        <time>2021-07-17T05:44:43.000Z</time>
      </trkpt>
      <trkpt lat="45.24068" lon="5.7424">
        <ele>990</ele>
        <time>2021-07-17T05:44:47.000Z</time>
      </trkpt>
      <trkpt lat="45.24069" lon="5.7424">
        <ele>990.59997558594</ele>
        <time>2021-07-17T05:44:48.000Z</time>
      </trkpt>
      <trkpt lat="45.24073" lon="5.7424">
        <ele>991.20001220703</ele>
        <time>2021-07-17T05:44:53.000Z</time>
      </trkpt>
      <trkpt lat="45.24076" lon="5.74242">
        <ele>992</ele>
        <time>2021-07-17T05:44:55.000Z</time>
      </trkpt>
      <trkpt lat="45.24079" lon="5.74243">
        <ele>993</ele>
        <time>2021-07-17T05:44:59.000Z</time>
      </trkpt>
      <trkpt lat="45.2408" lon="5.74243">
        <ele>993</ele>
        <time>2021-07-17T05:45:00.000Z</time>
      </trkpt>
      <trkpt lat="45.24085" lon="5.74244">
        <ele>994.40002441406</ele>
        <time>2021-07-17T05:45:06.000Z</time>
      </trkpt>
      <trkpt lat="45.24088" lon="5.74244">
        <ele>995.59997558594</ele>
        <time>2021-07-17T05:45:08.000Z</time>
      </trkpt>
      <trkpt lat="45.24091" lon="5.74246">
        <ele>996.40002441406</ele>
        <time>2021-07-17T05:45:12.000Z</time>
      </trkpt>
      <trkpt lat="45.24092" lon="5.74246">
        <ele>996.59997558594</ele>
        <time>2021-07-17T05:45:13.000Z</time>
      </trkpt>
      <trkpt lat="45.24092" lon="5.74248">
        <ele>997.79998779297</ele>
        <time>2021-07-17T05:45:17.000Z</time>
      </trkpt>
      <trkpt lat="45.24093" lon="5.74249">
        <ele>998</ele>
        <time>2021-07-17T05:45:18.000Z</time>
      </trkpt>
      <trkpt lat="45.24093" lon="5.7425">
        <ele>999</ele>
        <time>2021-07-17T05:45:22.000Z</time>
      </trkpt>
      <trkpt lat="45.24095" lon="5.74251">
        <ele>1000</ele>
        <time>2021-07-17T05:45:24.000Z</time>
      </trkpt>
      <trkpt lat="45.24096" lon="5.74251">
        <ele>1000</ele>
        <time>2021-07-17T05:45:25.000Z</time>
      </trkpt>
      <trkpt lat="45.24097" lon="5.74251">
        <ele>1001.4000244141</ele>
        <time>2021-07-17T05:45:28.000Z</time>
      </trkpt>
      <trkpt lat="45.24099" lon="5.74252">
        <ele>1001.799987793</ele>
        <time>2021-07-17T05:45:30.000Z</time>
      </trkpt>
      <trkpt lat="45.24101" lon="5.74252">
        <ele>1001.799987793</ele>
        <time>2021-07-17T05:45:32.000Z</time>
      </trkpt>
      <trkpt lat="45.24102" lon="5.74253">
        <ele>1002.5999755859</ele>
        <time>2021-07-17T05:45:33.000Z</time>
      </trkpt>
      <trkpt lat="45.24106" lon="5.74256">
        <ele>1003.4000244141</ele>
        <time>2021-07-17T05:45:36.000Z</time>
      </trkpt>
      <trkpt lat="45.24108" lon="5.74257">
        <ele>1003.799987793</ele>
        <time>2021-07-17T05:45:37.000Z</time>
      </trkpt>
      <trkpt lat="45.24111" lon="5.74256">
        <ele>1005</ele>
        <time>2021-07-17T05:45:40.000Z</time>
      </trkpt>
      <trkpt lat="45.24111" lon="5.74255">
        <ele>1005</ele>
        <time>2021-07-17T05:45:42.000Z</time>
      </trkpt>
      <trkpt lat="45.24117" lon="5.74257">
        <ele>1006</ele>
        <time>2021-07-17T05:45:47.000Z</time>
      </trkpt>
      <trkpt lat="45.24118" lon="5.74257">
        <ele>1006.4000244141</ele>
        <time>2021-07-17T05:45:48.000Z</time>
      </trkpt>
      <trkpt lat="45.24119" lon="5.74258">
        <ele>1006.5999755859</ele>
        <time>2021-07-17T05:45:49.000Z</time>
      </trkpt>
      <trkpt lat="45.24122" lon="5.74259">
        <ele>1007.200012207</ele>
        <time>2021-07-17T05:45:52.000Z</time>
      </trkpt>
      <trkpt lat="45.24123" lon="5.74259">
        <ele>1007.5999755859</ele>
        <time>2021-07-17T05:45:54.000Z</time>
      </trkpt>
      <trkpt lat="45.24128" lon="5.7426">
        <ele>1008.4000244141</ele>
        <time>2021-07-17T05:45:57.000Z</time>
      </trkpt>
      <trkpt lat="45.2413" lon="5.74262">
        <ele>1008.5999755859</ele>
        <time>2021-07-17T05:45:58.000Z</time>
      </trkpt>
      <trkpt lat="45.24131" lon="5.74263">
        <ele>1009.4000244141</ele>
        <time>2021-07-17T05:46:01.000Z</time>
      </trkpt>
      <trkpt lat="45.24132" lon="5.74264">
        <ele>1009.799987793</ele>
        <time>2021-07-17T05:46:02.000Z</time>
      </trkpt>
      <trkpt lat="45.24136" lon="5.74267">
        <ele>1010.5999755859</ele>
        <time>2021-07-17T05:46:05.000Z</time>
      </trkpt>
      <trkpt lat="45.24138" lon="5.74268">
        <ele>1011</ele>
        <time>2021-07-17T05:46:07.000Z</time>
      </trkpt>
      <trkpt lat="45.24139" lon="5.74269">
        <ele>1011.5999755859</ele>
        <time>2021-07-17T05:46:10.000Z</time>
      </trkpt>
      <trkpt lat="45.24142" lon="5.74271">
        <ele>1012.200012207</ele>
        <time>2021-07-17T05:46:12.000Z</time>
      </trkpt>
      <trkpt lat="45.24146" lon="5.74275">
        <ele>1012.4000244141</ele>
        <time>2021-07-17T05:46:15.000Z</time>
      </trkpt>
      <trkpt lat="45.24148" lon="5.74276">
        <ele>1013.5999755859</ele>
        <time>2021-07-17T05:46:16.000Z</time>
      </trkpt>
      <trkpt lat="45.24148" lon="5.74276">
        <ele>1014</ele>
        <time>2021-07-17T05:46:17.000Z</time>
      </trkpt>
      <trkpt lat="45.24152" lon="5.74279">
        <ele>1014.4000244141</ele>
        <time>2021-07-17T05:46:20.000Z</time>
      </trkpt>
      <trkpt lat="45.24156" lon="5.74281">
        <ele>1014.5999755859</ele>
        <time>2021-07-17T05:46:22.000Z</time>
      </trkpt>
      <trkpt lat="45.24157" lon="5.74281">
        <ele>1014.799987793</ele>
        <time>2021-07-17T05:46:23.000Z</time>
      </trkpt>
      <trkpt lat="45.24157" lon="5.74281">
        <ele>1014.5999755859</ele>
        <time>2021-07-17T05:46:24.000Z</time>
      </trkpt>
      <trkpt lat="45.24158" lon="5.74282">
        <ele>1014.5999755859</ele>
        <time>2021-07-17T05:46:26.000Z</time>
      </trkpt>
      <trkpt lat="45.24161" lon="5.74284">
        <ele>1014.799987793</ele>
        <time>2021-07-17T05:46:28.000Z</time>
      </trkpt>
      <trkpt lat="45.24163" lon="5.74287">
        <ele>1015</ele>
        <time>2021-07-17T05:46:30.000Z</time>
      </trkpt>
      <trkpt lat="45.24168" lon="5.74293">
        <ele>1016</ele>
        <time>2021-07-17T05:46:34.000Z</time>
      </trkpt>
      <trkpt lat="45.2417" lon="5.74295">
        <ele>1016.4000244141</ele>
        <time>2021-07-17T05:46:36.000Z</time>
      </trkpt>
      <trkpt lat="45.24172" lon="5.74296">
        <ele>1016.4000244141</ele>
        <time>2021-07-17T05:46:37.000Z</time>
      </trkpt>
      <trkpt lat="45.24175" lon="5.74302">
        <ele>1016.4000244141</ele>
        <time>2021-07-17T05:46:41.000Z</time>
      </trkpt>
      <trkpt lat="45.24176" lon="5.74305">
        <ele>1016.799987793</ele>
        <time>2021-07-17T05:46:43.000Z</time>
      </trkpt>
      <trkpt lat="45.24178" lon="5.74311">
        <ele>1016.799987793</ele>
        <time>2021-07-17T05:46:46.000Z</time>
      </trkpt>
      <trkpt lat="45.24178" lon="5.74312">
        <ele>1016.799987793</ele>
        <time>2021-07-17T05:46:47.000Z</time>
      </trkpt>
      <trkpt lat="45.24179" lon="5.74313">
        <ele>1016.799987793</ele>
        <time>2021-07-17T05:46:49.000Z</time>
      </trkpt>
      <trkpt lat="45.24178" lon="5.74313">
        <ele>1017.200012207</ele>
        <time>2021-07-17T05:46:50.000Z</time>
      </trkpt>
      <trkpt lat="45.24176" lon="5.74317">
        <ele>1018.200012207</ele>
        <time>2021-07-17T05:46:54.000Z</time>
      </trkpt>
      <trkpt lat="45.24176" lon="5.74317">
        <ele>1019</ele>
        <time>2021-07-17T05:46:56.000Z</time>
      </trkpt>
      <trkpt lat="45.24175" lon="5.74316">
        <ele>1019.5999755859</ele>
        <time>2021-07-17T05:46:57.000Z</time>
      </trkpt>
      <trkpt lat="45.24175" lon="5.74316">
        <ele>1020</ele>
        <time>2021-07-17T05:46:58.000Z</time>
      </trkpt>
      <trkpt lat="45.24173" lon="5.74316">
        <ele>1020.5999755859</ele>
        <time>2021-07-17T05:47:00.000Z</time>
      </trkpt>
      <trkpt lat="45.24174" lon="5.74316">
        <ele>1020.799987793</ele>
        <time>2021-07-17T05:47:01.000Z</time>
      </trkpt>
      <trkpt lat="45.24173" lon="5.74316">
        <ele>1021</ele>
        <time>2021-07-17T05:47:02.000Z</time>
      </trkpt>
      <trkpt lat="45.24173" lon="5.74317">
        <ele>1022</ele>
        <time>2021-07-17T05:47:04.000Z</time>
      </trkpt>
      <trkpt lat="45.24173" lon="5.74317">
        <ele>1022.200012207</ele>
        <time>2021-07-17T05:47:05.000Z</time>
      </trkpt>
      <trkpt lat="45.24171" lon="5.74318">
        <ele>1023</ele>
        <time>2021-07-17T05:47:09.000Z</time>
      </trkpt>
      <trkpt lat="45.2417" lon="5.74319">
        <ele>1023</ele>
        <time>2021-07-17T05:47:10.000Z</time>
      </trkpt>
      <trkpt lat="45.2417" lon="5.74317">
        <ele>1023</ele>
        <time>2021-07-17T05:47:12.000Z</time>
      </trkpt>
      <trkpt lat="45.24169" lon="5.74316">
        <ele>1023.4000244141</ele>
        <time>2021-07-17T05:47:13.000Z</time>
      </trkpt>
      <trkpt lat="45.24168" lon="5.74317">
        <ele>1023.5999755859</ele>
        <time>2021-07-17T05:47:14.000Z</time>
      </trkpt>
      <trkpt lat="45.24166" lon="5.74317">
        <ele>1025</ele>
        <time>2021-07-17T05:47:19.000Z</time>
      </trkpt>
      <trkpt lat="45.24165" lon="5.74318">
        <ele>1025.1999511719</ele>
        <time>2021-07-17T05:47:20.000Z</time>
      </trkpt>
      <trkpt lat="45.24165" lon="5.74319">
        <ele>1025.8000488281</ele>
        <time>2021-07-17T05:47:23.000Z</time>
      </trkpt>
      <trkpt lat="45.24164" lon="5.74319">
        <ele>1026</ele>
        <time>2021-07-17T05:47:24.000Z</time>
      </trkpt>
      <trkpt lat="45.24164" lon="5.74319">
        <ele>1027.1999511719</ele>
        <time>2021-07-17T05:47:25.000Z</time>
      </trkpt>
      <trkpt lat="45.24163" lon="5.7432">
        <ele>1027.1999511719</ele>
        <time>2021-07-17T05:47:27.000Z</time>
      </trkpt>
      <trkpt lat="45.24162" lon="5.74321">
        <ele>1027.5999755859</ele>
        <time>2021-07-17T05:47:29.000Z</time>
      </trkpt>
      <trkpt lat="45.24159" lon="5.74321">
        <ele>1028.1999511719</ele>
        <time>2021-07-17T05:47:34.000Z</time>
      </trkpt>
      <trkpt lat="45.24159" lon="5.74321">
        <ele>1028.4000244141</ele>
        <time>2021-07-17T05:47:35.000Z</time>
      </trkpt>
      <trkpt lat="45.24159" lon="5.7432">
        <ele>1029</ele>
        <time>2021-07-17T05:47:40.000Z</time>
      </trkpt>
      <trkpt lat="45.24158" lon="5.7432">
        <ele>1029.4000244141</ele>
        <time>2021-07-17T05:47:42.000Z</time>
      </trkpt>
      <trkpt lat="45.24156" lon="5.74323">
        <ele>1030.1999511719</ele>
        <time>2021-07-17T05:47:45.000Z</time>
      </trkpt>
      <trkpt lat="45.24155" lon="5.74324">
        <ele>1030.4000244141</ele>
        <time>2021-07-17T05:47:46.000Z</time>
      </trkpt>
      <trkpt lat="45.24153" lon="5.74325">
        <ele>1031.1999511719</ele>
        <time>2021-07-17T05:47:50.000Z</time>
      </trkpt>
      <trkpt lat="45.24153" lon="5.74325">
        <ele>1031.4000244141</ele>
        <time>2021-07-17T05:47:57.000Z</time>
      </trkpt>
      <trkpt lat="45.24152" lon="5.74325">
        <ele>1031.4000244141</ele>
        <time>2021-07-17T05:48:05.000Z</time>
      </trkpt>
      <trkpt lat="45.24143" lon="5.74328">
        <ele>1030.8000488281</ele>
        <time>2021-07-17T05:48:13.000Z</time>
      </trkpt>
      <trkpt lat="45.24134" lon="5.7433">
        <ele>1031</ele>
        <time>2021-07-17T05:48:19.000Z</time>
      </trkpt>
      <trkpt lat="45.24129" lon="5.74332">
        <ele>1031</ele>
        <time>2021-07-17T05:48:24.000Z</time>
      </trkpt>
      <trkpt lat="45.24126" lon="5.74334">
        <ele>1030.8000488281</ele>
        <time>2021-07-17T05:48:26.000Z</time>
      </trkpt>
      <trkpt lat="45.24121" lon="5.74337">
        <ele>1030.8000488281</ele>
        <time>2021-07-17T05:48:29.000Z</time>
      </trkpt>
      <trkpt lat="45.24114" lon="5.74342">
        <ele>1031.1999511719</ele>
        <time>2021-07-17T05:48:33.000Z</time>
      </trkpt>
      <trkpt lat="45.2411" lon="5.74344">
        <ele>1031.8000488281</ele>
        <time>2021-07-17T05:48:35.000Z</time>
      </trkpt>
      <trkpt lat="45.24099" lon="5.74347">
        <ele>1032</ele>
        <time>2021-07-17T05:48:39.000Z</time>
      </trkpt>
      <trkpt lat="45.24097" lon="5.74348">
        <ele>1032</ele>
        <time>2021-07-17T05:48:40.000Z</time>
      </trkpt>
      <trkpt lat="45.24096" lon="5.74349">
        <ele>1032</ele>
        <time>2021-07-17T05:48:41.000Z</time>
      </trkpt>
      <trkpt lat="45.24096" lon="5.74352">
        <ele>1031.4000244141</ele>
        <time>2021-07-17T05:48:43.000Z</time>
      </trkpt>
      <trkpt lat="45.24096" lon="5.74355">
        <ele>1031.4000244141</ele>
        <time>2021-07-17T05:48:45.000Z</time>
      </trkpt>
      <trkpt lat="45.24096" lon="5.74359">
        <ele>1031.4000244141</ele>
        <time>2021-07-17T05:48:48.000Z</time>
      </trkpt>
      <trkpt lat="45.24096" lon="5.74365">
        <ele>1032.1999511719</ele>
        <time>2021-07-17T05:48:51.000Z</time>
      </trkpt>
      <trkpt lat="45.24095" lon="5.74368">
        <ele>1032.5999755859</ele>
        <time>2021-07-17T05:48:52.000Z</time>
      </trkpt>
      <trkpt lat="45.24095" lon="5.7437">
        <ele>1032.5999755859</ele>
        <time>2021-07-17T05:48:53.000Z</time>
      </trkpt>
      <trkpt lat="45.24094" lon="5.74372">
        <ele>1032.8000488281</ele>
        <time>2021-07-17T05:48:54.000Z</time>
      </trkpt>
      <trkpt lat="45.24091" lon="5.74374">
        <ele>1033.4000244141</ele>
        <time>2021-07-17T05:48:55.000Z</time>
      </trkpt>
      <trkpt lat="45.24084" lon="5.74379">
        <ele>1033.5999755859</ele>
        <time>2021-07-17T05:48:58.000Z</time>
      </trkpt>
      <trkpt lat="45.24083" lon="5.74382">
        <ele>1034.1999511719</ele>
        <time>2021-07-17T05:48:59.000Z</time>
      </trkpt>
      <trkpt lat="45.24078" lon="5.74386">
        <ele>1034.5999755859</ele>
        <time>2021-07-17T05:49:02.000Z</time>
      </trkpt>
      <trkpt lat="45.24075" lon="5.74391">
        <ele>1034.8000488281</ele>
        <time>2021-07-17T05:49:05.000Z</time>
      </trkpt>
      <trkpt lat="45.24074" lon="5.74392">
        <ele>1035</ele>
        <time>2021-07-17T05:49:06.000Z</time>
      </trkpt>
      <trkpt lat="45.24073" lon="5.74394">
        <ele>1035.1999511719</ele>
        <time>2021-07-17T05:49:07.000Z</time>
      </trkpt>
      <trkpt lat="45.24068" lon="5.744">
        <ele>1036</ele>
        <time>2021-07-17T05:49:10.000Z</time>
      </trkpt>
      <trkpt lat="45.24068" lon="5.74403">
        <ele>1036</ele>
        <time>2021-07-17T05:49:11.000Z</time>
      </trkpt>
      <trkpt lat="45.2407" lon="5.7441">
        <ele>1036.5999755859</ele>
        <time>2021-07-17T05:49:14.000Z</time>
      </trkpt>
      <trkpt lat="45.24069" lon="5.74412">
        <ele>1036.8000488281</ele>
        <time>2021-07-17T05:49:16.000Z</time>
      </trkpt>
      <trkpt lat="45.24068" lon="5.74414">
        <ele>1037</ele>
        <time>2021-07-17T05:49:18.000Z</time>
      </trkpt>
      <trkpt lat="45.24068" lon="5.74416">
        <ele>1037.4000244141</ele>
        <time>2021-07-17T05:49:19.000Z</time>
      </trkpt>
      <trkpt lat="45.24066" lon="5.74418">
        <ele>1037.5999755859</ele>
        <time>2021-07-17T05:49:21.000Z</time>
      </trkpt>
      <trkpt lat="45.24066" lon="5.74419">
        <ele>1038</ele>
        <time>2021-07-17T05:49:22.000Z</time>
      </trkpt>
      <trkpt lat="45.24066" lon="5.7442">
        <ele>1038.4000244141</ele>
        <time>2021-07-17T05:49:23.000Z</time>
      </trkpt>
      <trkpt lat="45.24069" lon="5.74419">
        <ele>1038.5999755859</ele>
        <time>2021-07-17T05:49:26.000Z</time>
      </trkpt>
      <trkpt lat="45.24069" lon="5.74418">
        <ele>1038.8000488281</ele>
        <time>2021-07-17T05:49:27.000Z</time>
      </trkpt>
      <trkpt lat="45.24071" lon="5.74416">
        <ele>1039.1999511719</ele>
        <time>2021-07-17T05:49:29.000Z</time>
      </trkpt>
      <trkpt lat="45.24072" lon="5.74416">
        <ele>1039.1999511719</ele>
        <time>2021-07-17T05:49:30.000Z</time>
      </trkpt>
      <trkpt lat="45.24071" lon="5.74415">
        <ele>1039.1999511719</ele>
        <time>2021-07-17T05:49:33.000Z</time>
      </trkpt>
      <trkpt lat="45.24071" lon="5.74415">
        <ele>1039.8000488281</ele>
        <time>2021-07-17T05:49:35.000Z</time>
      </trkpt>
      <trkpt lat="45.24073" lon="5.74417">
        <ele>1040.5999755859</ele>
        <time>2021-07-17T05:49:37.000Z</time>
      </trkpt>
      <trkpt lat="45.24075" lon="5.74416">
        <ele>1041</ele>
        <time>2021-07-17T05:49:38.000Z</time>
      </trkpt>
      <trkpt lat="45.24075" lon="5.74415">
        <ele>1041</ele>
        <time>2021-07-17T05:49:40.000Z</time>
      </trkpt>
      <trkpt lat="45.24076" lon="5.74412">
        <ele>1041.1999511719</ele>
        <time>2021-07-17T05:49:42.000Z</time>
      </trkpt>
      <trkpt lat="45.24076" lon="5.74412">
        <ele>1041.4000244141</ele>
        <time>2021-07-17T05:49:43.000Z</time>
      </trkpt>
      <trkpt lat="45.24077" lon="5.74411">
        <ele>1042.1999511719</ele>
        <time>2021-07-17T05:49:44.000Z</time>
      </trkpt>
      <trkpt lat="45.24079" lon="5.7441">
        <ele>1042.4000244141</ele>
        <time>2021-07-17T05:49:46.000Z</time>
      </trkpt>
      <trkpt lat="45.24081" lon="5.74408">
        <ele>1043.4000244141</ele>
        <time>2021-07-17T05:49:48.000Z</time>
      </trkpt>
      <trkpt lat="45.24082" lon="5.74406">
        <ele>1044</ele>
        <time>2021-07-17T05:49:50.000Z</time>
      </trkpt>
      <trkpt lat="45.24085" lon="5.74402">
        <ele>1044.8000488281</ele>
        <time>2021-07-17T05:49:52.000Z</time>
      </trkpt>
      <trkpt lat="45.2409" lon="5.74396">
        <ele>1045</ele>
        <time>2021-07-17T05:49:56.000Z</time>
      </trkpt>
      <trkpt lat="45.2409" lon="5.74395">
        <ele>1045.8000488281</ele>
        <time>2021-07-17T05:49:57.000Z</time>
      </trkpt>
      <trkpt lat="45.24091" lon="5.74394">
        <ele>1046.5999755859</ele>
        <time>2021-07-17T05:50:00.000Z</time>
      </trkpt>
      <trkpt lat="45.24092" lon="5.74393">
        <ele>1046.8000488281</ele>
        <time>2021-07-17T05:50:01.000Z</time>
      </trkpt>
      <trkpt lat="45.24092" lon="5.74392">
        <ele>1047</ele>
        <time>2021-07-17T05:50:02.000Z</time>
      </trkpt>
      <trkpt lat="45.24092" lon="5.74391">
        <ele>1047.8000488281</ele>
        <time>2021-07-17T05:50:03.000Z</time>
      </trkpt>
      <trkpt lat="45.24092" lon="5.7439">
        <ele>1048</ele>
        <time>2021-07-17T05:50:04.000Z</time>
      </trkpt>
      <trkpt lat="45.24093" lon="5.74389">
        <ele>1048.1999511719</ele>
        <time>2021-07-17T05:50:06.000Z</time>
      </trkpt>
      <trkpt lat="45.24094" lon="5.74387">
        <ele>1049.1999511719</ele>
        <time>2021-07-17T05:50:08.000Z</time>
      </trkpt>
      <trkpt lat="45.24096" lon="5.74385">
        <ele>1049.1999511719</ele>
        <time>2021-07-17T05:50:10.000Z</time>
      </trkpt>
      <trkpt lat="45.24101" lon="5.74378">
        <ele>1050.4000244141</ele>
        <time>2021-07-17T05:50:15.000Z</time>
      </trkpt>
      <trkpt lat="45.24103" lon="5.74376">
        <ele>1050.8000488281</ele>
        <time>2021-07-17T05:50:17.000Z</time>
      </trkpt>
      <trkpt lat="45.24106" lon="5.74374">
        <ele>1051.4000244141</ele>
        <time>2021-07-17T05:50:19.000Z</time>
      </trkpt>
      <trkpt lat="45.24115" lon="5.74373">
        <ele>1052.4000244141</ele>
        <time>2021-07-17T05:50:23.000Z</time>
      </trkpt>
      <trkpt lat="45.24117" lon="5.74373">
        <ele>1052.1999511719</ele>
        <time>2021-07-17T05:50:24.000Z</time>
      </trkpt>
      <trkpt lat="45.2412" lon="5.74374">
        <ele>1052.5999755859</ele>
        <time>2021-07-17T05:50:25.000Z</time>
      </trkpt>
      <trkpt lat="45.24127" lon="5.74373">
        <ele>1053.4000244141</ele>
        <time>2021-07-17T05:50:31.000Z</time>
      </trkpt>
      <trkpt lat="45.24129" lon="5.74372">
        <ele>1054</ele>
        <time>2021-07-17T05:50:32.000Z</time>
      </trkpt>
      <trkpt lat="45.24135" lon="5.74371">
        <ele>1055.1999511719</ele>
        <time>2021-07-17T05:50:37.000Z</time>
      </trkpt>
      <trkpt lat="45.2414" lon="5.74371">
        <ele>1055.4000244141</ele>
        <time>2021-07-17T05:50:39.000Z</time>
      </trkpt>
      <trkpt lat="45.24148" lon="5.74378">
        <ele>1055.1999511719</ele>
        <time>2021-07-17T05:50:44.000Z</time>
      </trkpt>
      <trkpt lat="45.2415" lon="5.74381">
        <ele>1055.1999511719</ele>
        <time>2021-07-17T05:50:46.000Z</time>
      </trkpt>
      <trkpt lat="45.2415" lon="5.74386">
        <ele>1055.4000244141</ele>
        <time>2021-07-17T05:50:48.000Z</time>
      </trkpt>
      <trkpt lat="45.24149" lon="5.74387">
        <ele>1055.5999755859</ele>
        <time>2021-07-17T05:50:49.000Z</time>
      </trkpt>
      <trkpt lat="45.24148" lon="5.74393">
        <ele>1055.5999755859</ele>
        <time>2021-07-17T05:50:52.000Z</time>
      </trkpt>
      <trkpt lat="45.24148" lon="5.74394">
        <ele>1056.1999511719</ele>
        <time>2021-07-17T05:50:53.000Z</time>
      </trkpt>
      <trkpt lat="45.24147" lon="5.74395">
        <ele>1056.5999755859</ele>
        <time>2021-07-17T05:50:54.000Z</time>
      </trkpt>
      <trkpt lat="45.24146" lon="5.74396">
        <ele>1056.5999755859</ele>
        <time>2021-07-17T05:50:55.000Z</time>
      </trkpt>
      <trkpt lat="45.24144" lon="5.744">
        <ele>1057.1999511719</ele>
        <time>2021-07-17T05:51:00.000Z</time>
      </trkpt>
      <trkpt lat="45.24142" lon="5.74401">
        <ele>1057.4000244141</ele>
        <time>2021-07-17T05:51:02.000Z</time>
      </trkpt>
      <trkpt lat="45.2414" lon="5.74401">
        <ele>1058.1999511719</ele>
        <time>2021-07-17T05:51:06.000Z</time>
      </trkpt>
      <trkpt lat="45.2414" lon="5.74401">
        <ele>1058.1999511719</ele>
        <time>2021-07-17T05:51:07.000Z</time>
      </trkpt>
      <trkpt lat="45.24138" lon="5.744">
        <ele>1058.5999755859</ele>
        <time>2021-07-17T05:51:10.000Z</time>
      </trkpt>
      <trkpt lat="45.24137" lon="5.74399">
        <ele>1059.4000244141</ele>
        <time>2021-07-17T05:51:11.000Z</time>
      </trkpt>
      <trkpt lat="45.24134" lon="5.74399">
        <ele>1059.8000488281</ele>
        <time>2021-07-17T05:51:15.000Z</time>
      </trkpt>
      <trkpt lat="45.24134" lon="5.744">
        <ele>1059.8000488281</ele>
        <time>2021-07-17T05:51:17.000Z</time>
      </trkpt>
      <trkpt lat="45.24133" lon="5.74401">
        <ele>1059.5999755859</ele>
        <time>2021-07-17T05:51:22.000Z</time>
      </trkpt>
      <trkpt lat="45.24133" lon="5.74403">
        <ele>1059.5999755859</ele>
        <time>2021-07-17T05:51:24.000Z</time>
      </trkpt>
      <trkpt lat="45.2413" lon="5.74405">
        <ele>1058.8000488281</ele>
        <time>2021-07-17T05:51:30.000Z</time>
      </trkpt>
      <trkpt lat="45.24126" lon="5.74402">
        <ele>1057.8000488281</ele>
        <time>2021-07-17T05:51:35.000Z</time>
      </trkpt>
      <trkpt lat="45.24126" lon="5.74401">
        <ele>1057.1999511719</ele>
        <time>2021-07-17T05:51:40.000Z</time>
      </trkpt>
      <trkpt lat="45.24126" lon="5.74401">
        <ele>1056.8000488281</ele>
        <time>2021-07-17T05:51:41.000Z</time>
      </trkpt>
      <trkpt lat="45.24123" lon="5.744">
        <ele>1055</ele>
        <time>2021-07-17T05:51:45.000Z</time>
      </trkpt>
      <trkpt lat="45.24123" lon="5.744">
        <ele>1055</ele>
        <time>2021-07-17T05:51:46.000Z</time>
      </trkpt>
      <trkpt lat="45.24123" lon="5.74398">
        <ele>1054.5999755859</ele>
        <time>2021-07-17T05:51:48.000Z</time>
      </trkpt>
      <trkpt lat="45.24122" lon="5.74396">
        <ele>1053.4000244141</ele>
        <time>2021-07-17T05:51:50.000Z</time>
      </trkpt>
      <trkpt lat="45.24123" lon="5.74392">
        <ele>1053</ele>
        <time>2021-07-17T05:51:53.000Z</time>
      </trkpt>
      <trkpt lat="45.24124" lon="5.7439">
        <ele>1052.5999755859</ele>
        <time>2021-07-17T05:51:54.000Z</time>
      </trkpt>
      <trkpt lat="45.24125" lon="5.74383">
        <ele>1052.1999511719</ele>
        <time>2021-07-17T05:51:57.000Z</time>
      </trkpt>
      <trkpt lat="45.24124" lon="5.74383">
        <ele>1052.1999511719</ele>
        <time>2021-07-17T05:51:58.000Z</time>
      </trkpt>
      <trkpt lat="45.24124" lon="5.74384">
        <ele>1052.1999511719</ele>
        <time>2021-07-17T05:51:59.000Z</time>
      </trkpt>
      <trkpt lat="45.24125" lon="5.74386">
        <ele>1051.5999755859</ele>
        <time>2021-07-17T05:52:02.000Z</time>
      </trkpt>
      <trkpt lat="45.24124" lon="5.74387">
        <ele>1051.1999511719</ele>
        <time>2021-07-17T05:52:03.000Z</time>
      </trkpt>
      <trkpt lat="45.24122" lon="5.74388">
        <ele>1050.1999511719</ele>
        <time>2021-07-17T05:52:06.000Z</time>
      </trkpt>
      <trkpt lat="45.24122" lon="5.74388">
        <ele>1050.1999511719</ele>
        <time>2021-07-17T05:52:07.000Z</time>
      </trkpt>
      <trkpt lat="45.24121" lon="5.74389">
        <ele>1049.4000244141</ele>
        <time>2021-07-17T05:52:08.000Z</time>
      </trkpt>
      <trkpt lat="45.2412" lon="5.7439">
        <ele>1049.1999511719</ele>
        <time>2021-07-17T05:52:09.000Z</time>
      </trkpt>
      <trkpt lat="45.2412" lon="5.74393">
        <ele>1048.4000244141</ele>
        <time>2021-07-17T05:52:11.000Z</time>
      </trkpt>
      <trkpt lat="45.24117" lon="5.74395">
        <ele>1048</ele>
        <time>2021-07-17T05:52:13.000Z</time>
      </trkpt>
      <trkpt lat="45.24112" lon="5.74396">
        <ele>1047</ele>
        <time>2021-07-17T05:52:16.000Z</time>
      </trkpt>
      <trkpt lat="45.24109" lon="5.74401">
        <ele>1046.1999511719</ele>
        <time>2021-07-17T05:52:19.000Z</time>
      </trkpt>
      <trkpt lat="45.24108" lon="5.74402">
        <ele>1046</ele>
        <time>2021-07-17T05:52:20.000Z</time>
      </trkpt>
      <trkpt lat="45.24107" lon="5.74405">
        <ele>1045.1999511719</ele>
        <time>2021-07-17T05:52:23.000Z</time>
      </trkpt>
      <trkpt lat="45.24107" lon="5.74406">
        <ele>1045</ele>
        <time>2021-07-17T05:52:24.000Z</time>
      </trkpt>
      <trkpt lat="45.24106" lon="5.74409">
        <ele>1044.4000244141</ele>
        <time>2021-07-17T05:52:26.000Z</time>
      </trkpt>
      <trkpt lat="45.24105" lon="5.7441">
        <ele>1044.1999511719</ele>
        <time>2021-07-17T05:52:27.000Z</time>
      </trkpt>
      <trkpt lat="45.24104" lon="5.74412">
        <ele>1044.1999511719</ele>
        <time>2021-07-17T05:52:28.000Z</time>
      </trkpt>
      <trkpt lat="45.24103" lon="5.74414">
        <ele>1044.1999511719</ele>
        <time>2021-07-17T05:52:29.000Z</time>
      </trkpt>
      <trkpt lat="45.241" lon="5.74419">
        <ele>1043.4000244141</ele>
        <time>2021-07-17T05:52:32.000Z</time>
      </trkpt>
      <trkpt lat="45.24099" lon="5.74421">
        <ele>1043</ele>
        <time>2021-07-17T05:52:33.000Z</time>
      </trkpt>
      <trkpt lat="45.24096" lon="5.74427">
        <ele>1042</ele>
        <time>2021-07-17T05:52:36.000Z</time>
      </trkpt>
      <trkpt lat="45.24095" lon="5.74429">
        <ele>1042</ele>
        <time>2021-07-17T05:52:37.000Z</time>
      </trkpt>
      <trkpt lat="45.24094" lon="5.74432">
        <ele>1041.1999511719</ele>
        <time>2021-07-17T05:52:38.000Z</time>
      </trkpt>
      <trkpt lat="45.24093" lon="5.74436">
        <ele>1040.8000488281</ele>
        <time>2021-07-17T05:52:40.000Z</time>
      </trkpt>
      <trkpt lat="45.2409" lon="5.74441">
        <ele>1039.5999755859</ele>
        <time>2021-07-17T05:52:43.000Z</time>
      </trkpt>
      <trkpt lat="45.24088" lon="5.74442">
        <ele>1039.5999755859</ele>
        <time>2021-07-17T05:52:44.000Z</time>
      </trkpt>
      <trkpt lat="45.24083" lon="5.74446">
        <ele>1039</ele>
        <time>2021-07-17T05:52:47.000Z</time>
      </trkpt>
      <trkpt lat="45.24081" lon="5.74445">
        <ele>1039</ele>
        <time>2021-07-17T05:52:48.000Z</time>
      </trkpt>
      <trkpt lat="45.24077" lon="5.74442">
        <ele>1039</ele>
        <time>2021-07-17T05:52:50.000Z</time>
      </trkpt>
      <trkpt lat="45.24076" lon="5.74441">
        <ele>1038.5999755859</ele>
        <time>2021-07-17T05:52:51.000Z</time>
      </trkpt>
      <trkpt lat="45.24074" lon="5.74439">
        <ele>1038.4000244141</ele>
        <time>2021-07-17T05:52:52.000Z</time>
      </trkpt>
      <trkpt lat="45.24072" lon="5.74432">
        <ele>1037.4000244141</ele>
        <time>2021-07-17T05:52:55.000Z</time>
      </trkpt>
      <trkpt lat="45.24072" lon="5.74429">
        <ele>1037.1999511719</ele>
        <time>2021-07-17T05:52:56.000Z</time>
      </trkpt>
      <trkpt lat="45.24071" lon="5.74421">
        <ele>1036.5999755859</ele>
        <time>2021-07-17T05:52:59.000Z</time>
      </trkpt>
      <trkpt lat="45.2407" lon="5.7442">
        <ele>1036.5999755859</ele>
        <time>2021-07-17T05:53:00.000Z</time>
      </trkpt>
      <trkpt lat="45.2407" lon="5.74417">
        <ele>1036</ele>
        <time>2021-07-17T05:53:01.000Z</time>
      </trkpt>
      <trkpt lat="45.24071" lon="5.74412">
        <ele>1035.8000488281</ele>
        <time>2021-07-17T05:53:03.000Z</time>
      </trkpt>
      <trkpt lat="45.24072" lon="5.74406">
        <ele>1034.8000488281</ele>
        <time>2021-07-17T05:53:05.000Z</time>
      </trkpt>
      <trkpt lat="45.24073" lon="5.74404">
        <ele>1034.8000488281</ele>
        <time>2021-07-17T05:53:06.000Z</time>
      </trkpt>
      <trkpt lat="45.24072" lon="5.74401">
        <ele>1034</ele>
        <time>2021-07-17T05:53:08.000Z</time>
      </trkpt>
      <trkpt lat="45.2407" lon="5.74397">
        <ele>1033.5999755859</ele>
        <time>2021-07-17T05:53:10.000Z</time>
      </trkpt>
      <trkpt lat="45.2407" lon="5.74395">
        <ele>1033.5999755859</ele>
        <time>2021-07-17T05:53:11.000Z</time>
      </trkpt>
      <trkpt lat="45.24068" lon="5.74386">
        <ele>1032.5999755859</ele>
        <time>2021-07-17T05:53:15.000Z</time>
      </trkpt>
      <trkpt lat="45.24067" lon="5.74384">
        <ele>1032</ele>
        <time>2021-07-17T05:53:16.000Z</time>
      </trkpt>
      <trkpt lat="45.24065" lon="5.7438">
        <ele>1031.8000488281</ele>
        <time>2021-07-17T05:53:18.000Z</time>
      </trkpt>
      <trkpt lat="45.24062" lon="5.74377">
        <ele>1031.4000244141</ele>
        <time>2021-07-17T05:53:20.000Z</time>
      </trkpt>
      <trkpt lat="45.2406" lon="5.74378">
        <ele>1030.8000488281</ele>
        <time>2021-07-17T05:53:22.000Z</time>
      </trkpt>
      <trkpt lat="45.24059" lon="5.74382">
        <ele>1030.5999755859</ele>
        <time>2021-07-17T05:53:24.000Z</time>
      </trkpt>
      <trkpt lat="45.24059" lon="5.74387">
        <ele>1029.8000488281</ele>
        <time>2021-07-17T05:53:26.000Z</time>
      </trkpt>
      <trkpt lat="45.24058" lon="5.74389">
        <ele>1029.1999511719</ele>
        <time>2021-07-17T05:53:27.000Z</time>
      </trkpt>
      <trkpt lat="45.24058" lon="5.74391">
        <ele>1029.1999511719</ele>
        <time>2021-07-17T05:53:28.000Z</time>
      </trkpt>
      <trkpt lat="45.24055" lon="5.74395">
        <ele>1029</ele>
        <time>2021-07-17T05:53:30.000Z</time>
      </trkpt>
      <trkpt lat="45.24054" lon="5.74397">
        <ele>1028.5999755859</ele>
        <time>2021-07-17T05:53:31.000Z</time>
      </trkpt>
      <trkpt lat="45.24045" lon="5.74414">
        <ele>1028.1999511719</ele>
        <time>2021-07-17T05:53:38.000Z</time>
      </trkpt>
      <trkpt lat="45.24043" lon="5.74421">
        <ele>1027.1999511719</ele>
        <time>2021-07-17T05:53:41.000Z</time>
      </trkpt>
      <trkpt lat="45.2404" lon="5.74424">
        <ele>1027</ele>
        <time>2021-07-17T05:53:43.000Z</time>
      </trkpt>
      <trkpt lat="45.24038" lon="5.74426">
        <ele>1026.8000488281</ele>
        <time>2021-07-17T05:53:44.000Z</time>
      </trkpt>
      <trkpt lat="45.24025" lon="5.74433">
        <ele>1026.4000244141</ele>
        <time>2021-07-17T05:53:50.000Z</time>
      </trkpt>
      <trkpt lat="45.24019" lon="5.74436">
        <ele>1026</ele>
        <time>2021-07-17T05:53:52.000Z</time>
      </trkpt>
      <trkpt lat="45.24018" lon="5.74437">
        <ele>1025.5999755859</ele>
        <time>2021-07-17T05:53:53.000Z</time>
      </trkpt>
      <trkpt lat="45.24013" lon="5.74439">
        <ele>1025.1999511719</ele>
        <time>2021-07-17T05:53:55.000Z</time>
      </trkpt>
      <trkpt lat="45.24011" lon="5.7444">
        <ele>1025</ele>
        <time>2021-07-17T05:53:56.000Z</time>
      </trkpt>
      <trkpt lat="45.24006" lon="5.74444">
        <ele>1024.8000488281</ele>
        <time>2021-07-17T05:53:59.000Z</time>
      </trkpt>
      <trkpt lat="45.24004" lon="5.74446">
        <ele>1024.5999755859</ele>
        <time>2021-07-17T05:54:00.000Z</time>
      </trkpt>
      <trkpt lat="45.24002" lon="5.74448">
        <ele>1024.5999755859</ele>
        <time>2021-07-17T05:54:01.000Z</time>
      </trkpt>
      <trkpt lat="45.23999" lon="5.74455">
        <ele>1024</ele>
        <time>2021-07-17T05:54:04.000Z</time>
      </trkpt>
      <trkpt lat="45.23993" lon="5.74462">
        <ele>1023.799987793</ele>
        <time>2021-07-17T05:54:07.000Z</time>
      </trkpt>
      <trkpt lat="45.23987" lon="5.74468">
        <ele>1023.5999755859</ele>
        <time>2021-07-17T05:54:10.000Z</time>
      </trkpt>
      <trkpt lat="45.23985" lon="5.7447">
        <ele>1022.5999755859</ele>
        <time>2021-07-17T05:54:12.000Z</time>
      </trkpt>
      <trkpt lat="45.23983" lon="5.74473">
        <ele>1022.200012207</ele>
        <time>2021-07-17T05:54:14.000Z</time>
      </trkpt>
      <trkpt lat="45.23978" lon="5.74478">
        <ele>1021.799987793</ele>
        <time>2021-07-17T05:54:17.000Z</time>
      </trkpt>
      <trkpt lat="45.23977" lon="5.7448">
        <ele>1021.799987793</ele>
        <time>2021-07-17T05:54:18.000Z</time>
      </trkpt>
      <trkpt lat="45.23976" lon="5.74485">
        <ele>1021.200012207</ele>
        <time>2021-07-17T05:54:20.000Z</time>
      </trkpt>
      <trkpt lat="45.23973" lon="5.74488">
        <ele>1020.799987793</ele>
        <time>2021-07-17T05:54:22.000Z</time>
      </trkpt>
      <trkpt lat="45.23972" lon="5.74492">
        <ele>1020.4000244141</ele>
        <time>2021-07-17T05:54:24.000Z</time>
      </trkpt>
      <trkpt lat="45.23971" lon="5.74495">
        <ele>1020</ele>
        <time>2021-07-17T05:54:25.000Z</time>
      </trkpt>
      <trkpt lat="45.2397" lon="5.74503">
        <ele>1019.5999755859</ele>
        <time>2021-07-17T05:54:28.000Z</time>
      </trkpt>
      <trkpt lat="45.23967" lon="5.74509">
        <ele>1019</ele>
        <time>2021-07-17T05:54:30.000Z</time>
      </trkpt>
      <trkpt lat="45.23965" lon="5.74512">
        <ele>1018.5999755859</ele>
        <time>2021-07-17T05:54:31.000Z</time>
      </trkpt>
      <trkpt lat="45.23962" lon="5.74518">
        <ele>1018</ele>
        <time>2021-07-17T05:54:33.000Z</time>
      </trkpt>
      <trkpt lat="45.23962" lon="5.7452">
        <ele>1017.5999755859</ele>
        <time>2021-07-17T05:54:34.000Z</time>
      </trkpt>
      <trkpt lat="45.23961" lon="5.74522">
        <ele>1017.5999755859</ele>
        <time>2021-07-17T05:54:35.000Z</time>
      </trkpt>
      <trkpt lat="45.23961" lon="5.74525">
        <ele>1017.5999755859</ele>
        <time>2021-07-17T05:54:36.000Z</time>
      </trkpt>
      <trkpt lat="45.23962" lon="5.74529">
        <ele>1017.200012207</ele>
        <time>2021-07-17T05:54:38.000Z</time>
      </trkpt>
      <trkpt lat="45.23961" lon="5.7453">
        <ele>1017.200012207</ele>
        <time>2021-07-17T05:54:39.000Z</time>
      </trkpt>
      <trkpt lat="45.23961" lon="5.74531">
        <ele>1016.5999755859</ele>
        <time>2021-07-17T05:54:40.000Z</time>
      </trkpt>
      <trkpt lat="45.23956" lon="5.74532">
        <ele>1016</ele>
        <time>2021-07-17T05:54:42.000Z</time>
      </trkpt>
      <trkpt lat="45.23955" lon="5.74534">
        <ele>1015.5999755859</ele>
        <time>2021-07-17T05:54:44.000Z</time>
      </trkpt>
      <trkpt lat="45.23956" lon="5.74539">
        <ele>1015</ele>
        <time>2021-07-17T05:54:46.000Z</time>
      </trkpt>
      <trkpt lat="45.23956" lon="5.74546">
        <ele>1014.5999755859</ele>
        <time>2021-07-17T05:54:49.000Z</time>
      </trkpt>
      <trkpt lat="45.23956" lon="5.74547">
        <ele>1014.4000244141</ele>
        <time>2021-07-17T05:54:50.000Z</time>
      </trkpt>
      <trkpt lat="45.2396" lon="5.74558">
        <ele>1014</ele>
        <time>2021-07-17T05:54:53.000Z</time>
      </trkpt>
      <trkpt lat="45.2396" lon="5.74561">
        <ele>1013.799987793</ele>
        <time>2021-07-17T05:54:54.000Z</time>
      </trkpt>
      <trkpt lat="45.23962" lon="5.74566">
        <ele>1013.200012207</ele>
        <time>2021-07-17T05:54:57.000Z</time>
      </trkpt>
      <trkpt lat="45.23963" lon="5.74572">
        <ele>1013</ele>
        <time>2021-07-17T05:54:59.000Z</time>
      </trkpt>
      <trkpt lat="45.23964" lon="5.74579">
        <ele>1013</ele>
        <time>2021-07-17T05:55:01.000Z</time>
      </trkpt>
      <trkpt lat="45.23962" lon="5.74585">
        <ele>1012</ele>
        <time>2021-07-17T05:55:03.000Z</time>
      </trkpt>
      <trkpt lat="45.23958" lon="5.74591">
        <ele>1011.799987793</ele>
        <time>2021-07-17T05:55:05.000Z</time>
      </trkpt>
      <trkpt lat="45.23957" lon="5.74593">
        <ele>1011.5999755859</ele>
        <time>2021-07-17T05:55:06.000Z</time>
      </trkpt>
      <trkpt lat="45.23953" lon="5.746">
        <ele>1011</ele>
        <time>2021-07-17T05:55:10.000Z</time>
      </trkpt>
      <trkpt lat="45.23951" lon="5.74602">
        <ele>1010.799987793</ele>
        <time>2021-07-17T05:55:11.000Z</time>
      </trkpt>
      <trkpt lat="45.23949" lon="5.74603">
        <ele>1010.5999755859</ele>
        <time>2021-07-17T05:55:12.000Z</time>
      </trkpt>
      <trkpt lat="45.23948" lon="5.74603">
        <ele>1010.4000244141</ele>
        <time>2021-07-17T05:55:13.000Z</time>
      </trkpt>
      <trkpt lat="45.23944" lon="5.74603">
        <ele>1009.799987793</ele>
        <time>2021-07-17T05:55:15.000Z</time>
      </trkpt>
      <trkpt lat="45.23943" lon="5.74603">
        <ele>1009.4000244141</ele>
        <time>2021-07-17T05:55:16.000Z</time>
      </trkpt>
      <trkpt lat="45.23938" lon="5.746">
        <ele>1009</ele>
        <time>2021-07-17T05:55:21.000Z</time>
      </trkpt>
      <trkpt lat="45.23936" lon="5.74598">
        <ele>1008.4000244141</ele>
        <time>2021-07-17T05:55:24.000Z</time>
      </trkpt>
      <trkpt lat="45.23931" lon="5.74598">
        <ele>1007.5999755859</ele>
        <time>2021-07-17T05:55:27.000Z</time>
      </trkpt>
      <trkpt lat="45.23928" lon="5.74597">
        <ele>1007.5999755859</ele>
        <time>2021-07-17T05:55:28.000Z</time>
      </trkpt>
      <trkpt lat="45.23924" lon="5.74596">
        <ele>1007.4000244141</ele>
        <time>2021-07-17T05:55:30.000Z</time>
      </trkpt>
      <trkpt lat="45.23922" lon="5.74595">
        <ele>1007.4000244141</ele>
        <time>2021-07-17T05:55:31.000Z</time>
      </trkpt>
      <trkpt lat="45.23921" lon="5.74594">
        <ele>1006.5999755859</ele>
        <time>2021-07-17T05:55:32.000Z</time>
      </trkpt>
      <trkpt lat="45.23919" lon="5.74593">
        <ele>1006</ele>
        <time>2021-07-17T05:55:33.000Z</time>
      </trkpt>
      <trkpt lat="45.23909" lon="5.74591">
        <ele>1004.799987793</ele>
        <time>2021-07-17T05:55:40.000Z</time>
      </trkpt>
      <trkpt lat="45.23901" lon="5.74588">
        <ele>1003.5999755859</ele>
        <time>2021-07-17T05:55:44.000Z</time>
      </trkpt>
      <trkpt lat="45.239" lon="5.74588">
        <ele>1003</ele>
        <time>2021-07-17T05:55:46.000Z</time>
      </trkpt>
      <trkpt lat="45.23895" lon="5.74586">
        <ele>1002.799987793</ele>
        <time>2021-07-17T05:55:48.000Z</time>
      </trkpt>
      <trkpt lat="45.2389" lon="5.74585">
        <ele>1002.4000244141</ele>
        <time>2021-07-17T05:55:50.000Z</time>
      </trkpt>
      <trkpt lat="45.23887" lon="5.74585">
        <ele>1001.4000244141</ele>
        <time>2021-07-17T05:55:52.000Z</time>
      </trkpt>
      <trkpt lat="45.23884" lon="5.74585">
        <ele>1000.799987793</ele>
        <time>2021-07-17T05:55:53.000Z</time>
      </trkpt>
      <trkpt lat="45.23884" lon="5.74585">
        <ele>1000.799987793</ele>
        <time>2021-07-17T05:55:54.000Z</time>
      </trkpt>
      <trkpt lat="45.23874" lon="5.74585">
        <ele>1000</ele>
        <time>2021-07-17T05:55:58.000Z</time>
      </trkpt>
      <trkpt lat="45.23869" lon="5.74585">
        <ele>999.59997558594</ele>
        <time>2021-07-17T05:56:00.000Z</time>
      </trkpt>
      <trkpt lat="45.23867" lon="5.74586">
        <ele>999.40002441406</ele>
        <time>2021-07-17T05:56:01.000Z</time>
      </trkpt>
      <trkpt lat="45.23864" lon="5.74586">
        <ele>998.79998779297</ele>
        <time>2021-07-17T05:56:02.000Z</time>
      </trkpt>
      <trkpt lat="45.23854" lon="5.74586">
        <ele>998.20001220703</ele>
        <time>2021-07-17T05:56:06.000Z</time>
      </trkpt>
      <trkpt lat="45.23849" lon="5.74585">
        <ele>997.40002441406</ele>
        <time>2021-07-17T05:56:08.000Z</time>
      </trkpt>
      <trkpt lat="45.2384" lon="5.74583">
        <ele>997.20001220703</ele>
        <time>2021-07-17T05:56:11.000Z</time>
      </trkpt>
      <trkpt lat="45.23835" lon="5.74582">
        <ele>996.40002441406</ele>
        <time>2021-07-17T05:56:13.000Z</time>
      </trkpt>
      <trkpt lat="45.23833" lon="5.74583">
        <ele>996</ele>
        <time>2021-07-17T05:56:14.000Z</time>
      </trkpt>
      <trkpt lat="45.23828" lon="5.74583">
        <ele>995.79998779297</ele>
        <time>2021-07-17T05:56:16.000Z</time>
      </trkpt>
      <trkpt lat="45.23824" lon="5.74582">
        <ele>995.40002441406</ele>
        <time>2021-07-17T05:56:17.000Z</time>
      </trkpt>
      <trkpt lat="45.23813" lon="5.74581">
        <ele>994.20001220703</ele>
        <time>2021-07-17T05:56:20.000Z</time>
      </trkpt>
      <trkpt lat="45.23809" lon="5.7458">
        <ele>994.20001220703</ele>
        <time>2021-07-17T05:56:22.000Z</time>
      </trkpt>
      <trkpt lat="45.238" lon="5.74577">
        <ele>992.79998779297</ele>
        <time>2021-07-17T05:56:26.000Z</time>
      </trkpt>
      <trkpt lat="45.23791" lon="5.74573">
        <ele>992.59997558594</ele>
        <time>2021-07-17T05:56:29.000Z</time>
      </trkpt>
      <trkpt lat="45.2378" lon="5.74568">
        <ele>991.59997558594</ele>
        <time>2021-07-17T05:56:34.000Z</time>
      </trkpt>
      <trkpt lat="45.23779" lon="5.74567">
        <ele>991.59997558594</ele>
        <time>2021-07-17T05:56:35.000Z</time>
      </trkpt>
      <trkpt lat="45.23769" lon="5.7456">
        <ele>991.79998779297</ele>
        <time>2021-07-17T05:56:40.000Z</time>
      </trkpt>
      <trkpt lat="45.23764" lon="5.74555">
        <ele>992.20001220703</ele>
        <time>2021-07-17T05:56:44.000Z</time>
      </trkpt>
      <trkpt lat="45.23762" lon="5.74555">
        <ele>991.79998779297</ele>
        <time>2021-07-17T05:56:45.000Z</time>
      </trkpt>
      <trkpt lat="45.23751" lon="5.74555">
        <ele>992</ele>
        <time>2021-07-17T05:56:50.000Z</time>
      </trkpt>
      <trkpt lat="45.23748" lon="5.74558">
        <ele>992.40002441406</ele>
        <time>2021-07-17T05:56:52.000Z</time>
      </trkpt>
      <trkpt lat="45.23747" lon="5.74559">
        <ele>992.59997558594</ele>
        <time>2021-07-17T05:56:53.000Z</time>
      </trkpt>
      <trkpt lat="45.23738" lon="5.74567">
        <ele>993.59997558594</ele>
        <time>2021-07-17T05:56:58.000Z</time>
      </trkpt>
      <trkpt lat="45.23733" lon="5.74572">
        <ele>994.40002441406</ele>
        <time>2021-07-17T05:57:01.000Z</time>
      </trkpt>
      <trkpt lat="45.2373" lon="5.74572">
        <ele>993.79998779297</ele>
        <time>2021-07-17T05:57:02.000Z</time>
      </trkpt>
      <trkpt lat="45.23725" lon="5.74575">
        <ele>994.79998779297</ele>
        <time>2021-07-17T05:57:04.000Z</time>
      </trkpt>
      <trkpt lat="45.23715" lon="5.74579">
        <ele>995.59997558594</ele>
        <time>2021-07-17T05:57:08.000Z</time>
      </trkpt>
      <trkpt lat="45.23712" lon="5.7458">
        <ele>995.79998779297</ele>
        <time>2021-07-17T05:57:09.000Z</time>
      </trkpt>
      <trkpt lat="45.2371" lon="5.74581">
        <ele>996</ele>
        <time>2021-07-17T05:57:10.000Z</time>
      </trkpt>
      <trkpt lat="45.23708" lon="5.74582">
        <ele>996.20001220703</ele>
        <time>2021-07-17T05:57:11.000Z</time>
      </trkpt>
      <trkpt lat="45.23701" lon="5.74583">
        <ele>996.20001220703</ele>
        <time>2021-07-17T05:57:14.000Z</time>
      </trkpt>
      <trkpt lat="45.23699" lon="5.74584">
        <ele>996.79998779297</ele>
        <time>2021-07-17T05:57:15.000Z</time>
      </trkpt>
      <trkpt lat="45.23697" lon="5.74585">
        <ele>996.79998779297</ele>
        <time>2021-07-17T05:57:16.000Z</time>
      </trkpt>
      <trkpt lat="45.23686" lon="5.74587">
        <ele>997.79998779297</ele>
        <time>2021-07-17T05:57:20.000Z</time>
      </trkpt>
      <trkpt lat="45.23684" lon="5.74589">
        <ele>998</ele>
        <time>2021-07-17T05:57:21.000Z</time>
      </trkpt>
      <trkpt lat="45.23676" lon="5.74589">
        <ele>998.59997558594</ele>
        <time>2021-07-17T05:57:24.000Z</time>
      </trkpt>
      <trkpt lat="45.23669" lon="5.7459">
        <ele>999.20001220703</ele>
        <time>2021-07-17T05:57:27.000Z</time>
      </trkpt>
      <trkpt lat="45.23668" lon="5.74592">
        <ele>999.20001220703</ele>
        <time>2021-07-17T05:57:28.000Z</time>
      </trkpt>
      <trkpt lat="45.23666" lon="5.74592">
        <ele>999.20001220703</ele>
        <time>2021-07-17T05:57:29.000Z</time>
      </trkpt>
      <trkpt lat="45.23656" lon="5.74596">
        <ele>1000</ele>
        <time>2021-07-17T05:57:35.000Z</time>
      </trkpt>
      <trkpt lat="45.2365" lon="5.74598">
        <ele>1000.5999755859</ele>
        <time>2021-07-17T05:57:38.000Z</time>
      </trkpt>
      <trkpt lat="45.23648" lon="5.74598">
        <ele>1000.799987793</ele>
        <time>2021-07-17T05:57:39.000Z</time>
      </trkpt>
      <trkpt lat="45.23644" lon="5.74599">
        <ele>1001.200012207</ele>
        <time>2021-07-17T05:57:41.000Z</time>
      </trkpt>
      <trkpt lat="45.23638" lon="5.74599">
        <ele>1001.799987793</ele>
        <time>2021-07-17T05:57:44.000Z</time>
      </trkpt>
      <trkpt lat="45.23633" lon="5.746">
        <ele>1002</ele>
        <time>2021-07-17T05:57:47.000Z</time>
      </trkpt>
      <trkpt lat="45.23632" lon="5.74602">
        <ele>1002.4000244141</ele>
        <time>2021-07-17T05:57:48.000Z</time>
      </trkpt>
      <trkpt lat="45.23628" lon="5.74603">
        <ele>1003</ele>
        <time>2021-07-17T05:57:50.000Z</time>
      </trkpt>
      <trkpt lat="45.23626" lon="5.74603">
        <ele>1003</ele>
        <time>2021-07-17T05:57:51.000Z</time>
      </trkpt>
      <trkpt lat="45.23619" lon="5.74606">
        <ele>1004.200012207</ele>
        <time>2021-07-17T05:57:55.000Z</time>
      </trkpt>
      <trkpt lat="45.23617" lon="5.74607">
        <ele>1004.200012207</ele>
        <time>2021-07-17T05:57:56.000Z</time>
      </trkpt>
      <trkpt lat="45.23615" lon="5.74607">
        <ele>1004.4000244141</ele>
        <time>2021-07-17T05:57:57.000Z</time>
      </trkpt>
      <trkpt lat="45.23606" lon="5.74606">
        <ele>1005.200012207</ele>
        <time>2021-07-17T05:58:01.000Z</time>
      </trkpt>
      <trkpt lat="45.23604" lon="5.74605">
        <ele>1005.200012207</ele>
        <time>2021-07-17T05:58:02.000Z</time>
      </trkpt>
      <trkpt lat="45.23597" lon="5.74595">
        <ele>1006.200012207</ele>
        <time>2021-07-17T05:58:07.000Z</time>
      </trkpt>
      <trkpt lat="45.23597" lon="5.74594">
        <ele>1006.200012207</ele>
        <time>2021-07-17T05:58:08.000Z</time>
      </trkpt>
      <trkpt lat="45.23596" lon="5.74591">
        <ele>1006.4000244141</ele>
        <time>2021-07-17T05:58:09.000Z</time>
      </trkpt>
      <trkpt lat="45.23593" lon="5.74588">
        <ele>1007.4000244141</ele>
        <time>2021-07-17T05:58:12.000Z</time>
      </trkpt>
      <trkpt lat="45.23592" lon="5.74584">
        <ele>1007.5999755859</ele>
        <time>2021-07-17T05:58:14.000Z</time>
      </trkpt>
      <trkpt lat="45.2359" lon="5.7458">
        <ele>1007.5999755859</ele>
        <time>2021-07-17T05:58:16.000Z</time>
      </trkpt>
      <trkpt lat="45.23587" lon="5.74576">
        <ele>1007.5999755859</ele>
        <time>2021-07-17T05:58:17.000Z</time>
      </trkpt>
      <trkpt lat="45.23579" lon="5.74568">
        <ele>1008.4000244141</ele>
        <time>2021-07-17T05:58:20.000Z</time>
      </trkpt>
      <trkpt lat="45.23578" lon="5.74566">
        <ele>1008.5999755859</ele>
        <time>2021-07-17T05:58:21.000Z</time>
      </trkpt>
      <trkpt lat="45.23578" lon="5.74564">
        <ele>1008.5999755859</ele>
        <time>2021-07-17T05:58:22.000Z</time>
      </trkpt>
      <trkpt lat="45.23578" lon="5.74563">
        <ele>1008.799987793</ele>
        <time>2021-07-17T05:58:23.000Z</time>
      </trkpt>
      <trkpt lat="45.23578" lon="5.7456">
        <ele>1009.799987793</ele>
        <time>2021-07-17T05:58:25.000Z</time>
      </trkpt>
      <trkpt lat="45.23578" lon="5.74559">
        <ele>1010</ele>
        <time>2021-07-17T05:58:26.000Z</time>
      </trkpt>
      <trkpt lat="45.23573" lon="5.74547">
        <ele>1010.5999755859</ele>
        <time>2021-07-17T05:58:31.000Z</time>
      </trkpt>
      <trkpt lat="45.23571" lon="5.74545">
        <ele>1010.5999755859</ele>
        <time>2021-07-17T05:58:32.000Z</time>
      </trkpt>
      <trkpt lat="45.23569" lon="5.74542">
        <ele>1011</ele>
        <time>2021-07-17T05:58:33.000Z</time>
      </trkpt>
      <trkpt lat="45.23569" lon="5.74535">
        <ele>1011</ele>
        <time>2021-07-17T05:58:36.000Z</time>
      </trkpt>
      <trkpt lat="45.23569" lon="5.74534">
        <ele>1011.200012207</ele>
        <time>2021-07-17T05:58:37.000Z</time>
      </trkpt>
      <trkpt lat="45.23567" lon="5.74528">
        <ele>1011.4000244141</ele>
        <time>2021-07-17T05:58:40.000Z</time>
      </trkpt>
      <trkpt lat="45.23565" lon="5.74526">
        <ele>1011.5999755859</ele>
        <time>2021-07-17T05:58:41.000Z</time>
      </trkpt>
      <trkpt lat="45.23564" lon="5.74524">
        <ele>1012</ele>
        <time>2021-07-17T05:58:42.000Z</time>
      </trkpt>
      <trkpt lat="45.23553" lon="5.74517">
        <ele>1013</ele>
        <time>2021-07-17T05:58:47.000Z</time>
      </trkpt>
      <trkpt lat="45.23551" lon="5.74516">
        <ele>1013.200012207</ele>
        <time>2021-07-17T05:58:48.000Z</time>
      </trkpt>
      <trkpt lat="45.23541" lon="5.74515">
        <ele>1014.200012207</ele>
        <time>2021-07-17T05:58:54.000Z</time>
      </trkpt>
      <trkpt lat="45.23539" lon="5.74515">
        <ele>1014.4000244141</ele>
        <time>2021-07-17T05:58:55.000Z</time>
      </trkpt>
      <trkpt lat="45.23535" lon="5.74516">
        <ele>1015</ele>
        <time>2021-07-17T05:58:57.000Z</time>
      </trkpt>
      <trkpt lat="45.23529" lon="5.74515">
        <ele>1015</ele>
        <time>2021-07-17T05:59:00.000Z</time>
      </trkpt>
      <trkpt lat="45.23527" lon="5.74514">
        <ele>1016</ele>
        <time>2021-07-17T05:59:01.000Z</time>
      </trkpt>
      <trkpt lat="45.23519" lon="5.74506">
        <ele>1017.200012207</ele>
        <time>2021-07-17T05:59:06.000Z</time>
      </trkpt>
      <trkpt lat="45.23509" lon="5.74494">
        <ele>1018</ele>
        <time>2021-07-17T05:59:12.000Z</time>
      </trkpt>
      <trkpt lat="45.23509" lon="5.74492">
        <ele>1018.4000244141</ele>
        <time>2021-07-17T05:59:13.000Z</time>
      </trkpt>
      <trkpt lat="45.23504" lon="5.74485">
        <ele>1019.200012207</ele>
        <time>2021-07-17T05:59:18.000Z</time>
      </trkpt>
      <trkpt lat="45.23501" lon="5.74482">
        <ele>1020</ele>
        <time>2021-07-17T05:59:21.000Z</time>
      </trkpt>
      <trkpt lat="45.23496" lon="5.74479">
        <ele>1020.4000244141</ele>
        <time>2021-07-17T05:59:24.000Z</time>
      </trkpt>
      <trkpt lat="45.23495" lon="5.74478">
        <ele>1020.799987793</ele>
        <time>2021-07-17T05:59:25.000Z</time>
      </trkpt>
      <trkpt lat="45.23493" lon="5.74475">
        <ele>1021.200012207</ele>
        <time>2021-07-17T05:59:27.000Z</time>
      </trkpt>
      <trkpt lat="45.23485" lon="5.74467">
        <ele>1022.4000244141</ele>
        <time>2021-07-17T05:59:31.000Z</time>
      </trkpt>
      <trkpt lat="45.23484" lon="5.74464">
        <ele>1022.4000244141</ele>
        <time>2021-07-17T05:59:33.000Z</time>
      </trkpt>
      <trkpt lat="45.23483" lon="5.7446">
        <ele>1022.4000244141</ele>
        <time>2021-07-17T05:59:35.000Z</time>
      </trkpt>
      <trkpt lat="45.23482" lon="5.74458">
        <ele>1022.200012207</ele>
        <time>2021-07-17T05:59:36.000Z</time>
      </trkpt>
      <trkpt lat="45.23481" lon="5.74454">
        <ele>1022.200012207</ele>
        <time>2021-07-17T05:59:38.000Z</time>
      </trkpt>
      <trkpt lat="45.23477" lon="5.7445">
        <ele>1022.5999755859</ele>
        <time>2021-07-17T05:59:41.000Z</time>
      </trkpt>
      <trkpt lat="45.23473" lon="5.74446">
        <ele>1022.799987793</ele>
        <time>2021-07-17T05:59:44.000Z</time>
      </trkpt>
      <trkpt lat="45.23472" lon="5.74444">
        <ele>1023</ele>
        <time>2021-07-17T05:59:45.000Z</time>
      </trkpt>
      <trkpt lat="45.2347" lon="5.74442">
        <ele>1023</ele>
        <time>2021-07-17T05:59:46.000Z</time>
      </trkpt>
      <trkpt lat="45.23468" lon="5.74439">
        <ele>1023</ele>
        <time>2021-07-17T05:59:47.000Z</time>
      </trkpt>
      <trkpt lat="45.23458" lon="5.74431">
        <ele>1022.200012207</ele>
        <time>2021-07-17T05:59:51.000Z</time>
      </trkpt>
      <trkpt lat="45.23447" lon="5.7442">
        <ele>1021.799987793</ele>
        <time>2021-07-17T05:59:56.000Z</time>
      </trkpt>
      <trkpt lat="45.23442" lon="5.74413">
        <ele>1021.200012207</ele>
        <time>2021-07-17T05:59:59.000Z</time>
      </trkpt>
      <trkpt lat="45.2344" lon="5.74411">
        <ele>1021</ele>
        <time>2021-07-17T06:00:00.000Z</time>
      </trkpt>
      <trkpt lat="45.23438" lon="5.74409">
        <ele>1021</ele>
        <time>2021-07-17T06:00:01.000Z</time>
      </trkpt>
      <trkpt lat="45.23438" lon="5.74408">
        <ele>1020.799987793</ele>
        <time>2021-07-17T06:00:02.000Z</time>
      </trkpt>
      <trkpt lat="45.23434" lon="5.74402">
        <ele>1020.4000244141</ele>
        <time>2021-07-17T06:00:05.000Z</time>
      </trkpt>
      <trkpt lat="45.23434" lon="5.74401">
        <ele>1020.4000244141</ele>
        <time>2021-07-17T06:00:06.000Z</time>
      </trkpt>
      <trkpt lat="45.23432" lon="5.74399">
        <ele>1020</ele>
        <time>2021-07-17T06:00:08.000Z</time>
      </trkpt>
      <trkpt lat="45.23424" lon="5.74395">
        <ele>1019.5999755859</ele>
        <time>2021-07-17T06:00:11.000Z</time>
      </trkpt>
      <trkpt lat="45.2341" lon="5.7439">
        <ele>1019.4000244141</ele>
        <time>2021-07-17T06:00:17.000Z</time>
      </trkpt>
      <trkpt lat="45.23403" lon="5.74387">
        <ele>1018.799987793</ele>
        <time>2021-07-17T06:00:19.000Z</time>
      </trkpt>
      <trkpt lat="45.23401" lon="5.74387">
        <ele>1018.5999755859</ele>
        <time>2021-07-17T06:00:20.000Z</time>
      </trkpt>
      <trkpt lat="45.23399" lon="5.74387">
        <ele>1018</ele>
        <time>2021-07-17T06:00:21.000Z</time>
      </trkpt>
      <trkpt lat="45.23398" lon="5.74387">
        <ele>1017.5999755859</ele>
        <time>2021-07-17T06:00:22.000Z</time>
      </trkpt>
      <trkpt lat="45.23396" lon="5.74387">
        <ele>1017.200012207</ele>
        <time>2021-07-17T06:00:24.000Z</time>
      </trkpt>
      <trkpt lat="45.23391" lon="5.74382">
        <ele>1017.200012207</ele>
        <time>2021-07-17T06:00:31.000Z</time>
      </trkpt>
      <trkpt lat="45.2339" lon="5.7438">
        <ele>1017.200012207</ele>
        <time>2021-07-17T06:00:36.000Z</time>
      </trkpt>
      <trkpt lat="45.23389" lon="5.74379">
        <ele>1017.200012207</ele>
        <time>2021-07-17T06:00:37.000Z</time>
      </trkpt>
      <trkpt lat="45.23388" lon="5.74378">
        <ele>1017.200012207</ele>
        <time>2021-07-17T06:00:38.000Z</time>
      </trkpt>
      <trkpt lat="45.23388" lon="5.74377">
        <ele>1017.200012207</ele>
        <time>2021-07-17T06:00:40.000Z</time>
      </trkpt>
      <trkpt lat="45.23391" lon="5.74376">
        <ele>1017.200012207</ele>
        <time>2021-07-17T06:00:42.000Z</time>
      </trkpt>
      <trkpt lat="45.23392" lon="5.74376">
        <ele>1017.200012207</ele>
        <time>2021-07-17T06:00:43.000Z</time>
      </trkpt>
      <trkpt lat="45.23391" lon="5.74374">
        <ele>1017.5999755859</ele>
        <time>2021-07-17T06:00:45.000Z</time>
      </trkpt>
      <trkpt lat="45.23391" lon="5.74373">
        <ele>1017.799987793</ele>
        <time>2021-07-17T06:00:47.000Z</time>
      </trkpt>
      <trkpt lat="45.2339" lon="5.74372">
        <ele>1017.799987793</ele>
        <time>2021-07-17T06:00:48.000Z</time>
      </trkpt>
      <trkpt lat="45.23392" lon="5.74369">
        <ele>1018.5999755859</ele>
        <time>2021-07-17T06:00:51.000Z</time>
      </trkpt>
      <trkpt lat="45.23397" lon="5.7437">
        <ele>1018.799987793</ele>
        <time>2021-07-17T06:00:53.000Z</time>
      </trkpt>
      <trkpt lat="45.23406" lon="5.74371">
        <ele>1018.799987793</ele>
        <time>2021-07-17T06:00:56.000Z</time>
      </trkpt>
      <trkpt lat="45.2341" lon="5.74371">
        <ele>1019.200012207</ele>
        <time>2021-07-17T06:00:58.000Z</time>
      </trkpt>
      <trkpt lat="45.23419" lon="5.74376">
        <ele>1019.799987793</ele>
        <time>2021-07-17T06:01:02.000Z</time>
      </trkpt>
      <trkpt lat="45.23425" lon="5.74379">
        <ele>1020</ele>
        <time>2021-07-17T06:01:04.000Z</time>
      </trkpt>
      <trkpt lat="45.23428" lon="5.74384">
        <ele>1020.5999755859</ele>
        <time>2021-07-17T06:01:07.000Z</time>
      </trkpt>
      <trkpt lat="45.23429" lon="5.74387">
        <ele>1021.200012207</ele>
        <time>2021-07-17T06:01:08.000Z</time>
      </trkpt>
      <trkpt lat="45.23433" lon="5.7439">
        <ele>1021.4000244141</ele>
        <time>2021-07-17T06:01:10.000Z</time>
      </trkpt>
      <trkpt lat="45.23443" lon="5.74396">
        <ele>1022</ele>
        <time>2021-07-17T06:01:14.000Z</time>
      </trkpt>
      <trkpt lat="45.23451" lon="5.744">
        <ele>1022.4000244141</ele>
        <time>2021-07-17T06:01:17.000Z</time>
      </trkpt>
      <trkpt lat="45.23453" lon="5.74401">
        <ele>1022.5999755859</ele>
        <time>2021-07-17T06:01:18.000Z</time>
      </trkpt>
      <trkpt lat="45.23469" lon="5.74413">
        <ele>1022.5999755859</ele>
        <time>2021-07-17T06:01:25.000Z</time>
      </trkpt>
      <trkpt lat="45.23474" lon="5.74417">
        <ele>1023.200012207</ele>
        <time>2021-07-17T06:01:27.000Z</time>
      </trkpt>
      <trkpt lat="45.23481" lon="5.74423">
        <ele>1022.5999755859</ele>
        <time>2021-07-17T06:01:30.000Z</time>
      </trkpt>
      <trkpt lat="45.23496" lon="5.74435">
        <ele>1022.4000244141</ele>
        <time>2021-07-17T06:01:37.000Z</time>
      </trkpt>
      <trkpt lat="45.23505" lon="5.74443">
        <ele>1022</ele>
        <time>2021-07-17T06:01:41.000Z</time>
      </trkpt>
      <trkpt lat="45.23508" lon="5.74446">
        <ele>1021.200012207</ele>
        <time>2021-07-17T06:01:42.000Z</time>
      </trkpt>
      <trkpt lat="45.23515" lon="5.74453">
        <ele>1020</ele>
        <time>2021-07-17T06:01:45.000Z</time>
      </trkpt>
      <trkpt lat="45.23518" lon="5.74456">
        <ele>1020</ele>
        <time>2021-07-17T06:01:46.000Z</time>
      </trkpt>
      <trkpt lat="45.23521" lon="5.7446">
        <ele>1019.799987793</ele>
        <time>2021-07-17T06:01:48.000Z</time>
      </trkpt>
      <trkpt lat="45.23527" lon="5.74471">
        <ele>1019</ele>
        <time>2021-07-17T06:01:50.000Z</time>
      </trkpt>
      <trkpt lat="45.23527" lon="5.74475">
        <ele>1018.5999755859</ele>
        <time>2021-07-17T06:01:51.000Z</time>
      </trkpt>
      <trkpt lat="45.23527" lon="5.7448">
        <ele>1018.5999755859</ele>
        <time>2021-07-17T06:01:52.000Z</time>
      </trkpt>
      <trkpt lat="45.23525" lon="5.74492">
        <ele>1017.799987793</ele>
        <time>2021-07-17T06:01:55.000Z</time>
      </trkpt>
      <trkpt lat="45.23525" lon="5.7452">
        <ele>1017</ele>
        <time>2021-07-17T06:02:02.000Z</time>
      </trkpt>
      <trkpt lat="45.23526" lon="5.74524">
        <ele>1016.799987793</ele>
        <time>2021-07-17T06:02:03.000Z</time>
      </trkpt>
      <trkpt lat="45.23525" lon="5.74531">
        <ele>1016.5999755859</ele>
        <time>2021-07-17T06:02:05.000Z</time>
      </trkpt>
      <trkpt lat="45.23521" lon="5.74549">
        <ele>1015.799987793</ele>
        <time>2021-07-17T06:02:10.000Z</time>
      </trkpt>
      <trkpt lat="45.23519" lon="5.74556">
        <ele>1015.200012207</ele>
        <time>2021-07-17T06:02:12.000Z</time>
      </trkpt>
      <trkpt lat="45.23516" lon="5.74572">
        <ele>1013.799987793</ele>
        <time>2021-07-17T06:02:17.000Z</time>
      </trkpt>
      <trkpt lat="45.23516" lon="5.74577">
        <ele>1013.4000244141</ele>
        <time>2021-07-17T06:02:18.000Z</time>
      </trkpt>
      <trkpt lat="45.23513" lon="5.74584">
        <ele>1013.200012207</ele>
        <time>2021-07-17T06:02:20.000Z</time>
      </trkpt>
      <trkpt lat="45.23508" lon="5.74588">
        <ele>1013.200012207</ele>
        <time>2021-07-17T06:02:22.000Z</time>
      </trkpt>
      <trkpt lat="45.23506" lon="5.74594">
        <ele>1013</ele>
        <time>2021-07-17T06:02:24.000Z</time>
      </trkpt>
      <trkpt lat="45.23505" lon="5.74596">
        <ele>1012.5999755859</ele>
        <time>2021-07-17T06:02:25.000Z</time>
      </trkpt>
      <trkpt lat="45.23504" lon="5.74598">
        <ele>1012.4000244141</ele>
        <time>2021-07-17T06:02:27.000Z</time>
      </trkpt>
      <trkpt lat="45.23502" lon="5.74601">
        <ele>1012.4000244141</ele>
        <time>2021-07-17T06:02:29.000Z</time>
      </trkpt>
      <trkpt lat="45.23502" lon="5.74606">
        <ele>1012.200012207</ele>
        <time>2021-07-17T06:02:31.000Z</time>
      </trkpt>
      <trkpt lat="45.23501" lon="5.74607">
        <ele>1010.5999755859</ele>
        <time>2021-07-17T06:02:32.000Z</time>
      </trkpt>
      <trkpt lat="45.23499" lon="5.74609">
        <ele>1010.200012207</ele>
        <time>2021-07-17T06:02:34.000Z</time>
      </trkpt>
      <trkpt lat="45.23498" lon="5.7461">
        <ele>1009.4000244141</ele>
        <time>2021-07-17T06:02:35.000Z</time>
      </trkpt>
      <trkpt lat="45.23496" lon="5.74611">
        <ele>1009.200012207</ele>
        <time>2021-07-17T06:02:36.000Z</time>
      </trkpt>
      <trkpt lat="45.23488" lon="5.74611">
        <ele>1007.5999755859</ele>
        <time>2021-07-17T06:02:41.000Z</time>
      </trkpt>
      <trkpt lat="45.23485" lon="5.74608">
        <ele>1007.200012207</ele>
        <time>2021-07-17T06:02:43.000Z</time>
      </trkpt>
      <trkpt lat="45.23481" lon="5.74605">
        <ele>1007</ele>
        <time>2021-07-17T06:02:45.000Z</time>
      </trkpt>
      <trkpt lat="45.23479" lon="5.74603">
        <ele>1007</ele>
        <time>2021-07-17T06:02:48.000Z</time>
      </trkpt>
      <trkpt lat="45.23479" lon="5.74602">
        <ele>1006.5999755859</ele>
        <time>2021-07-17T06:02:49.000Z</time>
      </trkpt>
      <trkpt lat="45.23477" lon="5.74599">
        <ele>1006</ele>
        <time>2021-07-17T06:02:51.000Z</time>
      </trkpt>
      <trkpt lat="45.23476" lon="5.74598">
        <ele>1005.200012207</ele>
        <time>2021-07-17T06:02:52.000Z</time>
      </trkpt>
      <trkpt lat="45.23476" lon="5.74597">
        <ele>1005</ele>
        <time>2021-07-17T06:02:53.000Z</time>
      </trkpt>
      <trkpt lat="45.23475" lon="5.74597">
        <ele>1005</ele>
        <time>2021-07-17T06:02:54.000Z</time>
      </trkpt>
      <trkpt lat="45.23473" lon="5.74595">
        <ele>1003.5999755859</ele>
        <time>2021-07-17T06:02:57.000Z</time>
      </trkpt>
      <trkpt lat="45.23473" lon="5.74595">
        <ele>1003.4000244141</ele>
        <time>2021-07-17T06:02:58.000Z</time>
      </trkpt>
      <trkpt lat="45.23472" lon="5.74595">
        <ele>1003.4000244141</ele>
        <time>2021-07-17T06:02:59.000Z</time>
      </trkpt>
      <trkpt lat="45.23472" lon="5.74595">
        <ele>1002.4000244141</ele>
        <time>2021-07-17T06:03:01.000Z</time>
      </trkpt>
      <trkpt lat="45.23472" lon="5.74595">
        <ele>1002.200012207</ele>
        <time>2021-07-17T06:03:02.000Z</time>
      </trkpt>
      <trkpt lat="45.23471" lon="5.74594">
        <ele>1001.200012207</ele>
        <time>2021-07-17T06:03:03.000Z</time>
      </trkpt>
      <trkpt lat="45.23468" lon="5.74591">
        <ele>1000.4000244141</ele>
        <time>2021-07-17T06:03:05.000Z</time>
      </trkpt>
      <trkpt lat="45.23468" lon="5.7459">
        <ele>1000.200012207</ele>
        <time>2021-07-17T06:03:06.000Z</time>
      </trkpt>
      <trkpt lat="45.23468" lon="5.7459">
        <ele>1000</ele>
        <time>2021-07-17T06:03:07.000Z</time>
      </trkpt>
      <trkpt lat="45.23469" lon="5.74589">
        <ele>999.40002441406</ele>
        <time>2021-07-17T06:03:10.000Z</time>
      </trkpt>
      <trkpt lat="45.23472" lon="5.7459">
        <ele>999.20001220703</ele>
        <time>2021-07-17T06:03:11.000Z</time>
      </trkpt>
      <trkpt lat="45.23473" lon="5.74591">
        <ele>998.79998779297</ele>
        <time>2021-07-17T06:03:12.000Z</time>
      </trkpt>
      <trkpt lat="45.23473" lon="5.74591">
        <ele>997.59997558594</ele>
        <time>2021-07-17T06:03:13.000Z</time>
      </trkpt>
      <trkpt lat="45.23471" lon="5.74591">
        <ele>996.79998779297</ele>
        <time>2021-07-17T06:03:15.000Z</time>
      </trkpt>
      <trkpt lat="45.2347" lon="5.74591">
        <ele>996.59997558594</ele>
        <time>2021-07-17T06:03:16.000Z</time>
      </trkpt>
      <trkpt lat="45.23469" lon="5.74591">
        <ele>996.20001220703</ele>
        <time>2021-07-17T06:03:17.000Z</time>
      </trkpt>
      <trkpt lat="45.23469" lon="5.74591">
        <ele>995.59997558594</ele>
        <time>2021-07-17T06:03:18.000Z</time>
      </trkpt>
      <trkpt lat="45.23465" lon="5.74591">
        <ele>995</ele>
        <time>2021-07-17T06:03:20.000Z</time>
      </trkpt>
      <trkpt lat="45.23463" lon="5.74591">
        <ele>994.79998779297</ele>
        <time>2021-07-17T06:03:21.000Z</time>
      </trkpt>
      <trkpt lat="45.2346" lon="5.74592">
        <ele>994.20001220703</ele>
        <time>2021-07-17T06:03:23.000Z</time>
      </trkpt>
      <trkpt lat="45.2346" lon="5.74592">
        <ele>993.79998779297</ele>
        <time>2021-07-17T06:03:24.000Z</time>
      </trkpt>
      <trkpt lat="45.23458" lon="5.74591">
        <ele>993.59997558594</ele>
        <time>2021-07-17T06:03:25.000Z</time>
      </trkpt>
      <trkpt lat="45.23456" lon="5.7459">
        <ele>993.59997558594</ele>
        <time>2021-07-17T06:03:27.000Z</time>
      </trkpt>
      <trkpt lat="45.23454" lon="5.74589">
        <ele>993.20001220703</ele>
        <time>2021-07-17T06:03:28.000Z</time>
      </trkpt>
      <trkpt lat="45.23451" lon="5.74587">
        <ele>993.20001220703</ele>
        <time>2021-07-17T06:03:30.000Z</time>
      </trkpt>
      <trkpt lat="45.23447" lon="5.74585">
        <ele>993.20001220703</ele>
        <time>2021-07-17T06:03:32.000Z</time>
      </trkpt>
      <trkpt lat="45.23439" lon="5.74583">
        <ele>992.79998779297</ele>
        <time>2021-07-17T06:03:36.000Z</time>
      </trkpt>
      <trkpt lat="45.23433" lon="5.74581">
        <ele>992.40002441406</ele>
        <time>2021-07-17T06:03:39.000Z</time>
      </trkpt>
      <trkpt lat="45.23428" lon="5.7458">
        <ele>991.79998779297</ele>
        <time>2021-07-17T06:03:41.000Z</time>
      </trkpt>
      <trkpt lat="45.23426" lon="5.74579">
        <ele>991.79998779297</ele>
        <time>2021-07-17T06:03:42.000Z</time>
      </trkpt>
      <trkpt lat="45.23425" lon="5.74578">
        <ele>991.40002441406</ele>
        <time>2021-07-17T06:03:43.000Z</time>
      </trkpt>
      <trkpt lat="45.23422" lon="5.74577">
        <ele>990.79998779297</ele>
        <time>2021-07-17T06:03:45.000Z</time>
      </trkpt>
      <trkpt lat="45.23421" lon="5.74576">
        <ele>990.59997558594</ele>
        <time>2021-07-17T06:03:46.000Z</time>
      </trkpt>
      <trkpt lat="45.23419" lon="5.74576">
        <ele>990.40002441406</ele>
        <time>2021-07-17T06:03:47.000Z</time>
      </trkpt>
      <trkpt lat="45.23411" lon="5.74573">
        <ele>989.79998779297</ele>
        <time>2021-07-17T06:03:50.000Z</time>
      </trkpt>
      <trkpt lat="45.23407" lon="5.74571">
        <ele>989.40002441406</ele>
        <time>2021-07-17T06:03:51.000Z</time>
      </trkpt>
      <trkpt lat="45.23404" lon="5.7457">
        <ele>989.40002441406</ele>
        <time>2021-07-17T06:03:52.000Z</time>
      </trkpt>
      <trkpt lat="45.23389" lon="5.74563">
        <ele>988.79998779297</ele>
        <time>2021-07-17T06:03:57.000Z</time>
      </trkpt>
      <trkpt lat="45.23381" lon="5.7456">
        <ele>988.20001220703</ele>
        <time>2021-07-17T06:04:00.000Z</time>
      </trkpt>
      <trkpt lat="45.23375" lon="5.74558">
        <ele>988.20001220703</ele>
        <time>2021-07-17T06:04:02.000Z</time>
      </trkpt>
      <trkpt lat="45.23372" lon="5.74558">
        <ele>988.20001220703</ele>
        <time>2021-07-17T06:04:03.000Z</time>
      </trkpt>
      <trkpt lat="45.23371" lon="5.74558">
        <ele>987.79998779297</ele>
        <time>2021-07-17T06:04:04.000Z</time>
      </trkpt>
      <trkpt lat="45.23362" lon="5.74553">
        <ele>987.40002441406</ele>
        <time>2021-07-17T06:04:07.000Z</time>
      </trkpt>
      <trkpt lat="45.23356" lon="5.74552">
        <ele>986.79998779297</ele>
        <time>2021-07-17T06:04:09.000Z</time>
      </trkpt>
      <trkpt lat="45.2335" lon="5.74549">
        <ele>986.20001220703</ele>
        <time>2021-07-17T06:04:11.000Z</time>
      </trkpt>
      <trkpt lat="45.23343" lon="5.74545">
        <ele>985.59997558594</ele>
        <time>2021-07-17T06:04:14.000Z</time>
      </trkpt>
      <trkpt lat="45.2334" lon="5.74544">
        <ele>984.59997558594</ele>
        <time>2021-07-17T06:04:16.000Z</time>
      </trkpt>
      <trkpt lat="45.23339" lon="5.74543">
        <ele>984.40002441406</ele>
        <time>2021-07-17T06:04:17.000Z</time>
      </trkpt>
      <trkpt lat="45.23338" lon="5.74542">
        <ele>983.59997558594</ele>
        <time>2021-07-17T06:04:18.000Z</time>
      </trkpt>
      <trkpt lat="45.23337" lon="5.74541">
        <ele>983.20001220703</ele>
        <time>2021-07-17T06:04:20.000Z</time>
      </trkpt>
      <trkpt lat="45.23337" lon="5.74541">
        <ele>983</ele>
        <time>2021-07-17T06:04:21.000Z</time>
      </trkpt>
      <trkpt lat="45.23337" lon="5.74542">
        <ele>983</ele>
        <time>2021-07-17T06:04:22.000Z</time>
      </trkpt>
      <trkpt lat="45.23336" lon="5.74541">
        <ele>983</ele>
        <time>2021-07-17T06:04:23.000Z</time>
      </trkpt>
      <trkpt lat="45.23333" lon="5.74539">
        <ele>981.20001220703</ele>
        <time>2021-07-17T06:04:25.000Z</time>
      </trkpt>
      <trkpt lat="45.23334" lon="5.7454">
        <ele>981</ele>
        <time>2021-07-17T06:04:27.000Z</time>
      </trkpt>
      <trkpt lat="45.23334" lon="5.7454">
        <ele>980</ele>
        <time>2021-07-17T06:04:28.000Z</time>
      </trkpt>
      <trkpt lat="45.23329" lon="5.74538">
        <ele>979.40002441406</ele>
        <time>2021-07-17T06:04:31.000Z</time>
      </trkpt>
      <trkpt lat="45.23326" lon="5.74536">
        <ele>979.40002441406</ele>
        <time>2021-07-17T06:04:32.000Z</time>
      </trkpt>
      <trkpt lat="45.23323" lon="5.74536">
        <ele>978.79998779297</ele>
        <time>2021-07-17T06:04:34.000Z</time>
      </trkpt>
      <trkpt lat="45.2332" lon="5.74534">
        <ele>977.40002441406</ele>
        <time>2021-07-17T06:04:36.000Z</time>
      </trkpt>
      <trkpt lat="45.2332" lon="5.74534">
        <ele>977.40002441406</ele>
        <time>2021-07-17T06:04:37.000Z</time>
      </trkpt>
      <trkpt lat="45.2332" lon="5.74536">
        <ele>976.40002441406</ele>
        <time>2021-07-17T06:04:39.000Z</time>
      </trkpt>
      <trkpt lat="45.23319" lon="5.74536">
        <ele>975.40002441406</ele>
        <time>2021-07-17T06:04:40.000Z</time>
      </trkpt>
      <trkpt lat="45.23316" lon="5.74535">
        <ele>975.40002441406</ele>
        <time>2021-07-17T06:04:41.000Z</time>
      </trkpt>
      <trkpt lat="45.23315" lon="5.74533">
        <ele>975.20001220703</ele>
        <time>2021-07-17T06:04:42.000Z</time>
      </trkpt>
      <trkpt lat="45.23313" lon="5.74531">
        <ele>974.40002441406</ele>
        <time>2021-07-17T06:04:43.000Z</time>
      </trkpt>
      <trkpt lat="45.23311" lon="5.74529">
        <ele>974.40002441406</ele>
        <time>2021-07-17T06:04:44.000Z</time>
      </trkpt>
      <trkpt lat="45.23308" lon="5.74527">
        <ele>974</ele>
        <time>2021-07-17T06:04:45.000Z</time>
      </trkpt>
      <trkpt lat="45.23307" lon="5.74526">
        <ele>973.20001220703</ele>
        <time>2021-07-17T06:04:46.000Z</time>
      </trkpt>
      <trkpt lat="45.23305" lon="5.74525">
        <ele>973.20001220703</ele>
        <time>2021-07-17T06:04:47.000Z</time>
      </trkpt>
      <trkpt lat="45.23308" lon="5.74525">
        <ele>972.79998779297</ele>
        <time>2021-07-17T06:04:49.000Z</time>
      </trkpt>
      <trkpt lat="45.23308" lon="5.74525">
        <ele>971.59997558594</ele>
        <time>2021-07-17T06:04:50.000Z</time>
      </trkpt>
      <trkpt lat="45.23306" lon="5.74523">
        <ele>971.59997558594</ele>
        <time>2021-07-17T06:04:52.000Z</time>
      </trkpt>
      <trkpt lat="45.23305" lon="5.74522">
        <ele>970.40002441406</ele>
        <time>2021-07-17T06:04:53.000Z</time>
      </trkpt>
      <trkpt lat="45.23299" lon="5.74518">
        <ele>969.79998779297</ele>
        <time>2021-07-17T06:04:56.000Z</time>
      </trkpt>
      <trkpt lat="45.23294" lon="5.74516">
        <ele>969.20001220703</ele>
        <time>2021-07-17T06:04:58.000Z</time>
      </trkpt>
      <trkpt lat="45.23289" lon="5.74515">
        <ele>968.59997558594</ele>
        <time>2021-07-17T06:05:00.000Z</time>
      </trkpt>
      <trkpt lat="45.23288" lon="5.74516">
        <ele>968.20001220703</ele>
        <time>2021-07-17T06:05:01.000Z</time>
      </trkpt>
      <trkpt lat="45.23286" lon="5.74516">
        <ele>967.59997558594</ele>
        <time>2021-07-17T06:05:03.000Z</time>
      </trkpt>
      <trkpt lat="45.23285" lon="5.74515">
        <ele>967.40002441406</ele>
        <time>2021-07-17T06:05:04.000Z</time>
      </trkpt>
      <trkpt lat="45.23283" lon="5.74514">
        <ele>966.59997558594</ele>
        <time>2021-07-17T06:05:05.000Z</time>
      </trkpt>
      <trkpt lat="45.23284" lon="5.74513">
        <ele>965.59997558594</ele>
        <time>2021-07-17T06:05:08.000Z</time>
      </trkpt>
      <trkpt lat="45.23282" lon="5.74512">
        <ele>965.40002441406</ele>
        <time>2021-07-17T06:05:10.000Z</time>
      </trkpt>
      <trkpt lat="45.23278" lon="5.74508">
        <ele>964.40002441406</ele>
        <time>2021-07-17T06:05:13.000Z</time>
      </trkpt>
      <trkpt lat="45.23277" lon="5.74508">
        <ele>963.59997558594</ele>
        <time>2021-07-17T06:05:14.000Z</time>
      </trkpt>
      <trkpt lat="45.23277" lon="5.74509">
        <ele>963.40002441406</ele>
        <time>2021-07-17T06:05:15.000Z</time>
      </trkpt>
      <trkpt lat="45.23277" lon="5.74509">
        <ele>963.40002441406</ele>
        <time>2021-07-17T06:05:16.000Z</time>
      </trkpt>
      <trkpt lat="45.23276" lon="5.74507">
        <ele>961.79998779297</ele>
        <time>2021-07-17T06:05:18.000Z</time>
      </trkpt>
      <trkpt lat="45.23274" lon="5.74507">
        <ele>961.59997558594</ele>
        <time>2021-07-17T06:05:19.000Z</time>
      </trkpt>
      <trkpt lat="45.23273" lon="5.74507">
        <ele>961</ele>
        <time>2021-07-17T06:05:20.000Z</time>
      </trkpt>
      <trkpt lat="45.23272" lon="5.74507">
        <ele>960.59997558594</ele>
        <time>2021-07-17T06:05:22.000Z</time>
      </trkpt>
      <trkpt lat="45.23269" lon="5.74507">
        <ele>960.40002441406</ele>
        <time>2021-07-17T06:05:23.000Z</time>
      </trkpt>
      <trkpt lat="45.23267" lon="5.74507">
        <ele>960.20001220703</ele>
        <time>2021-07-17T06:05:24.000Z</time>
      </trkpt>
      <trkpt lat="45.23263" lon="5.74505">
        <ele>959.59997558594</ele>
        <time>2021-07-17T06:05:26.000Z</time>
      </trkpt>
      <trkpt lat="45.23262" lon="5.74504">
        <ele>958.79998779297</ele>
        <time>2021-07-17T06:05:27.000Z</time>
      </trkpt>
      <trkpt lat="45.2326" lon="5.74503">
        <ele>957.40002441406</ele>
        <time>2021-07-17T06:05:29.000Z</time>
      </trkpt>
      <trkpt lat="45.23258" lon="5.74502">
        <ele>956.79998779297</ele>
        <time>2021-07-17T06:05:31.000Z</time>
      </trkpt>
      <trkpt lat="45.23255" lon="5.745">
        <ele>956.79998779297</ele>
        <time>2021-07-17T06:05:33.000Z</time>
      </trkpt>
      <trkpt lat="45.23254" lon="5.745">
        <ele>956</ele>
        <time>2021-07-17T06:05:34.000Z</time>
      </trkpt>
      <trkpt lat="45.23252" lon="5.74499">
        <ele>956</ele>
        <time>2021-07-17T06:05:35.000Z</time>
      </trkpt>
      <trkpt lat="45.23248" lon="5.74498">
        <ele>954.40002441406</ele>
        <time>2021-07-17T06:05:38.000Z</time>
      </trkpt>
      <trkpt lat="45.23247" lon="5.74497">
        <ele>954</ele>
        <time>2021-07-17T06:05:39.000Z</time>
      </trkpt>
      <trkpt lat="45.23243" lon="5.74496">
        <ele>953.20001220703</ele>
        <time>2021-07-17T06:05:41.000Z</time>
      </trkpt>
      <trkpt lat="45.23242" lon="5.74495">
        <ele>952.79998779297</ele>
        <time>2021-07-17T06:05:42.000Z</time>
      </trkpt>
      <trkpt lat="45.23239" lon="5.74495">
        <ele>951.59997558594</ele>
        <time>2021-07-17T06:05:44.000Z</time>
      </trkpt>
      <trkpt lat="45.23233" lon="5.74492">
        <ele>950.59997558594</ele>
        <time>2021-07-17T06:05:47.000Z</time>
      </trkpt>
      <trkpt lat="45.23228" lon="5.74489">
        <ele>950.40002441406</ele>
        <time>2021-07-17T06:05:49.000Z</time>
      </trkpt>
      <trkpt lat="45.23221" lon="5.74487">
        <ele>949.40002441406</ele>
        <time>2021-07-17T06:05:52.000Z</time>
      </trkpt>
      <trkpt lat="45.23221" lon="5.74487">
        <ele>948.59997558594</ele>
        <time>2021-07-17T06:05:53.000Z</time>
      </trkpt>
      <trkpt lat="45.2322" lon="5.74487">
        <ele>948.20001220703</ele>
        <time>2021-07-17T06:05:54.000Z</time>
      </trkpt>
      <trkpt lat="45.2322" lon="5.74486">
        <ele>948</ele>
        <time>2021-07-17T06:05:55.000Z</time>
      </trkpt>
      <trkpt lat="45.23221" lon="5.74486">
        <ele>947.20001220703</ele>
        <time>2021-07-17T06:05:57.000Z</time>
      </trkpt>
      <trkpt lat="45.23221" lon="5.74486">
        <ele>947.20001220703</ele>
        <time>2021-07-17T06:05:58.000Z</time>
      </trkpt>
      <trkpt lat="45.23218" lon="5.74484">
        <ele>946.20001220703</ele>
        <time>2021-07-17T06:06:00.000Z</time>
      </trkpt>
      <trkpt lat="45.23217" lon="5.74482">
        <ele>945.59997558594</ele>
        <time>2021-07-17T06:06:02.000Z</time>
      </trkpt>
      <trkpt lat="45.23217" lon="5.74481">
        <ele>945.20001220703</ele>
        <time>2021-07-17T06:06:03.000Z</time>
      </trkpt>
      <trkpt lat="45.23217" lon="5.74479">
        <ele>945</ele>
        <time>2021-07-17T06:06:05.000Z</time>
      </trkpt>
      <trkpt lat="45.23216" lon="5.74479">
        <ele>944.40002441406</ele>
        <time>2021-07-17T06:06:06.000Z</time>
      </trkpt>
      <trkpt lat="45.23216" lon="5.74478">
        <ele>943.79998779297</ele>
        <time>2021-07-17T06:06:07.000Z</time>
      </trkpt>
      <trkpt lat="45.23215" lon="5.74476">
        <ele>943.59997558594</ele>
        <time>2021-07-17T06:06:09.000Z</time>
      </trkpt>
      <trkpt lat="45.23215" lon="5.74475">
        <ele>943.40002441406</ele>
        <time>2021-07-17T06:06:10.000Z</time>
      </trkpt>
      <trkpt lat="45.23215" lon="5.74475">
        <ele>943</ele>
        <time>2021-07-17T06:06:11.000Z</time>
      </trkpt>
      <trkpt lat="45.23215" lon="5.74476">
        <ele>943</ele>
        <time>2021-07-17T06:06:12.000Z</time>
      </trkpt>
      <trkpt lat="45.23214" lon="5.74476">
        <ele>942.59997558594</ele>
        <time>2021-07-17T06:06:13.000Z</time>
      </trkpt>
      <trkpt lat="45.23213" lon="5.74475">
        <ele>942</ele>
        <time>2021-07-17T06:06:14.000Z</time>
      </trkpt>
      <trkpt lat="45.23211" lon="5.74474">
        <ele>941.40002441406</ele>
        <time>2021-07-17T06:06:16.000Z</time>
      </trkpt>
      <trkpt lat="45.2321" lon="5.74474">
        <ele>940.40002441406</ele>
        <time>2021-07-17T06:06:18.000Z</time>
      </trkpt>
      <trkpt lat="45.23208" lon="5.74474">
        <ele>939.79998779297</ele>
        <time>2021-07-17T06:06:19.000Z</time>
      </trkpt>
      <trkpt lat="45.23206" lon="5.74475">
        <ele>939.59997558594</ele>
        <time>2021-07-17T06:06:21.000Z</time>
      </trkpt>
      <trkpt lat="45.23202" lon="5.74473">
        <ele>937.79998779297</ele>
        <time>2021-07-17T06:06:24.000Z</time>
      </trkpt>
      <trkpt lat="45.23198" lon="5.74471">
        <ele>937.59997558594</ele>
        <time>2021-07-17T06:06:28.000Z</time>
      </trkpt>
      <trkpt lat="45.23199" lon="5.7447">
        <ele>936.40002441406</ele>
        <time>2021-07-17T06:06:30.000Z</time>
      </trkpt>
      <trkpt lat="45.23197" lon="5.7447">
        <ele>935</ele>
        <time>2021-07-17T06:06:32.000Z</time>
      </trkpt>
      <trkpt lat="45.23195" lon="5.74469">
        <ele>933.20001220703</ele>
        <time>2021-07-17T06:06:36.000Z</time>
      </trkpt>
      <trkpt lat="45.23195" lon="5.7447">
        <ele>933</ele>
        <time>2021-07-17T06:06:37.000Z</time>
      </trkpt>
      <trkpt lat="45.23194" lon="5.74471">
        <ele>932.79998779297</ele>
        <time>2021-07-17T06:06:38.000Z</time>
      </trkpt>
      <trkpt lat="45.23188" lon="5.7447">
        <ele>931.20001220703</ele>
        <time>2021-07-17T06:06:41.000Z</time>
      </trkpt>
      <trkpt lat="45.23185" lon="5.7447">
        <ele>931</ele>
        <time>2021-07-17T06:06:42.000Z</time>
      </trkpt>
      <trkpt lat="45.23179" lon="5.74468">
        <ele>929.59997558594</ele>
        <time>2021-07-17T06:06:45.000Z</time>
      </trkpt>
      <trkpt lat="45.23174" lon="5.74467">
        <ele>929.20001220703</ele>
        <time>2021-07-17T06:06:48.000Z</time>
      </trkpt>
      <trkpt lat="45.2317" lon="5.74466">
        <ele>928.20001220703</ele>
        <time>2021-07-17T06:06:51.000Z</time>
      </trkpt>
      <trkpt lat="45.23167" lon="5.74466">
        <ele>927.40002441406</ele>
        <time>2021-07-17T06:06:53.000Z</time>
      </trkpt>
      <trkpt lat="45.23165" lon="5.74465">
        <ele>927.20001220703</ele>
        <time>2021-07-17T06:06:54.000Z</time>
      </trkpt>
      <trkpt lat="45.23165" lon="5.74465">
        <ele>926.79998779297</ele>
        <time>2021-07-17T06:06:55.000Z</time>
      </trkpt>
      <trkpt lat="45.23164" lon="5.74465">
        <ele>926</ele>
        <time>2021-07-17T06:06:56.000Z</time>
      </trkpt>
      <trkpt lat="45.23159" lon="5.74462">
        <ele>923.79998779297</ele>
        <time>2021-07-17T06:06:59.000Z</time>
      </trkpt>
      <trkpt lat="45.23158" lon="5.74461">
        <ele>923.59997558594</ele>
        <time>2021-07-17T06:07:00.000Z</time>
      </trkpt>
      <trkpt lat="45.23157" lon="5.7446">
        <ele>923.40002441406</ele>
        <time>2021-07-17T06:07:01.000Z</time>
      </trkpt>
      <trkpt lat="45.23156" lon="5.7446">
        <ele>923.20001220703</ele>
        <time>2021-07-17T06:07:03.000Z</time>
      </trkpt>
      <trkpt lat="45.23153" lon="5.74458">
        <ele>922.59997558594</ele>
        <time>2021-07-17T06:07:05.000Z</time>
      </trkpt>
      <trkpt lat="45.2315" lon="5.74458">
        <ele>921.40002441406</ele>
        <time>2021-07-17T06:07:07.000Z</time>
      </trkpt>
      <trkpt lat="45.23148" lon="5.74458">
        <ele>920.20001220703</ele>
        <time>2021-07-17T06:07:08.000Z</time>
      </trkpt>
      <trkpt lat="45.23145" lon="5.74458">
        <ele>920.20001220703</ele>
        <time>2021-07-17T06:07:09.000Z</time>
      </trkpt>
      <trkpt lat="45.23139" lon="5.74454">
        <ele>918.59997558594</ele>
        <time>2021-07-17T06:07:13.000Z</time>
      </trkpt>
      <trkpt lat="45.23137" lon="5.74453">
        <ele>918.59997558594</ele>
        <time>2021-07-17T06:07:14.000Z</time>
      </trkpt>
      <trkpt lat="45.23133" lon="5.74454">
        <ele>917.59997558594</ele>
        <time>2021-07-17T06:07:17.000Z</time>
      </trkpt>
      <trkpt lat="45.23131" lon="5.74454">
        <ele>916.79998779297</ele>
        <time>2021-07-17T06:07:18.000Z</time>
      </trkpt>
      <trkpt lat="45.23127" lon="5.74452">
        <ele>916</ele>
        <time>2021-07-17T06:07:20.000Z</time>
      </trkpt>
      <trkpt lat="45.23125" lon="5.74452">
        <ele>915.79998779297</ele>
        <time>2021-07-17T06:07:21.000Z</time>
      </trkpt>
      <trkpt lat="45.23123" lon="5.74451">
        <ele>915.40002441406</ele>
        <time>2021-07-17T06:07:22.000Z</time>
      </trkpt>
      <trkpt lat="45.23122" lon="5.74451">
        <ele>914.79998779297</ele>
        <time>2021-07-17T06:07:23.000Z</time>
      </trkpt>
      <trkpt lat="45.23118" lon="5.74452">
        <ele>914.20001220703</ele>
        <time>2021-07-17T06:07:26.000Z</time>
      </trkpt>
      <trkpt lat="45.23117" lon="5.74452">
        <ele>913.59997558594</ele>
        <time>2021-07-17T06:07:27.000Z</time>
      </trkpt>
      <trkpt lat="45.23116" lon="5.74452">
        <ele>913.59997558594</ele>
        <time>2021-07-17T06:07:28.000Z</time>
      </trkpt>
      <trkpt lat="45.23111" lon="5.74453">
        <ele>912</ele>
        <time>2021-07-17T06:07:31.000Z</time>
      </trkpt>
      <trkpt lat="45.2311" lon="5.74453">
        <ele>911.59997558594</ele>
        <time>2021-07-17T06:07:32.000Z</time>
      </trkpt>
      <trkpt lat="45.23107" lon="5.74452">
        <ele>911.40002441406</ele>
        <time>2021-07-17T06:07:34.000Z</time>
      </trkpt>
      <trkpt lat="45.23105" lon="5.74452">
        <ele>910.79998779297</ele>
        <time>2021-07-17T06:07:36.000Z</time>
      </trkpt>
      <trkpt lat="45.23102" lon="5.7445">
        <ele>910.59997558594</ele>
        <time>2021-07-17T06:07:38.000Z</time>
      </trkpt>
      <trkpt lat="45.231" lon="5.74448">
        <ele>910</ele>
        <time>2021-07-17T06:07:39.000Z</time>
      </trkpt>
      <trkpt lat="45.23097" lon="5.74445">
        <ele>909.59997558594</ele>
        <time>2021-07-17T06:07:41.000Z</time>
      </trkpt>
      <trkpt lat="45.23095" lon="5.74444">
        <ele>909.20001220703</ele>
        <time>2021-07-17T06:07:43.000Z</time>
      </trkpt>
      <trkpt lat="45.23092" lon="5.74443">
        <ele>908.59997558594</ele>
        <time>2021-07-17T06:07:45.000Z</time>
      </trkpt>
      <trkpt lat="45.2309" lon="5.74444">
        <ele>907.40002441406</ele>
        <time>2021-07-17T06:07:47.000Z</time>
      </trkpt>
      <trkpt lat="45.23086" lon="5.74443">
        <ele>906.59997558594</ele>
        <time>2021-07-17T06:07:49.000Z</time>
      </trkpt>
      <trkpt lat="45.23084" lon="5.74441">
        <ele>906.40002441406</ele>
        <time>2021-07-17T06:07:50.000Z</time>
      </trkpt>
      <trkpt lat="45.23081" lon="5.7444">
        <ele>905.40002441406</ele>
        <time>2021-07-17T06:07:53.000Z</time>
      </trkpt>
      <trkpt lat="45.2308" lon="5.74439">
        <ele>904.40002441406</ele>
        <time>2021-07-17T06:07:54.000Z</time>
      </trkpt>
      <trkpt lat="45.23078" lon="5.74438">
        <ele>904.40002441406</ele>
        <time>2021-07-17T06:07:56.000Z</time>
      </trkpt>
      <trkpt lat="45.23076" lon="5.74437">
        <ele>904</ele>
        <time>2021-07-17T06:07:58.000Z</time>
      </trkpt>
      <trkpt lat="45.23073" lon="5.74434">
        <ele>902.20001220703</ele>
        <time>2021-07-17T06:08:01.000Z</time>
      </trkpt>
      <trkpt lat="45.2307" lon="5.74433">
        <ele>902.20001220703</ele>
        <time>2021-07-17T06:08:02.000Z</time>
      </trkpt>
      <trkpt lat="45.23066" lon="5.74431">
        <ele>901</ele>
        <time>2021-07-17T06:08:04.000Z</time>
      </trkpt>
      <trkpt lat="45.23062" lon="5.74431">
        <ele>900</ele>
        <time>2021-07-17T06:08:07.000Z</time>
      </trkpt>
      <trkpt lat="45.23061" lon="5.7443">
        <ele>899</ele>
        <time>2021-07-17T06:08:08.000Z</time>
      </trkpt>
      <trkpt lat="45.23057" lon="5.74429">
        <ele>899</ele>
        <time>2021-07-17T06:08:10.000Z</time>
      </trkpt>
      <trkpt lat="45.23055" lon="5.74429">
        <ele>898.40002441406</ele>
        <time>2021-07-17T06:08:11.000Z</time>
      </trkpt>
      <trkpt lat="45.2305" lon="5.74427">
        <ele>897.59997558594</ele>
        <time>2021-07-17T06:08:13.000Z</time>
      </trkpt>
      <trkpt lat="45.23048" lon="5.74427">
        <ele>897.20001220703</ele>
        <time>2021-07-17T06:08:14.000Z</time>
      </trkpt>
      <trkpt lat="45.23048" lon="5.74426">
        <ele>896.40002441406</ele>
        <time>2021-07-17T06:08:15.000Z</time>
      </trkpt>
      <trkpt lat="45.23041" lon="5.74425">
        <ele>896</ele>
        <time>2021-07-17T06:08:18.000Z</time>
      </trkpt>
      <trkpt lat="45.23036" lon="5.74424">
        <ele>895.20001220703</ele>
        <time>2021-07-17T06:08:22.000Z</time>
      </trkpt>
      <trkpt lat="45.23032" lon="5.74421">
        <ele>893.59997558594</ele>
        <time>2021-07-17T06:08:23.000Z</time>
      </trkpt>
      <trkpt lat="45.2303" lon="5.7442">
        <ele>893.40002441406</ele>
        <time>2021-07-17T06:08:24.000Z</time>
      </trkpt>
      <trkpt lat="45.23026" lon="5.74418">
        <ele>892.20001220703</ele>
        <time>2021-07-17T06:08:26.000Z</time>
      </trkpt>
      <trkpt lat="45.23025" lon="5.74418">
        <ele>892</ele>
        <time>2021-07-17T06:08:27.000Z</time>
      </trkpt>
      <trkpt lat="45.23022" lon="5.74418">
        <ele>891.79998779297</ele>
        <time>2021-07-17T06:08:28.000Z</time>
      </trkpt>
      <trkpt lat="45.23018" lon="5.74418">
        <ele>891</ele>
        <time>2021-07-17T06:08:31.000Z</time>
      </trkpt>
      <trkpt lat="45.23016" lon="5.74419">
        <ele>890.59997558594</ele>
        <time>2021-07-17T06:08:32.000Z</time>
      </trkpt>
      <trkpt lat="45.23012" lon="5.74419">
        <ele>889.40002441406</ele>
        <time>2021-07-17T06:08:34.000Z</time>
      </trkpt>
      <trkpt lat="45.2301" lon="5.74419">
        <ele>889.20001220703</ele>
        <time>2021-07-17T06:08:35.000Z</time>
      </trkpt>
      <trkpt lat="45.23009" lon="5.74419">
        <ele>888</ele>
        <time>2021-07-17T06:08:36.000Z</time>
      </trkpt>
      <trkpt lat="45.23004" lon="5.74418">
        <ele>887.20001220703</ele>
        <time>2021-07-17T06:08:39.000Z</time>
      </trkpt>
      <trkpt lat="45.23002" lon="5.74418">
        <ele>886.79998779297</ele>
        <time>2021-07-17T06:08:40.000Z</time>
      </trkpt>
      <trkpt lat="45.23" lon="5.74418">
        <ele>886.40002441406</ele>
        <time>2021-07-17T06:08:41.000Z</time>
      </trkpt>
      <trkpt lat="45.22999" lon="5.74418">
        <ele>885.40002441406</ele>
        <time>2021-07-17T06:08:42.000Z</time>
      </trkpt>
      <trkpt lat="45.22996" lon="5.74417">
        <ele>885.40002441406</ele>
        <time>2021-07-17T06:08:43.000Z</time>
      </trkpt>
      <trkpt lat="45.22994" lon="5.74419">
        <ele>884.59997558594</ele>
        <time>2021-07-17T06:08:45.000Z</time>
      </trkpt>
      <trkpt lat="45.22993" lon="5.74419">
        <ele>884.20001220703</ele>
        <time>2021-07-17T06:08:46.000Z</time>
      </trkpt>
      <trkpt lat="45.22991" lon="5.74419">
        <ele>883.59997558594</ele>
        <time>2021-07-17T06:08:47.000Z</time>
      </trkpt>
      <trkpt lat="45.2299" lon="5.7442">
        <ele>883</ele>
        <time>2021-07-17T06:08:48.000Z</time>
      </trkpt>
      <trkpt lat="45.22984" lon="5.74418">
        <ele>882.40002441406</ele>
        <time>2021-07-17T06:08:51.000Z</time>
      </trkpt>
      <trkpt lat="45.22983" lon="5.74417">
        <ele>882</ele>
        <time>2021-07-17T06:08:52.000Z</time>
      </trkpt>
      <trkpt lat="45.22982" lon="5.74417">
        <ele>880.79998779297</ele>
        <time>2021-07-17T06:08:54.000Z</time>
      </trkpt>
      <trkpt lat="45.2298" lon="5.74418">
        <ele>880.20001220703</ele>
        <time>2021-07-17T06:08:57.000Z</time>
      </trkpt>
      <trkpt lat="45.2298" lon="5.74419">
        <ele>880.20001220703</ele>
        <time>2021-07-17T06:08:58.000Z</time>
      </trkpt>
      <trkpt lat="45.22979" lon="5.74418">
        <ele>879.40002441406</ele>
        <time>2021-07-17T06:08:59.000Z</time>
      </trkpt>
      <trkpt lat="45.22978" lon="5.74418">
        <ele>879</ele>
        <time>2021-07-17T06:09:00.000Z</time>
      </trkpt>
      <trkpt lat="45.22977" lon="5.74418">
        <ele>878.20001220703</ele>
        <time>2021-07-17T06:09:01.000Z</time>
      </trkpt>
      <trkpt lat="45.22974" lon="5.74417">
        <ele>876.79998779297</ele>
        <time>2021-07-17T06:09:04.000Z</time>
      </trkpt>
      <trkpt lat="45.22974" lon="5.74418">
        <ele>876.40002441406</ele>
        <time>2021-07-17T06:09:05.000Z</time>
      </trkpt>
      <trkpt lat="45.22975" lon="5.74419">
        <ele>875.79998779297</ele>
        <time>2021-07-17T06:09:06.000Z</time>
      </trkpt>
      <trkpt lat="45.22975" lon="5.74419">
        <ele>875.40002441406</ele>
        <time>2021-07-17T06:09:07.000Z</time>
      </trkpt>
      <trkpt lat="45.22975" lon="5.7442">
        <ele>875.20001220703</ele>
        <time>2021-07-17T06:09:08.000Z</time>
      </trkpt>
      <trkpt lat="45.22972" lon="5.74421">
        <ele>874.20001220703</ele>
        <time>2021-07-17T06:09:10.000Z</time>
      </trkpt>
      <trkpt lat="45.22971" lon="5.7442">
        <ele>873.79998779297</ele>
        <time>2021-07-17T06:09:11.000Z</time>
      </trkpt>
      <trkpt lat="45.22971" lon="5.74421">
        <ele>872.79998779297</ele>
        <time>2021-07-17T06:09:13.000Z</time>
      </trkpt>
      <trkpt lat="45.22969" lon="5.74423">
        <ele>872.40002441406</ele>
        <time>2021-07-17T06:09:15.000Z</time>
      </trkpt>
      <trkpt lat="45.22968" lon="5.74424">
        <ele>872.40002441406</ele>
        <time>2021-07-17T06:09:16.000Z</time>
      </trkpt>
      <trkpt lat="45.22966" lon="5.74423">
        <ele>871.20001220703</ele>
        <time>2021-07-17T06:09:17.000Z</time>
      </trkpt>
      <trkpt lat="45.22961" lon="5.74424">
        <ele>870.79998779297</ele>
        <time>2021-07-17T06:09:20.000Z</time>
      </trkpt>
      <trkpt lat="45.22958" lon="5.74426">
        <ele>870.40002441406</ele>
        <time>2021-07-17T06:09:22.000Z</time>
      </trkpt>
      <trkpt lat="45.22957" lon="5.74427">
        <ele>869.20001220703</ele>
        <time>2021-07-17T06:09:23.000Z</time>
      </trkpt>
      <trkpt lat="45.22956" lon="5.74427">
        <ele>868.59997558594</ele>
        <time>2021-07-17T06:09:24.000Z</time>
      </trkpt>
      <trkpt lat="45.22953" lon="5.74426">
        <ele>868</ele>
        <time>2021-07-17T06:09:26.000Z</time>
      </trkpt>
      <trkpt lat="45.22949" lon="5.74425">
        <ele>867.40002441406</ele>
        <time>2021-07-17T06:09:28.000Z</time>
      </trkpt>
      <trkpt lat="45.22947" lon="5.74425">
        <ele>866.40002441406</ele>
        <time>2021-07-17T06:09:30.000Z</time>
      </trkpt>
      <trkpt lat="45.22945" lon="5.74426">
        <ele>866.20001220703</ele>
        <time>2021-07-17T06:09:31.000Z</time>
      </trkpt>
      <trkpt lat="45.22941" lon="5.74426">
        <ele>865.40002441406</ele>
        <time>2021-07-17T06:09:33.000Z</time>
      </trkpt>
      <trkpt lat="45.22939" lon="5.74426">
        <ele>865.40002441406</ele>
        <time>2021-07-17T06:09:34.000Z</time>
      </trkpt>
      <trkpt lat="45.22938" lon="5.74426">
        <ele>864.79998779297</ele>
        <time>2021-07-17T06:09:35.000Z</time>
      </trkpt>
      <trkpt lat="45.22937" lon="5.74426">
        <ele>864.59997558594</ele>
        <time>2021-07-17T06:09:36.000Z</time>
      </trkpt>
      <trkpt lat="45.22936" lon="5.74426">
        <ele>864</ele>
        <time>2021-07-17T06:09:37.000Z</time>
      </trkpt>
      <trkpt lat="45.22935" lon="5.74426">
        <ele>862.79998779297</ele>
        <time>2021-07-17T06:09:39.000Z</time>
      </trkpt>
      <trkpt lat="45.2293" lon="5.74427">
        <ele>861.79998779297</ele>
        <time>2021-07-17T06:09:42.000Z</time>
      </trkpt>
      <trkpt lat="45.22927" lon="5.7443">
        <ele>860.59997558594</ele>
        <time>2021-07-17T06:09:44.000Z</time>
      </trkpt>
      <trkpt lat="45.22925" lon="5.74433">
        <ele>859.79998779297</ele>
        <time>2021-07-17T06:09:46.000Z</time>
      </trkpt>
      <trkpt lat="45.22925" lon="5.74435">
        <ele>859.40002441406</ele>
        <time>2021-07-17T06:09:47.000Z</time>
      </trkpt>
      <trkpt lat="45.22925" lon="5.74438">
        <ele>859</ele>
        <time>2021-07-17T06:09:49.000Z</time>
      </trkpt>
      <trkpt lat="45.22923" lon="5.74438">
        <ele>858</ele>
        <time>2021-07-17T06:09:50.000Z</time>
      </trkpt>
      <trkpt lat="45.22922" lon="5.74438">
        <ele>857.40002441406</ele>
        <time>2021-07-17T06:09:51.000Z</time>
      </trkpt>
      <trkpt lat="45.2292" lon="5.74436">
        <ele>856.40002441406</ele>
        <time>2021-07-17T06:09:53.000Z</time>
      </trkpt>
      <trkpt lat="45.22917" lon="5.74434">
        <ele>855.20001220703</ele>
        <time>2021-07-17T06:09:56.000Z</time>
      </trkpt>
      <trkpt lat="45.22915" lon="5.74434">
        <ele>854.79998779297</ele>
        <time>2021-07-17T06:09:59.000Z</time>
      </trkpt>
      <trkpt lat="45.22914" lon="5.74433">
        <ele>854</ele>
        <time>2021-07-17T06:10:00.000Z</time>
      </trkpt>
      <trkpt lat="45.22912" lon="5.74432">
        <ele>852.79998779297</ele>
        <time>2021-07-17T06:10:03.000Z</time>
      </trkpt>
      <trkpt lat="45.22912" lon="5.74432">
        <ele>852.40002441406</ele>
        <time>2021-07-17T06:10:04.000Z</time>
      </trkpt>
      <trkpt lat="45.2291" lon="5.74432">
        <ele>851.79998779297</ele>
        <time>2021-07-17T06:10:05.000Z</time>
      </trkpt>
      <trkpt lat="45.22909" lon="5.74433">
        <ele>851.79998779297</ele>
        <time>2021-07-17T06:10:06.000Z</time>
      </trkpt>
      <trkpt lat="45.22903" lon="5.74435">
        <ele>850.20001220703</ele>
        <time>2021-07-17T06:10:09.000Z</time>
      </trkpt>
      <trkpt lat="45.22897" lon="5.74435">
        <ele>849.59997558594</ele>
        <time>2021-07-17T06:10:14.000Z</time>
      </trkpt>
      <trkpt lat="45.22897" lon="5.74434">
        <ele>849.59997558594</ele>
        <time>2021-07-17T06:10:15.000Z</time>
      </trkpt>
      <trkpt lat="45.22898" lon="5.74433">
        <ele>849.59997558594</ele>
        <time>2021-07-17T06:10:17.000Z</time>
      </trkpt>
      <trkpt lat="45.22899" lon="5.74434">
        <ele>849.79998779297</ele>
        <time>2021-07-17T06:10:20.000Z</time>
      </trkpt>
      <trkpt lat="45.22898" lon="5.74434">
        <ele>849.59997558594</ele>
        <time>2021-07-17T06:10:21.000Z</time>
      </trkpt>
      <trkpt lat="45.229" lon="5.74436">
        <ele>849.40002441406</ele>
        <time>2021-07-17T06:10:26.000Z</time>
      </trkpt>
      <trkpt lat="45.229" lon="5.74437">
        <ele>849.40002441406</ele>
        <time>2021-07-17T06:10:27.000Z</time>
      </trkpt>
      <trkpt lat="45.22903" lon="5.74439">
        <ele>849.40002441406</ele>
        <time>2021-07-17T06:10:34.000Z</time>
      </trkpt>
      <trkpt lat="45.22906" lon="5.74443">
        <ele>849.20001220703</ele>
        <time>2021-07-17T06:10:38.000Z</time>
      </trkpt>
      <trkpt lat="45.22907" lon="5.74444">
        <ele>849</ele>
        <time>2021-07-17T06:10:39.000Z</time>
      </trkpt>
      <trkpt lat="45.22908" lon="5.74445">
        <ele>848.59997558594</ele>
        <time>2021-07-17T06:10:40.000Z</time>
      </trkpt>
      <trkpt lat="45.22914" lon="5.74449">
        <ele>848</ele>
        <time>2021-07-17T06:10:43.000Z</time>
      </trkpt>
      <trkpt lat="45.22916" lon="5.7445">
        <ele>848</ele>
        <time>2021-07-17T06:10:44.000Z</time>
      </trkpt>
      <trkpt lat="45.22926" lon="5.74454">
        <ele>847.40002441406</ele>
        <time>2021-07-17T06:10:47.000Z</time>
      </trkpt>
      <trkpt lat="45.22927" lon="5.74454">
        <ele>846.79998779297</ele>
        <time>2021-07-17T06:10:49.000Z</time>
      </trkpt>
      <trkpt lat="45.22928" lon="5.74453">
        <ele>846.59997558594</ele>
        <time>2021-07-17T06:10:50.000Z</time>
      </trkpt>
      <trkpt lat="45.22931" lon="5.74455">
        <ele>846.20001220703</ele>
        <time>2021-07-17T06:10:52.000Z</time>
      </trkpt>
      <trkpt lat="45.22932" lon="5.74456">
        <ele>846.20001220703</ele>
        <time>2021-07-17T06:10:53.000Z</time>
      </trkpt>
      <trkpt lat="45.22933" lon="5.74458">
        <ele>845.59997558594</ele>
        <time>2021-07-17T06:10:54.000Z</time>
      </trkpt>
      <trkpt lat="45.22934" lon="5.74459">
        <ele>845.40002441406</ele>
        <time>2021-07-17T06:10:55.000Z</time>
      </trkpt>
      <trkpt lat="45.22934" lon="5.74462">
        <ele>844.79998779297</ele>
        <time>2021-07-17T06:10:57.000Z</time>
      </trkpt>
      <trkpt lat="45.22935" lon="5.74463">
        <ele>844.59997558594</ele>
        <time>2021-07-17T06:10:58.000Z</time>
      </trkpt>
      <trkpt lat="45.2294" lon="5.74465">
        <ele>844.59997558594</ele>
        <time>2021-07-17T06:11:00.000Z</time>
      </trkpt>
      <trkpt lat="45.22942" lon="5.74466">
        <ele>844.40002441406</ele>
        <time>2021-07-17T06:11:01.000Z</time>
      </trkpt>
      <trkpt lat="45.22944" lon="5.74468">
        <ele>844.40002441406</ele>
        <time>2021-07-17T06:11:03.000Z</time>
      </trkpt>
      <trkpt lat="45.22948" lon="5.7447">
        <ele>843.59997558594</ele>
        <time>2021-07-17T06:11:05.000Z</time>
      </trkpt>
      <trkpt lat="45.2295" lon="5.7447">
        <ele>843</ele>
        <time>2021-07-17T06:11:06.000Z</time>
      </trkpt>
      <trkpt lat="45.22953" lon="5.74472">
        <ele>842.40002441406</ele>
        <time>2021-07-17T06:11:09.000Z</time>
      </trkpt>
      <trkpt lat="45.22953" lon="5.74474">
        <ele>842.20001220703</ele>
        <time>2021-07-17T06:11:11.000Z</time>
      </trkpt>
      <trkpt lat="45.22953" lon="5.74474">
        <ele>841.79998779297</ele>
        <time>2021-07-17T06:11:12.000Z</time>
      </trkpt>
      <trkpt lat="45.22954" lon="5.74481">
        <ele>841</ele>
        <time>2021-07-17T06:11:16.000Z</time>
      </trkpt>
      <trkpt lat="45.22956" lon="5.74484">
        <ele>841</ele>
        <time>2021-07-17T06:11:18.000Z</time>
      </trkpt>
      <trkpt lat="45.22957" lon="5.74486">
        <ele>840</ele>
        <time>2021-07-17T06:11:19.000Z</time>
      </trkpt>
      <trkpt lat="45.22957" lon="5.74488">
        <ele>839.79998779297</ele>
        <time>2021-07-17T06:11:20.000Z</time>
      </trkpt>
      <trkpt lat="45.22958" lon="5.74492">
        <ele>839.40002441406</ele>
        <time>2021-07-17T06:11:22.000Z</time>
      </trkpt>
      <trkpt lat="45.2296" lon="5.74495">
        <ele>839</ele>
        <time>2021-07-17T06:11:24.000Z</time>
      </trkpt>
      <trkpt lat="45.2296" lon="5.74497">
        <ele>838.79998779297</ele>
        <time>2021-07-17T06:11:25.000Z</time>
      </trkpt>
      <trkpt lat="45.22961" lon="5.745">
        <ele>838</ele>
        <time>2021-07-17T06:11:27.000Z</time>
      </trkpt>
      <trkpt lat="45.22959" lon="5.745">
        <ele>837.79998779297</ele>
        <time>2021-07-17T06:11:28.000Z</time>
      </trkpt>
      <trkpt lat="45.22961" lon="5.74503">
        <ele>837</ele>
        <time>2021-07-17T06:11:30.000Z</time>
      </trkpt>
      <trkpt lat="45.22964" lon="5.74506">
        <ele>836.79998779297</ele>
        <time>2021-07-17T06:11:32.000Z</time>
      </trkpt>
      <trkpt lat="45.22968" lon="5.74511">
        <ele>835.79998779297</ele>
        <time>2021-07-17T06:11:36.000Z</time>
      </trkpt>
      <trkpt lat="45.2297" lon="5.74513">
        <ele>835.79998779297</ele>
        <time>2021-07-17T06:11:37.000Z</time>
      </trkpt>
      <trkpt lat="45.22971" lon="5.74514">
        <ele>834.79998779297</ele>
        <time>2021-07-17T06:11:38.000Z</time>
      </trkpt>
      <trkpt lat="45.22972" lon="5.74515">
        <ele>834.59997558594</ele>
        <time>2021-07-17T06:11:39.000Z</time>
      </trkpt>
      <trkpt lat="45.22983" lon="5.74523">
        <ele>833.59997558594</ele>
        <time>2021-07-17T06:11:43.000Z</time>
      </trkpt>
      <trkpt lat="45.22988" lon="5.74529">
        <ele>832.40002441406</ele>
        <time>2021-07-17T06:11:46.000Z</time>
      </trkpt>
      <trkpt lat="45.22994" lon="5.74534">
        <ele>831.79998779297</ele>
        <time>2021-07-17T06:11:48.000Z</time>
      </trkpt>
      <trkpt lat="45.23001" lon="5.74541">
        <ele>831</ele>
        <time>2021-07-17T06:11:51.000Z</time>
      </trkpt>
      <trkpt lat="45.23009" lon="5.74549">
        <ele>830.40002441406</ele>
        <time>2021-07-17T06:11:54.000Z</time>
      </trkpt>
      <trkpt lat="45.23017" lon="5.74554">
        <ele>829.40002441406</ele>
        <time>2021-07-17T06:11:57.000Z</time>
      </trkpt>
      <trkpt lat="45.23023" lon="5.7456">
        <ele>828.79998779297</ele>
        <time>2021-07-17T06:12:00.000Z</time>
      </trkpt>
      <trkpt lat="45.23027" lon="5.74564">
        <ele>828.20001220703</ele>
        <time>2021-07-17T06:12:02.000Z</time>
      </trkpt>
      <trkpt lat="45.23037" lon="5.74572">
        <ele>827.40002441406</ele>
        <time>2021-07-17T06:12:06.000Z</time>
      </trkpt>
      <trkpt lat="45.2304" lon="5.74574">
        <ele>827</ele>
        <time>2021-07-17T06:12:07.000Z</time>
      </trkpt>
      <trkpt lat="45.23044" lon="5.74581">
        <ele>825.59997558594</ele>
        <time>2021-07-17T06:12:10.000Z</time>
      </trkpt>
      <trkpt lat="45.23046" lon="5.74585">
        <ele>825.40002441406</ele>
        <time>2021-07-17T06:12:12.000Z</time>
      </trkpt>
      <trkpt lat="45.23054" lon="5.74598">
        <ele>824.20001220703</ele>
        <time>2021-07-17T06:12:17.000Z</time>
      </trkpt>
      <trkpt lat="45.23054" lon="5.74601">
        <ele>824</ele>
        <time>2021-07-17T06:12:18.000Z</time>
      </trkpt>
      <trkpt lat="45.23053" lon="5.74602">
        <ele>823.79998779297</ele>
        <time>2021-07-17T06:12:19.000Z</time>
      </trkpt>
      <trkpt lat="45.23052" lon="5.74603">
        <ele>823.20001220703</ele>
        <time>2021-07-17T06:12:20.000Z</time>
      </trkpt>
      <trkpt lat="45.23051" lon="5.74604">
        <ele>823.20001220703</ele>
        <time>2021-07-17T06:12:21.000Z</time>
      </trkpt>
      <trkpt lat="45.2305" lon="5.74605">
        <ele>823.20001220703</ele>
        <time>2021-07-17T06:12:22.000Z</time>
      </trkpt>
      <trkpt lat="45.2305" lon="5.7461">
        <ele>822.59997558594</ele>
        <time>2021-07-17T06:12:24.000Z</time>
      </trkpt>
      <trkpt lat="45.23054" lon="5.74616">
        <ele>822.20001220703</ele>
        <time>2021-07-17T06:12:26.000Z</time>
      </trkpt>
      <trkpt lat="45.23054" lon="5.74618">
        <ele>822</ele>
        <time>2021-07-17T06:12:27.000Z</time>
      </trkpt>
      <trkpt lat="45.23056" lon="5.74622">
        <ele>821.59997558594</ele>
        <time>2021-07-17T06:12:28.000Z</time>
      </trkpt>
      <trkpt lat="45.23059" lon="5.74631">
        <ele>821</ele>
        <time>2021-07-17T06:12:31.000Z</time>
      </trkpt>
      <trkpt lat="45.23059" lon="5.74634">
        <ele>820.79998779297</ele>
        <time>2021-07-17T06:12:32.000Z</time>
      </trkpt>
      <trkpt lat="45.23063" lon="5.74639">
        <ele>820</ele>
        <time>2021-07-17T06:12:34.000Z</time>
      </trkpt>
      <trkpt lat="45.23067" lon="5.74644">
        <ele>819.79998779297</ele>
        <time>2021-07-17T06:12:36.000Z</time>
      </trkpt>
      <trkpt lat="45.2307" lon="5.74648">
        <ele>819.20001220703</ele>
        <time>2021-07-17T06:12:38.000Z</time>
      </trkpt>
      <trkpt lat="45.23071" lon="5.74651">
        <ele>818.79998779297</ele>
        <time>2021-07-17T06:12:40.000Z</time>
      </trkpt>
      <trkpt lat="45.23079" lon="5.74658">
        <ele>818.59997558594</ele>
        <time>2021-07-17T06:12:44.000Z</time>
      </trkpt>
      <trkpt lat="45.23081" lon="5.7466">
        <ele>818</ele>
        <time>2021-07-17T06:12:45.000Z</time>
      </trkpt>
      <trkpt lat="45.23085" lon="5.74664">
        <ele>817.40002441406</ele>
        <time>2021-07-17T06:12:47.000Z</time>
      </trkpt>
      <trkpt lat="45.23088" lon="5.74667">
        <ele>817.20001220703</ele>
        <time>2021-07-17T06:12:48.000Z</time>
      </trkpt>
      <trkpt lat="45.23089" lon="5.74671">
        <ele>816.59997558594</ele>
        <time>2021-07-17T06:12:50.000Z</time>
      </trkpt>
      <trkpt lat="45.2309" lon="5.74674">
        <ele>816.59997558594</ele>
        <time>2021-07-17T06:12:51.000Z</time>
      </trkpt>
      <trkpt lat="45.23091" lon="5.74676">
        <ele>816.40002441406</ele>
        <time>2021-07-17T06:12:52.000Z</time>
      </trkpt>
      <trkpt lat="45.23094" lon="5.74681">
        <ele>815.40002441406</ele>
        <time>2021-07-17T06:12:54.000Z</time>
      </trkpt>
      <trkpt lat="45.23093" lon="5.74684">
        <ele>815</ele>
        <time>2021-07-17T06:12:55.000Z</time>
      </trkpt>
      <trkpt lat="45.23095" lon="5.74687">
        <ele>815</ele>
        <time>2021-07-17T06:12:56.000Z</time>
      </trkpt>
      <trkpt lat="45.23097" lon="5.74691">
        <ele>814.40002441406</ele>
        <time>2021-07-17T06:12:57.000Z</time>
      </trkpt>
      <trkpt lat="45.23109" lon="5.747">
        <ele>813.79998779297</ele>
        <time>2021-07-17T06:13:00.000Z</time>
      </trkpt>
      <trkpt lat="45.23109" lon="5.74702">
        <ele>813.79998779297</ele>
        <time>2021-07-17T06:13:01.000Z</time>
      </trkpt>
      <trkpt lat="45.2311" lon="5.74704">
        <ele>812.59997558594</ele>
        <time>2021-07-17T06:13:02.000Z</time>
      </trkpt>
      <trkpt lat="45.23113" lon="5.7471">
        <ele>812.40002441406</ele>
        <time>2021-07-17T06:13:05.000Z</time>
      </trkpt>
      <trkpt lat="45.23123" lon="5.74721">
        <ele>811</ele>
        <time>2021-07-17T06:13:09.000Z</time>
      </trkpt>
      <trkpt lat="45.23128" lon="5.74724">
        <ele>810.59997558594</ele>
        <time>2021-07-17T06:13:10.000Z</time>
      </trkpt>
      <trkpt lat="45.23144" lon="5.74732">
        <ele>810.20001220703</ele>
        <time>2021-07-17T06:13:13.000Z</time>
      </trkpt>
      <trkpt lat="45.23143" lon="5.74734">
        <ele>809.79998779297</ele>
        <time>2021-07-17T06:13:14.000Z</time>
      </trkpt>
      <trkpt lat="45.23142" lon="5.74737">
        <ele>809.20001220703</ele>
        <time>2021-07-17T06:13:15.000Z</time>
      </trkpt>
      <trkpt lat="45.23143" lon="5.74744">
        <ele>808.79998779297</ele>
        <time>2021-07-17T06:13:17.000Z</time>
      </trkpt>
      <trkpt lat="45.23145" lon="5.74746">
        <ele>808</ele>
        <time>2021-07-17T06:13:18.000Z</time>
      </trkpt>
      <trkpt lat="45.23152" lon="5.74753">
        <ele>807.79998779297</ele>
        <time>2021-07-17T06:13:20.000Z</time>
      </trkpt>
      <trkpt lat="45.23169" lon="5.74767">
        <ele>806.40002441406</ele>
        <time>2021-07-17T06:13:25.000Z</time>
      </trkpt>
      <trkpt lat="45.23171" lon="5.7477">
        <ele>806.40002441406</ele>
        <time>2021-07-17T06:13:26.000Z</time>
      </trkpt>
      <trkpt lat="45.23181" lon="5.74783">
        <ele>805</ele>
        <time>2021-07-17T06:13:30.000Z</time>
      </trkpt>
      <trkpt lat="45.23184" lon="5.74787">
        <ele>805</ele>
        <time>2021-07-17T06:13:31.000Z</time>
      </trkpt>
      <trkpt lat="45.23196" lon="5.74799">
        <ele>803.79998779297</ele>
        <time>2021-07-17T06:13:34.000Z</time>
      </trkpt>
      <trkpt lat="45.23207" lon="5.74813">
        <ele>803</ele>
        <time>2021-07-17T06:13:38.000Z</time>
      </trkpt>
      <trkpt lat="45.2321" lon="5.74817">
        <ele>802.79998779297</ele>
        <time>2021-07-17T06:13:39.000Z</time>
      </trkpt>
      <trkpt lat="45.23216" lon="5.74826">
        <ele>801.59997558594</ele>
        <time>2021-07-17T06:13:42.000Z</time>
      </trkpt>
      <trkpt lat="45.23217" lon="5.74829">
        <ele>801.59997558594</ele>
        <time>2021-07-17T06:13:43.000Z</time>
      </trkpt>
      <trkpt lat="45.23217" lon="5.74835">
        <ele>801</ele>
        <time>2021-07-17T06:13:46.000Z</time>
      </trkpt>
      <trkpt lat="45.23218" lon="5.74837">
        <ele>800.20001220703</ele>
        <time>2021-07-17T06:13:48.000Z</time>
      </trkpt>
      <trkpt lat="45.23219" lon="5.74838">
        <ele>800</ele>
        <time>2021-07-17T06:13:49.000Z</time>
      </trkpt>
      <trkpt lat="45.2322" lon="5.74838">
        <ele>799.40002441406</ele>
        <time>2021-07-17T06:13:50.000Z</time>
      </trkpt>
      <trkpt lat="45.2322" lon="5.74839">
        <ele>799</ele>
        <time>2021-07-17T06:13:51.000Z</time>
      </trkpt>
      <trkpt lat="45.23224" lon="5.74844">
        <ele>798.20001220703</ele>
        <time>2021-07-17T06:13:55.000Z</time>
      </trkpt>
      <trkpt lat="45.23225" lon="5.74846">
        <ele>797.40002441406</ele>
        <time>2021-07-17T06:13:56.000Z</time>
      </trkpt>
      <trkpt lat="45.23227" lon="5.74852">
        <ele>797</ele>
        <time>2021-07-17T06:13:58.000Z</time>
      </trkpt>
      <trkpt lat="45.23234" lon="5.74869">
        <ele>796.40002441406</ele>
        <time>2021-07-17T06:14:02.000Z</time>
      </trkpt>
      <trkpt lat="45.23233" lon="5.74875">
        <ele>795.59997558594</ele>
        <time>2021-07-17T06:14:04.000Z</time>
      </trkpt>
      <trkpt lat="45.23234" lon="5.74879">
        <ele>795</ele>
        <time>2021-07-17T06:14:06.000Z</time>
      </trkpt>
      <trkpt lat="45.23242" lon="5.7489">
        <ele>794</ele>
        <time>2021-07-17T06:14:10.000Z</time>
      </trkpt>
      <trkpt lat="45.2325" lon="5.74901">
        <ele>793</ele>
        <time>2021-07-17T06:14:14.000Z</time>
      </trkpt>
      <trkpt lat="45.2325" lon="5.74904">
        <ele>793</ele>
        <time>2021-07-17T06:14:15.000Z</time>
      </trkpt>
      <trkpt lat="45.23253" lon="5.74909">
        <ele>791.79998779297</ele>
        <time>2021-07-17T06:14:17.000Z</time>
      </trkpt>
      <trkpt lat="45.23258" lon="5.74915">
        <ele>791.20001220703</ele>
        <time>2021-07-17T06:14:20.000Z</time>
      </trkpt>
      <trkpt lat="45.23261" lon="5.74919">
        <ele>790.79998779297</ele>
        <time>2021-07-17T06:14:22.000Z</time>
      </trkpt>
      <trkpt lat="45.23262" lon="5.74922">
        <ele>790.79998779297</ele>
        <time>2021-07-17T06:14:23.000Z</time>
      </trkpt>
      <trkpt lat="45.23266" lon="5.74931">
        <ele>789.79998779297</ele>
        <time>2021-07-17T06:14:26.000Z</time>
      </trkpt>
      <trkpt lat="45.23273" lon="5.74939">
        <ele>789.20001220703</ele>
        <time>2021-07-17T06:14:28.000Z</time>
      </trkpt>
      <trkpt lat="45.23274" lon="5.74942">
        <ele>788.79998779297</ele>
        <time>2021-07-17T06:14:29.000Z</time>
      </trkpt>
      <trkpt lat="45.23278" lon="5.74949">
        <ele>788.79998779297</ele>
        <time>2021-07-17T06:14:31.000Z</time>
      </trkpt>
      <trkpt lat="45.23281" lon="5.74952">
        <ele>788.40002441406</ele>
        <time>2021-07-17T06:14:32.000Z</time>
      </trkpt>
      <trkpt lat="45.23292" lon="5.74964">
        <ele>787.59997558594</ele>
        <time>2021-07-17T06:14:36.000Z</time>
      </trkpt>
      <trkpt lat="45.23297" lon="5.74969">
        <ele>787</ele>
        <time>2021-07-17T06:14:38.000Z</time>
      </trkpt>
      <trkpt lat="45.23299" lon="5.74972">
        <ele>786.40002441406</ele>
        <time>2021-07-17T06:14:39.000Z</time>
      </trkpt>
      <trkpt lat="45.23304" lon="5.74981">
        <ele>785.20001220703</ele>
        <time>2021-07-17T06:14:42.000Z</time>
      </trkpt>
      <trkpt lat="45.23306" lon="5.74991">
        <ele>785</ele>
        <time>2021-07-17T06:14:45.000Z</time>
      </trkpt>
      <trkpt lat="45.23309" lon="5.74997">
        <ele>784.40002441406</ele>
        <time>2021-07-17T06:14:47.000Z</time>
      </trkpt>
      <trkpt lat="45.23313" lon="5.75002">
        <ele>783.59997558594</ele>
        <time>2021-07-17T06:14:49.000Z</time>
      </trkpt>
      <trkpt lat="45.23313" lon="5.75003">
        <ele>783.40002441406</ele>
        <time>2021-07-17T06:14:50.000Z</time>
      </trkpt>
      <trkpt lat="45.23311" lon="5.75004">
        <ele>783.20001220703</ele>
        <time>2021-07-17T06:14:51.000Z</time>
      </trkpt>
      <trkpt lat="45.2331" lon="5.75007">
        <ele>782.59997558594</ele>
        <time>2021-07-17T06:14:53.000Z</time>
      </trkpt>
      <trkpt lat="45.23312" lon="5.7501">
        <ele>782.59997558594</ele>
        <time>2021-07-17T06:14:54.000Z</time>
      </trkpt>
      <trkpt lat="45.23311" lon="5.75012">
        <ele>782.40002441406</ele>
        <time>2021-07-17T06:14:55.000Z</time>
      </trkpt>
      <trkpt lat="45.23312" lon="5.75017">
        <ele>782</ele>
        <time>2021-07-17T06:14:57.000Z</time>
      </trkpt>
      <trkpt lat="45.23314" lon="5.7502">
        <ele>781.59997558594</ele>
        <time>2021-07-17T06:14:58.000Z</time>
      </trkpt>
      <trkpt lat="45.2332" lon="5.75034">
        <ele>779.79998779297</ele>
        <time>2021-07-17T06:15:02.000Z</time>
      </trkpt>
      <trkpt lat="45.23321" lon="5.75038">
        <ele>779.59997558594</ele>
        <time>2021-07-17T06:15:03.000Z</time>
      </trkpt>
      <trkpt lat="45.23321" lon="5.75051">
        <ele>778.40002441406</ele>
        <time>2021-07-17T06:15:06.000Z</time>
      </trkpt>
      <trkpt lat="45.2332" lon="5.75056">
        <ele>778.40002441406</ele>
        <time>2021-07-17T06:15:07.000Z</time>
      </trkpt>
      <trkpt lat="45.23316" lon="5.75069">
        <ele>778.20001220703</ele>
        <time>2021-07-17T06:15:10.000Z</time>
      </trkpt>
      <trkpt lat="45.23311" lon="5.75078">
        <ele>777.59997558594</ele>
        <time>2021-07-17T06:15:12.000Z</time>
      </trkpt>
      <trkpt lat="45.2331" lon="5.75082">
        <ele>777.40002441406</ele>
        <time>2021-07-17T06:15:13.000Z</time>
      </trkpt>
      <trkpt lat="45.2331" lon="5.75086">
        <ele>777</ele>
        <time>2021-07-17T06:15:14.000Z</time>
      </trkpt>
      <trkpt lat="45.23312" lon="5.75092">
        <ele>777.20001220703</ele>
        <time>2021-07-17T06:15:16.000Z</time>
      </trkpt>
      <trkpt lat="45.23312" lon="5.75092">
        <ele>777</ele>
        <time>2021-07-17T06:15:17.000Z</time>
      </trkpt>
      <trkpt lat="45.23325" lon="5.75091">
        <ele>778.40002441406</ele>
        <time>2021-07-17T06:15:22.000Z</time>
      </trkpt>
      <trkpt lat="45.2334" lon="5.75091">
        <ele>779.40002441406</ele>
        <time>2021-07-17T06:15:27.000Z</time>
      </trkpt>
      <trkpt lat="45.23346" lon="5.7509">
        <ele>779.79998779297</ele>
        <time>2021-07-17T06:15:29.000Z</time>
      </trkpt>
      <trkpt lat="45.23357" lon="5.75091">
        <ele>781</ele>
        <time>2021-07-17T06:15:33.000Z</time>
      </trkpt>
      <trkpt lat="45.23359" lon="5.75091">
        <ele>781.20001220703</ele>
        <time>2021-07-17T06:15:34.000Z</time>
      </trkpt>
      <trkpt lat="45.23367" lon="5.75092">
        <ele>781.40002441406</ele>
        <time>2021-07-17T06:15:38.000Z</time>
      </trkpt>
      <trkpt lat="45.2337" lon="5.75092">
        <ele>782.20001220703</ele>
        <time>2021-07-17T06:15:39.000Z</time>
      </trkpt>
      <trkpt lat="45.2338" lon="5.75092">
        <ele>782.59997558594</ele>
        <time>2021-07-17T06:15:43.000Z</time>
      </trkpt>
      <trkpt lat="45.23397" lon="5.75092">
        <ele>783.40002441406</ele>
        <time>2021-07-17T06:15:48.000Z</time>
      </trkpt>
      <trkpt lat="45.23418" lon="5.75092">
        <ele>784.40002441406</ele>
        <time>2021-07-17T06:15:55.000Z</time>
      </trkpt>
      <trkpt lat="45.23424" lon="5.75091">
        <ele>784.79998779297</ele>
        <time>2021-07-17T06:15:57.000Z</time>
      </trkpt>
      <trkpt lat="45.23443" lon="5.75086">
        <ele>785.40002441406</ele>
        <time>2021-07-17T06:16:02.000Z</time>
      </trkpt>
      <trkpt lat="45.23446" lon="5.75085">
        <ele>785.40002441406</ele>
        <time>2021-07-17T06:16:03.000Z</time>
      </trkpt>
      <trkpt lat="45.23451" lon="5.75082">
        <ele>785.79998779297</ele>
        <time>2021-07-17T06:16:05.000Z</time>
      </trkpt>
      <trkpt lat="45.2346" lon="5.75081">
        <ele>786.40002441406</ele>
        <time>2021-07-17T06:16:08.000Z</time>
      </trkpt>
      <trkpt lat="45.23463" lon="5.75081">
        <ele>786.40002441406</ele>
        <time>2021-07-17T06:16:09.000Z</time>
      </trkpt>
      <trkpt lat="45.23473" lon="5.75081">
        <ele>787.20001220703</ele>
        <time>2021-07-17T06:16:12.000Z</time>
      </trkpt>
      <trkpt lat="45.23475" lon="5.75079">
        <ele>787.20001220703</ele>
        <time>2021-07-17T06:16:13.000Z</time>
      </trkpt>
      <trkpt lat="45.23479" lon="5.75077">
        <ele>787.20001220703</ele>
        <time>2021-07-17T06:16:15.000Z</time>
      </trkpt>
      <trkpt lat="45.2348" lon="5.75076">
        <ele>787.59997558594</ele>
        <time>2021-07-17T06:16:16.000Z</time>
      </trkpt>
      <trkpt lat="45.23481" lon="5.75075">
        <ele>787.79998779297</ele>
        <time>2021-07-17T06:16:17.000Z</time>
      </trkpt>
      <trkpt lat="45.23487" lon="5.75076">
        <ele>788.40002441406</ele>
        <time>2021-07-17T06:16:20.000Z</time>
      </trkpt>
      <trkpt lat="45.23491" lon="5.75074">
        <ele>788.40002441406</ele>
        <time>2021-07-17T06:16:22.000Z</time>
      </trkpt>
      <trkpt lat="45.23501" lon="5.75071">
        <ele>789.20001220703</ele>
        <time>2021-07-17T06:16:26.000Z</time>
      </trkpt>
      <trkpt lat="45.23503" lon="5.7507">
        <ele>789.40002441406</ele>
        <time>2021-07-17T06:16:27.000Z</time>
      </trkpt>
      <trkpt lat="45.23508" lon="5.75069">
        <ele>789.79998779297</ele>
        <time>2021-07-17T06:16:29.000Z</time>
      </trkpt>
      <trkpt lat="45.23521" lon="5.75068">
        <ele>790.79998779297</ele>
        <time>2021-07-17T06:16:35.000Z</time>
      </trkpt>
      <trkpt lat="45.23527" lon="5.75068">
        <ele>790.79998779297</ele>
        <time>2021-07-17T06:16:38.000Z</time>
      </trkpt>
      <trkpt lat="45.23532" lon="5.75067">
        <ele>791.59997558594</ele>
        <time>2021-07-17T06:16:41.000Z</time>
      </trkpt>
      <trkpt lat="45.23535" lon="5.75067">
        <ele>792</ele>
        <time>2021-07-17T06:16:43.000Z</time>
      </trkpt>
      <trkpt lat="45.23546" lon="5.75072">
        <ele>792.59997558594</ele>
        <time>2021-07-17T06:16:48.000Z</time>
      </trkpt>
      <trkpt lat="45.23557" lon="5.75078">
        <ele>792.79998779297</ele>
        <time>2021-07-17T06:16:52.000Z</time>
      </trkpt>
      <trkpt lat="45.23562" lon="5.75079">
        <ele>793.20001220703</ele>
        <time>2021-07-17T06:16:54.000Z</time>
      </trkpt>
      <trkpt lat="45.23568" lon="5.75079">
        <ele>793.40002441406</ele>
        <time>2021-07-17T06:16:57.000Z</time>
      </trkpt>
      <trkpt lat="45.23573" lon="5.75077">
        <ele>793.59997558594</ele>
        <time>2021-07-17T06:17:02.000Z</time>
      </trkpt>
      <trkpt lat="45.23573" lon="5.75077">
        <ele>793.59997558594</ele>
        <time>2021-07-17T06:17:03.000Z</time>
      </trkpt>
      <trkpt lat="45.23575" lon="5.75083">
        <ele>793.40002441406</ele>
        <time>2021-07-17T06:17:07.000Z</time>
      </trkpt>
      <trkpt lat="45.23576" lon="5.75085">
        <ele>793.40002441406</ele>
        <time>2021-07-17T06:17:09.000Z</time>
      </trkpt>
      <trkpt lat="45.23577" lon="5.75086">
        <ele>793.40002441406</ele>
        <time>2021-07-17T06:17:12.000Z</time>
      </trkpt>
      <trkpt lat="45.23577" lon="5.75085">
        <ele>793.40002441406</ele>
        <time>2021-07-17T06:17:16.000Z</time>
      </trkpt>
      <trkpt lat="45.23577" lon="5.75084">
        <ele>793.59997558594</ele>
        <time>2021-07-17T06:17:18.000Z</time>
      </trkpt>
      <trkpt lat="45.23574" lon="5.7508">
        <ele>793.20001220703</ele>
        <time>2021-07-17T06:17:22.000Z</time>
      </trkpt>
      <trkpt lat="45.23565" lon="5.75076">
        <ele>792.59997558594</ele>
        <time>2021-07-17T06:17:27.000Z</time>
      </trkpt>
      <trkpt lat="45.23564" lon="5.75075">
        <ele>792.59997558594</ele>
        <time>2021-07-17T06:17:28.000Z</time>
      </trkpt>
      <trkpt lat="45.23555" lon="5.75073">
        <ele>792.20001220703</ele>
        <time>2021-07-17T06:17:31.000Z</time>
      </trkpt>
      <trkpt lat="45.23553" lon="5.75073">
        <ele>792.20001220703</ele>
        <time>2021-07-17T06:17:32.000Z</time>
      </trkpt>
      <trkpt lat="45.23549" lon="5.75072">
        <ele>792</ele>
        <time>2021-07-17T06:17:34.000Z</time>
      </trkpt>
      <trkpt lat="45.23542" lon="5.75072">
        <ele>791.59997558594</ele>
        <time>2021-07-17T06:17:36.000Z</time>
      </trkpt>
      <trkpt lat="45.23537" lon="5.75075">
        <ele>791.59997558594</ele>
        <time>2021-07-17T06:17:39.000Z</time>
      </trkpt>
      <trkpt lat="45.23523" lon="5.75077">
        <ele>791.59997558594</ele>
        <time>2021-07-17T06:17:43.000Z</time>
      </trkpt>
      <trkpt lat="45.2352" lon="5.75078">
        <ele>791.59997558594</ele>
        <time>2021-07-17T06:17:44.000Z</time>
      </trkpt>
      <trkpt lat="45.23519" lon="5.75079">
        <ele>791</ele>
        <time>2021-07-17T06:17:45.000Z</time>
      </trkpt>
      <trkpt lat="45.23514" lon="5.7508">
        <ele>790.59997558594</ele>
        <time>2021-07-17T06:17:47.000Z</time>
      </trkpt>
      <trkpt lat="45.23513" lon="5.75082">
        <ele>790.59997558594</ele>
        <time>2021-07-17T06:17:48.000Z</time>
      </trkpt>
      <trkpt lat="45.23509" lon="5.75085">
        <ele>790.59997558594</ele>
        <time>2021-07-17T06:17:50.000Z</time>
      </trkpt>
      <trkpt lat="45.23504" lon="5.75087">
        <ele>790.20001220703</ele>
        <time>2021-07-17T06:17:52.000Z</time>
      </trkpt>
      <trkpt lat="45.23501" lon="5.75088">
        <ele>789.79998779297</ele>
        <time>2021-07-17T06:17:53.000Z</time>
      </trkpt>
      <trkpt lat="45.23491" lon="5.75088">
        <ele>789</ele>
        <time>2021-07-17T06:17:55.000Z</time>
      </trkpt>
      <trkpt lat="45.23477" lon="5.75089">
        <ele>788.59997558594</ele>
        <time>2021-07-17T06:17:59.000Z</time>
      </trkpt>
      <trkpt lat="45.2347" lon="5.75093">
        <ele>787.40002441406</ele>
        <time>2021-07-17T06:18:01.000Z</time>
      </trkpt>
      <trkpt lat="45.2346" lon="5.75098">
        <ele>786.59997558594</ele>
        <time>2021-07-17T06:18:04.000Z</time>
      </trkpt>
      <trkpt lat="45.23454" lon="5.751">
        <ele>786.20001220703</ele>
        <time>2021-07-17T06:18:06.000Z</time>
      </trkpt>
      <trkpt lat="45.23455" lon="5.75101">
        <ele>785.59997558594</ele>
        <time>2021-07-17T06:18:07.000Z</time>
      </trkpt>
      <trkpt lat="45.23453" lon="5.75103">
        <ele>785.20001220703</ele>
        <time>2021-07-17T06:18:08.000Z</time>
      </trkpt>
      <trkpt lat="45.23453" lon="5.75104">
        <ele>784.79998779297</ele>
        <time>2021-07-17T06:18:11.000Z</time>
      </trkpt>
      <trkpt lat="45.23456" lon="5.75104">
        <ele>784.59997558594</ele>
        <time>2021-07-17T06:18:12.000Z</time>
      </trkpt>
      <trkpt lat="45.2346" lon="5.75102">
        <ele>784.20001220703</ele>
        <time>2021-07-17T06:18:13.000Z</time>
      </trkpt>
      <trkpt lat="45.23463" lon="5.75102">
        <ele>783.79998779297</ele>
        <time>2021-07-17T06:18:14.000Z</time>
      </trkpt>
      <trkpt lat="45.23466" lon="5.75092">
        <ele>783.79998779297</ele>
        <time>2021-07-17T06:18:18.000Z</time>
      </trkpt>
      <trkpt lat="45.23451" lon="5.75094">
        <ele>783.40002441406</ele>
        <time>2021-07-17T06:18:20.000Z</time>
      </trkpt>
      <trkpt lat="45.23433" lon="5.75098">
        <ele>783</ele>
        <time>2021-07-17T06:18:23.000Z</time>
      </trkpt>
      <trkpt lat="45.23428" lon="5.75099">
        <ele>782.79998779297</ele>
        <time>2021-07-17T06:18:24.000Z</time>
      </trkpt>
      <trkpt lat="45.23412" lon="5.75106">
        <ele>782.59997558594</ele>
        <time>2021-07-17T06:18:28.000Z</time>
      </trkpt>
      <trkpt lat="45.23393" lon="5.75104">
        <ele>781.59997558594</ele>
        <time>2021-07-17T06:18:33.000Z</time>
      </trkpt>
      <trkpt lat="45.23389" lon="5.75103">
        <ele>780.59997558594</ele>
        <time>2021-07-17T06:18:34.000Z</time>
      </trkpt>
      <trkpt lat="45.23374" lon="5.75103">
        <ele>779.79998779297</ele>
        <time>2021-07-17T06:18:38.000Z</time>
      </trkpt>
      <trkpt lat="45.23367" lon="5.75103">
        <ele>779.59997558594</ele>
        <time>2021-07-17T06:18:40.000Z</time>
      </trkpt>
      <trkpt lat="45.23353" lon="5.75106">
        <ele>778.59997558594</ele>
        <time>2021-07-17T06:18:44.000Z</time>
      </trkpt>
      <trkpt lat="45.23349" lon="5.75106">
        <ele>778.20001220703</ele>
        <time>2021-07-17T06:18:45.000Z</time>
      </trkpt>
      <trkpt lat="45.23336" lon="5.75109">
        <ele>777</ele>
        <time>2021-07-17T06:18:49.000Z</time>
      </trkpt>
      <trkpt lat="45.23333" lon="5.75109">
        <ele>776.59997558594</ele>
        <time>2021-07-17T06:18:50.000Z</time>
      </trkpt>
      <trkpt lat="45.23333" lon="5.75109">
        <ele>776.59997558594</ele>
        <time>2021-07-17T06:18:51.000Z</time>
      </trkpt>
      <trkpt lat="45.23333" lon="5.7511">
        <ele>776.59997558594</ele>
        <time>2021-07-17T06:18:53.000Z</time>
      </trkpt>
      <trkpt lat="45.23332" lon="5.75111">
        <ele>776.59997558594</ele>
        <time>2021-07-17T06:18:56.000Z</time>
      </trkpt>
      <trkpt lat="45.23332" lon="5.75112">
        <ele>776.59997558594</ele>
        <time>2021-07-17T06:18:58.000Z</time>
      </trkpt>
      <trkpt lat="45.23332" lon="5.75112">
        <ele>776.40002441406</ele>
        <time>2021-07-17T06:19:00.000Z</time>
      </trkpt>
      <trkpt lat="45.23332" lon="5.75112">
        <ele>776.40002441406</ele>
        <time>2021-07-17T06:19:01.000Z</time>
      </trkpt>
      <trkpt lat="45.23328" lon="5.75111">
        <ele>776.20001220703</ele>
        <time>2021-07-17T06:19:13.000Z</time>
      </trkpt>
      <trkpt lat="45.23328" lon="5.7511">
        <ele>776.20001220703</ele>
        <time>2021-07-17T06:19:14.000Z</time>
      </trkpt>
      <trkpt lat="45.23331" lon="5.75107">
        <ele>776.40002441406</ele>
        <time>2021-07-17T06:19:18.000Z</time>
      </trkpt>
      <trkpt lat="45.23332" lon="5.75103">
        <ele>776.59997558594</ele>
        <time>2021-07-17T06:19:20.000Z</time>
      </trkpt>
      <trkpt lat="45.23333" lon="5.751">
        <ele>776.59997558594</ele>
        <time>2021-07-17T06:19:22.000Z</time>
      </trkpt>
      <trkpt lat="45.23331" lon="5.75091">
        <ele>776.79998779297</ele>
        <time>2021-07-17T06:19:25.000Z</time>
      </trkpt>
      <trkpt lat="45.23329" lon="5.75076">
        <ele>777.40002441406</ele>
        <time>2021-07-17T06:19:30.000Z</time>
      </trkpt>
      <trkpt lat="45.23326" lon="5.7507">
        <ele>777.79998779297</ele>
        <time>2021-07-17T06:19:32.000Z</time>
      </trkpt>
      <trkpt lat="45.23324" lon="5.75064">
        <ele>778.59997558594</ele>
        <time>2021-07-17T06:19:35.000Z</time>
      </trkpt>
      <trkpt lat="45.23319" lon="5.7505">
        <ele>779.59997558594</ele>
        <time>2021-07-17T06:19:40.000Z</time>
      </trkpt>
      <trkpt lat="45.23312" lon="5.75038">
        <ele>781.20001220703</ele>
        <time>2021-07-17T06:19:45.000Z</time>
      </trkpt>
      <trkpt lat="45.23307" lon="5.7503">
        <ele>782.20001220703</ele>
        <time>2021-07-17T06:19:48.000Z</time>
      </trkpt>
      <trkpt lat="45.23302" lon="5.75021">
        <ele>782.79998779297</ele>
        <time>2021-07-17T06:19:52.000Z</time>
      </trkpt>
      <trkpt lat="45.233" lon="5.75019">
        <ele>783.40002441406</ele>
        <time>2021-07-17T06:19:53.000Z</time>
      </trkpt>
      <trkpt lat="45.23293" lon="5.75008">
        <ele>784</ele>
        <time>2021-07-17T06:19:58.000Z</time>
      </trkpt>
      <trkpt lat="45.23291" lon="5.75004">
        <ele>784.40002441406</ele>
        <time>2021-07-17T06:20:00.000Z</time>
      </trkpt>
      <trkpt lat="45.23287" lon="5.74997">
        <ele>785</ele>
        <time>2021-07-17T06:20:03.000Z</time>
      </trkpt>
      <trkpt lat="45.23286" lon="5.74994">
        <ele>785</ele>
        <time>2021-07-17T06:20:04.000Z</time>
      </trkpt>
      <trkpt lat="45.23285" lon="5.74992">
        <ele>785.79998779297</ele>
        <time>2021-07-17T06:20:05.000Z</time>
      </trkpt>
      <trkpt lat="45.2328" lon="5.74979">
        <ele>786.59997558594</ele>
        <time>2021-07-17T06:20:10.000Z</time>
      </trkpt>
      <trkpt lat="45.23277" lon="5.74972">
        <ele>787</ele>
        <time>2021-07-17T06:20:13.000Z</time>
      </trkpt>
      <trkpt lat="45.23271" lon="5.74963">
        <ele>787.59997558594</ele>
        <time>2021-07-17T06:20:17.000Z</time>
      </trkpt>
      <trkpt lat="45.2327" lon="5.74961">
        <ele>788.40002441406</ele>
        <time>2021-07-17T06:20:18.000Z</time>
      </trkpt>
      <trkpt lat="45.23265" lon="5.74952">
        <ele>788.79998779297</ele>
        <time>2021-07-17T06:20:22.000Z</time>
      </trkpt>
      <trkpt lat="45.23264" lon="5.7495">
        <ele>789</ele>
        <time>2021-07-17T06:20:23.000Z</time>
      </trkpt>
      <trkpt lat="45.23259" lon="5.74945">
        <ele>789.40002441406</ele>
        <time>2021-07-17T06:20:26.000Z</time>
      </trkpt>
      <trkpt lat="45.23251" lon="5.74934">
        <ele>791</ele>
        <time>2021-07-17T06:20:32.000Z</time>
      </trkpt>
      <trkpt lat="45.23249" lon="5.74933">
        <ele>791</ele>
        <time>2021-07-17T06:20:33.000Z</time>
      </trkpt>
      <trkpt lat="45.2324" lon="5.74924">
        <ele>792.20001220703</ele>
        <time>2021-07-17T06:20:39.000Z</time>
      </trkpt>
      <trkpt lat="45.23238" lon="5.74921">
        <ele>792.79998779297</ele>
        <time>2021-07-17T06:20:41.000Z</time>
      </trkpt>
      <trkpt lat="45.23235" lon="5.74918">
        <ele>793.20001220703</ele>
        <time>2021-07-17T06:20:43.000Z</time>
      </trkpt>
      <trkpt lat="45.23232" lon="5.74916">
        <ele>793.59997558594</ele>
        <time>2021-07-17T06:20:45.000Z</time>
      </trkpt>
      <trkpt lat="45.23229" lon="5.74914">
        <ele>794</ele>
        <time>2021-07-17T06:20:47.000Z</time>
      </trkpt>
      <trkpt lat="45.23225" lon="5.74909">
        <ele>794.59997558594</ele>
        <time>2021-07-17T06:20:50.000Z</time>
      </trkpt>
      <trkpt lat="45.23224" lon="5.74908">
        <ele>795</ele>
        <time>2021-07-17T06:20:51.000Z</time>
      </trkpt>
      <trkpt lat="45.23222" lon="5.74907">
        <ele>795</ele>
        <time>2021-07-17T06:20:52.000Z</time>
      </trkpt>
      <trkpt lat="45.23219" lon="5.74903">
        <ele>795.59997558594</ele>
        <time>2021-07-17T06:20:55.000Z</time>
      </trkpt>
      <trkpt lat="45.23216" lon="5.74895">
        <ele>795.79998779297</ele>
        <time>2021-07-17T06:20:58.000Z</time>
      </trkpt>
      <trkpt lat="45.23214" lon="5.74891">
        <ele>796.79998779297</ele>
        <time>2021-07-17T06:21:00.000Z</time>
      </trkpt>
      <trkpt lat="45.23212" lon="5.74879">
        <ele>797</ele>
        <time>2021-07-17T06:21:05.000Z</time>
      </trkpt>
      <trkpt lat="45.23207" lon="5.74874">
        <ele>797.79998779297</ele>
        <time>2021-07-17T06:21:09.000Z</time>
      </trkpt>
      <trkpt lat="45.23205" lon="5.74872">
        <ele>797.79998779297</ele>
        <time>2021-07-17T06:21:10.000Z</time>
      </trkpt>
      <trkpt lat="45.23198" lon="5.74865">
        <ele>798.79998779297</ele>
        <time>2021-07-17T06:21:14.000Z</time>
      </trkpt>
      <trkpt lat="45.23194" lon="5.74861">
        <ele>799.20001220703</ele>
        <time>2021-07-17T06:21:16.000Z</time>
      </trkpt>
      <trkpt lat="45.23191" lon="5.74856">
        <ele>800</ele>
        <time>2021-07-17T06:21:18.000Z</time>
      </trkpt>
      <trkpt lat="45.23187" lon="5.7485">
        <ele>800.40002441406</ele>
        <time>2021-07-17T06:21:21.000Z</time>
      </trkpt>
      <trkpt lat="45.23183" lon="5.74848">
        <ele>801.20001220703</ele>
        <time>2021-07-17T06:21:23.000Z</time>
      </trkpt>
      <trkpt lat="45.23183" lon="5.74845">
        <ele>801.79998779297</ele>
        <time>2021-07-17T06:21:24.000Z</time>
      </trkpt>
      <trkpt lat="45.23183" lon="5.74842">
        <ele>801.79998779297</ele>
        <time>2021-07-17T06:21:25.000Z</time>
      </trkpt>
      <trkpt lat="45.23178" lon="5.74836">
        <ele>802.40002441406</ele>
        <time>2021-07-17T06:21:28.000Z</time>
      </trkpt>
      <trkpt lat="45.23175" lon="5.74832">
        <ele>803</ele>
        <time>2021-07-17T06:21:30.000Z</time>
      </trkpt>
      <trkpt lat="45.2317" lon="5.74825">
        <ele>803.40002441406</ele>
        <time>2021-07-17T06:21:33.000Z</time>
      </trkpt>
      <trkpt lat="45.23165" lon="5.74818">
        <ele>804.40002441406</ele>
        <time>2021-07-17T06:21:37.000Z</time>
      </trkpt>
      <trkpt lat="45.23158" lon="5.74811">
        <ele>805.20001220703</ele>
        <time>2021-07-17T06:21:42.000Z</time>
      </trkpt>
      <trkpt lat="45.23157" lon="5.74809">
        <ele>805.20001220703</ele>
        <time>2021-07-17T06:21:43.000Z</time>
      </trkpt>
      <trkpt lat="45.23157" lon="5.74807">
        <ele>805.59997558594</ele>
        <time>2021-07-17T06:21:44.000Z</time>
      </trkpt>
      <trkpt lat="45.23153" lon="5.74803">
        <ele>806</ele>
        <time>2021-07-17T06:21:46.000Z</time>
      </trkpt>
      <trkpt lat="45.23152" lon="5.74799">
        <ele>806.20001220703</ele>
        <time>2021-07-17T06:21:47.000Z</time>
      </trkpt>
      <trkpt lat="45.23149" lon="5.74794">
        <ele>806.59997558594</ele>
        <time>2021-07-17T06:21:50.000Z</time>
      </trkpt>
      <trkpt lat="45.23148" lon="5.74792">
        <ele>807.20001220703</ele>
        <time>2021-07-17T06:21:51.000Z</time>
      </trkpt>
      <trkpt lat="45.23146" lon="5.74786">
        <ele>807.59997558594</ele>
        <time>2021-07-17T06:21:54.000Z</time>
      </trkpt>
      <trkpt lat="45.23146" lon="5.74784">
        <ele>807.59997558594</ele>
        <time>2021-07-17T06:21:55.000Z</time>
      </trkpt>
      <trkpt lat="45.23144" lon="5.74779">
        <ele>807.79998779297</ele>
        <time>2021-07-17T06:21:57.000Z</time>
      </trkpt>
      <trkpt lat="45.23143" lon="5.74777">
        <ele>808.20001220703</ele>
        <time>2021-07-17T06:21:58.000Z</time>
      </trkpt>
      <trkpt lat="45.23141" lon="5.74774">
        <ele>808.79998779297</ele>
        <time>2021-07-17T06:22:00.000Z</time>
      </trkpt>
      <trkpt lat="45.2314" lon="5.74772">
        <ele>808.79998779297</ele>
        <time>2021-07-17T06:22:01.000Z</time>
      </trkpt>
      <trkpt lat="45.2314" lon="5.7477">
        <ele>808.79998779297</ele>
        <time>2021-07-17T06:22:02.000Z</time>
      </trkpt>
      <trkpt lat="45.23139" lon="5.74766">
        <ele>809</ele>
        <time>2021-07-17T06:22:04.000Z</time>
      </trkpt>
      <trkpt lat="45.23138" lon="5.74765">
        <ele>810</ele>
        <time>2021-07-17T06:22:05.000Z</time>
      </trkpt>
      <trkpt lat="45.23136" lon="5.74763">
        <ele>810</ele>
        <time>2021-07-17T06:22:06.000Z</time>
      </trkpt>
      <trkpt lat="45.23132" lon="5.74757">
        <ele>810.40002441406</ele>
        <time>2021-07-17T06:22:09.000Z</time>
      </trkpt>
      <trkpt lat="45.23131" lon="5.74755">
        <ele>810.59997558594</ele>
        <time>2021-07-17T06:22:10.000Z</time>
      </trkpt>
      <trkpt lat="45.2313" lon="5.74753">
        <ele>810.59997558594</ele>
        <time>2021-07-17T06:22:11.000Z</time>
      </trkpt>
      <trkpt lat="45.23129" lon="5.74751">
        <ele>811.20001220703</ele>
        <time>2021-07-17T06:22:12.000Z</time>
      </trkpt>
      <trkpt lat="45.23127" lon="5.74746">
        <ele>811.40002441406</ele>
        <time>2021-07-17T06:22:14.000Z</time>
      </trkpt>
      <trkpt lat="45.23124" lon="5.74742">
        <ele>811.59997558594</ele>
        <time>2021-07-17T06:22:16.000Z</time>
      </trkpt>
      <trkpt lat="45.23122" lon="5.74738">
        <ele>812</ele>
        <time>2021-07-17T06:22:18.000Z</time>
      </trkpt>
      <trkpt lat="45.23121" lon="5.74735">
        <ele>812.59997558594</ele>
        <time>2021-07-17T06:22:19.000Z</time>
      </trkpt>
      <trkpt lat="45.23111" lon="5.74722">
        <ele>813.59997558594</ele>
        <time>2021-07-17T06:22:25.000Z</time>
      </trkpt>
      <trkpt lat="45.2311" lon="5.74719">
        <ele>814.20001220703</ele>
        <time>2021-07-17T06:22:26.000Z</time>
      </trkpt>
      <trkpt lat="45.23109" lon="5.74717">
        <ele>814.20001220703</ele>
        <time>2021-07-17T06:22:27.000Z</time>
      </trkpt>
      <trkpt lat="45.23107" lon="5.74713">
        <ele>814.59997558594</ele>
        <time>2021-07-17T06:22:29.000Z</time>
      </trkpt>
      <trkpt lat="45.23103" lon="5.74706">
        <ele>815.20001220703</ele>
        <time>2021-07-17T06:22:33.000Z</time>
      </trkpt>
      <trkpt lat="45.23097" lon="5.74702">
        <ele>815.59997558594</ele>
        <time>2021-07-17T06:22:36.000Z</time>
      </trkpt>
      <trkpt lat="45.23091" lon="5.74696">
        <ele>816.59997558594</ele>
        <time>2021-07-17T06:22:40.000Z</time>
      </trkpt>
      <trkpt lat="45.2309" lon="5.74695">
        <ele>817.20001220703</ele>
        <time>2021-07-17T06:22:41.000Z</time>
      </trkpt>
      <trkpt lat="45.23086" lon="5.7469">
        <ele>817.79998779297</ele>
        <time>2021-07-17T06:22:45.000Z</time>
      </trkpt>
      <trkpt lat="45.23083" lon="5.74686">
        <ele>818.20001220703</ele>
        <time>2021-07-17T06:22:47.000Z</time>
      </trkpt>
      <trkpt lat="45.23082" lon="5.74684">
        <ele>818.40002441406</ele>
        <time>2021-07-17T06:22:48.000Z</time>
      </trkpt>
      <trkpt lat="45.23079" lon="5.74681">
        <ele>818.79998779297</ele>
        <time>2021-07-17T06:22:50.000Z</time>
      </trkpt>
      <trkpt lat="45.23074" lon="5.74676">
        <ele>819.20001220703</ele>
        <time>2021-07-17T06:22:53.000Z</time>
      </trkpt>
      <trkpt lat="45.23068" lon="5.74668">
        <ele>819.79998779297</ele>
        <time>2021-07-17T06:22:57.000Z</time>
      </trkpt>
      <trkpt lat="45.23067" lon="5.74665">
        <ele>820</ele>
        <time>2021-07-17T06:22:58.000Z</time>
      </trkpt>
      <trkpt lat="45.23065" lon="5.74658">
        <ele>820.20001220703</ele>
        <time>2021-07-17T06:23:00.000Z</time>
      </trkpt>
      <trkpt lat="45.23059" lon="5.74649">
        <ele>821.20001220703</ele>
        <time>2021-07-17T06:23:04.000Z</time>
      </trkpt>
      <trkpt lat="45.23054" lon="5.74642">
        <ele>822</ele>
        <time>2021-07-17T06:23:08.000Z</time>
      </trkpt>
      <trkpt lat="45.23053" lon="5.7464">
        <ele>822.40002441406</ele>
        <time>2021-07-17T06:23:09.000Z</time>
      </trkpt>
      <trkpt lat="45.2305" lon="5.74635">
        <ele>823.59997558594</ele>
        <time>2021-07-17T06:23:12.000Z</time>
      </trkpt>
      <trkpt lat="45.23047" lon="5.74632">
        <ele>823.79998779297</ele>
        <time>2021-07-17T06:23:14.000Z</time>
      </trkpt>
      <trkpt lat="45.23041" lon="5.74625">
        <ele>824.79998779297</ele>
        <time>2021-07-17T06:23:18.000Z</time>
      </trkpt>
      <trkpt lat="45.23038" lon="5.74619">
        <ele>825.20001220703</ele>
        <time>2021-07-17T06:23:21.000Z</time>
      </trkpt>
      <trkpt lat="45.23036" lon="5.74615">
        <ele>825.79998779297</ele>
        <time>2021-07-17T06:23:23.000Z</time>
      </trkpt>
      <trkpt lat="45.23034" lon="5.74613">
        <ele>825.79998779297</ele>
        <time>2021-07-17T06:23:24.000Z</time>
      </trkpt>
      <trkpt lat="45.23029" lon="5.74609">
        <ele>826.40002441406</ele>
        <time>2021-07-17T06:23:27.000Z</time>
      </trkpt>
      <trkpt lat="45.23027" lon="5.74606">
        <ele>827.20001220703</ele>
        <time>2021-07-17T06:23:29.000Z</time>
      </trkpt>
      <trkpt lat="45.2302" lon="5.74599">
        <ele>828.20001220703</ele>
        <time>2021-07-17T06:23:33.000Z</time>
      </trkpt>
      <trkpt lat="45.23018" lon="5.74597">
        <ele>828.40002441406</ele>
        <time>2021-07-17T06:23:35.000Z</time>
      </trkpt>
      <trkpt lat="45.2301" lon="5.74592">
        <ele>829.20001220703</ele>
        <time>2021-07-17T06:23:39.000Z</time>
      </trkpt>
      <trkpt lat="45.23008" lon="5.74588">
        <ele>829.79998779297</ele>
        <time>2021-07-17T06:23:41.000Z</time>
      </trkpt>
      <trkpt lat="45.23003" lon="5.74582">
        <ele>830.20001220703</ele>
        <time>2021-07-17T06:23:44.000Z</time>
      </trkpt>
      <trkpt lat="45.23001" lon="5.74581">
        <ele>830.40002441406</ele>
        <time>2021-07-17T06:23:45.000Z</time>
      </trkpt>
      <trkpt lat="45.22996" lon="5.74576">
        <ele>831.20001220703</ele>
        <time>2021-07-17T06:23:48.000Z</time>
      </trkpt>
      <trkpt lat="45.22996" lon="5.74575">
        <ele>831.40002441406</ele>
        <time>2021-07-17T06:23:49.000Z</time>
      </trkpt>
      <trkpt lat="45.22993" lon="5.74573">
        <ele>831.79998779297</ele>
        <time>2021-07-17T06:23:50.000Z</time>
      </trkpt>
      <trkpt lat="45.22989" lon="5.7457">
        <ele>831.79998779297</ele>
        <time>2021-07-17T06:23:52.000Z</time>
      </trkpt>
      <trkpt lat="45.22988" lon="5.74569">
        <ele>832.20001220703</ele>
        <time>2021-07-17T06:23:53.000Z</time>
      </trkpt>
      <trkpt lat="45.22987" lon="5.74567">
        <ele>832.40002441406</ele>
        <time>2021-07-17T06:23:54.000Z</time>
      </trkpt>
      <trkpt lat="45.22985" lon="5.74566">
        <ele>832.59997558594</ele>
        <time>2021-07-17T06:23:55.000Z</time>
      </trkpt>
      <trkpt lat="45.22983" lon="5.74562">
        <ele>832.79998779297</ele>
        <time>2021-07-17T06:23:57.000Z</time>
      </trkpt>
      <trkpt lat="45.22982" lon="5.74561">
        <ele>833</ele>
        <time>2021-07-17T06:23:58.000Z</time>
      </trkpt>
      <trkpt lat="45.2298" lon="5.74559">
        <ele>834</ele>
        <time>2021-07-17T06:23:59.000Z</time>
      </trkpt>
      <trkpt lat="45.22975" lon="5.74551">
        <ele>834.79998779297</ele>
        <time>2021-07-17T06:24:05.000Z</time>
      </trkpt>
      <trkpt lat="45.22974" lon="5.7455">
        <ele>835.40002441406</ele>
        <time>2021-07-17T06:24:06.000Z</time>
      </trkpt>
      <trkpt lat="45.22966" lon="5.74541">
        <ele>836.20001220703</ele>
        <time>2021-07-17T06:24:11.000Z</time>
      </trkpt>
      <trkpt lat="45.22963" lon="5.74537">
        <ele>836.79998779297</ele>
        <time>2021-07-17T06:24:13.000Z</time>
      </trkpt>
      <trkpt lat="45.2296" lon="5.74533">
        <ele>837</ele>
        <time>2021-07-17T06:24:15.000Z</time>
      </trkpt>
      <trkpt lat="45.22958" lon="5.74529">
        <ele>837</ele>
        <time>2021-07-17T06:24:16.000Z</time>
      </trkpt>
      <trkpt lat="45.22953" lon="5.74522">
        <ele>837.79998779297</ele>
        <time>2021-07-17T06:24:19.000Z</time>
      </trkpt>
      <trkpt lat="45.22948" lon="5.74517">
        <ele>838.40002441406</ele>
        <time>2021-07-17T06:24:22.000Z</time>
      </trkpt>
      <trkpt lat="45.22947" lon="5.74514">
        <ele>838.40002441406</ele>
        <time>2021-07-17T06:24:23.000Z</time>
      </trkpt>
      <trkpt lat="45.22943" lon="5.74508">
        <ele>838.79998779297</ele>
        <time>2021-07-17T06:24:26.000Z</time>
      </trkpt>
      <trkpt lat="45.22942" lon="5.74505">
        <ele>839.59997558594</ele>
        <time>2021-07-17T06:24:27.000Z</time>
      </trkpt>
      <trkpt lat="45.22935" lon="5.74499">
        <ele>840.40002441406</ele>
        <time>2021-07-17T06:24:31.000Z</time>
      </trkpt>
      <trkpt lat="45.22933" lon="5.74498">
        <ele>840.79998779297</ele>
        <time>2021-07-17T06:24:32.000Z</time>
      </trkpt>
      <trkpt lat="45.22931" lon="5.74493">
        <ele>840.79998779297</ele>
        <time>2021-07-17T06:24:34.000Z</time>
      </trkpt>
      <trkpt lat="45.22925" lon="5.7449">
        <ele>842</ele>
        <time>2021-07-17T06:24:37.000Z</time>
      </trkpt>
      <trkpt lat="45.22923" lon="5.74489">
        <ele>842</ele>
        <time>2021-07-17T06:24:38.000Z</time>
      </trkpt>
      <trkpt lat="45.22922" lon="5.74488">
        <ele>842</ele>
        <time>2021-07-17T06:24:39.000Z</time>
      </trkpt>
      <trkpt lat="45.22917" lon="5.74482">
        <ele>842.59997558594</ele>
        <time>2021-07-17T06:24:42.000Z</time>
      </trkpt>
      <trkpt lat="45.22912" lon="5.7448">
        <ele>843.59997558594</ele>
        <time>2021-07-17T06:24:44.000Z</time>
      </trkpt>
      <trkpt lat="45.22911" lon="5.74479">
        <ele>843.79998779297</ele>
        <time>2021-07-17T06:24:45.000Z</time>
      </trkpt>
      <trkpt lat="45.2291" lon="5.74478">
        <ele>843.79998779297</ele>
        <time>2021-07-17T06:24:46.000Z</time>
      </trkpt>
      <trkpt lat="45.22905" lon="5.74475">
        <ele>844.20001220703</ele>
        <time>2021-07-17T06:24:50.000Z</time>
      </trkpt>
      <trkpt lat="45.22904" lon="5.74474">
        <ele>844.79998779297</ele>
        <time>2021-07-17T06:24:51.000Z</time>
      </trkpt>
      <trkpt lat="45.22902" lon="5.74473">
        <ele>845</ele>
        <time>2021-07-17T06:24:52.000Z</time>
      </trkpt>
      <trkpt lat="45.22892" lon="5.74467">
        <ele>846.40002441406</ele>
        <time>2021-07-17T06:24:58.000Z</time>
      </trkpt>
      <trkpt lat="45.22886" lon="5.74465">
        <ele>846.59997558594</ele>
        <time>2021-07-17T06:25:01.000Z</time>
      </trkpt>
      <trkpt lat="45.22882" lon="5.7446">
        <ele>847.20001220703</ele>
        <time>2021-07-17T06:25:04.000Z</time>
      </trkpt>
      <trkpt lat="45.22881" lon="5.74458">
        <ele>847.59997558594</ele>
        <time>2021-07-17T06:25:05.000Z</time>
      </trkpt>
      <trkpt lat="45.22879" lon="5.74457">
        <ele>847.59997558594</ele>
        <time>2021-07-17T06:25:06.000Z</time>
      </trkpt>
      <trkpt lat="45.22874" lon="5.74452">
        <ele>848.40002441406</ele>
        <time>2021-07-17T06:25:09.000Z</time>
      </trkpt>
      <trkpt lat="45.22873" lon="5.74451">
        <ele>848.40002441406</ele>
        <time>2021-07-17T06:25:10.000Z</time>
      </trkpt>
      <trkpt lat="45.22873" lon="5.7445">
        <ele>849</ele>
        <time>2021-07-17T06:25:11.000Z</time>
      </trkpt>
      <trkpt lat="45.22868" lon="5.74446">
        <ele>848.59997558594</ele>
        <time>2021-07-17T06:25:16.000Z</time>
      </trkpt>
      <trkpt lat="45.22867" lon="5.74445">
        <ele>848.40002441406</ele>
        <time>2021-07-17T06:25:17.000Z</time>
      </trkpt>
      <trkpt lat="45.22865" lon="5.74444">
        <ele>847.79998779297</ele>
        <time>2021-07-17T06:25:19.000Z</time>
      </trkpt>
      <trkpt lat="45.22863" lon="5.74442">
        <ele>846.79998779297</ele>
        <time>2021-07-17T06:25:21.000Z</time>
      </trkpt>
      <trkpt lat="45.22863" lon="5.74442">
        <ele>846.79998779297</ele>
        <time>2021-07-17T06:25:22.000Z</time>
      </trkpt>
      <trkpt lat="45.22862" lon="5.74441">
        <ele>846.59997558594</ele>
        <time>2021-07-17T06:25:23.000Z</time>
      </trkpt>
      <trkpt lat="45.22861" lon="5.74441">
        <ele>845.79998779297</ele>
        <time>2021-07-17T06:25:25.000Z</time>
      </trkpt>
      <trkpt lat="45.2286" lon="5.74441">
        <ele>845.40002441406</ele>
        <time>2021-07-17T06:25:26.000Z</time>
      </trkpt>
      <trkpt lat="45.22858" lon="5.74441">
        <ele>844.40002441406</ele>
        <time>2021-07-17T06:25:28.000Z</time>
      </trkpt>
      <trkpt lat="45.22856" lon="5.7444">
        <ele>843.20001220703</ele>
        <time>2021-07-17T06:25:30.000Z</time>
      </trkpt>
      <trkpt lat="45.22856" lon="5.7444">
        <ele>843.20001220703</ele>
        <time>2021-07-17T06:25:31.000Z</time>
      </trkpt>
      <trkpt lat="45.22852" lon="5.74438">
        <ele>842.59997558594</ele>
        <time>2021-07-17T06:25:33.000Z</time>
      </trkpt>
      <trkpt lat="45.2285" lon="5.7444">
        <ele>842</ele>
        <time>2021-07-17T06:25:35.000Z</time>
      </trkpt>
      <trkpt lat="45.22846" lon="5.7444">
        <ele>840.40002441406</ele>
        <time>2021-07-17T06:25:38.000Z</time>
      </trkpt>
      <trkpt lat="45.22845" lon="5.7444">
        <ele>840.20001220703</ele>
        <time>2021-07-17T06:25:39.000Z</time>
      </trkpt>
      <trkpt lat="45.22844" lon="5.7444">
        <ele>840.20001220703</ele>
        <time>2021-07-17T06:25:40.000Z</time>
      </trkpt>
      <trkpt lat="45.22843" lon="5.74439">
        <ele>840</ele>
        <time>2021-07-17T06:25:41.000Z</time>
      </trkpt>
      <trkpt lat="45.22842" lon="5.7444">
        <ele>839.20001220703</ele>
        <time>2021-07-17T06:25:42.000Z</time>
      </trkpt>
      <trkpt lat="45.22841" lon="5.74443">
        <ele>839</ele>
        <time>2021-07-17T06:25:44.000Z</time>
      </trkpt>
      <trkpt lat="45.22837" lon="5.74446">
        <ele>837.20001220703</ele>
        <time>2021-07-17T06:25:46.000Z</time>
      </trkpt>
      <trkpt lat="45.22836" lon="5.74446">
        <ele>837</ele>
        <time>2021-07-17T06:25:47.000Z</time>
      </trkpt>
      <trkpt lat="45.22836" lon="5.74447">
        <ele>836.59997558594</ele>
        <time>2021-07-17T06:25:49.000Z</time>
      </trkpt>
      <trkpt lat="45.22836" lon="5.74449">
        <ele>836.20001220703</ele>
        <time>2021-07-17T06:25:50.000Z</time>
      </trkpt>
      <trkpt lat="45.22835" lon="5.7445">
        <ele>836</ele>
        <time>2021-07-17T06:25:51.000Z</time>
      </trkpt>
      <trkpt lat="45.22834" lon="5.7445">
        <ele>834.79998779297</ele>
        <time>2021-07-17T06:25:52.000Z</time>
      </trkpt>
      <trkpt lat="45.22829" lon="5.74453">
        <ele>833.40002441406</ele>
        <time>2021-07-17T06:25:56.000Z</time>
      </trkpt>
      <trkpt lat="45.22826" lon="5.74454">
        <ele>832.59997558594</ele>
        <time>2021-07-17T06:25:59.000Z</time>
      </trkpt>
      <trkpt lat="45.22824" lon="5.74455">
        <ele>831.59997558594</ele>
        <time>2021-07-17T06:26:01.000Z</time>
      </trkpt>
      <trkpt lat="45.22823" lon="5.74456">
        <ele>830.79998779297</ele>
        <time>2021-07-17T06:26:02.000Z</time>
      </trkpt>
      <trkpt lat="45.2282" lon="5.74458">
        <ele>830.59997558594</ele>
        <time>2021-07-17T06:26:04.000Z</time>
      </trkpt>
      <trkpt lat="45.22817" lon="5.7446">
        <ele>830.20001220703</ele>
        <time>2021-07-17T06:26:06.000Z</time>
      </trkpt>
      <trkpt lat="45.22814" lon="5.74461">
        <ele>828.59997558594</ele>
        <time>2021-07-17T06:26:08.000Z</time>
      </trkpt>
      <trkpt lat="45.22813" lon="5.74461">
        <ele>828.40002441406</ele>
        <time>2021-07-17T06:26:10.000Z</time>
      </trkpt>
      <trkpt lat="45.2281" lon="5.7446">
        <ele>826.79998779297</ele>
        <time>2021-07-17T06:26:13.000Z</time>
      </trkpt>
      <trkpt lat="45.22804" lon="5.74464">
        <ele>825.79998779297</ele>
        <time>2021-07-17T06:26:17.000Z</time>
      </trkpt>
      <trkpt lat="45.22802" lon="5.74465">
        <ele>825.40002441406</ele>
        <time>2021-07-17T06:26:18.000Z</time>
      </trkpt>
      <trkpt lat="45.228" lon="5.74466">
        <ele>824.40002441406</ele>
        <time>2021-07-17T06:26:20.000Z</time>
      </trkpt>
      <trkpt lat="45.22798" lon="5.74466">
        <ele>824.20001220703</ele>
        <time>2021-07-17T06:26:21.000Z</time>
      </trkpt>
      <trkpt lat="45.22795" lon="5.74466">
        <ele>823.20001220703</ele>
        <time>2021-07-17T06:26:23.000Z</time>
      </trkpt>
      <trkpt lat="45.22793" lon="5.74466">
        <ele>822.40002441406</ele>
        <time>2021-07-17T06:26:24.000Z</time>
      </trkpt>
      <trkpt lat="45.22791" lon="5.74468">
        <ele>821.20001220703</ele>
        <time>2021-07-17T06:26:25.000Z</time>
      </trkpt>
      <trkpt lat="45.22788" lon="5.74469">
        <ele>821</ele>
        <time>2021-07-17T06:26:26.000Z</time>
      </trkpt>
      <trkpt lat="45.22784" lon="5.74471">
        <ele>819.59997558594</ele>
        <time>2021-07-17T06:26:28.000Z</time>
      </trkpt>
      <trkpt lat="45.22781" lon="5.74473">
        <ele>818.20001220703</ele>
        <time>2021-07-17T06:26:30.000Z</time>
      </trkpt>
      <trkpt lat="45.22779" lon="5.74473">
        <ele>817.20001220703</ele>
        <time>2021-07-17T06:26:32.000Z</time>
      </trkpt>
      <trkpt lat="45.22776" lon="5.74475">
        <ele>816.20001220703</ele>
        <time>2021-07-17T06:26:34.000Z</time>
      </trkpt>
      <trkpt lat="45.22775" lon="5.74476">
        <ele>816.20001220703</ele>
        <time>2021-07-17T06:26:35.000Z</time>
      </trkpt>
      <trkpt lat="45.22772" lon="5.74478">
        <ele>815.20001220703</ele>
        <time>2021-07-17T06:26:37.000Z</time>
      </trkpt>
      <trkpt lat="45.22771" lon="5.74479">
        <ele>814.40002441406</ele>
        <time>2021-07-17T06:26:38.000Z</time>
      </trkpt>
      <trkpt lat="45.22769" lon="5.74481">
        <ele>813.79998779297</ele>
        <time>2021-07-17T06:26:40.000Z</time>
      </trkpt>
      <trkpt lat="45.22767" lon="5.74484">
        <ele>812.79998779297</ele>
        <time>2021-07-17T06:26:42.000Z</time>
      </trkpt>
      <trkpt lat="45.22765" lon="5.74484">
        <ele>812.20001220703</ele>
        <time>2021-07-17T06:26:43.000Z</time>
      </trkpt>
      <trkpt lat="45.22762" lon="5.74485">
        <ele>811.79998779297</ele>
        <time>2021-07-17T06:26:45.000Z</time>
      </trkpt>
      <trkpt lat="45.2276" lon="5.74486">
        <ele>811.79998779297</ele>
        <time>2021-07-17T06:26:46.000Z</time>
      </trkpt>
      <trkpt lat="45.22759" lon="5.74486">
        <ele>810.59997558594</ele>
        <time>2021-07-17T06:26:47.000Z</time>
      </trkpt>
      <trkpt lat="45.22751" lon="5.74485">
        <ele>809.20001220703</ele>
        <time>2021-07-17T06:26:51.000Z</time>
      </trkpt>
      <trkpt lat="45.22749" lon="5.74485">
        <ele>808.79998779297</ele>
        <time>2021-07-17T06:26:52.000Z</time>
      </trkpt>
      <trkpt lat="45.22747" lon="5.74486">
        <ele>808</ele>
        <time>2021-07-17T06:26:53.000Z</time>
      </trkpt>
      <trkpt lat="45.22745" lon="5.74489">
        <ele>807.20001220703</ele>
        <time>2021-07-17T06:26:55.000Z</time>
      </trkpt>
      <trkpt lat="45.22743" lon="5.7449">
        <ele>807.20001220703</ele>
        <time>2021-07-17T06:26:56.000Z</time>
      </trkpt>
      <trkpt lat="45.22739" lon="5.74491">
        <ele>806.79998779297</ele>
        <time>2021-07-17T06:26:58.000Z</time>
      </trkpt>
      <trkpt lat="45.22737" lon="5.7449">
        <ele>805.59997558594</ele>
        <time>2021-07-17T06:26:59.000Z</time>
      </trkpt>
      <trkpt lat="45.22732" lon="5.7449">
        <ele>804.40002441406</ele>
        <time>2021-07-17T06:27:02.000Z</time>
      </trkpt>
      <trkpt lat="45.22729" lon="5.74491">
        <ele>803.40002441406</ele>
        <time>2021-07-17T06:27:04.000Z</time>
      </trkpt>
      <trkpt lat="45.22728" lon="5.74491">
        <ele>802.79998779297</ele>
        <time>2021-07-17T06:27:05.000Z</time>
      </trkpt>
      <trkpt lat="45.22727" lon="5.7449">
        <ele>802.40002441406</ele>
        <time>2021-07-17T06:27:06.000Z</time>
      </trkpt>
      <trkpt lat="45.22725" lon="5.7449">
        <ele>802.20001220703</ele>
        <time>2021-07-17T06:27:07.000Z</time>
      </trkpt>
      <trkpt lat="45.22723" lon="5.7449">
        <ele>801.40002441406</ele>
        <time>2021-07-17T06:27:08.000Z</time>
      </trkpt>
      <trkpt lat="45.22721" lon="5.7449">
        <ele>801</ele>
        <time>2021-07-17T06:27:09.000Z</time>
      </trkpt>
      <trkpt lat="45.22717" lon="5.7449">
        <ele>800.40002441406</ele>
        <time>2021-07-17T06:27:12.000Z</time>
      </trkpt>
      <trkpt lat="45.22715" lon="5.7449">
        <ele>800.20001220703</ele>
        <time>2021-07-17T06:27:13.000Z</time>
      </trkpt>
      <trkpt lat="45.22711" lon="5.7449">
        <ele>799.20001220703</ele>
        <time>2021-07-17T06:27:15.000Z</time>
      </trkpt>
      <trkpt lat="45.22709" lon="5.74491">
        <ele>798</ele>
        <time>2021-07-17T06:27:17.000Z</time>
      </trkpt>
      <trkpt lat="45.22706" lon="5.7449">
        <ele>797.20001220703</ele>
        <time>2021-07-17T06:27:19.000Z</time>
      </trkpt>
      <trkpt lat="45.22705" lon="5.7449">
        <ele>797.20001220703</ele>
        <time>2021-07-17T06:27:20.000Z</time>
      </trkpt>
      <trkpt lat="45.22703" lon="5.74489">
        <ele>796.59997558594</ele>
        <time>2021-07-17T06:27:21.000Z</time>
      </trkpt>
      <trkpt lat="45.22701" lon="5.74489">
        <ele>796.20001220703</ele>
        <time>2021-07-17T06:27:23.000Z</time>
      </trkpt>
      <trkpt lat="45.22699" lon="5.74489">
        <ele>795.79998779297</ele>
        <time>2021-07-17T06:27:25.000Z</time>
      </trkpt>
      <trkpt lat="45.22697" lon="5.74488">
        <ele>794.79998779297</ele>
        <time>2021-07-17T06:27:26.000Z</time>
      </trkpt>
      <trkpt lat="45.22689" lon="5.74487">
        <ele>793.59997558594</ele>
        <time>2021-07-17T06:27:30.000Z</time>
      </trkpt>
      <trkpt lat="45.22688" lon="5.74487">
        <ele>793</ele>
        <time>2021-07-17T06:27:31.000Z</time>
      </trkpt>
      <trkpt lat="45.22686" lon="5.74487">
        <ele>792.20001220703</ele>
        <time>2021-07-17T06:27:32.000Z</time>
      </trkpt>
      <trkpt lat="45.22681" lon="5.74486">
        <ele>791</ele>
        <time>2021-07-17T06:27:37.000Z</time>
      </trkpt>
      <trkpt lat="45.22677" lon="5.74484">
        <ele>790.20001220703</ele>
        <time>2021-07-17T06:27:40.000Z</time>
      </trkpt>
      <trkpt lat="45.22676" lon="5.74484">
        <ele>789.79998779297</ele>
        <time>2021-07-17T06:27:41.000Z</time>
      </trkpt>
      <trkpt lat="45.22669" lon="5.74483">
        <ele>788.40002441406</ele>
        <time>2021-07-17T06:27:44.000Z</time>
      </trkpt>
      <trkpt lat="45.22666" lon="5.74485">
        <ele>787.59997558594</ele>
        <time>2021-07-17T06:27:47.000Z</time>
      </trkpt>
      <trkpt lat="45.22665" lon="5.74486">
        <ele>786.79998779297</ele>
        <time>2021-07-17T06:27:48.000Z</time>
      </trkpt>
      <trkpt lat="45.2266" lon="5.74487">
        <ele>785.40002441406</ele>
        <time>2021-07-17T06:27:52.000Z</time>
      </trkpt>
      <trkpt lat="45.22658" lon="5.74489">
        <ele>785</ele>
        <time>2021-07-17T06:27:54.000Z</time>
      </trkpt>
      <trkpt lat="45.22656" lon="5.74489">
        <ele>784.59997558594</ele>
        <time>2021-07-17T06:27:55.000Z</time>
      </trkpt>
      <trkpt lat="45.22654" lon="5.7449">
        <ele>783.59997558594</ele>
        <time>2021-07-17T06:27:56.000Z</time>
      </trkpt>
      <trkpt lat="45.22652" lon="5.74493">
        <ele>783</ele>
        <time>2021-07-17T06:27:59.000Z</time>
      </trkpt>
      <trkpt lat="45.22649" lon="5.74494">
        <ele>783</ele>
        <time>2021-07-17T06:28:01.000Z</time>
      </trkpt>
      <trkpt lat="45.22647" lon="5.74494">
        <ele>781.79998779297</ele>
        <time>2021-07-17T06:28:02.000Z</time>
      </trkpt>
      <trkpt lat="45.22644" lon="5.74495">
        <ele>781.20001220703</ele>
        <time>2021-07-17T06:28:04.000Z</time>
      </trkpt>
      <trkpt lat="45.22641" lon="5.74494">
        <ele>780.40002441406</ele>
        <time>2021-07-17T06:28:06.000Z</time>
      </trkpt>
      <trkpt lat="45.22629" lon="5.74495">
        <ele>779.40002441406</ele>
        <time>2021-07-17T06:28:11.000Z</time>
      </trkpt>
      <trkpt lat="45.22626" lon="5.74495">
        <ele>778.40002441406</ele>
        <time>2021-07-17T06:28:13.000Z</time>
      </trkpt>
      <trkpt lat="45.22622" lon="5.74495">
        <ele>777.79998779297</ele>
        <time>2021-07-17T06:28:15.000Z</time>
      </trkpt>
      <trkpt lat="45.22619" lon="5.74495">
        <ele>777.40002441406</ele>
        <time>2021-07-17T06:28:17.000Z</time>
      </trkpt>
      <trkpt lat="45.22618" lon="5.74495">
        <ele>777</ele>
        <time>2021-07-17T06:28:18.000Z</time>
      </trkpt>
      <trkpt lat="45.22616" lon="5.74496">
        <ele>775.59997558594</ele>
        <time>2021-07-17T06:28:19.000Z</time>
      </trkpt>
      <trkpt lat="45.22615" lon="5.74497">
        <ele>775.59997558594</ele>
        <time>2021-07-17T06:28:20.000Z</time>
      </trkpt>
      <trkpt lat="45.22612" lon="5.74499">
        <ele>774</ele>
        <time>2021-07-17T06:28:23.000Z</time>
      </trkpt>
      <trkpt lat="45.2261" lon="5.74499">
        <ele>773.20001220703</ele>
        <time>2021-07-17T06:28:25.000Z</time>
      </trkpt>
      <trkpt lat="45.22609" lon="5.745">
        <ele>772.40002441406</ele>
        <time>2021-07-17T06:28:27.000Z</time>
      </trkpt>
      <trkpt lat="45.22607" lon="5.74501">
        <ele>772.20001220703</ele>
        <time>2021-07-17T06:28:28.000Z</time>
      </trkpt>
      <trkpt lat="45.22607" lon="5.74501">
        <ele>772.20001220703</ele>
        <time>2021-07-17T06:28:29.000Z</time>
      </trkpt>
      <trkpt lat="45.22603" lon="5.74504">
        <ele>771.59997558594</ele>
        <time>2021-07-17T06:28:32.000Z</time>
      </trkpt>
      <trkpt lat="45.22603" lon="5.74505">
        <ele>770.79998779297</ele>
        <time>2021-07-17T06:28:33.000Z</time>
      </trkpt>
      <trkpt lat="45.22603" lon="5.74506">
        <ele>770</ele>
        <time>2021-07-17T06:28:34.000Z</time>
      </trkpt>
      <trkpt lat="45.22603" lon="5.74508">
        <ele>769.59997558594</ele>
        <time>2021-07-17T06:28:36.000Z</time>
      </trkpt>
      <trkpt lat="45.22602" lon="5.7451">
        <ele>767.59997558594</ele>
        <time>2021-07-17T06:28:39.000Z</time>
      </trkpt>
      <trkpt lat="45.22601" lon="5.74512">
        <ele>766.59997558594</ele>
        <time>2021-07-17T06:28:41.000Z</time>
      </trkpt>
      <trkpt lat="45.22599" lon="5.74515">
        <ele>766</ele>
        <time>2021-07-17T06:28:44.000Z</time>
      </trkpt>
      <trkpt lat="45.22598" lon="5.74515">
        <ele>765.40002441406</ele>
        <time>2021-07-17T06:28:46.000Z</time>
      </trkpt>
      <trkpt lat="45.22598" lon="5.74516">
        <ele>765.40002441406</ele>
        <time>2021-07-17T06:28:47.000Z</time>
      </trkpt>
      <trkpt lat="45.22597" lon="5.74516">
        <ele>763.59997558594</ele>
        <time>2021-07-17T06:28:48.000Z</time>
      </trkpt>
      <trkpt lat="45.22595" lon="5.74522">
        <ele>762.20001220703</ele>
        <time>2021-07-17T06:28:53.000Z</time>
      </trkpt>
      <trkpt lat="45.22594" lon="5.74525">
        <ele>760.79998779297</ele>
        <time>2021-07-17T06:28:55.000Z</time>
      </trkpt>
      <trkpt lat="45.22592" lon="5.74528">
        <ele>760.20001220703</ele>
        <time>2021-07-17T06:28:58.000Z</time>
      </trkpt>
      <trkpt lat="45.22593" lon="5.74531">
        <ele>758.59997558594</ele>
        <time>2021-07-17T06:29:01.000Z</time>
      </trkpt>
      <trkpt lat="45.22593" lon="5.74533">
        <ele>758.20001220703</ele>
        <time>2021-07-17T06:29:03.000Z</time>
      </trkpt>
      <trkpt lat="45.22593" lon="5.74538">
        <ele>757.79998779297</ele>
        <time>2021-07-17T06:29:05.000Z</time>
      </trkpt>
      <trkpt lat="45.22592" lon="5.74542">
        <ele>757.40002441406</ele>
        <time>2021-07-17T06:29:07.000Z</time>
      </trkpt>
      <trkpt lat="45.22593" lon="5.74548">
        <ele>756.79998779297</ele>
        <time>2021-07-17T06:29:10.000Z</time>
      </trkpt>
      <trkpt lat="45.22592" lon="5.7455">
        <ele>755.79998779297</ele>
        <time>2021-07-17T06:29:11.000Z</time>
      </trkpt>
      <trkpt lat="45.22592" lon="5.74553">
        <ele>754.20001220703</ele>
        <time>2021-07-17T06:29:12.000Z</time>
      </trkpt>
      <trkpt lat="45.22589" lon="5.74559">
        <ele>753</ele>
        <time>2021-07-17T06:29:15.000Z</time>
      </trkpt>
      <trkpt lat="45.22588" lon="5.74564">
        <ele>752.20001220703</ele>
        <time>2021-07-17T06:29:17.000Z</time>
      </trkpt>
      <trkpt lat="45.22588" lon="5.74566">
        <ele>752</ele>
        <time>2021-07-17T06:29:18.000Z</time>
      </trkpt>
      <trkpt lat="45.22588" lon="5.74568">
        <ele>752</ele>
        <time>2021-07-17T06:29:19.000Z</time>
      </trkpt>
      <trkpt lat="45.22586" lon="5.74575">
        <ele>750.59997558594</ele>
        <time>2021-07-17T06:29:23.000Z</time>
      </trkpt>
      <trkpt lat="45.22585" lon="5.74576">
        <ele>750.20001220703</ele>
        <time>2021-07-17T06:29:24.000Z</time>
      </trkpt>
      <trkpt lat="45.22585" lon="5.74578">
        <ele>749.59997558594</ele>
        <time>2021-07-17T06:29:25.000Z</time>
      </trkpt>
      <trkpt lat="45.22585" lon="5.74579">
        <ele>749.59997558594</ele>
        <time>2021-07-17T06:29:26.000Z</time>
      </trkpt>
      <trkpt lat="45.22584" lon="5.74582">
        <ele>748.20001220703</ele>
        <time>2021-07-17T06:29:28.000Z</time>
      </trkpt>
      <trkpt lat="45.22585" lon="5.74584">
        <ele>748</ele>
        <time>2021-07-17T06:29:29.000Z</time>
      </trkpt>
      <trkpt lat="45.22583" lon="5.74588">
        <ele>747.40002441406</ele>
        <time>2021-07-17T06:29:31.000Z</time>
      </trkpt>
      <trkpt lat="45.22582" lon="5.7459">
        <ele>747.20001220703</ele>
        <time>2021-07-17T06:29:32.000Z</time>
      </trkpt>
      <trkpt lat="45.22579" lon="5.74592">
        <ele>747</ele>
        <time>2021-07-17T06:29:33.000Z</time>
      </trkpt>
      <trkpt lat="45.22577" lon="5.74593">
        <ele>746.20001220703</ele>
        <time>2021-07-17T06:29:34.000Z</time>
      </trkpt>
      <trkpt lat="45.22576" lon="5.74595">
        <ele>745.59997558594</ele>
        <time>2021-07-17T06:29:35.000Z</time>
      </trkpt>
      <trkpt lat="45.22575" lon="5.74598">
        <ele>745.20001220703</ele>
        <time>2021-07-17T06:29:37.000Z</time>
      </trkpt>
      <trkpt lat="45.22574" lon="5.74599">
        <ele>744.79998779297</ele>
        <time>2021-07-17T06:29:38.000Z</time>
      </trkpt>
      <trkpt lat="45.22574" lon="5.746">
        <ele>744.59997558594</ele>
        <time>2021-07-17T06:29:39.000Z</time>
      </trkpt>
      <trkpt lat="45.22573" lon="5.74602">
        <ele>744</ele>
        <time>2021-07-17T06:29:40.000Z</time>
      </trkpt>
      <trkpt lat="45.22571" lon="5.74605">
        <ele>742.79998779297</ele>
        <time>2021-07-17T06:29:42.000Z</time>
      </trkpt>
      <trkpt lat="45.22567" lon="5.74611">
        <ele>741.59997558594</ele>
        <time>2021-07-17T06:29:45.000Z</time>
      </trkpt>
      <trkpt lat="45.22565" lon="5.74614">
        <ele>741</ele>
        <time>2021-07-17T06:29:47.000Z</time>
      </trkpt>
      <trkpt lat="45.22564" lon="5.74615">
        <ele>739.79998779297</ele>
        <time>2021-07-17T06:29:48.000Z</time>
      </trkpt>
      <trkpt lat="45.22558" lon="5.74622">
        <ele>739.40002441406</ele>
        <time>2021-07-17T06:29:52.000Z</time>
      </trkpt>
      <trkpt lat="45.22556" lon="5.74624">
        <ele>738.59997558594</ele>
        <time>2021-07-17T06:29:53.000Z</time>
      </trkpt>
      <trkpt lat="45.22553" lon="5.74626">
        <ele>738.79998779297</ele>
        <time>2021-07-17T06:29:55.000Z</time>
      </trkpt>
      <trkpt lat="45.22549" lon="5.7463">
        <ele>737.20001220703</ele>
        <time>2021-07-17T06:29:59.000Z</time>
      </trkpt>
      <trkpt lat="45.22547" lon="5.74632">
        <ele>736.40002441406</ele>
        <time>2021-07-17T06:30:01.000Z</time>
      </trkpt>
      <trkpt lat="45.22546" lon="5.74634">
        <ele>736</ele>
        <time>2021-07-17T06:30:02.000Z</time>
      </trkpt>
      <trkpt lat="45.22545" lon="5.74635">
        <ele>735.59997558594</ele>
        <time>2021-07-17T06:30:03.000Z</time>
      </trkpt>
      <trkpt lat="45.22544" lon="5.74637">
        <ele>735.59997558594</ele>
        <time>2021-07-17T06:30:04.000Z</time>
      </trkpt>
      <trkpt lat="45.22543" lon="5.74638">
        <ele>735</ele>
        <time>2021-07-17T06:30:05.000Z</time>
      </trkpt>
      <trkpt lat="45.2254" lon="5.74643">
        <ele>733.20001220703</ele>
        <time>2021-07-17T06:30:08.000Z</time>
      </trkpt>
      <trkpt lat="45.22539" lon="5.74645">
        <ele>732.59997558594</ele>
        <time>2021-07-17T06:30:10.000Z</time>
      </trkpt>
      <trkpt lat="45.22538" lon="5.74647">
        <ele>732</ele>
        <time>2021-07-17T06:30:11.000Z</time>
      </trkpt>
      <trkpt lat="45.22533" lon="5.74653">
        <ele>730.79998779297</ele>
        <time>2021-07-17T06:30:16.000Z</time>
      </trkpt>
      <trkpt lat="45.2253" lon="5.74656">
        <ele>729.79998779297</ele>
        <time>2021-07-17T06:30:18.000Z</time>
      </trkpt>
      <trkpt lat="45.22529" lon="5.74657">
        <ele>728.20001220703</ele>
        <time>2021-07-17T06:30:19.000Z</time>
      </trkpt>
      <trkpt lat="45.22528" lon="5.74658">
        <ele>728</ele>
        <time>2021-07-17T06:30:20.000Z</time>
      </trkpt>
      <trkpt lat="45.22523" lon="5.74663">
        <ele>727</ele>
        <time>2021-07-17T06:30:24.000Z</time>
      </trkpt>
      <trkpt lat="45.22518" lon="5.74667">
        <ele>724.20001220703</ele>
        <time>2021-07-17T06:30:28.000Z</time>
      </trkpt>
      <trkpt lat="45.22517" lon="5.74668">
        <ele>724.20001220703</ele>
        <time>2021-07-17T06:30:29.000Z</time>
      </trkpt>
      <trkpt lat="45.22515" lon="5.74668">
        <ele>723.79998779297</ele>
        <time>2021-07-17T06:30:30.000Z</time>
      </trkpt>
      <trkpt lat="45.22514" lon="5.74669">
        <ele>723.20001220703</ele>
        <time>2021-07-17T06:30:31.000Z</time>
      </trkpt>
      <trkpt lat="45.2251" lon="5.74673">
        <ele>721.59997558594</ele>
        <time>2021-07-17T06:30:34.000Z</time>
      </trkpt>
      <trkpt lat="45.22505" lon="5.74676">
        <ele>720.59997558594</ele>
        <time>2021-07-17T06:30:37.000Z</time>
      </trkpt>
      <trkpt lat="45.22503" lon="5.74679">
        <ele>720</ele>
        <time>2021-07-17T06:30:39.000Z</time>
      </trkpt>
      <trkpt lat="45.22501" lon="5.74681">
        <ele>719.79998779297</ele>
        <time>2021-07-17T06:30:40.000Z</time>
      </trkpt>
      <trkpt lat="45.22499" lon="5.74683">
        <ele>719.59997558594</ele>
        <time>2021-07-17T06:30:41.000Z</time>
      </trkpt>
      <trkpt lat="45.22497" lon="5.74684">
        <ele>718</ele>
        <time>2021-07-17T06:30:42.000Z</time>
      </trkpt>
      <trkpt lat="45.22495" lon="5.74686">
        <ele>717</ele>
        <time>2021-07-17T06:30:44.000Z</time>
      </trkpt>
      <trkpt lat="45.22486" lon="5.74691">
        <ele>716.20001220703</ele>
        <time>2021-07-17T06:30:49.000Z</time>
      </trkpt>
      <trkpt lat="45.22484" lon="5.74691">
        <ele>716</ele>
        <time>2021-07-17T06:30:50.000Z</time>
      </trkpt>
      <trkpt lat="45.2248" lon="5.74693">
        <ele>714.79998779297</ele>
        <time>2021-07-17T06:30:52.000Z</time>
      </trkpt>
      <trkpt lat="45.22476" lon="5.74693">
        <ele>713.79998779297</ele>
        <time>2021-07-17T06:30:54.000Z</time>
      </trkpt>
      <trkpt lat="45.22473" lon="5.74694">
        <ele>712.20001220703</ele>
        <time>2021-07-17T06:30:56.000Z</time>
      </trkpt>
      <trkpt lat="45.22471" lon="5.74694">
        <ele>711.79998779297</ele>
        <time>2021-07-17T06:30:57.000Z</time>
      </trkpt>
      <trkpt lat="45.22468" lon="5.74696">
        <ele>711.79998779297</ele>
        <time>2021-07-17T06:30:59.000Z</time>
      </trkpt>
      <trkpt lat="45.22464" lon="5.74696">
        <ele>710</ele>
        <time>2021-07-17T06:31:01.000Z</time>
      </trkpt>
      <trkpt lat="45.22459" lon="5.74697">
        <ele>709.40002441406</ele>
        <time>2021-07-17T06:31:03.000Z</time>
      </trkpt>
      <trkpt lat="45.22457" lon="5.74696">
        <ele>709</ele>
        <time>2021-07-17T06:31:04.000Z</time>
      </trkpt>
      <trkpt lat="45.22456" lon="5.74695">
        <ele>709</ele>
        <time>2021-07-17T06:31:05.000Z</time>
      </trkpt>
      <trkpt lat="45.2245" lon="5.74695">
        <ele>707</ele>
        <time>2021-07-17T06:31:08.000Z</time>
      </trkpt>
      <trkpt lat="45.22442" lon="5.74696">
        <ele>706.40002441406</ele>
        <time>2021-07-17T06:31:10.000Z</time>
      </trkpt>
      <trkpt lat="45.2244" lon="5.74693">
        <ele>705.59997558594</ele>
        <time>2021-07-17T06:31:11.000Z</time>
      </trkpt>
      <trkpt lat="45.22435" lon="5.74691">
        <ele>705.40002441406</ele>
        <time>2021-07-17T06:31:13.000Z</time>
      </trkpt>
      <trkpt lat="45.22431" lon="5.7469">
        <ele>704.59997558594</ele>
        <time>2021-07-17T06:31:15.000Z</time>
      </trkpt>
      <trkpt lat="45.22428" lon="5.74689">
        <ele>703.20001220703</ele>
        <time>2021-07-17T06:31:17.000Z</time>
      </trkpt>
      <trkpt lat="45.22425" lon="5.74688">
        <ele>702.20001220703</ele>
        <time>2021-07-17T06:31:20.000Z</time>
      </trkpt>
      <trkpt lat="45.22423" lon="5.74688">
        <ele>701.79998779297</ele>
        <time>2021-07-17T06:31:21.000Z</time>
      </trkpt>
      <trkpt lat="45.22416" lon="5.74687">
        <ele>701.20001220703</ele>
        <time>2021-07-17T06:31:24.000Z</time>
      </trkpt>
      <trkpt lat="45.22412" lon="5.74685">
        <ele>699.79998779297</ele>
        <time>2021-07-17T06:31:26.000Z</time>
      </trkpt>
      <trkpt lat="45.22409" lon="5.74683">
        <ele>698.40002441406</ele>
        <time>2021-07-17T06:31:28.000Z</time>
      </trkpt>
      <trkpt lat="45.22407" lon="5.74682">
        <ele>698.40002441406</ele>
        <time>2021-07-17T06:31:29.000Z</time>
      </trkpt>
      <trkpt lat="45.22405" lon="5.74681">
        <ele>698.20001220703</ele>
        <time>2021-07-17T06:31:30.000Z</time>
      </trkpt>
      <trkpt lat="45.224" lon="5.74681">
        <ele>696.40002441406</ele>
        <time>2021-07-17T06:31:33.000Z</time>
      </trkpt>
      <trkpt lat="45.22399" lon="5.7468">
        <ele>696.40002441406</ele>
        <time>2021-07-17T06:31:34.000Z</time>
      </trkpt>
      <trkpt lat="45.22398" lon="5.7468">
        <ele>696</ele>
        <time>2021-07-17T06:31:36.000Z</time>
      </trkpt>
      <trkpt lat="45.22399" lon="5.74681">
        <ele>695.59997558594</ele>
        <time>2021-07-17T06:31:38.000Z</time>
      </trkpt>
      <trkpt lat="45.22395" lon="5.74679">
        <ele>695.79998779297</ele>
        <time>2021-07-17T06:31:43.000Z</time>
      </trkpt>
      <trkpt lat="45.22394" lon="5.74677">
        <ele>695.79998779297</ele>
        <time>2021-07-17T06:31:46.000Z</time>
      </trkpt>
      <trkpt lat="45.22393" lon="5.74676">
        <ele>695.79998779297</ele>
        <time>2021-07-17T06:31:48.000Z</time>
      </trkpt>
      <trkpt lat="45.22396" lon="5.74674">
        <ele>695.79998779297</ele>
        <time>2021-07-17T06:31:52.000Z</time>
      </trkpt>
      <trkpt lat="45.22396" lon="5.74673">
        <ele>695.79998779297</ele>
        <time>2021-07-17T06:31:53.000Z</time>
      </trkpt>
      <trkpt lat="45.224" lon="5.74674">
        <ele>695.79998779297</ele>
        <time>2021-07-17T06:32:01.000Z</time>
      </trkpt>
      <trkpt lat="45.22401" lon="5.74677">
        <ele>695.59997558594</ele>
        <time>2021-07-17T06:32:03.000Z</time>
      </trkpt>
      <trkpt lat="45.22402" lon="5.74678">
        <ele>695.40002441406</ele>
        <time>2021-07-17T06:32:04.000Z</time>
      </trkpt>
      <trkpt lat="45.22403" lon="5.74682">
        <ele>694.40002441406</ele>
        <time>2021-07-17T06:32:06.000Z</time>
      </trkpt>
      <trkpt lat="45.22404" lon="5.74686">
        <ele>693.79998779297</ele>
        <time>2021-07-17T06:32:08.000Z</time>
      </trkpt>
      <trkpt lat="45.22404" lon="5.74687">
        <ele>692.79998779297</ele>
        <time>2021-07-17T06:32:09.000Z</time>
      </trkpt>
      <trkpt lat="45.22405" lon="5.7469">
        <ele>692.40002441406</ele>
        <time>2021-07-17T06:32:11.000Z</time>
      </trkpt>
      <trkpt lat="45.22406" lon="5.74691">
        <ele>691.40002441406</ele>
        <time>2021-07-17T06:32:12.000Z</time>
      </trkpt>
      <trkpt lat="45.22408" lon="5.74694">
        <ele>691.20001220703</ele>
        <time>2021-07-17T06:32:14.000Z</time>
      </trkpt>
      <trkpt lat="45.22411" lon="5.74697">
        <ele>690.40002441406</ele>
        <time>2021-07-17T06:32:16.000Z</time>
      </trkpt>
      <trkpt lat="45.22414" lon="5.74702">
        <ele>688.59997558594</ele>
        <time>2021-07-17T06:32:20.000Z</time>
      </trkpt>
      <trkpt lat="45.22416" lon="5.74706">
        <ele>687.40002441406</ele>
        <time>2021-07-17T06:32:22.000Z</time>
      </trkpt>
      <trkpt lat="45.22417" lon="5.74708">
        <ele>687.20001220703</ele>
        <time>2021-07-17T06:32:23.000Z</time>
      </trkpt>
      <trkpt lat="45.22416" lon="5.74714">
        <ele>686</ele>
        <time>2021-07-17T06:32:26.000Z</time>
      </trkpt>
      <trkpt lat="45.22414" lon="5.7472">
        <ele>684.59997558594</ele>
        <time>2021-07-17T06:32:29.000Z</time>
      </trkpt>
      <trkpt lat="45.22414" lon="5.74722">
        <ele>684.40002441406</ele>
        <time>2021-07-17T06:32:30.000Z</time>
      </trkpt>
      <trkpt lat="45.22412" lon="5.74724">
        <ele>683.59997558594</ele>
        <time>2021-07-17T06:32:32.000Z</time>
      </trkpt>
      <trkpt lat="45.22408" lon="5.7473">
        <ele>681.79998779297</ele>
        <time>2021-07-17T06:32:36.000Z</time>
      </trkpt>
      <trkpt lat="45.22408" lon="5.74731">
        <ele>681.59997558594</ele>
        <time>2021-07-17T06:32:37.000Z</time>
      </trkpt>
      <trkpt lat="45.22405" lon="5.74735">
        <ele>680.59997558594</ele>
        <time>2021-07-17T06:32:40.000Z</time>
      </trkpt>
      <trkpt lat="45.22403" lon="5.74737">
        <ele>679.59997558594</ele>
        <time>2021-07-17T06:32:42.000Z</time>
      </trkpt>
      <trkpt lat="45.22403" lon="5.74739">
        <ele>679</ele>
        <time>2021-07-17T06:32:43.000Z</time>
      </trkpt>
      <trkpt lat="45.22402" lon="5.74741">
        <ele>678.59997558594</ele>
        <time>2021-07-17T06:32:45.000Z</time>
      </trkpt>
      <trkpt lat="45.224" lon="5.74745">
        <ele>677.59997558594</ele>
        <time>2021-07-17T06:32:48.000Z</time>
      </trkpt>
      <trkpt lat="45.22399" lon="5.74747">
        <ele>676.79998779297</ele>
        <time>2021-07-17T06:32:50.000Z</time>
      </trkpt>
      <trkpt lat="45.22398" lon="5.74751">
        <ele>676.20001220703</ele>
        <time>2021-07-17T06:32:53.000Z</time>
      </trkpt>
      <trkpt lat="45.22397" lon="5.74755">
        <ele>675.79998779297</ele>
        <time>2021-07-17T06:32:55.000Z</time>
      </trkpt>
      <trkpt lat="45.22396" lon="5.74758">
        <ele>674.79998779297</ele>
        <time>2021-07-17T06:32:57.000Z</time>
      </trkpt>
      <trkpt lat="45.22394" lon="5.74762">
        <ele>673.59997558594</ele>
        <time>2021-07-17T06:32:59.000Z</time>
      </trkpt>
      <trkpt lat="45.22392" lon="5.74765">
        <ele>672.79998779297</ele>
        <time>2021-07-17T06:33:01.000Z</time>
      </trkpt>
      <trkpt lat="45.22391" lon="5.74766">
        <ele>672.59997558594</ele>
        <time>2021-07-17T06:33:02.000Z</time>
      </trkpt>
      <trkpt lat="45.2239" lon="5.74768">
        <ele>671.59997558594</ele>
        <time>2021-07-17T06:33:03.000Z</time>
      </trkpt>
      <trkpt lat="45.22388" lon="5.7477">
        <ele>671.20001220703</ele>
        <time>2021-07-17T06:33:05.000Z</time>
      </trkpt>
      <trkpt lat="45.22385" lon="5.74774">
        <ele>670.59997558594</ele>
        <time>2021-07-17T06:33:07.000Z</time>
      </trkpt>
      <trkpt lat="45.22383" lon="5.74776">
        <ele>670.20001220703</ele>
        <time>2021-07-17T06:33:08.000Z</time>
      </trkpt>
      <trkpt lat="45.22382" lon="5.74779">
        <ele>669.79998779297</ele>
        <time>2021-07-17T06:33:09.000Z</time>
      </trkpt>
      <trkpt lat="45.2238" lon="5.74784">
        <ele>669.40002441406</ele>
        <time>2021-07-17T06:33:11.000Z</time>
      </trkpt>
      <trkpt lat="45.2238" lon="5.74787">
        <ele>668.79998779297</ele>
        <time>2021-07-17T06:33:12.000Z</time>
      </trkpt>
      <trkpt lat="45.22379" lon="5.7479">
        <ele>668.20001220703</ele>
        <time>2021-07-17T06:33:14.000Z</time>
      </trkpt>
      <trkpt lat="45.22379" lon="5.74792">
        <ele>667.20001220703</ele>
        <time>2021-07-17T06:33:15.000Z</time>
      </trkpt>
      <trkpt lat="45.22375" lon="5.748">
        <ele>666.20001220703</ele>
        <time>2021-07-17T06:33:18.000Z</time>
      </trkpt>
      <trkpt lat="45.22372" lon="5.74802">
        <ele>666.20001220703</ele>
        <time>2021-07-17T06:33:20.000Z</time>
      </trkpt>
      <trkpt lat="45.2237" lon="5.74804">
        <ele>665.40002441406</ele>
        <time>2021-07-17T06:33:21.000Z</time>
      </trkpt>
      <trkpt lat="45.22368" lon="5.74805">
        <ele>664.59997558594</ele>
        <time>2021-07-17T06:33:22.000Z</time>
      </trkpt>
      <trkpt lat="45.22365" lon="5.74806">
        <ele>664</ele>
        <time>2021-07-17T06:33:24.000Z</time>
      </trkpt>
      <trkpt lat="45.22364" lon="5.74807">
        <ele>663.20001220703</ele>
        <time>2021-07-17T06:33:25.000Z</time>
      </trkpt>
      <trkpt lat="45.22363" lon="5.7481">
        <ele>662.59997558594</ele>
        <time>2021-07-17T06:33:27.000Z</time>
      </trkpt>
      <trkpt lat="45.2236" lon="5.74812">
        <ele>662.20001220703</ele>
        <time>2021-07-17T06:33:29.000Z</time>
      </trkpt>
      <trkpt lat="45.22355" lon="5.74815">
        <ele>661.20001220703</ele>
        <time>2021-07-17T06:33:32.000Z</time>
      </trkpt>
      <trkpt lat="45.22351" lon="5.74816">
        <ele>660.20001220703</ele>
        <time>2021-07-17T06:33:34.000Z</time>
      </trkpt>
      <trkpt lat="45.22349" lon="5.74819">
        <ele>659.79998779297</ele>
        <time>2021-07-17T06:33:36.000Z</time>
      </trkpt>
      <trkpt lat="45.22348" lon="5.7482">
        <ele>658.20001220703</ele>
        <time>2021-07-17T06:33:37.000Z</time>
      </trkpt>
      <trkpt lat="45.22345" lon="5.74823">
        <ele>657.20001220703</ele>
        <time>2021-07-17T06:33:40.000Z</time>
      </trkpt>
      <trkpt lat="45.22344" lon="5.74824">
        <ele>657</ele>
        <time>2021-07-17T06:33:41.000Z</time>
      </trkpt>
      <trkpt lat="45.22338" lon="5.74827">
        <ele>655.59997558594</ele>
        <time>2021-07-17T06:33:45.000Z</time>
      </trkpt>
      <trkpt lat="45.22338" lon="5.74828">
        <ele>655.40002441406</ele>
        <time>2021-07-17T06:33:46.000Z</time>
      </trkpt>
      <trkpt lat="45.22338" lon="5.74831">
        <ele>654.59997558594</ele>
        <time>2021-07-17T06:33:48.000Z</time>
      </trkpt>
      <trkpt lat="45.22338" lon="5.74831">
        <ele>654.59997558594</ele>
        <time>2021-07-17T06:33:49.000Z</time>
      </trkpt>
      <trkpt lat="45.22338" lon="5.74832">
        <ele>652.79998779297</ele>
        <time>2021-07-17T06:33:51.000Z</time>
      </trkpt>
      <trkpt lat="45.22339" lon="5.74834">
        <ele>651.79998779297</ele>
        <time>2021-07-17T06:33:53.000Z</time>
      </trkpt>
      <trkpt lat="45.22339" lon="5.74835">
        <ele>651.79998779297</ele>
        <time>2021-07-17T06:33:54.000Z</time>
      </trkpt>
      <trkpt lat="45.2234" lon="5.74835">
        <ele>651.59997558594</ele>
        <time>2021-07-17T06:33:55.000Z</time>
      </trkpt>
      <trkpt lat="45.2234" lon="5.74836">
        <ele>650.40002441406</ele>
        <time>2021-07-17T06:33:56.000Z</time>
      </trkpt>
      <trkpt lat="45.22342" lon="5.7484">
        <ele>649.59997558594</ele>
        <time>2021-07-17T06:33:59.000Z</time>
      </trkpt>
      <trkpt lat="45.22342" lon="5.74842">
        <ele>649.20001220703</ele>
        <time>2021-07-17T06:34:01.000Z</time>
      </trkpt>
      <trkpt lat="45.22342" lon="5.74844">
        <ele>648.59997558594</ele>
        <time>2021-07-17T06:34:02.000Z</time>
      </trkpt>
      <trkpt lat="45.22343" lon="5.74847">
        <ele>648</ele>
        <time>2021-07-17T06:34:04.000Z</time>
      </trkpt>
      <trkpt lat="45.22344" lon="5.74849">
        <ele>646.40002441406</ele>
        <time>2021-07-17T06:34:05.000Z</time>
      </trkpt>
      <trkpt lat="45.22345" lon="5.7485">
        <ele>646.20001220703</ele>
        <time>2021-07-17T06:34:06.000Z</time>
      </trkpt>
      <trkpt lat="45.22345" lon="5.74855">
        <ele>645.59997558594</ele>
        <time>2021-07-17T06:34:08.000Z</time>
      </trkpt>
      <trkpt lat="45.22347" lon="5.74861">
        <ele>645.40002441406</ele>
        <time>2021-07-17T06:34:10.000Z</time>
      </trkpt>
      <trkpt lat="45.22348" lon="5.74863">
        <ele>644</ele>
        <time>2021-07-17T06:34:11.000Z</time>
      </trkpt>
      <trkpt lat="45.22352" lon="5.7487">
        <ele>643.59997558594</ele>
        <time>2021-07-17T06:34:14.000Z</time>
      </trkpt>
      <trkpt lat="45.22353" lon="5.74873">
        <ele>642.59997558594</ele>
        <time>2021-07-17T06:34:15.000Z</time>
      </trkpt>
      <trkpt lat="45.22355" lon="5.74878">
        <ele>641.40002441406</ele>
        <time>2021-07-17T06:34:17.000Z</time>
      </trkpt>
      <trkpt lat="45.22358" lon="5.74887">
        <ele>640.40002441406</ele>
        <time>2021-07-17T06:34:21.000Z</time>
      </trkpt>
      <trkpt lat="45.22359" lon="5.74889">
        <ele>639.20001220703</ele>
        <time>2021-07-17T06:34:22.000Z</time>
      </trkpt>
      <trkpt lat="45.22362" lon="5.749">
        <ele>637.59997558594</ele>
        <time>2021-07-17T06:34:26.000Z</time>
      </trkpt>
      <trkpt lat="45.22363" lon="5.74903">
        <ele>636.59997558594</ele>
        <time>2021-07-17T06:34:27.000Z</time>
      </trkpt>
      <trkpt lat="45.22363" lon="5.74915">
        <ele>635.40002441406</ele>
        <time>2021-07-17T06:34:30.000Z</time>
      </trkpt>
      <trkpt lat="45.22361" lon="5.74921">
        <ele>633.79998779297</ele>
        <time>2021-07-17T06:34:32.000Z</time>
      </trkpt>
      <trkpt lat="45.22359" lon="5.74927">
        <ele>632.79998779297</ele>
        <time>2021-07-17T06:34:34.000Z</time>
      </trkpt>
      <trkpt lat="45.22358" lon="5.74934">
        <ele>631.59997558594</ele>
        <time>2021-07-17T06:34:37.000Z</time>
      </trkpt>
      <trkpt lat="45.22359" lon="5.74937">
        <ele>631.40002441406</ele>
        <time>2021-07-17T06:34:38.000Z</time>
      </trkpt>
      <trkpt lat="45.22361" lon="5.74945">
        <ele>629.79998779297</ele>
        <time>2021-07-17T06:34:41.000Z</time>
      </trkpt>
      <trkpt lat="45.2236" lon="5.74951">
        <ele>628.59997558594</ele>
        <time>2021-07-17T06:34:43.000Z</time>
      </trkpt>
      <trkpt lat="45.22361" lon="5.74961">
        <ele>627</ele>
        <time>2021-07-17T06:34:47.000Z</time>
      </trkpt>
      <trkpt lat="45.22362" lon="5.7497">
        <ele>624.79998779297</ele>
        <time>2021-07-17T06:34:51.000Z</time>
      </trkpt>
      <trkpt lat="45.22363" lon="5.74972">
        <ele>624.79998779297</ele>
        <time>2021-07-17T06:34:52.000Z</time>
      </trkpt>
      <trkpt lat="45.22363" lon="5.74978">
        <ele>623.79998779297</ele>
        <time>2021-07-17T06:34:55.000Z</time>
      </trkpt>
      <trkpt lat="45.22363" lon="5.74981">
        <ele>623.79998779297</ele>
        <time>2021-07-17T06:34:58.000Z</time>
      </trkpt>
      <trkpt lat="45.22363" lon="5.74981">
        <ele>623.79998779297</ele>
        <time>2021-07-17T06:35:01.000Z</time>
      </trkpt>
      <trkpt lat="45.22363" lon="5.74982">
        <ele>623.79998779297</ele>
        <time>2021-07-17T06:35:05.000Z</time>
      </trkpt>
      <trkpt lat="45.22362" lon="5.74981">
        <ele>623.79998779297</ele>
        <time>2021-07-17T06:35:06.000Z</time>
      </trkpt>
      <trkpt lat="45.22362" lon="5.74982">
        <ele>623.79998779297</ele>
        <time>2021-07-17T06:35:08.000Z</time>
      </trkpt>
      <trkpt lat="45.22361" lon="5.74982">
        <ele>623.79998779297</ele>
        <time>2021-07-17T06:35:10.000Z</time>
      </trkpt>
      <trkpt lat="45.22358" lon="5.7498">
        <ele>623.79998779297</ele>
        <time>2021-07-17T06:35:13.000Z</time>
      </trkpt>
      <trkpt lat="45.22358" lon="5.74978">
        <ele>623.79998779297</ele>
        <time>2021-07-17T06:35:14.000Z</time>
      </trkpt>
      <trkpt lat="45.22358" lon="5.74969">
        <ele>623.79998779297</ele>
        <time>2021-07-17T06:35:18.000Z</time>
      </trkpt>
      <trkpt lat="45.22359" lon="5.74965">
        <ele>624.40002441406</ele>
        <time>2021-07-17T06:35:21.000Z</time>
      </trkpt>
      <trkpt lat="45.22359" lon="5.74965">
        <ele>624.79998779297</ele>
        <time>2021-07-17T06:35:22.000Z</time>
      </trkpt>
      <trkpt lat="45.22359" lon="5.74964">
        <ele>625</ele>
        <time>2021-07-17T06:35:26.000Z</time>
      </trkpt>
      <trkpt lat="45.22358" lon="5.74961">
        <ele>625</ele>
        <time>2021-07-17T06:35:29.000Z</time>
      </trkpt>
      <trkpt lat="45.22357" lon="5.7496">
        <ele>625</ele>
        <time>2021-07-17T06:35:30.000Z</time>
      </trkpt>
      <trkpt lat="45.22358" lon="5.74957">
        <ele>626</ele>
        <time>2021-07-17T06:35:34.000Z</time>
      </trkpt>
      <trkpt lat="45.22358" lon="5.74957">
        <ele>626.20001220703</ele>
        <time>2021-07-17T06:35:35.000Z</time>
      </trkpt>
      <trkpt lat="45.22356" lon="5.74955">
        <ele>626.40002441406</ele>
        <time>2021-07-17T06:35:45.000Z</time>
      </trkpt>
      <trkpt lat="45.22356" lon="5.74954">
        <ele>626.40002441406</ele>
        <time>2021-07-17T06:35:46.000Z</time>
      </trkpt>
      <trkpt lat="45.22355" lon="5.7495">
        <ele>627</ele>
        <time>2021-07-17T06:35:50.000Z</time>
      </trkpt>
      <trkpt lat="45.22354" lon="5.74948">
        <ele>627.59997558594</ele>
        <time>2021-07-17T06:35:52.000Z</time>
      </trkpt>
      <trkpt lat="45.22354" lon="5.74946">
        <ele>628.20001220703</ele>
        <time>2021-07-17T06:35:54.000Z</time>
      </trkpt>
      <trkpt lat="45.22354" lon="5.74945">
        <ele>628.40002441406</ele>
        <time>2021-07-17T06:35:55.000Z</time>
      </trkpt>
      <trkpt lat="45.22353" lon="5.7494">
        <ele>629.20001220703</ele>
        <time>2021-07-17T06:35:58.000Z</time>
      </trkpt>
      <trkpt lat="45.22354" lon="5.74937">
        <ele>630</ele>
        <time>2021-07-17T06:36:00.000Z</time>
      </trkpt>
      <trkpt lat="45.22355" lon="5.74936">
        <ele>630.40002441406</ele>
        <time>2021-07-17T06:36:01.000Z</time>
      </trkpt>
      <trkpt lat="45.22356" lon="5.7493">
        <ele>631.59997558594</ele>
        <time>2021-07-17T06:36:05.000Z</time>
      </trkpt>
      <trkpt lat="45.22357" lon="5.74925">
        <ele>632.59997558594</ele>
        <time>2021-07-17T06:36:08.000Z</time>
      </trkpt>
      <trkpt lat="45.22359" lon="5.7492">
        <ele>633.59997558594</ele>
        <time>2021-07-17T06:36:11.000Z</time>
      </trkpt>
      <trkpt lat="45.22361" lon="5.74911">
        <ele>635.40002441406</ele>
        <time>2021-07-17T06:36:16.000Z</time>
      </trkpt>
      <trkpt lat="45.2236" lon="5.74906">
        <ele>635.79998779297</ele>
        <time>2021-07-17T06:36:19.000Z</time>
      </trkpt>
      <trkpt lat="45.22359" lon="5.74902">
        <ele>636.79998779297</ele>
        <time>2021-07-17T06:36:21.000Z</time>
      </trkpt>
      <trkpt lat="45.22356" lon="5.74896">
        <ele>637.79998779297</ele>
        <time>2021-07-17T06:36:25.000Z</time>
      </trkpt>
      <trkpt lat="45.22356" lon="5.74894">
        <ele>638.20001220703</ele>
        <time>2021-07-17T06:36:26.000Z</time>
      </trkpt>
      <trkpt lat="45.22355" lon="5.74893">
        <ele>638.40002441406</ele>
        <time>2021-07-17T06:36:27.000Z</time>
      </trkpt>
      <trkpt lat="45.22353" lon="5.7489">
        <ele>638.79998779297</ele>
        <time>2021-07-17T06:36:30.000Z</time>
      </trkpt>
      <trkpt lat="45.22353" lon="5.7489">
        <ele>639</ele>
        <time>2021-07-17T06:36:31.000Z</time>
      </trkpt>
      <trkpt lat="45.22352" lon="5.74891">
        <ele>639.40002441406</ele>
        <time>2021-07-17T06:36:32.000Z</time>
      </trkpt>
      <trkpt lat="45.22353" lon="5.74893">
        <ele>639.40002441406</ele>
        <time>2021-07-17T06:36:34.000Z</time>
      </trkpt>
      <trkpt lat="45.22351" lon="5.74893">
        <ele>639.40002441406</ele>
        <time>2021-07-17T06:36:35.000Z</time>
      </trkpt>
      <trkpt lat="45.22353" lon="5.74896">
        <ele>639.40002441406</ele>
        <time>2021-07-17T06:36:38.000Z</time>
      </trkpt>
      <trkpt lat="45.22354" lon="5.74898">
        <ele>639.40002441406</ele>
        <time>2021-07-17T06:36:40.000Z</time>
      </trkpt>
      <trkpt lat="45.22355" lon="5.74898">
        <ele>639.40002441406</ele>
        <time>2021-07-17T06:36:44.000Z</time>
      </trkpt>
      <trkpt lat="45.22355" lon="5.74898">
        <ele>639.59997558594</ele>
        <time>2021-07-17T06:36:53.000Z</time>
      </trkpt>
      <trkpt lat="45.22355" lon="5.74898">
        <ele>639.59997558594</ele>
        <time>2021-07-17T06:36:56.000Z</time>
      </trkpt>
      <trkpt lat="45.22356" lon="5.74899">
        <ele>639.59997558594</ele>
        <time>2021-07-17T06:37:02.000Z</time>
      </trkpt>
      <trkpt lat="45.22355" lon="5.74895">
        <ele>639.79998779297</ele>
        <time>2021-07-17T06:37:04.000Z</time>
      </trkpt>
      <trkpt lat="45.22353" lon="5.74891">
        <ele>640.20001220703</ele>
        <time>2021-07-17T06:37:06.000Z</time>
      </trkpt>
      <trkpt lat="45.22352" lon="5.7489">
        <ele>640.79998779297</ele>
        <time>2021-07-17T06:37:07.000Z</time>
      </trkpt>
      <trkpt lat="45.22351" lon="5.74888">
        <ele>641</ele>
        <time>2021-07-17T06:37:08.000Z</time>
      </trkpt>
      <trkpt lat="45.22349" lon="5.74885">
        <ele>641.59997558594</ele>
        <time>2021-07-17T06:37:10.000Z</time>
      </trkpt>
      <trkpt lat="45.22349" lon="5.74883">
        <ele>641.79998779297</ele>
        <time>2021-07-17T06:37:11.000Z</time>
      </trkpt>
      <trkpt lat="45.22348" lon="5.74882">
        <ele>641.79998779297</ele>
        <time>2021-07-17T06:37:12.000Z</time>
      </trkpt>
      <trkpt lat="45.22347" lon="5.7488">
        <ele>642.40002441406</ele>
        <time>2021-07-17T06:37:13.000Z</time>
      </trkpt>
      <trkpt lat="45.22344" lon="5.74874">
        <ele>643.59997558594</ele>
        <time>2021-07-17T06:37:17.000Z</time>
      </trkpt>
      <trkpt lat="45.22343" lon="5.74871">
        <ele>644</ele>
        <time>2021-07-17T06:37:19.000Z</time>
      </trkpt>
      <trkpt lat="45.22343" lon="5.74869">
        <ele>644</ele>
        <time>2021-07-17T06:37:20.000Z</time>
      </trkpt>
      <trkpt lat="45.22343" lon="5.74867">
        <ele>644.40002441406</ele>
        <time>2021-07-17T06:37:21.000Z</time>
      </trkpt>
      <trkpt lat="45.22343" lon="5.74865">
        <ele>645.20001220703</ele>
        <time>2021-07-17T06:37:22.000Z</time>
      </trkpt>
      <trkpt lat="45.22342" lon="5.74861">
        <ele>646.20001220703</ele>
        <time>2021-07-17T06:37:26.000Z</time>
      </trkpt>
      <trkpt lat="45.22341" lon="5.7486">
        <ele>646.20001220703</ele>
        <time>2021-07-17T06:37:27.000Z</time>
      </trkpt>
      <trkpt lat="45.22341" lon="5.74858">
        <ele>647.20001220703</ele>
        <time>2021-07-17T06:37:28.000Z</time>
      </trkpt>
      <trkpt lat="45.22339" lon="5.74853">
        <ele>648.20001220703</ele>
        <time>2021-07-17T06:37:32.000Z</time>
      </trkpt>
      <trkpt lat="45.22336" lon="5.74849">
        <ele>649.79998779297</ele>
        <time>2021-07-17T06:37:36.000Z</time>
      </trkpt>
      <trkpt lat="45.22333" lon="5.74844">
        <ele>650.59997558594</ele>
        <time>2021-07-17T06:37:40.000Z</time>
      </trkpt>
      <trkpt lat="45.22333" lon="5.74843">
        <ele>651</ele>
        <time>2021-07-17T06:37:41.000Z</time>
      </trkpt>
      <trkpt lat="45.22333" lon="5.7484">
        <ele>652</ele>
        <time>2021-07-17T06:37:43.000Z</time>
      </trkpt>
      <trkpt lat="45.22332" lon="5.74836">
        <ele>652.59997558594</ele>
        <time>2021-07-17T06:37:46.000Z</time>
      </trkpt>
      <trkpt lat="45.22332" lon="5.74835">
        <ele>653</ele>
        <time>2021-07-17T06:37:47.000Z</time>
      </trkpt>
      <trkpt lat="45.22333" lon="5.74827">
        <ele>654.40002441406</ele>
        <time>2021-07-17T06:37:52.000Z</time>
      </trkpt>
      <trkpt lat="45.22334" lon="5.74827">
        <ele>654.59997558594</ele>
        <time>2021-07-17T06:37:53.000Z</time>
      </trkpt>
      <trkpt lat="45.22336" lon="5.74825">
        <ele>654.79998779297</ele>
        <time>2021-07-17T06:37:55.000Z</time>
      </trkpt>
      <trkpt lat="45.22338" lon="5.74821">
        <ele>655.59997558594</ele>
        <time>2021-07-17T06:37:59.000Z</time>
      </trkpt>
      <trkpt lat="45.22341" lon="5.7482">
        <ele>656.40002441406</ele>
        <time>2021-07-17T06:38:02.000Z</time>
      </trkpt>
      <trkpt lat="45.22342" lon="5.7482">
        <ele>656.59997558594</ele>
        <time>2021-07-17T06:38:04.000Z</time>
      </trkpt>
      <trkpt lat="45.22344" lon="5.74818">
        <ele>658</ele>
        <time>2021-07-17T06:38:07.000Z</time>
      </trkpt>
      <trkpt lat="45.22347" lon="5.74815">
        <ele>658.40002441406</ele>
        <time>2021-07-17T06:38:10.000Z</time>
      </trkpt>
      <trkpt lat="45.22348" lon="5.74813">
        <ele>658.79998779297</ele>
        <time>2021-07-17T06:38:13.000Z</time>
      </trkpt>
      <trkpt lat="45.22349" lon="5.74813">
        <ele>659.20001220703</ele>
        <time>2021-07-17T06:38:14.000Z</time>
      </trkpt>
      <trkpt lat="45.22349" lon="5.74812">
        <ele>659.59997558594</ele>
        <time>2021-07-17T06:38:15.000Z</time>
      </trkpt>
      <trkpt lat="45.2235" lon="5.74811">
        <ele>660.20001220703</ele>
        <time>2021-07-17T06:38:16.000Z</time>
      </trkpt>
      <trkpt lat="45.2235" lon="5.7481">
        <ele>660.40002441406</ele>
        <time>2021-07-17T06:38:18.000Z</time>
      </trkpt>
      <trkpt lat="45.22351" lon="5.74809">
        <ele>660.59997558594</ele>
        <time>2021-07-17T06:38:19.000Z</time>
      </trkpt>
      <trkpt lat="45.22351" lon="5.74808">
        <ele>661</ele>
        <time>2021-07-17T06:38:21.000Z</time>
      </trkpt>
      <trkpt lat="45.22352" lon="5.74808">
        <ele>661.20001220703</ele>
        <time>2021-07-17T06:38:22.000Z</time>
      </trkpt>
      <trkpt lat="45.22353" lon="5.74808">
        <ele>661.20001220703</ele>
        <time>2021-07-17T06:38:23.000Z</time>
      </trkpt>
      <trkpt lat="45.22353" lon="5.74809">
        <ele>661.40002441406</ele>
        <time>2021-07-17T06:38:24.000Z</time>
      </trkpt>
      <trkpt lat="45.22355" lon="5.74809">
        <ele>662.59997558594</ele>
        <time>2021-07-17T06:38:26.000Z</time>
      </trkpt>
      <trkpt lat="45.22356" lon="5.74809">
        <ele>662.79998779297</ele>
        <time>2021-07-17T06:38:27.000Z</time>
      </trkpt>
      <trkpt lat="45.2236" lon="5.74808">
        <ele>663.59997558594</ele>
        <time>2021-07-17T06:38:32.000Z</time>
      </trkpt>
      <trkpt lat="45.2236" lon="5.74807">
        <ele>664.59997558594</ele>
        <time>2021-07-17T06:38:33.000Z</time>
      </trkpt>
      <trkpt lat="45.22361" lon="5.74807">
        <ele>664.59997558594</ele>
        <time>2021-07-17T06:38:34.000Z</time>
      </trkpt>
      <trkpt lat="45.22362" lon="5.74805">
        <ele>665</ele>
        <time>2021-07-17T06:38:36.000Z</time>
      </trkpt>
      <trkpt lat="45.22366" lon="5.74801">
        <ele>665.59997558594</ele>
        <time>2021-07-17T06:38:41.000Z</time>
      </trkpt>
      <trkpt lat="45.22368" lon="5.74796">
        <ele>666.79998779297</ele>
        <time>2021-07-17T06:38:44.000Z</time>
      </trkpt>
      <trkpt lat="45.22369" lon="5.74795">
        <ele>666.79998779297</ele>
        <time>2021-07-17T06:38:45.000Z</time>
      </trkpt>
      <trkpt lat="45.22374" lon="5.74787">
        <ele>667.40002441406</ele>
        <time>2021-07-17T06:38:48.000Z</time>
      </trkpt>
      <trkpt lat="45.22375" lon="5.74785">
        <ele>668.20001220703</ele>
        <time>2021-07-17T06:38:50.000Z</time>
      </trkpt>
      <trkpt lat="45.22381" lon="5.74777">
        <ele>669.79998779297</ele>
        <time>2021-07-17T06:38:56.000Z</time>
      </trkpt>
      <trkpt lat="45.22383" lon="5.74772">
        <ele>670.40002441406</ele>
        <time>2021-07-17T06:39:00.000Z</time>
      </trkpt>
      <trkpt lat="45.22385" lon="5.7477">
        <ele>670.79998779297</ele>
        <time>2021-07-17T06:39:02.000Z</time>
      </trkpt>
      <trkpt lat="45.22385" lon="5.74768">
        <ele>670.79998779297</ele>
        <time>2021-07-17T06:39:03.000Z</time>
      </trkpt>
      <trkpt lat="45.22387" lon="5.74764">
        <ele>672</ele>
        <time>2021-07-17T06:39:06.000Z</time>
      </trkpt>
      <trkpt lat="45.22388" lon="5.74763">
        <ele>672.40002441406</ele>
        <time>2021-07-17T06:39:09.000Z</time>
      </trkpt>
      <trkpt lat="45.22389" lon="5.74761">
        <ele>672.79998779297</ele>
        <time>2021-07-17T06:39:11.000Z</time>
      </trkpt>
      <trkpt lat="45.22391" lon="5.74759">
        <ele>673.20001220703</ele>
        <time>2021-07-17T06:39:13.000Z</time>
      </trkpt>
      <trkpt lat="45.22392" lon="5.74757">
        <ele>673.79998779297</ele>
        <time>2021-07-17T06:39:15.000Z</time>
      </trkpt>
      <trkpt lat="45.22392" lon="5.74755">
        <ele>674</ele>
        <time>2021-07-17T06:39:16.000Z</time>
      </trkpt>
      <trkpt lat="45.22392" lon="5.74754">
        <ele>674.20001220703</ele>
        <time>2021-07-17T06:39:17.000Z</time>
      </trkpt>
      <trkpt lat="45.22392" lon="5.74751">
        <ele>674.59997558594</ele>
        <time>2021-07-17T06:39:19.000Z</time>
      </trkpt>
      <trkpt lat="45.22394" lon="5.74748">
        <ele>675.20001220703</ele>
        <time>2021-07-17T06:39:22.000Z</time>
      </trkpt>
      <trkpt lat="45.22395" lon="5.74747">
        <ele>675.20001220703</ele>
        <time>2021-07-17T06:39:23.000Z</time>
      </trkpt>
      <trkpt lat="45.22397" lon="5.74744">
        <ele>676.40002441406</ele>
        <time>2021-07-17T06:39:25.000Z</time>
      </trkpt>
      <trkpt lat="45.22398" lon="5.74739">
        <ele>677</ele>
        <time>2021-07-17T06:39:28.000Z</time>
      </trkpt>
      <trkpt lat="45.224" lon="5.74735">
        <ele>677.40002441406</ele>
        <time>2021-07-17T06:39:31.000Z</time>
      </trkpt>
      <trkpt lat="45.22401" lon="5.74734">
        <ele>677.59997558594</ele>
        <time>2021-07-17T06:39:32.000Z</time>
      </trkpt>
      <trkpt lat="45.22403" lon="5.7473">
        <ele>678.59997558594</ele>
        <time>2021-07-17T06:39:35.000Z</time>
      </trkpt>
      <trkpt lat="45.22403" lon="5.7473">
        <ele>679.20001220703</ele>
        <time>2021-07-17T06:39:36.000Z</time>
      </trkpt>
      <trkpt lat="45.22404" lon="5.74728">
        <ele>679.20001220703</ele>
        <time>2021-07-17T06:39:38.000Z</time>
      </trkpt>
      <trkpt lat="45.22405" lon="5.74726">
        <ele>679.79998779297</ele>
        <time>2021-07-17T06:39:40.000Z</time>
      </trkpt>
      <trkpt lat="45.22407" lon="5.74724">
        <ele>680.59997558594</ele>
        <time>2021-07-17T06:39:42.000Z</time>
      </trkpt>
      <trkpt lat="45.22408" lon="5.74724">
        <ele>681</ele>
        <time>2021-07-17T06:39:43.000Z</time>
      </trkpt>
      <trkpt lat="45.2241" lon="5.74722">
        <ele>681.79998779297</ele>
        <time>2021-07-17T06:39:47.000Z</time>
      </trkpt>
      <trkpt lat="45.22411" lon="5.74721">
        <ele>682.59997558594</ele>
        <time>2021-07-17T06:39:48.000Z</time>
      </trkpt>
      <trkpt lat="45.22413" lon="5.74716">
        <ele>683.79998779297</ele>
        <time>2021-07-17T06:39:53.000Z</time>
      </trkpt>
      <trkpt lat="45.22414" lon="5.74714">
        <ele>684.40002441406</ele>
        <time>2021-07-17T06:39:57.000Z</time>
      </trkpt>
      <trkpt lat="45.22414" lon="5.74713">
        <ele>685.20001220703</ele>
        <time>2021-07-17T06:39:58.000Z</time>
      </trkpt>
      <trkpt lat="45.22413" lon="5.74711">
        <ele>685.40002441406</ele>
        <time>2021-07-17T06:40:00.000Z</time>
      </trkpt>
      <trkpt lat="45.22413" lon="5.74708">
        <ele>686.20001220703</ele>
        <time>2021-07-17T06:40:03.000Z</time>
      </trkpt>
      <trkpt lat="45.22413" lon="5.74707">
        <ele>686.40002441406</ele>
        <time>2021-07-17T06:40:04.000Z</time>
      </trkpt>
      <trkpt lat="45.22412" lon="5.74706">
        <ele>686.59997558594</ele>
        <time>2021-07-17T06:40:05.000Z</time>
      </trkpt>
      <trkpt lat="45.22412" lon="5.74704">
        <ele>687.20001220703</ele>
        <time>2021-07-17T06:40:07.000Z</time>
      </trkpt>
      <trkpt lat="45.2241" lon="5.74704">
        <ele>687.79998779297</ele>
        <time>2021-07-17T06:40:09.000Z</time>
      </trkpt>
      <trkpt lat="45.22409" lon="5.74703">
        <ele>687.79998779297</ele>
        <time>2021-07-17T06:40:10.000Z</time>
      </trkpt>
      <trkpt lat="45.22408" lon="5.74702">
        <ele>688.59997558594</ele>
        <time>2021-07-17T06:40:12.000Z</time>
      </trkpt>
      <trkpt lat="45.22407" lon="5.74701">
        <ele>688.59997558594</ele>
        <time>2021-07-17T06:40:13.000Z</time>
      </trkpt>
      <trkpt lat="45.22407" lon="5.747">
        <ele>688.59997558594</ele>
        <time>2021-07-17T06:40:14.000Z</time>
      </trkpt>
      <trkpt lat="45.22405" lon="5.74699">
        <ele>689</ele>
        <time>2021-07-17T06:40:16.000Z</time>
      </trkpt>
      <trkpt lat="45.22403" lon="5.74698">
        <ele>690</ele>
        <time>2021-07-17T06:40:18.000Z</time>
      </trkpt>
      <trkpt lat="45.22401" lon="5.74696">
        <ele>690.79998779297</ele>
        <time>2021-07-17T06:40:21.000Z</time>
      </trkpt>
      <trkpt lat="45.22401" lon="5.74695">
        <ele>691</ele>
        <time>2021-07-17T06:40:22.000Z</time>
      </trkpt>
      <trkpt lat="45.224" lon="5.74691">
        <ele>691.59997558594</ele>
        <time>2021-07-17T06:40:25.000Z</time>
      </trkpt>
      <trkpt lat="45.224" lon="5.74689">
        <ele>692.59997558594</ele>
        <time>2021-07-17T06:40:26.000Z</time>
      </trkpt>
      <trkpt lat="45.22399" lon="5.74688">
        <ele>692.59997558594</ele>
        <time>2021-07-17T06:40:27.000Z</time>
      </trkpt>
      <trkpt lat="45.22398" lon="5.7468">
        <ele>693.59997558594</ele>
        <time>2021-07-17T06:40:33.000Z</time>
      </trkpt>
      <trkpt lat="45.22399" lon="5.74678">
        <ele>693.79998779297</ele>
        <time>2021-07-17T06:40:34.000Z</time>
      </trkpt>
      <trkpt lat="45.22401" lon="5.74676">
        <ele>694.79998779297</ele>
        <time>2021-07-17T06:40:37.000Z</time>
      </trkpt>
      <trkpt lat="45.22401" lon="5.74675">
        <ele>694.79998779297</ele>
        <time>2021-07-17T06:40:38.000Z</time>
      </trkpt>
      <trkpt lat="45.22402" lon="5.74675">
        <ele>694.79998779297</ele>
        <time>2021-07-17T06:40:39.000Z</time>
      </trkpt>
      <trkpt lat="45.22406" lon="5.74676">
        <ele>695.79998779297</ele>
        <time>2021-07-17T06:40:41.000Z</time>
      </trkpt>
      <trkpt lat="45.22411" lon="5.74677">
        <ele>696.40002441406</ele>
        <time>2021-07-17T06:40:44.000Z</time>
      </trkpt>
      <trkpt lat="45.22413" lon="5.74678">
        <ele>696.79998779297</ele>
        <time>2021-07-17T06:40:47.000Z</time>
      </trkpt>
      <trkpt lat="45.22416" lon="5.74677">
        <ele>698</ele>
        <time>2021-07-17T06:40:49.000Z</time>
      </trkpt>
      <trkpt lat="45.22416" lon="5.74677">
        <ele>698.20001220703</ele>
        <time>2021-07-17T06:40:50.000Z</time>
      </trkpt>
      <trkpt lat="45.22417" lon="5.74676">
        <ele>698.20001220703</ele>
        <time>2021-07-17T06:40:51.000Z</time>
      </trkpt>
      <trkpt lat="45.22419" lon="5.74675">
        <ele>698.79998779297</ele>
        <time>2021-07-17T06:40:54.000Z</time>
      </trkpt>
      <trkpt lat="45.2242" lon="5.74676">
        <ele>698.79998779297</ele>
        <time>2021-07-17T06:40:55.000Z</time>
      </trkpt>
      <trkpt lat="45.22421" lon="5.74676">
        <ele>699.40002441406</ele>
        <time>2021-07-17T06:40:57.000Z</time>
      </trkpt>
      <trkpt lat="45.22422" lon="5.74675">
        <ele>700.20001220703</ele>
        <time>2021-07-17T06:40:59.000Z</time>
      </trkpt>
      <trkpt lat="45.22423" lon="5.74675">
        <ele>700.59997558594</ele>
        <time>2021-07-17T06:41:00.000Z</time>
      </trkpt>
      <trkpt lat="45.22424" lon="5.74675">
        <ele>700.59997558594</ele>
        <time>2021-07-17T06:41:01.000Z</time>
      </trkpt>
      <trkpt lat="45.22426" lon="5.74675">
        <ele>701</ele>
        <time>2021-07-17T06:41:03.000Z</time>
      </trkpt>
      <trkpt lat="45.22429" lon="5.74673">
        <ele>701.40002441406</ele>
        <time>2021-07-17T06:41:06.000Z</time>
      </trkpt>
      <trkpt lat="45.2243" lon="5.74674">
        <ele>701.79998779297</ele>
        <time>2021-07-17T06:41:07.000Z</time>
      </trkpt>
      <trkpt lat="45.22432" lon="5.74674">
        <ele>702.59997558594</ele>
        <time>2021-07-17T06:41:08.000Z</time>
      </trkpt>
      <trkpt lat="45.22436" lon="5.74676">
        <ele>702.79998779297</ele>
        <time>2021-07-17T06:41:11.000Z</time>
      </trkpt>
      <trkpt lat="45.22437" lon="5.74676">
        <ele>703.40002441406</ele>
        <time>2021-07-17T06:41:12.000Z</time>
      </trkpt>
      <trkpt lat="45.2244" lon="5.74678">
        <ele>703.59997558594</ele>
        <time>2021-07-17T06:41:15.000Z</time>
      </trkpt>
      <trkpt lat="45.2244" lon="5.74679">
        <ele>704</ele>
        <time>2021-07-17T06:41:16.000Z</time>
      </trkpt>
      <trkpt lat="45.22441" lon="5.7468">
        <ele>704.79998779297</ele>
        <time>2021-07-17T06:41:17.000Z</time>
      </trkpt>
      <trkpt lat="45.22444" lon="5.74681">
        <ele>705</ele>
        <time>2021-07-17T06:41:20.000Z</time>
      </trkpt>
      <trkpt lat="45.22447" lon="5.74683">
        <ele>705.40002441406</ele>
        <time>2021-07-17T06:41:23.000Z</time>
      </trkpt>
      <trkpt lat="45.22448" lon="5.74683">
        <ele>706.20001220703</ele>
        <time>2021-07-17T06:41:24.000Z</time>
      </trkpt>
      <trkpt lat="45.22455" lon="5.74681">
        <ele>707.20001220703</ele>
        <time>2021-07-17T06:41:30.000Z</time>
      </trkpt>
      <trkpt lat="45.22456" lon="5.74682">
        <ele>708</ele>
        <time>2021-07-17T06:41:31.000Z</time>
      </trkpt>
      <trkpt lat="45.22459" lon="5.74681">
        <ele>708.40002441406</ele>
        <time>2021-07-17T06:41:34.000Z</time>
      </trkpt>
      <trkpt lat="45.22461" lon="5.7468">
        <ele>708.59997558594</ele>
        <time>2021-07-17T06:41:36.000Z</time>
      </trkpt>
      <trkpt lat="45.22463" lon="5.74681">
        <ele>709.40002441406</ele>
        <time>2021-07-17T06:41:39.000Z</time>
      </trkpt>
      <trkpt lat="45.22464" lon="5.74681">
        <ele>709.40002441406</ele>
        <time>2021-07-17T06:41:40.000Z</time>
      </trkpt>
      <trkpt lat="45.22466" lon="5.74681">
        <ele>710</ele>
        <time>2021-07-17T06:41:42.000Z</time>
      </trkpt>
      <trkpt lat="45.22469" lon="5.7468">
        <ele>710.59997558594</ele>
        <time>2021-07-17T06:41:44.000Z</time>
      </trkpt>
      <trkpt lat="45.22471" lon="5.7468">
        <ele>710.79998779297</ele>
        <time>2021-07-17T06:41:46.000Z</time>
      </trkpt>
      <trkpt lat="45.22472" lon="5.7468">
        <ele>710.79998779297</ele>
        <time>2021-07-17T06:41:47.000Z</time>
      </trkpt>
      <trkpt lat="45.22473" lon="5.74681">
        <ele>711</ele>
        <time>2021-07-17T06:41:48.000Z</time>
      </trkpt>
      <trkpt lat="45.22475" lon="5.74681">
        <ele>711.79998779297</ele>
        <time>2021-07-17T06:41:50.000Z</time>
      </trkpt>
      <trkpt lat="45.22477" lon="5.7468">
        <ele>712.40002441406</ele>
        <time>2021-07-17T06:41:52.000Z</time>
      </trkpt>
      <trkpt lat="45.22478" lon="5.7468">
        <ele>712.59997558594</ele>
        <time>2021-07-17T06:41:53.000Z</time>
      </trkpt>
      <trkpt lat="45.22479" lon="5.74679">
        <ele>713</ele>
        <time>2021-07-17T06:41:54.000Z</time>
      </trkpt>
      <trkpt lat="45.22482" lon="5.74678">
        <ele>713.59997558594</ele>
        <time>2021-07-17T06:41:57.000Z</time>
      </trkpt>
      <trkpt lat="45.22483" lon="5.74676">
        <ele>713.79998779297</ele>
        <time>2021-07-17T06:41:59.000Z</time>
      </trkpt>
      <trkpt lat="45.22484" lon="5.74675">
        <ele>714.40002441406</ele>
        <time>2021-07-17T06:42:00.000Z</time>
      </trkpt>
      <trkpt lat="45.22489" lon="5.74673">
        <ele>715.79998779297</ele>
        <time>2021-07-17T06:42:05.000Z</time>
      </trkpt>
      <trkpt lat="45.22489" lon="5.74673">
        <ele>716</ele>
        <time>2021-07-17T06:42:06.000Z</time>
      </trkpt>
      <trkpt lat="45.22489" lon="5.74673">
        <ele>716</ele>
        <time>2021-07-17T06:42:07.000Z</time>
      </trkpt>
      <trkpt lat="45.22492" lon="5.74673">
        <ele>716.20001220703</ele>
        <time>2021-07-17T06:42:10.000Z</time>
      </trkpt>
      <trkpt lat="45.22494" lon="5.74672">
        <ele>717.59997558594</ele>
        <time>2021-07-17T06:42:12.000Z</time>
      </trkpt>
      <trkpt lat="45.22495" lon="5.74672">
        <ele>717.59997558594</ele>
        <time>2021-07-17T06:42:13.000Z</time>
      </trkpt>
      <trkpt lat="45.22499" lon="5.7467">
        <ele>718.59997558594</ele>
        <time>2021-07-17T06:42:17.000Z</time>
      </trkpt>
      <trkpt lat="45.225" lon="5.74668">
        <ele>718.59997558594</ele>
        <time>2021-07-17T06:42:18.000Z</time>
      </trkpt>
      <trkpt lat="45.22502" lon="5.74667">
        <ele>719</ele>
        <time>2021-07-17T06:42:20.000Z</time>
      </trkpt>
      <trkpt lat="45.22504" lon="5.74666">
        <ele>719.59997558594</ele>
        <time>2021-07-17T06:42:23.000Z</time>
      </trkpt>
      <trkpt lat="45.22505" lon="5.74666">
        <ele>720.59997558594</ele>
        <time>2021-07-17T06:42:24.000Z</time>
      </trkpt>
      <trkpt lat="45.22506" lon="5.74666">
        <ele>720.79998779297</ele>
        <time>2021-07-17T06:42:25.000Z</time>
      </trkpt>
      <trkpt lat="45.22509" lon="5.74665">
        <ele>722.20001220703</ele>
        <time>2021-07-17T06:42:29.000Z</time>
      </trkpt>
      <trkpt lat="45.2251" lon="5.74664">
        <ele>722.20001220703</ele>
        <time>2021-07-17T06:42:31.000Z</time>
      </trkpt>
      <trkpt lat="45.22515" lon="5.74661">
        <ele>723.79998779297</ele>
        <time>2021-07-17T06:42:35.000Z</time>
      </trkpt>
      <trkpt lat="45.22516" lon="5.7466">
        <ele>724.20001220703</ele>
        <time>2021-07-17T06:42:37.000Z</time>
      </trkpt>
      <trkpt lat="45.22518" lon="5.74658">
        <ele>724.79998779297</ele>
        <time>2021-07-17T06:42:39.000Z</time>
      </trkpt>
      <trkpt lat="45.22519" lon="5.74657">
        <ele>725.40002441406</ele>
        <time>2021-07-17T06:42:40.000Z</time>
      </trkpt>
      <trkpt lat="45.22521" lon="5.74656">
        <ele>725.59997558594</ele>
        <time>2021-07-17T06:42:42.000Z</time>
      </trkpt>
      <trkpt lat="45.22522" lon="5.74653">
        <ele>725.79998779297</ele>
        <time>2021-07-17T06:42:44.000Z</time>
      </trkpt>
      <trkpt lat="45.22523" lon="5.74651">
        <ele>726.79998779297</ele>
        <time>2021-07-17T06:42:46.000Z</time>
      </trkpt>
      <trkpt lat="45.22525" lon="5.74651">
        <ele>727.20001220703</ele>
        <time>2021-07-17T06:42:47.000Z</time>
      </trkpt>
      <trkpt lat="45.22527" lon="5.74648">
        <ele>728</ele>
        <time>2021-07-17T06:42:51.000Z</time>
      </trkpt>
      <trkpt lat="45.22528" lon="5.74648">
        <ele>728.20001220703</ele>
        <time>2021-07-17T06:42:52.000Z</time>
      </trkpt>
      <trkpt lat="45.22529" lon="5.74647">
        <ele>728.59997558594</ele>
        <time>2021-07-17T06:42:53.000Z</time>
      </trkpt>
      <trkpt lat="45.22532" lon="5.74644">
        <ele>730</ele>
        <time>2021-07-17T06:42:56.000Z</time>
      </trkpt>
      <trkpt lat="45.22533" lon="5.74644">
        <ele>730</ele>
        <time>2021-07-17T06:42:57.000Z</time>
      </trkpt>
      <trkpt lat="45.22534" lon="5.74644">
        <ele>730.20001220703</ele>
        <time>2021-07-17T06:42:58.000Z</time>
      </trkpt>
      <trkpt lat="45.22535" lon="5.74645">
        <ele>730.20001220703</ele>
        <time>2021-07-17T06:42:59.000Z</time>
      </trkpt>
      <trkpt lat="45.22537" lon="5.74644">
        <ele>730.40002441406</ele>
        <time>2021-07-17T06:43:02.000Z</time>
      </trkpt>
      <trkpt lat="45.22538" lon="5.74643">
        <ele>730.40002441406</ele>
        <time>2021-07-17T06:43:03.000Z</time>
      </trkpt>
      <trkpt lat="45.22538" lon="5.74643">
        <ele>730.59997558594</ele>
        <time>2021-07-17T06:43:04.000Z</time>
      </trkpt>
      <trkpt lat="45.22539" lon="5.74642">
        <ele>731.40002441406</ele>
        <time>2021-07-17T06:43:06.000Z</time>
      </trkpt>
      <trkpt lat="45.22541" lon="5.74642">
        <ele>732</ele>
        <time>2021-07-17T06:43:07.000Z</time>
      </trkpt>
      <trkpt lat="45.22542" lon="5.74641">
        <ele>732.40002441406</ele>
        <time>2021-07-17T06:43:09.000Z</time>
      </trkpt>
      <trkpt lat="45.22544" lon="5.74641">
        <ele>732.59997558594</ele>
        <time>2021-07-17T06:43:10.000Z</time>
      </trkpt>
      <trkpt lat="45.22546" lon="5.74639">
        <ele>733.20001220703</ele>
        <time>2021-07-17T06:43:12.000Z</time>
      </trkpt>
      <trkpt lat="45.22547" lon="5.74637">
        <ele>733.79998779297</ele>
        <time>2021-07-17T06:43:14.000Z</time>
      </trkpt>
      <trkpt lat="45.22548" lon="5.74636">
        <ele>734</ele>
        <time>2021-07-17T06:43:15.000Z</time>
      </trkpt>
      <trkpt lat="45.22549" lon="5.74635">
        <ele>734.20001220703</ele>
        <time>2021-07-17T06:43:16.000Z</time>
      </trkpt>
      <trkpt lat="45.22552" lon="5.74631">
        <ele>735</ele>
        <time>2021-07-17T06:43:20.000Z</time>
      </trkpt>
      <trkpt lat="45.22553" lon="5.74629">
        <ele>735.40002441406</ele>
        <time>2021-07-17T06:43:21.000Z</time>
      </trkpt>
      <trkpt lat="45.22553" lon="5.74628">
        <ele>736</ele>
        <time>2021-07-17T06:43:22.000Z</time>
      </trkpt>
      <trkpt lat="45.22553" lon="5.74627">
        <ele>736</ele>
        <time>2021-07-17T06:43:23.000Z</time>
      </trkpt>
      <trkpt lat="45.22553" lon="5.74625">
        <ele>736.40002441406</ele>
        <time>2021-07-17T06:43:24.000Z</time>
      </trkpt>
      <trkpt lat="45.22553" lon="5.74624">
        <ele>736.59997558594</ele>
        <time>2021-07-17T06:43:25.000Z</time>
      </trkpt>
      <trkpt lat="45.22553" lon="5.74622">
        <ele>737</ele>
        <time>2021-07-17T06:43:27.000Z</time>
      </trkpt>
      <trkpt lat="45.22552" lon="5.74619">
        <ele>738</ele>
        <time>2021-07-17T06:43:30.000Z</time>
      </trkpt>
      <trkpt lat="45.22552" lon="5.74615">
        <ele>738.20001220703</ele>
        <time>2021-07-17T06:43:34.000Z</time>
      </trkpt>
      <trkpt lat="45.22552" lon="5.74613">
        <ele>739.20001220703</ele>
        <time>2021-07-17T06:43:36.000Z</time>
      </trkpt>
      <trkpt lat="45.22552" lon="5.7461">
        <ele>739.40002441406</ele>
        <time>2021-07-17T06:43:38.000Z</time>
      </trkpt>
      <trkpt lat="45.22552" lon="5.74609">
        <ele>739.79998779297</ele>
        <time>2021-07-17T06:43:39.000Z</time>
      </trkpt>
      <trkpt lat="45.22551" lon="5.74607">
        <ele>740.40002441406</ele>
        <time>2021-07-17T06:43:40.000Z</time>
      </trkpt>
      <trkpt lat="45.22551" lon="5.74605">
        <ele>740.40002441406</ele>
        <time>2021-07-17T06:43:41.000Z</time>
      </trkpt>
      <trkpt lat="45.2255" lon="5.74602">
        <ele>741.20001220703</ele>
        <time>2021-07-17T06:43:44.000Z</time>
      </trkpt>
      <trkpt lat="45.22549" lon="5.74601">
        <ele>741.59997558594</ele>
        <time>2021-07-17T06:43:45.000Z</time>
      </trkpt>
      <trkpt lat="45.22549" lon="5.74599">
        <ele>742</ele>
        <time>2021-07-17T06:43:47.000Z</time>
      </trkpt>
      <trkpt lat="45.22548" lon="5.74598">
        <ele>743.20001220703</ele>
        <time>2021-07-17T06:43:49.000Z</time>
      </trkpt>
      <trkpt lat="45.22548" lon="5.74597">
        <ele>743.20001220703</ele>
        <time>2021-07-17T06:43:51.000Z</time>
      </trkpt>
      <trkpt lat="45.22547" lon="5.74596">
        <ele>743.40002441406</ele>
        <time>2021-07-17T06:43:53.000Z</time>
      </trkpt>
      <trkpt lat="45.22545" lon="5.74593">
        <ele>743.79998779297</ele>
        <time>2021-07-17T06:43:57.000Z</time>
      </trkpt>
      <trkpt lat="45.22544" lon="5.74593">
        <ele>744.59997558594</ele>
        <time>2021-07-17T06:43:58.000Z</time>
      </trkpt>
      <trkpt lat="45.22544" lon="5.74593">
        <ele>744.79998779297</ele>
        <time>2021-07-17T06:43:59.000Z</time>
      </trkpt>
      <trkpt lat="45.22543" lon="5.74592">
        <ele>744.79998779297</ele>
        <time>2021-07-17T06:44:00.000Z</time>
      </trkpt>
      <trkpt lat="45.22541" lon="5.7459">
        <ele>745.79998779297</ele>
        <time>2021-07-17T06:44:04.000Z</time>
      </trkpt>
      <trkpt lat="45.2254" lon="5.74589">
        <ele>746.20001220703</ele>
        <time>2021-07-17T06:44:05.000Z</time>
      </trkpt>
      <trkpt lat="45.22536" lon="5.74586">
        <ele>747.20001220703</ele>
        <time>2021-07-17T06:44:11.000Z</time>
      </trkpt>
      <trkpt lat="45.22536" lon="5.74585">
        <ele>747.59997558594</ele>
        <time>2021-07-17T06:44:12.000Z</time>
      </trkpt>
      <trkpt lat="45.22536" lon="5.74584">
        <ele>748</ele>
        <time>2021-07-17T06:44:13.000Z</time>
      </trkpt>
      <trkpt lat="45.22534" lon="5.74583">
        <ele>748.40002441406</ele>
        <time>2021-07-17T06:44:15.000Z</time>
      </trkpt>
      <trkpt lat="45.22531" lon="5.7458">
        <ele>749.79998779297</ele>
        <time>2021-07-17T06:44:20.000Z</time>
      </trkpt>
      <trkpt lat="45.22529" lon="5.74579">
        <ele>750</ele>
        <time>2021-07-17T06:44:24.000Z</time>
      </trkpt>
      <trkpt lat="45.22526" lon="5.74577">
        <ele>751</ele>
        <time>2021-07-17T06:44:27.000Z</time>
      </trkpt>
      <trkpt lat="45.22523" lon="5.74574">
        <ele>751.59997558594</ele>
        <time>2021-07-17T06:44:31.000Z</time>
      </trkpt>
      <trkpt lat="45.22522" lon="5.74573">
        <ele>752</ele>
        <time>2021-07-17T06:44:32.000Z</time>
      </trkpt>
      <trkpt lat="45.22521" lon="5.74572">
        <ele>752.40002441406</ele>
        <time>2021-07-17T06:44:33.000Z</time>
      </trkpt>
      <trkpt lat="45.2252" lon="5.74571">
        <ele>752.59997558594</ele>
        <time>2021-07-17T06:44:35.000Z</time>
      </trkpt>
      <trkpt lat="45.22517" lon="5.74569">
        <ele>752.79998779297</ele>
        <time>2021-07-17T06:44:38.000Z</time>
      </trkpt>
      <trkpt lat="45.22517" lon="5.74568">
        <ele>753</ele>
        <time>2021-07-17T06:44:39.000Z</time>
      </trkpt>
      <trkpt lat="45.22515" lon="5.74565">
        <ele>754</ele>
        <time>2021-07-17T06:44:42.000Z</time>
      </trkpt>
      <trkpt lat="45.22515" lon="5.74565">
        <ele>754.20001220703</ele>
        <time>2021-07-17T06:44:43.000Z</time>
      </trkpt>
      <trkpt lat="45.22512" lon="5.74562">
        <ele>754.79998779297</ele>
        <time>2021-07-17T06:44:46.000Z</time>
      </trkpt>
      <trkpt lat="45.22509" lon="5.74559">
        <ele>755</ele>
        <time>2021-07-17T06:44:49.000Z</time>
      </trkpt>
      <trkpt lat="45.22508" lon="5.74558">
        <ele>755.40002441406</ele>
        <time>2021-07-17T06:44:50.000Z</time>
      </trkpt>
      <trkpt lat="45.22501" lon="5.74548">
        <ele>756.79998779297</ele>
        <time>2021-07-17T06:44:56.000Z</time>
      </trkpt>
      <trkpt lat="45.22497" lon="5.74543">
        <ele>757.79998779297</ele>
        <time>2021-07-17T06:45:00.000Z</time>
      </trkpt>
      <trkpt lat="45.22496" lon="5.74542">
        <ele>757.79998779297</ele>
        <time>2021-07-17T06:45:01.000Z</time>
      </trkpt>
      <trkpt lat="45.22495" lon="5.74541">
        <ele>758</ele>
        <time>2021-07-17T06:45:02.000Z</time>
      </trkpt>
      <trkpt lat="45.22492" lon="5.74538">
        <ele>759</ele>
        <time>2021-07-17T06:45:05.000Z</time>
      </trkpt>
      <trkpt lat="45.22491" lon="5.74536">
        <ele>759.20001220703</ele>
        <time>2021-07-17T06:45:08.000Z</time>
      </trkpt>
      <trkpt lat="45.2249" lon="5.74534">
        <ele>759.40002441406</ele>
        <time>2021-07-17T06:45:09.000Z</time>
      </trkpt>
      <trkpt lat="45.22488" lon="5.74532">
        <ele>760</ele>
        <time>2021-07-17T06:45:11.000Z</time>
      </trkpt>
      <trkpt lat="45.22485" lon="5.7453">
        <ele>760.20001220703</ele>
        <time>2021-07-17T06:45:13.000Z</time>
      </trkpt>
      <trkpt lat="45.22483" lon="5.74528">
        <ele>760.59997558594</ele>
        <time>2021-07-17T06:45:15.000Z</time>
      </trkpt>
      <trkpt lat="45.22482" lon="5.74527">
        <ele>760.79998779297</ele>
        <time>2021-07-17T06:45:16.000Z</time>
      </trkpt>
      <trkpt lat="45.2248" lon="5.74525">
        <ele>761</ele>
        <time>2021-07-17T06:45:18.000Z</time>
      </trkpt>
      <trkpt lat="45.22479" lon="5.74523">
        <ele>761.40002441406</ele>
        <time>2021-07-17T06:45:20.000Z</time>
      </trkpt>
      <trkpt lat="45.22477" lon="5.74524">
        <ele>761.79998779297</ele>
        <time>2021-07-17T06:45:21.000Z</time>
      </trkpt>
      <trkpt lat="45.22475" lon="5.74524">
        <ele>762.40002441406</ele>
        <time>2021-07-17T06:45:23.000Z</time>
      </trkpt>
      <trkpt lat="45.22471" lon="5.74523">
        <ele>763.40002441406</ele>
        <time>2021-07-17T06:45:26.000Z</time>
      </trkpt>
      <trkpt lat="45.22469" lon="5.74522">
        <ele>763.79998779297</ele>
        <time>2021-07-17T06:45:29.000Z</time>
      </trkpt>
      <trkpt lat="45.22465" lon="5.74519">
        <ele>764.59997558594</ele>
        <time>2021-07-17T06:45:33.000Z</time>
      </trkpt>
      <trkpt lat="45.22463" lon="5.74518">
        <ele>765.59997558594</ele>
        <time>2021-07-17T06:45:35.000Z</time>
      </trkpt>
      <trkpt lat="45.22461" lon="5.74516">
        <ele>766.20001220703</ele>
        <time>2021-07-17T06:45:37.000Z</time>
      </trkpt>
      <trkpt lat="45.22457" lon="5.74512">
        <ele>766.79998779297</ele>
        <time>2021-07-17T06:45:41.000Z</time>
      </trkpt>
      <trkpt lat="45.22457" lon="5.74513">
        <ele>766.79998779297</ele>
        <time>2021-07-17T06:45:42.000Z</time>
      </trkpt>
      <trkpt lat="45.22457" lon="5.74512">
        <ele>768.40002441406</ele>
        <time>2021-07-17T06:45:45.000Z</time>
      </trkpt>
      <trkpt lat="45.22456" lon="5.7451">
        <ele>768.40002441406</ele>
        <time>2021-07-17T06:45:47.000Z</time>
      </trkpt>
      <trkpt lat="45.22455" lon="5.74507">
        <ele>769.20001220703</ele>
        <time>2021-07-17T06:45:51.000Z</time>
      </trkpt>
      <trkpt lat="45.22454" lon="5.74505">
        <ele>769.79998779297</ele>
        <time>2021-07-17T06:45:52.000Z</time>
      </trkpt>
      <trkpt lat="45.22453" lon="5.74504">
        <ele>769.79998779297</ele>
        <time>2021-07-17T06:45:53.000Z</time>
      </trkpt>
      <trkpt lat="45.22453" lon="5.74503">
        <ele>770</ele>
        <time>2021-07-17T06:45:54.000Z</time>
      </trkpt>
      <trkpt lat="45.22453" lon="5.74502">
        <ele>770.40002441406</ele>
        <time>2021-07-17T06:45:55.000Z</time>
      </trkpt>
      <trkpt lat="45.22451" lon="5.74499">
        <ele>770.79998779297</ele>
        <time>2021-07-17T06:45:58.000Z</time>
      </trkpt>
      <trkpt lat="45.2245" lon="5.74498">
        <ele>771</ele>
        <time>2021-07-17T06:45:59.000Z</time>
      </trkpt>
      <trkpt lat="45.22449" lon="5.74495">
        <ele>771.40002441406</ele>
        <time>2021-07-17T06:46:01.000Z</time>
      </trkpt>
      <trkpt lat="45.22448" lon="5.74494">
        <ele>771.59997558594</ele>
        <time>2021-07-17T06:46:02.000Z</time>
      </trkpt>
      <trkpt lat="45.22447" lon="5.74489">
        <ele>771.79998779297</ele>
        <time>2021-07-17T06:46:05.000Z</time>
      </trkpt>
      <trkpt lat="45.22447" lon="5.74488">
        <ele>772.59997558594</ele>
        <time>2021-07-17T06:46:06.000Z</time>
      </trkpt>
      <trkpt lat="45.22446" lon="5.74485">
        <ele>773.40002441406</ele>
        <time>2021-07-17T06:46:09.000Z</time>
      </trkpt>
      <trkpt lat="45.22446" lon="5.74484">
        <ele>773.59997558594</ele>
        <time>2021-07-17T06:46:10.000Z</time>
      </trkpt>
      <trkpt lat="45.22446" lon="5.74483">
        <ele>773.59997558594</ele>
        <time>2021-07-17T06:46:11.000Z</time>
      </trkpt>
      <trkpt lat="45.22445" lon="5.74479">
        <ele>774.59997558594</ele>
        <time>2021-07-17T06:46:14.000Z</time>
      </trkpt>
      <trkpt lat="45.22444" lon="5.74477">
        <ele>774.59997558594</ele>
        <time>2021-07-17T06:46:15.000Z</time>
      </trkpt>
      <trkpt lat="45.22444" lon="5.74476">
        <ele>774.79998779297</ele>
        <time>2021-07-17T06:46:16.000Z</time>
      </trkpt>
      <trkpt lat="45.22443" lon="5.74472">
        <ele>775.20001220703</ele>
        <time>2021-07-17T06:46:19.000Z</time>
      </trkpt>
      <trkpt lat="45.22444" lon="5.74469">
        <ele>776</ele>
        <time>2021-07-17T06:46:21.000Z</time>
      </trkpt>
      <trkpt lat="45.22444" lon="5.74468">
        <ele>776.20001220703</ele>
        <time>2021-07-17T06:46:22.000Z</time>
      </trkpt>
      <trkpt lat="45.22444" lon="5.74466">
        <ele>776.40002441406</ele>
        <time>2021-07-17T06:46:23.000Z</time>
      </trkpt>
      <trkpt lat="45.22445" lon="5.74463">
        <ele>776.79998779297</ele>
        <time>2021-07-17T06:46:25.000Z</time>
      </trkpt>
      <trkpt lat="45.22445" lon="5.74462">
        <ele>777</ele>
        <time>2021-07-17T06:46:26.000Z</time>
      </trkpt>
      <trkpt lat="45.22441" lon="5.74457">
        <ele>778</ele>
        <time>2021-07-17T06:46:30.000Z</time>
      </trkpt>
      <trkpt lat="45.22441" lon="5.74456">
        <ele>778.20001220703</ele>
        <time>2021-07-17T06:46:31.000Z</time>
      </trkpt>
      <trkpt lat="45.2244" lon="5.74455">
        <ele>778.20001220703</ele>
        <time>2021-07-17T06:46:32.000Z</time>
      </trkpt>
      <trkpt lat="45.22439" lon="5.74452">
        <ele>779.59997558594</ele>
        <time>2021-07-17T06:46:34.000Z</time>
      </trkpt>
      <trkpt lat="45.22437" lon="5.74446">
        <ele>780</ele>
        <time>2021-07-17T06:46:38.000Z</time>
      </trkpt>
      <trkpt lat="45.22435" lon="5.74445">
        <ele>780.59997558594</ele>
        <time>2021-07-17T06:46:41.000Z</time>
      </trkpt>
      <trkpt lat="45.22434" lon="5.74444">
        <ele>780.79998779297</ele>
        <time>2021-07-17T06:46:43.000Z</time>
      </trkpt>
      <trkpt lat="45.22433" lon="5.74443">
        <ele>780.79998779297</ele>
        <time>2021-07-17T06:46:44.000Z</time>
      </trkpt>
      <trkpt lat="45.22431" lon="5.74439">
        <ele>782</ele>
        <time>2021-07-17T06:46:47.000Z</time>
      </trkpt>
      <trkpt lat="45.2243" lon="5.74437">
        <ele>782</ele>
        <time>2021-07-17T06:46:48.000Z</time>
      </trkpt>
      <trkpt lat="45.22426" lon="5.74431">
        <ele>782.59997558594</ele>
        <time>2021-07-17T06:46:54.000Z</time>
      </trkpt>
      <trkpt lat="45.22424" lon="5.74429">
        <ele>783.40002441406</ele>
        <time>2021-07-17T06:46:56.000Z</time>
      </trkpt>
      <trkpt lat="45.2242" lon="5.7442">
        <ele>784</ele>
        <time>2021-07-17T06:47:01.000Z</time>
      </trkpt>
      <trkpt lat="45.2242" lon="5.74418">
        <ele>784.20001220703</ele>
        <time>2021-07-17T06:47:02.000Z</time>
      </trkpt>
      <trkpt lat="45.22418" lon="5.74414">
        <ele>784.59997558594</ele>
        <time>2021-07-17T06:47:05.000Z</time>
      </trkpt>
      <trkpt lat="45.22417" lon="5.74413">
        <ele>784.79998779297</ele>
        <time>2021-07-17T06:47:06.000Z</time>
      </trkpt>
      <trkpt lat="45.22416" lon="5.74412">
        <ele>785.40002441406</ele>
        <time>2021-07-17T06:47:08.000Z</time>
      </trkpt>
      <trkpt lat="45.22416" lon="5.74408">
        <ele>785.59997558594</ele>
        <time>2021-07-17T06:47:10.000Z</time>
      </trkpt>
      <trkpt lat="45.22415" lon="5.74406">
        <ele>785.59997558594</ele>
        <time>2021-07-17T06:47:11.000Z</time>
      </trkpt>
      <trkpt lat="45.22414" lon="5.74404">
        <ele>786.20001220703</ele>
        <time>2021-07-17T06:47:13.000Z</time>
      </trkpt>
      <trkpt lat="45.22413" lon="5.74404">
        <ele>786.20001220703</ele>
        <time>2021-07-17T06:47:14.000Z</time>
      </trkpt>
      <trkpt lat="45.22411" lon="5.74401">
        <ele>787.40002441406</ele>
        <time>2021-07-17T06:47:17.000Z</time>
      </trkpt>
      <trkpt lat="45.22409" lon="5.74396">
        <ele>787.79998779297</ele>
        <time>2021-07-17T06:47:20.000Z</time>
      </trkpt>
      <trkpt lat="45.22408" lon="5.74392">
        <ele>788.59997558594</ele>
        <time>2021-07-17T06:47:23.000Z</time>
      </trkpt>
      <trkpt lat="45.22407" lon="5.7439">
        <ele>788.79998779297</ele>
        <time>2021-07-17T06:47:24.000Z</time>
      </trkpt>
      <trkpt lat="45.22406" lon="5.74385">
        <ele>789.59997558594</ele>
        <time>2021-07-17T06:47:27.000Z</time>
      </trkpt>
      <trkpt lat="45.22403" lon="5.74379">
        <ele>790.59997558594</ele>
        <time>2021-07-17T06:47:31.000Z</time>
      </trkpt>
      <trkpt lat="45.22402" lon="5.74377">
        <ele>790.59997558594</ele>
        <time>2021-07-17T06:47:32.000Z</time>
      </trkpt>
      <trkpt lat="45.22399" lon="5.74369">
        <ele>791.79998779297</ele>
        <time>2021-07-17T06:47:37.000Z</time>
      </trkpt>
      <trkpt lat="45.22399" lon="5.74368">
        <ele>792</ele>
        <time>2021-07-17T06:47:38.000Z</time>
      </trkpt>
      <trkpt lat="45.22397" lon="5.74363">
        <ele>792.79998779297</ele>
        <time>2021-07-17T06:47:42.000Z</time>
      </trkpt>
      <trkpt lat="45.22396" lon="5.74363">
        <ele>793</ele>
        <time>2021-07-17T06:47:43.000Z</time>
      </trkpt>
      <trkpt lat="45.22395" lon="5.74361">
        <ele>793</ele>
        <time>2021-07-17T06:47:45.000Z</time>
      </trkpt>
      <trkpt lat="45.22395" lon="5.7436">
        <ele>793.20001220703</ele>
        <time>2021-07-17T06:47:46.000Z</time>
      </trkpt>
      <trkpt lat="45.22392" lon="5.74356">
        <ele>794</ele>
        <time>2021-07-17T06:47:49.000Z</time>
      </trkpt>
      <trkpt lat="45.2239" lon="5.74351">
        <ele>794.79998779297</ele>
        <time>2021-07-17T06:47:52.000Z</time>
      </trkpt>
      <trkpt lat="45.2239" lon="5.74349">
        <ele>795.20001220703</ele>
        <time>2021-07-17T06:47:53.000Z</time>
      </trkpt>
      <trkpt lat="45.22389" lon="5.74345">
        <ele>795.79998779297</ele>
        <time>2021-07-17T06:47:57.000Z</time>
      </trkpt>
      <trkpt lat="45.22389" lon="5.74343">
        <ele>796.40002441406</ele>
        <time>2021-07-17T06:47:58.000Z</time>
      </trkpt>
      <trkpt lat="45.22389" lon="5.74342">
        <ele>796.40002441406</ele>
        <time>2021-07-17T06:47:59.000Z</time>
      </trkpt>
      <trkpt lat="45.22388" lon="5.7434">
        <ele>796.79998779297</ele>
        <time>2021-07-17T06:48:01.000Z</time>
      </trkpt>
      <trkpt lat="45.22387" lon="5.74335">
        <ele>797.59997558594</ele>
        <time>2021-07-17T06:48:04.000Z</time>
      </trkpt>
      <trkpt lat="45.22387" lon="5.74334">
        <ele>797.79998779297</ele>
        <time>2021-07-17T06:48:05.000Z</time>
      </trkpt>
      <trkpt lat="45.22386" lon="5.74331">
        <ele>798</ele>
        <time>2021-07-17T06:48:08.000Z</time>
      </trkpt>
      <trkpt lat="45.22386" lon="5.7433">
        <ele>798.79998779297</ele>
        <time>2021-07-17T06:48:09.000Z</time>
      </trkpt>
      <trkpt lat="45.22386" lon="5.74326">
        <ele>799.20001220703</ele>
        <time>2021-07-17T06:48:11.000Z</time>
      </trkpt>
      <trkpt lat="45.22385" lon="5.74323">
        <ele>799.59997558594</ele>
        <time>2021-07-17T06:48:13.000Z</time>
      </trkpt>
      <trkpt lat="45.22384" lon="5.74322">
        <ele>800</ele>
        <time>2021-07-17T06:48:14.000Z</time>
      </trkpt>
      <trkpt lat="45.22383" lon="5.74319">
        <ele>800.40002441406</ele>
        <time>2021-07-17T06:48:16.000Z</time>
      </trkpt>
      <trkpt lat="45.22381" lon="5.74315">
        <ele>801.40002441406</ele>
        <time>2021-07-17T06:48:21.000Z</time>
      </trkpt>
      <trkpt lat="45.22381" lon="5.74314">
        <ele>802</ele>
        <time>2021-07-17T06:48:22.000Z</time>
      </trkpt>
      <trkpt lat="45.22379" lon="5.74312">
        <ele>802.40002441406</ele>
        <time>2021-07-17T06:48:24.000Z</time>
      </trkpt>
      <trkpt lat="45.22376" lon="5.74308">
        <ele>803.20001220703</ele>
        <time>2021-07-17T06:48:28.000Z</time>
      </trkpt>
      <trkpt lat="45.22375" lon="5.74307">
        <ele>803.59997558594</ele>
        <time>2021-07-17T06:48:29.000Z</time>
      </trkpt>
      <trkpt lat="45.22372" lon="5.743">
        <ele>804.59997558594</ele>
        <time>2021-07-17T06:48:34.000Z</time>
      </trkpt>
      <trkpt lat="45.22371" lon="5.74298">
        <ele>805.20001220703</ele>
        <time>2021-07-17T06:48:35.000Z</time>
      </trkpt>
      <trkpt lat="45.2237" lon="5.74296">
        <ele>805.79998779297</ele>
        <time>2021-07-17T06:48:38.000Z</time>
      </trkpt>
      <trkpt lat="45.22368" lon="5.74292">
        <ele>806.20001220703</ele>
        <time>2021-07-17T06:48:41.000Z</time>
      </trkpt>
      <trkpt lat="45.22368" lon="5.74291">
        <ele>806.79998779297</ele>
        <time>2021-07-17T06:48:42.000Z</time>
      </trkpt>
      <trkpt lat="45.22366" lon="5.74285">
        <ele>808</ele>
        <time>2021-07-17T06:48:46.000Z</time>
      </trkpt>
      <trkpt lat="45.22365" lon="5.74283">
        <ele>808</ele>
        <time>2021-07-17T06:48:48.000Z</time>
      </trkpt>
      <trkpt lat="45.22364" lon="5.7428">
        <ele>809.20001220703</ele>
        <time>2021-07-17T06:48:50.000Z</time>
      </trkpt>
      <trkpt lat="45.22364" lon="5.74278">
        <ele>809.20001220703</ele>
        <time>2021-07-17T06:48:51.000Z</time>
      </trkpt>
      <trkpt lat="45.22362" lon="5.74272">
        <ele>810</ele>
        <time>2021-07-17T06:48:55.000Z</time>
      </trkpt>
      <trkpt lat="45.22361" lon="5.7427">
        <ele>810.20001220703</ele>
        <time>2021-07-17T06:48:56.000Z</time>
      </trkpt>
      <trkpt lat="45.22359" lon="5.74264">
        <ele>811.59997558594</ele>
        <time>2021-07-17T06:49:01.000Z</time>
      </trkpt>
      <trkpt lat="45.22355" lon="5.74258">
        <ele>812</ele>
        <time>2021-07-17T06:49:05.000Z</time>
      </trkpt>
      <trkpt lat="45.22354" lon="5.74256">
        <ele>812.20001220703</ele>
        <time>2021-07-17T06:49:07.000Z</time>
      </trkpt>
      <trkpt lat="45.22353" lon="5.74254">
        <ele>812.59997558594</ele>
        <time>2021-07-17T06:49:08.000Z</time>
      </trkpt>
      <trkpt lat="45.22352" lon="5.74253">
        <ele>812.79998779297</ele>
        <time>2021-07-17T06:49:09.000Z</time>
      </trkpt>
      <trkpt lat="45.22352" lon="5.74252">
        <ele>812.79998779297</ele>
        <time>2021-07-17T06:49:10.000Z</time>
      </trkpt>
      <trkpt lat="45.22351" lon="5.74247">
        <ele>813.40002441406</ele>
        <time>2021-07-17T06:49:14.000Z</time>
      </trkpt>
      <trkpt lat="45.22351" lon="5.74243">
        <ele>813.79998779297</ele>
        <time>2021-07-17T06:49:16.000Z</time>
      </trkpt>
      <trkpt lat="45.2235" lon="5.74237">
        <ele>814.79998779297</ele>
        <time>2021-07-17T06:49:19.000Z</time>
      </trkpt>
      <trkpt lat="45.22349" lon="5.74236">
        <ele>815</ele>
        <time>2021-07-17T06:49:20.000Z</time>
      </trkpt>
      <trkpt lat="45.22346" lon="5.74231">
        <ele>815.40002441406</ele>
        <time>2021-07-17T06:49:23.000Z</time>
      </trkpt>
      <trkpt lat="45.22345" lon="5.74229">
        <ele>816</ele>
        <time>2021-07-17T06:49:25.000Z</time>
      </trkpt>
      <trkpt lat="45.22344" lon="5.74228">
        <ele>816.20001220703</ele>
        <time>2021-07-17T06:49:26.000Z</time>
      </trkpt>
      <trkpt lat="45.22343" lon="5.74228">
        <ele>816.59997558594</ele>
        <time>2021-07-17T06:49:27.000Z</time>
      </trkpt>
      <trkpt lat="45.22341" lon="5.74226">
        <ele>817</ele>
        <time>2021-07-17T06:49:30.000Z</time>
      </trkpt>
      <trkpt lat="45.2234" lon="5.74225">
        <ele>817.20001220703</ele>
        <time>2021-07-17T06:49:31.000Z</time>
      </trkpt>
      <trkpt lat="45.22338" lon="5.74224">
        <ele>818</ele>
        <time>2021-07-17T06:49:33.000Z</time>
      </trkpt>
      <trkpt lat="45.22337" lon="5.74222">
        <ele>818.59997558594</ele>
        <time>2021-07-17T06:49:35.000Z</time>
      </trkpt>
      <trkpt lat="45.22336" lon="5.74221">
        <ele>819.20001220703</ele>
        <time>2021-07-17T06:49:37.000Z</time>
      </trkpt>
      <trkpt lat="45.22333" lon="5.7422">
        <ele>819.59997558594</ele>
        <time>2021-07-17T06:49:40.000Z</time>
      </trkpt>
      <trkpt lat="45.22331" lon="5.74219">
        <ele>820.59997558594</ele>
        <time>2021-07-17T06:49:42.000Z</time>
      </trkpt>
      <trkpt lat="45.22328" lon="5.74217">
        <ele>821.40002441406</ele>
        <time>2021-07-17T06:49:45.000Z</time>
      </trkpt>
      <trkpt lat="45.22326" lon="5.74217">
        <ele>822</ele>
        <time>2021-07-17T06:49:47.000Z</time>
      </trkpt>
      <trkpt lat="45.22325" lon="5.74214">
        <ele>822.20001220703</ele>
        <time>2021-07-17T06:49:50.000Z</time>
      </trkpt>
      <trkpt lat="45.22323" lon="5.74214">
        <ele>822.40002441406</ele>
        <time>2021-07-17T06:49:51.000Z</time>
      </trkpt>
      <trkpt lat="45.22322" lon="5.74213">
        <ele>823</ele>
        <time>2021-07-17T06:49:52.000Z</time>
      </trkpt>
      <trkpt lat="45.22321" lon="5.74212">
        <ele>823.20001220703</ele>
        <time>2021-07-17T06:49:53.000Z</time>
      </trkpt>
      <trkpt lat="45.22317" lon="5.74211">
        <ele>823.79998779297</ele>
        <time>2021-07-17T06:49:55.000Z</time>
      </trkpt>
      <trkpt lat="45.22315" lon="5.74211">
        <ele>824.40002441406</ele>
        <time>2021-07-17T06:49:56.000Z</time>
      </trkpt>
      <trkpt lat="45.22313" lon="5.74209">
        <ele>824.40002441406</ele>
        <time>2021-07-17T06:49:58.000Z</time>
      </trkpt>
      <trkpt lat="45.22309" lon="5.74202">
        <ele>825.20001220703</ele>
        <time>2021-07-17T06:50:02.000Z</time>
      </trkpt>
      <trkpt lat="45.22307" lon="5.742">
        <ele>825.59997558594</ele>
        <time>2021-07-17T06:50:03.000Z</time>
      </trkpt>
      <trkpt lat="45.22305" lon="5.74199">
        <ele>825.59997558594</ele>
        <time>2021-07-17T06:50:04.000Z</time>
      </trkpt>
      <trkpt lat="45.22302" lon="5.74196">
        <ele>825.79998779297</ele>
        <time>2021-07-17T06:50:08.000Z</time>
      </trkpt>
      <trkpt lat="45.22296" lon="5.74195">
        <ele>826.59997558594</ele>
        <time>2021-07-17T06:50:14.000Z</time>
      </trkpt>
      <trkpt lat="45.22295" lon="5.74194">
        <ele>826.59997558594</ele>
        <time>2021-07-17T06:50:15.000Z</time>
      </trkpt>
      <trkpt lat="45.22288" lon="5.74182">
        <ele>827.59997558594</ele>
        <time>2021-07-17T06:50:22.000Z</time>
      </trkpt>
      <trkpt lat="45.22284" lon="5.74173">
        <ele>828.40002441406</ele>
        <time>2021-07-17T06:50:29.000Z</time>
      </trkpt>
      <trkpt lat="45.2228" lon="5.74169">
        <ele>828.59997558594</ele>
        <time>2021-07-17T06:50:32.000Z</time>
      </trkpt>
      <trkpt lat="45.22278" lon="5.74166">
        <ele>828.79998779297</ele>
        <time>2021-07-17T06:50:34.000Z</time>
      </trkpt>
      <trkpt lat="45.22278" lon="5.74165">
        <ele>829</ele>
        <time>2021-07-17T06:50:35.000Z</time>
      </trkpt>
      <trkpt lat="45.22277" lon="5.74163">
        <ele>829.40002441406</ele>
        <time>2021-07-17T06:50:37.000Z</time>
      </trkpt>
      <trkpt lat="45.22276" lon="5.74156">
        <ele>829.79998779297</ele>
        <time>2021-07-17T06:50:40.000Z</time>
      </trkpt>
      <trkpt lat="45.22275" lon="5.74152">
        <ele>829.79998779297</ele>
        <time>2021-07-17T06:50:42.000Z</time>
      </trkpt>
      <trkpt lat="45.22274" lon="5.7415">
        <ele>830.20001220703</ele>
        <time>2021-07-17T06:50:43.000Z</time>
      </trkpt>
      <trkpt lat="45.22272" lon="5.74146">
        <ele>830.59997558594</ele>
        <time>2021-07-17T06:50:47.000Z</time>
      </trkpt>
      <trkpt lat="45.22271" lon="5.74145">
        <ele>831</ele>
        <time>2021-07-17T06:50:48.000Z</time>
      </trkpt>
      <trkpt lat="45.2227" lon="5.74144">
        <ele>831.59997558594</ele>
        <time>2021-07-17T06:50:49.000Z</time>
      </trkpt>
      <trkpt lat="45.22269" lon="5.74143">
        <ele>831.59997558594</ele>
        <time>2021-07-17T06:50:50.000Z</time>
      </trkpt>
      <trkpt lat="45.22269" lon="5.74141">
        <ele>831.59997558594</ele>
        <time>2021-07-17T06:50:51.000Z</time>
      </trkpt>
      <trkpt lat="45.22268" lon="5.74139">
        <ele>831.79998779297</ele>
        <time>2021-07-17T06:50:53.000Z</time>
      </trkpt>
      <trkpt lat="45.22267" lon="5.74137">
        <ele>831.79998779297</ele>
        <time>2021-07-17T06:50:54.000Z</time>
      </trkpt>
      <trkpt lat="45.22266" lon="5.74136">
        <ele>832.20001220703</ele>
        <time>2021-07-17T06:50:55.000Z</time>
      </trkpt>
      <trkpt lat="45.22261" lon="5.74129">
        <ele>833.20001220703</ele>
        <time>2021-07-17T06:51:01.000Z</time>
      </trkpt>
      <trkpt lat="45.22261" lon="5.74127">
        <ele>833.40002441406</ele>
        <time>2021-07-17T06:51:02.000Z</time>
      </trkpt>
      <trkpt lat="45.2226" lon="5.74125">
        <ele>833.79998779297</ele>
        <time>2021-07-17T06:51:04.000Z</time>
      </trkpt>
      <trkpt lat="45.22258" lon="5.74123">
        <ele>834.40002441406</ele>
        <time>2021-07-17T06:51:07.000Z</time>
      </trkpt>
      <trkpt lat="45.22256" lon="5.74121">
        <ele>834.79998779297</ele>
        <time>2021-07-17T06:51:09.000Z</time>
      </trkpt>
      <trkpt lat="45.22254" lon="5.74119">
        <ele>835.40002441406</ele>
        <time>2021-07-17T06:51:11.000Z</time>
      </trkpt>
      <trkpt lat="45.22253" lon="5.74118">
        <ele>835.40002441406</ele>
        <time>2021-07-17T06:51:12.000Z</time>
      </trkpt>
      <trkpt lat="45.22253" lon="5.74117">
        <ele>836.20001220703</ele>
        <time>2021-07-17T06:51:13.000Z</time>
      </trkpt>
      <trkpt lat="45.2225" lon="5.74114">
        <ele>836.40002441406</ele>
        <time>2021-07-17T06:51:15.000Z</time>
      </trkpt>
      <trkpt lat="45.22249" lon="5.74114">
        <ele>836.59997558594</ele>
        <time>2021-07-17T06:51:16.000Z</time>
      </trkpt>
      <trkpt lat="45.22247" lon="5.74111">
        <ele>837.79998779297</ele>
        <time>2021-07-17T06:51:19.000Z</time>
      </trkpt>
      <trkpt lat="45.22246" lon="5.74109">
        <ele>838.40002441406</ele>
        <time>2021-07-17T06:51:21.000Z</time>
      </trkpt>
      <trkpt lat="45.22246" lon="5.74105">
        <ele>839</ele>
        <time>2021-07-17T06:51:24.000Z</time>
      </trkpt>
      <trkpt lat="45.22245" lon="5.74104">
        <ele>839</ele>
        <time>2021-07-17T06:51:25.000Z</time>
      </trkpt>
      <trkpt lat="45.22244" lon="5.74102">
        <ele>839.20001220703</ele>
        <time>2021-07-17T06:51:26.000Z</time>
      </trkpt>
      <trkpt lat="45.22243" lon="5.74099">
        <ele>840.20001220703</ele>
        <time>2021-07-17T06:51:28.000Z</time>
      </trkpt>
      <trkpt lat="45.22242" lon="5.74097">
        <ele>840.20001220703</ele>
        <time>2021-07-17T06:51:29.000Z</time>
      </trkpt>
      <trkpt lat="45.2224" lon="5.74096">
        <ele>840.79998779297</ele>
        <time>2021-07-17T06:51:32.000Z</time>
      </trkpt>
      <trkpt lat="45.22239" lon="5.74095">
        <ele>841</ele>
        <time>2021-07-17T06:51:33.000Z</time>
      </trkpt>
      <trkpt lat="45.22238" lon="5.74093">
        <ele>841.40002441406</ele>
        <time>2021-07-17T06:51:34.000Z</time>
      </trkpt>
      <trkpt lat="45.22234" lon="5.74087">
        <ele>842.40002441406</ele>
        <time>2021-07-17T06:51:39.000Z</time>
      </trkpt>
      <trkpt lat="45.22232" lon="5.74084">
        <ele>842.59997558594</ele>
        <time>2021-07-17T06:51:40.000Z</time>
      </trkpt>
      <trkpt lat="45.22231" lon="5.74082">
        <ele>842.79998779297</ele>
        <time>2021-07-17T06:51:41.000Z</time>
      </trkpt>
      <trkpt lat="45.22228" lon="5.74078">
        <ele>843.20001220703</ele>
        <time>2021-07-17T06:51:44.000Z</time>
      </trkpt>
      <trkpt lat="45.22224" lon="5.74075">
        <ele>843.59997558594</ele>
        <time>2021-07-17T06:51:47.000Z</time>
      </trkpt>
      <trkpt lat="45.22219" lon="5.74071">
        <ele>844.59997558594</ele>
        <time>2021-07-17T06:51:52.000Z</time>
      </trkpt>
      <trkpt lat="45.22219" lon="5.7407">
        <ele>844.59997558594</ele>
        <time>2021-07-17T06:51:53.000Z</time>
      </trkpt>
      <trkpt lat="45.22218" lon="5.74066">
        <ele>844.59997558594</ele>
        <time>2021-07-17T06:51:55.000Z</time>
      </trkpt>
      <trkpt lat="45.22218" lon="5.74064">
        <ele>845</ele>
        <time>2021-07-17T06:51:56.000Z</time>
      </trkpt>
      <trkpt lat="45.22216" lon="5.74061">
        <ele>845.40002441406</ele>
        <time>2021-07-17T06:51:59.000Z</time>
      </trkpt>
      <trkpt lat="45.22214" lon="5.74056">
        <ele>846</ele>
        <time>2021-07-17T06:52:02.000Z</time>
      </trkpt>
      <trkpt lat="45.22212" lon="5.74054">
        <ele>846.20001220703</ele>
        <time>2021-07-17T06:52:04.000Z</time>
      </trkpt>
      <trkpt lat="45.22211" lon="5.74052">
        <ele>846.40002441406</ele>
        <time>2021-07-17T06:52:05.000Z</time>
      </trkpt>
      <trkpt lat="45.2221" lon="5.7405">
        <ele>846.59997558594</ele>
        <time>2021-07-17T06:52:06.000Z</time>
      </trkpt>
      <trkpt lat="45.22205" lon="5.7404">
        <ele>847.59997558594</ele>
        <time>2021-07-17T06:52:14.000Z</time>
      </trkpt>
      <trkpt lat="45.22205" lon="5.7404">
        <ele>848</ele>
        <time>2021-07-17T06:52:15.000Z</time>
      </trkpt>
      <trkpt lat="45.22205" lon="5.74039">
        <ele>848</ele>
        <time>2021-07-17T06:52:16.000Z</time>
      </trkpt>
      <trkpt lat="45.22202" lon="5.74035">
        <ele>849.20001220703</ele>
        <time>2021-07-17T06:52:19.000Z</time>
      </trkpt>
      <trkpt lat="45.22201" lon="5.74035">
        <ele>849.40002441406</ele>
        <time>2021-07-17T06:52:20.000Z</time>
      </trkpt>
      <trkpt lat="45.22193" lon="5.7403">
        <ele>849.79998779297</ele>
        <time>2021-07-17T06:52:25.000Z</time>
      </trkpt>
      <trkpt lat="45.22191" lon="5.74027">
        <ele>850.20001220703</ele>
        <time>2021-07-17T06:52:27.000Z</time>
      </trkpt>
      <trkpt lat="45.22191" lon="5.74024">
        <ele>850.40002441406</ele>
        <time>2021-07-17T06:52:28.000Z</time>
      </trkpt>
      <trkpt lat="45.22191" lon="5.7402">
        <ele>851.40002441406</ele>
        <time>2021-07-17T06:52:30.000Z</time>
      </trkpt>
      <trkpt lat="45.22189" lon="5.74018">
        <ele>852</ele>
        <time>2021-07-17T06:52:32.000Z</time>
      </trkpt>
      <trkpt lat="45.22189" lon="5.74017">
        <ele>852</ele>
        <time>2021-07-17T06:52:33.000Z</time>
      </trkpt>
      <trkpt lat="45.22189" lon="5.74014">
        <ele>852.79998779297</ele>
        <time>2021-07-17T06:52:35.000Z</time>
      </trkpt>
      <trkpt lat="45.22188" lon="5.74013">
        <ele>853.40002441406</ele>
        <time>2021-07-17T06:52:36.000Z</time>
      </trkpt>
      <trkpt lat="45.22188" lon="5.74012">
        <ele>853.79998779297</ele>
        <time>2021-07-17T06:52:38.000Z</time>
      </trkpt>
      <trkpt lat="45.22186" lon="5.7401">
        <ele>854.40002441406</ele>
        <time>2021-07-17T06:52:40.000Z</time>
      </trkpt>
      <trkpt lat="45.22185" lon="5.74009">
        <ele>855</ele>
        <time>2021-07-17T06:52:41.000Z</time>
      </trkpt>
      <trkpt lat="45.22184" lon="5.74005">
        <ele>855.40002441406</ele>
        <time>2021-07-17T06:52:45.000Z</time>
      </trkpt>
      <trkpt lat="45.22183" lon="5.74004">
        <ele>855.40002441406</ele>
        <time>2021-07-17T06:52:46.000Z</time>
      </trkpt>
      <trkpt lat="45.22183" lon="5.74003">
        <ele>856.40002441406</ele>
        <time>2021-07-17T06:52:47.000Z</time>
      </trkpt>
      <trkpt lat="45.2218" lon="5.74">
        <ele>856.59997558594</ele>
        <time>2021-07-17T06:52:49.000Z</time>
      </trkpt>
      <trkpt lat="45.22178" lon="5.73997">
        <ele>857.20001220703</ele>
        <time>2021-07-17T06:52:52.000Z</time>
      </trkpt>
      <trkpt lat="45.22177" lon="5.73997">
        <ele>857.40002441406</ele>
        <time>2021-07-17T06:52:53.000Z</time>
      </trkpt>
      <trkpt lat="45.22175" lon="5.73995">
        <ele>857.79998779297</ele>
        <time>2021-07-17T06:52:55.000Z</time>
      </trkpt>
      <trkpt lat="45.22173" lon="5.73993">
        <ele>858</ele>
        <time>2021-07-17T06:52:57.000Z</time>
      </trkpt>
      <trkpt lat="45.22172" lon="5.73992">
        <ele>858</ele>
        <time>2021-07-17T06:52:58.000Z</time>
      </trkpt>
      <trkpt lat="45.22169" lon="5.73989">
        <ele>858.59997558594</ele>
        <time>2021-07-17T06:53:01.000Z</time>
      </trkpt>
      <trkpt lat="45.22167" lon="5.73986">
        <ele>858.79998779297</ele>
        <time>2021-07-17T06:53:03.000Z</time>
      </trkpt>
      <trkpt lat="45.22166" lon="5.73985">
        <ele>859.20001220703</ele>
        <time>2021-07-17T06:53:04.000Z</time>
      </trkpt>
      <trkpt lat="45.22161" lon="5.73979">
        <ele>860</ele>
        <time>2021-07-17T06:53:10.000Z</time>
      </trkpt>
      <trkpt lat="45.2216" lon="5.73979">
        <ele>860.20001220703</ele>
        <time>2021-07-17T06:53:11.000Z</time>
      </trkpt>
      <trkpt lat="45.22159" lon="5.73978">
        <ele>860.40002441406</ele>
        <time>2021-07-17T06:53:12.000Z</time>
      </trkpt>
      <trkpt lat="45.22154" lon="5.73971">
        <ele>861.40002441406</ele>
        <time>2021-07-17T06:53:17.000Z</time>
      </trkpt>
      <trkpt lat="45.22154" lon="5.73968">
        <ele>861.40002441406</ele>
        <time>2021-07-17T06:53:18.000Z</time>
      </trkpt>
      <trkpt lat="45.22152" lon="5.73965">
        <ele>861.79998779297</ele>
        <time>2021-07-17T06:53:20.000Z</time>
      </trkpt>
      <trkpt lat="45.22151" lon="5.73964">
        <ele>862.20001220703</ele>
        <time>2021-07-17T06:53:21.000Z</time>
      </trkpt>
      <trkpt lat="45.22148" lon="5.73961">
        <ele>862.40002441406</ele>
        <time>2021-07-17T06:53:24.000Z</time>
      </trkpt>
      <trkpt lat="45.22147" lon="5.7396">
        <ele>862.59997558594</ele>
        <time>2021-07-17T06:53:25.000Z</time>
      </trkpt>
      <trkpt lat="45.22146" lon="5.73959">
        <ele>862.59997558594</ele>
        <time>2021-07-17T06:53:27.000Z</time>
      </trkpt>
      <trkpt lat="45.22145" lon="5.73959">
        <ele>863</ele>
        <time>2021-07-17T06:53:28.000Z</time>
      </trkpt>
      <trkpt lat="45.22143" lon="5.73957">
        <ele>863.20001220703</ele>
        <time>2021-07-17T06:53:30.000Z</time>
      </trkpt>
      <trkpt lat="45.22141" lon="5.73955">
        <ele>863.59997558594</ele>
        <time>2021-07-17T06:53:32.000Z</time>
      </trkpt>
      <trkpt lat="45.22139" lon="5.73954">
        <ele>864</ele>
        <time>2021-07-17T06:53:33.000Z</time>
      </trkpt>
      <trkpt lat="45.22139" lon="5.73952">
        <ele>864</ele>
        <time>2021-07-17T06:53:34.000Z</time>
      </trkpt>
      <trkpt lat="45.22136" lon="5.7395">
        <ele>864.79998779297</ele>
        <time>2021-07-17T06:53:37.000Z</time>
      </trkpt>
      <trkpt lat="45.22134" lon="5.73944">
        <ele>865.79998779297</ele>
        <time>2021-07-17T06:53:41.000Z</time>
      </trkpt>
      <trkpt lat="45.22133" lon="5.73943">
        <ele>866</ele>
        <time>2021-07-17T06:53:42.000Z</time>
      </trkpt>
      <trkpt lat="45.22131" lon="5.73938">
        <ele>866.59997558594</ele>
        <time>2021-07-17T06:53:46.000Z</time>
      </trkpt>
      <trkpt lat="45.22129" lon="5.73937">
        <ele>867.20001220703</ele>
        <time>2021-07-17T06:53:47.000Z</time>
      </trkpt>
      <trkpt lat="45.22128" lon="5.73936">
        <ele>868</ele>
        <time>2021-07-17T06:53:49.000Z</time>
      </trkpt>
      <trkpt lat="45.22127" lon="5.73934">
        <ele>868.20001220703</ele>
        <time>2021-07-17T06:53:51.000Z</time>
      </trkpt>
      <trkpt lat="45.22125" lon="5.73932">
        <ele>869.59997558594</ele>
        <time>2021-07-17T06:53:54.000Z</time>
      </trkpt>
      <trkpt lat="45.22125" lon="5.73931">
        <ele>869.79998779297</ele>
        <time>2021-07-17T06:53:55.000Z</time>
      </trkpt>
      <trkpt lat="45.2212" lon="5.73927">
        <ele>870.59997558594</ele>
        <time>2021-07-17T06:54:00.000Z</time>
      </trkpt>
      <trkpt lat="45.22117" lon="5.73925">
        <ele>871.20001220703</ele>
        <time>2021-07-17T06:54:03.000Z</time>
      </trkpt>
      <trkpt lat="45.22115" lon="5.73923">
        <ele>871.59997558594</ele>
        <time>2021-07-17T06:54:05.000Z</time>
      </trkpt>
      <trkpt lat="45.22112" lon="5.73921">
        <ele>871.79998779297</ele>
        <time>2021-07-17T06:54:08.000Z</time>
      </trkpt>
      <trkpt lat="45.22111" lon="5.7392">
        <ele>872.40002441406</ele>
        <time>2021-07-17T06:54:09.000Z</time>
      </trkpt>
      <trkpt lat="45.22107" lon="5.73916">
        <ele>872.59997558594</ele>
        <time>2021-07-17T06:54:13.000Z</time>
      </trkpt>
      <trkpt lat="45.22104" lon="5.73911">
        <ele>873.20001220703</ele>
        <time>2021-07-17T06:54:17.000Z</time>
      </trkpt>
      <trkpt lat="45.22103" lon="5.7391">
        <ele>873.40002441406</ele>
        <time>2021-07-17T06:54:18.000Z</time>
      </trkpt>
      <trkpt lat="45.221" lon="5.73906">
        <ele>873.79998779297</ele>
        <time>2021-07-17T06:54:21.000Z</time>
      </trkpt>
      <trkpt lat="45.22097" lon="5.73903">
        <ele>874.20001220703</ele>
        <time>2021-07-17T06:54:24.000Z</time>
      </trkpt>
      <trkpt lat="45.22092" lon="5.73897">
        <ele>874.79998779297</ele>
        <time>2021-07-17T06:54:29.000Z</time>
      </trkpt>
      <trkpt lat="45.22088" lon="5.73892">
        <ele>875.79998779297</ele>
        <time>2021-07-17T06:54:32.000Z</time>
      </trkpt>
      <trkpt lat="45.22087" lon="5.7389">
        <ele>875.79998779297</ele>
        <time>2021-07-17T06:54:33.000Z</time>
      </trkpt>
      <trkpt lat="45.22086" lon="5.73889">
        <ele>876.20001220703</ele>
        <time>2021-07-17T06:54:34.000Z</time>
      </trkpt>
      <trkpt lat="45.22081" lon="5.73885">
        <ele>876.79998779297</ele>
        <time>2021-07-17T06:54:37.000Z</time>
      </trkpt>
      <trkpt lat="45.22081" lon="5.73882">
        <ele>878</ele>
        <time>2021-07-17T06:54:40.000Z</time>
      </trkpt>
      <trkpt lat="45.22082" lon="5.73879">
        <ele>878.20001220703</ele>
        <time>2021-07-17T06:54:42.000Z</time>
      </trkpt>
      <trkpt lat="45.22083" lon="5.73879">
        <ele>878.79998779297</ele>
        <time>2021-07-17T06:54:43.000Z</time>
      </trkpt>
      <trkpt lat="45.22084" lon="5.7388">
        <ele>878.79998779297</ele>
        <time>2021-07-17T06:54:44.000Z</time>
      </trkpt>
      <trkpt lat="45.22086" lon="5.73881">
        <ele>879.20001220703</ele>
        <time>2021-07-17T06:54:46.000Z</time>
      </trkpt>
      <trkpt lat="45.2209" lon="5.73881">
        <ele>879.40002441406</ele>
        <time>2021-07-17T06:54:49.000Z</time>
      </trkpt>
      <trkpt lat="45.22092" lon="5.73882">
        <ele>879.40002441406</ele>
        <time>2021-07-17T06:54:50.000Z</time>
      </trkpt>
      <trkpt lat="45.22098" lon="5.73883">
        <ele>880.20001220703</ele>
        <time>2021-07-17T06:54:55.000Z</time>
      </trkpt>
      <trkpt lat="45.22103" lon="5.73885">
        <ele>881.20001220703</ele>
        <time>2021-07-17T06:54:58.000Z</time>
      </trkpt>
      <trkpt lat="45.22108" lon="5.73884">
        <ele>881.40002441406</ele>
        <time>2021-07-17T06:55:00.000Z</time>
      </trkpt>
      <trkpt lat="45.22112" lon="5.73884">
        <ele>881.59997558594</ele>
        <time>2021-07-17T06:55:03.000Z</time>
      </trkpt>
      <trkpt lat="45.22112" lon="5.73885">
        <ele>881.79998779297</ele>
        <time>2021-07-17T06:55:04.000Z</time>
      </trkpt>
      <trkpt lat="45.22113" lon="5.73885">
        <ele>882</ele>
        <time>2021-07-17T06:55:05.000Z</time>
      </trkpt>
      <trkpt lat="45.22118" lon="5.73887">
        <ele>882.59997558594</ele>
        <time>2021-07-17T06:55:08.000Z</time>
      </trkpt>
      <trkpt lat="45.2212" lon="5.73888">
        <ele>882.79998779297</ele>
        <time>2021-07-17T06:55:09.000Z</time>
      </trkpt>
      <trkpt lat="45.22127" lon="5.73894">
        <ele>883.40002441406</ele>
        <time>2021-07-17T06:55:14.000Z</time>
      </trkpt>
      <trkpt lat="45.22128" lon="5.73895">
        <ele>883.79998779297</ele>
        <time>2021-07-17T06:55:15.000Z</time>
      </trkpt>
      <trkpt lat="45.22129" lon="5.73895">
        <ele>883.79998779297</ele>
        <time>2021-07-17T06:55:16.000Z</time>
      </trkpt>
      <trkpt lat="45.2213" lon="5.73896">
        <ele>884</ele>
        <time>2021-07-17T06:55:17.000Z</time>
      </trkpt>
      <trkpt lat="45.22136" lon="5.73897">
        <ele>884.59997558594</ele>
        <time>2021-07-17T06:55:20.000Z</time>
      </trkpt>
      <trkpt lat="45.22141" lon="5.73897">
        <ele>885</ele>
        <time>2021-07-17T06:55:23.000Z</time>
      </trkpt>
      <trkpt lat="45.22143" lon="5.73898">
        <ele>885.40002441406</ele>
        <time>2021-07-17T06:55:24.000Z</time>
      </trkpt>
      <trkpt lat="45.22146" lon="5.739">
        <ele>885.40002441406</ele>
        <time>2021-07-17T06:55:27.000Z</time>
      </trkpt>
      <trkpt lat="45.22147" lon="5.73901">
        <ele>885.79998779297</ele>
        <time>2021-07-17T06:55:28.000Z</time>
      </trkpt>
      <trkpt lat="45.22149" lon="5.73901">
        <ele>886</ele>
        <time>2021-07-17T06:55:29.000Z</time>
      </trkpt>
      <trkpt lat="45.22154" lon="5.73903">
        <ele>886.40002441406</ele>
        <time>2021-07-17T06:55:32.000Z</time>
      </trkpt>
      <trkpt lat="45.22156" lon="5.73904">
        <ele>886.40002441406</ele>
        <time>2021-07-17T06:55:33.000Z</time>
      </trkpt>
      <trkpt lat="45.22159" lon="5.73904">
        <ele>887</ele>
        <time>2021-07-17T06:55:35.000Z</time>
      </trkpt>
      <trkpt lat="45.22162" lon="5.73908">
        <ele>887.59997558594</ele>
        <time>2021-07-17T06:55:37.000Z</time>
      </trkpt>
      <trkpt lat="45.22164" lon="5.73909">
        <ele>887.59997558594</ele>
        <time>2021-07-17T06:55:38.000Z</time>
      </trkpt>
      <trkpt lat="45.22166" lon="5.73911">
        <ele>887.79998779297</ele>
        <time>2021-07-17T06:55:39.000Z</time>
      </trkpt>
      <trkpt lat="45.22169" lon="5.73911">
        <ele>888.59997558594</ele>
        <time>2021-07-17T06:55:41.000Z</time>
      </trkpt>
      <trkpt lat="45.22171" lon="5.73912">
        <ele>888.59997558594</ele>
        <time>2021-07-17T06:55:42.000Z</time>
      </trkpt>
      <trkpt lat="45.22174" lon="5.73914">
        <ele>889.20001220703</ele>
        <time>2021-07-17T06:55:44.000Z</time>
      </trkpt>
      <trkpt lat="45.22178" lon="5.73918">
        <ele>889.20001220703</ele>
        <time>2021-07-17T06:55:47.000Z</time>
      </trkpt>
      <trkpt lat="45.22182" lon="5.73919">
        <ele>889.59997558594</ele>
        <time>2021-07-17T06:55:48.000Z</time>
      </trkpt>
      <trkpt lat="45.22189" lon="5.73922">
        <ele>890</ele>
        <time>2021-07-17T06:55:51.000Z</time>
      </trkpt>
      <trkpt lat="45.22196" lon="5.73924">
        <ele>890.59997558594</ele>
        <time>2021-07-17T06:55:54.000Z</time>
      </trkpt>
      <trkpt lat="45.22198" lon="5.73926">
        <ele>890.59997558594</ele>
        <time>2021-07-17T06:55:55.000Z</time>
      </trkpt>
      <trkpt lat="45.22201" lon="5.73929">
        <ele>890.79998779297</ele>
        <time>2021-07-17T06:55:57.000Z</time>
      </trkpt>
      <trkpt lat="45.22205" lon="5.73935">
        <ele>891.59997558594</ele>
        <time>2021-07-17T06:56:00.000Z</time>
      </trkpt>
      <trkpt lat="45.22206" lon="5.73937">
        <ele>891.79998779297</ele>
        <time>2021-07-17T06:56:01.000Z</time>
      </trkpt>
      <trkpt lat="45.22212" lon="5.73946">
        <ele>893</ele>
        <time>2021-07-17T06:56:06.000Z</time>
      </trkpt>
      <trkpt lat="45.22213" lon="5.73948">
        <ele>893</ele>
        <time>2021-07-17T06:56:07.000Z</time>
      </trkpt>
      <trkpt lat="45.22216" lon="5.73951">
        <ele>893</ele>
        <time>2021-07-17T06:56:09.000Z</time>
      </trkpt>
      <trkpt lat="45.22217" lon="5.73955">
        <ele>893.59997558594</ele>
        <time>2021-07-17T06:56:11.000Z</time>
      </trkpt>
      <trkpt lat="45.2222" lon="5.73958">
        <ele>893.79998779297</ele>
        <time>2021-07-17T06:56:13.000Z</time>
      </trkpt>
      <trkpt lat="45.22221" lon="5.73961">
        <ele>894.20001220703</ele>
        <time>2021-07-17T06:56:15.000Z</time>
      </trkpt>
      <trkpt lat="45.22224" lon="5.73964">
        <ele>894.40002441406</ele>
        <time>2021-07-17T06:56:17.000Z</time>
      </trkpt>
      <trkpt lat="45.22226" lon="5.73965">
        <ele>894.59997558594</ele>
        <time>2021-07-17T06:56:18.000Z</time>
      </trkpt>
      <trkpt lat="45.22231" lon="5.7397">
        <ele>895.40002441406</ele>
        <time>2021-07-17T06:56:22.000Z</time>
      </trkpt>
      <trkpt lat="45.22238" lon="5.73973">
        <ele>895.40002441406</ele>
        <time>2021-07-17T06:56:26.000Z</time>
      </trkpt>
      <trkpt lat="45.22245" lon="5.73977">
        <ele>895.79998779297</ele>
        <time>2021-07-17T06:56:30.000Z</time>
      </trkpt>
      <trkpt lat="45.2225" lon="5.73979">
        <ele>896.20001220703</ele>
        <time>2021-07-17T06:56:33.000Z</time>
      </trkpt>
      <trkpt lat="45.22252" lon="5.7398">
        <ele>896.40002441406</ele>
        <time>2021-07-17T06:56:34.000Z</time>
      </trkpt>
      <trkpt lat="45.22262" lon="5.73985">
        <ele>897.20001220703</ele>
        <time>2021-07-17T06:56:39.000Z</time>
      </trkpt>
      <trkpt lat="45.22265" lon="5.73987">
        <ele>897.20001220703</ele>
        <time>2021-07-17T06:56:41.000Z</time>
      </trkpt>
      <trkpt lat="45.22267" lon="5.73988">
        <ele>897.59997558594</ele>
        <time>2021-07-17T06:56:42.000Z</time>
      </trkpt>
      <trkpt lat="45.22272" lon="5.7399">
        <ele>898.59997558594</ele>
        <time>2021-07-17T06:56:44.000Z</time>
      </trkpt>
      <trkpt lat="45.22279" lon="5.73996">
        <ele>899.20001220703</ele>
        <time>2021-07-17T06:56:48.000Z</time>
      </trkpt>
      <trkpt lat="45.22281" lon="5.73998">
        <ele>899.20001220703</ele>
        <time>2021-07-17T06:56:49.000Z</time>
      </trkpt>
      <trkpt lat="45.22287" lon="5.74002">
        <ele>899.59997558594</ele>
        <time>2021-07-17T06:56:53.000Z</time>
      </trkpt>
      <trkpt lat="45.2229" lon="5.74003">
        <ele>899.79998779297</ele>
        <time>2021-07-17T06:56:54.000Z</time>
      </trkpt>
      <trkpt lat="45.22294" lon="5.74005">
        <ele>900.59997558594</ele>
        <time>2021-07-17T06:56:56.000Z</time>
      </trkpt>
      <trkpt lat="45.22299" lon="5.74005">
        <ele>900.79998779297</ele>
        <time>2021-07-17T06:57:00.000Z</time>
      </trkpt>
      <trkpt lat="45.223" lon="5.74004">
        <ele>901</ele>
        <time>2021-07-17T06:57:01.000Z</time>
      </trkpt>
      <trkpt lat="45.22301" lon="5.74004">
        <ele>902</ele>
        <time>2021-07-17T06:57:02.000Z</time>
      </trkpt>
      <trkpt lat="45.22304" lon="5.74005">
        <ele>902.20001220703</ele>
        <time>2021-07-17T06:57:04.000Z</time>
      </trkpt>
      <trkpt lat="45.22308" lon="5.74007">
        <ele>902.40002441406</ele>
        <time>2021-07-17T06:57:07.000Z</time>
      </trkpt>
      <trkpt lat="45.22312" lon="5.74008">
        <ele>903</ele>
        <time>2021-07-17T06:57:10.000Z</time>
      </trkpt>
      <trkpt lat="45.22317" lon="5.74011">
        <ele>903.40002441406</ele>
        <time>2021-07-17T06:57:12.000Z</time>
      </trkpt>
      <trkpt lat="45.22327" lon="5.74014">
        <ele>903.59997558594</ele>
        <time>2021-07-17T06:57:18.000Z</time>
      </trkpt>
      <trkpt lat="45.22328" lon="5.74014">
        <ele>903.59997558594</ele>
        <time>2021-07-17T06:57:19.000Z</time>
      </trkpt>
      <trkpt lat="45.22333" lon="5.74015">
        <ele>904.40002441406</ele>
        <time>2021-07-17T06:57:22.000Z</time>
      </trkpt>
      <trkpt lat="45.22334" lon="5.74016">
        <ele>904.59997558594</ele>
        <time>2021-07-17T06:57:23.000Z</time>
      </trkpt>
      <trkpt lat="45.22336" lon="5.74017">
        <ele>904.79998779297</ele>
        <time>2021-07-17T06:57:25.000Z</time>
      </trkpt>
      <trkpt lat="45.22338" lon="5.74018">
        <ele>905</ele>
        <time>2021-07-17T06:57:26.000Z</time>
      </trkpt>
      <trkpt lat="45.22344" lon="5.74023">
        <ele>905.79998779297</ele>
        <time>2021-07-17T06:57:29.000Z</time>
      </trkpt>
      <trkpt lat="45.22348" lon="5.74025">
        <ele>906.20001220703</ele>
        <time>2021-07-17T06:57:32.000Z</time>
      </trkpt>
      <trkpt lat="45.22358" lon="5.7403">
        <ele>907</ele>
        <time>2021-07-17T06:57:36.000Z</time>
      </trkpt>
      <trkpt lat="45.22363" lon="5.74036">
        <ele>907</ele>
        <time>2021-07-17T06:57:39.000Z</time>
      </trkpt>
      <trkpt lat="45.22369" lon="5.74048">
        <ele>907</ele>
        <time>2021-07-17T06:57:44.000Z</time>
      </trkpt>
      <trkpt lat="45.22372" lon="5.74049">
        <ele>906.79998779297</ele>
        <time>2021-07-17T06:57:45.000Z</time>
      </trkpt>
      <trkpt lat="45.22376" lon="5.74051">
        <ele>906.40002441406</ele>
        <time>2021-07-17T06:57:47.000Z</time>
      </trkpt>
      <trkpt lat="45.22378" lon="5.74051">
        <ele>906.40002441406</ele>
        <time>2021-07-17T06:57:48.000Z</time>
      </trkpt>
      <trkpt lat="45.22384" lon="5.74056">
        <ele>906.20001220703</ele>
        <time>2021-07-17T06:57:53.000Z</time>
      </trkpt>
      <trkpt lat="45.22383" lon="5.74059">
        <ele>906.20001220703</ele>
        <time>2021-07-17T06:57:55.000Z</time>
      </trkpt>
      <trkpt lat="45.22383" lon="5.7406">
        <ele>906.20001220703</ele>
        <time>2021-07-17T06:57:58.000Z</time>
      </trkpt>
      <trkpt lat="45.22384" lon="5.74061">
        <ele>906.40002441406</ele>
        <time>2021-07-17T06:58:01.000Z</time>
      </trkpt>
      <trkpt lat="45.22384" lon="5.7406">
        <ele>906.59997558594</ele>
        <time>2021-07-17T06:58:03.000Z</time>
      </trkpt>
      <trkpt lat="45.22385" lon="5.74061">
        <ele>906.40002441406</ele>
        <time>2021-07-17T06:58:05.000Z</time>
      </trkpt>
      <trkpt lat="45.22386" lon="5.74062">
        <ele>906.40002441406</ele>
        <time>2021-07-17T06:58:07.000Z</time>
      </trkpt>
      <trkpt lat="45.22386" lon="5.74062">
        <ele>906.40002441406</ele>
        <time>2021-07-17T06:58:10.000Z</time>
      </trkpt>
      <trkpt lat="45.22387" lon="5.74062">
        <ele>906.40002441406</ele>
        <time>2021-07-17T06:58:11.000Z</time>
      </trkpt>
      <trkpt lat="45.22392" lon="5.74061">
        <ele>906.40002441406</ele>
        <time>2021-07-17T06:58:17.000Z</time>
      </trkpt>
      <trkpt lat="45.22397" lon="5.74063">
        <ele>906.59997558594</ele>
        <time>2021-07-17T06:58:20.000Z</time>
      </trkpt>
      <trkpt lat="45.22404" lon="5.74066">
        <ele>907</ele>
        <time>2021-07-17T06:58:24.000Z</time>
      </trkpt>
      <trkpt lat="45.22416" lon="5.74071">
        <ele>908</ele>
        <time>2021-07-17T06:58:31.000Z</time>
      </trkpt>
      <trkpt lat="45.22419" lon="5.74072">
        <ele>908.40002441406</ele>
        <time>2021-07-17T06:58:33.000Z</time>
      </trkpt>
      <trkpt lat="45.22427" lon="5.7408">
        <ele>909.20001220703</ele>
        <time>2021-07-17T06:58:39.000Z</time>
      </trkpt>
      <trkpt lat="45.22428" lon="5.74081">
        <ele>909.20001220703</ele>
        <time>2021-07-17T06:58:40.000Z</time>
      </trkpt>
      <trkpt lat="45.22436" lon="5.74084">
        <ele>910.79998779297</ele>
        <time>2021-07-17T06:58:44.000Z</time>
      </trkpt>
      <trkpt lat="45.22442" lon="5.74086">
        <ele>911.59997558594</ele>
        <time>2021-07-17T06:58:47.000Z</time>
      </trkpt>
      <trkpt lat="45.22444" lon="5.74087">
        <ele>911.59997558594</ele>
        <time>2021-07-17T06:58:48.000Z</time>
      </trkpt>
      <trkpt lat="45.22448" lon="5.74089">
        <ele>912</ele>
        <time>2021-07-17T06:58:50.000Z</time>
      </trkpt>
      <trkpt lat="45.22458" lon="5.74093">
        <ele>913</ele>
        <time>2021-07-17T06:58:56.000Z</time>
      </trkpt>
      <trkpt lat="45.22462" lon="5.74094">
        <ele>913.79998779297</ele>
        <time>2021-07-17T06:58:58.000Z</time>
      </trkpt>
      <trkpt lat="45.22465" lon="5.74095">
        <ele>914.40002441406</ele>
        <time>2021-07-17T06:59:00.000Z</time>
      </trkpt>
      <trkpt lat="45.22468" lon="5.74097">
        <ele>914.40002441406</ele>
        <time>2021-07-17T06:59:02.000Z</time>
      </trkpt>
      <trkpt lat="45.22471" lon="5.74098">
        <ele>914.59997558594</ele>
        <time>2021-07-17T06:59:04.000Z</time>
      </trkpt>
      <trkpt lat="45.22477" lon="5.74099">
        <ele>915.40002441406</ele>
        <time>2021-07-17T06:59:08.000Z</time>
      </trkpt>
      <trkpt lat="45.22479" lon="5.74099">
        <ele>915.40002441406</ele>
        <time>2021-07-17T06:59:09.000Z</time>
      </trkpt>
      <trkpt lat="45.22484" lon="5.74101">
        <ele>916</ele>
        <time>2021-07-17T06:59:12.000Z</time>
      </trkpt>
      <trkpt lat="45.22486" lon="5.74101">
        <ele>916.59997558594</ele>
        <time>2021-07-17T06:59:13.000Z</time>
      </trkpt>
      <trkpt lat="45.22497" lon="5.74104">
        <ele>917.59997558594</ele>
        <time>2021-07-17T06:59:20.000Z</time>
      </trkpt>
      <trkpt lat="45.22507" lon="5.74104">
        <ele>918.79998779297</ele>
        <time>2021-07-17T06:59:27.000Z</time>
      </trkpt>
      <trkpt lat="45.22515" lon="5.74103">
        <ele>919.59997558594</ele>
        <time>2021-07-17T06:59:31.000Z</time>
      </trkpt>
      <trkpt lat="45.22518" lon="5.74103">
        <ele>919.79998779297</ele>
        <time>2021-07-17T06:59:32.000Z</time>
      </trkpt>
      <trkpt lat="45.2253" lon="5.74104">
        <ele>920.79998779297</ele>
        <time>2021-07-17T06:59:40.000Z</time>
      </trkpt>
      <trkpt lat="45.22533" lon="5.74104">
        <ele>921</ele>
        <time>2021-07-17T06:59:42.000Z</time>
      </trkpt>
      <trkpt lat="45.22541" lon="5.74101">
        <ele>922.20001220703</ele>
        <time>2021-07-17T06:59:47.000Z</time>
      </trkpt>
      <trkpt lat="45.22547" lon="5.74099">
        <ele>923.20001220703</ele>
        <time>2021-07-17T06:59:51.000Z</time>
      </trkpt>
      <trkpt lat="45.22552" lon="5.74098">
        <ele>923.40002441406</ele>
        <time>2021-07-17T06:59:54.000Z</time>
      </trkpt>
      <trkpt lat="45.22556" lon="5.74093">
        <ele>923.79998779297</ele>
        <time>2021-07-17T06:59:58.000Z</time>
      </trkpt>
      <trkpt lat="45.22556" lon="5.74089">
        <ele>924.40002441406</ele>
        <time>2021-07-17T07:00:00.000Z</time>
      </trkpt>
      <trkpt lat="45.22554" lon="5.74086">
        <ele>924.40002441406</ele>
        <time>2021-07-17T07:00:02.000Z</time>
      </trkpt>
      <trkpt lat="45.22552" lon="5.74084">
        <ele>924.79998779297</ele>
        <time>2021-07-17T07:00:04.000Z</time>
      </trkpt>
      <trkpt lat="45.22549" lon="5.74083">
        <ele>925.59997558594</ele>
        <time>2021-07-17T07:00:06.000Z</time>
      </trkpt>
      <trkpt lat="45.22539" lon="5.74075">
        <ele>926.20001220703</ele>
        <time>2021-07-17T07:00:13.000Z</time>
      </trkpt>
      <trkpt lat="45.22538" lon="5.74074">
        <ele>927</ele>
        <time>2021-07-17T07:00:14.000Z</time>
      </trkpt>
      <trkpt lat="45.22527" lon="5.7407">
        <ele>927.40002441406</ele>
        <time>2021-07-17T07:00:20.000Z</time>
      </trkpt>
      <trkpt lat="45.22519" lon="5.74066">
        <ele>927.20001220703</ele>
        <time>2021-07-17T07:00:25.000Z</time>
      </trkpt>
      <trkpt lat="45.22518" lon="5.74065">
        <ele>927.20001220703</ele>
        <time>2021-07-17T07:00:26.000Z</time>
      </trkpt>
      <trkpt lat="45.22512" lon="5.74063">
        <ele>926.79998779297</ele>
        <time>2021-07-17T07:00:30.000Z</time>
      </trkpt>
      <trkpt lat="45.2251" lon="5.74064">
        <ele>926.79998779297</ele>
        <time>2021-07-17T07:00:34.000Z</time>
      </trkpt>
      <trkpt lat="45.2251" lon="5.74065">
        <ele>927</ele>
        <time>2021-07-17T07:00:35.000Z</time>
      </trkpt>
      <trkpt lat="45.22509" lon="5.74072">
        <ele>927.20001220703</ele>
        <time>2021-07-17T07:00:38.000Z</time>
      </trkpt>
      <trkpt lat="45.22508" lon="5.74073">
        <ele>927.20001220703</ele>
        <time>2021-07-17T07:00:41.000Z</time>
      </trkpt>
      <trkpt lat="45.2251" lon="5.74073">
        <ele>927.40002441406</ele>
        <time>2021-07-17T07:00:45.000Z</time>
      </trkpt>
      <trkpt lat="45.22512" lon="5.74073">
        <ele>927.20001220703</ele>
        <time>2021-07-17T07:00:47.000Z</time>
      </trkpt>
      <trkpt lat="45.22511" lon="5.74071">
        <ele>927.20001220703</ele>
        <time>2021-07-17T07:00:50.000Z</time>
      </trkpt>
      <trkpt lat="45.2251" lon="5.74069">
        <ele>927.20001220703</ele>
        <time>2021-07-17T07:00:51.000Z</time>
      </trkpt>
      <trkpt lat="45.22507" lon="5.74063">
        <ele>927.40002441406</ele>
        <time>2021-07-17T07:00:54.000Z</time>
      </trkpt>
      <trkpt lat="45.22505" lon="5.74061">
        <ele>927.59997558594</ele>
        <time>2021-07-17T07:00:56.000Z</time>
      </trkpt>
      <trkpt lat="45.22503" lon="5.74059">
        <ele>927.59997558594</ele>
        <time>2021-07-17T07:00:58.000Z</time>
      </trkpt>
      <trkpt lat="45.22501" lon="5.74057">
        <ele>927.79998779297</ele>
        <time>2021-07-17T07:01:00.000Z</time>
      </trkpt>
      <trkpt lat="45.225" lon="5.74054">
        <ele>928.40002441406</ele>
        <time>2021-07-17T07:01:02.000Z</time>
      </trkpt>
      <trkpt lat="45.22498" lon="5.7405">
        <ele>929</ele>
        <time>2021-07-17T07:01:05.000Z</time>
      </trkpt>
      <trkpt lat="45.22496" lon="5.74047">
        <ele>929.40002441406</ele>
        <time>2021-07-17T07:01:07.000Z</time>
      </trkpt>
      <trkpt lat="45.22491" lon="5.7404">
        <ele>930.20001220703</ele>
        <time>2021-07-17T07:01:11.000Z</time>
      </trkpt>
      <trkpt lat="45.22488" lon="5.74037">
        <ele>931</ele>
        <time>2021-07-17T07:01:13.000Z</time>
      </trkpt>
      <trkpt lat="45.22481" lon="5.7403">
        <ele>932</ele>
        <time>2021-07-17T07:01:17.000Z</time>
      </trkpt>
      <trkpt lat="45.22478" lon="5.74026">
        <ele>932.59997558594</ele>
        <time>2021-07-17T07:01:19.000Z</time>
      </trkpt>
      <trkpt lat="45.22471" lon="5.74017">
        <ele>933.20001220703</ele>
        <time>2021-07-17T07:01:24.000Z</time>
      </trkpt>
      <trkpt lat="45.22468" lon="5.74014">
        <ele>934.20001220703</ele>
        <time>2021-07-17T07:01:26.000Z</time>
      </trkpt>
      <trkpt lat="45.22466" lon="5.74012">
        <ele>934.40002441406</ele>
        <time>2021-07-17T07:01:27.000Z</time>
      </trkpt>
      <trkpt lat="45.22458" lon="5.74008">
        <ele>935.20001220703</ele>
        <time>2021-07-17T07:01:32.000Z</time>
      </trkpt>
      <trkpt lat="45.22456" lon="5.74007">
        <ele>935.20001220703</ele>
        <time>2021-07-17T07:01:33.000Z</time>
      </trkpt>
      <trkpt lat="45.22455" lon="5.74005">
        <ele>935.59997558594</ele>
        <time>2021-07-17T07:01:34.000Z</time>
      </trkpt>
      <trkpt lat="45.22448" lon="5.73997">
        <ele>936.59997558594</ele>
        <time>2021-07-17T07:01:38.000Z</time>
      </trkpt>
      <trkpt lat="45.22443" lon="5.73992">
        <ele>936.79998779297</ele>
        <time>2021-07-17T07:01:42.000Z</time>
      </trkpt>
      <trkpt lat="45.22438" lon="5.73981">
        <ele>937.59997558594</ele>
        <time>2021-07-17T07:01:48.000Z</time>
      </trkpt>
      <trkpt lat="45.22437" lon="5.73978">
        <ele>938.40002441406</ele>
        <time>2021-07-17T07:01:49.000Z</time>
      </trkpt>
      <trkpt lat="45.22435" lon="5.73974">
        <ele>938.59997558594</ele>
        <time>2021-07-17T07:01:51.000Z</time>
      </trkpt>
      <trkpt lat="45.22434" lon="5.73972">
        <ele>939.59997558594</ele>
        <time>2021-07-17T07:01:52.000Z</time>
      </trkpt>
      <trkpt lat="45.22432" lon="5.7397">
        <ele>940</ele>
        <time>2021-07-17T07:01:54.000Z</time>
      </trkpt>
      <trkpt lat="45.22429" lon="5.73968">
        <ele>940.79998779297</ele>
        <time>2021-07-17T07:01:56.000Z</time>
      </trkpt>
      <trkpt lat="45.22425" lon="5.73962">
        <ele>941.40002441406</ele>
        <time>2021-07-17T07:02:01.000Z</time>
      </trkpt>
      <trkpt lat="45.22424" lon="5.73961">
        <ele>942.40002441406</ele>
        <time>2021-07-17T07:02:02.000Z</time>
      </trkpt>
      <trkpt lat="45.22422" lon="5.7396">
        <ele>942.40002441406</ele>
        <time>2021-07-17T07:02:03.000Z</time>
      </trkpt>
      <trkpt lat="45.22416" lon="5.73955">
        <ele>942.79998779297</ele>
        <time>2021-07-17T07:02:08.000Z</time>
      </trkpt>
      <trkpt lat="45.22414" lon="5.73954">
        <ele>943</ele>
        <time>2021-07-17T07:02:10.000Z</time>
      </trkpt>
      <trkpt lat="45.22404" lon="5.73941">
        <ele>943.59997558594</ele>
        <time>2021-07-17T07:02:19.000Z</time>
      </trkpt>
      <trkpt lat="45.22403" lon="5.73939">
        <ele>943.59997558594</ele>
        <time>2021-07-17T07:02:20.000Z</time>
      </trkpt>
      <trkpt lat="45.22399" lon="5.73936">
        <ele>944.59997558594</ele>
        <time>2021-07-17T07:02:23.000Z</time>
      </trkpt>
      <trkpt lat="45.22396" lon="5.73933">
        <ele>945</ele>
        <time>2021-07-17T07:02:25.000Z</time>
      </trkpt>
      <trkpt lat="45.2239" lon="5.73929">
        <ele>945.79998779297</ele>
        <time>2021-07-17T07:02:28.000Z</time>
      </trkpt>
      <trkpt lat="45.22389" lon="5.73928">
        <ele>945.79998779297</ele>
        <time>2021-07-17T07:02:29.000Z</time>
      </trkpt>
      <trkpt lat="45.22389" lon="5.73924">
        <ele>946</ele>
        <time>2021-07-17T07:02:31.000Z</time>
      </trkpt>
      <trkpt lat="45.22398" lon="5.73922">
        <ele>945.79998779297</ele>
        <time>2021-07-17T07:02:38.000Z</time>
      </trkpt>
      <trkpt lat="45.22404" lon="5.73925">
        <ele>944.40002441406</ele>
        <time>2021-07-17T07:02:42.000Z</time>
      </trkpt>
      <trkpt lat="45.22407" lon="5.73927">
        <ele>944</ele>
        <time>2021-07-17T07:02:44.000Z</time>
      </trkpt>
      <trkpt lat="45.22413" lon="5.73935">
        <ele>943.40002441406</ele>
        <time>2021-07-17T07:02:49.000Z</time>
      </trkpt>
      <trkpt lat="45.22416" lon="5.73937">
        <ele>943.20001220703</ele>
        <time>2021-07-17T07:02:51.000Z</time>
      </trkpt>
      <trkpt lat="45.22428" lon="5.73946">
        <ele>942.20001220703</ele>
        <time>2021-07-17T07:02:58.000Z</time>
      </trkpt>
      <trkpt lat="45.22439" lon="5.73952">
        <ele>941.20001220703</ele>
        <time>2021-07-17T07:03:04.000Z</time>
      </trkpt>
      <trkpt lat="45.22444" lon="5.73953">
        <ele>940.20001220703</ele>
        <time>2021-07-17T07:03:09.000Z</time>
      </trkpt>
      <trkpt lat="45.22444" lon="5.73953">
        <ele>940.59997558594</ele>
        <time>2021-07-17T07:03:10.000Z</time>
      </trkpt>
      <trkpt lat="45.22445" lon="5.7395">
        <ele>941</ele>
        <time>2021-07-17T07:03:13.000Z</time>
      </trkpt>
      <trkpt lat="45.22446" lon="5.73947">
        <ele>941.40002441406</ele>
        <time>2021-07-17T07:03:16.000Z</time>
      </trkpt>
      <trkpt lat="45.22446" lon="5.73946">
        <ele>942.20001220703</ele>
        <time>2021-07-17T07:03:17.000Z</time>
      </trkpt>
      <trkpt lat="45.22447" lon="5.73946">
        <ele>942.59997558594</ele>
        <time>2021-07-17T07:03:19.000Z</time>
      </trkpt>
      <trkpt lat="45.22447" lon="5.73945">
        <ele>943.20001220703</ele>
        <time>2021-07-17T07:03:20.000Z</time>
      </trkpt>
      <trkpt lat="45.22447" lon="5.73944">
        <ele>943.40002441406</ele>
        <time>2021-07-17T07:03:21.000Z</time>
      </trkpt>
      <trkpt lat="45.22447" lon="5.73941">
        <ele>944</ele>
        <time>2021-07-17T07:03:24.000Z</time>
      </trkpt>
      <trkpt lat="45.22447" lon="5.7394">
        <ele>944.59997558594</ele>
        <time>2021-07-17T07:03:25.000Z</time>
      </trkpt>
      <trkpt lat="45.22446" lon="5.7394">
        <ele>944.79998779297</ele>
        <time>2021-07-17T07:03:26.000Z</time>
      </trkpt>
      <trkpt lat="45.22446" lon="5.73939">
        <ele>945</ele>
        <time>2021-07-17T07:03:27.000Z</time>
      </trkpt>
      <trkpt lat="45.22446" lon="5.73935">
        <ele>945.79998779297</ele>
        <time>2021-07-17T07:03:30.000Z</time>
      </trkpt>
      <trkpt lat="45.22446" lon="5.73931">
        <ele>947.20001220703</ele>
        <time>2021-07-17T07:03:33.000Z</time>
      </trkpt>
      <trkpt lat="45.22446" lon="5.73931">
        <ele>947.40002441406</ele>
        <time>2021-07-17T07:03:34.000Z</time>
      </trkpt>
      <trkpt lat="45.22446" lon="5.73925">
        <ele>948.40002441406</ele>
        <time>2021-07-17T07:03:39.000Z</time>
      </trkpt>
      <trkpt lat="45.22446" lon="5.73924">
        <ele>949.20001220703</ele>
        <time>2021-07-17T07:03:41.000Z</time>
      </trkpt>
      <trkpt lat="45.22446" lon="5.73923">
        <ele>949.59997558594</ele>
        <time>2021-07-17T07:03:42.000Z</time>
      </trkpt>
      <trkpt lat="45.22446" lon="5.73922">
        <ele>950.40002441406</ele>
        <time>2021-07-17T07:03:43.000Z</time>
      </trkpt>
      <trkpt lat="45.22445" lon="5.73919">
        <ele>950.59997558594</ele>
        <time>2021-07-17T07:03:45.000Z</time>
      </trkpt>
      <trkpt lat="45.22445" lon="5.73918">
        <ele>951.20001220703</ele>
        <time>2021-07-17T07:03:46.000Z</time>
      </trkpt>
      <trkpt lat="45.22444" lon="5.73918">
        <ele>952.40002441406</ele>
        <time>2021-07-17T07:03:47.000Z</time>
      </trkpt>
      <trkpt lat="45.22441" lon="5.73916">
        <ele>953.40002441406</ele>
        <time>2021-07-17T07:03:53.000Z</time>
      </trkpt>
      <trkpt lat="45.2244" lon="5.73916">
        <ele>954</ele>
        <time>2021-07-17T07:03:54.000Z</time>
      </trkpt>
      <trkpt lat="45.2244" lon="5.73915">
        <ele>954.20001220703</ele>
        <time>2021-07-17T07:03:55.000Z</time>
      </trkpt>
      <trkpt lat="45.22438" lon="5.73913">
        <ele>954.59997558594</ele>
        <time>2021-07-17T07:03:58.000Z</time>
      </trkpt>
      <trkpt lat="45.22437" lon="5.7391">
        <ele>955.20001220703</ele>
        <time>2021-07-17T07:04:01.000Z</time>
      </trkpt>
      <trkpt lat="45.22436" lon="5.73908">
        <ele>956.59997558594</ele>
        <time>2021-07-17T07:04:04.000Z</time>
      </trkpt>
      <trkpt lat="45.22435" lon="5.73908">
        <ele>956.79998779297</ele>
        <time>2021-07-17T07:04:05.000Z</time>
      </trkpt>
      <trkpt lat="45.22435" lon="5.73906">
        <ele>957.20001220703</ele>
        <time>2021-07-17T07:04:07.000Z</time>
      </trkpt>
      <trkpt lat="45.22435" lon="5.73905">
        <ele>957.40002441406</ele>
        <time>2021-07-17T07:04:08.000Z</time>
      </trkpt>
      <trkpt lat="45.22434" lon="5.73904">
        <ele>957.40002441406</ele>
        <time>2021-07-17T07:04:09.000Z</time>
      </trkpt>
      <trkpt lat="45.22434" lon="5.73903">
        <ele>957.59997558594</ele>
        <time>2021-07-17T07:04:10.000Z</time>
      </trkpt>
      <trkpt lat="45.22433" lon="5.73901">
        <ele>959</ele>
        <time>2021-07-17T07:04:13.000Z</time>
      </trkpt>
      <trkpt lat="45.22433" lon="5.739">
        <ele>959.59997558594</ele>
        <time>2021-07-17T07:04:15.000Z</time>
      </trkpt>
      <trkpt lat="45.22433" lon="5.73897">
        <ele>960</ele>
        <time>2021-07-17T07:04:18.000Z</time>
      </trkpt>
      <trkpt lat="45.22433" lon="5.73895">
        <ele>960.20001220703</ele>
        <time>2021-07-17T07:04:20.000Z</time>
      </trkpt>
      <trkpt lat="45.22433" lon="5.73893">
        <ele>960.59997558594</ele>
        <time>2021-07-17T07:04:21.000Z</time>
      </trkpt>
      <trkpt lat="45.22433" lon="5.73892">
        <ele>960.59997558594</ele>
        <time>2021-07-17T07:04:22.000Z</time>
      </trkpt>
      <trkpt lat="45.22433" lon="5.73891">
        <ele>961.20001220703</ele>
        <time>2021-07-17T07:04:23.000Z</time>
      </trkpt>
      <trkpt lat="45.22432" lon="5.73887">
        <ele>962.59997558594</ele>
        <time>2021-07-17T07:04:27.000Z</time>
      </trkpt>
      <trkpt lat="45.22432" lon="5.73886">
        <ele>963.59997558594</ele>
        <time>2021-07-17T07:04:30.000Z</time>
      </trkpt>
      <trkpt lat="45.22431" lon="5.73879">
        <ele>965.20001220703</ele>
        <time>2021-07-17T07:04:36.000Z</time>
      </trkpt>
      <trkpt lat="45.22431" lon="5.73878">
        <ele>966.20001220703</ele>
        <time>2021-07-17T07:04:39.000Z</time>
      </trkpt>
      <trkpt lat="45.22431" lon="5.73876">
        <ele>966.40002441406</ele>
        <time>2021-07-17T07:04:40.000Z</time>
      </trkpt>
      <trkpt lat="45.22431" lon="5.73875">
        <ele>966.59997558594</ele>
        <time>2021-07-17T07:04:41.000Z</time>
      </trkpt>
      <trkpt lat="45.22431" lon="5.73873">
        <ele>967.40002441406</ele>
        <time>2021-07-17T07:04:44.000Z</time>
      </trkpt>
      <trkpt lat="45.22431" lon="5.73873">
        <ele>968.59997558594</ele>
        <time>2021-07-17T07:04:45.000Z</time>
      </trkpt>
      <trkpt lat="45.22431" lon="5.7387">
        <ele>969</ele>
        <time>2021-07-17T07:04:47.000Z</time>
      </trkpt>
      <trkpt lat="45.22429" lon="5.73868">
        <ele>969.79998779297</ele>
        <time>2021-07-17T07:04:52.000Z</time>
      </trkpt>
      <trkpt lat="45.22429" lon="5.73866">
        <ele>970</ele>
        <time>2021-07-17T07:04:54.000Z</time>
      </trkpt>
      <trkpt lat="45.22429" lon="5.73863">
        <ele>971.20001220703</ele>
        <time>2021-07-17T07:04:57.000Z</time>
      </trkpt>
      <trkpt lat="45.2243" lon="5.7386">
        <ele>972.20001220703</ele>
        <time>2021-07-17T07:05:01.000Z</time>
      </trkpt>
      <trkpt lat="45.2243" lon="5.7386">
        <ele>972.20001220703</ele>
        <time>2021-07-17T07:05:02.000Z</time>
      </trkpt>
      <trkpt lat="45.22429" lon="5.73859">
        <ele>973.40002441406</ele>
        <time>2021-07-17T07:05:05.000Z</time>
      </trkpt>
      <trkpt lat="45.22428" lon="5.73858">
        <ele>973.79998779297</ele>
        <time>2021-07-17T07:05:07.000Z</time>
      </trkpt>
      <trkpt lat="45.22427" lon="5.73857">
        <ele>974.40002441406</ele>
        <time>2021-07-17T07:05:10.000Z</time>
      </trkpt>
      <trkpt lat="45.22427" lon="5.73853">
        <ele>974.59997558594</ele>
        <time>2021-07-17T07:05:13.000Z</time>
      </trkpt>
      <trkpt lat="45.22426" lon="5.7385">
        <ele>976</ele>
        <time>2021-07-17T07:05:15.000Z</time>
      </trkpt>
      <trkpt lat="45.22425" lon="5.73845">
        <ele>977</ele>
        <time>2021-07-17T07:05:19.000Z</time>
      </trkpt>
      <trkpt lat="45.22425" lon="5.73845">
        <ele>977.40002441406</ele>
        <time>2021-07-17T07:05:20.000Z</time>
      </trkpt>
      <trkpt lat="45.22424" lon="5.73843">
        <ele>978.20001220703</ele>
        <time>2021-07-17T07:05:23.000Z</time>
      </trkpt>
      <trkpt lat="45.22422" lon="5.7384">
        <ele>978.59997558594</ele>
        <time>2021-07-17T07:05:27.000Z</time>
      </trkpt>
      <trkpt lat="45.22422" lon="5.73839">
        <ele>979.79998779297</ele>
        <time>2021-07-17T07:05:28.000Z</time>
      </trkpt>
      <trkpt lat="45.22421" lon="5.73839">
        <ele>980.59997558594</ele>
        <time>2021-07-17T07:05:32.000Z</time>
      </trkpt>
      <trkpt lat="45.2242" lon="5.73839">
        <ele>980.79998779297</ele>
        <time>2021-07-17T07:05:33.000Z</time>
      </trkpt>
      <trkpt lat="45.22419" lon="5.73838">
        <ele>981</ele>
        <time>2021-07-17T07:05:34.000Z</time>
      </trkpt>
      <trkpt lat="45.22416" lon="5.73838">
        <ele>981.59997558594</ele>
        <time>2021-07-17T07:05:37.000Z</time>
      </trkpt>
      <trkpt lat="45.22415" lon="5.73838">
        <ele>982</ele>
        <time>2021-07-17T07:05:38.000Z</time>
      </trkpt>
      <trkpt lat="45.22414" lon="5.73837">
        <ele>982</ele>
        <time>2021-07-17T07:05:39.000Z</time>
      </trkpt>
      <trkpt lat="45.22409" lon="5.73835">
        <ele>983</ele>
        <time>2021-07-17T07:05:44.000Z</time>
      </trkpt>
      <trkpt lat="45.22405" lon="5.73832">
        <ele>983.20001220703</ele>
        <time>2021-07-17T07:05:47.000Z</time>
      </trkpt>
      <trkpt lat="45.22403" lon="5.73829">
        <ele>984</ele>
        <time>2021-07-17T07:05:50.000Z</time>
      </trkpt>
      <trkpt lat="45.22402" lon="5.73821">
        <ele>985.20001220703</ele>
        <time>2021-07-17T07:05:55.000Z</time>
      </trkpt>
      <trkpt lat="45.22396" lon="5.73813">
        <ele>985.59997558594</ele>
        <time>2021-07-17T07:06:00.000Z</time>
      </trkpt>
      <trkpt lat="45.22392" lon="5.73813">
        <ele>985.59997558594</ele>
        <time>2021-07-17T07:06:02.000Z</time>
      </trkpt>
      <trkpt lat="45.22381" lon="5.73809">
        <ele>986</ele>
        <time>2021-07-17T07:06:09.000Z</time>
      </trkpt>
      <trkpt lat="45.2237" lon="5.73803">
        <ele>986</ele>
        <time>2021-07-17T07:06:15.000Z</time>
      </trkpt>
      <trkpt lat="45.22364" lon="5.73792">
        <ele>986.40002441406</ele>
        <time>2021-07-17T07:06:20.000Z</time>
      </trkpt>
      <trkpt lat="45.22362" lon="5.73788">
        <ele>986.20001220703</ele>
        <time>2021-07-17T07:06:22.000Z</time>
      </trkpt>
      <trkpt lat="45.22359" lon="5.73779">
        <ele>986.40002441406</ele>
        <time>2021-07-17T07:06:25.000Z</time>
      </trkpt>
      <trkpt lat="45.22359" lon="5.7377">
        <ele>986.40002441406</ele>
        <time>2021-07-17T07:06:28.000Z</time>
      </trkpt>
      <trkpt lat="45.22361" lon="5.73753">
        <ele>986</ele>
        <time>2021-07-17T07:06:34.000Z</time>
      </trkpt>
      <trkpt lat="45.22362" lon="5.73746">
        <ele>985.59997558594</ele>
        <time>2021-07-17T07:06:38.000Z</time>
      </trkpt>
      <trkpt lat="45.22362" lon="5.73744">
        <ele>985.20001220703</ele>
        <time>2021-07-17T07:06:39.000Z</time>
      </trkpt>
      <trkpt lat="45.22361" lon="5.73738">
        <ele>984.79998779297</ele>
        <time>2021-07-17T07:06:41.000Z</time>
      </trkpt>
      <trkpt lat="45.22361" lon="5.7373">
        <ele>984.40002441406</ele>
        <time>2021-07-17T07:06:45.000Z</time>
      </trkpt>
      <trkpt lat="45.22361" lon="5.73724">
        <ele>984</ele>
        <time>2021-07-17T07:06:47.000Z</time>
      </trkpt>
      <trkpt lat="45.22361" lon="5.73721">
        <ele>984</ele>
        <time>2021-07-17T07:06:48.000Z</time>
      </trkpt>
      <trkpt lat="45.22358" lon="5.73711">
        <ele>984.59997558594</ele>
        <time>2021-07-17T07:06:52.000Z</time>
      </trkpt>
      <trkpt lat="45.22361" lon="5.737">
        <ele>985</ele>
        <time>2021-07-17T07:06:56.000Z</time>
      </trkpt>
      <trkpt lat="45.22363" lon="5.73699">
        <ele>985.20001220703</ele>
        <time>2021-07-17T07:06:57.000Z</time>
      </trkpt>
      <trkpt lat="45.22364" lon="5.73698">
        <ele>985</ele>
        <time>2021-07-17T07:06:58.000Z</time>
      </trkpt>
      <trkpt lat="45.22366" lon="5.73696">
        <ele>985</ele>
        <time>2021-07-17T07:07:01.000Z</time>
      </trkpt>
      <trkpt lat="45.22366" lon="5.73695">
        <ele>985</ele>
        <time>2021-07-17T07:07:02.000Z</time>
      </trkpt>
      <trkpt lat="45.22366" lon="5.73694">
        <ele>985</ele>
        <time>2021-07-17T07:07:04.000Z</time>
      </trkpt>
      <trkpt lat="45.22366" lon="5.73694">
        <ele>985</ele>
        <time>2021-07-17T07:07:05.000Z</time>
      </trkpt>
      <trkpt lat="45.22366" lon="5.73693">
        <ele>985</ele>
        <time>2021-07-17T07:07:06.000Z</time>
      </trkpt>
      <trkpt lat="45.22363" lon="5.73688">
        <ele>985</ele>
        <time>2021-07-17T07:07:13.000Z</time>
      </trkpt>
      <trkpt lat="45.22362" lon="5.73687">
        <ele>985</ele>
        <time>2021-07-17T07:07:14.000Z</time>
      </trkpt>
      <trkpt lat="45.22361" lon="5.73687">
        <ele>984.79998779297</ele>
        <time>2021-07-17T07:07:16.000Z</time>
      </trkpt>
      <trkpt lat="45.22361" lon="5.73688">
        <ele>985</ele>
        <time>2021-07-17T07:07:21.000Z</time>
      </trkpt>
      <trkpt lat="45.22362" lon="5.73689">
        <ele>985</ele>
        <time>2021-07-17T07:07:23.000Z</time>
      </trkpt>
      <trkpt lat="45.22362" lon="5.73689">
        <ele>985.20001220703</ele>
        <time>2021-07-17T07:07:29.000Z</time>
      </trkpt>
      <trkpt lat="45.22362" lon="5.73689">
        <ele>985.20001220703</ele>
        <time>2021-07-17T07:07:36.000Z</time>
      </trkpt>
      <trkpt lat="45.22362" lon="5.73688">
        <ele>985</ele>
        <time>2021-07-17T07:07:48.000Z</time>
      </trkpt>
      <trkpt lat="45.22363" lon="5.73688">
        <ele>984.59997558594</ele>
        <time>2021-07-17T07:08:00.000Z</time>
      </trkpt>
      <trkpt lat="45.22369" lon="5.73684">
        <ele>985.20001220703</ele>
        <time>2021-07-17T07:08:16.000Z</time>
      </trkpt>
      <trkpt lat="45.22373" lon="5.73676">
        <ele>985.20001220703</ele>
        <time>2021-07-17T07:08:22.000Z</time>
      </trkpt>
      <trkpt lat="45.22374" lon="5.73668">
        <ele>985.20001220703</ele>
        <time>2021-07-17T07:08:31.000Z</time>
      </trkpt>
      <trkpt lat="45.22375" lon="5.73667">
        <ele>985.20001220703</ele>
        <time>2021-07-17T07:08:32.000Z</time>
      </trkpt>
      <trkpt lat="45.22376" lon="5.73666">
        <ele>985.20001220703</ele>
        <time>2021-07-17T07:08:33.000Z</time>
      </trkpt>
      <trkpt lat="45.22376" lon="5.73664">
        <ele>985.20001220703</ele>
        <time>2021-07-17T07:08:34.000Z</time>
      </trkpt>
      <trkpt lat="45.22377" lon="5.73661">
        <ele>985.20001220703</ele>
        <time>2021-07-17T07:08:36.000Z</time>
      </trkpt>
      <trkpt lat="45.22378" lon="5.73655">
        <ele>985.20001220703</ele>
        <time>2021-07-17T07:08:40.000Z</time>
      </trkpt>
      <trkpt lat="45.22377" lon="5.73652">
        <ele>985.20001220703</ele>
        <time>2021-07-17T07:08:42.000Z</time>
      </trkpt>
      <trkpt lat="45.22377" lon="5.73644">
        <ele>985.20001220703</ele>
        <time>2021-07-17T07:08:46.000Z</time>
      </trkpt>
      <trkpt lat="45.22378" lon="5.73634">
        <ele>984</ele>
        <time>2021-07-17T07:08:50.000Z</time>
      </trkpt>
      <trkpt lat="45.22378" lon="5.73632">
        <ele>983.20001220703</ele>
        <time>2021-07-17T07:08:51.000Z</time>
      </trkpt>
      <trkpt lat="45.22377" lon="5.73631">
        <ele>982.79998779297</ele>
        <time>2021-07-17T07:08:52.000Z</time>
      </trkpt>
      <trkpt lat="45.22376" lon="5.7363">
        <ele>982.20001220703</ele>
        <time>2021-07-17T07:08:53.000Z</time>
      </trkpt>
      <trkpt lat="45.22376" lon="5.73629">
        <ele>982</ele>
        <time>2021-07-17T07:08:54.000Z</time>
      </trkpt>
      <trkpt lat="45.22375" lon="5.73627">
        <ele>981.40002441406</ele>
        <time>2021-07-17T07:08:55.000Z</time>
      </trkpt>
      <trkpt lat="45.22375" lon="5.73624">
        <ele>981.20001220703</ele>
        <time>2021-07-17T07:08:57.000Z</time>
      </trkpt>
      <trkpt lat="45.22375" lon="5.7362">
        <ele>980.59997558594</ele>
        <time>2021-07-17T07:08:59.000Z</time>
      </trkpt>
      <trkpt lat="45.22376" lon="5.73618">
        <ele>980.40002441406</ele>
        <time>2021-07-17T07:09:00.000Z</time>
      </trkpt>
      <trkpt lat="45.22376" lon="5.73616">
        <ele>979.79998779297</ele>
        <time>2021-07-17T07:09:01.000Z</time>
      </trkpt>
      <trkpt lat="45.22376" lon="5.73614">
        <ele>978.59997558594</ele>
        <time>2021-07-17T07:09:03.000Z</time>
      </trkpt>
      <trkpt lat="45.22375" lon="5.73612">
        <ele>977.59997558594</ele>
        <time>2021-07-17T07:09:05.000Z</time>
      </trkpt>
      <trkpt lat="45.22375" lon="5.73608">
        <ele>977.20001220703</ele>
        <time>2021-07-17T07:09:07.000Z</time>
      </trkpt>
      <trkpt lat="45.22374" lon="5.73606">
        <ele>977</ele>
        <time>2021-07-17T07:09:09.000Z</time>
      </trkpt>
      <trkpt lat="45.22374" lon="5.73604">
        <ele>976.79998779297</ele>
        <time>2021-07-17T07:09:10.000Z</time>
      </trkpt>
      <trkpt lat="45.22374" lon="5.73603">
        <ele>976.20001220703</ele>
        <time>2021-07-17T07:09:11.000Z</time>
      </trkpt>
      <trkpt lat="45.22374" lon="5.73601">
        <ele>976</ele>
        <time>2021-07-17T07:09:12.000Z</time>
      </trkpt>
      <trkpt lat="45.22375" lon="5.73597">
        <ele>974.79998779297</ele>
        <time>2021-07-17T07:09:16.000Z</time>
      </trkpt>
      <trkpt lat="45.22375" lon="5.73596">
        <ele>974.59997558594</ele>
        <time>2021-07-17T07:09:17.000Z</time>
      </trkpt>
      <trkpt lat="45.22375" lon="5.73593">
        <ele>973.59997558594</ele>
        <time>2021-07-17T07:09:19.000Z</time>
      </trkpt>
      <trkpt lat="45.22375" lon="5.7359">
        <ele>972.40002441406</ele>
        <time>2021-07-17T07:09:21.000Z</time>
      </trkpt>
      <trkpt lat="45.22375" lon="5.73588">
        <ele>972.40002441406</ele>
        <time>2021-07-17T07:09:22.000Z</time>
      </trkpt>
      <trkpt lat="45.22375" lon="5.73587">
        <ele>971.40002441406</ele>
        <time>2021-07-17T07:09:23.000Z</time>
      </trkpt>
      <trkpt lat="45.22376" lon="5.73586">
        <ele>971.40002441406</ele>
        <time>2021-07-17T07:09:24.000Z</time>
      </trkpt>
      <trkpt lat="45.22376" lon="5.73585">
        <ele>971.20001220703</ele>
        <time>2021-07-17T07:09:25.000Z</time>
      </trkpt>
      <trkpt lat="45.22376" lon="5.73582">
        <ele>970.59997558594</ele>
        <time>2021-07-17T07:09:27.000Z</time>
      </trkpt>
      <trkpt lat="45.22376" lon="5.73581">
        <ele>970.40002441406</ele>
        <time>2021-07-17T07:09:28.000Z</time>
      </trkpt>
      <trkpt lat="45.22376" lon="5.73579">
        <ele>969.79998779297</ele>
        <time>2021-07-17T07:09:29.000Z</time>
      </trkpt>
      <trkpt lat="45.22376" lon="5.73578">
        <ele>969.59997558594</ele>
        <time>2021-07-17T07:09:30.000Z</time>
      </trkpt>
      <trkpt lat="45.22376" lon="5.73577">
        <ele>969.40002441406</ele>
        <time>2021-07-17T07:09:31.000Z</time>
      </trkpt>
      <trkpt lat="45.22375" lon="5.73573">
        <ele>968.40002441406</ele>
        <time>2021-07-17T07:09:33.000Z</time>
      </trkpt>
      <trkpt lat="45.22374" lon="5.73571">
        <ele>967.20001220703</ele>
        <time>2021-07-17T07:09:35.000Z</time>
      </trkpt>
      <trkpt lat="45.22374" lon="5.73569">
        <ele>966.79998779297</ele>
        <time>2021-07-17T07:09:36.000Z</time>
      </trkpt>
      <trkpt lat="45.22374" lon="5.73567">
        <ele>966.40002441406</ele>
        <time>2021-07-17T07:09:37.000Z</time>
      </trkpt>
      <trkpt lat="45.22374" lon="5.73566">
        <ele>965.79998779297</ele>
        <time>2021-07-17T07:09:38.000Z</time>
      </trkpt>
      <trkpt lat="45.22375" lon="5.73561">
        <ele>964.40002441406</ele>
        <time>2021-07-17T07:09:41.000Z</time>
      </trkpt>
      <trkpt lat="45.22375" lon="5.73559">
        <ele>963.40002441406</ele>
        <time>2021-07-17T07:09:42.000Z</time>
      </trkpt>
      <trkpt lat="45.22376" lon="5.73558">
        <ele>963.20001220703</ele>
        <time>2021-07-17T07:09:43.000Z</time>
      </trkpt>
      <trkpt lat="45.22377" lon="5.73551">
        <ele>962.40002441406</ele>
        <time>2021-07-17T07:09:46.000Z</time>
      </trkpt>
      <trkpt lat="45.22377" lon="5.73549">
        <ele>962</ele>
        <time>2021-07-17T07:09:47.000Z</time>
      </trkpt>
      <trkpt lat="45.22377" lon="5.73547">
        <ele>960.20001220703</ele>
        <time>2021-07-17T07:09:49.000Z</time>
      </trkpt>
      <trkpt lat="45.2238" lon="5.73543">
        <ele>959</ele>
        <time>2021-07-17T07:09:52.000Z</time>
      </trkpt>
      <trkpt lat="45.22383" lon="5.73535">
        <ele>958.59997558594</ele>
        <time>2021-07-17T07:09:56.000Z</time>
      </trkpt>
      <trkpt lat="45.22383" lon="5.73533">
        <ele>957.40002441406</ele>
        <time>2021-07-17T07:09:57.000Z</time>
      </trkpt>
      <trkpt lat="45.22385" lon="5.73528">
        <ele>956.40002441406</ele>
        <time>2021-07-17T07:10:00.000Z</time>
      </trkpt>
      <trkpt lat="45.22386" lon="5.73527">
        <ele>956</ele>
        <time>2021-07-17T07:10:01.000Z</time>
      </trkpt>
      <trkpt lat="45.22391" lon="5.73521">
        <ele>955.20001220703</ele>
        <time>2021-07-17T07:10:04.000Z</time>
      </trkpt>
      <trkpt lat="45.22393" lon="5.7352">
        <ele>954.40002441406</ele>
        <time>2021-07-17T07:10:05.000Z</time>
      </trkpt>
      <trkpt lat="45.22394" lon="5.7352">
        <ele>953.20001220703</ele>
        <time>2021-07-17T07:10:06.000Z</time>
      </trkpt>
      <trkpt lat="45.22396" lon="5.73518">
        <ele>953.20001220703</ele>
        <time>2021-07-17T07:10:07.000Z</time>
      </trkpt>
      <trkpt lat="45.224" lon="5.73513">
        <ele>952.59997558594</ele>
        <time>2021-07-17T07:10:10.000Z</time>
      </trkpt>
      <trkpt lat="45.22401" lon="5.73512">
        <ele>951.59997558594</ele>
        <time>2021-07-17T07:10:11.000Z</time>
      </trkpt>
      <trkpt lat="45.22403" lon="5.73508">
        <ele>950.40002441406</ele>
        <time>2021-07-17T07:10:14.000Z</time>
      </trkpt>
      <trkpt lat="45.22405" lon="5.73507">
        <ele>950.20001220703</ele>
        <time>2021-07-17T07:10:15.000Z</time>
      </trkpt>
      <trkpt lat="45.22407" lon="5.73506">
        <ele>950.20001220703</ele>
        <time>2021-07-17T07:10:16.000Z</time>
      </trkpt>
      <trkpt lat="45.22411" lon="5.73503">
        <ele>949</ele>
        <time>2021-07-17T07:10:19.000Z</time>
      </trkpt>
      <trkpt lat="45.22416" lon="5.73501">
        <ele>947.79998779297</ele>
        <time>2021-07-17T07:10:24.000Z</time>
      </trkpt>
      <trkpt lat="45.22417" lon="5.73501">
        <ele>946.40002441406</ele>
        <time>2021-07-17T07:10:25.000Z</time>
      </trkpt>
      <trkpt lat="45.22419" lon="5.735">
        <ele>946.20001220703</ele>
        <time>2021-07-17T07:10:27.000Z</time>
      </trkpt>
      <trkpt lat="45.22423" lon="5.73497">
        <ele>945.40002441406</ele>
        <time>2021-07-17T07:10:30.000Z</time>
      </trkpt>
      <trkpt lat="45.22424" lon="5.73496">
        <ele>945</ele>
        <time>2021-07-17T07:10:31.000Z</time>
      </trkpt>
      <trkpt lat="45.22426" lon="5.73495">
        <ele>944.40002441406</ele>
        <time>2021-07-17T07:10:32.000Z</time>
      </trkpt>
      <trkpt lat="45.22427" lon="5.73495">
        <ele>944.40002441406</ele>
        <time>2021-07-17T07:10:33.000Z</time>
      </trkpt>
      <trkpt lat="45.22432" lon="5.73488">
        <ele>943.40002441406</ele>
        <time>2021-07-17T07:10:37.000Z</time>
      </trkpt>
      <trkpt lat="45.22434" lon="5.73486">
        <ele>943.20001220703</ele>
        <time>2021-07-17T07:10:38.000Z</time>
      </trkpt>
      <trkpt lat="45.22438" lon="5.7348">
        <ele>942.20001220703</ele>
        <time>2021-07-17T07:10:41.000Z</time>
      </trkpt>
      <trkpt lat="45.22444" lon="5.73473">
        <ele>941</ele>
        <time>2021-07-17T07:10:44.000Z</time>
      </trkpt>
      <trkpt lat="45.22448" lon="5.73467">
        <ele>939.59997558594</ele>
        <time>2021-07-17T07:10:48.000Z</time>
      </trkpt>
      <trkpt lat="45.2245" lon="5.73464">
        <ele>939.20001220703</ele>
        <time>2021-07-17T07:10:50.000Z</time>
      </trkpt>
      <trkpt lat="45.22451" lon="5.73462">
        <ele>938.79998779297</ele>
        <time>2021-07-17T07:10:51.000Z</time>
      </trkpt>
      <trkpt lat="45.22453" lon="5.7346">
        <ele>938.79998779297</ele>
        <time>2021-07-17T07:10:53.000Z</time>
      </trkpt>
      <trkpt lat="45.22453" lon="5.73459">
        <ele>938.40002441406</ele>
        <time>2021-07-17T07:10:54.000Z</time>
      </trkpt>
      <trkpt lat="45.22454" lon="5.73458">
        <ele>938.20001220703</ele>
        <time>2021-07-17T07:10:55.000Z</time>
      </trkpt>
      <trkpt lat="45.22455" lon="5.73454">
        <ele>936.59997558594</ele>
        <time>2021-07-17T07:10:58.000Z</time>
      </trkpt>
      <trkpt lat="45.22455" lon="5.73453">
        <ele>936.59997558594</ele>
        <time>2021-07-17T07:10:59.000Z</time>
      </trkpt>
      <trkpt lat="45.22456" lon="5.73451">
        <ele>936.20001220703</ele>
        <time>2021-07-17T07:11:01.000Z</time>
      </trkpt>
      <trkpt lat="45.22456" lon="5.7345">
        <ele>934.20001220703</ele>
        <time>2021-07-17T07:11:02.000Z</time>
      </trkpt>
      <trkpt lat="45.22456" lon="5.73449">
        <ele>934</ele>
        <time>2021-07-17T07:11:03.000Z</time>
      </trkpt>
      <trkpt lat="45.22458" lon="5.73445">
        <ele>933</ele>
        <time>2021-07-17T07:11:06.000Z</time>
      </trkpt>
      <trkpt lat="45.22461" lon="5.73442">
        <ele>932.79998779297</ele>
        <time>2021-07-17T07:11:08.000Z</time>
      </trkpt>
      <trkpt lat="45.22463" lon="5.73439">
        <ele>932</ele>
        <time>2021-07-17T07:11:10.000Z</time>
      </trkpt>
      <trkpt lat="45.22465" lon="5.73436">
        <ele>931.20001220703</ele>
        <time>2021-07-17T07:11:12.000Z</time>
      </trkpt>
      <trkpt lat="45.22466" lon="5.73434">
        <ele>931</ele>
        <time>2021-07-17T07:11:13.000Z</time>
      </trkpt>
      <trkpt lat="45.22467" lon="5.73433">
        <ele>929.79998779297</ele>
        <time>2021-07-17T07:11:14.000Z</time>
      </trkpt>
      <trkpt lat="45.22469" lon="5.73432">
        <ele>929.40002441406</ele>
        <time>2021-07-17T07:11:16.000Z</time>
      </trkpt>
      <trkpt lat="45.22471" lon="5.7343">
        <ele>928</ele>
        <time>2021-07-17T07:11:19.000Z</time>
      </trkpt>
      <trkpt lat="45.22472" lon="5.73429">
        <ele>927.79998779297</ele>
        <time>2021-07-17T07:11:21.000Z</time>
      </trkpt>
      <trkpt lat="45.22474" lon="5.73426">
        <ele>926.59997558594</ele>
        <time>2021-07-17T07:11:24.000Z</time>
      </trkpt>
      <trkpt lat="45.22475" lon="5.73426">
        <ele>926.40002441406</ele>
        <time>2021-07-17T07:11:25.000Z</time>
      </trkpt>
      <trkpt lat="45.22476" lon="5.73424">
        <ele>926.20001220703</ele>
        <time>2021-07-17T07:11:26.000Z</time>
      </trkpt>
      <trkpt lat="45.22477" lon="5.73424">
        <ele>925.20001220703</ele>
        <time>2021-07-17T07:11:27.000Z</time>
      </trkpt>
      <trkpt lat="45.22481" lon="5.73421">
        <ele>924</ele>
        <time>2021-07-17T07:11:32.000Z</time>
      </trkpt>
      <trkpt lat="45.22482" lon="5.7342">
        <ele>923.59997558594</ele>
        <time>2021-07-17T07:11:33.000Z</time>
      </trkpt>
      <trkpt lat="45.22483" lon="5.73419">
        <ele>922.59997558594</ele>
        <time>2021-07-17T07:11:34.000Z</time>
      </trkpt>
      <trkpt lat="45.22486" lon="5.73416">
        <ele>921.59997558594</ele>
        <time>2021-07-17T07:11:37.000Z</time>
      </trkpt>
      <trkpt lat="45.22487" lon="5.73415">
        <ele>921.40002441406</ele>
        <time>2021-07-17T07:11:38.000Z</time>
      </trkpt>
      <trkpt lat="45.22488" lon="5.73414">
        <ele>921.20001220703</ele>
        <time>2021-07-17T07:11:39.000Z</time>
      </trkpt>
      <trkpt lat="45.22491" lon="5.73413">
        <ele>920.40002441406</ele>
        <time>2021-07-17T07:11:42.000Z</time>
      </trkpt>
      <trkpt lat="45.22494" lon="5.7341">
        <ele>919.59997558594</ele>
        <time>2021-07-17T07:11:45.000Z</time>
      </trkpt>
      <trkpt lat="45.22495" lon="5.73409">
        <ele>918.59997558594</ele>
        <time>2021-07-17T07:11:46.000Z</time>
      </trkpt>
      <trkpt lat="45.22497" lon="5.73407">
        <ele>917.79998779297</ele>
        <time>2021-07-17T07:11:48.000Z</time>
      </trkpt>
      <trkpt lat="45.22498" lon="5.73406">
        <ele>917.20001220703</ele>
        <time>2021-07-17T07:11:49.000Z</time>
      </trkpt>
      <trkpt lat="45.225" lon="5.73405">
        <ele>916.59997558594</ele>
        <time>2021-07-17T07:11:51.000Z</time>
      </trkpt>
      <trkpt lat="45.22501" lon="5.73404">
        <ele>916</ele>
        <time>2021-07-17T07:11:52.000Z</time>
      </trkpt>
      <trkpt lat="45.22504" lon="5.73402">
        <ele>914.79998779297</ele>
        <time>2021-07-17T07:11:54.000Z</time>
      </trkpt>
      <trkpt lat="45.22509" lon="5.73398">
        <ele>914.40002441406</ele>
        <time>2021-07-17T07:11:58.000Z</time>
      </trkpt>
      <trkpt lat="45.22512" lon="5.73396">
        <ele>913.40002441406</ele>
        <time>2021-07-17T07:12:00.000Z</time>
      </trkpt>
      <trkpt lat="45.22513" lon="5.73397">
        <ele>912.40002441406</ele>
        <time>2021-07-17T07:12:01.000Z</time>
      </trkpt>
      <trkpt lat="45.22515" lon="5.73396">
        <ele>911.79998779297</ele>
        <time>2021-07-17T07:12:02.000Z</time>
      </trkpt>
      <trkpt lat="45.22516" lon="5.73396">
        <ele>911.79998779297</ele>
        <time>2021-07-17T07:12:03.000Z</time>
      </trkpt>
      <trkpt lat="45.22519" lon="5.73394">
        <ele>911.40002441406</ele>
        <time>2021-07-17T07:12:05.000Z</time>
      </trkpt>
      <trkpt lat="45.22527" lon="5.73393">
        <ele>910.20001220703</ele>
        <time>2021-07-17T07:12:09.000Z</time>
      </trkpt>
      <trkpt lat="45.22531" lon="5.73393">
        <ele>908.20001220703</ele>
        <time>2021-07-17T07:12:11.000Z</time>
      </trkpt>
      <trkpt lat="45.22533" lon="5.73392">
        <ele>907.79998779297</ele>
        <time>2021-07-17T07:12:13.000Z</time>
      </trkpt>
      <trkpt lat="45.22536" lon="5.73389">
        <ele>907.40002441406</ele>
        <time>2021-07-17T07:12:15.000Z</time>
      </trkpt>
      <trkpt lat="45.22537" lon="5.73387">
        <ele>906.79998779297</ele>
        <time>2021-07-17T07:12:16.000Z</time>
      </trkpt>
      <trkpt lat="45.22543" lon="5.73386">
        <ele>906.20001220703</ele>
        <time>2021-07-17T07:12:19.000Z</time>
      </trkpt>
      <trkpt lat="45.22545" lon="5.73385">
        <ele>905.79998779297</ele>
        <time>2021-07-17T07:12:20.000Z</time>
      </trkpt>
      <trkpt lat="45.22548" lon="5.73384">
        <ele>905.20001220703</ele>
        <time>2021-07-17T07:12:22.000Z</time>
      </trkpt>
      <trkpt lat="45.22551" lon="5.73384">
        <ele>904.40002441406</ele>
        <time>2021-07-17T07:12:24.000Z</time>
      </trkpt>
      <trkpt lat="45.22555" lon="5.73383">
        <ele>903.40002441406</ele>
        <time>2021-07-17T07:12:27.000Z</time>
      </trkpt>
      <trkpt lat="45.22556" lon="5.73382">
        <ele>902.79998779297</ele>
        <time>2021-07-17T07:12:28.000Z</time>
      </trkpt>
      <trkpt lat="45.22558" lon="5.73381">
        <ele>902</ele>
        <time>2021-07-17T07:12:30.000Z</time>
      </trkpt>
      <trkpt lat="45.22565" lon="5.7338">
        <ele>901.20001220703</ele>
        <time>2021-07-17T07:12:33.000Z</time>
      </trkpt>
      <trkpt lat="45.22566" lon="5.7338">
        <ele>900.79998779297</ele>
        <time>2021-07-17T07:12:34.000Z</time>
      </trkpt>
      <trkpt lat="45.22568" lon="5.73379">
        <ele>900.79998779297</ele>
        <time>2021-07-17T07:12:35.000Z</time>
      </trkpt>
      <trkpt lat="45.22572" lon="5.73375">
        <ele>899.79998779297</ele>
        <time>2021-07-17T07:12:39.000Z</time>
      </trkpt>
      <trkpt lat="45.22576" lon="5.73374">
        <ele>898.40002441406</ele>
        <time>2021-07-17T07:12:41.000Z</time>
      </trkpt>
      <trkpt lat="45.2258" lon="5.73374">
        <ele>898</ele>
        <time>2021-07-17T07:12:43.000Z</time>
      </trkpt>
      <trkpt lat="45.22586" lon="5.73373">
        <ele>896.79998779297</ele>
        <time>2021-07-17T07:12:47.000Z</time>
      </trkpt>
      <trkpt lat="45.22587" lon="5.73372">
        <ele>896.79998779297</ele>
        <time>2021-07-17T07:12:48.000Z</time>
      </trkpt>
      <trkpt lat="45.22592" lon="5.73372">
        <ele>895.59997558594</ele>
        <time>2021-07-17T07:12:51.000Z</time>
      </trkpt>
      <trkpt lat="45.22598" lon="5.73369">
        <ele>895</ele>
        <time>2021-07-17T07:12:54.000Z</time>
      </trkpt>
      <trkpt lat="45.22599" lon="5.73369">
        <ele>894.40002441406</ele>
        <time>2021-07-17T07:12:55.000Z</time>
      </trkpt>
      <trkpt lat="45.22604" lon="5.73367">
        <ele>893.20001220703</ele>
        <time>2021-07-17T07:12:58.000Z</time>
      </trkpt>
      <trkpt lat="45.22606" lon="5.73366">
        <ele>892.59997558594</ele>
        <time>2021-07-17T07:13:00.000Z</time>
      </trkpt>
      <trkpt lat="45.22611" lon="5.73363">
        <ele>892.20001220703</ele>
        <time>2021-07-17T07:13:03.000Z</time>
      </trkpt>
      <trkpt lat="45.22614" lon="5.73363">
        <ele>891.79998779297</ele>
        <time>2021-07-17T07:13:04.000Z</time>
      </trkpt>
      <trkpt lat="45.22617" lon="5.73361">
        <ele>890.59997558594</ele>
        <time>2021-07-17T07:13:06.000Z</time>
      </trkpt>
      <trkpt lat="45.22618" lon="5.73359">
        <ele>890.40002441406</ele>
        <time>2021-07-17T07:13:07.000Z</time>
      </trkpt>
      <trkpt lat="45.2262" lon="5.73357">
        <ele>889.79998779297</ele>
        <time>2021-07-17T07:13:08.000Z</time>
      </trkpt>
      <trkpt lat="45.22622" lon="5.73357">
        <ele>889.20001220703</ele>
        <time>2021-07-17T07:13:09.000Z</time>
      </trkpt>
      <trkpt lat="45.22626" lon="5.73357">
        <ele>888</ele>
        <time>2021-07-17T07:13:11.000Z</time>
      </trkpt>
      <trkpt lat="45.22629" lon="5.73357">
        <ele>887.79998779297</ele>
        <time>2021-07-17T07:13:12.000Z</time>
      </trkpt>
      <trkpt lat="45.22632" lon="5.73359">
        <ele>887.20001220703</ele>
        <time>2021-07-17T07:13:15.000Z</time>
      </trkpt>
      <trkpt lat="45.22633" lon="5.7336">
        <ele>886.79998779297</ele>
        <time>2021-07-17T07:13:16.000Z</time>
      </trkpt>
      <trkpt lat="45.22637" lon="5.73363">
        <ele>885.59997558594</ele>
        <time>2021-07-17T07:13:20.000Z</time>
      </trkpt>
      <trkpt lat="45.22639" lon="5.73362">
        <ele>884.79998779297</ele>
        <time>2021-07-17T07:13:22.000Z</time>
      </trkpt>
      <trkpt lat="45.22641" lon="5.73362">
        <ele>884.79998779297</ele>
        <time>2021-07-17T07:13:23.000Z</time>
      </trkpt>
      <trkpt lat="45.22642" lon="5.73361">
        <ele>884.59997558594</ele>
        <time>2021-07-17T07:13:24.000Z</time>
      </trkpt>
      <trkpt lat="45.22648" lon="5.73362">
        <ele>883.59997558594</ele>
        <time>2021-07-17T07:13:27.000Z</time>
      </trkpt>
      <trkpt lat="45.22652" lon="5.73361">
        <ele>882.79998779297</ele>
        <time>2021-07-17T07:13:29.000Z</time>
      </trkpt>
      <trkpt lat="45.22655" lon="5.73363">
        <ele>882.20001220703</ele>
        <time>2021-07-17T07:13:31.000Z</time>
      </trkpt>
      <trkpt lat="45.22659" lon="5.73362">
        <ele>881.59997558594</ele>
        <time>2021-07-17T07:13:33.000Z</time>
      </trkpt>
      <trkpt lat="45.22663" lon="5.7336">
        <ele>880.79998779297</ele>
        <time>2021-07-17T07:13:36.000Z</time>
      </trkpt>
      <trkpt lat="45.22664" lon="5.73361">
        <ele>880</ele>
        <time>2021-07-17T07:13:37.000Z</time>
      </trkpt>
      <trkpt lat="45.22665" lon="5.73361">
        <ele>879.79998779297</ele>
        <time>2021-07-17T07:13:38.000Z</time>
      </trkpt>
      <trkpt lat="45.22666" lon="5.73361">
        <ele>879.79998779297</ele>
        <time>2021-07-17T07:13:39.000Z</time>
      </trkpt>
      <trkpt lat="45.22672" lon="5.73359">
        <ele>879.20001220703</ele>
        <time>2021-07-17T07:13:42.000Z</time>
      </trkpt>
      <trkpt lat="45.22673" lon="5.73359">
        <ele>879</ele>
        <time>2021-07-17T07:13:43.000Z</time>
      </trkpt>
      <trkpt lat="45.22674" lon="5.7336">
        <ele>877.59997558594</ele>
        <time>2021-07-17T07:13:44.000Z</time>
      </trkpt>
      <trkpt lat="45.22678" lon="5.73361">
        <ele>877.20001220703</ele>
        <time>2021-07-17T07:13:46.000Z</time>
      </trkpt>
      <trkpt lat="45.22682" lon="5.73363">
        <ele>876.20001220703</ele>
        <time>2021-07-17T07:13:49.000Z</time>
      </trkpt>
      <trkpt lat="45.22688" lon="5.73366">
        <ele>875</ele>
        <time>2021-07-17T07:13:53.000Z</time>
      </trkpt>
      <trkpt lat="45.22688" lon="5.73367">
        <ele>874.79998779297</ele>
        <time>2021-07-17T07:13:54.000Z</time>
      </trkpt>
      <trkpt lat="45.22692" lon="5.73366">
        <ele>874.20001220703</ele>
        <time>2021-07-17T07:13:56.000Z</time>
      </trkpt>
      <trkpt lat="45.22697" lon="5.73365">
        <ele>873.40002441406</ele>
        <time>2021-07-17T07:13:58.000Z</time>
      </trkpt>
      <trkpt lat="45.22702" lon="5.73363">
        <ele>872.59997558594</ele>
        <time>2021-07-17T07:14:01.000Z</time>
      </trkpt>
      <trkpt lat="45.22706" lon="5.73366">
        <ele>872</ele>
        <time>2021-07-17T07:14:04.000Z</time>
      </trkpt>
      <trkpt lat="45.22712" lon="5.7337">
        <ele>871.20001220703</ele>
        <time>2021-07-17T07:14:08.000Z</time>
      </trkpt>
      <trkpt lat="45.22714" lon="5.7337">
        <ele>870.40002441406</ele>
        <time>2021-07-17T07:14:09.000Z</time>
      </trkpt>
      <trkpt lat="45.22716" lon="5.73371">
        <ele>870.20001220703</ele>
        <time>2021-07-17T07:14:11.000Z</time>
      </trkpt>
      <trkpt lat="45.22717" lon="5.73375">
        <ele>870</ele>
        <time>2021-07-17T07:14:14.000Z</time>
      </trkpt>
      <trkpt lat="45.22717" lon="5.73378">
        <ele>869.79998779297</ele>
        <time>2021-07-17T07:14:16.000Z</time>
      </trkpt>
      <trkpt lat="45.22715" lon="5.73378">
        <ele>869.79998779297</ele>
        <time>2021-07-17T07:14:18.000Z</time>
      </trkpt>
      <trkpt lat="45.22711" lon="5.73381">
        <ele>870.59997558594</ele>
        <time>2021-07-17T07:14:21.000Z</time>
      </trkpt>
      <trkpt lat="45.22705" lon="5.73383">
        <ele>870.79998779297</ele>
        <time>2021-07-17T07:14:25.000Z</time>
      </trkpt>
      <trkpt lat="45.22703" lon="5.73383">
        <ele>871.20001220703</ele>
        <time>2021-07-17T07:14:26.000Z</time>
      </trkpt>
      <trkpt lat="45.22702" lon="5.73383">
        <ele>871.40002441406</ele>
        <time>2021-07-17T07:14:27.000Z</time>
      </trkpt>
      <trkpt lat="45.22696" lon="5.73383">
        <ele>872.40002441406</ele>
        <time>2021-07-17T07:14:33.000Z</time>
      </trkpt>
      <trkpt lat="45.22695" lon="5.73383">
        <ele>872.59997558594</ele>
        <time>2021-07-17T07:14:35.000Z</time>
      </trkpt>
      <trkpt lat="45.22691" lon="5.73382">
        <ele>873.40002441406</ele>
        <time>2021-07-17T07:14:39.000Z</time>
      </trkpt>
      <trkpt lat="45.2269" lon="5.73382">
        <ele>873.59997558594</ele>
        <time>2021-07-17T07:14:40.000Z</time>
      </trkpt>
      <trkpt lat="45.22689" lon="5.73382">
        <ele>874</ele>
        <time>2021-07-17T07:14:41.000Z</time>
      </trkpt>
      <trkpt lat="45.22686" lon="5.73384">
        <ele>874.40002441406</ele>
        <time>2021-07-17T07:14:43.000Z</time>
      </trkpt>
      <trkpt lat="45.22681" lon="5.73387">
        <ele>875</ele>
        <time>2021-07-17T07:14:47.000Z</time>
      </trkpt>
      <trkpt lat="45.22675" lon="5.73383">
        <ele>876.40002441406</ele>
        <time>2021-07-17T07:14:53.000Z</time>
      </trkpt>
      <trkpt lat="45.22673" lon="5.73382">
        <ele>876.79998779297</ele>
        <time>2021-07-17T07:14:55.000Z</time>
      </trkpt>
      <trkpt lat="45.22671" lon="5.7338">
        <ele>877.40002441406</ele>
        <time>2021-07-17T07:14:58.000Z</time>
      </trkpt>
      <trkpt lat="45.22668" lon="5.73381">
        <ele>878.20001220703</ele>
        <time>2021-07-17T07:15:01.000Z</time>
      </trkpt>
      <trkpt lat="45.22668" lon="5.73381">
        <ele>878.40002441406</ele>
        <time>2021-07-17T07:15:02.000Z</time>
      </trkpt>
      <trkpt lat="45.22665" lon="5.73383">
        <ele>878.79998779297</ele>
        <time>2021-07-17T07:15:05.000Z</time>
      </trkpt>
      <trkpt lat="45.22664" lon="5.73383">
        <ele>879.40002441406</ele>
        <time>2021-07-17T07:15:06.000Z</time>
      </trkpt>
      <trkpt lat="45.22663" lon="5.73383">
        <ele>879.40002441406</ele>
        <time>2021-07-17T07:15:07.000Z</time>
      </trkpt>
      <trkpt lat="45.22659" lon="5.73383">
        <ele>880.40002441406</ele>
        <time>2021-07-17T07:15:11.000Z</time>
      </trkpt>
      <trkpt lat="45.22658" lon="5.73382">
        <ele>880.40002441406</ele>
        <time>2021-07-17T07:15:12.000Z</time>
      </trkpt>
      <trkpt lat="45.22654" lon="5.73383">
        <ele>881.59997558594</ele>
        <time>2021-07-17T07:15:15.000Z</time>
      </trkpt>
      <trkpt lat="45.22653" lon="5.73384">
        <ele>881.79998779297</ele>
        <time>2021-07-17T07:15:16.000Z</time>
      </trkpt>
      <trkpt lat="45.22649" lon="5.73381">
        <ele>882.59997558594</ele>
        <time>2021-07-17T07:15:21.000Z</time>
      </trkpt>
      <trkpt lat="45.22645" lon="5.73382">
        <ele>883.79998779297</ele>
        <time>2021-07-17T07:15:25.000Z</time>
      </trkpt>
      <trkpt lat="45.22643" lon="5.73382">
        <ele>884</ele>
        <time>2021-07-17T07:15:27.000Z</time>
      </trkpt>
      <trkpt lat="45.22641" lon="5.73383">
        <ele>884.40002441406</ele>
        <time>2021-07-17T07:15:28.000Z</time>
      </trkpt>
      <trkpt lat="45.22639" lon="5.73383">
        <ele>884.79998779297</ele>
        <time>2021-07-17T07:15:31.000Z</time>
      </trkpt>
      <trkpt lat="45.22637" lon="5.73383">
        <ele>885.20001220703</ele>
        <time>2021-07-17T07:15:33.000Z</time>
      </trkpt>
      <trkpt lat="45.22632" lon="5.73379">
        <ele>886.59997558594</ele>
        <time>2021-07-17T07:15:39.000Z</time>
      </trkpt>
      <trkpt lat="45.22632" lon="5.73378">
        <ele>886.59997558594</ele>
        <time>2021-07-17T07:15:40.000Z</time>
      </trkpt>
      <trkpt lat="45.22627" lon="5.73378">
        <ele>887.20001220703</ele>
        <time>2021-07-17T07:15:44.000Z</time>
      </trkpt>
      <trkpt lat="45.22626" lon="5.73377">
        <ele>887.40002441406</ele>
        <time>2021-07-17T07:15:45.000Z</time>
      </trkpt>
      <trkpt lat="45.22626" lon="5.73377">
        <ele>887.79998779297</ele>
        <time>2021-07-17T07:15:46.000Z</time>
      </trkpt>
      <trkpt lat="45.22623" lon="5.73376">
        <ele>888.79998779297</ele>
        <time>2021-07-17T07:15:50.000Z</time>
      </trkpt>
      <trkpt lat="45.22622" lon="5.73376">
        <ele>889</ele>
        <time>2021-07-17T07:15:51.000Z</time>
      </trkpt>
      <trkpt lat="45.22616" lon="5.73381">
        <ele>889.40002441406</ele>
        <time>2021-07-17T07:15:55.000Z</time>
      </trkpt>
      <trkpt lat="45.22616" lon="5.73382">
        <ele>890.20001220703</ele>
        <time>2021-07-17T07:15:56.000Z</time>
      </trkpt>
      <trkpt lat="45.22614" lon="5.73382">
        <ele>890.59997558594</ele>
        <time>2021-07-17T07:15:58.000Z</time>
      </trkpt>
      <trkpt lat="45.22614" lon="5.73382">
        <ele>890.79998779297</ele>
        <time>2021-07-17T07:15:59.000Z</time>
      </trkpt>
      <trkpt lat="45.22611" lon="5.73384">
        <ele>891.20001220703</ele>
        <time>2021-07-17T07:16:02.000Z</time>
      </trkpt>
      <trkpt lat="45.22611" lon="5.73383">
        <ele>891.40002441406</ele>
        <time>2021-07-17T07:16:03.000Z</time>
      </trkpt>
      <trkpt lat="45.22607" lon="5.73386">
        <ele>892.20001220703</ele>
        <time>2021-07-17T07:16:06.000Z</time>
      </trkpt>
      <trkpt lat="45.22605" lon="5.73387">
        <ele>892.59997558594</ele>
        <time>2021-07-17T07:16:07.000Z</time>
      </trkpt>
      <trkpt lat="45.22604" lon="5.73388">
        <ele>892.59997558594</ele>
        <time>2021-07-17T07:16:08.000Z</time>
      </trkpt>
      <trkpt lat="45.22596" lon="5.73388">
        <ele>893.59997558594</ele>
        <time>2021-07-17T07:16:13.000Z</time>
      </trkpt>
      <trkpt lat="45.22595" lon="5.73388">
        <ele>893.79998779297</ele>
        <time>2021-07-17T07:16:14.000Z</time>
      </trkpt>
      <trkpt lat="45.22591" lon="5.73392">
        <ele>894.20001220703</ele>
        <time>2021-07-17T07:16:17.000Z</time>
      </trkpt>
      <trkpt lat="45.2259" lon="5.73392">
        <ele>894.40002441406</ele>
        <time>2021-07-17T07:16:18.000Z</time>
      </trkpt>
      <trkpt lat="45.22589" lon="5.73392">
        <ele>894.79998779297</ele>
        <time>2021-07-17T07:16:19.000Z</time>
      </trkpt>
      <trkpt lat="45.22587" lon="5.73392">
        <ele>895.20001220703</ele>
        <time>2021-07-17T07:16:21.000Z</time>
      </trkpt>
      <trkpt lat="45.22585" lon="5.73393">
        <ele>895.59997558594</ele>
        <time>2021-07-17T07:16:23.000Z</time>
      </trkpt>
      <trkpt lat="45.22583" lon="5.73394">
        <ele>895.79998779297</ele>
        <time>2021-07-17T07:16:25.000Z</time>
      </trkpt>
      <trkpt lat="45.22582" lon="5.73394">
        <ele>896</ele>
        <time>2021-07-17T07:16:26.000Z</time>
      </trkpt>
      <trkpt lat="45.2258" lon="5.73395">
        <ele>896.79998779297</ele>
        <time>2021-07-17T07:16:28.000Z</time>
      </trkpt>
      <trkpt lat="45.2258" lon="5.73395">
        <ele>897</ele>
        <time>2021-07-17T07:16:29.000Z</time>
      </trkpt>
      <trkpt lat="45.22577" lon="5.73396">
        <ele>897.20001220703</ele>
        <time>2021-07-17T07:16:31.000Z</time>
      </trkpt>
      <trkpt lat="45.22576" lon="5.73397">
        <ele>897.20001220703</ele>
        <time>2021-07-17T07:16:32.000Z</time>
      </trkpt>
      <trkpt lat="45.22575" lon="5.73398">
        <ele>897.59997558594</ele>
        <time>2021-07-17T07:16:33.000Z</time>
      </trkpt>
      <trkpt lat="45.22574" lon="5.73398">
        <ele>898.20001220703</ele>
        <time>2021-07-17T07:16:34.000Z</time>
      </trkpt>
      <trkpt lat="45.22573" lon="5.73399">
        <ele>898.40002441406</ele>
        <time>2021-07-17T07:16:35.000Z</time>
      </trkpt>
      <trkpt lat="45.2257" lon="5.73402">
        <ele>898.79998779297</ele>
        <time>2021-07-17T07:16:39.000Z</time>
      </trkpt>
      <trkpt lat="45.22569" lon="5.73402">
        <ele>899.20001220703</ele>
        <time>2021-07-17T07:16:40.000Z</time>
      </trkpt>
      <trkpt lat="45.22567" lon="5.73401">
        <ele>899.79998779297</ele>
        <time>2021-07-17T07:16:44.000Z</time>
      </trkpt>
      <trkpt lat="45.22566" lon="5.73402">
        <ele>900.20001220703</ele>
        <time>2021-07-17T07:16:45.000Z</time>
      </trkpt>
      <trkpt lat="45.22565" lon="5.73403">
        <ele>900.20001220703</ele>
        <time>2021-07-17T07:16:46.000Z</time>
      </trkpt>
      <trkpt lat="45.22564" lon="5.73403">
        <ele>900.59997558594</ele>
        <time>2021-07-17T07:16:48.000Z</time>
      </trkpt>
      <trkpt lat="45.22563" lon="5.73404">
        <ele>901.59997558594</ele>
        <time>2021-07-17T07:16:50.000Z</time>
      </trkpt>
      <trkpt lat="45.22561" lon="5.73403">
        <ele>901.79998779297</ele>
        <time>2021-07-17T07:16:52.000Z</time>
      </trkpt>
      <trkpt lat="45.2256" lon="5.73404">
        <ele>902.20001220703</ele>
        <time>2021-07-17T07:16:54.000Z</time>
      </trkpt>
      <trkpt lat="45.22558" lon="5.73404">
        <ele>902.59997558594</ele>
        <time>2021-07-17T07:16:56.000Z</time>
      </trkpt>
      <trkpt lat="45.22556" lon="5.73405">
        <ele>902.79998779297</ele>
        <time>2021-07-17T07:16:59.000Z</time>
      </trkpt>
      <trkpt lat="45.22555" lon="5.73405">
        <ele>903.59997558594</ele>
        <time>2021-07-17T07:17:01.000Z</time>
      </trkpt>
      <trkpt lat="45.22552" lon="5.73405">
        <ele>904.40002441406</ele>
        <time>2021-07-17T07:17:04.000Z</time>
      </trkpt>
      <trkpt lat="45.22551" lon="5.73405">
        <ele>904.40002441406</ele>
        <time>2021-07-17T07:17:05.000Z</time>
      </trkpt>
      <trkpt lat="45.22547" lon="5.73406">
        <ele>904.79998779297</ele>
        <time>2021-07-17T07:17:09.000Z</time>
      </trkpt>
      <trkpt lat="45.22545" lon="5.73406">
        <ele>904.79998779297</ele>
        <time>2021-07-17T07:17:11.000Z</time>
      </trkpt>
      <trkpt lat="45.2254" lon="5.73407">
        <ele>905.79998779297</ele>
        <time>2021-07-17T07:17:16.000Z</time>
      </trkpt>
      <trkpt lat="45.22538" lon="5.73407">
        <ele>906.40002441406</ele>
        <time>2021-07-17T07:17:17.000Z</time>
      </trkpt>
      <trkpt lat="45.22535" lon="5.73408">
        <ele>907.40002441406</ele>
        <time>2021-07-17T07:17:22.000Z</time>
      </trkpt>
      <trkpt lat="45.22533" lon="5.73408">
        <ele>907.59997558594</ele>
        <time>2021-07-17T07:17:23.000Z</time>
      </trkpt>
      <trkpt lat="45.22528" lon="5.7341">
        <ele>909</ele>
        <time>2021-07-17T07:17:27.000Z</time>
      </trkpt>
      <trkpt lat="45.22525" lon="5.7341">
        <ele>909.59997558594</ele>
        <time>2021-07-17T07:17:30.000Z</time>
      </trkpt>
      <trkpt lat="45.22521" lon="5.7341">
        <ele>910</ele>
        <time>2021-07-17T07:17:33.000Z</time>
      </trkpt>
      <trkpt lat="45.2252" lon="5.7341">
        <ele>910</ele>
        <time>2021-07-17T07:17:34.000Z</time>
      </trkpt>
      <trkpt lat="45.22518" lon="5.73411">
        <ele>910.40002441406</ele>
        <time>2021-07-17T07:17:35.000Z</time>
      </trkpt>
      <trkpt lat="45.22517" lon="5.73411">
        <ele>910.79998779297</ele>
        <time>2021-07-17T07:17:36.000Z</time>
      </trkpt>
      <trkpt lat="45.22515" lon="5.7341">
        <ele>911.40002441406</ele>
        <time>2021-07-17T07:17:38.000Z</time>
      </trkpt>
      <trkpt lat="45.22513" lon="5.73408">
        <ele>912</ele>
        <time>2021-07-17T07:17:42.000Z</time>
      </trkpt>
      <trkpt lat="45.22512" lon="5.73408">
        <ele>912.59997558594</ele>
        <time>2021-07-17T07:17:43.000Z</time>
      </trkpt>
      <trkpt lat="45.22509" lon="5.7341">
        <ele>913.59997558594</ele>
        <time>2021-07-17T07:17:47.000Z</time>
      </trkpt>
      <trkpt lat="45.22508" lon="5.7341">
        <ele>913.79998779297</ele>
        <time>2021-07-17T07:17:48.000Z</time>
      </trkpt>
      <trkpt lat="45.22506" lon="5.73412">
        <ele>915.20001220703</ele>
        <time>2021-07-17T07:17:52.000Z</time>
      </trkpt>
      <trkpt lat="45.22505" lon="5.73413">
        <ele>915.40002441406</ele>
        <time>2021-07-17T07:17:55.000Z</time>
      </trkpt>
      <trkpt lat="45.22502" lon="5.73415">
        <ele>916.40002441406</ele>
        <time>2021-07-17T07:17:58.000Z</time>
      </trkpt>
      <trkpt lat="45.22502" lon="5.73416">
        <ele>916.59997558594</ele>
        <time>2021-07-17T07:17:59.000Z</time>
      </trkpt>
      <trkpt lat="45.225" lon="5.73417">
        <ele>917</ele>
        <time>2021-07-17T07:18:01.000Z</time>
      </trkpt>
      <trkpt lat="45.22499" lon="5.73419">
        <ele>917.59997558594</ele>
        <time>2021-07-17T07:18:03.000Z</time>
      </trkpt>
      <trkpt lat="45.22498" lon="5.73422">
        <ele>918</ele>
        <time>2021-07-17T07:18:05.000Z</time>
      </trkpt>
      <trkpt lat="45.22496" lon="5.73423">
        <ele>918.20001220703</ele>
        <time>2021-07-17T07:18:07.000Z</time>
      </trkpt>
      <trkpt lat="45.22495" lon="5.73423">
        <ele>918.59997558594</ele>
        <time>2021-07-17T07:18:08.000Z</time>
      </trkpt>
      <trkpt lat="45.22494" lon="5.73424">
        <ele>918.59997558594</ele>
        <time>2021-07-17T07:18:09.000Z</time>
      </trkpt>
      <trkpt lat="45.22492" lon="5.73426">
        <ele>919.59997558594</ele>
        <time>2021-07-17T07:18:11.000Z</time>
      </trkpt>
      <trkpt lat="45.22492" lon="5.73426">
        <ele>919.79998779297</ele>
        <time>2021-07-17T07:18:12.000Z</time>
      </trkpt>
      <trkpt lat="45.2249" lon="5.73428">
        <ele>920.59997558594</ele>
        <time>2021-07-17T07:18:15.000Z</time>
      </trkpt>
      <trkpt lat="45.22489" lon="5.7343">
        <ele>921</ele>
        <time>2021-07-17T07:18:17.000Z</time>
      </trkpt>
      <trkpt lat="45.22485" lon="5.73432">
        <ele>922.20001220703</ele>
        <time>2021-07-17T07:18:21.000Z</time>
      </trkpt>
      <trkpt lat="45.22485" lon="5.73433">
        <ele>922.40002441406</ele>
        <time>2021-07-17T07:18:22.000Z</time>
      </trkpt>
      <trkpt lat="45.22484" lon="5.73433">
        <ele>922.59997558594</ele>
        <time>2021-07-17T07:18:23.000Z</time>
      </trkpt>
      <trkpt lat="45.22484" lon="5.73434">
        <ele>923.20001220703</ele>
        <time>2021-07-17T07:18:25.000Z</time>
      </trkpt>
      <trkpt lat="45.22484" lon="5.73435">
        <ele>924</ele>
        <time>2021-07-17T07:18:26.000Z</time>
      </trkpt>
      <trkpt lat="45.22483" lon="5.73436">
        <ele>924</ele>
        <time>2021-07-17T07:18:27.000Z</time>
      </trkpt>
      <trkpt lat="45.22482" lon="5.73437">
        <ele>924</ele>
        <time>2021-07-17T07:18:30.000Z</time>
      </trkpt>
      <trkpt lat="45.22481" lon="5.73439">
        <ele>924.79998779297</ele>
        <time>2021-07-17T07:18:32.000Z</time>
      </trkpt>
      <trkpt lat="45.22481" lon="5.7344">
        <ele>925.40002441406</ele>
        <time>2021-07-17T07:18:33.000Z</time>
      </trkpt>
      <trkpt lat="45.22478" lon="5.73443">
        <ele>926.59997558594</ele>
        <time>2021-07-17T07:18:37.000Z</time>
      </trkpt>
      <trkpt lat="45.22478" lon="5.73444">
        <ele>926.79998779297</ele>
        <time>2021-07-17T07:18:38.000Z</time>
      </trkpt>
      <trkpt lat="45.22472" lon="5.73443">
        <ele>928</ele>
        <time>2021-07-17T07:18:43.000Z</time>
      </trkpt>
      <trkpt lat="45.2247" lon="5.73442">
        <ele>928.20001220703</ele>
        <time>2021-07-17T07:18:45.000Z</time>
      </trkpt>
      <trkpt lat="45.22464" lon="5.73442">
        <ele>929</ele>
        <time>2021-07-17T07:18:51.000Z</time>
      </trkpt>
      <trkpt lat="45.22463" lon="5.73442">
        <ele>929</ele>
        <time>2021-07-17T07:18:52.000Z</time>
      </trkpt>
      <trkpt lat="45.22456" lon="5.73441">
        <ele>930.20001220703</ele>
        <time>2021-07-17T07:18:57.000Z</time>
      </trkpt>
      <trkpt lat="45.22452" lon="5.73441">
        <ele>931</ele>
        <time>2021-07-17T07:19:00.000Z</time>
      </trkpt>
      <trkpt lat="45.22447" lon="5.73442">
        <ele>931.79998779297</ele>
        <time>2021-07-17T07:19:03.000Z</time>
      </trkpt>
      <trkpt lat="45.2244" lon="5.73446">
        <ele>932</ele>
        <time>2021-07-17T07:19:06.000Z</time>
      </trkpt>
      <trkpt lat="45.22438" lon="5.73447">
        <ele>932.59997558594</ele>
        <time>2021-07-17T07:19:07.000Z</time>
      </trkpt>
      <trkpt lat="45.22432" lon="5.73447">
        <ele>933</ele>
        <time>2021-07-17T07:19:10.000Z</time>
      </trkpt>
      <trkpt lat="45.2243" lon="5.73447">
        <ele>933.20001220703</ele>
        <time>2021-07-17T07:19:11.000Z</time>
      </trkpt>
      <trkpt lat="45.22423" lon="5.73446">
        <ele>933.40002441406</ele>
        <time>2021-07-17T07:19:14.000Z</time>
      </trkpt>
      <trkpt lat="45.22417" lon="5.73449">
        <ele>934</ele>
        <time>2021-07-17T07:19:17.000Z</time>
      </trkpt>
      <trkpt lat="45.22409" lon="5.73447">
        <ele>934.40002441406</ele>
        <time>2021-07-17T07:19:24.000Z</time>
      </trkpt>
      <trkpt lat="45.22401" lon="5.73445">
        <ele>935.20001220703</ele>
        <time>2021-07-17T07:19:30.000Z</time>
      </trkpt>
      <trkpt lat="45.224" lon="5.73444">
        <ele>935.59997558594</ele>
        <time>2021-07-17T07:19:31.000Z</time>
      </trkpt>
      <trkpt lat="45.22397" lon="5.73443">
        <ele>935.59997558594</ele>
        <time>2021-07-17T07:19:33.000Z</time>
      </trkpt>
      <trkpt lat="45.22393" lon="5.7344">
        <ele>935.79998779297</ele>
        <time>2021-07-17T07:19:37.000Z</time>
      </trkpt>
      <trkpt lat="45.2239" lon="5.73439">
        <ele>936.20001220703</ele>
        <time>2021-07-17T07:19:39.000Z</time>
      </trkpt>
      <trkpt lat="45.22388" lon="5.73439">
        <ele>936.40002441406</ele>
        <time>2021-07-17T07:19:40.000Z</time>
      </trkpt>
      <trkpt lat="45.22383" lon="5.73439">
        <ele>936.79998779297</ele>
        <time>2021-07-17T07:19:43.000Z</time>
      </trkpt>
      <trkpt lat="45.22379" lon="5.73438">
        <ele>936.79998779297</ele>
        <time>2021-07-17T07:19:46.000Z</time>
      </trkpt>
      <trkpt lat="45.22374" lon="5.73435">
        <ele>937.20001220703</ele>
        <time>2021-07-17T07:19:49.000Z</time>
      </trkpt>
      <trkpt lat="45.22374" lon="5.73434">
        <ele>937.40002441406</ele>
        <time>2021-07-17T07:19:50.000Z</time>
      </trkpt>
      <trkpt lat="45.22368" lon="5.73432">
        <ele>937.59997558594</ele>
        <time>2021-07-17T07:19:54.000Z</time>
      </trkpt>
      <trkpt lat="45.22364" lon="5.73433">
        <ele>938</ele>
        <time>2021-07-17T07:19:57.000Z</time>
      </trkpt>
      <trkpt lat="45.22362" lon="5.73431">
        <ele>938.79998779297</ele>
        <time>2021-07-17T07:19:59.000Z</time>
      </trkpt>
      <trkpt lat="45.2236" lon="5.7343">
        <ele>939</ele>
        <time>2021-07-17T07:20:01.000Z</time>
      </trkpt>
      <trkpt lat="45.22352" lon="5.73431">
        <ele>939.79998779297</ele>
        <time>2021-07-17T07:20:06.000Z</time>
      </trkpt>
      <trkpt lat="45.22351" lon="5.73431">
        <ele>940</ele>
        <time>2021-07-17T07:20:07.000Z</time>
      </trkpt>
      <trkpt lat="45.22348" lon="5.7343">
        <ele>940.40002441406</ele>
        <time>2021-07-17T07:20:09.000Z</time>
      </trkpt>
      <trkpt lat="45.22344" lon="5.73431">
        <ele>941.20001220703</ele>
        <time>2021-07-17T07:20:13.000Z</time>
      </trkpt>
      <trkpt lat="45.2234" lon="5.7343">
        <ele>942</ele>
        <time>2021-07-17T07:20:17.000Z</time>
      </trkpt>
      <trkpt lat="45.22339" lon="5.73431">
        <ele>942.20001220703</ele>
        <time>2021-07-17T07:20:18.000Z</time>
      </trkpt>
      <trkpt lat="45.22336" lon="5.7343">
        <ele>942.59997558594</ele>
        <time>2021-07-17T07:20:20.000Z</time>
      </trkpt>
      <trkpt lat="45.22334" lon="5.73429">
        <ele>943</ele>
        <time>2021-07-17T07:20:21.000Z</time>
      </trkpt>
      <trkpt lat="45.22333" lon="5.73429">
        <ele>943.20001220703</ele>
        <time>2021-07-17T07:20:22.000Z</time>
      </trkpt>
      <trkpt lat="45.2233" lon="5.73426">
        <ele>944.40002441406</ele>
        <time>2021-07-17T07:20:26.000Z</time>
      </trkpt>
      <trkpt lat="45.22328" lon="5.73424">
        <ele>945</ele>
        <time>2021-07-17T07:20:29.000Z</time>
      </trkpt>
      <trkpt lat="45.22326" lon="5.73424">
        <ele>945.20001220703</ele>
        <time>2021-07-17T07:20:31.000Z</time>
      </trkpt>
      <trkpt lat="45.22323" lon="5.73424">
        <ele>945.59997558594</ele>
        <time>2021-07-17T07:20:33.000Z</time>
      </trkpt>
      <trkpt lat="45.22322" lon="5.73423">
        <ele>946.20001220703</ele>
        <time>2021-07-17T07:20:35.000Z</time>
      </trkpt>
      <trkpt lat="45.22322" lon="5.73423">
        <ele>946.59997558594</ele>
        <time>2021-07-17T07:20:36.000Z</time>
      </trkpt>
      <trkpt lat="45.22317" lon="5.73422">
        <ele>947.20001220703</ele>
        <time>2021-07-17T07:20:40.000Z</time>
      </trkpt>
      <trkpt lat="45.22316" lon="5.73422">
        <ele>947.79998779297</ele>
        <time>2021-07-17T07:20:41.000Z</time>
      </trkpt>
      <trkpt lat="45.22316" lon="5.73421">
        <ele>948.20001220703</ele>
        <time>2021-07-17T07:20:42.000Z</time>
      </trkpt>
      <trkpt lat="45.22311" lon="5.73422">
        <ele>949</ele>
        <time>2021-07-17T07:20:48.000Z</time>
      </trkpt>
      <trkpt lat="45.2231" lon="5.73422">
        <ele>949.20001220703</ele>
        <time>2021-07-17T07:20:49.000Z</time>
      </trkpt>
      <trkpt lat="45.22309" lon="5.73421">
        <ele>949.59997558594</ele>
        <time>2021-07-17T07:20:50.000Z</time>
      </trkpt>
      <trkpt lat="45.22308" lon="5.73422">
        <ele>950</ele>
        <time>2021-07-17T07:20:51.000Z</time>
      </trkpt>
      <trkpt lat="45.22306" lon="5.73422">
        <ele>950.59997558594</ele>
        <time>2021-07-17T07:20:54.000Z</time>
      </trkpt>
      <trkpt lat="45.223" lon="5.73424">
        <ele>951</ele>
        <time>2021-07-17T07:20:57.000Z</time>
      </trkpt>
      <trkpt lat="45.22298" lon="5.73424">
        <ele>951.40002441406</ele>
        <time>2021-07-17T07:20:58.000Z</time>
      </trkpt>
      <trkpt lat="45.22295" lon="5.73424">
        <ele>952.20001220703</ele>
        <time>2021-07-17T07:21:01.000Z</time>
      </trkpt>
      <trkpt lat="45.22293" lon="5.73424">
        <ele>952.59997558594</ele>
        <time>2021-07-17T07:21:05.000Z</time>
      </trkpt>
      <trkpt lat="45.22292" lon="5.73423">
        <ele>953.59997558594</ele>
        <time>2021-07-17T07:21:06.000Z</time>
      </trkpt>
      <trkpt lat="45.22287" lon="5.73421">
        <ele>954.40002441406</ele>
        <time>2021-07-17T07:21:11.000Z</time>
      </trkpt>
      <trkpt lat="45.22284" lon="5.73419">
        <ele>954.79998779297</ele>
        <time>2021-07-17T07:21:14.000Z</time>
      </trkpt>
      <trkpt lat="45.22282" lon="5.73418">
        <ele>955.79998779297</ele>
        <time>2021-07-17T07:21:16.000Z</time>
      </trkpt>
      <trkpt lat="45.22281" lon="5.73417">
        <ele>955.79998779297</ele>
        <time>2021-07-17T07:21:17.000Z</time>
      </trkpt>
      <trkpt lat="45.2228" lon="5.73417">
        <ele>956</ele>
        <time>2021-07-17T07:21:18.000Z</time>
      </trkpt>
      <trkpt lat="45.22275" lon="5.73415">
        <ele>957</ele>
        <time>2021-07-17T07:21:23.000Z</time>
      </trkpt>
      <trkpt lat="45.22274" lon="5.73414">
        <ele>957.79998779297</ele>
        <time>2021-07-17T07:21:25.000Z</time>
      </trkpt>
      <trkpt lat="45.22273" lon="5.73413">
        <ele>958.20001220703</ele>
        <time>2021-07-17T07:21:26.000Z</time>
      </trkpt>
      <trkpt lat="45.2227" lon="5.73407">
        <ele>958.59997558594</ele>
        <time>2021-07-17T07:21:30.000Z</time>
      </trkpt>
      <trkpt lat="45.22268" lon="5.73406">
        <ele>959.40002441406</ele>
        <time>2021-07-17T07:21:32.000Z</time>
      </trkpt>
      <trkpt lat="45.22263" lon="5.73408">
        <ele>960.40002441406</ele>
        <time>2021-07-17T07:21:37.000Z</time>
      </trkpt>
      <trkpt lat="45.22261" lon="5.73407">
        <ele>961</ele>
        <time>2021-07-17T07:21:40.000Z</time>
      </trkpt>
      <trkpt lat="45.22258" lon="5.73407">
        <ele>962</ele>
        <time>2021-07-17T07:21:43.000Z</time>
      </trkpt>
      <trkpt lat="45.22255" lon="5.73409">
        <ele>962.79998779297</ele>
        <time>2021-07-17T07:21:47.000Z</time>
      </trkpt>
      <trkpt lat="45.22254" lon="5.73409">
        <ele>963.20001220703</ele>
        <time>2021-07-17T07:21:48.000Z</time>
      </trkpt>
      <trkpt lat="45.22253" lon="5.7341">
        <ele>963.40002441406</ele>
        <time>2021-07-17T07:21:51.000Z</time>
      </trkpt>
      <trkpt lat="45.22252" lon="5.7341">
        <ele>963.40002441406</ele>
        <time>2021-07-17T07:21:52.000Z</time>
      </trkpt>
      <trkpt lat="45.22252" lon="5.73409">
        <ele>964.59997558594</ele>
        <time>2021-07-17T07:21:54.000Z</time>
      </trkpt>
      <trkpt lat="45.22251" lon="5.73409">
        <ele>964.79998779297</ele>
        <time>2021-07-17T07:21:55.000Z</time>
      </trkpt>
      <trkpt lat="45.2225" lon="5.7341">
        <ele>965</ele>
        <time>2021-07-17T07:21:57.000Z</time>
      </trkpt>
      <trkpt lat="45.22249" lon="5.7341">
        <ele>965.40002441406</ele>
        <time>2021-07-17T07:21:58.000Z</time>
      </trkpt>
      <trkpt lat="45.22249" lon="5.73411">
        <ele>965.79998779297</ele>
        <time>2021-07-17T07:21:59.000Z</time>
      </trkpt>
      <trkpt lat="45.22247" lon="5.73412">
        <ele>966.20001220703</ele>
        <time>2021-07-17T07:22:01.000Z</time>
      </trkpt>
      <trkpt lat="45.22245" lon="5.7341">
        <ele>967</ele>
        <time>2021-07-17T07:22:04.000Z</time>
      </trkpt>
      <trkpt lat="45.22245" lon="5.7341">
        <ele>967.79998779297</ele>
        <time>2021-07-17T07:22:05.000Z</time>
      </trkpt>
      <trkpt lat="45.22243" lon="5.73409">
        <ele>968</ele>
        <time>2021-07-17T07:22:07.000Z</time>
      </trkpt>
      <trkpt lat="45.2224" lon="5.73409">
        <ele>969.20001220703</ele>
        <time>2021-07-17T07:22:11.000Z</time>
      </trkpt>
      <trkpt lat="45.22239" lon="5.73408">
        <ele>969.79998779297</ele>
        <time>2021-07-17T07:22:12.000Z</time>
      </trkpt>
      <trkpt lat="45.22238" lon="5.73408">
        <ele>969.79998779297</ele>
        <time>2021-07-17T07:22:13.000Z</time>
      </trkpt>
      <trkpt lat="45.22238" lon="5.73409">
        <ele>969.79998779297</ele>
        <time>2021-07-17T07:22:14.000Z</time>
      </trkpt>
      <trkpt lat="45.22237" lon="5.73409">
        <ele>970.20001220703</ele>
        <time>2021-07-17T07:22:16.000Z</time>
      </trkpt>
      <trkpt lat="45.22235" lon="5.73409">
        <ele>971.40002441406</ele>
        <time>2021-07-17T07:22:18.000Z</time>
      </trkpt>
      <trkpt lat="45.22233" lon="5.73409">
        <ele>972</ele>
        <time>2021-07-17T07:22:20.000Z</time>
      </trkpt>
      <trkpt lat="45.22232" lon="5.73407">
        <ele>972.40002441406</ele>
        <time>2021-07-17T07:22:22.000Z</time>
      </trkpt>
      <trkpt lat="45.22229" lon="5.73408">
        <ele>973.20001220703</ele>
        <time>2021-07-17T07:22:24.000Z</time>
      </trkpt>
      <trkpt lat="45.22228" lon="5.73407">
        <ele>973.59997558594</ele>
        <time>2021-07-17T07:22:25.000Z</time>
      </trkpt>
      <trkpt lat="45.22227" lon="5.73405">
        <ele>973.59997558594</ele>
        <time>2021-07-17T07:22:27.000Z</time>
      </trkpt>
      <trkpt lat="45.22225" lon="5.73404">
        <ele>974</ele>
        <time>2021-07-17T07:22:29.000Z</time>
      </trkpt>
      <trkpt lat="45.22224" lon="5.73403">
        <ele>974.79998779297</ele>
        <time>2021-07-17T07:22:31.000Z</time>
      </trkpt>
      <trkpt lat="45.22223" lon="5.73402">
        <ele>975</ele>
        <time>2021-07-17T07:22:32.000Z</time>
      </trkpt>
      <trkpt lat="45.22222" lon="5.73402">
        <ele>975.20001220703</ele>
        <time>2021-07-17T07:22:33.000Z</time>
      </trkpt>
      <trkpt lat="45.22219" lon="5.73402">
        <ele>975.59997558594</ele>
        <time>2021-07-17T07:22:36.000Z</time>
      </trkpt>
      <trkpt lat="45.22218" lon="5.73402">
        <ele>976</ele>
        <time>2021-07-17T07:22:37.000Z</time>
      </trkpt>
      <trkpt lat="45.22216" lon="5.73402">
        <ele>976</ele>
        <time>2021-07-17T07:22:39.000Z</time>
      </trkpt>
      <trkpt lat="45.22216" lon="5.73401">
        <ele>976.40002441406</ele>
        <time>2021-07-17T07:22:40.000Z</time>
      </trkpt>
      <trkpt lat="45.22214" lon="5.73401">
        <ele>977.59997558594</ele>
        <time>2021-07-17T07:22:42.000Z</time>
      </trkpt>
      <trkpt lat="45.22213" lon="5.73401">
        <ele>978.20001220703</ele>
        <time>2021-07-17T07:22:43.000Z</time>
      </trkpt>
      <trkpt lat="45.22211" lon="5.73401">
        <ele>978.59997558594</ele>
        <time>2021-07-17T07:22:45.000Z</time>
      </trkpt>
      <trkpt lat="45.2221" lon="5.73401">
        <ele>978.79998779297</ele>
        <time>2021-07-17T07:22:46.000Z</time>
      </trkpt>
      <trkpt lat="45.22209" lon="5.73399">
        <ele>979.20001220703</ele>
        <time>2021-07-17T07:22:48.000Z</time>
      </trkpt>
      <trkpt lat="45.22207" lon="5.734">
        <ele>979.79998779297</ele>
        <time>2021-07-17T07:22:50.000Z</time>
      </trkpt>
      <trkpt lat="45.22205" lon="5.73403">
        <ele>980.40002441406</ele>
        <time>2021-07-17T07:22:53.000Z</time>
      </trkpt>
      <trkpt lat="45.22204" lon="5.73403">
        <ele>980.59997558594</ele>
        <time>2021-07-17T07:22:54.000Z</time>
      </trkpt>
      <trkpt lat="45.22201" lon="5.73403">
        <ele>981.20001220703</ele>
        <time>2021-07-17T07:22:57.000Z</time>
      </trkpt>
      <trkpt lat="45.22201" lon="5.73403">
        <ele>981.40002441406</ele>
        <time>2021-07-17T07:22:58.000Z</time>
      </trkpt>
      <trkpt lat="45.222" lon="5.73403">
        <ele>982.40002441406</ele>
        <time>2021-07-17T07:22:59.000Z</time>
      </trkpt>
      <trkpt lat="45.22199" lon="5.73403">
        <ele>982.59997558594</ele>
        <time>2021-07-17T07:23:00.000Z</time>
      </trkpt>
      <trkpt lat="45.22198" lon="5.73403">
        <ele>983.20001220703</ele>
        <time>2021-07-17T07:23:03.000Z</time>
      </trkpt>
      <trkpt lat="45.22197" lon="5.73403">
        <ele>983.40002441406</ele>
        <time>2021-07-17T07:23:04.000Z</time>
      </trkpt>
      <trkpt lat="45.22197" lon="5.73403">
        <ele>983.79998779297</ele>
        <time>2021-07-17T07:23:05.000Z</time>
      </trkpt>
      <trkpt lat="45.22197" lon="5.73404">
        <ele>984.79998779297</ele>
        <time>2021-07-17T07:23:07.000Z</time>
      </trkpt>
      <trkpt lat="45.22195" lon="5.73404">
        <ele>985.20001220703</ele>
        <time>2021-07-17T07:23:11.000Z</time>
      </trkpt>
      <trkpt lat="45.22193" lon="5.73404">
        <ele>986.79998779297</ele>
        <time>2021-07-17T07:23:14.000Z</time>
      </trkpt>
      <trkpt lat="45.2219" lon="5.73402">
        <ele>987.20001220703</ele>
        <time>2021-07-17T07:23:18.000Z</time>
      </trkpt>
      <trkpt lat="45.22188" lon="5.73403">
        <ele>987.79998779297</ele>
        <time>2021-07-17T07:23:20.000Z</time>
      </trkpt>
      <trkpt lat="45.22186" lon="5.73402">
        <ele>988.79998779297</ele>
        <time>2021-07-17T07:23:23.000Z</time>
      </trkpt>
      <trkpt lat="45.22186" lon="5.73402">
        <ele>988.79998779297</ele>
        <time>2021-07-17T07:23:24.000Z</time>
      </trkpt>
      <trkpt lat="45.22182" lon="5.73402">
        <ele>990.20001220703</ele>
        <time>2021-07-17T07:23:29.000Z</time>
      </trkpt>
      <trkpt lat="45.22179" lon="5.73401">
        <ele>991</ele>
        <time>2021-07-17T07:23:32.000Z</time>
      </trkpt>
      <trkpt lat="45.22178" lon="5.734">
        <ele>991.40002441406</ele>
        <time>2021-07-17T07:23:34.000Z</time>
      </trkpt>
      <trkpt lat="45.22177" lon="5.734">
        <ele>991.59997558594</ele>
        <time>2021-07-17T07:23:35.000Z</time>
      </trkpt>
      <trkpt lat="45.22174" lon="5.73401">
        <ele>992.20001220703</ele>
        <time>2021-07-17T07:23:37.000Z</time>
      </trkpt>
      <trkpt lat="45.22173" lon="5.73401">
        <ele>992.59997558594</ele>
        <time>2021-07-17T07:23:38.000Z</time>
      </trkpt>
      <trkpt lat="45.22172" lon="5.73402">
        <ele>992.79998779297</ele>
        <time>2021-07-17T07:23:39.000Z</time>
      </trkpt>
      <trkpt lat="45.22172" lon="5.73403">
        <ele>993</ele>
        <time>2021-07-17T07:23:41.000Z</time>
      </trkpt>
      <trkpt lat="45.22172" lon="5.73404">
        <ele>993.40002441406</ele>
        <time>2021-07-17T07:23:43.000Z</time>
      </trkpt>
      <trkpt lat="45.22171" lon="5.73405">
        <ele>994</ele>
        <time>2021-07-17T07:23:44.000Z</time>
      </trkpt>
      <trkpt lat="45.22169" lon="5.73406">
        <ele>994.40002441406</ele>
        <time>2021-07-17T07:23:45.000Z</time>
      </trkpt>
      <trkpt lat="45.22168" lon="5.73406">
        <ele>994.59997558594</ele>
        <time>2021-07-17T07:23:47.000Z</time>
      </trkpt>
      <trkpt lat="45.22167" lon="5.73406">
        <ele>995.40002441406</ele>
        <time>2021-07-17T07:23:49.000Z</time>
      </trkpt>
      <trkpt lat="45.22166" lon="5.73406">
        <ele>995.79998779297</ele>
        <time>2021-07-17T07:23:50.000Z</time>
      </trkpt>
      <trkpt lat="45.22166" lon="5.73406">
        <ele>996.59997558594</ele>
        <time>2021-07-17T07:23:51.000Z</time>
      </trkpt>
      <trkpt lat="45.22162" lon="5.73407">
        <ele>997.40002441406</ele>
        <time>2021-07-17T07:23:55.000Z</time>
      </trkpt>
      <trkpt lat="45.22161" lon="5.73407">
        <ele>998</ele>
        <time>2021-07-17T07:23:57.000Z</time>
      </trkpt>
      <trkpt lat="45.2216" lon="5.73408">
        <ele>998.40002441406</ele>
        <time>2021-07-17T07:23:59.000Z</time>
      </trkpt>
      <trkpt lat="45.22158" lon="5.73408">
        <ele>998.59997558594</ele>
        <time>2021-07-17T07:24:01.000Z</time>
      </trkpt>
      <trkpt lat="45.22155" lon="5.73409">
        <ele>999</ele>
        <time>2021-07-17T07:24:04.000Z</time>
      </trkpt>
      <trkpt lat="45.22154" lon="5.7341">
        <ele>1000.200012207</ele>
        <time>2021-07-17T07:24:05.000Z</time>
      </trkpt>
      <trkpt lat="45.2215" lon="5.73409">
        <ele>1001</ele>
        <time>2021-07-17T07:24:09.000Z</time>
      </trkpt>
      <trkpt lat="45.22146" lon="5.73408">
        <ele>1001.5999755859</ele>
        <time>2021-07-17T07:24:13.000Z</time>
      </trkpt>
      <trkpt lat="45.22145" lon="5.73407">
        <ele>1002.5999755859</ele>
        <time>2021-07-17T07:24:15.000Z</time>
      </trkpt>
      <trkpt lat="45.22144" lon="5.73406">
        <ele>1003.200012207</ele>
        <time>2021-07-17T07:24:16.000Z</time>
      </trkpt>
      <trkpt lat="45.22139" lon="5.73409">
        <ele>1003.799987793</ele>
        <time>2021-07-17T07:24:20.000Z</time>
      </trkpt>
      <trkpt lat="45.22138" lon="5.73409">
        <ele>1004.4000244141</ele>
        <time>2021-07-17T07:24:21.000Z</time>
      </trkpt>
      <trkpt lat="45.22138" lon="5.73407">
        <ele>1004.799987793</ele>
        <time>2021-07-17T07:24:23.000Z</time>
      </trkpt>
      <trkpt lat="45.22134" lon="5.73406">
        <ele>1005.799987793</ele>
        <time>2021-07-17T07:24:28.000Z</time>
      </trkpt>
      <trkpt lat="45.22132" lon="5.73404">
        <ele>1006.799987793</ele>
        <time>2021-07-17T07:24:31.000Z</time>
      </trkpt>
      <trkpt lat="45.22131" lon="5.73403">
        <ele>1006.799987793</ele>
        <time>2021-07-17T07:24:32.000Z</time>
      </trkpt>
      <trkpt lat="45.22125" lon="5.73404">
        <ele>1007.799987793</ele>
        <time>2021-07-17T07:24:38.000Z</time>
      </trkpt>
      <trkpt lat="45.22124" lon="5.73405">
        <ele>1008.5999755859</ele>
        <time>2021-07-17T07:24:39.000Z</time>
      </trkpt>
      <trkpt lat="45.22119" lon="5.73401">
        <ele>1009.799987793</ele>
        <time>2021-07-17T07:24:45.000Z</time>
      </trkpt>
      <trkpt lat="45.22117" lon="5.73401">
        <ele>1010.799987793</ele>
        <time>2021-07-17T07:24:48.000Z</time>
      </trkpt>
      <trkpt lat="45.22115" lon="5.73401">
        <ele>1011.200012207</ele>
        <time>2021-07-17T07:24:50.000Z</time>
      </trkpt>
      <trkpt lat="45.22113" lon="5.73401">
        <ele>1011.4000244141</ele>
        <time>2021-07-17T07:24:51.000Z</time>
      </trkpt>
      <trkpt lat="45.2211" lon="5.73403">
        <ele>1012.200012207</ele>
        <time>2021-07-17T07:24:54.000Z</time>
      </trkpt>
      <trkpt lat="45.22108" lon="5.73401">
        <ele>1012.5999755859</ele>
        <time>2021-07-17T07:24:58.000Z</time>
      </trkpt>
      <trkpt lat="45.22107" lon="5.73402">
        <ele>1012.5999755859</ele>
        <time>2021-07-17T07:24:59.000Z</time>
      </trkpt>
      <trkpt lat="45.22107" lon="5.73402">
        <ele>1013</ele>
        <time>2021-07-17T07:25:00.000Z</time>
      </trkpt>
      <trkpt lat="45.22106" lon="5.73402">
        <ele>1013.200012207</ele>
        <time>2021-07-17T07:25:01.000Z</time>
      </trkpt>
      <trkpt lat="45.22103" lon="5.73402">
        <ele>1014.200012207</ele>
        <time>2021-07-17T07:25:04.000Z</time>
      </trkpt>
      <trkpt lat="45.22103" lon="5.73402">
        <ele>1014.5999755859</ele>
        <time>2021-07-17T07:25:05.000Z</time>
      </trkpt>
      <trkpt lat="45.22097" lon="5.734">
        <ele>1015.799987793</ele>
        <time>2021-07-17T07:25:10.000Z</time>
      </trkpt>
      <trkpt lat="45.22096" lon="5.73398">
        <ele>1016.5999755859</ele>
        <time>2021-07-17T07:25:11.000Z</time>
      </trkpt>
      <trkpt lat="45.22094" lon="5.73397">
        <ele>1016.799987793</ele>
        <time>2021-07-17T07:25:13.000Z</time>
      </trkpt>
      <trkpt lat="45.22092" lon="5.73393">
        <ele>1017.5999755859</ele>
        <time>2021-07-17T07:25:16.000Z</time>
      </trkpt>
      <trkpt lat="45.2209" lon="5.73391">
        <ele>1018</ele>
        <time>2021-07-17T07:25:19.000Z</time>
      </trkpt>
      <trkpt lat="45.22089" lon="5.73389">
        <ele>1019</ele>
        <time>2021-07-17T07:25:21.000Z</time>
      </trkpt>
      <trkpt lat="45.22087" lon="5.73388">
        <ele>1019.4000244141</ele>
        <time>2021-07-17T07:25:23.000Z</time>
      </trkpt>
      <trkpt lat="45.22086" lon="5.73387">
        <ele>1020.200012207</ele>
        <time>2021-07-17T07:25:25.000Z</time>
      </trkpt>
      <trkpt lat="45.22086" lon="5.73387">
        <ele>1020.4000244141</ele>
        <time>2021-07-17T07:25:26.000Z</time>
      </trkpt>
      <trkpt lat="45.22083" lon="5.73388">
        <ele>1020.799987793</ele>
        <time>2021-07-17T07:25:29.000Z</time>
      </trkpt>
      <trkpt lat="45.22083" lon="5.73389">
        <ele>1021.200012207</ele>
        <time>2021-07-17T07:25:30.000Z</time>
      </trkpt>
      <trkpt lat="45.22082" lon="5.73389">
        <ele>1022</ele>
        <time>2021-07-17T07:25:31.000Z</time>
      </trkpt>
      <trkpt lat="45.22081" lon="5.73391">
        <ele>1022</ele>
        <time>2021-07-17T07:25:32.000Z</time>
      </trkpt>
      <trkpt lat="45.22081" lon="5.73393">
        <ele>1022</ele>
        <time>2021-07-17T07:25:33.000Z</time>
      </trkpt>
      <trkpt lat="45.2208" lon="5.73402">
        <ele>1023</ele>
        <time>2021-07-17T07:25:39.000Z</time>
      </trkpt>
      <trkpt lat="45.22082" lon="5.73404">
        <ele>1023.4000244141</ele>
        <time>2021-07-17T07:25:41.000Z</time>
      </trkpt>
      <trkpt lat="45.22083" lon="5.73405">
        <ele>1023.5999755859</ele>
        <time>2021-07-17T07:25:42.000Z</time>
      </trkpt>
      <trkpt lat="45.22084" lon="5.73407">
        <ele>1023.5999755859</ele>
        <time>2021-07-17T07:25:43.000Z</time>
      </trkpt>
      <trkpt lat="45.22084" lon="5.73413">
        <ele>1024.4000244141</ele>
        <time>2021-07-17T07:25:46.000Z</time>
      </trkpt>
      <trkpt lat="45.22085" lon="5.73418">
        <ele>1025.1999511719</ele>
        <time>2021-07-17T07:25:50.000Z</time>
      </trkpt>
      <trkpt lat="45.22084" lon="5.73422">
        <ele>1026</ele>
        <time>2021-07-17T07:25:53.000Z</time>
      </trkpt>
      <trkpt lat="45.22085" lon="5.73427">
        <ele>1027</ele>
        <time>2021-07-17T07:25:57.000Z</time>
      </trkpt>
      <trkpt lat="45.22085" lon="5.73427">
        <ele>1027.1999511719</ele>
        <time>2021-07-17T07:25:58.000Z</time>
      </trkpt>
      <trkpt lat="45.22087" lon="5.7343">
        <ele>1027.5999755859</ele>
        <time>2021-07-17T07:26:00.000Z</time>
      </trkpt>
      <trkpt lat="45.22087" lon="5.73431">
        <ele>1028.5999755859</ele>
        <time>2021-07-17T07:26:03.000Z</time>
      </trkpt>
      <trkpt lat="45.22087" lon="5.73432">
        <ele>1029.4000244141</ele>
        <time>2021-07-17T07:26:05.000Z</time>
      </trkpt>
      <trkpt lat="45.22089" lon="5.73433">
        <ele>1029.5999755859</ele>
        <time>2021-07-17T07:26:07.000Z</time>
      </trkpt>
      <trkpt lat="45.22089" lon="5.73436">
        <ele>1030</ele>
        <time>2021-07-17T07:26:10.000Z</time>
      </trkpt>
      <trkpt lat="45.22089" lon="5.73437">
        <ele>1030.5999755859</ele>
        <time>2021-07-17T07:26:11.000Z</time>
      </trkpt>
      <trkpt lat="45.22089" lon="5.73437">
        <ele>1031.1999511719</ele>
        <time>2021-07-17T07:26:12.000Z</time>
      </trkpt>
      <trkpt lat="45.22089" lon="5.73438">
        <ele>1031.5999755859</ele>
        <time>2021-07-17T07:26:15.000Z</time>
      </trkpt>
      <trkpt lat="45.22089" lon="5.73439">
        <ele>1032.5999755859</ele>
        <time>2021-07-17T07:26:16.000Z</time>
      </trkpt>
      <trkpt lat="45.2209" lon="5.73444">
        <ele>1033.8000488281</ele>
        <time>2021-07-17T07:26:22.000Z</time>
      </trkpt>
      <trkpt lat="45.2209" lon="5.73444">
        <ele>1033.8000488281</ele>
        <time>2021-07-17T07:26:23.000Z</time>
      </trkpt>
      <trkpt lat="45.22091" lon="5.73446">
        <ele>1035</ele>
        <time>2021-07-17T07:26:26.000Z</time>
      </trkpt>
      <trkpt lat="45.22091" lon="5.73448">
        <ele>1035.1999511719</ele>
        <time>2021-07-17T07:26:29.000Z</time>
      </trkpt>
      <trkpt lat="45.2209" lon="5.73452">
        <ele>1036.8000488281</ele>
        <time>2021-07-17T07:26:32.000Z</time>
      </trkpt>
      <trkpt lat="45.22087" lon="5.73454">
        <ele>1037</ele>
        <time>2021-07-17T07:26:35.000Z</time>
      </trkpt>
      <trkpt lat="45.22085" lon="5.73455">
        <ele>1037.4000244141</ele>
        <time>2021-07-17T07:26:40.000Z</time>
      </trkpt>
      <trkpt lat="45.22084" lon="5.73456">
        <ele>1037.5999755859</ele>
        <time>2021-07-17T07:26:41.000Z</time>
      </trkpt>
      <trkpt lat="45.22083" lon="5.73457">
        <ele>1038.8000488281</ele>
        <time>2021-07-17T07:26:43.000Z</time>
      </trkpt>
      <trkpt lat="45.2208" lon="5.73459">
        <ele>1039</ele>
        <time>2021-07-17T07:26:45.000Z</time>
      </trkpt>
      <trkpt lat="45.22077" lon="5.73461">
        <ele>1039.1999511719</ele>
        <time>2021-07-17T07:26:48.000Z</time>
      </trkpt>
      <trkpt lat="45.22077" lon="5.73461">
        <ele>1039.8000488281</ele>
        <time>2021-07-17T07:26:50.000Z</time>
      </trkpt>
      <trkpt lat="45.22077" lon="5.73461">
        <ele>1040</ele>
        <time>2021-07-17T07:26:51.000Z</time>
      </trkpt>
      <trkpt lat="45.22077" lon="5.73463">
        <ele>1041</ele>
        <time>2021-07-17T07:26:55.000Z</time>
      </trkpt>
      <trkpt lat="45.22076" lon="5.73466">
        <ele>1042</ele>
        <time>2021-07-17T07:26:58.000Z</time>
      </trkpt>
      <trkpt lat="45.22073" lon="5.73466">
        <ele>1042.8000488281</ele>
        <time>2021-07-17T07:27:00.000Z</time>
      </trkpt>
      <trkpt lat="45.22072" lon="5.73467">
        <ele>1042.8000488281</ele>
        <time>2021-07-17T07:27:01.000Z</time>
      </trkpt>
      <trkpt lat="45.22072" lon="5.73468">
        <ele>1043.1999511719</ele>
        <time>2021-07-17T07:27:02.000Z</time>
      </trkpt>
      <trkpt lat="45.22071" lon="5.73468">
        <ele>1043.5999755859</ele>
        <time>2021-07-17T07:27:03.000Z</time>
      </trkpt>
      <trkpt lat="45.22072" lon="5.73472">
        <ele>1044.1999511719</ele>
        <time>2021-07-17T07:27:07.000Z</time>
      </trkpt>
      <trkpt lat="45.22071" lon="5.73474">
        <ele>1045.4000244141</ele>
        <time>2021-07-17T07:27:09.000Z</time>
      </trkpt>
      <trkpt lat="45.22071" lon="5.73479">
        <ele>1046.1999511719</ele>
        <time>2021-07-17T07:27:13.000Z</time>
      </trkpt>
      <trkpt lat="45.22071" lon="5.7348">
        <ele>1046.1999511719</ele>
        <time>2021-07-17T07:27:14.000Z</time>
      </trkpt>
      <trkpt lat="45.22068" lon="5.73482">
        <ele>1046.5999755859</ele>
        <time>2021-07-17T07:27:16.000Z</time>
      </trkpt>
      <trkpt lat="45.22064" lon="5.73484">
        <ele>1047.4000244141</ele>
        <time>2021-07-17T07:27:19.000Z</time>
      </trkpt>
      <trkpt lat="45.22063" lon="5.73484">
        <ele>1047.5999755859</ele>
        <time>2021-07-17T07:27:20.000Z</time>
      </trkpt>
      <trkpt lat="45.22061" lon="5.73486">
        <ele>1047.5999755859</ele>
        <time>2021-07-17T07:27:22.000Z</time>
      </trkpt>
      <trkpt lat="45.22055" lon="5.73486">
        <ele>1048.1999511719</ele>
        <time>2021-07-17T07:27:27.000Z</time>
      </trkpt>
      <trkpt lat="45.22052" lon="5.73486">
        <ele>1048.5999755859</ele>
        <time>2021-07-17T07:27:29.000Z</time>
      </trkpt>
      <trkpt lat="45.22051" lon="5.73486">
        <ele>1048.8000488281</ele>
        <time>2021-07-17T07:27:30.000Z</time>
      </trkpt>
      <trkpt lat="45.22047" lon="5.73482">
        <ele>1049.1999511719</ele>
        <time>2021-07-17T07:27:33.000Z</time>
      </trkpt>
      <trkpt lat="45.22043" lon="5.73478">
        <ele>1049.8000488281</ele>
        <time>2021-07-17T07:27:37.000Z</time>
      </trkpt>
      <trkpt lat="45.22039" lon="5.73474">
        <ele>1051</ele>
        <time>2021-07-17T07:27:41.000Z</time>
      </trkpt>
      <trkpt lat="45.22037" lon="5.73472">
        <ele>1051.4000244141</ele>
        <time>2021-07-17T07:27:43.000Z</time>
      </trkpt>
      <trkpt lat="45.22036" lon="5.73472">
        <ele>1051.8000488281</ele>
        <time>2021-07-17T07:27:44.000Z</time>
      </trkpt>
      <trkpt lat="45.22035" lon="5.73472">
        <ele>1052.1999511719</ele>
        <time>2021-07-17T07:27:45.000Z</time>
      </trkpt>
      <trkpt lat="45.22032" lon="5.73472">
        <ele>1052.5999755859</ele>
        <time>2021-07-17T07:27:48.000Z</time>
      </trkpt>
      <trkpt lat="45.2203" lon="5.73469">
        <ele>1053.1999511719</ele>
        <time>2021-07-17T07:27:50.000Z</time>
      </trkpt>
      <trkpt lat="45.22026" lon="5.73465">
        <ele>1054.1999511719</ele>
        <time>2021-07-17T07:27:54.000Z</time>
      </trkpt>
      <trkpt lat="45.22024" lon="5.73461">
        <ele>1054.4000244141</ele>
        <time>2021-07-17T07:27:56.000Z</time>
      </trkpt>
      <trkpt lat="45.22019" lon="5.73456">
        <ele>1055.4000244141</ele>
        <time>2021-07-17T07:27:59.000Z</time>
      </trkpt>
      <trkpt lat="45.22017" lon="5.73455">
        <ele>1055.4000244141</ele>
        <time>2021-07-17T07:28:00.000Z</time>
      </trkpt>
      <trkpt lat="45.22013" lon="5.73452">
        <ele>1056.1999511719</ele>
        <time>2021-07-17T07:28:03.000Z</time>
      </trkpt>
      <trkpt lat="45.22012" lon="5.73451">
        <ele>1056.4000244141</ele>
        <time>2021-07-17T07:28:04.000Z</time>
      </trkpt>
      <trkpt lat="45.22011" lon="5.73451">
        <ele>1056.5999755859</ele>
        <time>2021-07-17T07:28:05.000Z</time>
      </trkpt>
      <trkpt lat="45.22008" lon="5.73449">
        <ele>1056.5999755859</ele>
        <time>2021-07-17T07:28:07.000Z</time>
      </trkpt>
      <trkpt lat="45.22004" lon="5.73448">
        <ele>1057</ele>
        <time>2021-07-17T07:28:09.000Z</time>
      </trkpt>
      <trkpt lat="45.22003" lon="5.73447">
        <ele>1057</ele>
        <time>2021-07-17T07:28:10.000Z</time>
      </trkpt>
      <trkpt lat="45.21998" lon="5.73447">
        <ele>1057.4000244141</ele>
        <time>2021-07-17T07:28:13.000Z</time>
      </trkpt>
      <trkpt lat="45.2199" lon="5.73447">
        <ele>1056.5999755859</ele>
        <time>2021-07-17T07:28:18.000Z</time>
      </trkpt>
      <trkpt lat="45.21989" lon="5.73446">
        <ele>1056.5999755859</ele>
        <time>2021-07-17T07:28:19.000Z</time>
      </trkpt>
      <trkpt lat="45.21986" lon="5.73444">
        <ele>1056.1999511719</ele>
        <time>2021-07-17T07:28:21.000Z</time>
      </trkpt>
      <trkpt lat="45.21982" lon="5.73443">
        <ele>1055</ele>
        <time>2021-07-17T07:28:23.000Z</time>
      </trkpt>
      <trkpt lat="45.21975" lon="5.73441">
        <ele>1054.8000488281</ele>
        <time>2021-07-17T07:28:26.000Z</time>
      </trkpt>
      <trkpt lat="45.21972" lon="5.7344">
        <ele>1054</ele>
        <time>2021-07-17T07:28:28.000Z</time>
      </trkpt>
      <trkpt lat="45.21968" lon="5.73438">
        <ele>1053.4000244141</ele>
        <time>2021-07-17T07:28:31.000Z</time>
      </trkpt>
      <trkpt lat="45.21964" lon="5.73437">
        <ele>1053.1999511719</ele>
        <time>2021-07-17T07:28:33.000Z</time>
      </trkpt>
      <trkpt lat="45.2196" lon="5.73437">
        <ele>1053</ele>
        <time>2021-07-17T07:28:36.000Z</time>
      </trkpt>
      <trkpt lat="45.21953" lon="5.73439">
        <ele>1052.5999755859</ele>
        <time>2021-07-17T07:28:40.000Z</time>
      </trkpt>
      <trkpt lat="45.21945" lon="5.73436">
        <ele>1051.8000488281</ele>
        <time>2021-07-17T07:28:46.000Z</time>
      </trkpt>
      <trkpt lat="45.21943" lon="5.73435">
        <ele>1051</ele>
        <time>2021-07-17T07:28:48.000Z</time>
      </trkpt>
      <trkpt lat="45.21942" lon="5.73433">
        <ele>1050.8000488281</ele>
        <time>2021-07-17T07:28:51.000Z</time>
      </trkpt>
      <trkpt lat="45.21941" lon="5.73431">
        <ele>1050.8000488281</ele>
        <time>2021-07-17T07:28:52.000Z</time>
      </trkpt>
      <trkpt lat="45.21938" lon="5.73426">
        <ele>1050.5999755859</ele>
        <time>2021-07-17T07:28:55.000Z</time>
      </trkpt>
      <trkpt lat="45.21936" lon="5.73425">
        <ele>1050</ele>
        <time>2021-07-17T07:28:57.000Z</time>
      </trkpt>
      <trkpt lat="45.21935" lon="5.73424">
        <ele>1049.8000488281</ele>
        <time>2021-07-17T07:28:58.000Z</time>
      </trkpt>
      <trkpt lat="45.21935" lon="5.73422">
        <ele>1049.5999755859</ele>
        <time>2021-07-17T07:28:59.000Z</time>
      </trkpt>
      <trkpt lat="45.21934" lon="5.7342">
        <ele>1049.8000488281</ele>
        <time>2021-07-17T07:29:00.000Z</time>
      </trkpt>
      <trkpt lat="45.21931" lon="5.73416">
        <ele>1049.1999511719</ele>
        <time>2021-07-17T07:29:03.000Z</time>
      </trkpt>
      <trkpt lat="45.21928" lon="5.73413">
        <ele>1049.1999511719</ele>
        <time>2021-07-17T07:29:05.000Z</time>
      </trkpt>
      <trkpt lat="45.21927" lon="5.73411">
        <ele>1048.8000488281</ele>
        <time>2021-07-17T07:29:06.000Z</time>
      </trkpt>
      <trkpt lat="45.21922" lon="5.73405">
        <ele>1048.8000488281</ele>
        <time>2021-07-17T07:29:10.000Z</time>
      </trkpt>
      <trkpt lat="45.21917" lon="5.73403">
        <ele>1049.4000244141</ele>
        <time>2021-07-17T07:29:13.000Z</time>
      </trkpt>
      <trkpt lat="45.21916" lon="5.73401">
        <ele>1050</ele>
        <time>2021-07-17T07:29:14.000Z</time>
      </trkpt>
      <trkpt lat="45.21913" lon="5.73398">
        <ele>1050.4000244141</ele>
        <time>2021-07-17T07:29:16.000Z</time>
      </trkpt>
      <trkpt lat="45.21912" lon="5.73397">
        <ele>1050.1999511719</ele>
        <time>2021-07-17T07:29:17.000Z</time>
      </trkpt>
      <trkpt lat="45.21906" lon="5.73393">
        <ele>1050</ele>
        <time>2021-07-17T07:29:21.000Z</time>
      </trkpt>
      <trkpt lat="45.21901" lon="5.73392">
        <ele>1049.8000488281</ele>
        <time>2021-07-17T07:29:24.000Z</time>
      </trkpt>
      <trkpt lat="45.219" lon="5.73391">
        <ele>1049.8000488281</ele>
        <time>2021-07-17T07:29:25.000Z</time>
      </trkpt>
      <trkpt lat="45.21898" lon="5.73386">
        <ele>1049.5999755859</ele>
        <time>2021-07-17T07:29:28.000Z</time>
      </trkpt>
      <trkpt lat="45.21894" lon="5.73383">
        <ele>1049.5999755859</ele>
        <time>2021-07-17T07:29:31.000Z</time>
      </trkpt>
      <trkpt lat="45.21889" lon="5.73378">
        <ele>1049.1999511719</ele>
        <time>2021-07-17T07:29:35.000Z</time>
      </trkpt>
      <trkpt lat="45.21886" lon="5.73373">
        <ele>1049.1999511719</ele>
        <time>2021-07-17T07:29:38.000Z</time>
      </trkpt>
      <trkpt lat="45.21882" lon="5.73371">
        <ele>1049.5999755859</ele>
        <time>2021-07-17T07:29:42.000Z</time>
      </trkpt>
      <trkpt lat="45.21878" lon="5.73368">
        <ele>1049.8000488281</ele>
        <time>2021-07-17T07:29:45.000Z</time>
      </trkpt>
      <trkpt lat="45.21874" lon="5.73363">
        <ele>1050.5999755859</ele>
        <time>2021-07-17T07:29:48.000Z</time>
      </trkpt>
      <trkpt lat="45.21872" lon="5.73363">
        <ele>1050.8000488281</ele>
        <time>2021-07-17T07:29:49.000Z</time>
      </trkpt>
      <trkpt lat="45.21866" lon="5.7336">
        <ele>1051.4000244141</ele>
        <time>2021-07-17T07:29:53.000Z</time>
      </trkpt>
      <trkpt lat="45.21865" lon="5.73359">
        <ele>1051.8000488281</ele>
        <time>2021-07-17T07:29:54.000Z</time>
      </trkpt>
      <trkpt lat="45.21862" lon="5.73358">
        <ele>1052.8000488281</ele>
        <time>2021-07-17T07:29:57.000Z</time>
      </trkpt>
      <trkpt lat="45.21861" lon="5.73358">
        <ele>1052.8000488281</ele>
        <time>2021-07-17T07:29:58.000Z</time>
      </trkpt>
      <trkpt lat="45.21857" lon="5.73356">
        <ele>1053.8000488281</ele>
        <time>2021-07-17T07:30:02.000Z</time>
      </trkpt>
      <trkpt lat="45.21855" lon="5.73354">
        <ele>1054.8000488281</ele>
        <time>2021-07-17T07:30:05.000Z</time>
      </trkpt>
      <trkpt lat="45.21854" lon="5.73353">
        <ele>1055</ele>
        <time>2021-07-17T07:30:06.000Z</time>
      </trkpt>
      <trkpt lat="45.21851" lon="5.73351">
        <ele>1056</ele>
        <time>2021-07-17T07:30:09.000Z</time>
      </trkpt>
      <trkpt lat="45.21848" lon="5.73346">
        <ele>1056.1999511719</ele>
        <time>2021-07-17T07:30:15.000Z</time>
      </trkpt>
      <trkpt lat="45.21848" lon="5.73346">
        <ele>1056.1999511719</ele>
        <time>2021-07-17T07:30:21.000Z</time>
      </trkpt>
      <trkpt lat="45.21849" lon="5.73344">
        <ele>1056.1999511719</ele>
        <time>2021-07-17T07:30:30.000Z</time>
      </trkpt>
      <trkpt lat="45.21848" lon="5.73348">
        <ele>1056</ele>
        <time>2021-07-17T07:30:40.000Z</time>
      </trkpt>
      <trkpt lat="45.21848" lon="5.73349">
        <ele>1056</ele>
        <time>2021-07-17T07:30:41.000Z</time>
      </trkpt>
      <trkpt lat="45.21847" lon="5.73357">
        <ele>1056</ele>
        <time>2021-07-17T07:30:49.000Z</time>
      </trkpt>
      <trkpt lat="45.21847" lon="5.73358">
        <ele>1056</ele>
        <time>2021-07-17T07:30:54.000Z</time>
      </trkpt>
      <trkpt lat="45.21846" lon="5.73358">
        <ele>1056</ele>
        <time>2021-07-17T07:30:57.000Z</time>
      </trkpt>
      <trkpt lat="45.21846" lon="5.73358">
        <ele>1056</ele>
        <time>2021-07-17T07:30:59.000Z</time>
      </trkpt>
      <trkpt lat="45.21846" lon="5.73358">
        <ele>1056</ele>
        <time>2021-07-17T07:31:02.000Z</time>
      </trkpt>
      <trkpt lat="45.21846" lon="5.73358">
        <ele>1056</ele>
        <time>2021-07-17T07:31:03.000Z</time>
      </trkpt>
      <trkpt lat="45.21846" lon="5.73358">
        <ele>1056</ele>
        <time>2021-07-17T07:31:13.000Z</time>
      </trkpt>
      <trkpt lat="45.21845" lon="5.7336">
        <ele>1055.8000488281</ele>
        <time>2021-07-17T07:31:31.000Z</time>
      </trkpt>
      <trkpt lat="45.21846" lon="5.73353">
        <ele>1056</ele>
        <time>2021-07-17T07:31:48.000Z</time>
      </trkpt>
      <trkpt lat="45.21845" lon="5.73344">
        <ele>1055.8000488281</ele>
        <time>2021-07-17T07:31:54.000Z</time>
      </trkpt>
      <trkpt lat="45.21842" lon="5.73341">
        <ele>1055.4000244141</ele>
        <time>2021-07-17T07:31:59.000Z</time>
      </trkpt>
      <trkpt lat="45.21837" lon="5.73336">
        <ele>1055.5999755859</ele>
        <time>2021-07-17T07:32:05.000Z</time>
      </trkpt>
      <trkpt lat="45.21835" lon="5.73335">
        <ele>1055.5999755859</ele>
        <time>2021-07-17T07:32:07.000Z</time>
      </trkpt>
      <trkpt lat="45.21832" lon="5.7333">
        <ele>1055</ele>
        <time>2021-07-17T07:32:11.000Z</time>
      </trkpt>
      <trkpt lat="45.21831" lon="5.73329">
        <ele>1054.8000488281</ele>
        <time>2021-07-17T07:32:12.000Z</time>
      </trkpt>
      <trkpt lat="45.21829" lon="5.73326">
        <ele>1054.4000244141</ele>
        <time>2021-07-17T07:32:15.000Z</time>
      </trkpt>
      <trkpt lat="45.21828" lon="5.73324">
        <ele>1053.8000488281</ele>
        <time>2021-07-17T07:32:18.000Z</time>
      </trkpt>
      <trkpt lat="45.21827" lon="5.73324">
        <ele>1053.5999755859</ele>
        <time>2021-07-17T07:32:19.000Z</time>
      </trkpt>
      <trkpt lat="45.21825" lon="5.7332">
        <ele>1053.1999511719</ele>
        <time>2021-07-17T07:32:22.000Z</time>
      </trkpt>
      <trkpt lat="45.21825" lon="5.73319">
        <ele>1053.1999511719</ele>
        <time>2021-07-17T07:32:23.000Z</time>
      </trkpt>
      <trkpt lat="45.21823" lon="5.73318">
        <ele>1052.8000488281</ele>
        <time>2021-07-17T07:32:25.000Z</time>
      </trkpt>
      <trkpt lat="45.21822" lon="5.73316">
        <ele>1052.5999755859</ele>
        <time>2021-07-17T07:32:26.000Z</time>
      </trkpt>
      <trkpt lat="45.21819" lon="5.73312">
        <ele>1051.4000244141</ele>
        <time>2021-07-17T07:32:29.000Z</time>
      </trkpt>
      <trkpt lat="45.21815" lon="5.73309">
        <ele>1051.1999511719</ele>
        <time>2021-07-17T07:32:32.000Z</time>
      </trkpt>
      <trkpt lat="45.21811" lon="5.73304">
        <ele>1050</ele>
        <time>2021-07-17T07:32:37.000Z</time>
      </trkpt>
      <trkpt lat="45.21809" lon="5.73302">
        <ele>1049.8000488281</ele>
        <time>2021-07-17T07:32:38.000Z</time>
      </trkpt>
      <trkpt lat="45.21801" lon="5.73294">
        <ele>1048.8000488281</ele>
        <time>2021-07-17T07:32:43.000Z</time>
      </trkpt>
      <trkpt lat="45.21798" lon="5.7329">
        <ele>1048.5999755859</ele>
        <time>2021-07-17T07:32:45.000Z</time>
      </trkpt>
      <trkpt lat="45.21792" lon="5.73286">
        <ele>1047.8000488281</ele>
        <time>2021-07-17T07:32:49.000Z</time>
      </trkpt>
      <trkpt lat="45.21791" lon="5.73285">
        <ele>1047.5999755859</ele>
        <time>2021-07-17T07:32:50.000Z</time>
      </trkpt>
      <trkpt lat="45.2179" lon="5.73284">
        <ele>1047</ele>
        <time>2021-07-17T07:32:51.000Z</time>
      </trkpt>
      <trkpt lat="45.21788" lon="5.73282">
        <ele>1046.5999755859</ele>
        <time>2021-07-17T07:32:53.000Z</time>
      </trkpt>
      <trkpt lat="45.21787" lon="5.73281">
        <ele>1046.1999511719</ele>
        <time>2021-07-17T07:32:55.000Z</time>
      </trkpt>
      <trkpt lat="45.21784" lon="5.7328">
        <ele>1045.8000488281</ele>
        <time>2021-07-17T07:32:57.000Z</time>
      </trkpt>
      <trkpt lat="45.21781" lon="5.73277">
        <ele>1045.4000244141</ele>
        <time>2021-07-17T07:33:00.000Z</time>
      </trkpt>
      <trkpt lat="45.21779" lon="5.73274">
        <ele>1045</ele>
        <time>2021-07-17T07:33:03.000Z</time>
      </trkpt>
      <trkpt lat="45.21777" lon="5.7327">
        <ele>1045</ele>
        <time>2021-07-17T07:33:05.000Z</time>
      </trkpt>
      <trkpt lat="45.21777" lon="5.73269">
        <ele>1044.5999755859</ele>
        <time>2021-07-17T07:33:06.000Z</time>
      </trkpt>
      <trkpt lat="45.21779" lon="5.73265">
        <ele>1044.4000244141</ele>
        <time>2021-07-17T07:33:09.000Z</time>
      </trkpt>
      <trkpt lat="45.2178" lon="5.73264">
        <ele>1044</ele>
        <time>2021-07-17T07:33:10.000Z</time>
      </trkpt>
      <trkpt lat="45.2178" lon="5.7326">
        <ele>1043.1999511719</ele>
        <time>2021-07-17T07:33:13.000Z</time>
      </trkpt>
      <trkpt lat="45.21778" lon="5.73258">
        <ele>1042.4000244141</ele>
        <time>2021-07-17T07:33:16.000Z</time>
      </trkpt>
      <trkpt lat="45.21777" lon="5.73257">
        <ele>1042</ele>
        <time>2021-07-17T07:33:17.000Z</time>
      </trkpt>
      <trkpt lat="45.21775" lon="5.73251">
        <ele>1040.8000488281</ele>
        <time>2021-07-17T07:33:22.000Z</time>
      </trkpt>
      <trkpt lat="45.21774" lon="5.7325">
        <ele>1040.5999755859</ele>
        <time>2021-07-17T07:33:23.000Z</time>
      </trkpt>
      <trkpt lat="45.21774" lon="5.73247">
        <ele>1039.5999755859</ele>
        <time>2021-07-17T07:33:25.000Z</time>
      </trkpt>
      <trkpt lat="45.21771" lon="5.73245">
        <ele>1039</ele>
        <time>2021-07-17T07:33:29.000Z</time>
      </trkpt>
      <trkpt lat="45.2177" lon="5.73244">
        <ele>1039</ele>
        <time>2021-07-17T07:33:30.000Z</time>
      </trkpt>
      <trkpt lat="45.21764" lon="5.73238">
        <ele>1038.8000488281</ele>
        <time>2021-07-17T07:33:36.000Z</time>
      </trkpt>
      <trkpt lat="45.21762" lon="5.73234">
        <ele>1038.8000488281</ele>
        <time>2021-07-17T07:33:40.000Z</time>
      </trkpt>
      <trkpt lat="45.2176" lon="5.7323">
        <ele>1038.8000488281</ele>
        <time>2021-07-17T07:33:43.000Z</time>
      </trkpt>
      <trkpt lat="45.21757" lon="5.73224">
        <ele>1038.4000244141</ele>
        <time>2021-07-17T07:33:49.000Z</time>
      </trkpt>
      <trkpt lat="45.21756" lon="5.73222">
        <ele>1038</ele>
        <time>2021-07-17T07:33:50.000Z</time>
      </trkpt>
      <trkpt lat="45.21756" lon="5.73221">
        <ele>1037.8000488281</ele>
        <time>2021-07-17T07:33:51.000Z</time>
      </trkpt>
      <trkpt lat="45.21757" lon="5.73218">
        <ele>1037.5999755859</ele>
        <time>2021-07-17T07:33:54.000Z</time>
      </trkpt>
      <trkpt lat="45.21757" lon="5.73217">
        <ele>1037</ele>
        <time>2021-07-17T07:33:55.000Z</time>
      </trkpt>
      <trkpt lat="45.21757" lon="5.73216">
        <ele>1036.8000488281</ele>
        <time>2021-07-17T07:33:56.000Z</time>
      </trkpt>
      <trkpt lat="45.21755" lon="5.73211">
        <ele>1035.4000244141</ele>
        <time>2021-07-17T07:34:00.000Z</time>
      </trkpt>
      <trkpt lat="45.21751" lon="5.73207">
        <ele>1035.1999511719</ele>
        <time>2021-07-17T07:34:04.000Z</time>
      </trkpt>
      <trkpt lat="45.21744" lon="5.73207">
        <ele>1035.5999755859</ele>
        <time>2021-07-17T07:34:11.000Z</time>
      </trkpt>
      <trkpt lat="45.21739" lon="5.73208">
        <ele>1036.4000244141</ele>
        <time>2021-07-17T07:34:16.000Z</time>
      </trkpt>
      <trkpt lat="45.21737" lon="5.73208">
        <ele>1036.4000244141</ele>
        <time>2021-07-17T07:34:17.000Z</time>
      </trkpt>
      <trkpt lat="45.21736" lon="5.73209">
        <ele>1036.4000244141</ele>
        <time>2021-07-17T07:34:18.000Z</time>
      </trkpt>
      <trkpt lat="45.21733" lon="5.73213">
        <ele>1036</ele>
        <time>2021-07-17T07:34:22.000Z</time>
      </trkpt>
      <trkpt lat="45.21732" lon="5.73215">
        <ele>1035.5999755859</ele>
        <time>2021-07-17T07:34:25.000Z</time>
      </trkpt>
      <trkpt lat="45.21729" lon="5.73216">
        <ele>1035</ele>
        <time>2021-07-17T07:34:29.000Z</time>
      </trkpt>
      <trkpt lat="45.21729" lon="5.73216">
        <ele>1034.8000488281</ele>
        <time>2021-07-17T07:34:30.000Z</time>
      </trkpt>
      <trkpt lat="45.21728" lon="5.73217">
        <ele>1034.5999755859</ele>
        <time>2021-07-17T07:34:31.000Z</time>
      </trkpt>
      <trkpt lat="45.21728" lon="5.73218">
        <ele>1034.1999511719</ele>
        <time>2021-07-17T07:34:32.000Z</time>
      </trkpt>
      <trkpt lat="45.21727" lon="5.73219">
        <ele>1033.8000488281</ele>
        <time>2021-07-17T07:34:33.000Z</time>
      </trkpt>
      <trkpt lat="45.21726" lon="5.73219">
        <ele>1033.4000244141</ele>
        <time>2021-07-17T07:34:35.000Z</time>
      </trkpt>
      <trkpt lat="45.21725" lon="5.73219">
        <ele>1033.1999511719</ele>
        <time>2021-07-17T07:34:37.000Z</time>
      </trkpt>
      <trkpt lat="45.21725" lon="5.7322">
        <ele>1033</ele>
        <time>2021-07-17T07:34:38.000Z</time>
      </trkpt>
      <trkpt lat="45.21724" lon="5.73221">
        <ele>1032.5999755859</ele>
        <time>2021-07-17T07:34:39.000Z</time>
      </trkpt>
      <trkpt lat="45.21723" lon="5.73221">
        <ele>1032.4000244141</ele>
        <time>2021-07-17T07:34:40.000Z</time>
      </trkpt>
      <trkpt lat="45.21721" lon="5.73218">
        <ele>1032</ele>
        <time>2021-07-17T07:34:42.000Z</time>
      </trkpt>
      <trkpt lat="45.21719" lon="5.73218">
        <ele>1030.8000488281</ele>
        <time>2021-07-17T07:34:46.000Z</time>
      </trkpt>
      <trkpt lat="45.21719" lon="5.73218">
        <ele>1030.4000244141</ele>
        <time>2021-07-17T07:34:47.000Z</time>
      </trkpt>
      <trkpt lat="45.21718" lon="5.7322">
        <ele>1030.4000244141</ele>
        <time>2021-07-17T07:34:50.000Z</time>
      </trkpt>
      <trkpt lat="45.21716" lon="5.7322">
        <ele>1030</ele>
        <time>2021-07-17T07:34:52.000Z</time>
      </trkpt>
      <trkpt lat="45.21716" lon="5.73221">
        <ele>1030</ele>
        <time>2021-07-17T07:34:54.000Z</time>
      </trkpt>
      <trkpt lat="45.21715" lon="5.73223">
        <ele>1029.8000488281</ele>
        <time>2021-07-17T07:35:00.000Z</time>
      </trkpt>
      <trkpt lat="45.21713" lon="5.73225">
        <ele>1029.8000488281</ele>
        <time>2021-07-17T07:35:04.000Z</time>
      </trkpt>
      <trkpt lat="45.21713" lon="5.73225">
        <ele>1030</ele>
        <time>2021-07-17T07:35:11.000Z</time>
      </trkpt>
      <trkpt lat="45.21713" lon="5.73225">
        <ele>1029.8000488281</ele>
        <time>2021-07-17T07:35:12.000Z</time>
      </trkpt>
      <trkpt lat="45.21713" lon="5.73225">
        <ele>1029.8000488281</ele>
        <time>2021-07-17T07:35:16.000Z</time>
      </trkpt>
      <trkpt lat="45.21715" lon="5.73224">
        <ele>1029.8000488281</ele>
        <time>2021-07-17T07:35:27.000Z</time>
      </trkpt>
      <trkpt lat="45.21714" lon="5.73224">
        <ele>1029.8000488281</ele>
        <time>2021-07-17T07:35:37.000Z</time>
      </trkpt>
      <trkpt lat="45.21709" lon="5.73217">
        <ele>1029.8000488281</ele>
        <time>2021-07-17T07:35:56.000Z</time>
      </trkpt>
      <trkpt lat="45.21704" lon="5.73208">
        <ele>1029.8000488281</ele>
        <time>2021-07-17T07:36:02.000Z</time>
      </trkpt>
      <trkpt lat="45.21698" lon="5.73198">
        <ele>1029.4000244141</ele>
        <time>2021-07-17T07:36:08.000Z</time>
      </trkpt>
      <trkpt lat="45.21695" lon="5.73194">
        <ele>1029</ele>
        <time>2021-07-17T07:36:11.000Z</time>
      </trkpt>
      <trkpt lat="45.21691" lon="5.73187">
        <ele>1028.8000488281</ele>
        <time>2021-07-17T07:36:16.000Z</time>
      </trkpt>
      <trkpt lat="45.21689" lon="5.73185">
        <ele>1028.4000244141</ele>
        <time>2021-07-17T07:36:18.000Z</time>
      </trkpt>
      <trkpt lat="45.21687" lon="5.73182">
        <ele>1027.4000244141</ele>
        <time>2021-07-17T07:36:20.000Z</time>
      </trkpt>
      <trkpt lat="45.21686" lon="5.73179">
        <ele>1027.4000244141</ele>
        <time>2021-07-17T07:36:22.000Z</time>
      </trkpt>
      <trkpt lat="45.21685" lon="5.73177">
        <ele>1027</ele>
        <time>2021-07-17T07:36:23.000Z</time>
      </trkpt>
      <trkpt lat="45.21684" lon="5.73175">
        <ele>1026.5999755859</ele>
        <time>2021-07-17T07:36:25.000Z</time>
      </trkpt>
      <trkpt lat="45.21683" lon="5.73173">
        <ele>1026</ele>
        <time>2021-07-17T07:36:26.000Z</time>
      </trkpt>
      <trkpt lat="45.21682" lon="5.73171">
        <ele>1025.4000244141</ele>
        <time>2021-07-17T07:36:28.000Z</time>
      </trkpt>
      <trkpt lat="45.21681" lon="5.73169">
        <ele>1024.8000488281</ele>
        <time>2021-07-17T07:36:30.000Z</time>
      </trkpt>
      <trkpt lat="45.2168" lon="5.73167">
        <ele>1023.799987793</ele>
        <time>2021-07-17T07:36:32.000Z</time>
      </trkpt>
      <trkpt lat="45.21679" lon="5.73166">
        <ele>1023.799987793</ele>
        <time>2021-07-17T07:36:33.000Z</time>
      </trkpt>
      <trkpt lat="45.21678" lon="5.73165">
        <ele>1023.5999755859</ele>
        <time>2021-07-17T07:36:34.000Z</time>
      </trkpt>
      <trkpt lat="45.21677" lon="5.73161">
        <ele>1023</ele>
        <time>2021-07-17T07:36:37.000Z</time>
      </trkpt>
      <trkpt lat="45.21677" lon="5.7316">
        <ele>1022.200012207</ele>
        <time>2021-07-17T07:36:38.000Z</time>
      </trkpt>
      <trkpt lat="45.21676" lon="5.73157">
        <ele>1021.5999755859</ele>
        <time>2021-07-17T07:36:41.000Z</time>
      </trkpt>
      <trkpt lat="45.21675" lon="5.73156">
        <ele>1021.200012207</ele>
        <time>2021-07-17T07:36:42.000Z</time>
      </trkpt>
      <trkpt lat="45.21672" lon="5.7315">
        <ele>1020.200012207</ele>
        <time>2021-07-17T07:36:48.000Z</time>
      </trkpt>
      <trkpt lat="45.21669" lon="5.73146">
        <ele>1019.5999755859</ele>
        <time>2021-07-17T07:36:52.000Z</time>
      </trkpt>
      <trkpt lat="45.21668" lon="5.73146">
        <ele>1018.5999755859</ele>
        <time>2021-07-17T07:36:53.000Z</time>
      </trkpt>
      <trkpt lat="45.21667" lon="5.73145">
        <ele>1017.799987793</ele>
        <time>2021-07-17T07:36:56.000Z</time>
      </trkpt>
      <trkpt lat="45.21666" lon="5.73144">
        <ele>1017.799987793</ele>
        <time>2021-07-17T07:36:57.000Z</time>
      </trkpt>
      <trkpt lat="45.21665" lon="5.73143">
        <ele>1016.200012207</ele>
        <time>2021-07-17T07:36:58.000Z</time>
      </trkpt>
      <trkpt lat="45.21662" lon="5.7314">
        <ele>1015.200012207</ele>
        <time>2021-07-17T07:37:03.000Z</time>
      </trkpt>
      <trkpt lat="45.2166" lon="5.73139">
        <ele>1014</ele>
        <time>2021-07-17T07:37:06.000Z</time>
      </trkpt>
      <trkpt lat="45.2166" lon="5.73139">
        <ele>1013.799987793</ele>
        <time>2021-07-17T07:37:08.000Z</time>
      </trkpt>
      <trkpt lat="45.21659" lon="5.7314">
        <ele>1013.4000244141</ele>
        <time>2021-07-17T07:37:09.000Z</time>
      </trkpt>
      <trkpt lat="45.21658" lon="5.7314">
        <ele>1012.799987793</ele>
        <time>2021-07-17T07:37:10.000Z</time>
      </trkpt>
      <trkpt lat="45.21656" lon="5.7314">
        <ele>1012</ele>
        <time>2021-07-17T07:37:12.000Z</time>
      </trkpt>
      <trkpt lat="45.21655" lon="5.73139">
        <ele>1011.4000244141</ele>
        <time>2021-07-17T07:37:13.000Z</time>
      </trkpt>
      <trkpt lat="45.21653" lon="5.73138">
        <ele>1011.4000244141</ele>
        <time>2021-07-17T07:37:14.000Z</time>
      </trkpt>
      <trkpt lat="45.21646" lon="5.73139">
        <ele>1010.4000244141</ele>
        <time>2021-07-17T07:37:18.000Z</time>
      </trkpt>
      <trkpt lat="45.21644" lon="5.73139">
        <ele>1010</ele>
        <time>2021-07-17T07:37:19.000Z</time>
      </trkpt>
      <trkpt lat="45.21641" lon="5.73139">
        <ele>1009</ele>
        <time>2021-07-17T07:37:22.000Z</time>
      </trkpt>
      <trkpt lat="45.21638" lon="5.7314">
        <ele>1007.799987793</ele>
        <time>2021-07-17T07:37:24.000Z</time>
      </trkpt>
      <trkpt lat="45.21638" lon="5.7314">
        <ele>1007</ele>
        <time>2021-07-17T07:37:26.000Z</time>
      </trkpt>
      <trkpt lat="45.21636" lon="5.73141">
        <ele>1006.5999755859</ele>
        <time>2021-07-17T07:37:28.000Z</time>
      </trkpt>
      <trkpt lat="45.21635" lon="5.73141">
        <ele>1006.5999755859</ele>
        <time>2021-07-17T07:37:29.000Z</time>
      </trkpt>
      <trkpt lat="45.21631" lon="5.7314">
        <ele>1006.200012207</ele>
        <time>2021-07-17T07:37:32.000Z</time>
      </trkpt>
      <trkpt lat="45.21629" lon="5.73139">
        <ele>1005.200012207</ele>
        <time>2021-07-17T07:37:33.000Z</time>
      </trkpt>
      <trkpt lat="45.21623" lon="5.73138">
        <ele>1004.200012207</ele>
        <time>2021-07-17T07:37:36.000Z</time>
      </trkpt>
      <trkpt lat="45.21621" lon="5.73137">
        <ele>1004.200012207</ele>
        <time>2021-07-17T07:37:37.000Z</time>
      </trkpt>
      <trkpt lat="45.21618" lon="5.73136">
        <ele>1003.5999755859</ele>
        <time>2021-07-17T07:37:39.000Z</time>
      </trkpt>
      <trkpt lat="45.21615" lon="5.73134">
        <ele>1003</ele>
        <time>2021-07-17T07:37:41.000Z</time>
      </trkpt>
      <trkpt lat="45.2161" lon="5.73133">
        <ele>1001.5999755859</ele>
        <time>2021-07-17T07:37:43.000Z</time>
      </trkpt>
      <trkpt lat="45.21608" lon="5.73133">
        <ele>1000.799987793</ele>
        <time>2021-07-17T07:37:44.000Z</time>
      </trkpt>
      <trkpt lat="45.21607" lon="5.73133">
        <ele>1000.4000244141</ele>
        <time>2021-07-17T07:37:45.000Z</time>
      </trkpt>
      <trkpt lat="45.21605" lon="5.73132">
        <ele>1000.200012207</ele>
        <time>2021-07-17T07:37:46.000Z</time>
      </trkpt>
      <trkpt lat="45.21603" lon="5.7313">
        <ele>999.79998779297</ele>
        <time>2021-07-17T07:37:47.000Z</time>
      </trkpt>
      <trkpt lat="45.21598" lon="5.73125">
        <ele>999.20001220703</ele>
        <time>2021-07-17T07:37:49.000Z</time>
      </trkpt>
      <trkpt lat="45.21594" lon="5.73123">
        <ele>998.79998779297</ele>
        <time>2021-07-17T07:37:51.000Z</time>
      </trkpt>
      <trkpt lat="45.21591" lon="5.73122">
        <ele>998.79998779297</ele>
        <time>2021-07-17T07:37:53.000Z</time>
      </trkpt>
      <trkpt lat="45.21589" lon="5.73122">
        <ele>998</ele>
        <time>2021-07-17T07:37:54.000Z</time>
      </trkpt>
      <trkpt lat="45.21588" lon="5.73124">
        <ele>998</ele>
        <time>2021-07-17T07:37:55.000Z</time>
      </trkpt>
      <trkpt lat="45.21585" lon="5.73125">
        <ele>996.20001220703</ele>
        <time>2021-07-17T07:37:58.000Z</time>
      </trkpt>
      <trkpt lat="45.21583" lon="5.73128">
        <ele>994.79998779297</ele>
        <time>2021-07-17T07:38:03.000Z</time>
      </trkpt>
      <trkpt lat="45.21583" lon="5.73129">
        <ele>994.40002441406</ele>
        <time>2021-07-17T07:38:04.000Z</time>
      </trkpt>
      <trkpt lat="45.21583" lon="5.7313">
        <ele>994.20001220703</ele>
        <time>2021-07-17T07:38:05.000Z</time>
      </trkpt>
      <trkpt lat="45.21583" lon="5.73132">
        <ele>993.59997558594</ele>
        <time>2021-07-17T07:38:07.000Z</time>
      </trkpt>
      <trkpt lat="45.21583" lon="5.73136">
        <ele>992.20001220703</ele>
        <time>2021-07-17T07:38:10.000Z</time>
      </trkpt>
      <trkpt lat="45.21583" lon="5.73137">
        <ele>991.79998779297</ele>
        <time>2021-07-17T07:38:11.000Z</time>
      </trkpt>
      <trkpt lat="45.21582" lon="5.7314">
        <ele>991.59997558594</ele>
        <time>2021-07-17T07:38:13.000Z</time>
      </trkpt>
      <trkpt lat="45.21582" lon="5.73141">
        <ele>990.79998779297</ele>
        <time>2021-07-17T07:38:14.000Z</time>
      </trkpt>
      <trkpt lat="45.21579" lon="5.73143">
        <ele>990</ele>
        <time>2021-07-17T07:38:19.000Z</time>
      </trkpt>
      <trkpt lat="45.21579" lon="5.73144">
        <ele>989.20001220703</ele>
        <time>2021-07-17T07:38:20.000Z</time>
      </trkpt>
      <trkpt lat="45.21579" lon="5.73146">
        <ele>988</ele>
        <time>2021-07-17T07:38:22.000Z</time>
      </trkpt>
      <trkpt lat="45.21578" lon="5.73147">
        <ele>988</ele>
        <time>2021-07-17T07:38:23.000Z</time>
      </trkpt>
      <trkpt lat="45.21578" lon="5.7315">
        <ele>987.20001220703</ele>
        <time>2021-07-17T07:38:25.000Z</time>
      </trkpt>
      <trkpt lat="45.21578" lon="5.73151">
        <ele>987</ele>
        <time>2021-07-17T07:38:26.000Z</time>
      </trkpt>
      <trkpt lat="45.21577" lon="5.73153">
        <ele>985.79998779297</ele>
        <time>2021-07-17T07:38:28.000Z</time>
      </trkpt>
      <trkpt lat="45.21576" lon="5.73158">
        <ele>985.40002441406</ele>
        <time>2021-07-17T07:38:31.000Z</time>
      </trkpt>
      <trkpt lat="45.21576" lon="5.73158">
        <ele>984.40002441406</ele>
        <time>2021-07-17T07:38:32.000Z</time>
      </trkpt>
      <trkpt lat="45.21575" lon="5.73158">
        <ele>983.79998779297</ele>
        <time>2021-07-17T07:38:33.000Z</time>
      </trkpt>
      <trkpt lat="45.21573" lon="5.73158">
        <ele>983.79998779297</ele>
        <time>2021-07-17T07:38:34.000Z</time>
      </trkpt>
      <trkpt lat="45.21572" lon="5.73159">
        <ele>983.20001220703</ele>
        <time>2021-07-17T07:38:35.000Z</time>
      </trkpt>
      <trkpt lat="45.21571" lon="5.7316">
        <ele>982.79998779297</ele>
        <time>2021-07-17T07:38:36.000Z</time>
      </trkpt>
      <trkpt lat="45.2157" lon="5.73162">
        <ele>981.79998779297</ele>
        <time>2021-07-17T07:38:38.000Z</time>
      </trkpt>
      <trkpt lat="45.21569" lon="5.73165">
        <ele>981.20001220703</ele>
        <time>2021-07-17T07:38:40.000Z</time>
      </trkpt>
      <trkpt lat="45.2157" lon="5.73168">
        <ele>980.79998779297</ele>
        <time>2021-07-17T07:38:42.000Z</time>
      </trkpt>
      <trkpt lat="45.2157" lon="5.73169">
        <ele>979.20001220703</ele>
        <time>2021-07-17T07:38:43.000Z</time>
      </trkpt>
      <trkpt lat="45.21569" lon="5.73174">
        <ele>978.20001220703</ele>
        <time>2021-07-17T07:38:48.000Z</time>
      </trkpt>
      <trkpt lat="45.2157" lon="5.73176">
        <ele>978.20001220703</ele>
        <time>2021-07-17T07:38:49.000Z</time>
      </trkpt>
      <trkpt lat="45.21571" lon="5.73181">
        <ele>977</ele>
        <time>2021-07-17T07:38:53.000Z</time>
      </trkpt>
      <trkpt lat="45.21572" lon="5.73184">
        <ele>976.40002441406</ele>
        <time>2021-07-17T07:38:55.000Z</time>
      </trkpt>
      <trkpt lat="45.21572" lon="5.73185">
        <ele>976.20001220703</ele>
        <time>2021-07-17T07:38:56.000Z</time>
      </trkpt>
      <trkpt lat="45.21574" lon="5.73187">
        <ele>976</ele>
        <time>2021-07-17T07:38:57.000Z</time>
      </trkpt>
      <trkpt lat="45.2158" lon="5.7319">
        <ele>974.40002441406</ele>
        <time>2021-07-17T07:39:01.000Z</time>
      </trkpt>
      <trkpt lat="45.21581" lon="5.73191">
        <ele>974</ele>
        <time>2021-07-17T07:39:02.000Z</time>
      </trkpt>
      <trkpt lat="45.21583" lon="5.73193">
        <ele>973.40002441406</ele>
        <time>2021-07-17T07:39:04.000Z</time>
      </trkpt>
      <trkpt lat="45.21588" lon="5.73199">
        <ele>972.79998779297</ele>
        <time>2021-07-17T07:39:07.000Z</time>
      </trkpt>
      <trkpt lat="45.21589" lon="5.73201">
        <ele>972.79998779297</ele>
        <time>2021-07-17T07:39:08.000Z</time>
      </trkpt>
      <trkpt lat="45.21591" lon="5.73203">
        <ele>972.59997558594</ele>
        <time>2021-07-17T07:39:09.000Z</time>
      </trkpt>
      <trkpt lat="45.21592" lon="5.73205">
        <ele>972</ele>
        <time>2021-07-17T07:39:10.000Z</time>
      </trkpt>
      <trkpt lat="45.21596" lon="5.7321">
        <ele>970.59997558594</ele>
        <time>2021-07-17T07:39:13.000Z</time>
      </trkpt>
      <trkpt lat="45.21598" lon="5.73214">
        <ele>970.40002441406</ele>
        <time>2021-07-17T07:39:15.000Z</time>
      </trkpt>
      <trkpt lat="45.21599" lon="5.73216">
        <ele>970.40002441406</ele>
        <time>2021-07-17T07:39:16.000Z</time>
      </trkpt>
      <trkpt lat="45.21601" lon="5.73219">
        <ele>969.79998779297</ele>
        <time>2021-07-17T07:39:18.000Z</time>
      </trkpt>
      <trkpt lat="45.21603" lon="5.7322">
        <ele>969.59997558594</ele>
        <time>2021-07-17T07:39:19.000Z</time>
      </trkpt>
      <trkpt lat="45.21605" lon="5.73224">
        <ele>968.20001220703</ele>
        <time>2021-07-17T07:39:22.000Z</time>
      </trkpt>
      <trkpt lat="45.21607" lon="5.73225">
        <ele>968.20001220703</ele>
        <time>2021-07-17T07:39:23.000Z</time>
      </trkpt>
      <trkpt lat="45.21608" lon="5.73228">
        <ele>968.20001220703</ele>
        <time>2021-07-17T07:39:25.000Z</time>
      </trkpt>
      <trkpt lat="45.2161" lon="5.73229">
        <ele>967</ele>
        <time>2021-07-17T07:39:26.000Z</time>
      </trkpt>
      <trkpt lat="45.2161" lon="5.73231">
        <ele>966.59997558594</ele>
        <time>2021-07-17T07:39:27.000Z</time>
      </trkpt>
      <trkpt lat="45.21611" lon="5.73233">
        <ele>966.40002441406</ele>
        <time>2021-07-17T07:39:28.000Z</time>
      </trkpt>
      <trkpt lat="45.21611" lon="5.73234">
        <ele>966.40002441406</ele>
        <time>2021-07-17T07:39:29.000Z</time>
      </trkpt>
      <trkpt lat="45.21612" lon="5.73235">
        <ele>966</ele>
        <time>2021-07-17T07:39:30.000Z</time>
      </trkpt>
      <trkpt lat="45.21613" lon="5.73237">
        <ele>965.79998779297</ele>
        <time>2021-07-17T07:39:32.000Z</time>
      </trkpt>
      <trkpt lat="45.21615" lon="5.7324">
        <ele>965</ele>
        <time>2021-07-17T07:39:34.000Z</time>
      </trkpt>
      <trkpt lat="45.21615" lon="5.73242">
        <ele>964.79998779297</ele>
        <time>2021-07-17T07:39:35.000Z</time>
      </trkpt>
      <trkpt lat="45.21618" lon="5.73249">
        <ele>963.59997558594</ele>
        <time>2021-07-17T07:39:39.000Z</time>
      </trkpt>
      <trkpt lat="45.21619" lon="5.73254">
        <ele>962.59997558594</ele>
        <time>2021-07-17T07:39:41.000Z</time>
      </trkpt>
      <trkpt lat="45.2162" lon="5.73256">
        <ele>962.40002441406</ele>
        <time>2021-07-17T07:39:42.000Z</time>
      </trkpt>
      <trkpt lat="45.21624" lon="5.73263">
        <ele>961.79998779297</ele>
        <time>2021-07-17T07:39:46.000Z</time>
      </trkpt>
      <trkpt lat="45.21626" lon="5.73266">
        <ele>961.79998779297</ele>
        <time>2021-07-17T07:39:47.000Z</time>
      </trkpt>
      <trkpt lat="45.21629" lon="5.73271">
        <ele>960.59997558594</ele>
        <time>2021-07-17T07:39:49.000Z</time>
      </trkpt>
      <trkpt lat="45.21632" lon="5.73277">
        <ele>959.59997558594</ele>
        <time>2021-07-17T07:39:51.000Z</time>
      </trkpt>
      <trkpt lat="45.21636" lon="5.73286">
        <ele>958.20001220703</ele>
        <time>2021-07-17T07:39:55.000Z</time>
      </trkpt>
      <trkpt lat="45.21638" lon="5.73291">
        <ele>958.20001220703</ele>
        <time>2021-07-17T07:39:57.000Z</time>
      </trkpt>
      <trkpt lat="45.2164" lon="5.73295">
        <ele>957.20001220703</ele>
        <time>2021-07-17T07:39:59.000Z</time>
      </trkpt>
      <trkpt lat="45.21642" lon="5.73304">
        <ele>956.20001220703</ele>
        <time>2021-07-17T07:40:03.000Z</time>
      </trkpt>
      <trkpt lat="45.21644" lon="5.7331">
        <ele>955</ele>
        <time>2021-07-17T07:40:06.000Z</time>
      </trkpt>
      <trkpt lat="45.21645" lon="5.73312">
        <ele>954.59997558594</ele>
        <time>2021-07-17T07:40:07.000Z</time>
      </trkpt>
      <trkpt lat="45.21645" lon="5.73315">
        <ele>953.79998779297</ele>
        <time>2021-07-17T07:40:09.000Z</time>
      </trkpt>
      <trkpt lat="45.21646" lon="5.73315">
        <ele>953.40002441406</ele>
        <time>2021-07-17T07:40:10.000Z</time>
      </trkpt>
      <trkpt lat="45.21648" lon="5.73317">
        <ele>953.40002441406</ele>
        <time>2021-07-17T07:40:11.000Z</time>
      </trkpt>
      <trkpt lat="45.21649" lon="5.7332">
        <ele>952.40002441406</ele>
        <time>2021-07-17T07:40:13.000Z</time>
      </trkpt>
      <trkpt lat="45.21649" lon="5.73322">
        <ele>951.59997558594</ele>
        <time>2021-07-17T07:40:14.000Z</time>
      </trkpt>
      <trkpt lat="45.21649" lon="5.73324">
        <ele>951.40002441406</ele>
        <time>2021-07-17T07:40:16.000Z</time>
      </trkpt>
      <trkpt lat="45.21649" lon="5.73326">
        <ele>951.20001220703</ele>
        <time>2021-07-17T07:40:18.000Z</time>
      </trkpt>
      <trkpt lat="45.2165" lon="5.73327">
        <ele>950</ele>
        <time>2021-07-17T07:40:20.000Z</time>
      </trkpt>
      <trkpt lat="45.21651" lon="5.7333">
        <ele>949.20001220703</ele>
        <time>2021-07-17T07:40:22.000Z</time>
      </trkpt>
      <trkpt lat="45.2165" lon="5.73331">
        <ele>949</ele>
        <time>2021-07-17T07:40:23.000Z</time>
      </trkpt>
      <trkpt lat="45.21649" lon="5.73332">
        <ele>948.40002441406</ele>
        <time>2021-07-17T07:40:24.000Z</time>
      </trkpt>
      <trkpt lat="45.21641" lon="5.73332">
        <ele>947.40002441406</ele>
        <time>2021-07-17T07:40:30.000Z</time>
      </trkpt>
      <trkpt lat="45.21638" lon="5.7333">
        <ele>946.79998779297</ele>
        <time>2021-07-17T07:40:32.000Z</time>
      </trkpt>
      <trkpt lat="45.21637" lon="5.73329">
        <ele>946.79998779297</ele>
        <time>2021-07-17T07:40:33.000Z</time>
      </trkpt>
      <trkpt lat="45.21636" lon="5.73327">
        <ele>946.20001220703</ele>
        <time>2021-07-17T07:40:34.000Z</time>
      </trkpt>
      <trkpt lat="45.21628" lon="5.73321">
        <ele>945.20001220703</ele>
        <time>2021-07-17T07:40:40.000Z</time>
      </trkpt>
      <trkpt lat="45.21619" lon="5.73313">
        <ele>943.20001220703</ele>
        <time>2021-07-17T07:40:47.000Z</time>
      </trkpt>
      <trkpt lat="45.21611" lon="5.73304">
        <ele>942.20001220703</ele>
        <time>2021-07-17T07:40:53.000Z</time>
      </trkpt>
      <trkpt lat="45.2161" lon="5.73303">
        <ele>942.20001220703</ele>
        <time>2021-07-17T07:40:54.000Z</time>
      </trkpt>
      <trkpt lat="45.21607" lon="5.73301">
        <ele>941.59997558594</ele>
        <time>2021-07-17T07:40:56.000Z</time>
      </trkpt>
      <trkpt lat="45.21603" lon="5.73299">
        <ele>940.79998779297</ele>
        <time>2021-07-17T07:40:59.000Z</time>
      </trkpt>
      <trkpt lat="45.216" lon="5.73297">
        <ele>940.40002441406</ele>
        <time>2021-07-17T07:41:02.000Z</time>
      </trkpt>
      <trkpt lat="45.21598" lon="5.73296">
        <ele>939.59997558594</ele>
        <time>2021-07-17T07:41:04.000Z</time>
      </trkpt>
      <trkpt lat="45.21595" lon="5.73294">
        <ele>939.20001220703</ele>
        <time>2021-07-17T07:41:07.000Z</time>
      </trkpt>
      <trkpt lat="45.21593" lon="5.73292">
        <ele>938.40002441406</ele>
        <time>2021-07-17T07:41:09.000Z</time>
      </trkpt>
      <trkpt lat="45.21583" lon="5.73288">
        <ele>937.20001220703</ele>
        <time>2021-07-17T07:41:16.000Z</time>
      </trkpt>
      <trkpt lat="45.21579" lon="5.73286">
        <ele>936.59997558594</ele>
        <time>2021-07-17T07:41:19.000Z</time>
      </trkpt>
      <trkpt lat="45.21579" lon="5.73285">
        <ele>935.79998779297</ele>
        <time>2021-07-17T07:41:20.000Z</time>
      </trkpt>
      <trkpt lat="45.21578" lon="5.73284">
        <ele>935.59997558594</ele>
        <time>2021-07-17T07:41:22.000Z</time>
      </trkpt>
      <trkpt lat="45.21577" lon="5.73284">
        <ele>935.40002441406</ele>
        <time>2021-07-17T07:41:23.000Z</time>
      </trkpt>
      <trkpt lat="45.21576" lon="5.73283">
        <ele>934.79998779297</ele>
        <time>2021-07-17T07:41:25.000Z</time>
      </trkpt>
      <trkpt lat="45.21573" lon="5.73283">
        <ele>934.59997558594</ele>
        <time>2021-07-17T07:41:27.000Z</time>
      </trkpt>
      <trkpt lat="45.21572" lon="5.73284">
        <ele>934.40002441406</ele>
        <time>2021-07-17T07:41:28.000Z</time>
      </trkpt>
      <trkpt lat="45.2157" lon="5.73284">
        <ele>934</ele>
        <time>2021-07-17T07:41:29.000Z</time>
      </trkpt>
      <trkpt lat="45.21569" lon="5.73283">
        <ele>933.40002441406</ele>
        <time>2021-07-17T07:41:30.000Z</time>
      </trkpt>
      <trkpt lat="45.21565" lon="5.73282">
        <ele>932.20001220703</ele>
        <time>2021-07-17T07:41:35.000Z</time>
      </trkpt>
      <trkpt lat="45.21562" lon="5.73281">
        <ele>930.59997558594</ele>
        <time>2021-07-17T07:41:38.000Z</time>
      </trkpt>
      <trkpt lat="45.21555" lon="5.73279">
        <ele>929.40002441406</ele>
        <time>2021-07-17T07:41:42.000Z</time>
      </trkpt>
      <trkpt lat="45.21548" lon="5.73278">
        <ele>928</ele>
        <time>2021-07-17T07:41:46.000Z</time>
      </trkpt>
      <trkpt lat="45.21543" lon="5.73279">
        <ele>926.40002441406</ele>
        <time>2021-07-17T07:41:49.000Z</time>
      </trkpt>
      <trkpt lat="45.21541" lon="5.73278">
        <ele>925.79998779297</ele>
        <time>2021-07-17T07:41:50.000Z</time>
      </trkpt>
      <trkpt lat="45.2154" lon="5.73278">
        <ele>924.79998779297</ele>
        <time>2021-07-17T07:41:52.000Z</time>
      </trkpt>
      <trkpt lat="45.21539" lon="5.73278">
        <ele>924.79998779297</ele>
        <time>2021-07-17T07:41:54.000Z</time>
      </trkpt>
      <trkpt lat="45.21538" lon="5.73279">
        <ele>924.20001220703</ele>
        <time>2021-07-17T07:41:56.000Z</time>
      </trkpt>
      <trkpt lat="45.21538" lon="5.73279">
        <ele>923.59997558594</ele>
        <time>2021-07-17T07:41:57.000Z</time>
      </trkpt>
      <trkpt lat="45.21538" lon="5.73279">
        <ele>923</ele>
        <time>2021-07-17T07:41:59.000Z</time>
      </trkpt>
      <trkpt lat="45.21541" lon="5.73281">
        <ele>922.40002441406</ele>
        <time>2021-07-17T07:42:01.000Z</time>
      </trkpt>
      <trkpt lat="45.21542" lon="5.73282">
        <ele>921.40002441406</ele>
        <time>2021-07-17T07:42:02.000Z</time>
      </trkpt>
      <trkpt lat="45.21543" lon="5.73284">
        <ele>920.79998779297</ele>
        <time>2021-07-17T07:42:04.000Z</time>
      </trkpt>
      <trkpt lat="45.21545" lon="5.73286">
        <ele>920.59997558594</ele>
        <time>2021-07-17T07:42:06.000Z</time>
      </trkpt>
      <trkpt lat="45.21545" lon="5.73287">
        <ele>920.40002441406</ele>
        <time>2021-07-17T07:42:07.000Z</time>
      </trkpt>
      <trkpt lat="45.21547" lon="5.73291">
        <ele>920.20001220703</ele>
        <time>2021-07-17T07:42:09.000Z</time>
      </trkpt>
      <trkpt lat="45.21548" lon="5.73292">
        <ele>918.59997558594</ele>
        <time>2021-07-17T07:42:10.000Z</time>
      </trkpt>
      <trkpt lat="45.21551" lon="5.73293">
        <ele>918.40002441406</ele>
        <time>2021-07-17T07:42:12.000Z</time>
      </trkpt>
      <trkpt lat="45.21551" lon="5.73294">
        <ele>917.59997558594</ele>
        <time>2021-07-17T07:42:13.000Z</time>
      </trkpt>
      <trkpt lat="45.2155" lon="5.73298">
        <ele>917</ele>
        <time>2021-07-17T07:42:15.000Z</time>
      </trkpt>
      <trkpt lat="45.21551" lon="5.73299">
        <ele>916.40002441406</ele>
        <time>2021-07-17T07:42:16.000Z</time>
      </trkpt>
      <trkpt lat="45.21553" lon="5.733">
        <ele>915.79998779297</ele>
        <time>2021-07-17T07:42:18.000Z</time>
      </trkpt>
      <trkpt lat="45.21555" lon="5.73301">
        <ele>915.79998779297</ele>
        <time>2021-07-17T07:42:20.000Z</time>
      </trkpt>
      <trkpt lat="45.21555" lon="5.73302">
        <ele>914.40002441406</ele>
        <time>2021-07-17T07:42:21.000Z</time>
      </trkpt>
      <trkpt lat="45.21556" lon="5.73303">
        <ele>914</ele>
        <time>2021-07-17T07:42:22.000Z</time>
      </trkpt>
      <trkpt lat="45.21557" lon="5.73304">
        <ele>913.79998779297</ele>
        <time>2021-07-17T07:42:24.000Z</time>
      </trkpt>
      <trkpt lat="45.21558" lon="5.73306">
        <ele>913.20001220703</ele>
        <time>2021-07-17T07:42:26.000Z</time>
      </trkpt>
      <trkpt lat="45.21558" lon="5.73308">
        <ele>911.79998779297</ele>
        <time>2021-07-17T07:42:27.000Z</time>
      </trkpt>
      <trkpt lat="45.21559" lon="5.73309">
        <ele>911.20001220703</ele>
        <time>2021-07-17T07:42:28.000Z</time>
      </trkpt>
      <trkpt lat="45.21561" lon="5.73311">
        <ele>910.59997558594</ele>
        <time>2021-07-17T07:42:30.000Z</time>
      </trkpt>
      <trkpt lat="45.21562" lon="5.73313">
        <ele>910.59997558594</ele>
        <time>2021-07-17T07:42:31.000Z</time>
      </trkpt>
      <trkpt lat="45.21562" lon="5.73314">
        <ele>910.20001220703</ele>
        <time>2021-07-17T07:42:32.000Z</time>
      </trkpt>
      <trkpt lat="45.21563" lon="5.73315">
        <ele>910</ele>
        <time>2021-07-17T07:42:33.000Z</time>
      </trkpt>
      <trkpt lat="45.21564" lon="5.7332">
        <ele>909.59997558594</ele>
        <time>2021-07-17T07:42:36.000Z</time>
      </trkpt>
      <trkpt lat="45.21564" lon="5.73322">
        <ele>909.59997558594</ele>
        <time>2021-07-17T07:42:37.000Z</time>
      </trkpt>
      <trkpt lat="45.21565" lon="5.73323">
        <ele>909.40002441406</ele>
        <time>2021-07-17T07:42:38.000Z</time>
      </trkpt>
      <trkpt lat="45.21567" lon="5.73324">
        <ele>909.20001220703</ele>
        <time>2021-07-17T07:42:40.000Z</time>
      </trkpt>
      <trkpt lat="45.21571" lon="5.73327">
        <ele>908.79998779297</ele>
        <time>2021-07-17T07:42:44.000Z</time>
      </trkpt>
      <trkpt lat="45.21573" lon="5.73329">
        <ele>908.59997558594</ele>
        <time>2021-07-17T07:42:45.000Z</time>
      </trkpt>
      <trkpt lat="45.21575" lon="5.73332">
        <ele>908.59997558594</ele>
        <time>2021-07-17T07:42:47.000Z</time>
      </trkpt>
      <trkpt lat="45.21581" lon="5.73337">
        <ele>909.20001220703</ele>
        <time>2021-07-17T07:42:50.000Z</time>
      </trkpt>
      <trkpt lat="45.21584" lon="5.7334">
        <ele>910</ele>
        <time>2021-07-17T07:42:52.000Z</time>
      </trkpt>
      <trkpt lat="45.21592" lon="5.73347">
        <ele>911</ele>
        <time>2021-07-17T07:42:56.000Z</time>
      </trkpt>
      <trkpt lat="45.21594" lon="5.73349">
        <ele>911</ele>
        <time>2021-07-17T07:42:57.000Z</time>
      </trkpt>
      <trkpt lat="45.21599" lon="5.73354">
        <ele>912</ele>
        <time>2021-07-17T07:42:59.000Z</time>
      </trkpt>
      <trkpt lat="45.216" lon="5.73356">
        <ele>912.20001220703</ele>
        <time>2021-07-17T07:43:00.000Z</time>
      </trkpt>
      <trkpt lat="45.21604" lon="5.7336">
        <ele>912.79998779297</ele>
        <time>2021-07-17T07:43:02.000Z</time>
      </trkpt>
      <trkpt lat="45.21606" lon="5.73363">
        <ele>913</ele>
        <time>2021-07-17T07:43:03.000Z</time>
      </trkpt>
      <trkpt lat="45.21608" lon="5.73365">
        <ele>914</ele>
        <time>2021-07-17T07:43:04.000Z</time>
      </trkpt>
      <trkpt lat="45.21612" lon="5.73368">
        <ele>914.20001220703</ele>
        <time>2021-07-17T07:43:06.000Z</time>
      </trkpt>
      <trkpt lat="45.21614" lon="5.73369">
        <ele>915.20001220703</ele>
        <time>2021-07-17T07:43:07.000Z</time>
      </trkpt>
      <trkpt lat="45.21618" lon="5.73372">
        <ele>916.20001220703</ele>
        <time>2021-07-17T07:43:10.000Z</time>
      </trkpt>
      <trkpt lat="45.21622" lon="5.73375">
        <ele>916.59997558594</ele>
        <time>2021-07-17T07:43:12.000Z</time>
      </trkpt>
      <trkpt lat="45.21624" lon="5.73376">
        <ele>916.59997558594</ele>
        <time>2021-07-17T07:43:13.000Z</time>
      </trkpt>
      <trkpt lat="45.2163" lon="5.7338">
        <ele>917.59997558594</ele>
        <time>2021-07-17T07:43:16.000Z</time>
      </trkpt>
      <trkpt lat="45.21634" lon="5.73383">
        <ele>918</ele>
        <time>2021-07-17T07:43:18.000Z</time>
      </trkpt>
      <trkpt lat="45.21638" lon="5.73388">
        <ele>918.59997558594</ele>
        <time>2021-07-17T07:43:20.000Z</time>
      </trkpt>
      <trkpt lat="45.21645" lon="5.73399">
        <ele>919.59997558594</ele>
        <time>2021-07-17T07:43:24.000Z</time>
      </trkpt>
      <trkpt lat="45.21646" lon="5.73402">
        <ele>919.59997558594</ele>
        <time>2021-07-17T07:43:25.000Z</time>
      </trkpt>
      <trkpt lat="45.21648" lon="5.73405">
        <ele>919.79998779297</ele>
        <time>2021-07-17T07:43:26.000Z</time>
      </trkpt>
      <trkpt lat="45.21657" lon="5.7342">
        <ele>921</ele>
        <time>2021-07-17T07:43:31.000Z</time>
      </trkpt>
      <trkpt lat="45.21659" lon="5.73428">
        <ele>921.40002441406</ele>
        <time>2021-07-17T07:43:33.000Z</time>
      </trkpt>
      <trkpt lat="45.21663" lon="5.73445">
        <ele>922</ele>
        <time>2021-07-17T07:43:37.000Z</time>
      </trkpt>
      <trkpt lat="45.21664" lon="5.73448">
        <ele>922</ele>
        <time>2021-07-17T07:43:38.000Z</time>
      </trkpt>
      <trkpt lat="45.21667" lon="5.73463">
        <ele>923.20001220703</ele>
        <time>2021-07-17T07:43:42.000Z</time>
      </trkpt>
      <trkpt lat="45.2167" lon="5.73472">
        <ele>924.20001220703</ele>
        <time>2021-07-17T07:43:45.000Z</time>
      </trkpt>
      <trkpt lat="45.21672" lon="5.73474">
        <ele>924.59997558594</ele>
        <time>2021-07-17T07:43:46.000Z</time>
      </trkpt>
      <trkpt lat="45.21686" lon="5.7349">
        <ele>925.40002441406</ele>
        <time>2021-07-17T07:43:53.000Z</time>
      </trkpt>
      <trkpt lat="45.2169" lon="5.73491">
        <ele>926</ele>
        <time>2021-07-17T07:43:55.000Z</time>
      </trkpt>
      <trkpt lat="45.21697" lon="5.73491">
        <ele>926.59997558594</ele>
        <time>2021-07-17T07:43:58.000Z</time>
      </trkpt>
      <trkpt lat="45.21706" lon="5.73494">
        <ele>927</ele>
        <time>2021-07-17T07:44:01.000Z</time>
      </trkpt>
      <trkpt lat="45.21712" lon="5.73495">
        <ele>927.20001220703</ele>
        <time>2021-07-17T07:44:04.000Z</time>
      </trkpt>
      <trkpt lat="45.2172" lon="5.73505">
        <ele>927.59997558594</ele>
        <time>2021-07-17T07:44:09.000Z</time>
      </trkpt>
      <trkpt lat="45.21723" lon="5.73506">
        <ele>927.59997558594</ele>
        <time>2021-07-17T07:44:10.000Z</time>
      </trkpt>
      <trkpt lat="45.2173" lon="5.7351">
        <ele>928.20001220703</ele>
        <time>2021-07-17T07:44:14.000Z</time>
      </trkpt>
      <trkpt lat="45.21731" lon="5.73512">
        <ele>928</ele>
        <time>2021-07-17T07:44:15.000Z</time>
      </trkpt>
      <trkpt lat="45.21737" lon="5.73514">
        <ele>928.20001220703</ele>
        <time>2021-07-17T07:44:18.000Z</time>
      </trkpt>
      <trkpt lat="45.21754" lon="5.73515">
        <ele>928.59997558594</ele>
        <time>2021-07-17T07:44:27.000Z</time>
      </trkpt>
      <trkpt lat="45.21756" lon="5.73516">
        <ele>928.59997558594</ele>
        <time>2021-07-17T07:44:28.000Z</time>
      </trkpt>
      <trkpt lat="45.21765" lon="5.73522">
        <ele>928.79998779297</ele>
        <time>2021-07-17T07:44:32.000Z</time>
      </trkpt>
      <trkpt lat="45.21768" lon="5.73525">
        <ele>928.20001220703</ele>
        <time>2021-07-17T07:44:34.000Z</time>
      </trkpt>
      <trkpt lat="45.21771" lon="5.73529">
        <ele>928</ele>
        <time>2021-07-17T07:44:36.000Z</time>
      </trkpt>
      <trkpt lat="45.21775" lon="5.73534">
        <ele>927</ele>
        <time>2021-07-17T07:44:38.000Z</time>
      </trkpt>
      <trkpt lat="45.2178" lon="5.73537">
        <ele>925.79998779297</ele>
        <time>2021-07-17T07:44:41.000Z</time>
      </trkpt>
      <trkpt lat="45.21782" lon="5.73546">
        <ele>924.79998779297</ele>
        <time>2021-07-17T07:44:44.000Z</time>
      </trkpt>
      <trkpt lat="45.21785" lon="5.7355">
        <ele>923.20001220703</ele>
        <time>2021-07-17T07:44:46.000Z</time>
      </trkpt>
      <trkpt lat="45.21786" lon="5.73552">
        <ele>923</ele>
        <time>2021-07-17T07:44:48.000Z</time>
      </trkpt>
      <trkpt lat="45.21788" lon="5.73557">
        <ele>921.79998779297</ele>
        <time>2021-07-17T07:44:51.000Z</time>
      </trkpt>
      <trkpt lat="45.21791" lon="5.73561">
        <ele>920.79998779297</ele>
        <time>2021-07-17T07:44:54.000Z</time>
      </trkpt>
      <trkpt lat="45.21792" lon="5.73564">
        <ele>920.59997558594</ele>
        <time>2021-07-17T07:44:55.000Z</time>
      </trkpt>
      <trkpt lat="45.21799" lon="5.73574">
        <ele>919.20001220703</ele>
        <time>2021-07-17T07:44:59.000Z</time>
      </trkpt>
      <trkpt lat="45.21805" lon="5.73583">
        <ele>918</ele>
        <time>2021-07-17T07:45:02.000Z</time>
      </trkpt>
      <trkpt lat="45.21808" lon="5.73588">
        <ele>917</ele>
        <time>2021-07-17T07:45:04.000Z</time>
      </trkpt>
      <trkpt lat="45.21809" lon="5.7359">
        <ele>916.79998779297</ele>
        <time>2021-07-17T07:45:05.000Z</time>
      </trkpt>
      <trkpt lat="45.21812" lon="5.73594">
        <ele>916.20001220703</ele>
        <time>2021-07-17T07:45:07.000Z</time>
      </trkpt>
      <trkpt lat="45.21816" lon="5.73598">
        <ele>915.40002441406</ele>
        <time>2021-07-17T07:45:09.000Z</time>
      </trkpt>
      <trkpt lat="45.21823" lon="5.73605">
        <ele>914.79998779297</ele>
        <time>2021-07-17T07:45:12.000Z</time>
      </trkpt>
      <trkpt lat="45.21827" lon="5.73614">
        <ele>914.20001220703</ele>
        <time>2021-07-17T07:45:15.000Z</time>
      </trkpt>
      <trkpt lat="45.21832" lon="5.73625">
        <ele>913.79998779297</ele>
        <time>2021-07-17T07:45:21.000Z</time>
      </trkpt>
      <trkpt lat="45.21832" lon="5.73626">
        <ele>913.79998779297</ele>
        <time>2021-07-17T07:45:22.000Z</time>
      </trkpt>
      <trkpt lat="45.21834" lon="5.73627">
        <ele>913.79998779297</ele>
        <time>2021-07-17T07:45:26.000Z</time>
      </trkpt>
      <trkpt lat="45.21835" lon="5.73628">
        <ele>913.79998779297</ele>
        <time>2021-07-17T07:45:28.000Z</time>
      </trkpt>
      <trkpt lat="45.21837" lon="5.73628">
        <ele>913.79998779297</ele>
        <time>2021-07-17T07:45:31.000Z</time>
      </trkpt>
      <trkpt lat="45.21837" lon="5.73629">
        <ele>913.79998779297</ele>
        <time>2021-07-17T07:45:37.000Z</time>
      </trkpt>
      <trkpt lat="45.21832" lon="5.73628">
        <ele>913.59997558594</ele>
        <time>2021-07-17T07:45:40.000Z</time>
      </trkpt>
      <trkpt lat="45.21831" lon="5.73624">
        <ele>913.20001220703</ele>
        <time>2021-07-17T07:45:43.000Z</time>
      </trkpt>
      <trkpt lat="45.21829" lon="5.73622">
        <ele>912.40002441406</ele>
        <time>2021-07-17T07:45:45.000Z</time>
      </trkpt>
      <trkpt lat="45.21826" lon="5.7362">
        <ele>912.40002441406</ele>
        <time>2021-07-17T07:45:48.000Z</time>
      </trkpt>
      <trkpt lat="45.21825" lon="5.73619">
        <ele>911.79998779297</ele>
        <time>2021-07-17T07:45:50.000Z</time>
      </trkpt>
      <trkpt lat="45.21821" lon="5.73613">
        <ele>911.59997558594</ele>
        <time>2021-07-17T07:45:53.000Z</time>
      </trkpt>
      <trkpt lat="45.21819" lon="5.73611">
        <ele>911.40002441406</ele>
        <time>2021-07-17T07:45:55.000Z</time>
      </trkpt>
      <trkpt lat="45.21812" lon="5.73609">
        <ele>911.20001220703</ele>
        <time>2021-07-17T07:45:59.000Z</time>
      </trkpt>
      <trkpt lat="45.21809" lon="5.7361">
        <ele>910.79998779297</ele>
        <time>2021-07-17T07:46:00.000Z</time>
      </trkpt>
      <trkpt lat="45.21803" lon="5.73608">
        <ele>910.40002441406</ele>
        <time>2021-07-17T07:46:04.000Z</time>
      </trkpt>
      <trkpt lat="45.21801" lon="5.73608">
        <ele>910</ele>
        <time>2021-07-17T07:46:05.000Z</time>
      </trkpt>
      <trkpt lat="45.21796" lon="5.73607">
        <ele>910</ele>
        <time>2021-07-17T07:46:08.000Z</time>
      </trkpt>
      <trkpt lat="45.21792" lon="5.73605">
        <ele>910</ele>
        <time>2021-07-17T07:46:10.000Z</time>
      </trkpt>
      <trkpt lat="45.21791" lon="5.73603">
        <ele>910</ele>
        <time>2021-07-17T07:46:11.000Z</time>
      </trkpt>
      <trkpt lat="45.2179" lon="5.736">
        <ele>910</ele>
        <time>2021-07-17T07:46:12.000Z</time>
      </trkpt>
      <trkpt lat="45.21786" lon="5.73587">
        <ele>910.59997558594</ele>
        <time>2021-07-17T07:46:16.000Z</time>
      </trkpt>
      <trkpt lat="45.21776" lon="5.7357">
        <ele>911.59997558594</ele>
        <time>2021-07-17T07:46:23.000Z</time>
      </trkpt>
      <trkpt lat="45.21769" lon="5.7357">
        <ele>911.40002441406</ele>
        <time>2021-07-17T07:46:30.000Z</time>
      </trkpt>
      <trkpt lat="45.2177" lon="5.73569">
        <ele>911.40002441406</ele>
        <time>2021-07-17T07:46:33.000Z</time>
      </trkpt>
      <trkpt lat="45.2177" lon="5.73568">
        <ele>911.40002441406</ele>
        <time>2021-07-17T07:46:37.000Z</time>
      </trkpt>
      <trkpt lat="45.2177" lon="5.73568">
        <ele>911.40002441406</ele>
        <time>2021-07-17T07:46:38.000Z</time>
      </trkpt>
      <trkpt lat="45.21765" lon="5.73562">
        <ele>911.20001220703</ele>
        <time>2021-07-17T07:46:44.000Z</time>
      </trkpt>
      <trkpt lat="45.21763" lon="5.73561">
        <ele>911.40002441406</ele>
        <time>2021-07-17T07:46:45.000Z</time>
      </trkpt>
      <trkpt lat="45.21761" lon="5.7356">
        <ele>912.20001220703</ele>
        <time>2021-07-17T07:46:47.000Z</time>
      </trkpt>
      <trkpt lat="45.2176" lon="5.73558">
        <ele>912.59997558594</ele>
        <time>2021-07-17T07:46:49.000Z</time>
      </trkpt>
      <trkpt lat="45.21757" lon="5.73557">
        <ele>913.40002441406</ele>
        <time>2021-07-17T07:46:52.000Z</time>
      </trkpt>
      <trkpt lat="45.21752" lon="5.73556">
        <ele>913.79998779297</ele>
        <time>2021-07-17T07:46:55.000Z</time>
      </trkpt>
      <trkpt lat="45.21751" lon="5.73556">
        <ele>914.20001220703</ele>
        <time>2021-07-17T07:46:56.000Z</time>
      </trkpt>
      <trkpt lat="45.21749" lon="5.73556">
        <ele>914.20001220703</ele>
        <time>2021-07-17T07:46:57.000Z</time>
      </trkpt>
      <trkpt lat="45.21747" lon="5.73556">
        <ele>915</ele>
        <time>2021-07-17T07:46:58.000Z</time>
      </trkpt>
      <trkpt lat="45.21741" lon="5.73558">
        <ele>915.20001220703</ele>
        <time>2021-07-17T07:47:02.000Z</time>
      </trkpt>
      <trkpt lat="45.21736" lon="5.7356">
        <ele>915</ele>
        <time>2021-07-17T07:47:04.000Z</time>
      </trkpt>
      <trkpt lat="45.21727" lon="5.73558">
        <ele>914.79998779297</ele>
        <time>2021-07-17T07:47:08.000Z</time>
      </trkpt>
      <trkpt lat="45.21722" lon="5.73552">
        <ele>914.79998779297</ele>
        <time>2021-07-17T07:47:11.000Z</time>
      </trkpt>
      <trkpt lat="45.21716" lon="5.73546">
        <ele>913.79998779297</ele>
        <time>2021-07-17T07:47:14.000Z</time>
      </trkpt>
      <trkpt lat="45.21712" lon="5.73544">
        <ele>913.40002441406</ele>
        <time>2021-07-17T07:47:16.000Z</time>
      </trkpt>
      <trkpt lat="45.21709" lon="5.73544">
        <ele>912.20001220703</ele>
        <time>2021-07-17T07:47:18.000Z</time>
      </trkpt>
      <trkpt lat="45.21707" lon="5.73544">
        <ele>912</ele>
        <time>2021-07-17T07:47:19.000Z</time>
      </trkpt>
      <trkpt lat="45.217" lon="5.73546">
        <ele>910</ele>
        <time>2021-07-17T07:47:23.000Z</time>
      </trkpt>
      <trkpt lat="45.21699" lon="5.73545">
        <ele>909.79998779297</ele>
        <time>2021-07-17T07:47:24.000Z</time>
      </trkpt>
      <trkpt lat="45.21696" lon="5.73542">
        <ele>909</ele>
        <time>2021-07-17T07:47:26.000Z</time>
      </trkpt>
      <trkpt lat="45.21694" lon="5.73542">
        <ele>908.79998779297</ele>
        <time>2021-07-17T07:47:27.000Z</time>
      </trkpt>
      <trkpt lat="45.21689" lon="5.73542">
        <ele>908.59997558594</ele>
        <time>2021-07-17T07:47:29.000Z</time>
      </trkpt>
      <trkpt lat="45.21682" lon="5.73542">
        <ele>907.79998779297</ele>
        <time>2021-07-17T07:47:32.000Z</time>
      </trkpt>
      <trkpt lat="45.21681" lon="5.73542">
        <ele>907</ele>
        <time>2021-07-17T07:47:33.000Z</time>
      </trkpt>
      <trkpt lat="45.21677" lon="5.73543">
        <ele>906.59997558594</ele>
        <time>2021-07-17T07:47:35.000Z</time>
      </trkpt>
      <trkpt lat="45.21674" lon="5.73542">
        <ele>906</ele>
        <time>2021-07-17T07:47:37.000Z</time>
      </trkpt>
      <trkpt lat="45.21671" lon="5.73541">
        <ele>905.59997558594</ele>
        <time>2021-07-17T07:47:39.000Z</time>
      </trkpt>
      <trkpt lat="45.21667" lon="5.73539">
        <ele>904.79998779297</ele>
        <time>2021-07-17T07:47:44.000Z</time>
      </trkpt>
      <trkpt lat="45.21667" lon="5.73539">
        <ele>904</ele>
        <time>2021-07-17T07:47:45.000Z</time>
      </trkpt>
      <trkpt lat="45.21667" lon="5.73539">
        <ele>903.40002441406</ele>
        <time>2021-07-17T07:47:46.000Z</time>
      </trkpt>
      <trkpt lat="45.21671" lon="5.7354">
        <ele>902.40002441406</ele>
        <time>2021-07-17T07:47:50.000Z</time>
      </trkpt>
      <trkpt lat="45.21673" lon="5.7354">
        <ele>900.79998779297</ele>
        <time>2021-07-17T07:47:51.000Z</time>
      </trkpt>
      <trkpt lat="45.21674" lon="5.73539">
        <ele>900.40002441406</ele>
        <time>2021-07-17T07:47:52.000Z</time>
      </trkpt>
      <trkpt lat="45.21679" lon="5.73541">
        <ele>899.59997558594</ele>
        <time>2021-07-17T07:47:55.000Z</time>
      </trkpt>
      <trkpt lat="45.2168" lon="5.73542">
        <ele>899.40002441406</ele>
        <time>2021-07-17T07:47:56.000Z</time>
      </trkpt>
      <trkpt lat="45.21684" lon="5.73544">
        <ele>898.79998779297</ele>
        <time>2021-07-17T07:47:59.000Z</time>
      </trkpt>
      <trkpt lat="45.21686" lon="5.73543">
        <ele>898.40002441406</ele>
        <time>2021-07-17T07:48:00.000Z</time>
      </trkpt>
      <trkpt lat="45.21687" lon="5.73544">
        <ele>898</ele>
        <time>2021-07-17T07:48:01.000Z</time>
      </trkpt>
      <trkpt lat="45.21688" lon="5.73545">
        <ele>897.59997558594</ele>
        <time>2021-07-17T07:48:02.000Z</time>
      </trkpt>
      <trkpt lat="45.21689" lon="5.73546">
        <ele>897.20001220703</ele>
        <time>2021-07-17T07:48:03.000Z</time>
      </trkpt>
      <trkpt lat="45.21692" lon="5.7355">
        <ele>896.20001220703</ele>
        <time>2021-07-17T07:48:05.000Z</time>
      </trkpt>
      <trkpt lat="45.21693" lon="5.73553">
        <ele>896</ele>
        <time>2021-07-17T07:48:06.000Z</time>
      </trkpt>
      <trkpt lat="45.21695" lon="5.73554">
        <ele>895.79998779297</ele>
        <time>2021-07-17T07:48:07.000Z</time>
      </trkpt>
      <trkpt lat="45.21699" lon="5.73555">
        <ele>895</ele>
        <time>2021-07-17T07:48:09.000Z</time>
      </trkpt>
      <trkpt lat="45.217" lon="5.73561">
        <ele>894.20001220703</ele>
        <time>2021-07-17T07:48:13.000Z</time>
      </trkpt>
      <trkpt lat="45.21699" lon="5.73561">
        <ele>893.59997558594</ele>
        <time>2021-07-17T07:48:14.000Z</time>
      </trkpt>
      <trkpt lat="45.21697" lon="5.73561">
        <ele>893</ele>
        <time>2021-07-17T07:48:16.000Z</time>
      </trkpt>
      <trkpt lat="45.21696" lon="5.73562">
        <ele>892.20001220703</ele>
        <time>2021-07-17T07:48:17.000Z</time>
      </trkpt>
      <trkpt lat="45.2169" lon="5.73563">
        <ele>892</ele>
        <time>2021-07-17T07:48:20.000Z</time>
      </trkpt>
      <trkpt lat="45.21688" lon="5.73563">
        <ele>891.79998779297</ele>
        <time>2021-07-17T07:48:21.000Z</time>
      </trkpt>
      <trkpt lat="45.21687" lon="5.73562">
        <ele>890.20001220703</ele>
        <time>2021-07-17T07:48:22.000Z</time>
      </trkpt>
      <trkpt lat="45.21679" lon="5.73561">
        <ele>889.40002441406</ele>
        <time>2021-07-17T07:48:27.000Z</time>
      </trkpt>
      <trkpt lat="45.21677" lon="5.7356">
        <ele>888.79998779297</ele>
        <time>2021-07-17T07:48:28.000Z</time>
      </trkpt>
      <trkpt lat="45.21672" lon="5.73564">
        <ele>888.40002441406</ele>
        <time>2021-07-17T07:48:31.000Z</time>
      </trkpt>
      <trkpt lat="45.21671" lon="5.73565">
        <ele>887.79998779297</ele>
        <time>2021-07-17T07:48:32.000Z</time>
      </trkpt>
      <trkpt lat="45.2167" lon="5.73565">
        <ele>887.59997558594</ele>
        <time>2021-07-17T07:48:33.000Z</time>
      </trkpt>
      <trkpt lat="45.21668" lon="5.73565">
        <ele>887.40002441406</ele>
        <time>2021-07-17T07:48:35.000Z</time>
      </trkpt>
      <trkpt lat="45.21665" lon="5.73567">
        <ele>886.59997558594</ele>
        <time>2021-07-17T07:48:37.000Z</time>
      </trkpt>
      <trkpt lat="45.21663" lon="5.73568">
        <ele>885.79998779297</ele>
        <time>2021-07-17T07:48:39.000Z</time>
      </trkpt>
      <trkpt lat="45.21661" lon="5.73569">
        <ele>884.79998779297</ele>
        <time>2021-07-17T07:48:41.000Z</time>
      </trkpt>
      <trkpt lat="45.21656" lon="5.7357">
        <ele>883.79998779297</ele>
        <time>2021-07-17T07:48:44.000Z</time>
      </trkpt>
      <trkpt lat="45.21654" lon="5.7357">
        <ele>883.79998779297</ele>
        <time>2021-07-17T07:48:45.000Z</time>
      </trkpt>
      <trkpt lat="45.2165" lon="5.7357">
        <ele>883.40002441406</ele>
        <time>2021-07-17T07:48:47.000Z</time>
      </trkpt>
      <trkpt lat="45.21648" lon="5.73567">
        <ele>882.20001220703</ele>
        <time>2021-07-17T07:48:49.000Z</time>
      </trkpt>
      <trkpt lat="45.21645" lon="5.73568">
        <ele>881.79998779297</ele>
        <time>2021-07-17T07:48:51.000Z</time>
      </trkpt>
      <trkpt lat="45.21641" lon="5.73568">
        <ele>881.59997558594</ele>
        <time>2021-07-17T07:48:53.000Z</time>
      </trkpt>
      <trkpt lat="45.21635" lon="5.73565">
        <ele>880.59997558594</ele>
        <time>2021-07-17T07:48:57.000Z</time>
      </trkpt>
      <trkpt lat="45.21629" lon="5.73561">
        <ele>879</ele>
        <time>2021-07-17T07:49:01.000Z</time>
      </trkpt>
      <trkpt lat="45.21624" lon="5.73559">
        <ele>878.59997558594</ele>
        <time>2021-07-17T07:49:03.000Z</time>
      </trkpt>
      <trkpt lat="45.21623" lon="5.73557">
        <ele>878.59997558594</ele>
        <time>2021-07-17T07:49:04.000Z</time>
      </trkpt>
      <trkpt lat="45.21619" lon="5.73552">
        <ele>876.79998779297</ele>
        <time>2021-07-17T07:49:07.000Z</time>
      </trkpt>
      <trkpt lat="45.21615" lon="5.73545">
        <ele>876.20001220703</ele>
        <time>2021-07-17T07:49:10.000Z</time>
      </trkpt>
      <trkpt lat="45.21614" lon="5.73542">
        <ele>875.79998779297</ele>
        <time>2021-07-17T07:49:12.000Z</time>
      </trkpt>
      <trkpt lat="45.21613" lon="5.73542">
        <ele>875.59997558594</ele>
        <time>2021-07-17T07:49:13.000Z</time>
      </trkpt>
      <trkpt lat="45.21614" lon="5.73544">
        <ele>874.20001220703</ele>
        <time>2021-07-17T07:49:15.000Z</time>
      </trkpt>
      <trkpt lat="45.21615" lon="5.7355">
        <ele>873</ele>
        <time>2021-07-17T07:49:18.000Z</time>
      </trkpt>
      <trkpt lat="45.21616" lon="5.73551">
        <ele>872.59997558594</ele>
        <time>2021-07-17T07:49:19.000Z</time>
      </trkpt>
      <trkpt lat="45.21617" lon="5.73553">
        <ele>872.40002441406</ele>
        <time>2021-07-17T07:49:21.000Z</time>
      </trkpt>
      <trkpt lat="45.21618" lon="5.73557">
        <ele>871.40002441406</ele>
        <time>2021-07-17T07:49:24.000Z</time>
      </trkpt>
      <trkpt lat="45.2162" lon="5.73563">
        <ele>870.20001220703</ele>
        <time>2021-07-17T07:49:27.000Z</time>
      </trkpt>
      <trkpt lat="45.2162" lon="5.73564">
        <ele>870</ele>
        <time>2021-07-17T07:49:28.000Z</time>
      </trkpt>
      <trkpt lat="45.21622" lon="5.7357">
        <ele>868.79998779297</ele>
        <time>2021-07-17T07:49:32.000Z</time>
      </trkpt>
      <trkpt lat="45.21624" lon="5.73572">
        <ele>868</ele>
        <time>2021-07-17T07:49:34.000Z</time>
      </trkpt>
      <trkpt lat="45.21626" lon="5.73573">
        <ele>867.59997558594</ele>
        <time>2021-07-17T07:49:36.000Z</time>
      </trkpt>
      <trkpt lat="45.21626" lon="5.73575">
        <ele>866.40002441406</ele>
        <time>2021-07-17T07:49:40.000Z</time>
      </trkpt>
      <trkpt lat="45.21624" lon="5.73573">
        <ele>865.59997558594</ele>
        <time>2021-07-17T07:49:42.000Z</time>
      </trkpt>
      <trkpt lat="45.21623" lon="5.73572">
        <ele>865</ele>
        <time>2021-07-17T07:49:43.000Z</time>
      </trkpt>
      <trkpt lat="45.21622" lon="5.7357">
        <ele>864.40002441406</ele>
        <time>2021-07-17T07:49:45.000Z</time>
      </trkpt>
      <trkpt lat="45.21621" lon="5.73568">
        <ele>864.20001220703</ele>
        <time>2021-07-17T07:49:46.000Z</time>
      </trkpt>
      <trkpt lat="45.2162" lon="5.73568">
        <ele>864</ele>
        <time>2021-07-17T07:49:47.000Z</time>
      </trkpt>
      <trkpt lat="45.21617" lon="5.73562">
        <ele>862.79998779297</ele>
        <time>2021-07-17T07:49:51.000Z</time>
      </trkpt>
      <trkpt lat="45.21615" lon="5.73558">
        <ele>861.20001220703</ele>
        <time>2021-07-17T07:49:54.000Z</time>
      </trkpt>
      <trkpt lat="45.21612" lon="5.73553">
        <ele>860</ele>
        <time>2021-07-17T07:49:57.000Z</time>
      </trkpt>
      <trkpt lat="45.21611" lon="5.73551">
        <ele>860</ele>
        <time>2021-07-17T07:49:58.000Z</time>
      </trkpt>
      <trkpt lat="45.21607" lon="5.73549">
        <ele>859.59997558594</ele>
        <time>2021-07-17T07:50:00.000Z</time>
      </trkpt>
      <trkpt lat="45.21603" lon="5.73547">
        <ele>858.79998779297</ele>
        <time>2021-07-17T07:50:02.000Z</time>
      </trkpt>
      <trkpt lat="45.21601" lon="5.73545">
        <ele>858.40002441406</ele>
        <time>2021-07-17T07:50:03.000Z</time>
      </trkpt>
      <trkpt lat="45.21599" lon="5.73542">
        <ele>857.40002441406</ele>
        <time>2021-07-17T07:50:05.000Z</time>
      </trkpt>
      <trkpt lat="45.21599" lon="5.7354">
        <ele>857.20001220703</ele>
        <time>2021-07-17T07:50:06.000Z</time>
      </trkpt>
      <trkpt lat="45.21595" lon="5.73534">
        <ele>856.20001220703</ele>
        <time>2021-07-17T07:50:09.000Z</time>
      </trkpt>
      <trkpt lat="45.21594" lon="5.73533">
        <ele>856.20001220703</ele>
        <time>2021-07-17T07:50:10.000Z</time>
      </trkpt>
      <trkpt lat="45.21593" lon="5.73531">
        <ele>855.59997558594</ele>
        <time>2021-07-17T07:50:11.000Z</time>
      </trkpt>
      <trkpt lat="45.21588" lon="5.73528">
        <ele>855.20001220703</ele>
        <time>2021-07-17T07:50:14.000Z</time>
      </trkpt>
      <trkpt lat="45.21587" lon="5.73527">
        <ele>855</ele>
        <time>2021-07-17T07:50:15.000Z</time>
      </trkpt>
      <trkpt lat="45.21582" lon="5.73518">
        <ele>853.40002441406</ele>
        <time>2021-07-17T07:50:19.000Z</time>
      </trkpt>
      <trkpt lat="45.2158" lon="5.73516">
        <ele>853.40002441406</ele>
        <time>2021-07-17T07:50:20.000Z</time>
      </trkpt>
      <trkpt lat="45.21576" lon="5.73508">
        <ele>851.40002441406</ele>
        <time>2021-07-17T07:50:23.000Z</time>
      </trkpt>
      <trkpt lat="45.21569" lon="5.73493">
        <ele>850.20001220703</ele>
        <time>2021-07-17T07:50:29.000Z</time>
      </trkpt>
      <trkpt lat="45.21564" lon="5.7349">
        <ele>849.20001220703</ele>
        <time>2021-07-17T07:50:32.000Z</time>
      </trkpt>
      <trkpt lat="45.21559" lon="5.73484">
        <ele>848.59997558594</ele>
        <time>2021-07-17T07:50:35.000Z</time>
      </trkpt>
      <trkpt lat="45.21557" lon="5.73483">
        <ele>847.79998779297</ele>
        <time>2021-07-17T07:50:36.000Z</time>
      </trkpt>
      <trkpt lat="45.21553" lon="5.73483">
        <ele>846.79998779297</ele>
        <time>2021-07-17T07:50:38.000Z</time>
      </trkpt>
      <trkpt lat="45.21552" lon="5.73484">
        <ele>846.20001220703</ele>
        <time>2021-07-17T07:50:39.000Z</time>
      </trkpt>
      <trkpt lat="45.21548" lon="5.73482">
        <ele>845</ele>
        <time>2021-07-17T07:50:42.000Z</time>
      </trkpt>
      <trkpt lat="45.21547" lon="5.7348">
        <ele>844.40002441406</ele>
        <time>2021-07-17T07:50:43.000Z</time>
      </trkpt>
      <trkpt lat="45.21546" lon="5.7348">
        <ele>844.40002441406</ele>
        <time>2021-07-17T07:50:44.000Z</time>
      </trkpt>
      <trkpt lat="45.21541" lon="5.7348">
        <ele>843.40002441406</ele>
        <time>2021-07-17T07:50:47.000Z</time>
      </trkpt>
      <trkpt lat="45.21538" lon="5.73479">
        <ele>843</ele>
        <time>2021-07-17T07:50:49.000Z</time>
      </trkpt>
      <trkpt lat="45.21537" lon="5.73479">
        <ele>843</ele>
        <time>2021-07-17T07:50:50.000Z</time>
      </trkpt>
      <trkpt lat="45.21536" lon="5.73479">
        <ele>843</ele>
        <time>2021-07-17T07:50:51.000Z</time>
      </trkpt>
      <trkpt lat="45.21537" lon="5.7348">
        <ele>842.40002441406</ele>
        <time>2021-07-17T07:50:53.000Z</time>
      </trkpt>
      <trkpt lat="45.21538" lon="5.73481">
        <ele>842.40002441406</ele>
        <time>2021-07-17T07:50:54.000Z</time>
      </trkpt>
      <trkpt lat="45.21539" lon="5.73482">
        <ele>841.59997558594</ele>
        <time>2021-07-17T07:50:55.000Z</time>
      </trkpt>
      <trkpt lat="45.2154" lon="5.73483">
        <ele>841.20001220703</ele>
        <time>2021-07-17T07:50:56.000Z</time>
      </trkpt>
      <trkpt lat="45.21543" lon="5.73486">
        <ele>839.40002441406</ele>
        <time>2021-07-17T07:50:59.000Z</time>
      </trkpt>
      <trkpt lat="45.21544" lon="5.73487">
        <ele>839.40002441406</ele>
        <time>2021-07-17T07:51:00.000Z</time>
      </trkpt>
      <trkpt lat="45.21546" lon="5.73489">
        <ele>839.20001220703</ele>
        <time>2021-07-17T07:51:01.000Z</time>
      </trkpt>
      <trkpt lat="45.21548" lon="5.73489">
        <ele>839</ele>
        <time>2021-07-17T07:51:02.000Z</time>
      </trkpt>
      <trkpt lat="45.2155" lon="5.7349">
        <ele>838.40002441406</ele>
        <time>2021-07-17T07:51:04.000Z</time>
      </trkpt>
      <trkpt lat="45.21551" lon="5.73493">
        <ele>838</ele>
        <time>2021-07-17T07:51:06.000Z</time>
      </trkpt>
      <trkpt lat="45.2155" lon="5.73495">
        <ele>837.79998779297</ele>
        <time>2021-07-17T07:51:07.000Z</time>
      </trkpt>
      <trkpt lat="45.21552" lon="5.73498">
        <ele>837.79998779297</ele>
        <time>2021-07-17T07:51:08.000Z</time>
      </trkpt>
      <trkpt lat="45.21552" lon="5.735">
        <ele>837.59997558594</ele>
        <time>2021-07-17T07:51:09.000Z</time>
      </trkpt>
      <trkpt lat="45.21553" lon="5.73505">
        <ele>836.40002441406</ele>
        <time>2021-07-17T07:51:11.000Z</time>
      </trkpt>
      <trkpt lat="45.21553" lon="5.73509">
        <ele>836.20001220703</ele>
        <time>2021-07-17T07:51:13.000Z</time>
      </trkpt>
      <trkpt lat="45.21553" lon="5.73512">
        <ele>836</ele>
        <time>2021-07-17T07:51:14.000Z</time>
      </trkpt>
      <trkpt lat="45.21554" lon="5.73517">
        <ele>835.40002441406</ele>
        <time>2021-07-17T07:51:16.000Z</time>
      </trkpt>
      <trkpt lat="45.21554" lon="5.73528">
        <ele>833.40002441406</ele>
        <time>2021-07-17T07:51:20.000Z</time>
      </trkpt>
      <trkpt lat="45.21555" lon="5.7353">
        <ele>833.40002441406</ele>
        <time>2021-07-17T07:51:21.000Z</time>
      </trkpt>
      <trkpt lat="45.21554" lon="5.73538">
        <ele>832.40002441406</ele>
        <time>2021-07-17T07:51:25.000Z</time>
      </trkpt>
      <trkpt lat="45.21553" lon="5.7354">
        <ele>832</ele>
        <time>2021-07-17T07:51:26.000Z</time>
      </trkpt>
      <trkpt lat="45.21553" lon="5.73542">
        <ele>832</ele>
        <time>2021-07-17T07:51:27.000Z</time>
      </trkpt>
      <trkpt lat="45.21554" lon="5.73548">
        <ele>831.20001220703</ele>
        <time>2021-07-17T07:51:30.000Z</time>
      </trkpt>
      <trkpt lat="45.21554" lon="5.7355">
        <ele>830.40002441406</ele>
        <time>2021-07-17T07:51:31.000Z</time>
      </trkpt>
      <trkpt lat="45.21556" lon="5.73553">
        <ele>829.40002441406</ele>
        <time>2021-07-17T07:51:33.000Z</time>
      </trkpt>
      <trkpt lat="45.21557" lon="5.73555">
        <ele>829</ele>
        <time>2021-07-17T07:51:34.000Z</time>
      </trkpt>
      <trkpt lat="45.21559" lon="5.73561">
        <ele>829</ele>
        <time>2021-07-17T07:51:36.000Z</time>
      </trkpt>
      <trkpt lat="45.21561" lon="5.73564">
        <ele>828.59997558594</ele>
        <time>2021-07-17T07:51:38.000Z</time>
      </trkpt>
      <trkpt lat="45.21562" lon="5.73566">
        <ele>828.20001220703</ele>
        <time>2021-07-17T07:51:39.000Z</time>
      </trkpt>
      <trkpt lat="45.21562" lon="5.73568">
        <ele>827.20001220703</ele>
        <time>2021-07-17T07:51:40.000Z</time>
      </trkpt>
      <trkpt lat="45.21562" lon="5.73569">
        <ele>826.40002441406</ele>
        <time>2021-07-17T07:51:41.000Z</time>
      </trkpt>
      <trkpt lat="45.21565" lon="5.7358">
        <ele>825.59997558594</ele>
        <time>2021-07-17T07:51:45.000Z</time>
      </trkpt>
      <trkpt lat="45.21564" lon="5.73582">
        <ele>825.40002441406</ele>
        <time>2021-07-17T07:51:46.000Z</time>
      </trkpt>
      <trkpt lat="45.21563" lon="5.73583">
        <ele>824.59997558594</ele>
        <time>2021-07-17T07:51:47.000Z</time>
      </trkpt>
      <trkpt lat="45.21561" lon="5.7358">
        <ele>824.20001220703</ele>
        <time>2021-07-17T07:51:49.000Z</time>
      </trkpt>
      <trkpt lat="45.21556" lon="5.73575">
        <ele>822.79998779297</ele>
        <time>2021-07-17T07:51:53.000Z</time>
      </trkpt>
      <trkpt lat="45.21553" lon="5.73575">
        <ele>822.20001220703</ele>
        <time>2021-07-17T07:51:55.000Z</time>
      </trkpt>
      <trkpt lat="45.21551" lon="5.73574">
        <ele>822</ele>
        <time>2021-07-17T07:51:56.000Z</time>
      </trkpt>
      <trkpt lat="45.2155" lon="5.73574">
        <ele>821.40002441406</ele>
        <time>2021-07-17T07:51:57.000Z</time>
      </trkpt>
      <trkpt lat="45.21545" lon="5.73572">
        <ele>820.79998779297</ele>
        <time>2021-07-17T07:52:00.000Z</time>
      </trkpt>
      <trkpt lat="45.21544" lon="5.73571">
        <ele>819.59997558594</ele>
        <time>2021-07-17T07:52:01.000Z</time>
      </trkpt>
      <trkpt lat="45.21542" lon="5.73567">
        <ele>819.20001220703</ele>
        <time>2021-07-17T07:52:03.000Z</time>
      </trkpt>
      <trkpt lat="45.2154" lon="5.73566">
        <ele>819</ele>
        <time>2021-07-17T07:52:05.000Z</time>
      </trkpt>
      <trkpt lat="45.2154" lon="5.73564">
        <ele>819</ele>
        <time>2021-07-17T07:52:06.000Z</time>
      </trkpt>
      <trkpt lat="45.21539" lon="5.73562">
        <ele>817.59997558594</ele>
        <time>2021-07-17T07:52:08.000Z</time>
      </trkpt>
      <trkpt lat="45.21535" lon="5.73556">
        <ele>816.79998779297</ele>
        <time>2021-07-17T07:52:12.000Z</time>
      </trkpt>
      <trkpt lat="45.21535" lon="5.73554">
        <ele>815.79998779297</ele>
        <time>2021-07-17T07:52:13.000Z</time>
      </trkpt>
      <trkpt lat="45.21534" lon="5.73552">
        <ele>815.40002441406</ele>
        <time>2021-07-17T07:52:17.000Z</time>
      </trkpt>
      <trkpt lat="45.21535" lon="5.73554">
        <ele>814.59997558594</ele>
        <time>2021-07-17T07:52:19.000Z</time>
      </trkpt>
      <trkpt lat="45.21535" lon="5.73559">
        <ele>814.20001220703</ele>
        <time>2021-07-17T07:52:22.000Z</time>
      </trkpt>
      <trkpt lat="45.21536" lon="5.73562">
        <ele>813.20001220703</ele>
        <time>2021-07-17T07:52:24.000Z</time>
      </trkpt>
      <trkpt lat="45.21537" lon="5.73567">
        <ele>812.59997558594</ele>
        <time>2021-07-17T07:52:27.000Z</time>
      </trkpt>
      <trkpt lat="45.21537" lon="5.73569">
        <ele>812.40002441406</ele>
        <time>2021-07-17T07:52:28.000Z</time>
      </trkpt>
      <trkpt lat="45.21537" lon="5.73571">
        <ele>811.79998779297</ele>
        <time>2021-07-17T07:52:29.000Z</time>
      </trkpt>
      <trkpt lat="45.21537" lon="5.73572">
        <ele>811</ele>
        <time>2021-07-17T07:52:30.000Z</time>
      </trkpt>
      <trkpt lat="45.21538" lon="5.73573">
        <ele>810.59997558594</ele>
        <time>2021-07-17T07:52:31.000Z</time>
      </trkpt>
      <trkpt lat="45.21538" lon="5.73579">
        <ele>810</ele>
        <time>2021-07-17T07:52:34.000Z</time>
      </trkpt>
      <trkpt lat="45.21539" lon="5.73581">
        <ele>809.59997558594</ele>
        <time>2021-07-17T07:52:35.000Z</time>
      </trkpt>
      <trkpt lat="45.2154" lon="5.73583">
        <ele>809.40002441406</ele>
        <time>2021-07-17T07:52:36.000Z</time>
      </trkpt>
      <trkpt lat="45.21541" lon="5.73586">
        <ele>809</ele>
        <time>2021-07-17T07:52:38.000Z</time>
      </trkpt>
      <trkpt lat="45.21542" lon="5.73587">
        <ele>808.59997558594</ele>
        <time>2021-07-17T07:52:39.000Z</time>
      </trkpt>
      <trkpt lat="45.21542" lon="5.73594">
        <ele>808.20001220703</ele>
        <time>2021-07-17T07:52:42.000Z</time>
      </trkpt>
      <trkpt lat="45.21542" lon="5.73596">
        <ele>807.40002441406</ele>
        <time>2021-07-17T07:52:43.000Z</time>
      </trkpt>
      <trkpt lat="45.21543" lon="5.73598">
        <ele>806.20001220703</ele>
        <time>2021-07-17T07:52:44.000Z</time>
      </trkpt>
      <trkpt lat="45.21543" lon="5.73601">
        <ele>805.79998779297</ele>
        <time>2021-07-17T07:52:46.000Z</time>
      </trkpt>
      <trkpt lat="45.21543" lon="5.73601">
        <ele>805.79998779297</ele>
        <time>2021-07-17T07:52:47.000Z</time>
      </trkpt>
      <trkpt lat="45.21542" lon="5.73601">
        <ele>805.59997558594</ele>
        <time>2021-07-17T07:52:48.000Z</time>
      </trkpt>
      <trkpt lat="45.21539" lon="5.73597">
        <ele>805</ele>
        <time>2021-07-17T07:52:51.000Z</time>
      </trkpt>
      <trkpt lat="45.21537" lon="5.73595">
        <ele>804.40002441406</ele>
        <time>2021-07-17T07:52:53.000Z</time>
      </trkpt>
      <trkpt lat="45.21536" lon="5.73594">
        <ele>804</ele>
        <time>2021-07-17T07:52:54.000Z</time>
      </trkpt>
      <trkpt lat="45.21534" lon="5.73592">
        <ele>803.79998779297</ele>
        <time>2021-07-17T07:52:56.000Z</time>
      </trkpt>
      <trkpt lat="45.21534" lon="5.73592">
        <ele>803</ele>
        <time>2021-07-17T07:52:58.000Z</time>
      </trkpt>
      <trkpt lat="45.21534" lon="5.73593">
        <ele>802.59997558594</ele>
        <time>2021-07-17T07:53:00.000Z</time>
      </trkpt>
      <trkpt lat="45.21535" lon="5.73597">
        <ele>802.40002441406</ele>
        <time>2021-07-17T07:53:02.000Z</time>
      </trkpt>
      <trkpt lat="45.21536" lon="5.73599">
        <ele>801.79998779297</ele>
        <time>2021-07-17T07:53:03.000Z</time>
      </trkpt>
      <trkpt lat="45.21538" lon="5.73605">
        <ele>800.79998779297</ele>
        <time>2021-07-17T07:53:07.000Z</time>
      </trkpt>
      <trkpt lat="45.21539" lon="5.73607">
        <ele>800</ele>
        <time>2021-07-17T07:53:08.000Z</time>
      </trkpt>
      <trkpt lat="45.2154" lon="5.7361">
        <ele>799.79998779297</ele>
        <time>2021-07-17T07:53:11.000Z</time>
      </trkpt>
      <trkpt lat="45.21539" lon="5.73613">
        <ele>799</ele>
        <time>2021-07-17T07:53:14.000Z</time>
      </trkpt>
      <trkpt lat="45.21539" lon="5.73614">
        <ele>799</ele>
        <time>2021-07-17T07:53:15.000Z</time>
      </trkpt>
      <trkpt lat="45.21537" lon="5.73615">
        <ele>798.79998779297</ele>
        <time>2021-07-17T07:53:17.000Z</time>
      </trkpt>
      <trkpt lat="45.21536" lon="5.73614">
        <ele>798.59997558594</ele>
        <time>2021-07-17T07:53:18.000Z</time>
      </trkpt>
      <trkpt lat="45.21535" lon="5.73613">
        <ele>797.79998779297</ele>
        <time>2021-07-17T07:53:19.000Z</time>
      </trkpt>
      <trkpt lat="45.21533" lon="5.73612">
        <ele>797.40002441406</ele>
        <time>2021-07-17T07:53:21.000Z</time>
      </trkpt>
      <trkpt lat="45.21532" lon="5.73609">
        <ele>797</ele>
        <time>2021-07-17T07:53:23.000Z</time>
      </trkpt>
      <trkpt lat="45.2153" lon="5.73608">
        <ele>796.40002441406</ele>
        <time>2021-07-17T07:53:24.000Z</time>
      </trkpt>
      <trkpt lat="45.21523" lon="5.73605">
        <ele>795.40002441406</ele>
        <time>2021-07-17T07:53:28.000Z</time>
      </trkpt>
      <trkpt lat="45.21522" lon="5.73602">
        <ele>795.20001220703</ele>
        <time>2021-07-17T07:53:29.000Z</time>
      </trkpt>
      <trkpt lat="45.21521" lon="5.73598">
        <ele>794.40002441406</ele>
        <time>2021-07-17T07:53:31.000Z</time>
      </trkpt>
      <trkpt lat="45.21519" lon="5.73595">
        <ele>794</ele>
        <time>2021-07-17T07:53:33.000Z</time>
      </trkpt>
      <trkpt lat="45.21516" lon="5.73592">
        <ele>793.59997558594</ele>
        <time>2021-07-17T07:53:35.000Z</time>
      </trkpt>
      <trkpt lat="45.21516" lon="5.73588">
        <ele>792.59997558594</ele>
        <time>2021-07-17T07:53:37.000Z</time>
      </trkpt>
      <trkpt lat="45.21516" lon="5.73586">
        <ele>792.59997558594</ele>
        <time>2021-07-17T07:53:38.000Z</time>
      </trkpt>
      <trkpt lat="45.21516" lon="5.73585">
        <ele>792.20001220703</ele>
        <time>2021-07-17T07:53:39.000Z</time>
      </trkpt>
      <trkpt lat="45.21515" lon="5.73582">
        <ele>791.79998779297</ele>
        <time>2021-07-17T07:53:41.000Z</time>
      </trkpt>
      <trkpt lat="45.21515" lon="5.73581">
        <ele>791.20001220703</ele>
        <time>2021-07-17T07:53:42.000Z</time>
      </trkpt>
      <trkpt lat="45.21515" lon="5.73581">
        <ele>791.20001220703</ele>
        <time>2021-07-17T07:53:43.000Z</time>
      </trkpt>
      <trkpt lat="45.21515" lon="5.73582">
        <ele>790.79998779297</ele>
        <time>2021-07-17T07:53:45.000Z</time>
      </trkpt>
      <trkpt lat="45.21516" lon="5.73585">
        <ele>790.40002441406</ele>
        <time>2021-07-17T07:53:47.000Z</time>
      </trkpt>
      <trkpt lat="45.21515" lon="5.73587">
        <ele>790.20001220703</ele>
        <time>2021-07-17T07:53:48.000Z</time>
      </trkpt>
      <trkpt lat="45.21512" lon="5.73597">
        <ele>788.59997558594</ele>
        <time>2021-07-17T07:53:53.000Z</time>
      </trkpt>
      <trkpt lat="45.21513" lon="5.73602">
        <ele>787.40002441406</ele>
        <time>2021-07-17T07:53:56.000Z</time>
      </trkpt>
      <trkpt lat="45.21512" lon="5.73603">
        <ele>787</ele>
        <time>2021-07-17T07:53:58.000Z</time>
      </trkpt>
      <trkpt lat="45.2151" lon="5.73602">
        <ele>786.59997558594</ele>
        <time>2021-07-17T07:53:59.000Z</time>
      </trkpt>
      <trkpt lat="45.2151" lon="5.736">
        <ele>786</ele>
        <time>2021-07-17T07:54:00.000Z</time>
      </trkpt>
      <trkpt lat="45.21507" lon="5.73593">
        <ele>785</ele>
        <time>2021-07-17T07:54:05.000Z</time>
      </trkpt>
      <trkpt lat="45.21506" lon="5.73587">
        <ele>783.79998779297</ele>
        <time>2021-07-17T07:54:09.000Z</time>
      </trkpt>
      <trkpt lat="45.21506" lon="5.73577">
        <ele>783</ele>
        <time>2021-07-17T07:54:13.000Z</time>
      </trkpt>
      <trkpt lat="45.21506" lon="5.73573">
        <ele>782.59997558594</ele>
        <time>2021-07-17T07:54:15.000Z</time>
      </trkpt>
      <trkpt lat="45.21504" lon="5.7357">
        <ele>782</ele>
        <time>2021-07-17T07:54:18.000Z</time>
      </trkpt>
      <trkpt lat="45.21502" lon="5.73567">
        <ele>781.59997558594</ele>
        <time>2021-07-17T07:54:20.000Z</time>
      </trkpt>
      <trkpt lat="45.21497" lon="5.73567">
        <ele>780.40002441406</ele>
        <time>2021-07-17T07:54:23.000Z</time>
      </trkpt>
      <trkpt lat="45.21492" lon="5.73563">
        <ele>779.40002441406</ele>
        <time>2021-07-17T07:54:27.000Z</time>
      </trkpt>
      <trkpt lat="45.2149" lon="5.73562">
        <ele>778.40002441406</ele>
        <time>2021-07-17T07:54:29.000Z</time>
      </trkpt>
      <trkpt lat="45.21488" lon="5.73561">
        <ele>778</ele>
        <time>2021-07-17T07:54:30.000Z</time>
      </trkpt>
      <trkpt lat="45.21485" lon="5.73558">
        <ele>777.59997558594</ele>
        <time>2021-07-17T07:54:32.000Z</time>
      </trkpt>
      <trkpt lat="45.21481" lon="5.73558">
        <ele>776.79998779297</ele>
        <time>2021-07-17T07:54:34.000Z</time>
      </trkpt>
      <trkpt lat="45.2148" lon="5.73557">
        <ele>776.79998779297</ele>
        <time>2021-07-17T07:54:35.000Z</time>
      </trkpt>
      <trkpt lat="45.21479" lon="5.73555">
        <ele>776.59997558594</ele>
        <time>2021-07-17T07:54:36.000Z</time>
      </trkpt>
      <trkpt lat="45.21477" lon="5.73551">
        <ele>776</ele>
        <time>2021-07-17T07:54:39.000Z</time>
      </trkpt>
      <trkpt lat="45.21476" lon="5.7355">
        <ele>776</ele>
        <time>2021-07-17T07:54:40.000Z</time>
      </trkpt>
      <trkpt lat="45.21476" lon="5.73549">
        <ele>775.79998779297</ele>
        <time>2021-07-17T07:54:41.000Z</time>
      </trkpt>
      <trkpt lat="45.21475" lon="5.73546">
        <ele>775.79998779297</ele>
        <time>2021-07-17T07:54:43.000Z</time>
      </trkpt>
      <trkpt lat="45.21474" lon="5.73543">
        <ele>774.79998779297</ele>
        <time>2021-07-17T07:54:45.000Z</time>
      </trkpt>
      <trkpt lat="45.21469" lon="5.73533">
        <ele>773.79998779297</ele>
        <time>2021-07-17T07:54:50.000Z</time>
      </trkpt>
      <trkpt lat="45.21468" lon="5.73529">
        <ele>772.59997558594</ele>
        <time>2021-07-17T07:54:52.000Z</time>
      </trkpt>
      <trkpt lat="45.21467" lon="5.73527">
        <ele>772.59997558594</ele>
        <time>2021-07-17T07:54:53.000Z</time>
      </trkpt>
      <trkpt lat="45.21466" lon="5.73522">
        <ele>771.59997558594</ele>
        <time>2021-07-17T07:54:57.000Z</time>
      </trkpt>
      <trkpt lat="45.21466" lon="5.7352">
        <ele>771.59997558594</ele>
        <time>2021-07-17T07:54:58.000Z</time>
      </trkpt>
      <trkpt lat="45.21467" lon="5.73518">
        <ele>771.59997558594</ele>
        <time>2021-07-17T07:54:59.000Z</time>
      </trkpt>
      <trkpt lat="45.21466" lon="5.73513">
        <ele>770.59997558594</ele>
        <time>2021-07-17T07:55:01.000Z</time>
      </trkpt>
      <trkpt lat="45.21465" lon="5.73511">
        <ele>770.40002441406</ele>
        <time>2021-07-17T07:55:02.000Z</time>
      </trkpt>
      <trkpt lat="45.21465" lon="5.73508">
        <ele>770</ele>
        <time>2021-07-17T07:55:03.000Z</time>
      </trkpt>
      <trkpt lat="45.21464" lon="5.73505">
        <ele>769.79998779297</ele>
        <time>2021-07-17T07:55:04.000Z</time>
      </trkpt>
      <trkpt lat="45.21464" lon="5.73503">
        <ele>769.59997558594</ele>
        <time>2021-07-17T07:55:05.000Z</time>
      </trkpt>
      <trkpt lat="45.21462" lon="5.73498">
        <ele>769.20001220703</ele>
        <time>2021-07-17T07:55:07.000Z</time>
      </trkpt>
      <trkpt lat="45.21461" lon="5.73497">
        <ele>767.79998779297</ele>
        <time>2021-07-17T07:55:08.000Z</time>
      </trkpt>
      <trkpt lat="45.21457" lon="5.73493">
        <ele>766.59997558594</ele>
        <time>2021-07-17T07:55:11.000Z</time>
      </trkpt>
      <trkpt lat="45.21456" lon="5.73492">
        <ele>766</ele>
        <time>2021-07-17T07:55:12.000Z</time>
      </trkpt>
      <trkpt lat="45.21454" lon="5.7349">
        <ele>766</ele>
        <time>2021-07-17T07:55:14.000Z</time>
      </trkpt>
      <trkpt lat="45.21452" lon="5.73489">
        <ele>765.59997558594</ele>
        <time>2021-07-17T07:55:15.000Z</time>
      </trkpt>
      <trkpt lat="45.21451" lon="5.73488">
        <ele>765.40002441406</ele>
        <time>2021-07-17T07:55:16.000Z</time>
      </trkpt>
      <trkpt lat="45.21449" lon="5.73486">
        <ele>765.20001220703</ele>
        <time>2021-07-17T07:55:18.000Z</time>
      </trkpt>
      <trkpt lat="45.21447" lon="5.73481">
        <ele>764.40002441406</ele>
        <time>2021-07-17T07:55:20.000Z</time>
      </trkpt>
      <trkpt lat="45.21446" lon="5.7348">
        <ele>764.20001220703</ele>
        <time>2021-07-17T07:55:21.000Z</time>
      </trkpt>
      <trkpt lat="45.21441" lon="5.73476">
        <ele>763.20001220703</ele>
        <time>2021-07-17T07:55:24.000Z</time>
      </trkpt>
      <trkpt lat="45.21441" lon="5.73474">
        <ele>763</ele>
        <time>2021-07-17T07:55:25.000Z</time>
      </trkpt>
      <trkpt lat="45.21439" lon="5.7347">
        <ele>762.20001220703</ele>
        <time>2021-07-17T07:55:27.000Z</time>
      </trkpt>
      <trkpt lat="45.21438" lon="5.73469">
        <ele>762</ele>
        <time>2021-07-17T07:55:28.000Z</time>
      </trkpt>
      <trkpt lat="45.21436" lon="5.73466">
        <ele>761.20001220703</ele>
        <time>2021-07-17T07:55:30.000Z</time>
      </trkpt>
      <trkpt lat="45.21436" lon="5.7346">
        <ele>761</ele>
        <time>2021-07-17T07:55:32.000Z</time>
      </trkpt>
      <trkpt lat="45.21435" lon="5.73457">
        <ele>759.79998779297</ele>
        <time>2021-07-17T07:55:34.000Z</time>
      </trkpt>
      <trkpt lat="45.21432" lon="5.73455">
        <ele>759</ele>
        <time>2021-07-17T07:55:37.000Z</time>
      </trkpt>
      <trkpt lat="45.21429" lon="5.73452">
        <ele>758.40002441406</ele>
        <time>2021-07-17T07:55:39.000Z</time>
      </trkpt>
      <trkpt lat="45.21427" lon="5.73447">
        <ele>757.59997558594</ele>
        <time>2021-07-17T07:55:42.000Z</time>
      </trkpt>
      <trkpt lat="45.21426" lon="5.73446">
        <ele>757.20001220703</ele>
        <time>2021-07-17T07:55:43.000Z</time>
      </trkpt>
      <trkpt lat="45.21423" lon="5.73442">
        <ele>756</ele>
        <time>2021-07-17T07:55:46.000Z</time>
      </trkpt>
      <trkpt lat="45.21422" lon="5.73441">
        <ele>755.59997558594</ele>
        <time>2021-07-17T07:55:47.000Z</time>
      </trkpt>
      <trkpt lat="45.21421" lon="5.73438">
        <ele>755.40002441406</ele>
        <time>2021-07-17T07:55:49.000Z</time>
      </trkpt>
      <trkpt lat="45.21419" lon="5.73435">
        <ele>754.59997558594</ele>
        <time>2021-07-17T07:55:52.000Z</time>
      </trkpt>
      <trkpt lat="45.21416" lon="5.7343">
        <ele>753.79998779297</ele>
        <time>2021-07-17T07:55:56.000Z</time>
      </trkpt>
      <trkpt lat="45.21414" lon="5.73426">
        <ele>753.20001220703</ele>
        <time>2021-07-17T07:55:58.000Z</time>
      </trkpt>
      <trkpt lat="45.21409" lon="5.73418">
        <ele>752</ele>
        <time>2021-07-17T07:56:03.000Z</time>
      </trkpt>
      <trkpt lat="45.21408" lon="5.73416">
        <ele>752</ele>
        <time>2021-07-17T07:56:04.000Z</time>
      </trkpt>
      <trkpt lat="45.21406" lon="5.73413">
        <ele>751.20001220703</ele>
        <time>2021-07-17T07:56:06.000Z</time>
      </trkpt>
      <trkpt lat="45.21405" lon="5.73411">
        <ele>750.79998779297</ele>
        <time>2021-07-17T07:56:07.000Z</time>
      </trkpt>
      <trkpt lat="45.21403" lon="5.73407">
        <ele>750.40002441406</ele>
        <time>2021-07-17T07:56:09.000Z</time>
      </trkpt>
      <trkpt lat="45.21402" lon="5.73402">
        <ele>749.59997558594</ele>
        <time>2021-07-17T07:56:11.000Z</time>
      </trkpt>
      <trkpt lat="45.21396" lon="5.73391">
        <ele>748.79998779297</ele>
        <time>2021-07-17T07:56:15.000Z</time>
      </trkpt>
      <trkpt lat="45.21395" lon="5.7339">
        <ele>748.79998779297</ele>
        <time>2021-07-17T07:56:16.000Z</time>
      </trkpt>
      <trkpt lat="45.21392" lon="5.73392">
        <ele>748.20001220703</ele>
        <time>2021-07-17T07:56:18.000Z</time>
      </trkpt>
      <trkpt lat="45.21391" lon="5.73391">
        <ele>748</ele>
        <time>2021-07-17T07:56:19.000Z</time>
      </trkpt>
      <trkpt lat="45.21389" lon="5.7339">
        <ele>747.20001220703</ele>
        <time>2021-07-17T07:56:21.000Z</time>
      </trkpt>
      <trkpt lat="45.21387" lon="5.73388">
        <ele>746.20001220703</ele>
        <time>2021-07-17T07:56:23.000Z</time>
      </trkpt>
      <trkpt lat="45.21386" lon="5.73387">
        <ele>745.79998779297</ele>
        <time>2021-07-17T07:56:24.000Z</time>
      </trkpt>
      <trkpt lat="45.21385" lon="5.73384">
        <ele>745.79998779297</ele>
        <time>2021-07-17T07:56:25.000Z</time>
      </trkpt>
      <trkpt lat="45.21379" lon="5.73378">
        <ele>744.40002441406</ele>
        <time>2021-07-17T07:56:30.000Z</time>
      </trkpt>
      <trkpt lat="45.21377" lon="5.73373">
        <ele>743.40002441406</ele>
        <time>2021-07-17T07:56:32.000Z</time>
      </trkpt>
      <trkpt lat="45.21376" lon="5.73371">
        <ele>743.20001220703</ele>
        <time>2021-07-17T07:56:33.000Z</time>
      </trkpt>
      <trkpt lat="45.21375" lon="5.73368">
        <ele>743</ele>
        <time>2021-07-17T07:56:34.000Z</time>
      </trkpt>
      <trkpt lat="45.21373" lon="5.73367">
        <ele>742.40002441406</ele>
        <time>2021-07-17T07:56:35.000Z</time>
      </trkpt>
      <trkpt lat="45.21368" lon="5.7336">
        <ele>741.59997558594</ele>
        <time>2021-07-17T07:56:38.000Z</time>
      </trkpt>
      <trkpt lat="45.21367" lon="5.73353">
        <ele>741</ele>
        <time>2021-07-17T07:56:41.000Z</time>
      </trkpt>
      <trkpt lat="45.21366" lon="5.73352">
        <ele>740.79998779297</ele>
        <time>2021-07-17T07:56:42.000Z</time>
      </trkpt>
      <trkpt lat="45.21365" lon="5.73351">
        <ele>740.59997558594</ele>
        <time>2021-07-17T07:56:43.000Z</time>
      </trkpt>
      <trkpt lat="45.21364" lon="5.7335">
        <ele>740</ele>
        <time>2021-07-17T07:56:44.000Z</time>
      </trkpt>
      <trkpt lat="45.21363" lon="5.7335">
        <ele>739.79998779297</ele>
        <time>2021-07-17T07:56:45.000Z</time>
      </trkpt>
      <trkpt lat="45.21362" lon="5.73348">
        <ele>739</ele>
        <time>2021-07-17T07:56:47.000Z</time>
      </trkpt>
      <trkpt lat="45.21361" lon="5.73344">
        <ele>738.79998779297</ele>
        <time>2021-07-17T07:56:49.000Z</time>
      </trkpt>
      <trkpt lat="45.2136" lon="5.73343">
        <ele>738.59997558594</ele>
        <time>2021-07-17T07:56:50.000Z</time>
      </trkpt>
      <trkpt lat="45.21357" lon="5.73341">
        <ele>737.40002441406</ele>
        <time>2021-07-17T07:56:52.000Z</time>
      </trkpt>
      <trkpt lat="45.21354" lon="5.73337">
        <ele>736.20001220703</ele>
        <time>2021-07-17T07:56:55.000Z</time>
      </trkpt>
      <trkpt lat="45.21349" lon="5.73333">
        <ele>735.59997558594</ele>
        <time>2021-07-17T07:56:58.000Z</time>
      </trkpt>
      <trkpt lat="45.21346" lon="5.73331">
        <ele>735.59997558594</ele>
        <time>2021-07-17T07:57:00.000Z</time>
      </trkpt>
      <trkpt lat="45.21344" lon="5.73331">
        <ele>734.79998779297</ele>
        <time>2021-07-17T07:57:01.000Z</time>
      </trkpt>
      <trkpt lat="45.21342" lon="5.73331">
        <ele>734.20001220703</ele>
        <time>2021-07-17T07:57:03.000Z</time>
      </trkpt>
      <trkpt lat="45.21339" lon="5.7333">
        <ele>734</ele>
        <time>2021-07-17T07:57:05.000Z</time>
      </trkpt>
      <trkpt lat="45.21338" lon="5.73328">
        <ele>733.59997558594</ele>
        <time>2021-07-17T07:57:06.000Z</time>
      </trkpt>
      <trkpt lat="45.21336" lon="5.73325">
        <ele>732.40002441406</ele>
        <time>2021-07-17T07:57:08.000Z</time>
      </trkpt>
      <trkpt lat="45.21333" lon="5.73318">
        <ele>731.79998779297</ele>
        <time>2021-07-17T07:57:11.000Z</time>
      </trkpt>
      <trkpt lat="45.21332" lon="5.73316">
        <ele>731.40002441406</ele>
        <time>2021-07-17T07:57:12.000Z</time>
      </trkpt>
      <trkpt lat="45.21328" lon="5.73307">
        <ele>731.40002441406</ele>
        <time>2021-07-17T07:57:16.000Z</time>
      </trkpt>
      <trkpt lat="45.21327" lon="5.73307">
        <ele>731.20001220703</ele>
        <time>2021-07-17T07:57:17.000Z</time>
      </trkpt>
      <trkpt lat="45.21326" lon="5.73307">
        <ele>731</ele>
        <time>2021-07-17T07:57:18.000Z</time>
      </trkpt>
      <trkpt lat="45.21325" lon="5.73307">
        <ele>730.59997558594</ele>
        <time>2021-07-17T07:57:20.000Z</time>
      </trkpt>
      <trkpt lat="45.21324" lon="5.73307">
        <ele>730.20001220703</ele>
        <time>2021-07-17T07:57:21.000Z</time>
      </trkpt>
      <trkpt lat="45.21323" lon="5.73307">
        <ele>730.20001220703</ele>
        <time>2021-07-17T07:57:22.000Z</time>
      </trkpt>
      <trkpt lat="45.2132" lon="5.73308">
        <ele>728.79998779297</ele>
        <time>2021-07-17T07:57:24.000Z</time>
      </trkpt>
      <trkpt lat="45.21318" lon="5.73308">
        <ele>728.20001220703</ele>
        <time>2021-07-17T07:57:26.000Z</time>
      </trkpt>
      <trkpt lat="45.21315" lon="5.73308">
        <ele>728</ele>
        <time>2021-07-17T07:57:28.000Z</time>
      </trkpt>
      <trkpt lat="45.21314" lon="5.73308">
        <ele>727.79998779297</ele>
        <time>2021-07-17T07:57:29.000Z</time>
      </trkpt>
      <trkpt lat="45.21314" lon="5.73308">
        <ele>727.20001220703</ele>
        <time>2021-07-17T07:57:30.000Z</time>
      </trkpt>
      <trkpt lat="45.21313" lon="5.73308">
        <ele>726.59997558594</ele>
        <time>2021-07-17T07:57:31.000Z</time>
      </trkpt>
      <trkpt lat="45.21313" lon="5.73309">
        <ele>726</ele>
        <time>2021-07-17T07:57:32.000Z</time>
      </trkpt>
      <trkpt lat="45.2131" lon="5.73308">
        <ele>725.79998779297</ele>
        <time>2021-07-17T07:57:34.000Z</time>
      </trkpt>
      <trkpt lat="45.21309" lon="5.73307">
        <ele>725.79998779297</ele>
        <time>2021-07-17T07:57:35.000Z</time>
      </trkpt>
      <trkpt lat="45.21302" lon="5.73303">
        <ele>724.20001220703</ele>
        <time>2021-07-17T07:57:38.000Z</time>
      </trkpt>
      <trkpt lat="45.21301" lon="5.73302">
        <ele>723.59997558594</ele>
        <time>2021-07-17T07:57:39.000Z</time>
      </trkpt>
      <trkpt lat="45.213" lon="5.733">
        <ele>723.20001220703</ele>
        <time>2021-07-17T07:57:40.000Z</time>
      </trkpt>
      <trkpt lat="45.213" lon="5.73298">
        <ele>723</ele>
        <time>2021-07-17T07:57:41.000Z</time>
      </trkpt>
      <trkpt lat="45.21299" lon="5.73292">
        <ele>722.40002441406</ele>
        <time>2021-07-17T07:57:44.000Z</time>
      </trkpt>
      <trkpt lat="45.21298" lon="5.73291">
        <ele>722.20001220703</ele>
        <time>2021-07-17T07:57:45.000Z</time>
      </trkpt>
      <trkpt lat="45.21297" lon="5.73289">
        <ele>721.40002441406</ele>
        <time>2021-07-17T07:57:46.000Z</time>
      </trkpt>
      <trkpt lat="45.21296" lon="5.73289">
        <ele>721.40002441406</ele>
        <time>2021-07-17T07:57:47.000Z</time>
      </trkpt>
      <trkpt lat="45.21289" lon="5.73291">
        <ele>720.20001220703</ele>
        <time>2021-07-17T07:57:50.000Z</time>
      </trkpt>
      <trkpt lat="45.21287" lon="5.7329">
        <ele>719.79998779297</ele>
        <time>2021-07-17T07:57:51.000Z</time>
      </trkpt>
      <trkpt lat="45.21281" lon="5.73287">
        <ele>719.20001220703</ele>
        <time>2021-07-17T07:57:54.000Z</time>
      </trkpt>
      <trkpt lat="45.2128" lon="5.73287">
        <ele>719.20001220703</ele>
        <time>2021-07-17T07:57:55.000Z</time>
      </trkpt>
      <trkpt lat="45.21279" lon="5.73287">
        <ele>718.59997558594</ele>
        <time>2021-07-17T07:57:56.000Z</time>
      </trkpt>
      <trkpt lat="45.21278" lon="5.73286">
        <ele>718.20001220703</ele>
        <time>2021-07-17T07:57:57.000Z</time>
      </trkpt>
      <trkpt lat="45.21273" lon="5.73286">
        <ele>717.59997558594</ele>
        <time>2021-07-17T07:58:00.000Z</time>
      </trkpt>
      <trkpt lat="45.21269" lon="5.73287">
        <ele>716.59997558594</ele>
        <time>2021-07-17T07:58:02.000Z</time>
      </trkpt>
      <trkpt lat="45.21262" lon="5.73286">
        <ele>715.59997558594</ele>
        <time>2021-07-17T07:58:06.000Z</time>
      </trkpt>
      <trkpt lat="45.21261" lon="5.73283">
        <ele>715.40002441406</ele>
        <time>2021-07-17T07:58:07.000Z</time>
      </trkpt>
      <trkpt lat="45.21259" lon="5.7328">
        <ele>715</ele>
        <time>2021-07-17T07:58:08.000Z</time>
      </trkpt>
      <trkpt lat="45.21255" lon="5.73276">
        <ele>714.59997558594</ele>
        <time>2021-07-17T07:58:10.000Z</time>
      </trkpt>
      <trkpt lat="45.21253" lon="5.73274">
        <ele>713.79998779297</ele>
        <time>2021-07-17T07:58:11.000Z</time>
      </trkpt>
      <trkpt lat="45.21251" lon="5.73271">
        <ele>713.20001220703</ele>
        <time>2021-07-17T07:58:12.000Z</time>
      </trkpt>
      <trkpt lat="45.2125" lon="5.7326">
        <ele>712.79998779297</ele>
        <time>2021-07-17T07:58:15.000Z</time>
      </trkpt>
      <trkpt lat="45.21249" lon="5.73258">
        <ele>712.20001220703</ele>
        <time>2021-07-17T07:58:16.000Z</time>
      </trkpt>
      <trkpt lat="45.21245" lon="5.73257">
        <ele>711.20001220703</ele>
        <time>2021-07-17T07:58:18.000Z</time>
      </trkpt>
      <trkpt lat="45.21239" lon="5.73253">
        <ele>710.40002441406</ele>
        <time>2021-07-17T07:58:21.000Z</time>
      </trkpt>
      <trkpt lat="45.21238" lon="5.73251">
        <ele>710.20001220703</ele>
        <time>2021-07-17T07:58:22.000Z</time>
      </trkpt>
      <trkpt lat="45.21236" lon="5.73249">
        <ele>709</ele>
        <time>2021-07-17T07:58:24.000Z</time>
      </trkpt>
      <trkpt lat="45.21234" lon="5.73247">
        <ele>708.40002441406</ele>
        <time>2021-07-17T07:58:26.000Z</time>
      </trkpt>
      <trkpt lat="45.21232" lon="5.73244">
        <ele>708</ele>
        <time>2021-07-17T07:58:28.000Z</time>
      </trkpt>
      <trkpt lat="45.2123" lon="5.73242">
        <ele>707.20001220703</ele>
        <time>2021-07-17T07:58:30.000Z</time>
      </trkpt>
      <trkpt lat="45.21228" lon="5.73241">
        <ele>706.79998779297</ele>
        <time>2021-07-17T07:58:31.000Z</time>
      </trkpt>
      <trkpt lat="45.21226" lon="5.7324">
        <ele>705.59997558594</ele>
        <time>2021-07-17T07:58:32.000Z</time>
      </trkpt>
      <trkpt lat="45.21224" lon="5.73239">
        <ele>705.59997558594</ele>
        <time>2021-07-17T07:58:33.000Z</time>
      </trkpt>
      <trkpt lat="45.21222" lon="5.73238">
        <ele>705.59997558594</ele>
        <time>2021-07-17T07:58:34.000Z</time>
      </trkpt>
      <trkpt lat="45.21214" lon="5.73231">
        <ele>703.79998779297</ele>
        <time>2021-07-17T07:58:38.000Z</time>
      </trkpt>
      <trkpt lat="45.21212" lon="5.73225">
        <ele>703.59997558594</ele>
        <time>2021-07-17T07:58:40.000Z</time>
      </trkpt>
      <trkpt lat="45.21209" lon="5.73223">
        <ele>702.20001220703</ele>
        <time>2021-07-17T07:58:42.000Z</time>
      </trkpt>
      <trkpt lat="45.21204" lon="5.73218">
        <ele>701.59997558594</ele>
        <time>2021-07-17T07:58:46.000Z</time>
      </trkpt>
      <trkpt lat="45.21203" lon="5.73216">
        <ele>701</ele>
        <time>2021-07-17T07:58:47.000Z</time>
      </trkpt>
      <trkpt lat="45.212" lon="5.73213">
        <ele>700.40002441406</ele>
        <time>2021-07-17T07:58:49.000Z</time>
      </trkpt>
      <trkpt lat="45.21198" lon="5.73213">
        <ele>699.79998779297</ele>
        <time>2021-07-17T07:58:50.000Z</time>
      </trkpt>
      <trkpt lat="45.21194" lon="5.7321">
        <ele>699.40002441406</ele>
        <time>2021-07-17T07:58:52.000Z</time>
      </trkpt>
      <trkpt lat="45.21192" lon="5.73209">
        <ele>699.20001220703</ele>
        <time>2021-07-17T07:58:53.000Z</time>
      </trkpt>
      <trkpt lat="45.2119" lon="5.73208">
        <ele>698.20001220703</ele>
        <time>2021-07-17T07:58:54.000Z</time>
      </trkpt>
      <trkpt lat="45.21187" lon="5.732">
        <ele>697.20001220703</ele>
        <time>2021-07-17T07:58:57.000Z</time>
      </trkpt>
      <trkpt lat="45.21186" lon="5.73199">
        <ele>697.20001220703</ele>
        <time>2021-07-17T07:58:58.000Z</time>
      </trkpt>
      <trkpt lat="45.21184" lon="5.73197">
        <ele>696.40002441406</ele>
        <time>2021-07-17T07:58:59.000Z</time>
      </trkpt>
      <trkpt lat="45.21184" lon="5.73195">
        <ele>696.20001220703</ele>
        <time>2021-07-17T07:59:00.000Z</time>
      </trkpt>
      <trkpt lat="45.21181" lon="5.73192">
        <ele>696</ele>
        <time>2021-07-17T07:59:02.000Z</time>
      </trkpt>
      <trkpt lat="45.21178" lon="5.7319">
        <ele>695</ele>
        <time>2021-07-17T07:59:04.000Z</time>
      </trkpt>
      <trkpt lat="45.21175" lon="5.73187">
        <ele>694.20001220703</ele>
        <time>2021-07-17T07:59:07.000Z</time>
      </trkpt>
      <trkpt lat="45.21174" lon="5.73185">
        <ele>693.59997558594</ele>
        <time>2021-07-17T07:59:08.000Z</time>
      </trkpt>
      <trkpt lat="45.21169" lon="5.73181">
        <ele>692.59997558594</ele>
        <time>2021-07-17T07:59:11.000Z</time>
      </trkpt>
      <trkpt lat="45.21167" lon="5.73175">
        <ele>691.79998779297</ele>
        <time>2021-07-17T07:59:13.000Z</time>
      </trkpt>
      <trkpt lat="45.21165" lon="5.73171">
        <ele>691.20001220703</ele>
        <time>2021-07-17T07:59:15.000Z</time>
      </trkpt>
      <trkpt lat="45.2116" lon="5.73162">
        <ele>690.20001220703</ele>
        <time>2021-07-17T07:59:19.000Z</time>
      </trkpt>
      <trkpt lat="45.2116" lon="5.73159">
        <ele>689.20001220703</ele>
        <time>2021-07-17T07:59:20.000Z</time>
      </trkpt>
      <trkpt lat="45.21159" lon="5.73157">
        <ele>689</ele>
        <time>2021-07-17T07:59:21.000Z</time>
      </trkpt>
      <trkpt lat="45.21154" lon="5.73156">
        <ele>688.20001220703</ele>
        <time>2021-07-17T07:59:24.000Z</time>
      </trkpt>
      <trkpt lat="45.21152" lon="5.73156">
        <ele>687.59997558594</ele>
        <time>2021-07-17T07:59:25.000Z</time>
      </trkpt>
      <trkpt lat="45.21149" lon="5.73152">
        <ele>687.40002441406</ele>
        <time>2021-07-17T07:59:28.000Z</time>
      </trkpt>
      <trkpt lat="45.21149" lon="5.73149">
        <ele>687.20001220703</ele>
        <time>2021-07-17T07:59:29.000Z</time>
      </trkpt>
      <trkpt lat="45.21149" lon="5.73147">
        <ele>686.59997558594</ele>
        <time>2021-07-17T07:59:31.000Z</time>
      </trkpt>
      <trkpt lat="45.21146" lon="5.73144">
        <ele>686.40002441406</ele>
        <time>2021-07-17T07:59:33.000Z</time>
      </trkpt>
      <trkpt lat="45.21145" lon="5.73142">
        <ele>685.59997558594</ele>
        <time>2021-07-17T07:59:34.000Z</time>
      </trkpt>
      <trkpt lat="45.21144" lon="5.73141">
        <ele>685.20001220703</ele>
        <time>2021-07-17T07:59:35.000Z</time>
      </trkpt>
      <trkpt lat="45.21142" lon="5.73141">
        <ele>684.20001220703</ele>
        <time>2021-07-17T07:59:36.000Z</time>
      </trkpt>
      <trkpt lat="45.21141" lon="5.7314">
        <ele>684</ele>
        <time>2021-07-17T07:59:37.000Z</time>
      </trkpt>
      <trkpt lat="45.2114" lon="5.73139">
        <ele>684</ele>
        <time>2021-07-17T07:59:38.000Z</time>
      </trkpt>
      <trkpt lat="45.21139" lon="5.73139">
        <ele>683.40002441406</ele>
        <time>2021-07-17T07:59:39.000Z</time>
      </trkpt>
      <trkpt lat="45.21136" lon="5.7314">
        <ele>682.79998779297</ele>
        <time>2021-07-17T07:59:41.000Z</time>
      </trkpt>
      <trkpt lat="45.21131" lon="5.7314">
        <ele>681.79998779297</ele>
        <time>2021-07-17T07:59:44.000Z</time>
      </trkpt>
      <trkpt lat="45.21129" lon="5.73141">
        <ele>681.79998779297</ele>
        <time>2021-07-17T07:59:45.000Z</time>
      </trkpt>
      <trkpt lat="45.21126" lon="5.73142">
        <ele>680.40002441406</ele>
        <time>2021-07-17T07:59:47.000Z</time>
      </trkpt>
      <trkpt lat="45.21118" lon="5.73144">
        <ele>679</ele>
        <time>2021-07-17T07:59:52.000Z</time>
      </trkpt>
      <trkpt lat="45.21115" lon="5.73146">
        <ele>677.40002441406</ele>
        <time>2021-07-17T07:59:55.000Z</time>
      </trkpt>
      <trkpt lat="45.21112" lon="5.73147">
        <ele>676.79998779297</ele>
        <time>2021-07-17T07:59:59.000Z</time>
      </trkpt>
      <trkpt lat="45.21113" lon="5.73147">
        <ele>676.40002441406</ele>
        <time>2021-07-17T08:00:00.000Z</time>
      </trkpt>
      <trkpt lat="45.21114" lon="5.73147">
        <ele>676.20001220703</ele>
        <time>2021-07-17T08:00:01.000Z</time>
      </trkpt>
      <trkpt lat="45.21116" lon="5.73146">
        <ele>675</ele>
        <time>2021-07-17T08:00:03.000Z</time>
      </trkpt>
      <trkpt lat="45.21118" lon="5.73145">
        <ele>673.59997558594</ele>
        <time>2021-07-17T08:00:05.000Z</time>
      </trkpt>
      <trkpt lat="45.2112" lon="5.73144">
        <ele>673.59997558594</ele>
        <time>2021-07-17T08:00:07.000Z</time>
      </trkpt>
      <trkpt lat="45.21125" lon="5.73144">
        <ele>672.40002441406</ele>
        <time>2021-07-17T08:00:10.000Z</time>
      </trkpt>
      <trkpt lat="45.21126" lon="5.73143">
        <ele>672.20001220703</ele>
        <time>2021-07-17T08:00:11.000Z</time>
      </trkpt>
      <trkpt lat="45.21127" lon="5.73143">
        <ele>670.79998779297</ele>
        <time>2021-07-17T08:00:13.000Z</time>
      </trkpt>
      <trkpt lat="45.21127" lon="5.73144">
        <ele>670.59997558594</ele>
        <time>2021-07-17T08:00:15.000Z</time>
      </trkpt>
      <trkpt lat="45.21126" lon="5.73146">
        <ele>669.40002441406</ele>
        <time>2021-07-17T08:00:18.000Z</time>
      </trkpt>
      <trkpt lat="45.21125" lon="5.73147">
        <ele>669</ele>
        <time>2021-07-17T08:00:19.000Z</time>
      </trkpt>
      <trkpt lat="45.21123" lon="5.73149">
        <ele>668.79998779297</ele>
        <time>2021-07-17T08:00:20.000Z</time>
      </trkpt>
      <trkpt lat="45.2112" lon="5.73151">
        <ele>668.40002441406</ele>
        <time>2021-07-17T08:00:22.000Z</time>
      </trkpt>
      <trkpt lat="45.21119" lon="5.73152">
        <ele>668.20001220703</ele>
        <time>2021-07-17T08:00:23.000Z</time>
      </trkpt>
      <trkpt lat="45.21116" lon="5.73154">
        <ele>667.79998779297</ele>
        <time>2021-07-17T08:00:25.000Z</time>
      </trkpt>
      <trkpt lat="45.21114" lon="5.73156">
        <ele>667.40002441406</ele>
        <time>2021-07-17T08:00:27.000Z</time>
      </trkpt>
      <trkpt lat="45.21111" lon="5.73159">
        <ele>666.79998779297</ele>
        <time>2021-07-17T08:00:30.000Z</time>
      </trkpt>
      <trkpt lat="45.21109" lon="5.7316">
        <ele>666.20001220703</ele>
        <time>2021-07-17T08:00:32.000Z</time>
      </trkpt>
      <trkpt lat="45.21105" lon="5.73161">
        <ele>664.79998779297</ele>
        <time>2021-07-17T08:00:34.000Z</time>
      </trkpt>
      <trkpt lat="45.211" lon="5.73158">
        <ele>663.20001220703</ele>
        <time>2021-07-17T08:00:37.000Z</time>
      </trkpt>
      <trkpt lat="45.21096" lon="5.73155">
        <ele>663</ele>
        <time>2021-07-17T08:00:39.000Z</time>
      </trkpt>
      <trkpt lat="45.21095" lon="5.73153">
        <ele>662.40002441406</ele>
        <time>2021-07-17T08:00:40.000Z</time>
      </trkpt>
      <trkpt lat="45.21092" lon="5.7315">
        <ele>661.79998779297</ele>
        <time>2021-07-17T08:00:42.000Z</time>
      </trkpt>
      <trkpt lat="45.2109" lon="5.73149">
        <ele>661.40002441406</ele>
        <time>2021-07-17T08:00:43.000Z</time>
      </trkpt>
      <trkpt lat="45.21086" lon="5.73147">
        <ele>660.79998779297</ele>
        <time>2021-07-17T08:00:45.000Z</time>
      </trkpt>
      <trkpt lat="45.21084" lon="5.73146">
        <ele>660.59997558594</ele>
        <time>2021-07-17T08:00:46.000Z</time>
      </trkpt>
      <trkpt lat="45.21078" lon="5.73141">
        <ele>659.40002441406</ele>
        <time>2021-07-17T08:00:50.000Z</time>
      </trkpt>
      <trkpt lat="45.21078" lon="5.73137">
        <ele>658.59997558594</ele>
        <time>2021-07-17T08:00:52.000Z</time>
      </trkpt>
      <trkpt lat="45.21077" lon="5.73135">
        <ele>658.59997558594</ele>
        <time>2021-07-17T08:00:53.000Z</time>
      </trkpt>
      <trkpt lat="45.21076" lon="5.73134">
        <ele>658.40002441406</ele>
        <time>2021-07-17T08:00:56.000Z</time>
      </trkpt>
      <trkpt lat="45.21076" lon="5.73135">
        <ele>658</ele>
        <time>2021-07-17T08:00:57.000Z</time>
      </trkpt>
      <trkpt lat="45.21072" lon="5.73139">
        <ele>657.59997558594</ele>
        <time>2021-07-17T08:01:01.000Z</time>
      </trkpt>
      <trkpt lat="45.2107" lon="5.73139">
        <ele>656.40002441406</ele>
        <time>2021-07-17T08:01:02.000Z</time>
      </trkpt>
      <trkpt lat="45.21066" lon="5.73139">
        <ele>655.40002441406</ele>
        <time>2021-07-17T08:01:04.000Z</time>
      </trkpt>
      <trkpt lat="45.21063" lon="5.73137">
        <ele>655.20001220703</ele>
        <time>2021-07-17T08:01:06.000Z</time>
      </trkpt>
      <trkpt lat="45.21058" lon="5.73136">
        <ele>654.40002441406</ele>
        <time>2021-07-17T08:01:08.000Z</time>
      </trkpt>
      <trkpt lat="45.21057" lon="5.73134">
        <ele>654</ele>
        <time>2021-07-17T08:01:09.000Z</time>
      </trkpt>
      <trkpt lat="45.21054" lon="5.73131">
        <ele>653.40002441406</ele>
        <time>2021-07-17T08:01:11.000Z</time>
      </trkpt>
      <trkpt lat="45.21052" lon="5.73131">
        <ele>653</ele>
        <time>2021-07-17T08:01:12.000Z</time>
      </trkpt>
      <trkpt lat="45.21046" lon="5.73132">
        <ele>652</ele>
        <time>2021-07-17T08:01:14.000Z</time>
      </trkpt>
      <trkpt lat="45.21044" lon="5.73132">
        <ele>652</ele>
        <time>2021-07-17T08:01:15.000Z</time>
      </trkpt>
      <trkpt lat="45.21037" lon="5.73129">
        <ele>651.40002441406</ele>
        <time>2021-07-17T08:01:19.000Z</time>
      </trkpt>
      <trkpt lat="45.21036" lon="5.73129">
        <ele>650.40002441406</ele>
        <time>2021-07-17T08:01:20.000Z</time>
      </trkpt>
      <trkpt lat="45.21034" lon="5.73128">
        <ele>650.40002441406</ele>
        <time>2021-07-17T08:01:21.000Z</time>
      </trkpt>
      <trkpt lat="45.21033" lon="5.73127">
        <ele>650.40002441406</ele>
        <time>2021-07-17T08:01:22.000Z</time>
      </trkpt>
      <trkpt lat="45.21031" lon="5.73125">
        <ele>650</ele>
        <time>2021-07-17T08:01:24.000Z</time>
      </trkpt>
      <trkpt lat="45.2103" lon="5.73122">
        <ele>649.59997558594</ele>
        <time>2021-07-17T08:01:26.000Z</time>
      </trkpt>
      <trkpt lat="45.21029" lon="5.7312">
        <ele>649.40002441406</ele>
        <time>2021-07-17T08:01:27.000Z</time>
      </trkpt>
      <trkpt lat="45.21027" lon="5.73119">
        <ele>649.20001220703</ele>
        <time>2021-07-17T08:01:29.000Z</time>
      </trkpt>
      <trkpt lat="45.21026" lon="5.73118">
        <ele>649.20001220703</ele>
        <time>2021-07-17T08:01:31.000Z</time>
      </trkpt>
      <trkpt lat="45.21025" lon="5.73119">
        <ele>649</ele>
        <time>2021-07-17T08:01:32.000Z</time>
      </trkpt>
      <trkpt lat="45.21025" lon="5.73119">
        <ele>648.20001220703</ele>
        <time>2021-07-17T08:01:35.000Z</time>
      </trkpt>
      <trkpt lat="45.21024" lon="5.7312">
        <ele>648</ele>
        <time>2021-07-17T08:01:36.000Z</time>
      </trkpt>
      <trkpt lat="45.21022" lon="5.73122">
        <ele>647.20001220703</ele>
        <time>2021-07-17T08:01:38.000Z</time>
      </trkpt>
      <trkpt lat="45.21021" lon="5.73122">
        <ele>646.79998779297</ele>
        <time>2021-07-17T08:01:39.000Z</time>
      </trkpt>
      <trkpt lat="45.21019" lon="5.73123">
        <ele>646.79998779297</ele>
        <time>2021-07-17T08:01:40.000Z</time>
      </trkpt>
      <trkpt lat="45.2102" lon="5.73123">
        <ele>646.59997558594</ele>
        <time>2021-07-17T08:01:41.000Z</time>
      </trkpt>
      <trkpt lat="45.21019" lon="5.73126">
        <ele>645.20001220703</ele>
        <time>2021-07-17T08:01:45.000Z</time>
      </trkpt>
      <trkpt lat="45.21016" lon="5.73129">
        <ele>644.79998779297</ele>
        <time>2021-07-17T08:01:48.000Z</time>
      </trkpt>
      <trkpt lat="45.21013" lon="5.73134">
        <ele>643.40002441406</ele>
        <time>2021-07-17T08:01:51.000Z</time>
      </trkpt>
      <trkpt lat="45.2101" lon="5.73136">
        <ele>643</ele>
        <time>2021-07-17T08:01:53.000Z</time>
      </trkpt>
      <trkpt lat="45.21006" lon="5.73139">
        <ele>642.40002441406</ele>
        <time>2021-07-17T08:01:56.000Z</time>
      </trkpt>
      <trkpt lat="45.21005" lon="5.7314">
        <ele>641.59997558594</ele>
        <time>2021-07-17T08:01:57.000Z</time>
      </trkpt>
      <trkpt lat="45.21004" lon="5.7314">
        <ele>641.59997558594</ele>
        <time>2021-07-17T08:01:58.000Z</time>
      </trkpt>
      <trkpt lat="45.21004" lon="5.73141">
        <ele>640.59997558594</ele>
        <time>2021-07-17T08:01:59.000Z</time>
      </trkpt>
      <trkpt lat="45.21004" lon="5.7314">
        <ele>640.59997558594</ele>
        <time>2021-07-17T08:02:00.000Z</time>
      </trkpt>
      <trkpt lat="45.21006" lon="5.73132">
        <ele>638.79998779297</ele>
        <time>2021-07-17T08:02:05.000Z</time>
      </trkpt>
      <trkpt lat="45.21009" lon="5.7313">
        <ele>638.20001220703</ele>
        <time>2021-07-17T08:02:07.000Z</time>
      </trkpt>
      <trkpt lat="45.2101" lon="5.73129">
        <ele>637.79998779297</ele>
        <time>2021-07-17T08:02:08.000Z</time>
      </trkpt>
      <trkpt lat="45.21011" lon="5.73128">
        <ele>636.40002441406</ele>
        <time>2021-07-17T08:02:10.000Z</time>
      </trkpt>
      <trkpt lat="45.21013" lon="5.73128">
        <ele>635.40002441406</ele>
        <time>2021-07-17T08:02:12.000Z</time>
      </trkpt>
      <trkpt lat="45.21014" lon="5.73126">
        <ele>635.40002441406</ele>
        <time>2021-07-17T08:02:14.000Z</time>
      </trkpt>
      <trkpt lat="45.21015" lon="5.73125">
        <ele>635</ele>
        <time>2021-07-17T08:02:17.000Z</time>
      </trkpt>
      <trkpt lat="45.21018" lon="5.73123">
        <ele>634.79998779297</ele>
        <time>2021-07-17T08:02:19.000Z</time>
      </trkpt>
      <trkpt lat="45.21019" lon="5.73122">
        <ele>634.59997558594</ele>
        <time>2021-07-17T08:02:20.000Z</time>
      </trkpt>
      <trkpt lat="45.21021" lon="5.73123">
        <ele>634.40002441406</ele>
        <time>2021-07-17T08:02:22.000Z</time>
      </trkpt>
      <trkpt lat="45.21022" lon="5.73122">
        <ele>634.20001220703</ele>
        <time>2021-07-17T08:02:23.000Z</time>
      </trkpt>
      <trkpt lat="45.21022" lon="5.73122">
        <ele>633.79998779297</ele>
        <time>2021-07-17T08:02:24.000Z</time>
      </trkpt>
      <trkpt lat="45.21023" lon="5.73122">
        <ele>633.79998779297</ele>
        <time>2021-07-17T08:02:26.000Z</time>
      </trkpt>
      <trkpt lat="45.21023" lon="5.73125">
        <ele>633.79998779297</ele>
        <time>2021-07-17T08:02:29.000Z</time>
      </trkpt>
      <trkpt lat="45.21025" lon="5.73125">
        <ele>633</ele>
        <time>2021-07-17T08:02:32.000Z</time>
      </trkpt>
      <trkpt lat="45.21025" lon="5.73125">
        <ele>632.59997558594</ele>
        <time>2021-07-17T08:02:33.000Z</time>
      </trkpt>
      <trkpt lat="45.21025" lon="5.73126">
        <ele>632</ele>
        <time>2021-07-17T08:02:34.000Z</time>
      </trkpt>
      <trkpt lat="45.21026" lon="5.7313">
        <ele>631.59997558594</ele>
        <time>2021-07-17T08:02:36.000Z</time>
      </trkpt>
      <trkpt lat="45.21027" lon="5.73132">
        <ele>631</ele>
        <time>2021-07-17T08:02:38.000Z</time>
      </trkpt>
      <trkpt lat="45.21027" lon="5.73133">
        <ele>630.59997558594</ele>
        <time>2021-07-17T08:02:39.000Z</time>
      </trkpt>
      <trkpt lat="45.21027" lon="5.73136">
        <ele>630.40002441406</ele>
        <time>2021-07-17T08:02:41.000Z</time>
      </trkpt>
      <trkpt lat="45.21029" lon="5.73138">
        <ele>629.20001220703</ele>
        <time>2021-07-17T08:02:44.000Z</time>
      </trkpt>
      <trkpt lat="45.2103" lon="5.73139">
        <ele>629.20001220703</ele>
        <time>2021-07-17T08:02:45.000Z</time>
      </trkpt>
      <trkpt lat="45.21032" lon="5.73143">
        <ele>627.59997558594</ele>
        <time>2021-07-17T08:02:49.000Z</time>
      </trkpt>
      <trkpt lat="45.21035" lon="5.73144">
        <ele>627</ele>
        <time>2021-07-17T08:02:51.000Z</time>
      </trkpt>
      <trkpt lat="45.21036" lon="5.73145">
        <ele>626.20001220703</ele>
        <time>2021-07-17T08:02:53.000Z</time>
      </trkpt>
      <trkpt lat="45.21038" lon="5.73145">
        <ele>625.59997558594</ele>
        <time>2021-07-17T08:02:55.000Z</time>
      </trkpt>
      <trkpt lat="45.21042" lon="5.73147">
        <ele>625.40002441406</ele>
        <time>2021-07-17T08:02:58.000Z</time>
      </trkpt>
      <trkpt lat="45.21043" lon="5.73148">
        <ele>624.79998779297</ele>
        <time>2021-07-17T08:02:59.000Z</time>
      </trkpt>
      <trkpt lat="45.21043" lon="5.73149">
        <ele>624.59997558594</ele>
        <time>2021-07-17T08:03:00.000Z</time>
      </trkpt>
      <trkpt lat="45.21044" lon="5.73152">
        <ele>624.40002441406</ele>
        <time>2021-07-17T08:03:02.000Z</time>
      </trkpt>
      <trkpt lat="45.21046" lon="5.73157">
        <ele>623</ele>
        <time>2021-07-17T08:03:06.000Z</time>
      </trkpt>
      <trkpt lat="45.21048" lon="5.73162">
        <ele>622.59997558594</ele>
        <time>2021-07-17T08:03:08.000Z</time>
      </trkpt>
      <trkpt lat="45.2105" lon="5.73163">
        <ele>622</ele>
        <time>2021-07-17T08:03:09.000Z</time>
      </trkpt>
      <trkpt lat="45.21052" lon="5.73168">
        <ele>621.40002441406</ele>
        <time>2021-07-17T08:03:11.000Z</time>
      </trkpt>
      <trkpt lat="45.21056" lon="5.73171">
        <ele>621.20001220703</ele>
        <time>2021-07-17T08:03:13.000Z</time>
      </trkpt>
      <trkpt lat="45.21058" lon="5.73173">
        <ele>621</ele>
        <time>2021-07-17T08:03:14.000Z</time>
      </trkpt>
      <trkpt lat="45.21062" lon="5.73179">
        <ele>620.20001220703</ele>
        <time>2021-07-17T08:03:16.000Z</time>
      </trkpt>
      <trkpt lat="45.21066" lon="5.73184">
        <ele>619.59997558594</ele>
        <time>2021-07-17T08:03:18.000Z</time>
      </trkpt>
      <trkpt lat="45.2107" lon="5.73188">
        <ele>619.40002441406</ele>
        <time>2021-07-17T08:03:20.000Z</time>
      </trkpt>
      <trkpt lat="45.21072" lon="5.73192">
        <ele>619.20001220703</ele>
        <time>2021-07-17T08:03:22.000Z</time>
      </trkpt>
      <trkpt lat="45.21073" lon="5.73194">
        <ele>618.20001220703</ele>
        <time>2021-07-17T08:03:23.000Z</time>
      </trkpt>
      <trkpt lat="45.21074" lon="5.73194">
        <ele>617.79998779297</ele>
        <time>2021-07-17T08:03:24.000Z</time>
      </trkpt>
      <trkpt lat="45.21077" lon="5.73196">
        <ele>617</ele>
        <time>2021-07-17T08:03:26.000Z</time>
      </trkpt>
      <trkpt lat="45.2108" lon="5.73199">
        <ele>617</ele>
        <time>2021-07-17T08:03:28.000Z</time>
      </trkpt>
      <trkpt lat="45.2108" lon="5.73206">
        <ele>616</ele>
        <time>2021-07-17T08:03:32.000Z</time>
      </trkpt>
      <trkpt lat="45.21078" lon="5.73208">
        <ele>615.59997558594</ele>
        <time>2021-07-17T08:03:33.000Z</time>
      </trkpt>
      <trkpt lat="45.21075" lon="5.73209">
        <ele>615.20001220703</ele>
        <time>2021-07-17T08:03:36.000Z</time>
      </trkpt>
      <trkpt lat="45.21072" lon="5.7321">
        <ele>614.59997558594</ele>
        <time>2021-07-17T08:03:38.000Z</time>
      </trkpt>
      <trkpt lat="45.21071" lon="5.7321">
        <ele>614</ele>
        <time>2021-07-17T08:03:39.000Z</time>
      </trkpt>
      <trkpt lat="45.21067" lon="5.73209">
        <ele>613</ele>
        <time>2021-07-17T08:03:42.000Z</time>
      </trkpt>
      <trkpt lat="45.21063" lon="5.73209">
        <ele>612.40002441406</ele>
        <time>2021-07-17T08:03:45.000Z</time>
      </trkpt>
      <trkpt lat="45.21061" lon="5.73209">
        <ele>612.40002441406</ele>
        <time>2021-07-17T08:03:46.000Z</time>
      </trkpt>
      <trkpt lat="45.21058" lon="5.73208">
        <ele>611.59997558594</ele>
        <time>2021-07-17T08:03:48.000Z</time>
      </trkpt>
      <trkpt lat="45.21057" lon="5.73207">
        <ele>611.40002441406</ele>
        <time>2021-07-17T08:03:49.000Z</time>
      </trkpt>
      <trkpt lat="45.21056" lon="5.73206">
        <ele>611.20001220703</ele>
        <time>2021-07-17T08:03:50.000Z</time>
      </trkpt>
      <trkpt lat="45.21054" lon="5.73205">
        <ele>610.40002441406</ele>
        <time>2021-07-17T08:03:52.000Z</time>
      </trkpt>
      <trkpt lat="45.2105" lon="5.73204">
        <ele>610</ele>
        <time>2021-07-17T08:03:55.000Z</time>
      </trkpt>
      <trkpt lat="45.21048" lon="5.73205">
        <ele>609.59997558594</ele>
        <time>2021-07-17T08:03:56.000Z</time>
      </trkpt>
      <trkpt lat="45.21045" lon="5.73206">
        <ele>609</ele>
        <time>2021-07-17T08:03:58.000Z</time>
      </trkpt>
      <trkpt lat="45.21044" lon="5.73206">
        <ele>609</ele>
        <time>2021-07-17T08:03:59.000Z</time>
      </trkpt>
      <trkpt lat="45.2104" lon="5.73206">
        <ele>608.20001220703</ele>
        <time>2021-07-17T08:04:01.000Z</time>
      </trkpt>
      <trkpt lat="45.21038" lon="5.73205">
        <ele>607.79998779297</ele>
        <time>2021-07-17T08:04:02.000Z</time>
      </trkpt>
      <trkpt lat="45.21032" lon="5.73203">
        <ele>606.59997558594</ele>
        <time>2021-07-17T08:04:06.000Z</time>
      </trkpt>
      <trkpt lat="45.21031" lon="5.73201">
        <ele>606.40002441406</ele>
        <time>2021-07-17T08:04:07.000Z</time>
      </trkpt>
      <trkpt lat="45.21029" lon="5.73198">
        <ele>605.59997558594</ele>
        <time>2021-07-17T08:04:09.000Z</time>
      </trkpt>
      <trkpt lat="45.21028" lon="5.73197">
        <ele>605.40002441406</ele>
        <time>2021-07-17T08:04:10.000Z</time>
      </trkpt>
      <trkpt lat="45.21026" lon="5.73196">
        <ele>605.40002441406</ele>
        <time>2021-07-17T08:04:11.000Z</time>
      </trkpt>
      <trkpt lat="45.21024" lon="5.73195">
        <ele>605.40002441406</ele>
        <time>2021-07-17T08:04:12.000Z</time>
      </trkpt>
      <trkpt lat="45.21021" lon="5.73194">
        <ele>604.59997558594</ele>
        <time>2021-07-17T08:04:14.000Z</time>
      </trkpt>
      <trkpt lat="45.21019" lon="5.73194">
        <ele>604.40002441406</ele>
        <time>2021-07-17T08:04:16.000Z</time>
      </trkpt>
      <trkpt lat="45.21019" lon="5.73195">
        <ele>604.20001220703</ele>
        <time>2021-07-17T08:04:17.000Z</time>
      </trkpt>
      <trkpt lat="45.21017" lon="5.73195">
        <ele>603.59997558594</ele>
        <time>2021-07-17T08:04:19.000Z</time>
      </trkpt>
      <trkpt lat="45.21015" lon="5.73195">
        <ele>603.20001220703</ele>
        <time>2021-07-17T08:04:20.000Z</time>
      </trkpt>
      <trkpt lat="45.21014" lon="5.73196">
        <ele>603</ele>
        <time>2021-07-17T08:04:21.000Z</time>
      </trkpt>
      <trkpt lat="45.21013" lon="5.73197">
        <ele>603</ele>
        <time>2021-07-17T08:04:22.000Z</time>
      </trkpt>
      <trkpt lat="45.21012" lon="5.73198">
        <ele>602</ele>
        <time>2021-07-17T08:04:25.000Z</time>
      </trkpt>
      <trkpt lat="45.21011" lon="5.73201">
        <ele>601.40002441406</ele>
        <time>2021-07-17T08:04:28.000Z</time>
      </trkpt>
      <trkpt lat="45.21009" lon="5.73204">
        <ele>600.79998779297</ele>
        <time>2021-07-17T08:04:30.000Z</time>
      </trkpt>
      <trkpt lat="45.21004" lon="5.73209">
        <ele>599.59997558594</ele>
        <time>2021-07-17T08:04:34.000Z</time>
      </trkpt>
      <trkpt lat="45.21003" lon="5.73211">
        <ele>599.40002441406</ele>
        <time>2021-07-17T08:04:35.000Z</time>
      </trkpt>
      <trkpt lat="45.21002" lon="5.73212">
        <ele>598.59997558594</ele>
        <time>2021-07-17T08:04:36.000Z</time>
      </trkpt>
      <trkpt lat="45.21002" lon="5.73213">
        <ele>598.59997558594</ele>
        <time>2021-07-17T08:04:37.000Z</time>
      </trkpt>
      <trkpt lat="45.21001" lon="5.73216">
        <ele>597.79998779297</ele>
        <time>2021-07-17T08:04:39.000Z</time>
      </trkpt>
      <trkpt lat="45.21" lon="5.73217">
        <ele>597.79998779297</ele>
        <time>2021-07-17T08:04:40.000Z</time>
      </trkpt>
      <trkpt lat="45.20998" lon="5.73219">
        <ele>597.40002441406</ele>
        <time>2021-07-17T08:04:41.000Z</time>
      </trkpt>
      <trkpt lat="45.20991" lon="5.73224">
        <ele>596.40002441406</ele>
        <time>2021-07-17T08:04:45.000Z</time>
      </trkpt>
      <trkpt lat="45.20989" lon="5.73225">
        <ele>595.79998779297</ele>
        <time>2021-07-17T08:04:46.000Z</time>
      </trkpt>
      <trkpt lat="45.20988" lon="5.73225">
        <ele>595</ele>
        <time>2021-07-17T08:04:47.000Z</time>
      </trkpt>
      <trkpt lat="45.20985" lon="5.73225">
        <ele>594.59997558594</ele>
        <time>2021-07-17T08:04:49.000Z</time>
      </trkpt>
      <trkpt lat="45.20985" lon="5.73224">
        <ele>594</ele>
        <time>2021-07-17T08:04:51.000Z</time>
      </trkpt>
      <trkpt lat="45.20985" lon="5.73224">
        <ele>593.79998779297</ele>
        <time>2021-07-17T08:04:52.000Z</time>
      </trkpt>
      <trkpt lat="45.20986" lon="5.73224">
        <ele>593.40002441406</ele>
        <time>2021-07-17T08:04:54.000Z</time>
      </trkpt>
      <trkpt lat="45.20986" lon="5.73224">
        <ele>593</ele>
        <time>2021-07-17T08:04:55.000Z</time>
      </trkpt>
      <trkpt lat="45.20988" lon="5.73222">
        <ele>592.40002441406</ele>
        <time>2021-07-17T08:04:57.000Z</time>
      </trkpt>
      <trkpt lat="45.20995" lon="5.73222">
        <ele>591.59997558594</ele>
        <time>2021-07-17T08:05:02.000Z</time>
      </trkpt>
      <trkpt lat="45.20994" lon="5.73223">
        <ele>591.59997558594</ele>
        <time>2021-07-17T08:05:04.000Z</time>
      </trkpt>
      <trkpt lat="45.20992" lon="5.73222">
        <ele>591.20001220703</ele>
        <time>2021-07-17T08:05:06.000Z</time>
      </trkpt>
      <trkpt lat="45.20991" lon="5.73223">
        <ele>591.20001220703</ele>
        <time>2021-07-17T08:05:07.000Z</time>
      </trkpt>
      <trkpt lat="45.20988" lon="5.73225">
        <ele>590.20001220703</ele>
        <time>2021-07-17T08:05:09.000Z</time>
      </trkpt>
      <trkpt lat="45.20987" lon="5.73226">
        <ele>590.20001220703</ele>
        <time>2021-07-17T08:05:10.000Z</time>
      </trkpt>
      <trkpt lat="45.20985" lon="5.73226">
        <ele>590</ele>
        <time>2021-07-17T08:05:11.000Z</time>
      </trkpt>
      <trkpt lat="45.20981" lon="5.73226">
        <ele>589</ele>
        <time>2021-07-17T08:05:13.000Z</time>
      </trkpt>
      <trkpt lat="45.2098" lon="5.73227">
        <ele>588.59997558594</ele>
        <time>2021-07-17T08:05:14.000Z</time>
      </trkpt>
      <trkpt lat="45.20974" lon="5.73228">
        <ele>587.79998779297</ele>
        <time>2021-07-17T08:05:16.000Z</time>
      </trkpt>
      <trkpt lat="45.20968" lon="5.73229">
        <ele>587.40002441406</ele>
        <time>2021-07-17T08:05:19.000Z</time>
      </trkpt>
      <trkpt lat="45.20967" lon="5.7323">
        <ele>586.59997558594</ele>
        <time>2021-07-17T08:05:20.000Z</time>
      </trkpt>
      <trkpt lat="45.20965" lon="5.73231">
        <ele>586.40002441406</ele>
        <time>2021-07-17T08:05:21.000Z</time>
      </trkpt>
      <trkpt lat="45.20962" lon="5.73233">
        <ele>586.20001220703</ele>
        <time>2021-07-17T08:05:23.000Z</time>
      </trkpt>
      <trkpt lat="45.20959" lon="5.73232">
        <ele>585.59997558594</ele>
        <time>2021-07-17T08:05:25.000Z</time>
      </trkpt>
      <trkpt lat="45.20958" lon="5.73233">
        <ele>585.59997558594</ele>
        <time>2021-07-17T08:05:26.000Z</time>
      </trkpt>
      <trkpt lat="45.20954" lon="5.73235">
        <ele>584.40002441406</ele>
        <time>2021-07-17T08:05:28.000Z</time>
      </trkpt>
      <trkpt lat="45.20946" lon="5.73237">
        <ele>583.20001220703</ele>
        <time>2021-07-17T08:05:33.000Z</time>
      </trkpt>
      <trkpt lat="45.20935" lon="5.73235">
        <ele>582.40002441406</ele>
        <time>2021-07-17T08:05:39.000Z</time>
      </trkpt>
      <trkpt lat="45.20933" lon="5.73235">
        <ele>582</ele>
        <time>2021-07-17T08:05:40.000Z</time>
      </trkpt>
      <trkpt lat="45.20931" lon="5.73235">
        <ele>581.40002441406</ele>
        <time>2021-07-17T08:05:42.000Z</time>
      </trkpt>
      <trkpt lat="45.20931" lon="5.73235">
        <ele>580.79998779297</ele>
        <time>2021-07-17T08:05:44.000Z</time>
      </trkpt>
      <trkpt lat="45.20935" lon="5.73238">
        <ele>580</ele>
        <time>2021-07-17T08:05:48.000Z</time>
      </trkpt>
      <trkpt lat="45.20938" lon="5.73238">
        <ele>579.40002441406</ele>
        <time>2021-07-17T08:05:50.000Z</time>
      </trkpt>
      <trkpt lat="45.20939" lon="5.73237">
        <ele>579.79998779297</ele>
        <time>2021-07-17T08:05:51.000Z</time>
      </trkpt>
      <trkpt lat="45.20944" lon="5.73239">
        <ele>578.40002441406</ele>
        <time>2021-07-17T08:05:55.000Z</time>
      </trkpt>
      <trkpt lat="45.20945" lon="5.73239">
        <ele>577.79998779297</ele>
        <time>2021-07-17T08:05:56.000Z</time>
      </trkpt>
      <trkpt lat="45.20947" lon="5.73238">
        <ele>576.79998779297</ele>
        <time>2021-07-17T08:05:57.000Z</time>
      </trkpt>
      <trkpt lat="45.20948" lon="5.73237">
        <ele>576.59997558594</ele>
        <time>2021-07-17T08:05:58.000Z</time>
      </trkpt>
      <trkpt lat="45.20951" lon="5.73237">
        <ele>576</ele>
        <time>2021-07-17T08:06:01.000Z</time>
      </trkpt>
      <trkpt lat="45.20952" lon="5.73235">
        <ele>576</ele>
        <time>2021-07-17T08:06:02.000Z</time>
      </trkpt>
      <trkpt lat="45.20953" lon="5.73235">
        <ele>575.59997558594</ele>
        <time>2021-07-17T08:06:03.000Z</time>
      </trkpt>
      <trkpt lat="45.20956" lon="5.73237">
        <ele>574.59997558594</ele>
        <time>2021-07-17T08:06:06.000Z</time>
      </trkpt>
      <trkpt lat="45.20958" lon="5.73237">
        <ele>574.20001220703</ele>
        <time>2021-07-17T08:06:07.000Z</time>
      </trkpt>
      <trkpt lat="45.20965" lon="5.73239">
        <ele>573</ele>
        <time>2021-07-17T08:06:11.000Z</time>
      </trkpt>
      <trkpt lat="45.20968" lon="5.7324">
        <ele>572.79998779297</ele>
        <time>2021-07-17T08:06:13.000Z</time>
      </trkpt>
      <trkpt lat="45.20971" lon="5.73241">
        <ele>572.40002441406</ele>
        <time>2021-07-17T08:06:17.000Z</time>
      </trkpt>
      <trkpt lat="45.20971" lon="5.73241">
        <ele>572</ele>
        <time>2021-07-17T08:06:18.000Z</time>
      </trkpt>
      <trkpt lat="45.20972" lon="5.73242">
        <ele>571.40002441406</ele>
        <time>2021-07-17T08:06:19.000Z</time>
      </trkpt>
      <trkpt lat="45.20974" lon="5.73242">
        <ele>571</ele>
        <time>2021-07-17T08:06:20.000Z</time>
      </trkpt>
      <trkpt lat="45.20975" lon="5.73244">
        <ele>570.40002441406</ele>
        <time>2021-07-17T08:06:21.000Z</time>
      </trkpt>
      <trkpt lat="45.20975" lon="5.73245">
        <ele>570.40002441406</ele>
        <time>2021-07-17T08:06:22.000Z</time>
      </trkpt>
      <trkpt lat="45.20974" lon="5.73248">
        <ele>569.59997558594</ele>
        <time>2021-07-17T08:06:24.000Z</time>
      </trkpt>
      <trkpt lat="45.20973" lon="5.73249">
        <ele>569.20001220703</ele>
        <time>2021-07-17T08:06:25.000Z</time>
      </trkpt>
      <trkpt lat="45.20969" lon="5.73254">
        <ele>567.79998779297</ele>
        <time>2021-07-17T08:06:29.000Z</time>
      </trkpt>
      <trkpt lat="45.20965" lon="5.73252">
        <ele>566.59997558594</ele>
        <time>2021-07-17T08:06:33.000Z</time>
      </trkpt>
      <trkpt lat="45.20963" lon="5.73252">
        <ele>566.40002441406</ele>
        <time>2021-07-17T08:06:34.000Z</time>
      </trkpt>
      <trkpt lat="45.20962" lon="5.73253">
        <ele>566.40002441406</ele>
        <time>2021-07-17T08:06:35.000Z</time>
      </trkpt>
      <trkpt lat="45.20958" lon="5.73253">
        <ele>565.59997558594</ele>
        <time>2021-07-17T08:06:39.000Z</time>
      </trkpt>
      <trkpt lat="45.20956" lon="5.73254">
        <ele>564.79998779297</ele>
        <time>2021-07-17T08:06:41.000Z</time>
      </trkpt>
      <trkpt lat="45.20955" lon="5.73256">
        <ele>564.59997558594</ele>
        <time>2021-07-17T08:06:42.000Z</time>
      </trkpt>
      <trkpt lat="45.20953" lon="5.73257">
        <ele>564.40002441406</ele>
        <time>2021-07-17T08:06:43.000Z</time>
      </trkpt>
      <trkpt lat="45.20952" lon="5.73258">
        <ele>563.79998779297</ele>
        <time>2021-07-17T08:06:44.000Z</time>
      </trkpt>
      <trkpt lat="45.20951" lon="5.7326">
        <ele>563.40002441406</ele>
        <time>2021-07-17T08:06:46.000Z</time>
      </trkpt>
      <trkpt lat="45.20948" lon="5.73261">
        <ele>562.79998779297</ele>
        <time>2021-07-17T08:06:48.000Z</time>
      </trkpt>
      <trkpt lat="45.20943" lon="5.73262">
        <ele>561.79998779297</ele>
        <time>2021-07-17T08:06:50.000Z</time>
      </trkpt>
      <trkpt lat="45.2094" lon="5.73261">
        <ele>561.40002441406</ele>
        <time>2021-07-17T08:06:52.000Z</time>
      </trkpt>
      <trkpt lat="45.20937" lon="5.73262">
        <ele>560.79998779297</ele>
        <time>2021-07-17T08:06:54.000Z</time>
      </trkpt>
      <trkpt lat="45.20936" lon="5.73262">
        <ele>560.59997558594</ele>
        <time>2021-07-17T08:06:55.000Z</time>
      </trkpt>
      <trkpt lat="45.20934" lon="5.73261">
        <ele>560.20001220703</ele>
        <time>2021-07-17T08:06:57.000Z</time>
      </trkpt>
      <trkpt lat="45.20931" lon="5.73261">
        <ele>559.40002441406</ele>
        <time>2021-07-17T08:06:59.000Z</time>
      </trkpt>
      <trkpt lat="45.20929" lon="5.73262">
        <ele>559.20001220703</ele>
        <time>2021-07-17T08:07:00.000Z</time>
      </trkpt>
      <trkpt lat="45.20927" lon="5.73262">
        <ele>559.20001220703</ele>
        <time>2021-07-17T08:07:01.000Z</time>
      </trkpt>
      <trkpt lat="45.20923" lon="5.73264">
        <ele>558.20001220703</ele>
        <time>2021-07-17T08:07:03.000Z</time>
      </trkpt>
      <trkpt lat="45.2092" lon="5.73263">
        <ele>557.59997558594</ele>
        <time>2021-07-17T08:07:06.000Z</time>
      </trkpt>
      <trkpt lat="45.20919" lon="5.73264">
        <ele>557.40002441406</ele>
        <time>2021-07-17T08:07:07.000Z</time>
      </trkpt>
      <trkpt lat="45.20918" lon="5.73265">
        <ele>557</ele>
        <time>2021-07-17T08:07:08.000Z</time>
      </trkpt>
      <trkpt lat="45.20915" lon="5.73265">
        <ele>556.59997558594</ele>
        <time>2021-07-17T08:07:10.000Z</time>
      </trkpt>
      <trkpt lat="45.20911" lon="5.73264">
        <ele>556</ele>
        <time>2021-07-17T08:07:13.000Z</time>
      </trkpt>
      <trkpt lat="45.2091" lon="5.73264">
        <ele>555.79998779297</ele>
        <time>2021-07-17T08:07:14.000Z</time>
      </trkpt>
      <trkpt lat="45.20911" lon="5.73265">
        <ele>555</ele>
        <time>2021-07-17T08:07:17.000Z</time>
      </trkpt>
      <trkpt lat="45.20912" lon="5.73265">
        <ele>554.79998779297</ele>
        <time>2021-07-17T08:07:18.000Z</time>
      </trkpt>
      <trkpt lat="45.20918" lon="5.73267">
        <ele>553.59997558594</ele>
        <time>2021-07-17T08:07:22.000Z</time>
      </trkpt>
      <trkpt lat="45.2092" lon="5.73267">
        <ele>553.20001220703</ele>
        <time>2021-07-17T08:07:24.000Z</time>
      </trkpt>
      <trkpt lat="45.20922" lon="5.73268">
        <ele>552.20001220703</ele>
        <time>2021-07-17T08:07:26.000Z</time>
      </trkpt>
      <trkpt lat="45.20923" lon="5.73269">
        <ele>552</ele>
        <time>2021-07-17T08:07:27.000Z</time>
      </trkpt>
      <trkpt lat="45.20924" lon="5.7327">
        <ele>552</ele>
        <time>2021-07-17T08:07:28.000Z</time>
      </trkpt>
      <trkpt lat="45.20925" lon="5.73271">
        <ele>551.40002441406</ele>
        <time>2021-07-17T08:07:29.000Z</time>
      </trkpt>
      <trkpt lat="45.20926" lon="5.73273">
        <ele>551</ele>
        <time>2021-07-17T08:07:30.000Z</time>
      </trkpt>
      <trkpt lat="45.20931" lon="5.73276">
        <ele>550.40002441406</ele>
        <time>2021-07-17T08:07:34.000Z</time>
      </trkpt>
      <trkpt lat="45.20933" lon="5.73278">
        <ele>550</ele>
        <time>2021-07-17T08:07:35.000Z</time>
      </trkpt>
      <trkpt lat="45.20934" lon="5.73278">
        <ele>550</ele>
        <time>2021-07-17T08:07:36.000Z</time>
      </trkpt>
      <trkpt lat="45.20938" lon="5.73282">
        <ele>548.79998779297</ele>
        <time>2021-07-17T08:07:39.000Z</time>
      </trkpt>
      <trkpt lat="45.20939" lon="5.73282">
        <ele>548.79998779297</ele>
        <time>2021-07-17T08:07:40.000Z</time>
      </trkpt>
      <trkpt lat="45.20941" lon="5.73285">
        <ele>548.20001220703</ele>
        <time>2021-07-17T08:07:43.000Z</time>
      </trkpt>
      <trkpt lat="45.20943" lon="5.73285">
        <ele>547.59997558594</ele>
        <time>2021-07-17T08:07:45.000Z</time>
      </trkpt>
      <trkpt lat="45.20945" lon="5.73285">
        <ele>547.20001220703</ele>
        <time>2021-07-17T08:07:46.000Z</time>
      </trkpt>
      <trkpt lat="45.20946" lon="5.73285">
        <ele>547.20001220703</ele>
        <time>2021-07-17T08:07:47.000Z</time>
      </trkpt>
      <trkpt lat="45.20947" lon="5.73286">
        <ele>547</ele>
        <time>2021-07-17T08:07:48.000Z</time>
      </trkpt>
      <trkpt lat="45.20949" lon="5.73287">
        <ele>546</ele>
        <time>2021-07-17T08:07:49.000Z</time>
      </trkpt>
      <trkpt lat="45.20951" lon="5.73287">
        <ele>545.59997558594</ele>
        <time>2021-07-17T08:07:51.000Z</time>
      </trkpt>
      <trkpt lat="45.20959" lon="5.73287">
        <ele>545</ele>
        <time>2021-07-17T08:07:55.000Z</time>
      </trkpt>
      <trkpt lat="45.2096" lon="5.73287">
        <ele>544.59997558594</ele>
        <time>2021-07-17T08:07:56.000Z</time>
      </trkpt>
      <trkpt lat="45.20963" lon="5.73292">
        <ele>543.20001220703</ele>
        <time>2021-07-17T08:08:00.000Z</time>
      </trkpt>
      <trkpt lat="45.20964" lon="5.73292">
        <ele>543.20001220703</ele>
        <time>2021-07-17T08:08:01.000Z</time>
      </trkpt>
      <trkpt lat="45.2097" lon="5.7329">
        <ele>541.79998779297</ele>
        <time>2021-07-17T08:08:05.000Z</time>
      </trkpt>
      <trkpt lat="45.20971" lon="5.7329">
        <ele>541.40002441406</ele>
        <time>2021-07-17T08:08:06.000Z</time>
      </trkpt>
      <trkpt lat="45.20973" lon="5.73289">
        <ele>540.59997558594</ele>
        <time>2021-07-17T08:08:08.000Z</time>
      </trkpt>
      <trkpt lat="45.20975" lon="5.7329">
        <ele>540.59997558594</ele>
        <time>2021-07-17T08:08:10.000Z</time>
      </trkpt>
      <trkpt lat="45.20977" lon="5.73291">
        <ele>540</ele>
        <time>2021-07-17T08:08:12.000Z</time>
      </trkpt>
      <trkpt lat="45.20979" lon="5.73294">
        <ele>539.59997558594</ele>
        <time>2021-07-17T08:08:14.000Z</time>
      </trkpt>
      <trkpt lat="45.20979" lon="5.73294">
        <ele>539.40002441406</ele>
        <time>2021-07-17T08:08:15.000Z</time>
      </trkpt>
      <trkpt lat="45.20977" lon="5.73296">
        <ele>538.40002441406</ele>
        <time>2021-07-17T08:08:17.000Z</time>
      </trkpt>
      <trkpt lat="45.20977" lon="5.73298">
        <ele>538.40002441406</ele>
        <time>2021-07-17T08:08:19.000Z</time>
      </trkpt>
      <trkpt lat="45.20977" lon="5.73299">
        <ele>538</ele>
        <time>2021-07-17T08:08:21.000Z</time>
      </trkpt>
      <trkpt lat="45.20976" lon="5.73298">
        <ele>537.40002441406</ele>
        <time>2021-07-17T08:08:22.000Z</time>
      </trkpt>
      <trkpt lat="45.20975" lon="5.73298">
        <ele>536.79998779297</ele>
        <time>2021-07-17T08:08:23.000Z</time>
      </trkpt>
      <trkpt lat="45.20974" lon="5.73298">
        <ele>536.79998779297</ele>
        <time>2021-07-17T08:08:24.000Z</time>
      </trkpt>
      <trkpt lat="45.20973" lon="5.73299">
        <ele>536.40002441406</ele>
        <time>2021-07-17T08:08:26.000Z</time>
      </trkpt>
      <trkpt lat="45.2097" lon="5.73303">
        <ele>535.79998779297</ele>
        <time>2021-07-17T08:08:29.000Z</time>
      </trkpt>
      <trkpt lat="45.20968" lon="5.73304">
        <ele>535.20001220703</ele>
        <time>2021-07-17T08:08:31.000Z</time>
      </trkpt>
      <trkpt lat="45.20966" lon="5.73305">
        <ele>535.20001220703</ele>
        <time>2021-07-17T08:08:32.000Z</time>
      </trkpt>
      <trkpt lat="45.20963" lon="5.73308">
        <ele>534.20001220703</ele>
        <time>2021-07-17T08:08:35.000Z</time>
      </trkpt>
      <trkpt lat="45.20957" lon="5.73311">
        <ele>533.20001220703</ele>
        <time>2021-07-17T08:08:39.000Z</time>
      </trkpt>
      <trkpt lat="45.20956" lon="5.73311">
        <ele>532.59997558594</ele>
        <time>2021-07-17T08:08:40.000Z</time>
      </trkpt>
      <trkpt lat="45.20946" lon="5.73313">
        <ele>531</ele>
        <time>2021-07-17T08:08:44.000Z</time>
      </trkpt>
      <trkpt lat="45.20944" lon="5.73313">
        <ele>530.79998779297</ele>
        <time>2021-07-17T08:08:45.000Z</time>
      </trkpt>
      <trkpt lat="45.20933" lon="5.73313">
        <ele>530.20001220703</ele>
        <time>2021-07-17T08:08:51.000Z</time>
      </trkpt>
      <trkpt lat="45.20932" lon="5.73313">
        <ele>530</ele>
        <time>2021-07-17T08:08:52.000Z</time>
      </trkpt>
      <trkpt lat="45.20929" lon="5.73313">
        <ele>529.20001220703</ele>
        <time>2021-07-17T08:08:53.000Z</time>
      </trkpt>
      <trkpt lat="45.20927" lon="5.73312">
        <ele>529.20001220703</ele>
        <time>2021-07-17T08:08:54.000Z</time>
      </trkpt>
      <trkpt lat="45.20923" lon="5.73312">
        <ele>528.40002441406</ele>
        <time>2021-07-17T08:08:56.000Z</time>
      </trkpt>
      <trkpt lat="45.20922" lon="5.73312">
        <ele>527.79998779297</ele>
        <time>2021-07-17T08:08:57.000Z</time>
      </trkpt>
      <trkpt lat="45.20918" lon="5.7331">
        <ele>527.20001220703</ele>
        <time>2021-07-17T08:09:00.000Z</time>
      </trkpt>
      <trkpt lat="45.20917" lon="5.73311">
        <ele>526.59997558594</ele>
        <time>2021-07-17T08:09:01.000Z</time>
      </trkpt>
      <trkpt lat="45.20916" lon="5.73311">
        <ele>526.59997558594</ele>
        <time>2021-07-17T08:09:02.000Z</time>
      </trkpt>
      <trkpt lat="45.20906" lon="5.73311">
        <ele>525.59997558594</ele>
        <time>2021-07-17T08:09:06.000Z</time>
      </trkpt>
      <trkpt lat="45.20902" lon="5.73311">
        <ele>524.59997558594</ele>
        <time>2021-07-17T08:09:08.000Z</time>
      </trkpt>
      <trkpt lat="45.20901" lon="5.7331">
        <ele>524.59997558594</ele>
        <time>2021-07-17T08:09:09.000Z</time>
      </trkpt>
      <trkpt lat="45.20894" lon="5.73315">
        <ele>523.59997558594</ele>
        <time>2021-07-17T08:09:12.000Z</time>
      </trkpt>
      <trkpt lat="45.20891" lon="5.73316">
        <ele>523.20001220703</ele>
        <time>2021-07-17T08:09:14.000Z</time>
      </trkpt>
      <trkpt lat="45.20889" lon="5.73316">
        <ele>522.59997558594</ele>
        <time>2021-07-17T08:09:15.000Z</time>
      </trkpt>
      <trkpt lat="45.20885" lon="5.73317">
        <ele>521.79998779297</ele>
        <time>2021-07-17T08:09:17.000Z</time>
      </trkpt>
      <trkpt lat="45.20881" lon="5.73319">
        <ele>520.79998779297</ele>
        <time>2021-07-17T08:09:20.000Z</time>
      </trkpt>
      <trkpt lat="45.20872" lon="5.73321">
        <ele>520.40002441406</ele>
        <time>2021-07-17T08:09:24.000Z</time>
      </trkpt>
      <trkpt lat="45.20868" lon="5.7332">
        <ele>519</ele>
        <time>2021-07-17T08:09:26.000Z</time>
      </trkpt>
      <trkpt lat="45.20866" lon="5.73318">
        <ele>518.59997558594</ele>
        <time>2021-07-17T08:09:28.000Z</time>
      </trkpt>
      <trkpt lat="45.20865" lon="5.73318">
        <ele>518.59997558594</ele>
        <time>2021-07-17T08:09:29.000Z</time>
      </trkpt>
      <trkpt lat="45.20861" lon="5.73318">
        <ele>518</ele>
        <time>2021-07-17T08:09:32.000Z</time>
      </trkpt>
      <trkpt lat="45.20859" lon="5.73317">
        <ele>516.40002441406</ele>
        <time>2021-07-17T08:09:34.000Z</time>
      </trkpt>
      <trkpt lat="45.20854" lon="5.73311">
        <ele>515.59997558594</ele>
        <time>2021-07-17T08:09:40.000Z</time>
      </trkpt>
      <trkpt lat="45.20853" lon="5.7331">
        <ele>515.40002441406</ele>
        <time>2021-07-17T08:09:42.000Z</time>
      </trkpt>
      <trkpt lat="45.20854" lon="5.73309">
        <ele>515.59997558594</ele>
        <time>2021-07-17T08:09:44.000Z</time>
      </trkpt>
      <trkpt lat="45.20854" lon="5.7331">
        <ele>515.40002441406</ele>
        <time>2021-07-17T08:09:46.000Z</time>
      </trkpt>
      <trkpt lat="45.20857" lon="5.73314">
        <ele>515</ele>
        <time>2021-07-17T08:09:50.000Z</time>
      </trkpt>
      <trkpt lat="45.20857" lon="5.73315">
        <ele>514.20001220703</ele>
        <time>2021-07-17T08:09:52.000Z</time>
      </trkpt>
      <trkpt lat="45.20857" lon="5.73316">
        <ele>514</ele>
        <time>2021-07-17T08:09:53.000Z</time>
      </trkpt>
      <trkpt lat="45.20857" lon="5.73316">
        <ele>514</ele>
        <time>2021-07-17T08:09:59.000Z</time>
      </trkpt>
      <trkpt lat="45.20857" lon="5.73315">
        <ele>514</ele>
        <time>2021-07-17T08:10:01.000Z</time>
      </trkpt>
      <trkpt lat="45.20857" lon="5.73313">
        <ele>514.20001220703</ele>
        <time>2021-07-17T08:10:04.000Z</time>
      </trkpt>
      <trkpt lat="45.20857" lon="5.73313">
        <ele>514</ele>
        <time>2021-07-17T08:10:08.000Z</time>
      </trkpt>
      <trkpt lat="45.20855" lon="5.73307">
        <ele>514.59997558594</ele>
        <time>2021-07-17T08:10:17.000Z</time>
      </trkpt>
      <trkpt lat="45.20854" lon="5.73305">
        <ele>515.20001220703</ele>
        <time>2021-07-17T08:10:19.000Z</time>
      </trkpt>
      <trkpt lat="45.20853" lon="5.73305">
        <ele>515.20001220703</ele>
        <time>2021-07-17T08:10:21.000Z</time>
      </trkpt>
      <trkpt lat="45.20852" lon="5.73305">
        <ele>515.40002441406</ele>
        <time>2021-07-17T08:10:23.000Z</time>
      </trkpt>
      <trkpt lat="45.20852" lon="5.73303">
        <ele>515.40002441406</ele>
        <time>2021-07-17T08:10:26.000Z</time>
      </trkpt>
      <trkpt lat="45.20849" lon="5.73305">
        <ele>515.59997558594</ele>
        <time>2021-07-17T08:10:31.000Z</time>
      </trkpt>
      <trkpt lat="45.20852" lon="5.73311">
        <ele>514.40002441406</ele>
        <time>2021-07-17T08:10:39.000Z</time>
      </trkpt>
      <trkpt lat="45.20853" lon="5.73312">
        <ele>514</ele>
        <time>2021-07-17T08:10:40.000Z</time>
      </trkpt>
      <trkpt lat="45.20854" lon="5.73314">
        <ele>513.79998779297</ele>
        <time>2021-07-17T08:10:41.000Z</time>
      </trkpt>
      <trkpt lat="45.20858" lon="5.7332">
        <ele>513.20001220703</ele>
        <time>2021-07-17T08:10:46.000Z</time>
      </trkpt>
      <trkpt lat="45.20861" lon="5.7332">
        <ele>512.59997558594</ele>
        <time>2021-07-17T08:10:49.000Z</time>
      </trkpt>
      <trkpt lat="45.20864" lon="5.73322">
        <ele>512</ele>
        <time>2021-07-17T08:10:52.000Z</time>
      </trkpt>
      <trkpt lat="45.20864" lon="5.73323">
        <ele>511.39999389648</ele>
        <time>2021-07-17T08:10:55.000Z</time>
      </trkpt>
      <trkpt lat="45.20867" lon="5.73324">
        <ele>511</ele>
        <time>2021-07-17T08:10:57.000Z</time>
      </trkpt>
      <trkpt lat="45.20869" lon="5.73326">
        <ele>510.60000610352</ele>
        <time>2021-07-17T08:10:59.000Z</time>
      </trkpt>
      <trkpt lat="45.2087" lon="5.73328">
        <ele>510.20001220703</ele>
        <time>2021-07-17T08:11:00.000Z</time>
      </trkpt>
      <trkpt lat="45.20873" lon="5.7333">
        <ele>509.39999389648</ele>
        <time>2021-07-17T08:11:03.000Z</time>
      </trkpt>
      <trkpt lat="45.20874" lon="5.73331">
        <ele>508.39999389648</ele>
        <time>2021-07-17T08:11:04.000Z</time>
      </trkpt>
      <trkpt lat="45.2088" lon="5.73332">
        <ele>507.39999389648</ele>
        <time>2021-07-17T08:11:07.000Z</time>
      </trkpt>
      <trkpt lat="45.20886" lon="5.73333">
        <ele>507</ele>
        <time>2021-07-17T08:11:10.000Z</time>
      </trkpt>
      <trkpt lat="45.20888" lon="5.73333">
        <ele>506.39999389648</ele>
        <time>2021-07-17T08:11:11.000Z</time>
      </trkpt>
      <trkpt lat="45.20889" lon="5.73333">
        <ele>506.20001220703</ele>
        <time>2021-07-17T08:11:12.000Z</time>
      </trkpt>
      <trkpt lat="45.2089" lon="5.73335">
        <ele>505.39999389648</ele>
        <time>2021-07-17T08:11:13.000Z</time>
      </trkpt>
      <trkpt lat="45.2089" lon="5.73335">
        <ele>505.39999389648</ele>
        <time>2021-07-17T08:11:14.000Z</time>
      </trkpt>
      <trkpt lat="45.20891" lon="5.73336">
        <ele>505.20001220703</ele>
        <time>2021-07-17T08:11:15.000Z</time>
      </trkpt>
      <trkpt lat="45.20895" lon="5.7334">
        <ele>504.39999389648</ele>
        <time>2021-07-17T08:11:17.000Z</time>
      </trkpt>
      <trkpt lat="45.20901" lon="5.73345">
        <ele>504.39999389648</ele>
        <time>2021-07-17T08:11:19.000Z</time>
      </trkpt>
      <trkpt lat="45.20906" lon="5.73346">
        <ele>504.20001220703</ele>
        <time>2021-07-17T08:11:21.000Z</time>
      </trkpt>
      <trkpt lat="45.2091" lon="5.73347">
        <ele>503.79998779297</ele>
        <time>2021-07-17T08:11:23.000Z</time>
      </trkpt>
      <trkpt lat="45.20914" lon="5.73348">
        <ele>503.20001220703</ele>
        <time>2021-07-17T08:11:25.000Z</time>
      </trkpt>
      <trkpt lat="45.2092" lon="5.73348">
        <ele>503.20001220703</ele>
        <time>2021-07-17T08:11:28.000Z</time>
      </trkpt>
      <trkpt lat="45.20928" lon="5.7335">
        <ele>503</ele>
        <time>2021-07-17T08:11:31.000Z</time>
      </trkpt>
      <trkpt lat="45.2093" lon="5.73351">
        <ele>502.79998779297</ele>
        <time>2021-07-17T08:11:32.000Z</time>
      </trkpt>
      <trkpt lat="45.2094" lon="5.73354">
        <ele>502.60000610352</ele>
        <time>2021-07-17T08:11:36.000Z</time>
      </trkpt>
      <trkpt lat="45.20952" lon="5.73358">
        <ele>502.20001220703</ele>
        <time>2021-07-17T08:11:41.000Z</time>
      </trkpt>
      <trkpt lat="45.20954" lon="5.73359">
        <ele>502</ele>
        <time>2021-07-17T08:11:42.000Z</time>
      </trkpt>
      <trkpt lat="45.20958" lon="5.7336">
        <ele>501.79998779297</ele>
        <time>2021-07-17T08:11:44.000Z</time>
      </trkpt>
      <trkpt lat="45.20959" lon="5.7336">
        <ele>501.60000610352</ele>
        <time>2021-07-17T08:11:45.000Z</time>
      </trkpt>
      <trkpt lat="45.20962" lon="5.7336">
        <ele>501.60000610352</ele>
        <time>2021-07-17T08:11:46.000Z</time>
      </trkpt>
      <trkpt lat="45.20972" lon="5.73354">
        <ele>500.60000610352</ele>
        <time>2021-07-17T08:11:50.000Z</time>
      </trkpt>
      <trkpt lat="45.20984" lon="5.73345">
        <ele>499.79998779297</ele>
        <time>2021-07-17T08:11:56.000Z</time>
      </trkpt>
      <trkpt lat="45.20986" lon="5.73346">
        <ele>499.79998779297</ele>
        <time>2021-07-17T08:11:57.000Z</time>
      </trkpt>
      <trkpt lat="45.20993" lon="5.73353">
        <ele>499.79998779297</ele>
        <time>2021-07-17T08:12:01.000Z</time>
      </trkpt>
      <trkpt lat="45.20999" lon="5.73359">
        <ele>499.79998779297</ele>
        <time>2021-07-17T08:12:05.000Z</time>
      </trkpt>
      <trkpt lat="45.21003" lon="5.73363">
        <ele>499.60000610352</ele>
        <time>2021-07-17T08:12:07.000Z</time>
      </trkpt>
      <trkpt lat="45.21006" lon="5.73366">
        <ele>499.79998779297</ele>
        <time>2021-07-17T08:12:09.000Z</time>
      </trkpt>
      <trkpt lat="45.21011" lon="5.7337">
        <ele>500.20001220703</ele>
        <time>2021-07-17T08:12:12.000Z</time>
      </trkpt>
      <trkpt lat="45.21017" lon="5.73373">
        <ele>500.20001220703</ele>
        <time>2021-07-17T08:12:15.000Z</time>
      </trkpt>
      <trkpt lat="45.21021" lon="5.73374">
        <ele>500.20001220703</ele>
        <time>2021-07-17T08:12:17.000Z</time>
      </trkpt>
      <trkpt lat="45.21023" lon="5.73374">
        <ele>500.20001220703</ele>
        <time>2021-07-17T08:12:18.000Z</time>
      </trkpt>
      <trkpt lat="45.21026" lon="5.73374">
        <ele>500.20001220703</ele>
        <time>2021-07-17T08:12:19.000Z</time>
      </trkpt>
      <trkpt lat="45.21031" lon="5.73378">
        <ele>500.39999389648</ele>
        <time>2021-07-17T08:12:21.000Z</time>
      </trkpt>
      <trkpt lat="45.21036" lon="5.73384">
        <ele>500.20001220703</ele>
        <time>2021-07-17T08:12:23.000Z</time>
      </trkpt>
      <trkpt lat="45.2104" lon="5.73391">
        <ele>499.20001220703</ele>
        <time>2021-07-17T08:12:26.000Z</time>
      </trkpt>
      <trkpt lat="45.21042" lon="5.73394">
        <ele>499</ele>
        <time>2021-07-17T08:12:28.000Z</time>
      </trkpt>
      <trkpt lat="45.21044" lon="5.73396">
        <ele>499</ele>
        <time>2021-07-17T08:12:29.000Z</time>
      </trkpt>
      <trkpt lat="45.21045" lon="5.73397">
        <ele>498.79998779297</ele>
        <time>2021-07-17T08:12:30.000Z</time>
      </trkpt>
      <trkpt lat="45.21049" lon="5.73403">
        <ele>498.60000610352</ele>
        <time>2021-07-17T08:12:33.000Z</time>
      </trkpt>
      <trkpt lat="45.21054" lon="5.73409">
        <ele>498.39999389648</ele>
        <time>2021-07-17T08:12:36.000Z</time>
      </trkpt>
      <trkpt lat="45.21055" lon="5.7341">
        <ele>498.20001220703</ele>
        <time>2021-07-17T08:12:37.000Z</time>
      </trkpt>
      <trkpt lat="45.21056" lon="5.73416">
        <ele>497.39999389648</ele>
        <time>2021-07-17T08:12:39.000Z</time>
      </trkpt>
      <trkpt lat="45.21056" lon="5.73419">
        <ele>497</ele>
        <time>2021-07-17T08:12:40.000Z</time>
      </trkpt>
      <trkpt lat="45.21058" lon="5.73423">
        <ele>496.79998779297</ele>
        <time>2021-07-17T08:12:42.000Z</time>
      </trkpt>
      <trkpt lat="45.21059" lon="5.73429">
        <ele>496.79998779297</ele>
        <time>2021-07-17T08:12:44.000Z</time>
      </trkpt>
      <trkpt lat="45.21064" lon="5.73435">
        <ele>497</ele>
        <time>2021-07-17T08:12:47.000Z</time>
      </trkpt>
      <trkpt lat="45.21067" lon="5.73438">
        <ele>497.20001220703</ele>
        <time>2021-07-17T08:12:49.000Z</time>
      </trkpt>
      <trkpt lat="45.21074" lon="5.73445">
        <ele>498</ele>
        <time>2021-07-17T08:12:54.000Z</time>
      </trkpt>
      <trkpt lat="45.21075" lon="5.73446">
        <ele>497.60000610352</ele>
        <time>2021-07-17T08:12:55.000Z</time>
      </trkpt>
      <trkpt lat="45.21078" lon="5.73449">
        <ele>497</ele>
        <time>2021-07-17T08:12:57.000Z</time>
      </trkpt>
      <trkpt lat="45.21079" lon="5.7345">
        <ele>497</ele>
        <time>2021-07-17T08:12:58.000Z</time>
      </trkpt>
      <trkpt lat="45.21081" lon="5.73452">
        <ele>497</ele>
        <time>2021-07-17T08:12:59.000Z</time>
      </trkpt>
      <trkpt lat="45.21083" lon="5.73455">
        <ele>496.79998779297</ele>
        <time>2021-07-17T08:13:01.000Z</time>
      </trkpt>
      <trkpt lat="45.21086" lon="5.73461">
        <ele>497</ele>
        <time>2021-07-17T08:13:04.000Z</time>
      </trkpt>
      <trkpt lat="45.21095" lon="5.73465">
        <ele>497.20001220703</ele>
        <time>2021-07-17T08:13:08.000Z</time>
      </trkpt>
      <trkpt lat="45.21096" lon="5.73467">
        <ele>497.20001220703</ele>
        <time>2021-07-17T08:13:10.000Z</time>
      </trkpt>
      <trkpt lat="45.21098" lon="5.73471">
        <ele>497.20001220703</ele>
        <time>2021-07-17T08:13:12.000Z</time>
      </trkpt>
      <trkpt lat="45.21102" lon="5.73481">
        <ele>496</ele>
        <time>2021-07-17T08:13:17.000Z</time>
      </trkpt>
      <trkpt lat="45.21103" lon="5.73485">
        <ele>495</ele>
        <time>2021-07-17T08:13:19.000Z</time>
      </trkpt>
      <trkpt lat="45.21103" lon="5.73487">
        <ele>494.79998779297</ele>
        <time>2021-07-17T08:13:20.000Z</time>
      </trkpt>
      <trkpt lat="45.21104" lon="5.7349">
        <ele>494.20001220703</ele>
        <time>2021-07-17T08:13:21.000Z</time>
      </trkpt>
      <trkpt lat="45.21104" lon="5.73497">
        <ele>493.79998779297</ele>
        <time>2021-07-17T08:13:23.000Z</time>
      </trkpt>
      <trkpt lat="45.21104" lon="5.7351">
        <ele>492.79998779297</ele>
        <time>2021-07-17T08:13:27.000Z</time>
      </trkpt>
      <trkpt lat="45.21104" lon="5.73514">
        <ele>492.79998779297</ele>
        <time>2021-07-17T08:13:28.000Z</time>
      </trkpt>
      <trkpt lat="45.21103" lon="5.73518">
        <ele>492.60000610352</ele>
        <time>2021-07-17T08:13:29.000Z</time>
      </trkpt>
      <trkpt lat="45.21104" lon="5.73527">
        <ele>492</ele>
        <time>2021-07-17T08:13:32.000Z</time>
      </trkpt>
      <trkpt lat="45.21113" lon="5.73543">
        <ele>492.60000610352</ele>
        <time>2021-07-17T08:13:39.000Z</time>
      </trkpt>
      <trkpt lat="45.21124" lon="5.73553">
        <ele>491.60000610352</ele>
        <time>2021-07-17T08:13:45.000Z</time>
      </trkpt>
      <trkpt lat="45.21126" lon="5.73554">
        <ele>491.60000610352</ele>
        <time>2021-07-17T08:13:46.000Z</time>
      </trkpt>
      <trkpt lat="45.21136" lon="5.73558">
        <ele>491</ele>
        <time>2021-07-17T08:13:51.000Z</time>
      </trkpt>
      <trkpt lat="45.21138" lon="5.73559">
        <ele>491</ele>
        <time>2021-07-17T08:13:52.000Z</time>
      </trkpt>
      <trkpt lat="45.21148" lon="5.73565">
        <ele>491</ele>
        <time>2021-07-17T08:13:56.000Z</time>
      </trkpt>
      <trkpt lat="45.21151" lon="5.73571">
        <ele>490.20001220703</ele>
        <time>2021-07-17T08:13:58.000Z</time>
      </trkpt>
      <trkpt lat="45.21152" lon="5.73574">
        <ele>490.20001220703</ele>
        <time>2021-07-17T08:13:59.000Z</time>
      </trkpt>
      <trkpt lat="45.21153" lon="5.73578">
        <ele>490.20001220703</ele>
        <time>2021-07-17T08:14:01.000Z</time>
      </trkpt>
      <trkpt lat="45.21156" lon="5.73585">
        <ele>490.20001220703</ele>
        <time>2021-07-17T08:14:05.000Z</time>
      </trkpt>
      <trkpt lat="45.21158" lon="5.73589">
        <ele>489.39999389648</ele>
        <time>2021-07-17T08:14:07.000Z</time>
      </trkpt>
      <trkpt lat="45.21163" lon="5.73601">
        <ele>489.60000610352</ele>
        <time>2021-07-17T08:14:12.000Z</time>
      </trkpt>
      <trkpt lat="45.21164" lon="5.73603">
        <ele>489.60000610352</ele>
        <time>2021-07-17T08:14:13.000Z</time>
      </trkpt>
      <trkpt lat="45.21173" lon="5.7362">
        <ele>489.39999389648</ele>
        <time>2021-07-17T08:14:19.000Z</time>
      </trkpt>
      <trkpt lat="45.21175" lon="5.73622">
        <ele>489.20001220703</ele>
        <time>2021-07-17T08:14:20.000Z</time>
      </trkpt>
      <trkpt lat="45.21186" lon="5.73637">
        <ele>489</ele>
        <time>2021-07-17T08:14:27.000Z</time>
      </trkpt>
      <trkpt lat="45.21192" lon="5.73656">
        <ele>488.79998779297</ele>
        <time>2021-07-17T08:14:33.000Z</time>
      </trkpt>
      <trkpt lat="45.21192" lon="5.73658">
        <ele>487.60000610352</ele>
        <time>2021-07-17T08:14:34.000Z</time>
      </trkpt>
      <trkpt lat="45.21191" lon="5.7366">
        <ele>487.60000610352</ele>
        <time>2021-07-17T08:14:35.000Z</time>
      </trkpt>
      <trkpt lat="45.21191" lon="5.73667">
        <ele>486.79998779297</ele>
        <time>2021-07-17T08:14:38.000Z</time>
      </trkpt>
      <trkpt lat="45.21192" lon="5.73669">
        <ele>486.20001220703</ele>
        <time>2021-07-17T08:14:39.000Z</time>
      </trkpt>
      <trkpt lat="45.21193" lon="5.73671">
        <ele>486</ele>
        <time>2021-07-17T08:14:40.000Z</time>
      </trkpt>
      <trkpt lat="45.21195" lon="5.73678">
        <ele>485.60000610352</ele>
        <time>2021-07-17T08:14:43.000Z</time>
      </trkpt>
      <trkpt lat="45.21195" lon="5.7368">
        <ele>484.60000610352</ele>
        <time>2021-07-17T08:14:44.000Z</time>
      </trkpt>
      <trkpt lat="45.21195" lon="5.73684">
        <ele>484.60000610352</ele>
        <time>2021-07-17T08:14:45.000Z</time>
      </trkpt>
      <trkpt lat="45.21198" lon="5.7369">
        <ele>483.20001220703</ele>
        <time>2021-07-17T08:14:47.000Z</time>
      </trkpt>
      <trkpt lat="45.21199" lon="5.73692">
        <ele>483.20001220703</ele>
        <time>2021-07-17T08:14:48.000Z</time>
      </trkpt>
      <trkpt lat="45.21199" lon="5.73696">
        <ele>482.39999389648</ele>
        <time>2021-07-17T08:14:50.000Z</time>
      </trkpt>
      <trkpt lat="45.21199" lon="5.73699">
        <ele>482</ele>
        <time>2021-07-17T08:14:52.000Z</time>
      </trkpt>
      <trkpt lat="45.212" lon="5.73705">
        <ele>480.79998779297</ele>
        <time>2021-07-17T08:14:55.000Z</time>
      </trkpt>
      <trkpt lat="45.21199" lon="5.73706">
        <ele>480.20001220703</ele>
        <time>2021-07-17T08:14:56.000Z</time>
      </trkpt>
      <trkpt lat="45.21199" lon="5.73708">
        <ele>479.20001220703</ele>
        <time>2021-07-17T08:14:57.000Z</time>
      </trkpt>
      <trkpt lat="45.21198" lon="5.73709">
        <ele>479</ele>
        <time>2021-07-17T08:14:58.000Z</time>
      </trkpt>
      <trkpt lat="45.21199" lon="5.73722">
        <ele>477.79998779297</ele>
        <time>2021-07-17T08:15:01.000Z</time>
      </trkpt>
      <trkpt lat="45.21199" lon="5.73729">
        <ele>476.60000610352</ele>
        <time>2021-07-17T08:15:04.000Z</time>
      </trkpt>
      <trkpt lat="45.21199" lon="5.73737">
        <ele>475.60000610352</ele>
        <time>2021-07-17T08:15:07.000Z</time>
      </trkpt>
      <trkpt lat="45.21199" lon="5.73744">
        <ele>474.79998779297</ele>
        <time>2021-07-17T08:15:09.000Z</time>
      </trkpt>
      <trkpt lat="45.21199" lon="5.73748">
        <ele>474.20001220703</ele>
        <time>2021-07-17T08:15:10.000Z</time>
      </trkpt>
      <trkpt lat="45.212" lon="5.73759">
        <ele>473.39999389648</ele>
        <time>2021-07-17T08:15:13.000Z</time>
      </trkpt>
      <trkpt lat="45.21203" lon="5.73767">
        <ele>472.79998779297</ele>
        <time>2021-07-17T08:15:16.000Z</time>
      </trkpt>
      <trkpt lat="45.21205" lon="5.73772">
        <ele>471.20001220703</ele>
        <time>2021-07-17T08:15:18.000Z</time>
      </trkpt>
      <trkpt lat="45.21205" lon="5.73775">
        <ele>470.79998779297</ele>
        <time>2021-07-17T08:15:19.000Z</time>
      </trkpt>
      <trkpt lat="45.21204" lon="5.73779">
        <ele>470</ele>
        <time>2021-07-17T08:15:21.000Z</time>
      </trkpt>
      <trkpt lat="45.21202" lon="5.73792">
        <ele>468.60000610352</ele>
        <time>2021-07-17T08:15:25.000Z</time>
      </trkpt>
      <trkpt lat="45.21202" lon="5.73801">
        <ele>467.20001220703</ele>
        <time>2021-07-17T08:15:28.000Z</time>
      </trkpt>
      <trkpt lat="45.21202" lon="5.73804">
        <ele>467.20001220703</ele>
        <time>2021-07-17T08:15:29.000Z</time>
      </trkpt>
      <trkpt lat="45.21202" lon="5.73806">
        <ele>467</ele>
        <time>2021-07-17T08:15:30.000Z</time>
      </trkpt>
      <trkpt lat="45.21203" lon="5.73815">
        <ele>465.79998779297</ele>
        <time>2021-07-17T08:15:33.000Z</time>
      </trkpt>
      <trkpt lat="45.21203" lon="5.73819">
        <ele>464.39999389648</ele>
        <time>2021-07-17T08:15:35.000Z</time>
      </trkpt>
      <trkpt lat="45.21201" lon="5.73822">
        <ele>463.20001220703</ele>
        <time>2021-07-17T08:15:38.000Z</time>
      </trkpt>
      <trkpt lat="45.21199" lon="5.73823">
        <ele>463.20001220703</ele>
        <time>2021-07-17T08:15:40.000Z</time>
      </trkpt>
      <trkpt lat="45.21198" lon="5.73825">
        <ele>462</ele>
        <time>2021-07-17T08:15:41.000Z</time>
      </trkpt>
      <trkpt lat="45.21198" lon="5.73825">
        <ele>460.79998779297</ele>
        <time>2021-07-17T08:15:42.000Z</time>
      </trkpt>
      <trkpt lat="45.21196" lon="5.73827">
        <ele>460.60000610352</ele>
        <time>2021-07-17T08:15:44.000Z</time>
      </trkpt>
      <trkpt lat="45.21195" lon="5.7383">
        <ele>459.79998779297</ele>
        <time>2021-07-17T08:15:46.000Z</time>
      </trkpt>
      <trkpt lat="45.21194" lon="5.73832">
        <ele>458.60000610352</ele>
        <time>2021-07-17T08:15:47.000Z</time>
      </trkpt>
      <trkpt lat="45.21189" lon="5.73837">
        <ele>457.20001220703</ele>
        <time>2021-07-17T08:15:51.000Z</time>
      </trkpt>
      <trkpt lat="45.21188" lon="5.73838">
        <ele>456.79998779297</ele>
        <time>2021-07-17T08:15:52.000Z</time>
      </trkpt>
      <trkpt lat="45.21188" lon="5.73839">
        <ele>456.60000610352</ele>
        <time>2021-07-17T08:15:53.000Z</time>
      </trkpt>
      <trkpt lat="45.21184" lon="5.73845">
        <ele>456.20001220703</ele>
        <time>2021-07-17T08:15:57.000Z</time>
      </trkpt>
      <trkpt lat="45.21182" lon="5.73848">
        <ele>455.79998779297</ele>
        <time>2021-07-17T08:15:59.000Z</time>
      </trkpt>
      <trkpt lat="45.2118" lon="5.73849">
        <ele>454.39999389648</ele>
        <time>2021-07-17T08:16:01.000Z</time>
      </trkpt>
      <trkpt lat="45.21179" lon="5.73849">
        <ele>453</ele>
        <time>2021-07-17T08:16:02.000Z</time>
      </trkpt>
      <trkpt lat="45.21175" lon="5.73849">
        <ele>451.79998779297</ele>
        <time>2021-07-17T08:16:05.000Z</time>
      </trkpt>
      <trkpt lat="45.21171" lon="5.73849">
        <ele>451.60000610352</ele>
        <time>2021-07-17T08:16:07.000Z</time>
      </trkpt>
      <trkpt lat="45.21169" lon="5.73847">
        <ele>450.39999389648</ele>
        <time>2021-07-17T08:16:09.000Z</time>
      </trkpt>
      <trkpt lat="45.21167" lon="5.73846">
        <ele>450.20001220703</ele>
        <time>2021-07-17T08:16:11.000Z</time>
      </trkpt>
      <trkpt lat="45.21167" lon="5.73843">
        <ele>449.39999389648</ele>
        <time>2021-07-17T08:16:13.000Z</time>
      </trkpt>
      <trkpt lat="45.21167" lon="5.73843">
        <ele>448.79998779297</ele>
        <time>2021-07-17T08:16:14.000Z</time>
      </trkpt>
      <trkpt lat="45.21167" lon="5.73844">
        <ele>448</ele>
        <time>2021-07-17T08:16:15.000Z</time>
      </trkpt>
      <trkpt lat="45.21165" lon="5.73845">
        <ele>447.79998779297</ele>
        <time>2021-07-17T08:16:17.000Z</time>
      </trkpt>
      <trkpt lat="45.21164" lon="5.73845">
        <ele>447</ele>
        <time>2021-07-17T08:16:18.000Z</time>
      </trkpt>
      <trkpt lat="45.21164" lon="5.73846">
        <ele>446.39999389648</ele>
        <time>2021-07-17T08:16:19.000Z</time>
      </trkpt>
      <trkpt lat="45.21163" lon="5.73848">
        <ele>446</ele>
        <time>2021-07-17T08:16:21.000Z</time>
      </trkpt>
      <trkpt lat="45.21161" lon="5.7385">
        <ele>445.39999389648</ele>
        <time>2021-07-17T08:16:24.000Z</time>
      </trkpt>
      <trkpt lat="45.2116" lon="5.73852">
        <ele>445.39999389648</ele>
        <time>2021-07-17T08:16:25.000Z</time>
      </trkpt>
      <trkpt lat="45.21161" lon="5.73856">
        <ele>444</ele>
        <time>2021-07-17T08:16:28.000Z</time>
      </trkpt>
      <trkpt lat="45.21161" lon="5.73857">
        <ele>443.20001220703</ele>
        <time>2021-07-17T08:16:29.000Z</time>
      </trkpt>
      <trkpt lat="45.21161" lon="5.73858">
        <ele>442.79998779297</ele>
        <time>2021-07-17T08:16:30.000Z</time>
      </trkpt>
      <trkpt lat="45.21158" lon="5.73861">
        <ele>442.20001220703</ele>
        <time>2021-07-17T08:16:33.000Z</time>
      </trkpt>
      <trkpt lat="45.21158" lon="5.73863">
        <ele>441.20001220703</ele>
        <time>2021-07-17T08:16:34.000Z</time>
      </trkpt>
      <trkpt lat="45.21159" lon="5.73865">
        <ele>440.79998779297</ele>
        <time>2021-07-17T08:16:35.000Z</time>
      </trkpt>
      <trkpt lat="45.21159" lon="5.73869">
        <ele>440</ele>
        <time>2021-07-17T08:16:38.000Z</time>
      </trkpt>
      <trkpt lat="45.21159" lon="5.73869">
        <ele>439.60000610352</ele>
        <time>2021-07-17T08:16:39.000Z</time>
      </trkpt>
      <trkpt lat="45.2116" lon="5.73869">
        <ele>439</ele>
        <time>2021-07-17T08:16:40.000Z</time>
      </trkpt>
      <trkpt lat="45.21162" lon="5.73872">
        <ele>438.79998779297</ele>
        <time>2021-07-17T08:16:42.000Z</time>
      </trkpt>
      <trkpt lat="45.21162" lon="5.73876">
        <ele>437.79998779297</ele>
        <time>2021-07-17T08:16:45.000Z</time>
      </trkpt>
      <trkpt lat="45.21163" lon="5.73882">
        <ele>436.39999389648</ele>
        <time>2021-07-17T08:16:49.000Z</time>
      </trkpt>
      <trkpt lat="45.21163" lon="5.73886">
        <ele>435</ele>
        <time>2021-07-17T08:16:53.000Z</time>
      </trkpt>
      <trkpt lat="45.21163" lon="5.7389">
        <ele>434.60000610352</ele>
        <time>2021-07-17T08:16:55.000Z</time>
      </trkpt>
      <trkpt lat="45.21163" lon="5.73892">
        <ele>433.39999389648</ele>
        <time>2021-07-17T08:16:56.000Z</time>
      </trkpt>
      <trkpt lat="45.21165" lon="5.73902">
        <ele>432.20001220703</ele>
        <time>2021-07-17T08:17:02.000Z</time>
      </trkpt>
      <trkpt lat="45.21165" lon="5.73904">
        <ele>432</ele>
        <time>2021-07-17T08:17:03.000Z</time>
      </trkpt>
      <trkpt lat="45.21165" lon="5.73909">
        <ele>430.39999389648</ele>
        <time>2021-07-17T08:17:05.000Z</time>
      </trkpt>
      <trkpt lat="45.21164" lon="5.73913">
        <ele>429.39999389648</ele>
        <time>2021-07-17T08:17:07.000Z</time>
      </trkpt>
      <trkpt lat="45.21164" lon="5.73918">
        <ele>428.60000610352</ele>
        <time>2021-07-17T08:17:09.000Z</time>
      </trkpt>
      <trkpt lat="45.21164" lon="5.73921">
        <ele>428.20001220703</ele>
        <time>2021-07-17T08:17:10.000Z</time>
      </trkpt>
      <trkpt lat="45.21164" lon="5.73925">
        <ele>428</ele>
        <time>2021-07-17T08:17:12.000Z</time>
      </trkpt>
      <trkpt lat="45.21165" lon="5.73928">
        <ele>426.79998779297</ele>
        <time>2021-07-17T08:17:14.000Z</time>
      </trkpt>
      <trkpt lat="45.21165" lon="5.7393">
        <ele>426.39999389648</ele>
        <time>2021-07-17T08:17:15.000Z</time>
      </trkpt>
      <trkpt lat="45.21167" lon="5.73933">
        <ele>425.60000610352</ele>
        <time>2021-07-17T08:17:17.000Z</time>
      </trkpt>
      <trkpt lat="45.21171" lon="5.7394">
        <ele>424.20001220703</ele>
        <time>2021-07-17T08:17:20.000Z</time>
      </trkpt>
      <trkpt lat="45.21172" lon="5.73943">
        <ele>424.20001220703</ele>
        <time>2021-07-17T08:17:21.000Z</time>
      </trkpt>
      <trkpt lat="45.21178" lon="5.73959">
        <ele>423.20001220703</ele>
        <time>2021-07-17T08:17:26.000Z</time>
      </trkpt>
      <trkpt lat="45.21179" lon="5.73962">
        <ele>422.79998779297</ele>
        <time>2021-07-17T08:17:27.000Z</time>
      </trkpt>
      <trkpt lat="45.21179" lon="5.73972">
        <ele>421.79998779297</ele>
        <time>2021-07-17T08:17:30.000Z</time>
      </trkpt>
      <trkpt lat="45.21179" lon="5.73977">
        <ele>421.79998779297</ele>
        <time>2021-07-17T08:17:31.000Z</time>
      </trkpt>
      <trkpt lat="45.21178" lon="5.73985">
        <ele>421.60000610352</ele>
        <time>2021-07-17T08:17:33.000Z</time>
      </trkpt>
      <trkpt lat="45.21179" lon="5.73987">
        <ele>421.60000610352</ele>
        <time>2021-07-17T08:17:34.000Z</time>
      </trkpt>
      <trkpt lat="45.21181" lon="5.73992">
        <ele>421.39999389648</ele>
        <time>2021-07-17T08:17:36.000Z</time>
      </trkpt>
      <trkpt lat="45.21185" lon="5.74004">
        <ele>420.79998779297</ele>
        <time>2021-07-17T08:17:40.000Z</time>
      </trkpt>
      <trkpt lat="45.21187" lon="5.74008">
        <ele>420.39999389648</ele>
        <time>2021-07-17T08:17:41.000Z</time>
      </trkpt>
      <trkpt lat="45.21188" lon="5.74011">
        <ele>420.39999389648</ele>
        <time>2021-07-17T08:17:42.000Z</time>
      </trkpt>
      <trkpt lat="45.21194" lon="5.74027">
        <ele>419.79998779297</ele>
        <time>2021-07-17T08:17:47.000Z</time>
      </trkpt>
      <trkpt lat="45.21194" lon="5.7403">
        <ele>419.60000610352</ele>
        <time>2021-07-17T08:17:48.000Z</time>
      </trkpt>
      <trkpt lat="45.21193" lon="5.74033">
        <ele>419.20001220703</ele>
        <time>2021-07-17T08:17:49.000Z</time>
      </trkpt>
      <trkpt lat="45.21192" lon="5.7404">
        <ele>418.60000610352</ele>
        <time>2021-07-17T08:17:52.000Z</time>
      </trkpt>
      <trkpt lat="45.21192" lon="5.74042">
        <ele>418</ele>
        <time>2021-07-17T08:17:53.000Z</time>
      </trkpt>
      <trkpt lat="45.2119" lon="5.74048">
        <ele>416.79998779297</ele>
        <time>2021-07-17T08:17:57.000Z</time>
      </trkpt>
      <trkpt lat="45.21189" lon="5.74053">
        <ele>416.20001220703</ele>
        <time>2021-07-17T08:17:59.000Z</time>
      </trkpt>
      <trkpt lat="45.21189" lon="5.74056">
        <ele>415.79998779297</ele>
        <time>2021-07-17T08:18:00.000Z</time>
      </trkpt>
      <trkpt lat="45.21188" lon="5.7406">
        <ele>414.79998779297</ele>
        <time>2021-07-17T08:18:02.000Z</time>
      </trkpt>
      <trkpt lat="45.21188" lon="5.74063">
        <ele>414.60000610352</ele>
        <time>2021-07-17T08:18:03.000Z</time>
      </trkpt>
      <trkpt lat="45.21189" lon="5.74065">
        <ele>414.20001220703</ele>
        <time>2021-07-17T08:18:04.000Z</time>
      </trkpt>
      <trkpt lat="45.2119" lon="5.74067">
        <ele>414</ele>
        <time>2021-07-17T08:18:05.000Z</time>
      </trkpt>
      <trkpt lat="45.2119" lon="5.74071">
        <ele>413</ele>
        <time>2021-07-17T08:18:07.000Z</time>
      </trkpt>
      <trkpt lat="45.21189" lon="5.74074">
        <ele>412.39999389648</ele>
        <time>2021-07-17T08:18:09.000Z</time>
      </trkpt>
      <trkpt lat="45.21189" lon="5.74077">
        <ele>411.79998779297</ele>
        <time>2021-07-17T08:18:11.000Z</time>
      </trkpt>
      <trkpt lat="45.21188" lon="5.74087">
        <ele>410.60000610352</ele>
        <time>2021-07-17T08:18:17.000Z</time>
      </trkpt>
      <trkpt lat="45.21187" lon="5.74092">
        <ele>409.39999389648</ele>
        <time>2021-07-17T08:18:19.000Z</time>
      </trkpt>
      <trkpt lat="45.21186" lon="5.74098">
        <ele>408.20001220703</ele>
        <time>2021-07-17T08:18:23.000Z</time>
      </trkpt>
      <trkpt lat="45.21185" lon="5.74102">
        <ele>406.79998779297</ele>
        <time>2021-07-17T08:18:25.000Z</time>
      </trkpt>
      <trkpt lat="45.21184" lon="5.74105">
        <ele>406.20001220703</ele>
        <time>2021-07-17T08:18:27.000Z</time>
      </trkpt>
      <trkpt lat="45.21182" lon="5.74113">
        <ele>405.60000610352</ele>
        <time>2021-07-17T08:18:30.000Z</time>
      </trkpt>
      <trkpt lat="45.21179" lon="5.74124">
        <ele>404.20001220703</ele>
        <time>2021-07-17T08:18:34.000Z</time>
      </trkpt>
      <trkpt lat="45.2118" lon="5.7413">
        <ele>403.60000610352</ele>
        <time>2021-07-17T08:18:36.000Z</time>
      </trkpt>
      <trkpt lat="45.21184" lon="5.74138">
        <ele>403.60000610352</ele>
        <time>2021-07-17T08:18:39.000Z</time>
      </trkpt>
      <trkpt lat="45.21186" lon="5.7414">
        <ele>402.79998779297</ele>
        <time>2021-07-17T08:18:40.000Z</time>
      </trkpt>
      <trkpt lat="45.21198" lon="5.74156">
        <ele>402</ele>
        <time>2021-07-17T08:18:47.000Z</time>
      </trkpt>
      <trkpt lat="45.21199" lon="5.74157">
        <ele>402</ele>
        <time>2021-07-17T08:18:48.000Z</time>
      </trkpt>
      <trkpt lat="45.21203" lon="5.7416">
        <ele>401.60000610352</ele>
        <time>2021-07-17T08:18:50.000Z</time>
      </trkpt>
      <trkpt lat="45.21207" lon="5.74164">
        <ele>401.39999389648</ele>
        <time>2021-07-17T08:18:52.000Z</time>
      </trkpt>
      <trkpt lat="45.21213" lon="5.74169">
        <ele>400.60000610352</ele>
        <time>2021-07-17T08:18:55.000Z</time>
      </trkpt>
      <trkpt lat="45.21219" lon="5.74173">
        <ele>399.79998779297</ele>
        <time>2021-07-17T08:18:58.000Z</time>
      </trkpt>
      <trkpt lat="45.2122" lon="5.74175">
        <ele>399.39999389648</ele>
        <time>2021-07-17T08:18:59.000Z</time>
      </trkpt>
      <trkpt lat="45.21227" lon="5.74181">
        <ele>398.60000610352</ele>
        <time>2021-07-17T08:19:03.000Z</time>
      </trkpt>
      <trkpt lat="45.21228" lon="5.74183">
        <ele>398.20001220703</ele>
        <time>2021-07-17T08:19:04.000Z</time>
      </trkpt>
      <trkpt lat="45.21235" lon="5.74186">
        <ele>397.79998779297</ele>
        <time>2021-07-17T08:19:08.000Z</time>
      </trkpt>
      <trkpt lat="45.2124" lon="5.74185">
        <ele>397.79998779297</ele>
        <time>2021-07-17T08:19:10.000Z</time>
      </trkpt>
      <trkpt lat="45.2126" lon="5.7419">
        <ele>398</ele>
        <time>2021-07-17T08:19:17.000Z</time>
      </trkpt>
      <trkpt lat="45.21275" lon="5.74203">
        <ele>398</ele>
        <time>2021-07-17T08:19:22.000Z</time>
      </trkpt>
      <trkpt lat="45.21278" lon="5.74205">
        <ele>398.39999389648</ele>
        <time>2021-07-17T08:19:23.000Z</time>
      </trkpt>
      <trkpt lat="45.21286" lon="5.74213">
        <ele>398.79998779297</ele>
        <time>2021-07-17T08:19:26.000Z</time>
      </trkpt>
      <trkpt lat="45.2129" lon="5.74219">
        <ele>399.39999389648</ele>
        <time>2021-07-17T08:19:28.000Z</time>
      </trkpt>
      <trkpt lat="45.21294" lon="5.74224">
        <ele>399.39999389648</ele>
        <time>2021-07-17T08:19:30.000Z</time>
      </trkpt>
      <trkpt lat="45.21302" lon="5.74242">
        <ele>399.39999389648</ele>
        <time>2021-07-17T08:19:36.000Z</time>
      </trkpt>
      <trkpt lat="45.21309" lon="5.74265">
        <ele>399.20001220703</ele>
        <time>2021-07-17T08:19:42.000Z</time>
      </trkpt>
      <trkpt lat="45.2131" lon="5.74269">
        <ele>398.79998779297</ele>
        <time>2021-07-17T08:19:43.000Z</time>
      </trkpt>
      <trkpt lat="45.21318" lon="5.74291">
        <ele>398.79998779297</ele>
        <time>2021-07-17T08:19:49.000Z</time>
      </trkpt>
      <trkpt lat="45.21322" lon="5.74303">
        <ele>398.20001220703</ele>
        <time>2021-07-17T08:19:52.000Z</time>
      </trkpt>
      <trkpt lat="45.21328" lon="5.74322">
        <ele>398.20001220703</ele>
        <time>2021-07-17T08:19:57.000Z</time>
      </trkpt>
      <trkpt lat="45.21332" lon="5.74338">
        <ele>397.60000610352</ele>
        <time>2021-07-17T08:20:01.000Z</time>
      </trkpt>
      <trkpt lat="45.21335" lon="5.74346">
        <ele>397.39999389648</ele>
        <time>2021-07-17T08:20:04.000Z</time>
      </trkpt>
      <trkpt lat="45.21336" lon="5.7435">
        <ele>397.20001220703</ele>
        <time>2021-07-17T08:20:05.000Z</time>
      </trkpt>
      <trkpt lat="45.2134" lon="5.74365">
        <ele>396</ele>
        <time>2021-07-17T08:20:10.000Z</time>
      </trkpt>
      <trkpt lat="45.21343" lon="5.7437">
        <ele>395.20001220703</ele>
        <time>2021-07-17T08:20:12.000Z</time>
      </trkpt>
      <trkpt lat="45.21344" lon="5.74373">
        <ele>394.79998779297</ele>
        <time>2021-07-17T08:20:13.000Z</time>
      </trkpt>
      <trkpt lat="45.21346" lon="5.74384">
        <ele>393.79998779297</ele>
        <time>2021-07-17T08:20:18.000Z</time>
      </trkpt>
      <trkpt lat="45.21346" lon="5.74386">
        <ele>393.60000610352</ele>
        <time>2021-07-17T08:20:19.000Z</time>
      </trkpt>
      <trkpt lat="45.21345" lon="5.74386">
        <ele>393.60000610352</ele>
        <time>2021-07-17T08:20:21.000Z</time>
      </trkpt>
      <trkpt lat="45.21344" lon="5.74387">
        <ele>393.60000610352</ele>
        <time>2021-07-17T08:20:24.000Z</time>
      </trkpt>
      <trkpt lat="45.21342" lon="5.74387">
        <ele>393.39999389648</ele>
        <time>2021-07-17T08:20:27.000Z</time>
      </trkpt>
      <trkpt lat="45.21341" lon="5.74387">
        <ele>393.39999389648</ele>
        <time>2021-07-17T08:20:29.000Z</time>
      </trkpt>
      <trkpt lat="45.21343" lon="5.74386">
        <ele>393.39999389648</ele>
        <time>2021-07-17T08:20:32.000Z</time>
      </trkpt>
      <trkpt lat="45.21344" lon="5.74386">
        <ele>393.39999389648</ele>
        <time>2021-07-17T08:20:33.000Z</time>
      </trkpt>
      <trkpt lat="45.21344" lon="5.74386">
        <ele>393.39999389648</ele>
        <time>2021-07-17T08:20:36.000Z</time>
      </trkpt>
      <trkpt lat="45.21344" lon="5.74386">
        <ele>393.39999389648</ele>
        <time>2021-07-17T08:20:41.000Z</time>
      </trkpt>
      <trkpt lat="45.21344" lon="5.74386">
        <ele>393.39999389648</ele>
        <time>2021-07-17T08:20:44.000Z</time>
      </trkpt>
      <trkpt lat="45.21343" lon="5.74386">
        <ele>393.39999389648</ele>
        <time>2021-07-17T08:20:47.000Z</time>
      </trkpt>
      <trkpt lat="45.21342" lon="5.74378">
        <ele>393.79998779297</ele>
        <time>2021-07-17T08:20:50.000Z</time>
      </trkpt>
      <trkpt lat="45.2134" lon="5.74373">
        <ele>393.79998779297</ele>
        <time>2021-07-17T08:20:52.000Z</time>
      </trkpt>
      <trkpt lat="45.21338" lon="5.74367">
        <ele>394.79998779297</ele>
        <time>2021-07-17T08:20:54.000Z</time>
      </trkpt>
      <trkpt lat="45.21335" lon="5.7436">
        <ele>395</ele>
        <time>2021-07-17T08:20:57.000Z</time>
      </trkpt>
      <trkpt lat="45.21332" lon="5.74352">
        <ele>395.79998779297</ele>
        <time>2021-07-17T08:21:00.000Z</time>
      </trkpt>
      <trkpt lat="45.21326" lon="5.74337">
        <ele>396.79998779297</ele>
        <time>2021-07-17T08:21:06.000Z</time>
      </trkpt>
      <trkpt lat="45.21324" lon="5.74335">
        <ele>397</ele>
        <time>2021-07-17T08:21:07.000Z</time>
      </trkpt>
      <trkpt lat="45.21318" lon="5.74313">
        <ele>397.39999389648</ele>
        <time>2021-07-17T08:21:14.000Z</time>
      </trkpt>
      <trkpt lat="45.21314" lon="5.74293">
        <ele>398.20001220703</ele>
        <time>2021-07-17T08:21:20.000Z</time>
      </trkpt>
      <trkpt lat="45.2131" lon="5.74278">
        <ele>398.60000610352</ele>
        <time>2021-07-17T08:21:24.000Z</time>
      </trkpt>
      <trkpt lat="45.21309" lon="5.74272">
        <ele>398.60000610352</ele>
        <time>2021-07-17T08:21:26.000Z</time>
      </trkpt>
      <trkpt lat="45.21305" lon="5.74257">
        <ele>399.20001220703</ele>
        <time>2021-07-17T08:21:31.000Z</time>
      </trkpt>
      <trkpt lat="45.21302" lon="5.74251">
        <ele>399.20001220703</ele>
        <time>2021-07-17T08:21:33.000Z</time>
      </trkpt>
      <trkpt lat="45.21301" lon="5.74249">
        <ele>399.39999389648</ele>
        <time>2021-07-17T08:21:34.000Z</time>
      </trkpt>
      <trkpt lat="45.21296" lon="5.74237">
        <ele>399.39999389648</ele>
        <time>2021-07-17T08:21:38.000Z</time>
      </trkpt>
      <trkpt lat="45.21287" lon="5.74222">
        <ele>399.20001220703</ele>
        <time>2021-07-17T08:21:44.000Z</time>
      </trkpt>
      <trkpt lat="45.21271" lon="5.74208">
        <ele>398.20001220703</ele>
        <time>2021-07-17T08:21:51.000Z</time>
      </trkpt>
      <trkpt lat="45.21266" lon="5.74205">
        <ele>398.20001220703</ele>
        <time>2021-07-17T08:21:53.000Z</time>
      </trkpt>
      <trkpt lat="45.21253" lon="5.742">
        <ele>397.79998779297</ele>
        <time>2021-07-17T08:21:58.000Z</time>
      </trkpt>
      <trkpt lat="45.2124" lon="5.74198">
        <ele>397.79998779297</ele>
        <time>2021-07-17T08:22:03.000Z</time>
      </trkpt>
      <trkpt lat="45.21238" lon="5.74198">
        <ele>397.79998779297</ele>
        <time>2021-07-17T08:22:04.000Z</time>
      </trkpt>
      <trkpt lat="45.21235" lon="5.74198">
        <ele>397.79998779297</ele>
        <time>2021-07-17T08:22:05.000Z</time>
      </trkpt>
      <trkpt lat="45.21218" lon="5.74189">
        <ele>398.79998779297</ele>
        <time>2021-07-17T08:22:12.000Z</time>
      </trkpt>
      <trkpt lat="45.21209" lon="5.74182">
        <ele>399.60000610352</ele>
        <time>2021-07-17T08:22:17.000Z</time>
      </trkpt>
      <trkpt lat="45.21199" lon="5.74172">
        <ele>400.60000610352</ele>
        <time>2021-07-17T08:22:23.000Z</time>
      </trkpt>
      <trkpt lat="45.21192" lon="5.74163">
        <ele>401.79998779297</ele>
        <time>2021-07-17T08:22:27.000Z</time>
      </trkpt>
      <trkpt lat="45.21186" lon="5.74153">
        <ele>402.39999389648</ele>
        <time>2021-07-17T08:22:31.000Z</time>
      </trkpt>
      <trkpt lat="45.21178" lon="5.74139">
        <ele>402.39999389648</ele>
        <time>2021-07-17T08:22:36.000Z</time>
      </trkpt>
      <trkpt lat="45.21174" lon="5.74132">
        <ele>403.20001220703</ele>
        <time>2021-07-17T08:22:39.000Z</time>
      </trkpt>
      <trkpt lat="45.21173" lon="5.74126">
        <ele>403.60000610352</ele>
        <time>2021-07-17T08:22:42.000Z</time>
      </trkpt>
      <trkpt lat="45.21174" lon="5.74123">
        <ele>403.60000610352</ele>
        <time>2021-07-17T08:22:43.000Z</time>
      </trkpt>
      <trkpt lat="45.21175" lon="5.74121">
        <ele>403.60000610352</ele>
        <time>2021-07-17T08:22:44.000Z</time>
      </trkpt>
      <trkpt lat="45.21177" lon="5.74114">
        <ele>404.39999389648</ele>
        <time>2021-07-17T08:22:48.000Z</time>
      </trkpt>
      <trkpt lat="45.21178" lon="5.74112">
        <ele>404.79998779297</ele>
        <time>2021-07-17T08:22:49.000Z</time>
      </trkpt>
      <trkpt lat="45.2118" lon="5.74108">
        <ele>405.79998779297</ele>
        <time>2021-07-17T08:22:52.000Z</time>
      </trkpt>
      <trkpt lat="45.2118" lon="5.74102">
        <ele>406.39999389648</ele>
        <time>2021-07-17T08:22:56.000Z</time>
      </trkpt>
      <trkpt lat="45.2118" lon="5.74101">
        <ele>406.79998779297</ele>
        <time>2021-07-17T08:22:57.000Z</time>
      </trkpt>
      <trkpt lat="45.2118" lon="5.74097">
        <ele>408</ele>
        <time>2021-07-17T08:23:01.000Z</time>
      </trkpt>
      <trkpt lat="45.2118" lon="5.74095">
        <ele>408.20001220703</ele>
        <time>2021-07-17T08:23:02.000Z</time>
      </trkpt>
      <trkpt lat="45.21182" lon="5.74089">
        <ele>409.60000610352</ele>
        <time>2021-07-17T08:23:07.000Z</time>
      </trkpt>
      <trkpt lat="45.21181" lon="5.74087">
        <ele>409.79998779297</ele>
        <time>2021-07-17T08:23:08.000Z</time>
      </trkpt>
      <trkpt lat="45.21182" lon="5.74082">
        <ele>411</ele>
        <time>2021-07-17T08:23:12.000Z</time>
      </trkpt>
      <trkpt lat="45.21182" lon="5.7408">
        <ele>411</ele>
        <time>2021-07-17T08:23:14.000Z</time>
      </trkpt>
      <trkpt lat="45.21181" lon="5.74073">
        <ele>412.39999389648</ele>
        <time>2021-07-17T08:23:18.000Z</time>
      </trkpt>
      <trkpt lat="45.21181" lon="5.7407">
        <ele>412.79998779297</ele>
        <time>2021-07-17T08:23:20.000Z</time>
      </trkpt>
      <trkpt lat="45.21181" lon="5.74064">
        <ele>413.60000610352</ele>
        <time>2021-07-17T08:23:23.000Z</time>
      </trkpt>
      <trkpt lat="45.21182" lon="5.74059">
        <ele>414.20001220703</ele>
        <time>2021-07-17T08:23:26.000Z</time>
      </trkpt>
      <trkpt lat="45.21184" lon="5.74054">
        <ele>415</ele>
        <time>2021-07-17T08:23:29.000Z</time>
      </trkpt>
      <trkpt lat="45.21186" lon="5.74051">
        <ele>415.20001220703</ele>
        <time>2021-07-17T08:23:31.000Z</time>
      </trkpt>
      <trkpt lat="45.21188" lon="5.74048">
        <ele>416</ele>
        <time>2021-07-17T08:23:33.000Z</time>
      </trkpt>
      <trkpt lat="45.21189" lon="5.74047">
        <ele>416.20001220703</ele>
        <time>2021-07-17T08:23:34.000Z</time>
      </trkpt>
      <trkpt lat="45.21188" lon="5.74047">
        <ele>416.60000610352</ele>
        <time>2021-07-17T08:23:35.000Z</time>
      </trkpt>
      <trkpt lat="45.21188" lon="5.74046">
        <ele>416.79998779297</ele>
        <time>2021-07-17T08:23:36.000Z</time>
      </trkpt>
      <trkpt lat="45.21189" lon="5.74044">
        <ele>417.79998779297</ele>
        <time>2021-07-17T08:23:38.000Z</time>
      </trkpt>
      <trkpt lat="45.2119" lon="5.74043">
        <ele>418</ele>
        <time>2021-07-17T08:23:39.000Z</time>
      </trkpt>
      <trkpt lat="45.21191" lon="5.74042">
        <ele>418.20001220703</ele>
        <time>2021-07-17T08:23:41.000Z</time>
      </trkpt>
      <trkpt lat="45.21191" lon="5.74037">
        <ele>418.79998779297</ele>
        <time>2021-07-17T08:23:43.000Z</time>
      </trkpt>
      <trkpt lat="45.21189" lon="5.74034">
        <ele>419</ele>
        <time>2021-07-17T08:23:45.000Z</time>
      </trkpt>
      <trkpt lat="45.21186" lon="5.7402">
        <ele>419.60000610352</ele>
        <time>2021-07-17T08:23:51.000Z</time>
      </trkpt>
      <trkpt lat="45.21183" lon="5.74015">
        <ele>419.60000610352</ele>
        <time>2021-07-17T08:23:53.000Z</time>
      </trkpt>
      <trkpt lat="45.21181" lon="5.74014">
        <ele>420</ele>
        <time>2021-07-17T08:23:54.000Z</time>
      </trkpt>
      <trkpt lat="45.21179" lon="5.74012">
        <ele>420</ele>
        <time>2021-07-17T08:23:55.000Z</time>
      </trkpt>
      <trkpt lat="45.21179" lon="5.74011">
        <ele>420.20001220703</ele>
        <time>2021-07-17T08:23:56.000Z</time>
      </trkpt>
      <trkpt lat="45.21173" lon="5.73997">
        <ele>420.39999389648</ele>
        <time>2021-07-17T08:24:02.000Z</time>
      </trkpt>
      <trkpt lat="45.2117" lon="5.7398">
        <ele>420.79998779297</ele>
        <time>2021-07-17T08:24:08.000Z</time>
      </trkpt>
      <trkpt lat="45.2117" lon="5.73977">
        <ele>421.39999389648</ele>
        <time>2021-07-17T08:24:10.000Z</time>
      </trkpt>
      <trkpt lat="45.21168" lon="5.73972">
        <ele>422</ele>
        <time>2021-07-17T08:24:13.000Z</time>
      </trkpt>
      <trkpt lat="45.21165" lon="5.73968">
        <ele>422.20001220703</ele>
        <time>2021-07-17T08:24:16.000Z</time>
      </trkpt>
      <trkpt lat="45.21164" lon="5.73967">
        <ele>422.39999389648</ele>
        <time>2021-07-17T08:24:17.000Z</time>
      </trkpt>
      <trkpt lat="45.21162" lon="5.73964">
        <ele>422.60000610352</ele>
        <time>2021-07-17T08:24:19.000Z</time>
      </trkpt>
      <trkpt lat="45.21162" lon="5.73962">
        <ele>423</ele>
        <time>2021-07-17T08:24:20.000Z</time>
      </trkpt>
      <trkpt lat="45.2116" lon="5.73959">
        <ele>423.39999389648</ele>
        <time>2021-07-17T08:24:22.000Z</time>
      </trkpt>
      <trkpt lat="45.2116" lon="5.73953">
        <ele>424.79998779297</ele>
        <time>2021-07-17T08:24:26.000Z</time>
      </trkpt>
      <trkpt lat="45.21159" lon="5.73951">
        <ele>425.20001220703</ele>
        <time>2021-07-17T08:24:28.000Z</time>
      </trkpt>
      <trkpt lat="45.21159" lon="5.73947">
        <ele>426</ele>
        <time>2021-07-17T08:24:31.000Z</time>
      </trkpt>
      <trkpt lat="45.21159" lon="5.73946">
        <ele>426.39999389648</ele>
        <time>2021-07-17T08:24:32.000Z</time>
      </trkpt>
      <trkpt lat="45.21159" lon="5.73945">
        <ele>426.60000610352</ele>
        <time>2021-07-17T08:24:34.000Z</time>
      </trkpt>
      <trkpt lat="45.21159" lon="5.73945">
        <ele>426.79998779297</ele>
        <time>2021-07-17T08:24:35.000Z</time>
      </trkpt>
      <trkpt lat="45.21159" lon="5.73945">
        <ele>426.79998779297</ele>
        <time>2021-07-17T08:24:36.000Z</time>
      </trkpt>
      <trkpt lat="45.21159" lon="5.73943">
        <ele>427.39999389648</ele>
        <time>2021-07-17T08:24:37.000Z</time>
      </trkpt>
      <trkpt lat="45.21159" lon="5.73942">
        <ele>427.60000610352</ele>
        <time>2021-07-17T08:24:38.000Z</time>
      </trkpt>
      <trkpt lat="45.21159" lon="5.73941">
        <ele>427.79998779297</ele>
        <time>2021-07-17T08:24:39.000Z</time>
      </trkpt>
      <trkpt lat="45.21156" lon="5.73937">
        <ele>428</ele>
        <time>2021-07-17T08:24:41.000Z</time>
      </trkpt>
      <trkpt lat="45.21155" lon="5.73932">
        <ele>428.79998779297</ele>
        <time>2021-07-17T08:24:44.000Z</time>
      </trkpt>
      <trkpt lat="45.21155" lon="5.7393">
        <ele>429</ele>
        <time>2021-07-17T08:24:45.000Z</time>
      </trkpt>
      <trkpt lat="45.21154" lon="5.73929">
        <ele>429.39999389648</ele>
        <time>2021-07-17T08:24:47.000Z</time>
      </trkpt>
      <trkpt lat="45.21154" lon="5.73926">
        <ele>429.60000610352</ele>
        <time>2021-07-17T08:24:49.000Z</time>
      </trkpt>
      <trkpt lat="45.21154" lon="5.73922">
        <ele>430.60000610352</ele>
        <time>2021-07-17T08:24:51.000Z</time>
      </trkpt>
      <trkpt lat="45.21153" lon="5.73919">
        <ele>431</ele>
        <time>2021-07-17T08:24:53.000Z</time>
      </trkpt>
      <trkpt lat="45.21153" lon="5.73914">
        <ele>431.60000610352</ele>
        <time>2021-07-17T08:24:56.000Z</time>
      </trkpt>
      <trkpt lat="45.21154" lon="5.73912">
        <ele>431.79998779297</ele>
        <time>2021-07-17T08:24:57.000Z</time>
      </trkpt>
      <trkpt lat="45.21153" lon="5.7391">
        <ele>432.39999389648</ele>
        <time>2021-07-17T08:24:58.000Z</time>
      </trkpt>
      <trkpt lat="45.21152" lon="5.73905">
        <ele>433.20001220703</ele>
        <time>2021-07-17T08:25:01.000Z</time>
      </trkpt>
      <trkpt lat="45.21152" lon="5.73903">
        <ele>433.20001220703</ele>
        <time>2021-07-17T08:25:02.000Z</time>
      </trkpt>
      <trkpt lat="45.21153" lon="5.73902">
        <ele>433.39999389648</ele>
        <time>2021-07-17T08:25:03.000Z</time>
      </trkpt>
      <trkpt lat="45.21153" lon="5.73898">
        <ele>434.60000610352</ele>
        <time>2021-07-17T08:25:06.000Z</time>
      </trkpt>
      <trkpt lat="45.21154" lon="5.73896">
        <ele>434.60000610352</ele>
        <time>2021-07-17T08:25:07.000Z</time>
      </trkpt>
      <trkpt lat="45.21152" lon="5.73892">
        <ele>435.39999389648</ele>
        <time>2021-07-17T08:25:10.000Z</time>
      </trkpt>
      <trkpt lat="45.21152" lon="5.73891">
        <ele>435.79998779297</ele>
        <time>2021-07-17T08:25:11.000Z</time>
      </trkpt>
      <trkpt lat="45.21152" lon="5.73889">
        <ele>436.39999389648</ele>
        <time>2021-07-17T08:25:12.000Z</time>
      </trkpt>
      <trkpt lat="45.21151" lon="5.73886">
        <ele>437</ele>
        <time>2021-07-17T08:25:15.000Z</time>
      </trkpt>
      <trkpt lat="45.21151" lon="5.73883">
        <ele>437.39999389648</ele>
        <time>2021-07-17T08:25:17.000Z</time>
      </trkpt>
      <trkpt lat="45.21151" lon="5.73882">
        <ele>438</ele>
        <time>2021-07-17T08:25:18.000Z</time>
      </trkpt>
      <trkpt lat="45.21151" lon="5.73874">
        <ele>439</ele>
        <time>2021-07-17T08:25:23.000Z</time>
      </trkpt>
      <trkpt lat="45.21151" lon="5.73873">
        <ele>439.20001220703</ele>
        <time>2021-07-17T08:25:24.000Z</time>
      </trkpt>
      <trkpt lat="45.21151" lon="5.73872">
        <ele>439.60000610352</ele>
        <time>2021-07-17T08:25:25.000Z</time>
      </trkpt>
      <trkpt lat="45.21152" lon="5.73866">
        <ele>440</ele>
        <time>2021-07-17T08:25:28.000Z</time>
      </trkpt>
      <trkpt lat="45.21152" lon="5.73864">
        <ele>440</ele>
        <time>2021-07-17T08:25:29.000Z</time>
      </trkpt>
      <trkpt lat="45.21153" lon="5.73862">
        <ele>440.60000610352</ele>
        <time>2021-07-17T08:25:30.000Z</time>
      </trkpt>
      <trkpt lat="45.21153" lon="5.73861">
        <ele>440.79998779297</ele>
        <time>2021-07-17T08:25:31.000Z</time>
      </trkpt>
      <trkpt lat="45.21153" lon="5.73854">
        <ele>441.60000610352</ele>
        <time>2021-07-17T08:25:34.000Z</time>
      </trkpt>
      <trkpt lat="45.21153" lon="5.73852">
        <ele>442</ele>
        <time>2021-07-17T08:25:35.000Z</time>
      </trkpt>
      <trkpt lat="45.21153" lon="5.7385">
        <ele>443</ele>
        <time>2021-07-17T08:25:38.000Z</time>
      </trkpt>
      <trkpt lat="45.21154" lon="5.73849">
        <ele>443.20001220703</ele>
        <time>2021-07-17T08:25:39.000Z</time>
      </trkpt>
      <trkpt lat="45.21156" lon="5.73846">
        <ele>443.39999389648</ele>
        <time>2021-07-17T08:25:41.000Z</time>
      </trkpt>
      <trkpt lat="45.21157" lon="5.73844">
        <ele>444</ele>
        <time>2021-07-17T08:25:43.000Z</time>
      </trkpt>
      <trkpt lat="45.21158" lon="5.73843">
        <ele>444.60000610352</ele>
        <time>2021-07-17T08:25:44.000Z</time>
      </trkpt>
      <trkpt lat="45.21159" lon="5.73842">
        <ele>445.60000610352</ele>
        <time>2021-07-17T08:25:46.000Z</time>
      </trkpt>
      <trkpt lat="45.2116" lon="5.73841">
        <ele>445.60000610352</ele>
        <time>2021-07-17T08:25:47.000Z</time>
      </trkpt>
      <trkpt lat="45.21161" lon="5.7384">
        <ele>446.20001220703</ele>
        <time>2021-07-17T08:25:49.000Z</time>
      </trkpt>
      <trkpt lat="45.21162" lon="5.73839">
        <ele>446.79998779297</ele>
        <time>2021-07-17T08:25:51.000Z</time>
      </trkpt>
      <trkpt lat="45.21163" lon="5.7384">
        <ele>447.20001220703</ele>
        <time>2021-07-17T08:25:53.000Z</time>
      </trkpt>
      <trkpt lat="45.21164" lon="5.7384">
        <ele>447.20001220703</ele>
        <time>2021-07-17T08:25:54.000Z</time>
      </trkpt>
      <trkpt lat="45.21166" lon="5.73841">
        <ele>448.39999389648</ele>
        <time>2021-07-17T08:25:58.000Z</time>
      </trkpt>
      <trkpt lat="45.21167" lon="5.73841">
        <ele>448.60000610352</ele>
        <time>2021-07-17T08:25:59.000Z</time>
      </trkpt>
      <trkpt lat="45.21167" lon="5.73841">
        <ele>448.60000610352</ele>
        <time>2021-07-17T08:26:00.000Z</time>
      </trkpt>
      <trkpt lat="45.21168" lon="5.73842">
        <ele>449</ele>
        <time>2021-07-17T08:26:03.000Z</time>
      </trkpt>
      <trkpt lat="45.21168" lon="5.73841">
        <ele>449.39999389648</ele>
        <time>2021-07-17T08:26:04.000Z</time>
      </trkpt>
      <trkpt lat="45.21169" lon="5.73841">
        <ele>449.39999389648</ele>
        <time>2021-07-17T08:26:05.000Z</time>
      </trkpt>
      <trkpt lat="45.2117" lon="5.73841">
        <ele>449.79998779297</ele>
        <time>2021-07-17T08:26:06.000Z</time>
      </trkpt>
      <trkpt lat="45.2117" lon="5.73841">
        <ele>450.60000610352</ele>
        <time>2021-07-17T08:26:07.000Z</time>
      </trkpt>
      <trkpt lat="45.21171" lon="5.73841">
        <ele>451</ele>
        <time>2021-07-17T08:26:09.000Z</time>
      </trkpt>
      <trkpt lat="45.21173" lon="5.7384">
        <ele>451.39999389648</ele>
        <time>2021-07-17T08:26:12.000Z</time>
      </trkpt>
      <trkpt lat="45.21176" lon="5.7384">
        <ele>451.60000610352</ele>
        <time>2021-07-17T08:26:14.000Z</time>
      </trkpt>
      <trkpt lat="45.21176" lon="5.7384">
        <ele>452.39999389648</ele>
        <time>2021-07-17T08:26:15.000Z</time>
      </trkpt>
      <trkpt lat="45.21176" lon="5.7384">
        <ele>453</ele>
        <time>2021-07-17T08:26:16.000Z</time>
      </trkpt>
      <trkpt lat="45.21176" lon="5.73839">
        <ele>453</ele>
        <time>2021-07-17T08:26:17.000Z</time>
      </trkpt>
      <trkpt lat="45.21179" lon="5.73838">
        <ele>454.60000610352</ele>
        <time>2021-07-17T08:26:23.000Z</time>
      </trkpt>
      <trkpt lat="45.21179" lon="5.73837">
        <ele>455</ele>
        <time>2021-07-17T08:26:24.000Z</time>
      </trkpt>
      <trkpt lat="45.21181" lon="5.73836">
        <ele>455.39999389648</ele>
        <time>2021-07-17T08:26:26.000Z</time>
      </trkpt>
      <trkpt lat="45.21183" lon="5.73835">
        <ele>455.79998779297</ele>
        <time>2021-07-17T08:26:28.000Z</time>
      </trkpt>
      <trkpt lat="45.21184" lon="5.73833">
        <ele>456</ele>
        <time>2021-07-17T08:26:30.000Z</time>
      </trkpt>
      <trkpt lat="45.21184" lon="5.7383">
        <ele>457.39999389648</ele>
        <time>2021-07-17T08:26:33.000Z</time>
      </trkpt>
      <trkpt lat="45.21186" lon="5.73828">
        <ele>457.79998779297</ele>
        <time>2021-07-17T08:26:36.000Z</time>
      </trkpt>
      <trkpt lat="45.21187" lon="5.73827">
        <ele>458.39999389648</ele>
        <time>2021-07-17T08:26:38.000Z</time>
      </trkpt>
      <trkpt lat="45.21188" lon="5.73824">
        <ele>459.39999389648</ele>
        <time>2021-07-17T08:26:41.000Z</time>
      </trkpt>
      <trkpt lat="45.21189" lon="5.73823">
        <ele>459.60000610352</ele>
        <time>2021-07-17T08:26:43.000Z</time>
      </trkpt>
      <trkpt lat="45.21192" lon="5.73819">
        <ele>461</ele>
        <time>2021-07-17T08:26:47.000Z</time>
      </trkpt>
      <trkpt lat="45.21193" lon="5.73816">
        <ele>462.20001220703</ele>
        <time>2021-07-17T08:26:51.000Z</time>
      </trkpt>
      <trkpt lat="45.21193" lon="5.73816">
        <ele>462.20001220703</ele>
        <time>2021-07-17T08:26:52.000Z</time>
      </trkpt>
      <trkpt lat="45.21192" lon="5.73811">
        <ele>463.39999389648</ele>
        <time>2021-07-17T08:26:56.000Z</time>
      </trkpt>
      <trkpt lat="45.21193" lon="5.73809">
        <ele>464</ele>
        <time>2021-07-17T08:26:57.000Z</time>
      </trkpt>
      <trkpt lat="45.21192" lon="5.73806">
        <ele>464.39999389648</ele>
        <time>2021-07-17T08:26:59.000Z</time>
      </trkpt>
      <trkpt lat="45.21192" lon="5.73802">
        <ele>464.79998779297</ele>
        <time>2021-07-17T08:27:01.000Z</time>
      </trkpt>
      <trkpt lat="45.21193" lon="5.738">
        <ele>465</ele>
        <time>2021-07-17T08:27:02.000Z</time>
      </trkpt>
      <trkpt lat="45.21193" lon="5.73799">
        <ele>465.60000610352</ele>
        <time>2021-07-17T08:27:03.000Z</time>
      </trkpt>
      <trkpt lat="45.21193" lon="5.73796">
        <ele>466.20001220703</ele>
        <time>2021-07-17T08:27:06.000Z</time>
      </trkpt>
      <trkpt lat="45.21193" lon="5.73795">
        <ele>466.79998779297</ele>
        <time>2021-07-17T08:27:07.000Z</time>
      </trkpt>
      <trkpt lat="45.21193" lon="5.73794">
        <ele>467</ele>
        <time>2021-07-17T08:27:08.000Z</time>
      </trkpt>
      <trkpt lat="45.21193" lon="5.73792">
        <ele>467</ele>
        <time>2021-07-17T08:27:09.000Z</time>
      </trkpt>
      <trkpt lat="45.21192" lon="5.73787">
        <ele>468.60000610352</ele>
        <time>2021-07-17T08:27:13.000Z</time>
      </trkpt>
      <trkpt lat="45.21191" lon="5.73786">
        <ele>468.79998779297</ele>
        <time>2021-07-17T08:27:14.000Z</time>
      </trkpt>
      <trkpt lat="45.2119" lon="5.73782">
        <ele>469.39999389648</ele>
        <time>2021-07-17T08:27:18.000Z</time>
      </trkpt>
      <trkpt lat="45.2119" lon="5.73778">
        <ele>470.39999389648</ele>
        <time>2021-07-17T08:27:20.000Z</time>
      </trkpt>
      <trkpt lat="45.2119" lon="5.73776">
        <ele>470.39999389648</ele>
        <time>2021-07-17T08:27:21.000Z</time>
      </trkpt>
      <trkpt lat="45.21191" lon="5.73765">
        <ele>471.39999389648</ele>
        <time>2021-07-17T08:27:26.000Z</time>
      </trkpt>
      <trkpt lat="45.2119" lon="5.73763">
        <ele>472</ele>
        <time>2021-07-17T08:27:27.000Z</time>
      </trkpt>
      <trkpt lat="45.2119" lon="5.73759">
        <ele>472.60000610352</ele>
        <time>2021-07-17T08:27:29.000Z</time>
      </trkpt>
      <trkpt lat="45.21189" lon="5.7375">
        <ele>473.20001220703</ele>
        <time>2021-07-17T08:27:33.000Z</time>
      </trkpt>
      <trkpt lat="45.2119" lon="5.73745">
        <ele>473.79998779297</ele>
        <time>2021-07-17T08:27:36.000Z</time>
      </trkpt>
      <trkpt lat="45.21192" lon="5.7374">
        <ele>474.79998779297</ele>
        <time>2021-07-17T08:27:39.000Z</time>
      </trkpt>
      <trkpt lat="45.21193" lon="5.73736">
        <ele>475</ele>
        <time>2021-07-17T08:27:41.000Z</time>
      </trkpt>
      <trkpt lat="45.21193" lon="5.73732">
        <ele>475.39999389648</ele>
        <time>2021-07-17T08:27:43.000Z</time>
      </trkpt>
      <trkpt lat="45.21193" lon="5.73731">
        <ele>476</ele>
        <time>2021-07-17T08:27:44.000Z</time>
      </trkpt>
      <trkpt lat="45.21193" lon="5.73727">
        <ele>476.60000610352</ele>
        <time>2021-07-17T08:27:46.000Z</time>
      </trkpt>
      <trkpt lat="45.21193" lon="5.73725">
        <ele>476.60000610352</ele>
        <time>2021-07-17T08:27:47.000Z</time>
      </trkpt>
      <trkpt lat="45.21193" lon="5.73724">
        <ele>477.20001220703</ele>
        <time>2021-07-17T08:27:48.000Z</time>
      </trkpt>
      <trkpt lat="45.21193" lon="5.73721">
        <ele>477.60000610352</ele>
        <time>2021-07-17T08:27:50.000Z</time>
      </trkpt>
      <trkpt lat="45.21193" lon="5.73717">
        <ele>478.20001220703</ele>
        <time>2021-07-17T08:27:52.000Z</time>
      </trkpt>
      <trkpt lat="45.21194" lon="5.7371">
        <ele>479.60000610352</ele>
        <time>2021-07-17T08:27:56.000Z</time>
      </trkpt>
      <trkpt lat="45.21194" lon="5.73709">
        <ele>479.79998779297</ele>
        <time>2021-07-17T08:27:57.000Z</time>
      </trkpt>
      <trkpt lat="45.21193" lon="5.73707">
        <ele>479.79998779297</ele>
        <time>2021-07-17T08:27:58.000Z</time>
      </trkpt>
      <trkpt lat="45.21193" lon="5.73706">
        <ele>480.20001220703</ele>
        <time>2021-07-17T08:27:59.000Z</time>
      </trkpt>
      <trkpt lat="45.21191" lon="5.73699">
        <ele>481</ele>
        <time>2021-07-17T08:28:03.000Z</time>
      </trkpt>
      <trkpt lat="45.21191" lon="5.73697">
        <ele>481.39999389648</ele>
        <time>2021-07-17T08:28:04.000Z</time>
      </trkpt>
      <trkpt lat="45.21191" lon="5.73693">
        <ele>481.79998779297</ele>
        <time>2021-07-17T08:28:06.000Z</time>
      </trkpt>
      <trkpt lat="45.2119" lon="5.73691">
        <ele>482.20001220703</ele>
        <time>2021-07-17T08:28:08.000Z</time>
      </trkpt>
      <trkpt lat="45.2119" lon="5.73689">
        <ele>482.79998779297</ele>
        <time>2021-07-17T08:28:09.000Z</time>
      </trkpt>
      <trkpt lat="45.21188" lon="5.73688">
        <ele>482.79998779297</ele>
        <time>2021-07-17T08:28:10.000Z</time>
      </trkpt>
      <trkpt lat="45.21187" lon="5.73685">
        <ele>483.39999389648</ele>
        <time>2021-07-17T08:28:12.000Z</time>
      </trkpt>
      <trkpt lat="45.21186" lon="5.73681">
        <ele>484</ele>
        <time>2021-07-17T08:28:14.000Z</time>
      </trkpt>
      <trkpt lat="45.21188" lon="5.73677">
        <ele>484.60000610352</ele>
        <time>2021-07-17T08:28:16.000Z</time>
      </trkpt>
      <trkpt lat="45.21192" lon="5.73669">
        <ele>486.20001220703</ele>
        <time>2021-07-17T08:28:21.000Z</time>
      </trkpt>
      <trkpt lat="45.21193" lon="5.73663">
        <ele>486.60000610352</ele>
        <time>2021-07-17T08:28:24.000Z</time>
      </trkpt>
      <trkpt lat="45.21193" lon="5.73661">
        <ele>487.20001220703</ele>
        <time>2021-07-17T08:28:25.000Z</time>
      </trkpt>
      <trkpt lat="45.21193" lon="5.7366">
        <ele>487.20001220703</ele>
        <time>2021-07-17T08:28:26.000Z</time>
      </trkpt>
      <trkpt lat="45.21192" lon="5.73657">
        <ele>488</ele>
        <time>2021-07-17T08:28:29.000Z</time>
      </trkpt>
      <trkpt lat="45.21186" lon="5.73655">
        <ele>487.79998779297</ele>
        <time>2021-07-17T08:28:32.000Z</time>
      </trkpt>
      <trkpt lat="45.21182" lon="5.73648">
        <ele>487.60000610352</ele>
        <time>2021-07-17T08:28:35.000Z</time>
      </trkpt>
      <trkpt lat="45.2118" lon="5.73642">
        <ele>487.60000610352</ele>
        <time>2021-07-17T08:28:37.000Z</time>
      </trkpt>
      <trkpt lat="45.21178" lon="5.73635">
        <ele>487.60000610352</ele>
        <time>2021-07-17T08:28:39.000Z</time>
      </trkpt>
      <trkpt lat="45.21176" lon="5.7363">
        <ele>487.79998779297</ele>
        <time>2021-07-17T08:28:41.000Z</time>
      </trkpt>
      <trkpt lat="45.21174" lon="5.73624">
        <ele>487.79998779297</ele>
        <time>2021-07-17T08:28:43.000Z</time>
      </trkpt>
      <trkpt lat="45.21172" lon="5.73618">
        <ele>488</ele>
        <time>2021-07-17T08:28:46.000Z</time>
      </trkpt>
      <trkpt lat="45.21171" lon="5.73617">
        <ele>488.39999389648</ele>
        <time>2021-07-17T08:28:47.000Z</time>
      </trkpt>
      <trkpt lat="45.21168" lon="5.7361">
        <ele>488.39999389648</ele>
        <time>2021-07-17T08:28:50.000Z</time>
      </trkpt>
      <trkpt lat="45.21162" lon="5.73601">
        <ele>488.60000610352</ele>
        <time>2021-07-17T08:28:54.000Z</time>
      </trkpt>
      <trkpt lat="45.21156" lon="5.73593">
        <ele>489</ele>
        <time>2021-07-17T08:28:58.000Z</time>
      </trkpt>
      <trkpt lat="45.21154" lon="5.73588">
        <ele>489</ele>
        <time>2021-07-17T08:29:00.000Z</time>
      </trkpt>
      <trkpt lat="45.21144" lon="5.73579">
        <ele>489.20001220703</ele>
        <time>2021-07-17T08:29:05.000Z</time>
      </trkpt>
      <trkpt lat="45.21141" lon="5.73579">
        <ele>489.39999389648</ele>
        <time>2021-07-17T08:29:06.000Z</time>
      </trkpt>
      <trkpt lat="45.21138" lon="5.73577">
        <ele>489.60000610352</ele>
        <time>2021-07-17T08:29:08.000Z</time>
      </trkpt>
      <trkpt lat="45.21134" lon="5.73574">
        <ele>489.60000610352</ele>
        <time>2021-07-17T08:29:10.000Z</time>
      </trkpt>
      <trkpt lat="45.2113" lon="5.73573">
        <ele>490</ele>
        <time>2021-07-17T08:29:12.000Z</time>
      </trkpt>
      <trkpt lat="45.21122" lon="5.73572">
        <ele>490</ele>
        <time>2021-07-17T08:29:15.000Z</time>
      </trkpt>
      <trkpt lat="45.21117" lon="5.73565">
        <ele>490.39999389648</ele>
        <time>2021-07-17T08:29:18.000Z</time>
      </trkpt>
      <trkpt lat="45.21115" lon="5.73562">
        <ele>490.79998779297</ele>
        <time>2021-07-17T08:29:19.000Z</time>
      </trkpt>
      <trkpt lat="45.21108" lon="5.73547">
        <ele>491.20001220703</ele>
        <time>2021-07-17T08:29:24.000Z</time>
      </trkpt>
      <trkpt lat="45.21105" lon="5.7354">
        <ele>491.20001220703</ele>
        <time>2021-07-17T08:29:26.000Z</time>
      </trkpt>
      <trkpt lat="45.21103" lon="5.73528">
        <ele>491</ele>
        <time>2021-07-17T08:29:29.000Z</time>
      </trkpt>
      <trkpt lat="45.21103" lon="5.73509">
        <ele>492</ele>
        <time>2021-07-17T08:29:36.000Z</time>
      </trkpt>
      <trkpt lat="45.21106" lon="5.73495">
        <ele>492.79998779297</ele>
        <time>2021-07-17T08:29:41.000Z</time>
      </trkpt>
      <trkpt lat="45.21107" lon="5.73488">
        <ele>493</ele>
        <time>2021-07-17T08:29:43.000Z</time>
      </trkpt>
      <trkpt lat="45.21108" lon="5.73482">
        <ele>493.60000610352</ele>
        <time>2021-07-17T08:29:46.000Z</time>
      </trkpt>
      <trkpt lat="45.21107" lon="5.73477">
        <ele>494.60000610352</ele>
        <time>2021-07-17T08:29:48.000Z</time>
      </trkpt>
      <trkpt lat="45.21108" lon="5.73474">
        <ele>494.60000610352</ele>
        <time>2021-07-17T08:29:50.000Z</time>
      </trkpt>
      <trkpt lat="45.21106" lon="5.73474">
        <ele>495.79998779297</ele>
        <time>2021-07-17T08:29:52.000Z</time>
      </trkpt>
      <trkpt lat="45.211" lon="5.73475">
        <ele>495.79998779297</ele>
        <time>2021-07-17T08:29:56.000Z</time>
      </trkpt>
      <trkpt lat="45.21098" lon="5.73474">
        <ele>495.79998779297</ele>
        <time>2021-07-17T08:29:57.000Z</time>
      </trkpt>
      <trkpt lat="45.21089" lon="5.73464">
        <ele>496</ele>
        <time>2021-07-17T08:30:02.000Z</time>
      </trkpt>
      <trkpt lat="45.2108" lon="5.73461">
        <ele>495.79998779297</ele>
        <time>2021-07-17T08:30:07.000Z</time>
      </trkpt>
      <trkpt lat="45.21071" lon="5.73457">
        <ele>496</ele>
        <time>2021-07-17T08:30:11.000Z</time>
      </trkpt>
      <trkpt lat="45.21061" lon="5.73443">
        <ele>496.60000610352</ele>
        <time>2021-07-17T08:30:17.000Z</time>
      </trkpt>
      <trkpt lat="45.21059" lon="5.73424">
        <ele>495.60000610352</ele>
        <time>2021-07-17T08:30:22.000Z</time>
      </trkpt>
      <trkpt lat="45.21059" lon="5.73409">
        <ele>496.39999389648</ele>
        <time>2021-07-17T08:30:28.000Z</time>
      </trkpt>
      <trkpt lat="45.21056" lon="5.73407">
        <ele>497.20001220703</ele>
        <time>2021-07-17T08:30:30.000Z</time>
      </trkpt>
      <trkpt lat="45.21053" lon="5.73405">
        <ele>497.60000610352</ele>
        <time>2021-07-17T08:30:32.000Z</time>
      </trkpt>
      <trkpt lat="45.21052" lon="5.73403">
        <ele>497.60000610352</ele>
        <time>2021-07-17T08:30:33.000Z</time>
      </trkpt>
      <trkpt lat="45.21051" lon="5.73396">
        <ele>498</ele>
        <time>2021-07-17T08:30:36.000Z</time>
      </trkpt>
      <trkpt lat="45.21051" lon="5.73393">
        <ele>498.39999389648</ele>
        <time>2021-07-17T08:30:37.000Z</time>
      </trkpt>
      <trkpt lat="45.21048" lon="5.73387">
        <ele>499</ele>
        <time>2021-07-17T08:30:41.000Z</time>
      </trkpt>
      <trkpt lat="45.21041" lon="5.7339">
        <ele>499.20001220703</ele>
        <time>2021-07-17T08:30:47.000Z</time>
      </trkpt>
      <trkpt lat="45.2104" lon="5.73389">
        <ele>499.20001220703</ele>
        <time>2021-07-17T08:30:48.000Z</time>
      </trkpt>
      <trkpt lat="45.21033" lon="5.73385">
        <ele>498.79998779297</ele>
        <time>2021-07-17T08:30:51.000Z</time>
      </trkpt>
      <trkpt lat="45.21024" lon="5.73385">
        <ele>498.39999389648</ele>
        <time>2021-07-17T08:30:55.000Z</time>
      </trkpt>
      <trkpt lat="45.21018" lon="5.73381">
        <ele>498.20001220703</ele>
        <time>2021-07-17T08:30:58.000Z</time>
      </trkpt>
      <trkpt lat="45.21016" lon="5.7338">
        <ele>498.20001220703</ele>
        <time>2021-07-17T08:30:59.000Z</time>
      </trkpt>
      <trkpt lat="45.21014" lon="5.7338">
        <ele>498.39999389648</ele>
        <time>2021-07-17T08:31:00.000Z</time>
      </trkpt>
      <trkpt lat="45.21007" lon="5.73375">
        <ele>498.60000610352</ele>
        <time>2021-07-17T08:31:03.000Z</time>
      </trkpt>
      <trkpt lat="45.21005" lon="5.73372">
        <ele>498.60000610352</ele>
        <time>2021-07-17T08:31:05.000Z</time>
      </trkpt>
      <trkpt lat="45.21003" lon="5.73372">
        <ele>498.60000610352</ele>
        <time>2021-07-17T08:31:07.000Z</time>
      </trkpt>
      <trkpt lat="45.2099" lon="5.73374">
        <ele>499.20001220703</ele>
        <time>2021-07-17T08:31:13.000Z</time>
      </trkpt>
      <trkpt lat="45.20987" lon="5.73377">
        <ele>499.39999389648</ele>
        <time>2021-07-17T08:31:15.000Z</time>
      </trkpt>
      <trkpt lat="45.20981" lon="5.73379">
        <ele>500</ele>
        <time>2021-07-17T08:31:19.000Z</time>
      </trkpt>
      <trkpt lat="45.20977" lon="5.73379">
        <ele>500.39999389648</ele>
        <time>2021-07-17T08:31:21.000Z</time>
      </trkpt>
      <trkpt lat="45.20965" lon="5.73375">
        <ele>501.20001220703</ele>
        <time>2021-07-17T08:31:25.000Z</time>
      </trkpt>
      <trkpt lat="45.20961" lon="5.73374">
        <ele>501</ele>
        <time>2021-07-17T08:31:27.000Z</time>
      </trkpt>
      <trkpt lat="45.20959" lon="5.73374">
        <ele>501</ele>
        <time>2021-07-17T08:31:28.000Z</time>
      </trkpt>
      <trkpt lat="45.20957" lon="5.73374">
        <ele>501</ele>
        <time>2021-07-17T08:31:29.000Z</time>
      </trkpt>
      <trkpt lat="45.20955" lon="5.73374">
        <ele>501.20001220703</ele>
        <time>2021-07-17T08:31:30.000Z</time>
      </trkpt>
      <trkpt lat="45.20948" lon="5.73372">
        <ele>501.39999389648</ele>
        <time>2021-07-17T08:31:33.000Z</time>
      </trkpt>
      <trkpt lat="45.20946" lon="5.73372">
        <ele>501.39999389648</ele>
        <time>2021-07-17T08:31:34.000Z</time>
      </trkpt>
      <trkpt lat="45.20944" lon="5.73371">
        <ele>501.39999389648</ele>
        <time>2021-07-17T08:31:35.000Z</time>
      </trkpt>
      <trkpt lat="45.20936" lon="5.73369">
        <ele>501.79998779297</ele>
        <time>2021-07-17T08:31:38.000Z</time>
      </trkpt>
      <trkpt lat="45.20932" lon="5.73368">
        <ele>501.79998779297</ele>
        <time>2021-07-17T08:31:40.000Z</time>
      </trkpt>
      <trkpt lat="45.20924" lon="5.73366">
        <ele>502.20001220703</ele>
        <time>2021-07-17T08:31:44.000Z</time>
      </trkpt>
      <trkpt lat="45.20922" lon="5.73364">
        <ele>502.39999389648</ele>
        <time>2021-07-17T08:31:45.000Z</time>
      </trkpt>
      <trkpt lat="45.2092" lon="5.73362">
        <ele>502.60000610352</ele>
        <time>2021-07-17T08:31:46.000Z</time>
      </trkpt>
      <trkpt lat="45.20913" lon="5.73356">
        <ele>503</ele>
        <time>2021-07-17T08:31:50.000Z</time>
      </trkpt>
      <trkpt lat="45.20908" lon="5.73353">
        <ele>503.60000610352</ele>
        <time>2021-07-17T08:31:53.000Z</time>
      </trkpt>
      <trkpt lat="45.20905" lon="5.73352">
        <ele>504</ele>
        <time>2021-07-17T08:31:55.000Z</time>
      </trkpt>
      <trkpt lat="45.20899" lon="5.73349">
        <ele>505</ele>
        <time>2021-07-17T08:31:59.000Z</time>
      </trkpt>
      <trkpt lat="45.20896" lon="5.73347">
        <ele>505.39999389648</ele>
        <time>2021-07-17T08:32:01.000Z</time>
      </trkpt>
      <trkpt lat="45.20894" lon="5.73346">
        <ele>506</ele>
        <time>2021-07-17T08:32:02.000Z</time>
      </trkpt>
      <trkpt lat="45.20892" lon="5.73346">
        <ele>506.20001220703</ele>
        <time>2021-07-17T08:32:03.000Z</time>
      </trkpt>
      <trkpt lat="45.20886" lon="5.73343">
        <ele>507.20001220703</ele>
        <time>2021-07-17T08:32:07.000Z</time>
      </trkpt>
      <trkpt lat="45.20879" lon="5.73342">
        <ele>508.39999389648</ele>
        <time>2021-07-17T08:32:11.000Z</time>
      </trkpt>
      <trkpt lat="45.20876" lon="5.7334">
        <ele>509.20001220703</ele>
        <time>2021-07-17T08:32:15.000Z</time>
      </trkpt>
      <trkpt lat="45.20875" lon="5.7334">
        <ele>509.79998779297</ele>
        <time>2021-07-17T08:32:16.000Z</time>
      </trkpt>
      <trkpt lat="45.20871" lon="5.73339">
        <ele>510.79998779297</ele>
        <time>2021-07-17T08:32:19.000Z</time>
      </trkpt>
      <trkpt lat="45.20869" lon="5.73337">
        <ele>510.79998779297</ele>
        <time>2021-07-17T08:32:20.000Z</time>
      </trkpt>
      <trkpt lat="45.20867" lon="5.73335">
        <ele>511.20001220703</ele>
        <time>2021-07-17T08:32:21.000Z</time>
      </trkpt>
      <trkpt lat="45.20865" lon="5.73334">
        <ele>512</ele>
        <time>2021-07-17T08:32:22.000Z</time>
      </trkpt>
      <trkpt lat="45.2086" lon="5.73332">
        <ele>512.20001220703</ele>
        <time>2021-07-17T08:32:25.000Z</time>
      </trkpt>
      <trkpt lat="45.20858" lon="5.7333">
        <ele>512.59997558594</ele>
        <time>2021-07-17T08:32:26.000Z</time>
      </trkpt>
      <trkpt lat="45.20854" lon="5.73323">
        <ele>513</ele>
        <time>2021-07-17T08:32:29.000Z</time>
      </trkpt>
      <trkpt lat="45.20854" lon="5.73321">
        <ele>513</ele>
        <time>2021-07-17T08:32:30.000Z</time>
      </trkpt>
      <trkpt lat="45.20853" lon="5.73319">
        <ele>513.40002441406</ele>
        <time>2021-07-17T08:32:31.000Z</time>
      </trkpt>
      <trkpt lat="45.20853" lon="5.73316">
        <ele>513.59997558594</ele>
        <time>2021-07-17T08:32:32.000Z</time>
      </trkpt>
      <trkpt lat="45.20852" lon="5.73314">
        <ele>514</ele>
        <time>2021-07-17T08:32:33.000Z</time>
      </trkpt>
      <trkpt lat="45.20852" lon="5.73308">
        <ele>514.59997558594</ele>
        <time>2021-07-17T08:32:36.000Z</time>
      </trkpt>
      <trkpt lat="45.20852" lon="5.73303">
        <ele>515.59997558594</ele>
        <time>2021-07-17T08:32:39.000Z</time>
      </trkpt>
      <trkpt lat="45.20851" lon="5.73301">
        <ele>515.79998779297</ele>
        <time>2021-07-17T08:32:40.000Z</time>
      </trkpt>
      <trkpt lat="45.20851" lon="5.733">
        <ele>515.79998779297</ele>
        <time>2021-07-17T08:32:41.000Z</time>
      </trkpt>
      <trkpt lat="45.2085" lon="5.73296">
        <ele>516.59997558594</ele>
        <time>2021-07-17T08:32:43.000Z</time>
      </trkpt>
      <trkpt lat="45.20852" lon="5.73292">
        <ele>517.40002441406</ele>
        <time>2021-07-17T08:32:47.000Z</time>
      </trkpt>
      <trkpt lat="45.20853" lon="5.73292">
        <ele>518.59997558594</ele>
        <time>2021-07-17T08:32:48.000Z</time>
      </trkpt>
      <trkpt lat="45.20854" lon="5.73292">
        <ele>518.79998779297</ele>
        <time>2021-07-17T08:32:50.000Z</time>
      </trkpt>
      <trkpt lat="45.20857" lon="5.73291">
        <ele>519.40002441406</ele>
        <time>2021-07-17T08:32:53.000Z</time>
      </trkpt>
      <trkpt lat="45.20857" lon="5.73292">
        <ele>520</ele>
        <time>2021-07-17T08:32:54.000Z</time>
      </trkpt>
      <trkpt lat="45.20857" lon="5.73291">
        <ele>520.79998779297</ele>
        <time>2021-07-17T08:32:55.000Z</time>
      </trkpt>
      <trkpt lat="45.20859" lon="5.73291">
        <ele>521.20001220703</ele>
        <time>2021-07-17T08:32:56.000Z</time>
      </trkpt>
      <trkpt lat="45.2086" lon="5.73291">
        <ele>521.20001220703</ele>
        <time>2021-07-17T08:32:57.000Z</time>
      </trkpt>
      <trkpt lat="45.20861" lon="5.73291">
        <ele>521.20001220703</ele>
        <time>2021-07-17T08:32:58.000Z</time>
      </trkpt>
      <trkpt lat="45.20862" lon="5.73291">
        <ele>522.40002441406</ele>
        <time>2021-07-17T08:32:59.000Z</time>
      </trkpt>
      <trkpt lat="45.20863" lon="5.7329">
        <ele>522.79998779297</ele>
        <time>2021-07-17T08:33:01.000Z</time>
      </trkpt>
      <trkpt lat="45.20865" lon="5.7329">
        <ele>523</ele>
        <time>2021-07-17T08:33:03.000Z</time>
      </trkpt>
      <trkpt lat="45.20867" lon="5.7329">
        <ele>524.20001220703</ele>
        <time>2021-07-17T08:33:05.000Z</time>
      </trkpt>
      <trkpt lat="45.2087" lon="5.7329">
        <ele>524.79998779297</ele>
        <time>2021-07-17T08:33:08.000Z</time>
      </trkpt>
      <trkpt lat="45.20871" lon="5.7329">
        <ele>525</ele>
        <time>2021-07-17T08:33:09.000Z</time>
      </trkpt>
      <trkpt lat="45.20872" lon="5.7329">
        <ele>525.20001220703</ele>
        <time>2021-07-17T08:33:10.000Z</time>
      </trkpt>
      <trkpt lat="45.20873" lon="5.7329">
        <ele>525.59997558594</ele>
        <time>2021-07-17T08:33:12.000Z</time>
      </trkpt>
      <trkpt lat="45.20874" lon="5.7329">
        <ele>526.40002441406</ele>
        <time>2021-07-17T08:33:13.000Z</time>
      </trkpt>
      <trkpt lat="45.20875" lon="5.73291">
        <ele>526.40002441406</ele>
        <time>2021-07-17T08:33:14.000Z</time>
      </trkpt>
      <trkpt lat="45.20876" lon="5.7329">
        <ele>526.79998779297</ele>
        <time>2021-07-17T08:33:15.000Z</time>
      </trkpt>
      <trkpt lat="45.20876" lon="5.73289">
        <ele>527.20001220703</ele>
        <time>2021-07-17T08:33:18.000Z</time>
      </trkpt>
      <trkpt lat="45.20876" lon="5.73288">
        <ele>527.59997558594</ele>
        <time>2021-07-17T08:33:19.000Z</time>
      </trkpt>
      <trkpt lat="45.20876" lon="5.73287">
        <ele>528.20001220703</ele>
        <time>2021-07-17T08:33:20.000Z</time>
      </trkpt>
      <trkpt lat="45.20875" lon="5.73284">
        <ele>528.79998779297</ele>
        <time>2021-07-17T08:33:23.000Z</time>
      </trkpt>
      <trkpt lat="45.20875" lon="5.73282">
        <ele>529.40002441406</ele>
        <time>2021-07-17T08:33:24.000Z</time>
      </trkpt>
      <trkpt lat="45.20875" lon="5.73281">
        <ele>530.59997558594</ele>
        <time>2021-07-17T08:33:26.000Z</time>
      </trkpt>
      <trkpt lat="45.20875" lon="5.73277">
        <ele>531.20001220703</ele>
        <time>2021-07-17T08:33:30.000Z</time>
      </trkpt>
      <trkpt lat="45.20875" lon="5.73275">
        <ele>531.79998779297</ele>
        <time>2021-07-17T08:33:31.000Z</time>
      </trkpt>
      <trkpt lat="45.20874" lon="5.73275">
        <ele>532.40002441406</ele>
        <time>2021-07-17T08:33:32.000Z</time>
      </trkpt>
      <trkpt lat="45.20873" lon="5.73274">
        <ele>532.79998779297</ele>
        <time>2021-07-17T08:33:35.000Z</time>
      </trkpt>
      <trkpt lat="45.20873" lon="5.73273">
        <ele>533.40002441406</ele>
        <time>2021-07-17T08:33:36.000Z</time>
      </trkpt>
      <trkpt lat="45.20873" lon="5.7327">
        <ele>534.40002441406</ele>
        <time>2021-07-17T08:33:38.000Z</time>
      </trkpt>
      <trkpt lat="45.20872" lon="5.73269">
        <ele>534.59997558594</ele>
        <time>2021-07-17T08:33:40.000Z</time>
      </trkpt>
      <trkpt lat="45.20872" lon="5.73265">
        <ele>535.40002441406</ele>
        <time>2021-07-17T08:33:43.000Z</time>
      </trkpt>
      <trkpt lat="45.20871" lon="5.73262">
        <ele>535.59997558594</ele>
        <time>2021-07-17T08:33:45.000Z</time>
      </trkpt>
      <trkpt lat="45.20869" lon="5.73259">
        <ele>535.59997558594</ele>
        <time>2021-07-17T08:33:47.000Z</time>
      </trkpt>
      <trkpt lat="45.20867" lon="5.73254">
        <ele>535.79998779297</ele>
        <time>2021-07-17T08:33:50.000Z</time>
      </trkpt>
      <trkpt lat="45.20864" lon="5.73248">
        <ele>536</ele>
        <time>2021-07-17T08:33:53.000Z</time>
      </trkpt>
      <trkpt lat="45.20862" lon="5.73243">
        <ele>536.20001220703</ele>
        <time>2021-07-17T08:33:56.000Z</time>
      </trkpt>
      <trkpt lat="45.20862" lon="5.73241">
        <ele>536.40002441406</ele>
        <time>2021-07-17T08:33:57.000Z</time>
      </trkpt>
      <trkpt lat="45.20861" lon="5.73239">
        <ele>536.59997558594</ele>
        <time>2021-07-17T08:33:58.000Z</time>
      </trkpt>
      <trkpt lat="45.20859" lon="5.73236">
        <ele>536.79998779297</ele>
        <time>2021-07-17T08:34:00.000Z</time>
      </trkpt>
      <trkpt lat="45.20857" lon="5.73229">
        <ele>537</ele>
        <time>2021-07-17T08:34:03.000Z</time>
      </trkpt>
      <trkpt lat="45.20854" lon="5.73222">
        <ele>538</ele>
        <time>2021-07-17T08:34:07.000Z</time>
      </trkpt>
      <trkpt lat="45.2085" lon="5.73217">
        <ele>538</ele>
        <time>2021-07-17T08:34:10.000Z</time>
      </trkpt>
      <trkpt lat="45.20841" lon="5.73201">
        <ele>538.79998779297</ele>
        <time>2021-07-17T08:34:17.000Z</time>
      </trkpt>
      <trkpt lat="45.2084" lon="5.73198">
        <ele>539</ele>
        <time>2021-07-17T08:34:19.000Z</time>
      </trkpt>
      <trkpt lat="45.20836" lon="5.7319">
        <ele>540.20001220703</ele>
        <time>2021-07-17T08:34:23.000Z</time>
      </trkpt>
      <trkpt lat="45.20835" lon="5.73187">
        <ele>541</ele>
        <time>2021-07-17T08:34:26.000Z</time>
      </trkpt>
      <trkpt lat="45.20834" lon="5.73186">
        <ele>541.40002441406</ele>
        <time>2021-07-17T08:34:27.000Z</time>
      </trkpt>
      <trkpt lat="45.20834" lon="5.73184">
        <ele>541.40002441406</ele>
        <time>2021-07-17T08:34:28.000Z</time>
      </trkpt>
      <trkpt lat="45.20834" lon="5.73182">
        <ele>541.59997558594</ele>
        <time>2021-07-17T08:34:29.000Z</time>
      </trkpt>
      <trkpt lat="45.20833" lon="5.73176">
        <ele>542.59997558594</ele>
        <time>2021-07-17T08:34:31.000Z</time>
      </trkpt>
      <trkpt lat="45.20832" lon="5.73175">
        <ele>542.59997558594</ele>
        <time>2021-07-17T08:34:32.000Z</time>
      </trkpt>
      <trkpt lat="45.20829" lon="5.73169">
        <ele>543.59997558594</ele>
        <time>2021-07-17T08:34:36.000Z</time>
      </trkpt>
      <trkpt lat="45.20829" lon="5.73168">
        <ele>544</ele>
        <time>2021-07-17T08:34:37.000Z</time>
      </trkpt>
      <trkpt lat="45.20824" lon="5.73163">
        <ele>545</ele>
        <time>2021-07-17T08:34:42.000Z</time>
      </trkpt>
      <trkpt lat="45.20823" lon="5.73159">
        <ele>545.20001220703</ele>
        <time>2021-07-17T08:34:44.000Z</time>
      </trkpt>
      <trkpt lat="45.20818" lon="5.73152">
        <ele>546.20001220703</ele>
        <time>2021-07-17T08:34:49.000Z</time>
      </trkpt>
      <trkpt lat="45.2081" lon="5.73144">
        <ele>547.40002441406</ele>
        <time>2021-07-17T08:34:57.000Z</time>
      </trkpt>
      <trkpt lat="45.20805" lon="5.73138">
        <ele>548.40002441406</ele>
        <time>2021-07-17T08:35:03.000Z</time>
      </trkpt>
      <trkpt lat="45.20805" lon="5.73136">
        <ele>549.20001220703</ele>
        <time>2021-07-17T08:35:04.000Z</time>
      </trkpt>
      <trkpt lat="45.20802" lon="5.73128">
        <ele>550</ele>
        <time>2021-07-17T08:35:09.000Z</time>
      </trkpt>
      <trkpt lat="45.20802" lon="5.73127">
        <ele>550.59997558594</ele>
        <time>2021-07-17T08:35:10.000Z</time>
      </trkpt>
      <trkpt lat="45.20797" lon="5.7312">
        <ele>551.20001220703</ele>
        <time>2021-07-17T08:35:17.000Z</time>
      </trkpt>
      <trkpt lat="45.20798" lon="5.73118">
        <ele>551.79998779297</ele>
        <time>2021-07-17T08:35:18.000Z</time>
      </trkpt>
      <trkpt lat="45.20798" lon="5.73115">
        <ele>552.40002441406</ele>
        <time>2021-07-17T08:35:19.000Z</time>
      </trkpt>
      <trkpt lat="45.20795" lon="5.73111">
        <ele>552.59997558594</ele>
        <time>2021-07-17T08:35:21.000Z</time>
      </trkpt>
      <trkpt lat="45.20795" lon="5.7311">
        <ele>552.59997558594</ele>
        <time>2021-07-17T08:35:22.000Z</time>
      </trkpt>
      <trkpt lat="45.20794" lon="5.73108">
        <ele>552.79998779297</ele>
        <time>2021-07-17T08:35:24.000Z</time>
      </trkpt>
      <trkpt lat="45.20794" lon="5.73103">
        <ele>554</ele>
        <time>2021-07-17T08:35:28.000Z</time>
      </trkpt>
      <trkpt lat="45.2079" lon="5.73096">
        <ele>554.59997558594</ele>
        <time>2021-07-17T08:35:32.000Z</time>
      </trkpt>
      <trkpt lat="45.2079" lon="5.73095">
        <ele>554.79998779297</ele>
        <time>2021-07-17T08:35:33.000Z</time>
      </trkpt>
      <trkpt lat="45.20789" lon="5.73093">
        <ele>555.59997558594</ele>
        <time>2021-07-17T08:35:34.000Z</time>
      </trkpt>
      <trkpt lat="45.20788" lon="5.7309">
        <ele>555.59997558594</ele>
        <time>2021-07-17T08:35:36.000Z</time>
      </trkpt>
      <trkpt lat="45.20786" lon="5.73088">
        <ele>556</ele>
        <time>2021-07-17T08:35:38.000Z</time>
      </trkpt>
      <trkpt lat="45.20786" lon="5.73087">
        <ele>556.20001220703</ele>
        <time>2021-07-17T08:35:39.000Z</time>
      </trkpt>
      <trkpt lat="45.20785" lon="5.73086">
        <ele>557</ele>
        <time>2021-07-17T08:35:40.000Z</time>
      </trkpt>
      <trkpt lat="45.2078" lon="5.73082">
        <ele>558.20001220703</ele>
        <time>2021-07-17T08:35:46.000Z</time>
      </trkpt>
      <trkpt lat="45.20779" lon="5.73081">
        <ele>558.40002441406</ele>
        <time>2021-07-17T08:35:47.000Z</time>
      </trkpt>
      <trkpt lat="45.20778" lon="5.73079">
        <ele>558.40002441406</ele>
        <time>2021-07-17T08:35:48.000Z</time>
      </trkpt>
      <trkpt lat="45.20777" lon="5.73072">
        <ele>559</ele>
        <time>2021-07-17T08:35:53.000Z</time>
      </trkpt>
      <trkpt lat="45.20776" lon="5.73071">
        <ele>559.59997558594</ele>
        <time>2021-07-17T08:35:54.000Z</time>
      </trkpt>
      <trkpt lat="45.2077" lon="5.73062">
        <ele>560.79998779297</ele>
        <time>2021-07-17T08:36:01.000Z</time>
      </trkpt>
      <trkpt lat="45.20768" lon="5.7306">
        <ele>561</ele>
        <time>2021-07-17T08:36:03.000Z</time>
      </trkpt>
      <trkpt lat="45.20767" lon="5.73058">
        <ele>561.40002441406</ele>
        <time>2021-07-17T08:36:05.000Z</time>
      </trkpt>
      <trkpt lat="45.20767" lon="5.73056">
        <ele>562</ele>
        <time>2021-07-17T08:36:06.000Z</time>
      </trkpt>
      <trkpt lat="45.20766" lon="5.73054">
        <ele>562.20001220703</ele>
        <time>2021-07-17T08:36:07.000Z</time>
      </trkpt>
      <trkpt lat="45.20759" lon="5.73041">
        <ele>563</ele>
        <time>2021-07-17T08:36:15.000Z</time>
      </trkpt>
      <trkpt lat="45.20757" lon="5.7304">
        <ele>563.40002441406</ele>
        <time>2021-07-17T08:36:17.000Z</time>
      </trkpt>
      <trkpt lat="45.20753" lon="5.73037">
        <ele>563.59997558594</ele>
        <time>2021-07-17T08:36:20.000Z</time>
      </trkpt>
      <trkpt lat="45.20751" lon="5.73034">
        <ele>563.59997558594</ele>
        <time>2021-07-17T08:36:21.000Z</time>
      </trkpt>
      <trkpt lat="45.2075" lon="5.73031">
        <ele>563.59997558594</ele>
        <time>2021-07-17T08:36:23.000Z</time>
      </trkpt>
      <trkpt lat="45.20747" lon="5.73029">
        <ele>563.59997558594</ele>
        <time>2021-07-17T08:36:25.000Z</time>
      </trkpt>
      <trkpt lat="45.20745" lon="5.73027">
        <ele>563.79998779297</ele>
        <time>2021-07-17T08:36:27.000Z</time>
      </trkpt>
      <trkpt lat="45.20743" lon="5.73022">
        <ele>563.79998779297</ele>
        <time>2021-07-17T08:36:30.000Z</time>
      </trkpt>
      <trkpt lat="45.20742" lon="5.73021">
        <ele>564</ele>
        <time>2021-07-17T08:36:31.000Z</time>
      </trkpt>
      <trkpt lat="45.20737" lon="5.73013">
        <ele>564.79998779297</ele>
        <time>2021-07-17T08:36:35.000Z</time>
      </trkpt>
      <trkpt lat="45.20735" lon="5.73011">
        <ele>564.79998779297</ele>
        <time>2021-07-17T08:36:37.000Z</time>
      </trkpt>
      <trkpt lat="45.20733" lon="5.7301">
        <ele>565.59997558594</ele>
        <time>2021-07-17T08:36:38.000Z</time>
      </trkpt>
      <trkpt lat="45.2073" lon="5.73006">
        <ele>565.79998779297</ele>
        <time>2021-07-17T08:36:41.000Z</time>
      </trkpt>
      <trkpt lat="45.20728" lon="5.73004">
        <ele>566.20001220703</ele>
        <time>2021-07-17T08:36:43.000Z</time>
      </trkpt>
      <trkpt lat="45.20726" lon="5.73002">
        <ele>566.79998779297</ele>
        <time>2021-07-17T08:36:44.000Z</time>
      </trkpt>
      <trkpt lat="45.20722" lon="5.72995">
        <ele>567.20001220703</ele>
        <time>2021-07-17T08:36:48.000Z</time>
      </trkpt>
      <trkpt lat="45.20721" lon="5.72992">
        <ele>567.59997558594</ele>
        <time>2021-07-17T08:36:49.000Z</time>
      </trkpt>
      <trkpt lat="45.2072" lon="5.72989">
        <ele>568</ele>
        <time>2021-07-17T08:36:51.000Z</time>
      </trkpt>
      <trkpt lat="45.20718" lon="5.72989">
        <ele>568</ele>
        <time>2021-07-17T08:36:53.000Z</time>
      </trkpt>
      <trkpt lat="45.20715" lon="5.72988">
        <ele>569</ele>
        <time>2021-07-17T08:36:56.000Z</time>
      </trkpt>
      <trkpt lat="45.20713" lon="5.72988">
        <ele>569</ele>
        <time>2021-07-17T08:36:57.000Z</time>
      </trkpt>
      <trkpt lat="45.20712" lon="5.72986">
        <ele>569.20001220703</ele>
        <time>2021-07-17T08:36:58.000Z</time>
      </trkpt>
      <trkpt lat="45.20709" lon="5.72982">
        <ele>570</ele>
        <time>2021-07-17T08:37:01.000Z</time>
      </trkpt>
      <trkpt lat="45.20706" lon="5.72978">
        <ele>570.40002441406</ele>
        <time>2021-07-17T08:37:04.000Z</time>
      </trkpt>
      <trkpt lat="45.20702" lon="5.72975">
        <ele>570.59997558594</ele>
        <time>2021-07-17T08:37:07.000Z</time>
      </trkpt>
      <trkpt lat="45.20694" lon="5.72973">
        <ele>571.20001220703</ele>
        <time>2021-07-17T08:37:11.000Z</time>
      </trkpt>
      <trkpt lat="45.20682" lon="5.72963">
        <ele>571.79998779297</ele>
        <time>2021-07-17T08:37:17.000Z</time>
      </trkpt>
      <trkpt lat="45.2068" lon="5.72962">
        <ele>571.79998779297</ele>
        <time>2021-07-17T08:37:18.000Z</time>
      </trkpt>
      <trkpt lat="45.20677" lon="5.72955">
        <ele>572.40002441406</ele>
        <time>2021-07-17T08:37:21.000Z</time>
      </trkpt>
      <trkpt lat="45.20673" lon="5.7295">
        <ele>572.79998779297</ele>
        <time>2021-07-17T08:37:24.000Z</time>
      </trkpt>
      <trkpt lat="45.20672" lon="5.72949">
        <ele>573.20001220703</ele>
        <time>2021-07-17T08:37:25.000Z</time>
      </trkpt>
      <trkpt lat="45.20671" lon="5.72945">
        <ele>573.40002441406</ele>
        <time>2021-07-17T08:37:27.000Z</time>
      </trkpt>
      <trkpt lat="45.20669" lon="5.7294">
        <ele>574</ele>
        <time>2021-07-17T08:37:30.000Z</time>
      </trkpt>
      <trkpt lat="45.20667" lon="5.72937">
        <ele>574.59997558594</ele>
        <time>2021-07-17T08:37:32.000Z</time>
      </trkpt>
      <trkpt lat="45.20663" lon="5.72932">
        <ele>574.79998779297</ele>
        <time>2021-07-17T08:37:35.000Z</time>
      </trkpt>
      <trkpt lat="45.2066" lon="5.72929">
        <ele>575.20001220703</ele>
        <time>2021-07-17T08:37:37.000Z</time>
      </trkpt>
      <trkpt lat="45.20658" lon="5.72924">
        <ele>575.59997558594</ele>
        <time>2021-07-17T08:37:39.000Z</time>
      </trkpt>
      <trkpt lat="45.20654" lon="5.72917">
        <ele>576.20001220703</ele>
        <time>2021-07-17T08:37:43.000Z</time>
      </trkpt>
      <trkpt lat="45.20652" lon="5.72914">
        <ele>576.79998779297</ele>
        <time>2021-07-17T08:37:45.000Z</time>
      </trkpt>
      <trkpt lat="45.20641" lon="5.729">
        <ele>577.79998779297</ele>
        <time>2021-07-17T08:37:52.000Z</time>
      </trkpt>
      <trkpt lat="45.2064" lon="5.72898">
        <ele>578</ele>
        <time>2021-07-17T08:37:53.000Z</time>
      </trkpt>
      <trkpt lat="45.20632" lon="5.7289">
        <ele>578</ele>
        <time>2021-07-17T08:37:58.000Z</time>
      </trkpt>
      <trkpt lat="45.20622" lon="5.72884">
        <ele>577.59997558594</ele>
        <time>2021-07-17T08:38:03.000Z</time>
      </trkpt>
      <trkpt lat="45.2062" lon="5.72882">
        <ele>577.40002441406</ele>
        <time>2021-07-17T08:38:04.000Z</time>
      </trkpt>
      <trkpt lat="45.20607" lon="5.72873">
        <ele>577.20001220703</ele>
        <time>2021-07-17T08:38:10.000Z</time>
      </trkpt>
      <trkpt lat="45.20597" lon="5.72861">
        <ele>577.59997558594</ele>
        <time>2021-07-17T08:38:15.000Z</time>
      </trkpt>
      <trkpt lat="45.20596" lon="5.72859">
        <ele>578</ele>
        <time>2021-07-17T08:38:16.000Z</time>
      </trkpt>
      <trkpt lat="45.2059" lon="5.72853">
        <ele>578.59997558594</ele>
        <time>2021-07-17T08:38:19.000Z</time>
      </trkpt>
      <trkpt lat="45.20589" lon="5.72851">
        <ele>578.79998779297</ele>
        <time>2021-07-17T08:38:20.000Z</time>
      </trkpt>
      <trkpt lat="45.20576" lon="5.72835">
        <ele>578.40002441406</ele>
        <time>2021-07-17T08:38:27.000Z</time>
      </trkpt>
      <trkpt lat="45.20566" lon="5.72822">
        <ele>578.59997558594</ele>
        <time>2021-07-17T08:38:33.000Z</time>
      </trkpt>
      <trkpt lat="45.20557" lon="5.72808">
        <ele>577.79998779297</ele>
        <time>2021-07-17T08:38:39.000Z</time>
      </trkpt>
      <trkpt lat="45.20546" lon="5.72792">
        <ele>577.79998779297</ele>
        <time>2021-07-17T08:38:45.000Z</time>
      </trkpt>
      <trkpt lat="45.20537" lon="5.72776">
        <ele>578.20001220703</ele>
        <time>2021-07-17T08:38:52.000Z</time>
      </trkpt>
      <trkpt lat="45.20537" lon="5.72775">
        <ele>578.20001220703</ele>
        <time>2021-07-17T08:38:53.000Z</time>
      </trkpt>
      <trkpt lat="45.20534" lon="5.72773">
        <ele>578.59997558594</ele>
        <time>2021-07-17T08:38:58.000Z</time>
      </trkpt>
      <trkpt lat="45.20533" lon="5.72772">
        <ele>578.59997558594</ele>
        <time>2021-07-17T08:39:06.000Z</time>
      </trkpt>
      <trkpt lat="45.20533" lon="5.72772">
        <ele>578.59997558594</ele>
        <time>2021-07-17T08:39:09.000Z</time>
      </trkpt>
      <trkpt lat="45.20533" lon="5.72772">
        <ele>578.59997558594</ele>
        <time>2021-07-17T08:39:12.000Z</time>
      </trkpt>
      <trkpt lat="45.20533" lon="5.72772">
        <ele>578.59997558594</ele>
        <time>2021-07-17T08:39:14.000Z</time>
      </trkpt>
      <trkpt lat="45.2053" lon="5.72767">
        <ele>578.40002441406</ele>
        <time>2021-07-17T08:39:17.000Z</time>
      </trkpt>
      <trkpt lat="45.20527" lon="5.72764">
        <ele>578.59997558594</ele>
        <time>2021-07-17T08:39:19.000Z</time>
      </trkpt>
      <trkpt lat="45.20521" lon="5.72759">
        <ele>578.40002441406</ele>
        <time>2021-07-17T08:39:22.000Z</time>
      </trkpt>
      <trkpt lat="45.20519" lon="5.72757">
        <ele>578.40002441406</ele>
        <time>2021-07-17T08:39:23.000Z</time>
      </trkpt>
      <trkpt lat="45.20511" lon="5.72749">
        <ele>577.79998779297</ele>
        <time>2021-07-17T08:39:28.000Z</time>
      </trkpt>
      <trkpt lat="45.20509" lon="5.72747">
        <ele>577.59997558594</ele>
        <time>2021-07-17T08:39:29.000Z</time>
      </trkpt>
      <trkpt lat="45.20507" lon="5.72744">
        <ele>577</ele>
        <time>2021-07-17T08:39:31.000Z</time>
      </trkpt>
      <trkpt lat="45.20505" lon="5.72742">
        <ele>576.79998779297</ele>
        <time>2021-07-17T08:39:32.000Z</time>
      </trkpt>
      <trkpt lat="45.20499" lon="5.72734">
        <ele>576.59997558594</ele>
        <time>2021-07-17T08:39:36.000Z</time>
      </trkpt>
      <trkpt lat="45.20496" lon="5.72733">
        <ele>576.40002441406</ele>
        <time>2021-07-17T08:39:37.000Z</time>
      </trkpt>
      <trkpt lat="45.20494" lon="5.72733">
        <ele>576.20001220703</ele>
        <time>2021-07-17T08:39:38.000Z</time>
      </trkpt>
      <trkpt lat="45.20486" lon="5.72731">
        <ele>576.20001220703</ele>
        <time>2021-07-17T08:39:41.000Z</time>
      </trkpt>
      <trkpt lat="45.20483" lon="5.72731">
        <ele>576</ele>
        <time>2021-07-17T08:39:43.000Z</time>
      </trkpt>
      <trkpt lat="45.20481" lon="5.72731">
        <ele>575.40002441406</ele>
        <time>2021-07-17T08:39:44.000Z</time>
      </trkpt>
      <trkpt lat="45.20469" lon="5.7273">
        <ele>573.79998779297</ele>
        <time>2021-07-17T08:39:50.000Z</time>
      </trkpt>
      <trkpt lat="45.20456" lon="5.72732">
        <ele>572.40002441406</ele>
        <time>2021-07-17T08:39:56.000Z</time>
      </trkpt>
      <trkpt lat="45.20454" lon="5.72731">
        <ele>572.20001220703</ele>
        <time>2021-07-17T08:39:57.000Z</time>
      </trkpt>
      <trkpt lat="45.20444" lon="5.7273">
        <ele>571</ele>
        <time>2021-07-17T08:40:01.000Z</time>
      </trkpt>
      <trkpt lat="45.20438" lon="5.72728">
        <ele>570.20001220703</ele>
        <time>2021-07-17T08:40:03.000Z</time>
      </trkpt>
      <trkpt lat="45.20435" lon="5.72727">
        <ele>569.79998779297</ele>
        <time>2021-07-17T08:40:04.000Z</time>
      </trkpt>
      <trkpt lat="45.20422" lon="5.7272">
        <ele>568.79998779297</ele>
        <time>2021-07-17T08:40:09.000Z</time>
      </trkpt>
      <trkpt lat="45.20421" lon="5.72718">
        <ele>568.20001220703</ele>
        <time>2021-07-17T08:40:10.000Z</time>
      </trkpt>
      <trkpt lat="45.20413" lon="5.72713">
        <ele>567.20001220703</ele>
        <time>2021-07-17T08:40:14.000Z</time>
      </trkpt>
      <trkpt lat="45.2041" lon="5.72711">
        <ele>565.79998779297</ele>
        <time>2021-07-17T08:40:16.000Z</time>
      </trkpt>
      <trkpt lat="45.20408" lon="5.7271">
        <ele>565.59997558594</ele>
        <time>2021-07-17T08:40:17.000Z</time>
      </trkpt>
      <trkpt lat="45.20404" lon="5.72706">
        <ele>565.20001220703</ele>
        <time>2021-07-17T08:40:19.000Z</time>
      </trkpt>
      <trkpt lat="45.20402" lon="5.72703">
        <ele>564.79998779297</ele>
        <time>2021-07-17T08:40:20.000Z</time>
      </trkpt>
      <trkpt lat="45.20397" lon="5.72697">
        <ele>563.79998779297</ele>
        <time>2021-07-17T08:40:23.000Z</time>
      </trkpt>
      <trkpt lat="45.20396" lon="5.72694">
        <ele>563.59997558594</ele>
        <time>2021-07-17T08:40:24.000Z</time>
      </trkpt>
      <trkpt lat="45.20394" lon="5.72692">
        <ele>563.40002441406</ele>
        <time>2021-07-17T08:40:25.000Z</time>
      </trkpt>
      <trkpt lat="45.2039" lon="5.72684">
        <ele>562</ele>
        <time>2021-07-17T08:40:28.000Z</time>
      </trkpt>
      <trkpt lat="45.20386" lon="5.72676">
        <ele>561.79998779297</ele>
        <time>2021-07-17T08:40:31.000Z</time>
      </trkpt>
      <trkpt lat="45.20385" lon="5.72674">
        <ele>561</ele>
        <time>2021-07-17T08:40:32.000Z</time>
      </trkpt>
      <trkpt lat="45.20382" lon="5.72672">
        <ele>561</ele>
        <time>2021-07-17T08:40:34.000Z</time>
      </trkpt>
      <trkpt lat="45.2038" lon="5.72669">
        <ele>560.20001220703</ele>
        <time>2021-07-17T08:40:36.000Z</time>
      </trkpt>
      <trkpt lat="45.20379" lon="5.72667">
        <ele>559.59997558594</ele>
        <time>2021-07-17T08:40:38.000Z</time>
      </trkpt>
      <trkpt lat="45.2038" lon="5.72666">
        <ele>559.59997558594</ele>
        <time>2021-07-17T08:40:40.000Z</time>
      </trkpt>
      <trkpt lat="45.20381" lon="5.72666">
        <ele>559.40002441406</ele>
        <time>2021-07-17T08:40:41.000Z</time>
      </trkpt>
      <trkpt lat="45.20382" lon="5.72665">
        <ele>559.40002441406</ele>
        <time>2021-07-17T08:40:46.000Z</time>
      </trkpt>
      <trkpt lat="45.20382" lon="5.72662">
        <ele>559.40002441406</ele>
        <time>2021-07-17T08:40:50.000Z</time>
      </trkpt>
      <trkpt lat="45.20382" lon="5.7266">
        <ele>559.40002441406</ele>
        <time>2021-07-17T08:40:53.000Z</time>
      </trkpt>
      <trkpt lat="45.20384" lon="5.72659">
        <ele>559.40002441406</ele>
        <time>2021-07-17T08:41:02.000Z</time>
      </trkpt>
      <trkpt lat="45.2038" lon="5.72657">
        <ele>559.20001220703</ele>
        <time>2021-07-17T08:41:08.000Z</time>
      </trkpt>
      <trkpt lat="45.20374" lon="5.7265">
        <ele>558.40002441406</ele>
        <time>2021-07-17T08:41:12.000Z</time>
      </trkpt>
      <trkpt lat="45.2037" lon="5.72647">
        <ele>558</ele>
        <time>2021-07-17T08:41:14.000Z</time>
      </trkpt>
      <trkpt lat="45.20367" lon="5.72646">
        <ele>557.40002441406</ele>
        <time>2021-07-17T08:41:15.000Z</time>
      </trkpt>
      <trkpt lat="45.20352" lon="5.72642">
        <ele>555.20001220703</ele>
        <time>2021-07-17T08:41:20.000Z</time>
      </trkpt>
      <trkpt lat="45.2035" lon="5.72642">
        <ele>555.20001220703</ele>
        <time>2021-07-17T08:41:21.000Z</time>
      </trkpt>
      <trkpt lat="45.20345" lon="5.72638">
        <ele>554.20001220703</ele>
        <time>2021-07-17T08:41:23.000Z</time>
      </trkpt>
      <trkpt lat="45.20335" lon="5.72631">
        <ele>552.79998779297</ele>
        <time>2021-07-17T08:41:27.000Z</time>
      </trkpt>
      <trkpt lat="45.20332" lon="5.72631">
        <ele>552.59997558594</ele>
        <time>2021-07-17T08:41:28.000Z</time>
      </trkpt>
      <trkpt lat="45.20321" lon="5.72629">
        <ele>551.59997558594</ele>
        <time>2021-07-17T08:41:32.000Z</time>
      </trkpt>
      <trkpt lat="45.20317" lon="5.72628">
        <ele>551</ele>
        <time>2021-07-17T08:41:34.000Z</time>
      </trkpt>
      <trkpt lat="45.20312" lon="5.72627">
        <ele>550.59997558594</ele>
        <time>2021-07-17T08:41:36.000Z</time>
      </trkpt>
      <trkpt lat="45.20305" lon="5.72625">
        <ele>549.20001220703</ele>
        <time>2021-07-17T08:41:39.000Z</time>
      </trkpt>
      <trkpt lat="45.20296" lon="5.72622">
        <ele>548.79998779297</ele>
        <time>2021-07-17T08:41:42.000Z</time>
      </trkpt>
      <trkpt lat="45.20294" lon="5.72621">
        <ele>547.79998779297</ele>
        <time>2021-07-17T08:41:43.000Z</time>
      </trkpt>
      <trkpt lat="45.20292" lon="5.7262">
        <ele>547.20001220703</ele>
        <time>2021-07-17T08:41:44.000Z</time>
      </trkpt>
      <trkpt lat="45.20286" lon="5.72617">
        <ele>546.59997558594</ele>
        <time>2021-07-17T08:41:47.000Z</time>
      </trkpt>
      <trkpt lat="45.2028" lon="5.72614">
        <ele>545.59997558594</ele>
        <time>2021-07-17T08:41:50.000Z</time>
      </trkpt>
      <trkpt lat="45.20278" lon="5.72614">
        <ele>545.20001220703</ele>
        <time>2021-07-17T08:41:51.000Z</time>
      </trkpt>
      <trkpt lat="45.20272" lon="5.72613">
        <ele>544</ele>
        <time>2021-07-17T08:41:54.000Z</time>
      </trkpt>
      <trkpt lat="45.20268" lon="5.72613">
        <ele>543.79998779297</ele>
        <time>2021-07-17T08:41:56.000Z</time>
      </trkpt>
      <trkpt lat="45.20266" lon="5.72614">
        <ele>543.20001220703</ele>
        <time>2021-07-17T08:41:57.000Z</time>
      </trkpt>
      <trkpt lat="45.20264" lon="5.72614">
        <ele>542.59997558594</ele>
        <time>2021-07-17T08:41:58.000Z</time>
      </trkpt>
      <trkpt lat="45.20258" lon="5.72616">
        <ele>541.40002441406</ele>
        <time>2021-07-17T08:42:01.000Z</time>
      </trkpt>
      <trkpt lat="45.20252" lon="5.72617">
        <ele>540.20001220703</ele>
        <time>2021-07-17T08:42:04.000Z</time>
      </trkpt>
      <trkpt lat="45.20247" lon="5.72617">
        <ele>539.59997558594</ele>
        <time>2021-07-17T08:42:07.000Z</time>
      </trkpt>
      <trkpt lat="45.20242" lon="5.72616">
        <ele>539</ele>
        <time>2021-07-17T08:42:10.000Z</time>
      </trkpt>
      <trkpt lat="45.2024" lon="5.72616">
        <ele>538.79998779297</ele>
        <time>2021-07-17T08:42:11.000Z</time>
      </trkpt>
      <trkpt lat="45.20229" lon="5.72612">
        <ele>537.79998779297</ele>
        <time>2021-07-17T08:42:16.000Z</time>
      </trkpt>
      <trkpt lat="45.20225" lon="5.72611">
        <ele>537</ele>
        <time>2021-07-17T08:42:18.000Z</time>
      </trkpt>
      <trkpt lat="45.20223" lon="5.7261">
        <ele>536.79998779297</ele>
        <time>2021-07-17T08:42:19.000Z</time>
      </trkpt>
      <trkpt lat="45.20219" lon="5.72607">
        <ele>535</ele>
        <time>2021-07-17T08:42:21.000Z</time>
      </trkpt>
      <trkpt lat="45.20218" lon="5.72606">
        <ele>535</ele>
        <time>2021-07-17T08:42:22.000Z</time>
      </trkpt>
      <trkpt lat="45.20213" lon="5.72604">
        <ele>534.59997558594</ele>
        <time>2021-07-17T08:42:25.000Z</time>
      </trkpt>
      <trkpt lat="45.20207" lon="5.726">
        <ele>533.59997558594</ele>
        <time>2021-07-17T08:42:28.000Z</time>
      </trkpt>
      <trkpt lat="45.20199" lon="5.72597">
        <ele>532.79998779297</ele>
        <time>2021-07-17T08:42:32.000Z</time>
      </trkpt>
      <trkpt lat="45.20196" lon="5.72595">
        <ele>532</ele>
        <time>2021-07-17T08:42:34.000Z</time>
      </trkpt>
      <trkpt lat="45.20187" lon="5.72589">
        <ele>531.20001220703</ele>
        <time>2021-07-17T08:42:38.000Z</time>
      </trkpt>
      <trkpt lat="45.20186" lon="5.72588">
        <ele>530.79998779297</ele>
        <time>2021-07-17T08:42:39.000Z</time>
      </trkpt>
      <trkpt lat="45.20176" lon="5.72581">
        <ele>529.79998779297</ele>
        <time>2021-07-17T08:42:43.000Z</time>
      </trkpt>
      <trkpt lat="45.20171" lon="5.72579">
        <ele>528.59997558594</ele>
        <time>2021-07-17T08:42:45.000Z</time>
      </trkpt>
      <trkpt lat="45.20169" lon="5.72578">
        <ele>528.59997558594</ele>
        <time>2021-07-17T08:42:46.000Z</time>
      </trkpt>
      <trkpt lat="45.20162" lon="5.72572">
        <ele>527.59997558594</ele>
        <time>2021-07-17T08:42:49.000Z</time>
      </trkpt>
      <trkpt lat="45.20153" lon="5.72565">
        <ele>526.79998779297</ele>
        <time>2021-07-17T08:42:53.000Z</time>
      </trkpt>
      <trkpt lat="45.20149" lon="5.72564">
        <ele>526.20001220703</ele>
        <time>2021-07-17T08:42:54.000Z</time>
      </trkpt>
      <trkpt lat="45.20147" lon="5.72563">
        <ele>526.20001220703</ele>
        <time>2021-07-17T08:42:55.000Z</time>
      </trkpt>
      <trkpt lat="45.20143" lon="5.72562">
        <ele>525</ele>
        <time>2021-07-17T08:42:57.000Z</time>
      </trkpt>
      <trkpt lat="45.20135" lon="5.7256">
        <ele>524.40002441406</ele>
        <time>2021-07-17T08:43:01.000Z</time>
      </trkpt>
      <trkpt lat="45.20134" lon="5.72559">
        <ele>523.79998779297</ele>
        <time>2021-07-17T08:43:02.000Z</time>
      </trkpt>
      <trkpt lat="45.20128" lon="5.72556">
        <ele>522.40002441406</ele>
        <time>2021-07-17T08:43:06.000Z</time>
      </trkpt>
      <trkpt lat="45.20123" lon="5.72555">
        <ele>521.40002441406</ele>
        <time>2021-07-17T08:43:08.000Z</time>
      </trkpt>
      <trkpt lat="45.2012" lon="5.72553">
        <ele>521</ele>
        <time>2021-07-17T08:43:10.000Z</time>
      </trkpt>
      <trkpt lat="45.20115" lon="5.7255">
        <ele>519.79998779297</ele>
        <time>2021-07-17T08:43:14.000Z</time>
      </trkpt>
      <trkpt lat="45.20111" lon="5.72549">
        <ele>518.59997558594</ele>
        <time>2021-07-17T08:43:16.000Z</time>
      </trkpt>
      <trkpt lat="45.20102" lon="5.7255">
        <ele>517.79998779297</ele>
        <time>2021-07-17T08:43:20.000Z</time>
      </trkpt>
      <trkpt lat="45.20101" lon="5.7255">
        <ele>517</ele>
        <time>2021-07-17T08:43:21.000Z</time>
      </trkpt>
      <trkpt lat="45.20098" lon="5.72551">
        <ele>515.59997558594</ele>
        <time>2021-07-17T08:43:22.000Z</time>
      </trkpt>
      <trkpt lat="45.20087" lon="5.72551">
        <ele>514.40002441406</ele>
        <time>2021-07-17T08:43:27.000Z</time>
      </trkpt>
      <trkpt lat="45.20081" lon="5.72554">
        <ele>512.79998779297</ele>
        <time>2021-07-17T08:43:30.000Z</time>
      </trkpt>
      <trkpt lat="45.20076" lon="5.72557">
        <ele>511.79998779297</ele>
        <time>2021-07-17T08:43:33.000Z</time>
      </trkpt>
      <trkpt lat="45.20074" lon="5.72559">
        <ele>510.39999389648</ele>
        <time>2021-07-17T08:43:35.000Z</time>
      </trkpt>
      <trkpt lat="45.20072" lon="5.72559">
        <ele>510.20001220703</ele>
        <time>2021-07-17T08:43:37.000Z</time>
      </trkpt>
      <trkpt lat="45.20072" lon="5.72559">
        <ele>510.20001220703</ele>
        <time>2021-07-17T08:43:38.000Z</time>
      </trkpt>
      <trkpt lat="45.20072" lon="5.72559">
        <ele>510</ele>
        <time>2021-07-17T08:43:45.000Z</time>
      </trkpt>
      <trkpt lat="45.20072" lon="5.72558">
        <ele>510.20001220703</ele>
        <time>2021-07-17T08:43:47.000Z</time>
      </trkpt>
      <trkpt lat="45.20072" lon="5.72557">
        <ele>510</ele>
        <time>2021-07-17T08:43:51.000Z</time>
      </trkpt>
      <trkpt lat="45.20072" lon="5.72554">
        <ele>510</ele>
        <time>2021-07-17T08:43:54.000Z</time>
      </trkpt>
      <trkpt lat="45.20072" lon="5.72549">
        <ele>510.79998779297</ele>
        <time>2021-07-17T08:43:56.000Z</time>
      </trkpt>
      <trkpt lat="45.20071" lon="5.72546">
        <ele>511</ele>
        <time>2021-07-17T08:43:57.000Z</time>
      </trkpt>
      <trkpt lat="45.20069" lon="5.72537">
        <ele>511.39999389648</ele>
        <time>2021-07-17T08:44:00.000Z</time>
      </trkpt>
      <trkpt lat="45.20069" lon="5.72529">
        <ele>511.60000610352</ele>
        <time>2021-07-17T08:44:02.000Z</time>
      </trkpt>
      <trkpt lat="45.20069" lon="5.72525">
        <ele>511.60000610352</ele>
        <time>2021-07-17T08:44:03.000Z</time>
      </trkpt>
      <trkpt lat="45.2007" lon="5.72518">
        <ele>511.39999389648</ele>
        <time>2021-07-17T08:44:05.000Z</time>
      </trkpt>
      <trkpt lat="45.20072" lon="5.72502">
        <ele>511</ele>
        <time>2021-07-17T08:44:09.000Z</time>
      </trkpt>
      <trkpt lat="45.20074" lon="5.72487">
        <ele>510.60000610352</ele>
        <time>2021-07-17T08:44:13.000Z</time>
      </trkpt>
      <trkpt lat="45.20075" lon="5.72485">
        <ele>510.39999389648</ele>
        <time>2021-07-17T08:44:14.000Z</time>
      </trkpt>
      <trkpt lat="45.20075" lon="5.72478">
        <ele>510.20001220703</ele>
        <time>2021-07-17T08:44:16.000Z</time>
      </trkpt>
      <trkpt lat="45.20073" lon="5.72467">
        <ele>510</ele>
        <time>2021-07-17T08:44:19.000Z</time>
      </trkpt>
      <trkpt lat="45.20072" lon="5.72457">
        <ele>509.20001220703</ele>
        <time>2021-07-17T08:44:22.000Z</time>
      </trkpt>
      <trkpt lat="45.20071" lon="5.72454">
        <ele>509.20001220703</ele>
        <time>2021-07-17T08:44:23.000Z</time>
      </trkpt>
      <trkpt lat="45.20067" lon="5.72448">
        <ele>509.20001220703</ele>
        <time>2021-07-17T08:44:25.000Z</time>
      </trkpt>
      <trkpt lat="45.20065" lon="5.72443">
        <ele>508.20001220703</ele>
        <time>2021-07-17T08:44:27.000Z</time>
      </trkpt>
      <trkpt lat="45.20063" lon="5.7244">
        <ele>507.79998779297</ele>
        <time>2021-07-17T08:44:28.000Z</time>
      </trkpt>
      <trkpt lat="45.20058" lon="5.72437">
        <ele>507.20001220703</ele>
        <time>2021-07-17T08:44:30.000Z</time>
      </trkpt>
      <trkpt lat="45.20055" lon="5.72436">
        <ele>506.60000610352</ele>
        <time>2021-07-17T08:44:31.000Z</time>
      </trkpt>
      <trkpt lat="45.20051" lon="5.72434">
        <ele>506.20001220703</ele>
        <time>2021-07-17T08:44:33.000Z</time>
      </trkpt>
      <trkpt lat="45.20044" lon="5.72433">
        <ele>505.79998779297</ele>
        <time>2021-07-17T08:44:36.000Z</time>
      </trkpt>
      <trkpt lat="45.20041" lon="5.72433">
        <ele>504.60000610352</ele>
        <time>2021-07-17T08:44:37.000Z</time>
      </trkpt>
      <trkpt lat="45.20033" lon="5.72432">
        <ele>503.79998779297</ele>
        <time>2021-07-17T08:44:40.000Z</time>
      </trkpt>
      <trkpt lat="45.2003" lon="5.72432">
        <ele>503.60000610352</ele>
        <time>2021-07-17T08:44:41.000Z</time>
      </trkpt>
      <trkpt lat="45.20018" lon="5.72432">
        <ele>502.20001220703</ele>
        <time>2021-07-17T08:44:45.000Z</time>
      </trkpt>
      <trkpt lat="45.20011" lon="5.72431">
        <ele>501.60000610352</ele>
        <time>2021-07-17T08:44:47.000Z</time>
      </trkpt>
      <trkpt lat="45.20008" lon="5.72431">
        <ele>501.60000610352</ele>
        <time>2021-07-17T08:44:48.000Z</time>
      </trkpt>
      <trkpt lat="45.19996" lon="5.7243">
        <ele>499.79998779297</ele>
        <time>2021-07-17T08:44:52.000Z</time>
      </trkpt>
      <trkpt lat="45.19983" lon="5.72429">
        <ele>499</ele>
        <time>2021-07-17T08:44:56.000Z</time>
      </trkpt>
      <trkpt lat="45.19977" lon="5.72428">
        <ele>498.60000610352</ele>
        <time>2021-07-17T08:44:58.000Z</time>
      </trkpt>
      <trkpt lat="45.19974" lon="5.72428">
        <ele>497.39999389648</ele>
        <time>2021-07-17T08:44:59.000Z</time>
      </trkpt>
      <trkpt lat="45.19963" lon="5.72427">
        <ele>496.39999389648</ele>
        <time>2021-07-17T08:45:03.000Z</time>
      </trkpt>
      <trkpt lat="45.19956" lon="5.72427">
        <ele>495.39999389648</ele>
        <time>2021-07-17T08:45:06.000Z</time>
      </trkpt>
      <trkpt lat="45.19936" lon="5.7243">
        <ele>494.39999389648</ele>
        <time>2021-07-17T08:45:13.000Z</time>
      </trkpt>
      <trkpt lat="45.19934" lon="5.7243">
        <ele>494.39999389648</ele>
        <time>2021-07-17T08:45:14.000Z</time>
      </trkpt>
      <trkpt lat="45.19932" lon="5.7243">
        <ele>494.20001220703</ele>
        <time>2021-07-17T08:45:15.000Z</time>
      </trkpt>
      <trkpt lat="45.19921" lon="5.72432">
        <ele>494.20001220703</ele>
        <time>2021-07-17T08:45:19.000Z</time>
      </trkpt>
      <trkpt lat="45.19912" lon="5.72433">
        <ele>495.39999389648</ele>
        <time>2021-07-17T08:45:23.000Z</time>
      </trkpt>
      <trkpt lat="45.19909" lon="5.72434">
        <ele>495.39999389648</ele>
        <time>2021-07-17T08:45:24.000Z</time>
      </trkpt>
      <trkpt lat="45.19897" lon="5.72441">
        <ele>496.60000610352</ele>
        <time>2021-07-17T08:45:28.000Z</time>
      </trkpt>
      <trkpt lat="45.19896" lon="5.72442">
        <ele>496.60000610352</ele>
        <time>2021-07-17T08:45:29.000Z</time>
      </trkpt>
      <trkpt lat="45.19892" lon="5.72444">
        <ele>496.79998779297</ele>
        <time>2021-07-17T08:45:31.000Z</time>
      </trkpt>
      <trkpt lat="45.19889" lon="5.72447">
        <ele>497.79998779297</ele>
        <time>2021-07-17T08:45:33.000Z</time>
      </trkpt>
      <trkpt lat="45.19889" lon="5.7245">
        <ele>498.20001220703</ele>
        <time>2021-07-17T08:45:34.000Z</time>
      </trkpt>
      <trkpt lat="45.19889" lon="5.72456">
        <ele>498.39999389648</ele>
        <time>2021-07-17T08:45:36.000Z</time>
      </trkpt>
      <trkpt lat="45.19888" lon="5.72465">
        <ele>498.60000610352</ele>
        <time>2021-07-17T08:45:39.000Z</time>
      </trkpt>
      <trkpt lat="45.19886" lon="5.72467">
        <ele>498.60000610352</ele>
        <time>2021-07-17T08:45:40.000Z</time>
      </trkpt>
      <trkpt lat="45.19881" lon="5.72471">
        <ele>498.60000610352</ele>
        <time>2021-07-17T08:45:42.000Z</time>
      </trkpt>
      <trkpt lat="45.19879" lon="5.72473">
        <ele>498.60000610352</ele>
        <time>2021-07-17T08:45:43.000Z</time>
      </trkpt>
      <trkpt lat="45.19876" lon="5.72479">
        <ele>498.60000610352</ele>
        <time>2021-07-17T08:45:45.000Z</time>
      </trkpt>
      <trkpt lat="45.19869" lon="5.72488">
        <ele>498</ele>
        <time>2021-07-17T08:45:48.000Z</time>
      </trkpt>
      <trkpt lat="45.19867" lon="5.72495">
        <ele>498</ele>
        <time>2021-07-17T08:45:51.000Z</time>
      </trkpt>
      <trkpt lat="45.19867" lon="5.72523">
        <ele>497.39999389648</ele>
        <time>2021-07-17T08:45:57.000Z</time>
      </trkpt>
      <trkpt lat="45.19867" lon="5.7253">
        <ele>496.79998779297</ele>
        <time>2021-07-17T08:45:59.000Z</time>
      </trkpt>
      <trkpt lat="45.19866" lon="5.72547">
        <ele>495.39999389648</ele>
        <time>2021-07-17T08:46:03.000Z</time>
      </trkpt>
      <trkpt lat="45.19865" lon="5.72549">
        <ele>494.79998779297</ele>
        <time>2021-07-17T08:46:05.000Z</time>
      </trkpt>
      <trkpt lat="45.19862" lon="5.72545">
        <ele>493.79998779297</ele>
        <time>2021-07-17T08:46:07.000Z</time>
      </trkpt>
      <trkpt lat="45.19859" lon="5.72538">
        <ele>493.39999389648</ele>
        <time>2021-07-17T08:46:09.000Z</time>
      </trkpt>
      <trkpt lat="45.19856" lon="5.72528">
        <ele>492.79998779297</ele>
        <time>2021-07-17T08:46:12.000Z</time>
      </trkpt>
      <trkpt lat="45.19854" lon="5.7252">
        <ele>491.60000610352</ele>
        <time>2021-07-17T08:46:14.000Z</time>
      </trkpt>
      <trkpt lat="45.19852" lon="5.72513">
        <ele>491.60000610352</ele>
        <time>2021-07-17T08:46:16.000Z</time>
      </trkpt>
      <trkpt lat="45.19848" lon="5.725">
        <ele>490.60000610352</ele>
        <time>2021-07-17T08:46:20.000Z</time>
      </trkpt>
      <trkpt lat="45.19847" lon="5.72495">
        <ele>490.20001220703</ele>
        <time>2021-07-17T08:46:21.000Z</time>
      </trkpt>
      <trkpt lat="45.19844" lon="5.72483">
        <ele>489.39999389648</ele>
        <time>2021-07-17T08:46:24.000Z</time>
      </trkpt>
      <trkpt lat="45.19842" lon="5.72472">
        <ele>488.60000610352</ele>
        <time>2021-07-17T08:46:27.000Z</time>
      </trkpt>
      <trkpt lat="45.1984" lon="5.72462">
        <ele>487.60000610352</ele>
        <time>2021-07-17T08:46:30.000Z</time>
      </trkpt>
      <trkpt lat="45.19838" lon="5.72457">
        <ele>487</ele>
        <time>2021-07-17T08:46:31.000Z</time>
      </trkpt>
      <trkpt lat="45.19836" lon="5.72453">
        <ele>486.39999389648</ele>
        <time>2021-07-17T08:46:33.000Z</time>
      </trkpt>
      <trkpt lat="45.19833" lon="5.72452">
        <ele>486</ele>
        <time>2021-07-17T08:46:36.000Z</time>
      </trkpt>
      <trkpt lat="45.19832" lon="5.72454">
        <ele>485.79998779297</ele>
        <time>2021-07-17T08:46:37.000Z</time>
      </trkpt>
      <trkpt lat="45.19832" lon="5.72459">
        <ele>485.39999389648</ele>
        <time>2021-07-17T08:46:39.000Z</time>
      </trkpt>
      <trkpt lat="45.19832" lon="5.7247">
        <ele>484</ele>
        <time>2021-07-17T08:46:42.000Z</time>
      </trkpt>
      <trkpt lat="45.19831" lon="5.72473">
        <ele>484</ele>
        <time>2021-07-17T08:46:43.000Z</time>
      </trkpt>
      <trkpt lat="45.19829" lon="5.72488">
        <ele>482.79998779297</ele>
        <time>2021-07-17T08:46:47.000Z</time>
      </trkpt>
      <trkpt lat="45.19828" lon="5.72498">
        <ele>481.60000610352</ele>
        <time>2021-07-17T08:46:50.000Z</time>
      </trkpt>
      <trkpt lat="45.19825" lon="5.72508">
        <ele>480.60000610352</ele>
        <time>2021-07-17T08:46:53.000Z</time>
      </trkpt>
      <trkpt lat="45.19825" lon="5.72514">
        <ele>480.20001220703</ele>
        <time>2021-07-17T08:46:55.000Z</time>
      </trkpt>
      <trkpt lat="45.19824" lon="5.72526">
        <ele>479</ele>
        <time>2021-07-17T08:46:58.000Z</time>
      </trkpt>
      <trkpt lat="45.19824" lon="5.72537">
        <ele>478</ele>
        <time>2021-07-17T08:47:01.000Z</time>
      </trkpt>
      <trkpt lat="45.19824" lon="5.72542">
        <ele>477.79998779297</ele>
        <time>2021-07-17T08:47:02.000Z</time>
      </trkpt>
      <trkpt lat="45.19824" lon="5.72553">
        <ele>476.60000610352</ele>
        <time>2021-07-17T08:47:05.000Z</time>
      </trkpt>
      <trkpt lat="45.19823" lon="5.72564">
        <ele>476.39999389648</ele>
        <time>2021-07-17T08:47:08.000Z</time>
      </trkpt>
      <trkpt lat="45.19825" lon="5.72575">
        <ele>474.60000610352</ele>
        <time>2021-07-17T08:47:11.000Z</time>
      </trkpt>
      <trkpt lat="45.19826" lon="5.72587">
        <ele>474.60000610352</ele>
        <time>2021-07-17T08:47:15.000Z</time>
      </trkpt>
      <trkpt lat="45.19827" lon="5.72595">
        <ele>473.79998779297</ele>
        <time>2021-07-17T08:47:17.000Z</time>
      </trkpt>
      <trkpt lat="45.19828" lon="5.72598">
        <ele>473.20001220703</ele>
        <time>2021-07-17T08:47:18.000Z</time>
      </trkpt>
      <trkpt lat="45.1983" lon="5.72605">
        <ele>473</ele>
        <time>2021-07-17T08:47:20.000Z</time>
      </trkpt>
      <trkpt lat="45.19833" lon="5.72616">
        <ele>472</ele>
        <time>2021-07-17T08:47:23.000Z</time>
      </trkpt>
      <trkpt lat="45.19838" lon="5.7263">
        <ele>471</ele>
        <time>2021-07-17T08:47:28.000Z</time>
      </trkpt>
      <trkpt lat="45.19841" lon="5.72637">
        <ele>470.60000610352</ele>
        <time>2021-07-17T08:47:30.000Z</time>
      </trkpt>
      <trkpt lat="45.19845" lon="5.72646">
        <ele>470.60000610352</ele>
        <time>2021-07-17T08:47:33.000Z</time>
      </trkpt>
      <trkpt lat="45.19847" lon="5.72648">
        <ele>469.60000610352</ele>
        <time>2021-07-17T08:47:34.000Z</time>
      </trkpt>
      <trkpt lat="45.19848" lon="5.7265">
        <ele>469.20001220703</ele>
        <time>2021-07-17T08:47:35.000Z</time>
      </trkpt>
      <trkpt lat="45.1985" lon="5.72654">
        <ele>468.79998779297</ele>
        <time>2021-07-17T08:47:37.000Z</time>
      </trkpt>
      <trkpt lat="45.19854" lon="5.72662">
        <ele>468.39999389648</ele>
        <time>2021-07-17T08:47:40.000Z</time>
      </trkpt>
      <trkpt lat="45.19857" lon="5.72669">
        <ele>467.20001220703</ele>
        <time>2021-07-17T08:47:42.000Z</time>
      </trkpt>
      <trkpt lat="45.19859" lon="5.72674">
        <ele>466.79998779297</ele>
        <time>2021-07-17T08:47:43.000Z</time>
      </trkpt>
      <trkpt lat="45.19856" lon="5.7268">
        <ele>466.39999389648</ele>
        <time>2021-07-17T08:47:45.000Z</time>
      </trkpt>
      <trkpt lat="45.19855" lon="5.7268">
        <ele>466</ele>
        <time>2021-07-17T08:47:46.000Z</time>
      </trkpt>
      <trkpt lat="45.19853" lon="5.72679">
        <ele>465.79998779297</ele>
        <time>2021-07-17T08:47:47.000Z</time>
      </trkpt>
      <trkpt lat="45.19846" lon="5.72673">
        <ele>465.60000610352</ele>
        <time>2021-07-17T08:47:50.000Z</time>
      </trkpt>
      <trkpt lat="45.19842" lon="5.72669">
        <ele>464.39999389648</ele>
        <time>2021-07-17T08:47:52.000Z</time>
      </trkpt>
      <trkpt lat="45.19836" lon="5.72663">
        <ele>464.20001220703</ele>
        <time>2021-07-17T08:47:55.000Z</time>
      </trkpt>
      <trkpt lat="45.19826" lon="5.72656">
        <ele>463.20001220703</ele>
        <time>2021-07-17T08:47:59.000Z</time>
      </trkpt>
      <trkpt lat="45.19818" lon="5.72649">
        <ele>462.39999389648</ele>
        <time>2021-07-17T08:48:02.000Z</time>
      </trkpt>
      <trkpt lat="45.19817" lon="5.72647">
        <ele>461.79998779297</ele>
        <time>2021-07-17T08:48:03.000Z</time>
      </trkpt>
      <trkpt lat="45.19812" lon="5.72644">
        <ele>461.60000610352</ele>
        <time>2021-07-17T08:48:05.000Z</time>
      </trkpt>
      <trkpt lat="45.19803" lon="5.72637">
        <ele>460.20001220703</ele>
        <time>2021-07-17T08:48:09.000Z</time>
      </trkpt>
      <trkpt lat="45.19793" lon="5.72625">
        <ele>459.39999389648</ele>
        <time>2021-07-17T08:48:14.000Z</time>
      </trkpt>
      <trkpt lat="45.19791" lon="5.72622">
        <ele>458.60000610352</ele>
        <time>2021-07-17T08:48:15.000Z</time>
      </trkpt>
      <trkpt lat="45.19787" lon="5.72603">
        <ele>457</ele>
        <time>2021-07-17T08:48:20.000Z</time>
      </trkpt>
      <trkpt lat="45.19788" lon="5.72599">
        <ele>457</ele>
        <time>2021-07-17T08:48:21.000Z</time>
      </trkpt>
      <trkpt lat="45.19788" lon="5.72591">
        <ele>456</ele>
        <time>2021-07-17T08:48:23.000Z</time>
      </trkpt>
      <trkpt lat="45.19789" lon="5.72569">
        <ele>455.39999389648</ele>
        <time>2021-07-17T08:48:28.000Z</time>
      </trkpt>
      <trkpt lat="45.19788" lon="5.72558">
        <ele>454.39999389648</ele>
        <time>2021-07-17T08:48:30.000Z</time>
      </trkpt>
      <trkpt lat="45.1979" lon="5.72542">
        <ele>453.20001220703</ele>
        <time>2021-07-17T08:48:34.000Z</time>
      </trkpt>
      <trkpt lat="45.1979" lon="5.72535">
        <ele>452.79998779297</ele>
        <time>2021-07-17T08:48:36.000Z</time>
      </trkpt>
      <trkpt lat="45.1979" lon="5.72533">
        <ele>452.79998779297</ele>
        <time>2021-07-17T08:48:37.000Z</time>
      </trkpt>
      <trkpt lat="45.19787" lon="5.72532">
        <ele>452.60000610352</ele>
        <time>2021-07-17T08:48:39.000Z</time>
      </trkpt>
      <trkpt lat="45.19787" lon="5.72535">
        <ele>451.79998779297</ele>
        <time>2021-07-17T08:48:41.000Z</time>
      </trkpt>
      <trkpt lat="45.19785" lon="5.72542">
        <ele>451.20001220703</ele>
        <time>2021-07-17T08:48:44.000Z</time>
      </trkpt>
      <trkpt lat="45.19783" lon="5.72545">
        <ele>450.39999389648</ele>
        <time>2021-07-17T08:48:45.000Z</time>
      </trkpt>
      <trkpt lat="45.19782" lon="5.72555">
        <ele>450</ele>
        <time>2021-07-17T08:48:48.000Z</time>
      </trkpt>
      <trkpt lat="45.1978" lon="5.72561">
        <ele>448.79998779297</ele>
        <time>2021-07-17T08:48:50.000Z</time>
      </trkpt>
      <trkpt lat="45.19778" lon="5.72576">
        <ele>448.20001220703</ele>
        <time>2021-07-17T08:48:55.000Z</time>
      </trkpt>
      <trkpt lat="45.19777" lon="5.72578">
        <ele>448.20001220703</ele>
        <time>2021-07-17T08:48:56.000Z</time>
      </trkpt>
      <trkpt lat="45.19774" lon="5.72577">
        <ele>447.79998779297</ele>
        <time>2021-07-17T08:48:58.000Z</time>
      </trkpt>
      <trkpt lat="45.19772" lon="5.72575">
        <ele>447.60000610352</ele>
        <time>2021-07-17T08:48:59.000Z</time>
      </trkpt>
      <trkpt lat="45.19771" lon="5.72573">
        <ele>446.20001220703</ele>
        <time>2021-07-17T08:49:00.000Z</time>
      </trkpt>
      <trkpt lat="45.19769" lon="5.72563">
        <ele>445.39999389648</ele>
        <time>2021-07-17T08:49:03.000Z</time>
      </trkpt>
      <trkpt lat="45.19768" lon="5.7256">
        <ele>445.20001220703</ele>
        <time>2021-07-17T08:49:04.000Z</time>
      </trkpt>
      <trkpt lat="45.19765" lon="5.72547">
        <ele>444.20001220703</ele>
        <time>2021-07-17T08:49:08.000Z</time>
      </trkpt>
      <trkpt lat="45.19761" lon="5.72535">
        <ele>443.60000610352</ele>
        <time>2021-07-17T08:49:11.000Z</time>
      </trkpt>
      <trkpt lat="45.19761" lon="5.72532">
        <ele>443.20001220703</ele>
        <time>2021-07-17T08:49:12.000Z</time>
      </trkpt>
      <trkpt lat="45.19761" lon="5.72528">
        <ele>442.60000610352</ele>
        <time>2021-07-17T08:49:13.000Z</time>
      </trkpt>
      <trkpt lat="45.19766" lon="5.72511">
        <ele>441.60000610352</ele>
        <time>2021-07-17T08:49:18.000Z</time>
      </trkpt>
      <trkpt lat="45.19767" lon="5.72508">
        <ele>441</ele>
        <time>2021-07-17T08:49:19.000Z</time>
      </trkpt>
      <trkpt lat="45.19767" lon="5.72505">
        <ele>440.20001220703</ele>
        <time>2021-07-17T08:49:22.000Z</time>
      </trkpt>
      <trkpt lat="45.19766" lon="5.72506">
        <ele>440.20001220703</ele>
        <time>2021-07-17T08:49:23.000Z</time>
      </trkpt>
      <trkpt lat="45.19765" lon="5.72508">
        <ele>440</ele>
        <time>2021-07-17T08:49:24.000Z</time>
      </trkpt>
      <trkpt lat="45.19758" lon="5.72515">
        <ele>439</ele>
        <time>2021-07-17T08:49:27.000Z</time>
      </trkpt>
      <trkpt lat="45.19755" lon="5.72522">
        <ele>438.60000610352</ele>
        <time>2021-07-17T08:49:29.000Z</time>
      </trkpt>
      <trkpt lat="45.19754" lon="5.72533">
        <ele>438.20001220703</ele>
        <time>2021-07-17T08:49:32.000Z</time>
      </trkpt>
      <trkpt lat="45.19752" lon="5.72548">
        <ele>437.39999389648</ele>
        <time>2021-07-17T08:49:36.000Z</time>
      </trkpt>
      <trkpt lat="45.19752" lon="5.72551">
        <ele>437.39999389648</ele>
        <time>2021-07-17T08:49:37.000Z</time>
      </trkpt>
      <trkpt lat="45.19752" lon="5.72574">
        <ele>437.79998779297</ele>
        <time>2021-07-17T08:49:44.000Z</time>
      </trkpt>
      <trkpt lat="45.19754" lon="5.72591">
        <ele>437.79998779297</ele>
        <time>2021-07-17T08:49:50.000Z</time>
      </trkpt>
      <trkpt lat="45.19761" lon="5.72617">
        <ele>438</ele>
        <time>2021-07-17T08:49:57.000Z</time>
      </trkpt>
      <trkpt lat="45.19762" lon="5.72621">
        <ele>438</ele>
        <time>2021-07-17T08:49:58.000Z</time>
      </trkpt>
      <trkpt lat="45.19766" lon="5.72635">
        <ele>438.20001220703</ele>
        <time>2021-07-17T08:50:02.000Z</time>
      </trkpt>
      <trkpt lat="45.19769" lon="5.72641">
        <ele>437.79998779297</ele>
        <time>2021-07-17T08:50:04.000Z</time>
      </trkpt>
      <trkpt lat="45.19774" lon="5.72649">
        <ele>437.79998779297</ele>
        <time>2021-07-17T08:50:06.000Z</time>
      </trkpt>
      <trkpt lat="45.19777" lon="5.72656">
        <ele>437.79998779297</ele>
        <time>2021-07-17T08:50:08.000Z</time>
      </trkpt>
      <trkpt lat="45.19785" lon="5.72667">
        <ele>437.79998779297</ele>
        <time>2021-07-17T08:50:12.000Z</time>
      </trkpt>
      <trkpt lat="45.19787" lon="5.72669">
        <ele>438.20001220703</ele>
        <time>2021-07-17T08:50:13.000Z</time>
      </trkpt>
      <trkpt lat="45.19789" lon="5.72671">
        <ele>438.79998779297</ele>
        <time>2021-07-17T08:50:14.000Z</time>
      </trkpt>
      <trkpt lat="45.19794" lon="5.7268">
        <ele>438.20001220703</ele>
        <time>2021-07-17T08:50:18.000Z</time>
      </trkpt>
      <trkpt lat="45.19803" lon="5.72691">
        <ele>439</ele>
        <time>2021-07-17T08:50:23.000Z</time>
      </trkpt>
      <trkpt lat="45.19821" lon="5.7271">
        <ele>439</ele>
        <time>2021-07-17T08:50:29.000Z</time>
      </trkpt>
      <trkpt lat="45.19835" lon="5.7273">
        <ele>439</ele>
        <time>2021-07-17T08:50:35.000Z</time>
      </trkpt>
      <trkpt lat="45.1984" lon="5.72738">
        <ele>439.20001220703</ele>
        <time>2021-07-17T08:50:39.000Z</time>
      </trkpt>
      <trkpt lat="45.1985" lon="5.72725">
        <ele>435.39999389648</ele>
        <time>2021-07-17T08:50:53.000Z</time>
      </trkpt>
      <trkpt lat="45.19853" lon="5.72741">
        <ele>435.20001220703</ele>
        <time>2021-07-17T08:50:54.000Z</time>
      </trkpt>
      <trkpt lat="45.19861" lon="5.72758">
        <ele>434.60000610352</ele>
        <time>2021-07-17T08:50:58.000Z</time>
      </trkpt>
      <trkpt lat="45.1986" lon="5.7276">
        <ele>434.20001220703</ele>
        <time>2021-07-17T08:50:59.000Z</time>
      </trkpt>
      <trkpt lat="45.19858" lon="5.72761">
        <ele>433.20001220703</ele>
        <time>2021-07-17T08:51:01.000Z</time>
      </trkpt>
      <trkpt lat="45.19857" lon="5.72756">
        <ele>431</ele>
        <time>2021-07-17T08:51:06.000Z</time>
      </trkpt>
      <trkpt lat="45.19856" lon="5.72756">
        <ele>430.20001220703</ele>
        <time>2021-07-17T08:51:07.000Z</time>
      </trkpt>
      <trkpt lat="45.19855" lon="5.72756">
        <ele>430</ele>
        <time>2021-07-17T08:51:08.000Z</time>
      </trkpt>
      <trkpt lat="45.19854" lon="5.7276">
        <ele>429.39999389648</ele>
        <time>2021-07-17T08:51:11.000Z</time>
      </trkpt>
      <trkpt lat="45.19855" lon="5.72761">
        <ele>428.79998779297</ele>
        <time>2021-07-17T08:51:12.000Z</time>
      </trkpt>
      <trkpt lat="45.19845" lon="5.72781">
        <ele>414.20001220703</ele>
        <time>2021-07-17T08:51:47.000Z</time>
      </trkpt>
      <trkpt lat="45.19848" lon="5.72784">
        <ele>413</ele>
        <time>2021-07-17T08:51:48.000Z</time>
      </trkpt>
      <trkpt lat="45.19848" lon="5.72781">
        <ele>412.39999389648</ele>
        <time>2021-07-17T08:51:51.000Z</time>
      </trkpt>
      <trkpt lat="45.1985" lon="5.72782">
        <ele>412</ele>
        <time>2021-07-17T08:51:52.000Z</time>
      </trkpt>
      <trkpt lat="45.1985" lon="5.72785">
        <ele>411.39999389648</ele>
        <time>2021-07-17T08:51:53.000Z</time>
      </trkpt>
      <trkpt lat="45.19851" lon="5.72786">
        <ele>410.79998779297</ele>
        <time>2021-07-17T08:51:54.000Z</time>
      </trkpt>
      <trkpt lat="45.1985" lon="5.72788">
        <ele>410.79998779297</ele>
        <time>2021-07-17T08:51:55.000Z</time>
      </trkpt>
      <trkpt lat="45.19849" lon="5.72789">
        <ele>410.79998779297</ele>
        <time>2021-07-17T08:51:56.000Z</time>
      </trkpt>
      <trkpt lat="45.1984" lon="5.72786">
        <ele>409.79998779297</ele>
        <time>2021-07-17T08:51:59.000Z</time>
      </trkpt>
      <trkpt lat="45.19837" lon="5.72783">
        <ele>409.60000610352</ele>
        <time>2021-07-17T08:52:00.000Z</time>
      </trkpt>
      <trkpt lat="45.19828" lon="5.72777">
        <ele>408.79998779297</ele>
        <time>2021-07-17T08:52:03.000Z</time>
      </trkpt>
      <trkpt lat="45.19822" lon="5.72775">
        <ele>408.20001220703</ele>
        <time>2021-07-17T08:52:05.000Z</time>
      </trkpt>
      <trkpt lat="45.19816" lon="5.72773">
        <ele>407</ele>
        <time>2021-07-17T08:52:07.000Z</time>
      </trkpt>
      <trkpt lat="45.19808" lon="5.72761">
        <ele>406.39999389648</ele>
        <time>2021-07-17T08:52:10.000Z</time>
      </trkpt>
      <trkpt lat="45.19803" lon="5.72755">
        <ele>406</ele>
        <time>2021-07-17T08:52:12.000Z</time>
      </trkpt>
      <trkpt lat="45.1979" lon="5.72746">
        <ele>404.60000610352</ele>
        <time>2021-07-17T08:52:17.000Z</time>
      </trkpt>
      <trkpt lat="45.19788" lon="5.72747">
        <ele>404.60000610352</ele>
        <time>2021-07-17T08:52:18.000Z</time>
      </trkpt>
      <trkpt lat="45.19789" lon="5.72748">
        <ele>404.20001220703</ele>
        <time>2021-07-17T08:52:20.000Z</time>
      </trkpt>
      <trkpt lat="45.19793" lon="5.72752">
        <ele>402.60000610352</ele>
        <time>2021-07-17T08:52:23.000Z</time>
      </trkpt>
      <trkpt lat="45.19801" lon="5.72759">
        <ele>401.79998779297</ele>
        <time>2021-07-17T08:52:26.000Z</time>
      </trkpt>
      <trkpt lat="45.19805" lon="5.72766">
        <ele>400.60000610352</ele>
        <time>2021-07-17T08:52:28.000Z</time>
      </trkpt>
      <trkpt lat="45.19808" lon="5.7277">
        <ele>399.39999389648</ele>
        <time>2021-07-17T08:52:30.000Z</time>
      </trkpt>
      <trkpt lat="45.19815" lon="5.72779">
        <ele>398.60000610352</ele>
        <time>2021-07-17T08:52:34.000Z</time>
      </trkpt>
      <trkpt lat="45.19823" lon="5.72784">
        <ele>397</ele>
        <time>2021-07-17T08:52:37.000Z</time>
      </trkpt>
      <trkpt lat="45.1983" lon="5.7279">
        <ele>396.20001220703</ele>
        <time>2021-07-17T08:52:40.000Z</time>
      </trkpt>
      <trkpt lat="45.19832" lon="5.72792">
        <ele>395.39999389648</ele>
        <time>2021-07-17T08:52:41.000Z</time>
      </trkpt>
      <trkpt lat="45.19834" lon="5.72795">
        <ele>395.39999389648</ele>
        <time>2021-07-17T08:52:43.000Z</time>
      </trkpt>
      <trkpt lat="45.19833" lon="5.72796">
        <ele>394.60000610352</ele>
        <time>2021-07-17T08:52:44.000Z</time>
      </trkpt>
      <trkpt lat="45.19831" lon="5.72795">
        <ele>394.20001220703</ele>
        <time>2021-07-17T08:52:45.000Z</time>
      </trkpt>
      <trkpt lat="45.19826" lon="5.72793">
        <ele>393.60000610352</ele>
        <time>2021-07-17T08:52:47.000Z</time>
      </trkpt>
      <trkpt lat="45.19822" lon="5.72792">
        <ele>393.20001220703</ele>
        <time>2021-07-17T08:52:48.000Z</time>
      </trkpt>
      <trkpt lat="45.19817" lon="5.72791">
        <ele>392.20001220703</ele>
        <time>2021-07-17T08:52:50.000Z</time>
      </trkpt>
      <trkpt lat="45.19807" lon="5.7279">
        <ele>390.60000610352</ele>
        <time>2021-07-17T08:52:53.000Z</time>
      </trkpt>
      <trkpt lat="45.19805" lon="5.7279">
        <ele>390.60000610352</ele>
        <time>2021-07-17T08:52:54.000Z</time>
      </trkpt>
      <trkpt lat="45.19797" lon="5.72788">
        <ele>389.20001220703</ele>
        <time>2021-07-17T08:52:57.000Z</time>
      </trkpt>
      <trkpt lat="45.19795" lon="5.72788">
        <ele>388.60000610352</ele>
        <time>2021-07-17T08:52:59.000Z</time>
      </trkpt>
      <trkpt lat="45.19795" lon="5.72793">
        <ele>387.79998779297</ele>
        <time>2021-07-17T08:53:02.000Z</time>
      </trkpt>
      <trkpt lat="45.19799" lon="5.72796">
        <ele>387.39999389648</ele>
        <time>2021-07-17T08:53:04.000Z</time>
      </trkpt>
      <trkpt lat="45.19802" lon="5.72798">
        <ele>386.60000610352</ele>
        <time>2021-07-17T08:53:05.000Z</time>
      </trkpt>
      <trkpt lat="45.19806" lon="5.728">
        <ele>386.39999389648</ele>
        <time>2021-07-17T08:53:06.000Z</time>
      </trkpt>
      <trkpt lat="45.19816" lon="5.72808">
        <ele>385.39999389648</ele>
        <time>2021-07-17T08:53:10.000Z</time>
      </trkpt>
      <trkpt lat="45.19818" lon="5.72811">
        <ele>385.39999389648</ele>
        <time>2021-07-17T08:53:11.000Z</time>
      </trkpt>
      <trkpt lat="45.19822" lon="5.72815">
        <ele>384.20001220703</ele>
        <time>2021-07-17T08:53:13.000Z</time>
      </trkpt>
      <trkpt lat="45.19829" lon="5.72823">
        <ele>383.79998779297</ele>
        <time>2021-07-17T08:53:16.000Z</time>
      </trkpt>
      <trkpt lat="45.19832" lon="5.72825">
        <ele>382.79998779297</ele>
        <time>2021-07-17T08:53:17.000Z</time>
      </trkpt>
      <trkpt lat="45.19835" lon="5.72826">
        <ele>382.20001220703</ele>
        <time>2021-07-17T08:53:18.000Z</time>
      </trkpt>
      <trkpt lat="45.19839" lon="5.7283">
        <ele>381.60000610352</ele>
        <time>2021-07-17T08:53:20.000Z</time>
      </trkpt>
      <trkpt lat="45.19834" lon="5.72831">
        <ele>380.60000610352</ele>
        <time>2021-07-17T08:53:23.000Z</time>
      </trkpt>
      <trkpt lat="45.19829" lon="5.72829">
        <ele>379.60000610352</ele>
        <time>2021-07-17T08:53:25.000Z</time>
      </trkpt>
      <trkpt lat="45.19827" lon="5.72826">
        <ele>379.39999389648</ele>
        <time>2021-07-17T08:53:26.000Z</time>
      </trkpt>
      <trkpt lat="45.19823" lon="5.72823">
        <ele>379</ele>
        <time>2021-07-17T08:53:28.000Z</time>
      </trkpt>
      <trkpt lat="45.19815" lon="5.72821">
        <ele>378.39999389648</ele>
        <time>2021-07-17T08:53:31.000Z</time>
      </trkpt>
      <trkpt lat="45.19815" lon="5.72821">
        <ele>378.20001220703</ele>
        <time>2021-07-17T08:53:32.000Z</time>
      </trkpt>
      <trkpt lat="45.19815" lon="5.72822">
        <ele>377.39999389648</ele>
        <time>2021-07-17T08:53:33.000Z</time>
      </trkpt>
      <trkpt lat="45.19821" lon="5.72827">
        <ele>376.20001220703</ele>
        <time>2021-07-17T08:53:36.000Z</time>
      </trkpt>
      <trkpt lat="45.19827" lon="5.72831">
        <ele>375.60000610352</ele>
        <time>2021-07-17T08:53:38.000Z</time>
      </trkpt>
      <trkpt lat="45.19829" lon="5.72832">
        <ele>375.20001220703</ele>
        <time>2021-07-17T08:53:39.000Z</time>
      </trkpt>
      <trkpt lat="45.19831" lon="5.72835">
        <ele>374.60000610352</ele>
        <time>2021-07-17T08:53:41.000Z</time>
      </trkpt>
      <trkpt lat="45.1983" lon="5.72836">
        <ele>374</ele>
        <time>2021-07-17T08:53:42.000Z</time>
      </trkpt>
      <trkpt lat="45.19826" lon="5.72835">
        <ele>373.79998779297</ele>
        <time>2021-07-17T08:53:44.000Z</time>
      </trkpt>
      <trkpt lat="45.19823" lon="5.72834">
        <ele>373.60000610352</ele>
        <time>2021-07-17T08:53:45.000Z</time>
      </trkpt>
      <trkpt lat="45.1982" lon="5.72833">
        <ele>373.39999389648</ele>
        <time>2021-07-17T08:53:46.000Z</time>
      </trkpt>
      <trkpt lat="45.19813" lon="5.7283">
        <ele>372.79998779297</ele>
        <time>2021-07-17T08:53:48.000Z</time>
      </trkpt>
      <trkpt lat="45.19805" lon="5.72827">
        <ele>371</ele>
        <time>2021-07-17T08:53:51.000Z</time>
      </trkpt>
      <trkpt lat="45.19792" lon="5.72821">
        <ele>368.79998779297</ele>
        <time>2021-07-17T08:53:56.000Z</time>
      </trkpt>
      <trkpt lat="45.19791" lon="5.72821">
        <ele>368.20001220703</ele>
        <time>2021-07-17T08:53:58.000Z</time>
      </trkpt>
      <trkpt lat="45.19791" lon="5.7282">
        <ele>368.20001220703</ele>
        <time>2021-07-17T08:53:59.000Z</time>
      </trkpt>
      <trkpt lat="45.19796" lon="5.72824">
        <ele>368.20001220703</ele>
        <time>2021-07-17T08:54:02.000Z</time>
      </trkpt>
      <trkpt lat="45.19798" lon="5.72827">
        <ele>368.20001220703</ele>
        <time>2021-07-17T08:54:03.000Z</time>
      </trkpt>
      <trkpt lat="45.19805" lon="5.72835">
        <ele>367.79998779297</ele>
        <time>2021-07-17T08:54:06.000Z</time>
      </trkpt>
      <trkpt lat="45.19808" lon="5.72838">
        <ele>367.39999389648</ele>
        <time>2021-07-17T08:54:07.000Z</time>
      </trkpt>
      <trkpt lat="45.19813" lon="5.72843">
        <ele>366.79998779297</ele>
        <time>2021-07-17T08:54:09.000Z</time>
      </trkpt>
      <trkpt lat="45.19817" lon="5.72848">
        <ele>366.20001220703</ele>
        <time>2021-07-17T08:54:11.000Z</time>
      </trkpt>
      <trkpt lat="45.19816" lon="5.72849">
        <ele>365.39999389648</ele>
        <time>2021-07-17T08:54:12.000Z</time>
      </trkpt>
      <trkpt lat="45.19815" lon="5.7285">
        <ele>365.39999389648</ele>
        <time>2021-07-17T08:54:13.000Z</time>
      </trkpt>
      <trkpt lat="45.198" lon="5.72846">
        <ele>364.20001220703</ele>
        <time>2021-07-17T08:54:19.000Z</time>
      </trkpt>
      <trkpt lat="45.19789" lon="5.7284">
        <ele>362.79998779297</ele>
        <time>2021-07-17T08:54:23.000Z</time>
      </trkpt>
      <trkpt lat="45.1978" lon="5.72833">
        <ele>361.79998779297</ele>
        <time>2021-07-17T08:54:26.000Z</time>
      </trkpt>
      <trkpt lat="45.19777" lon="5.72831">
        <ele>360.79998779297</ele>
        <time>2021-07-17T08:54:27.000Z</time>
      </trkpt>
      <trkpt lat="45.19775" lon="5.7283">
        <ele>360.39999389648</ele>
        <time>2021-07-17T08:54:28.000Z</time>
      </trkpt>
      <trkpt lat="45.19768" lon="5.72827">
        <ele>359.60000610352</ele>
        <time>2021-07-17T08:54:31.000Z</time>
      </trkpt>
      <trkpt lat="45.19765" lon="5.72825">
        <ele>359.20001220703</ele>
        <time>2021-07-17T08:54:32.000Z</time>
      </trkpt>
      <trkpt lat="45.19763" lon="5.72823">
        <ele>358.60000610352</ele>
        <time>2021-07-17T08:54:33.000Z</time>
      </trkpt>
      <trkpt lat="45.19755" lon="5.72822">
        <ele>357.20001220703</ele>
        <time>2021-07-17T08:54:37.000Z</time>
      </trkpt>
      <trkpt lat="45.19755" lon="5.72823">
        <ele>357.20001220703</ele>
        <time>2021-07-17T08:54:38.000Z</time>
      </trkpt>
      <trkpt lat="45.19755" lon="5.72825">
        <ele>356.60000610352</ele>
        <time>2021-07-17T08:54:40.000Z</time>
      </trkpt>
      <trkpt lat="45.19756" lon="5.72827">
        <ele>355.79998779297</ele>
        <time>2021-07-17T08:54:41.000Z</time>
      </trkpt>
      <trkpt lat="45.19757" lon="5.72829">
        <ele>355.79998779297</ele>
        <time>2021-07-17T08:54:42.000Z</time>
      </trkpt>
      <trkpt lat="45.19759" lon="5.72829">
        <ele>355.79998779297</ele>
        <time>2021-07-17T08:54:43.000Z</time>
      </trkpt>
      <trkpt lat="45.19761" lon="5.7283">
        <ele>355.39999389648</ele>
        <time>2021-07-17T08:54:44.000Z</time>
      </trkpt>
      <trkpt lat="45.19764" lon="5.72831">
        <ele>355.39999389648</ele>
        <time>2021-07-17T08:54:45.000Z</time>
      </trkpt>
      <trkpt lat="45.19766" lon="5.72832">
        <ele>354.60000610352</ele>
        <time>2021-07-17T08:54:46.000Z</time>
      </trkpt>
      <trkpt lat="45.19771" lon="5.72836">
        <ele>353.79998779297</ele>
        <time>2021-07-17T08:54:48.000Z</time>
      </trkpt>
      <trkpt lat="45.19775" lon="5.7284">
        <ele>353.20001220703</ele>
        <time>2021-07-17T08:54:50.000Z</time>
      </trkpt>
      <trkpt lat="45.19779" lon="5.72844">
        <ele>352.20001220703</ele>
        <time>2021-07-17T08:54:52.000Z</time>
      </trkpt>
      <trkpt lat="45.19782" lon="5.72846">
        <ele>351.39999389648</ele>
        <time>2021-07-17T08:54:54.000Z</time>
      </trkpt>
      <trkpt lat="45.19787" lon="5.7285">
        <ele>351</ele>
        <time>2021-07-17T08:54:56.000Z</time>
      </trkpt>
      <trkpt lat="45.19789" lon="5.72852">
        <ele>351</ele>
        <time>2021-07-17T08:54:57.000Z</time>
      </trkpt>
      <trkpt lat="45.19792" lon="5.72857">
        <ele>349.60000610352</ele>
        <time>2021-07-17T08:54:59.000Z</time>
      </trkpt>
      <trkpt lat="45.19795" lon="5.72861">
        <ele>349</ele>
        <time>2021-07-17T08:55:01.000Z</time>
      </trkpt>
      <trkpt lat="45.198" lon="5.72864">
        <ele>348.20001220703</ele>
        <time>2021-07-17T08:55:03.000Z</time>
      </trkpt>
      <trkpt lat="45.19802" lon="5.72866">
        <ele>348.20001220703</ele>
        <time>2021-07-17T08:55:04.000Z</time>
      </trkpt>
      <trkpt lat="45.19802" lon="5.7287">
        <ele>347</ele>
        <time>2021-07-17T08:55:06.000Z</time>
      </trkpt>
      <trkpt lat="45.198" lon="5.72871">
        <ele>347</ele>
        <time>2021-07-17T08:55:07.000Z</time>
      </trkpt>
      <trkpt lat="45.19787" lon="5.72869">
        <ele>345.60000610352</ele>
        <time>2021-07-17T08:55:12.000Z</time>
      </trkpt>
      <trkpt lat="45.19784" lon="5.72867">
        <ele>344.60000610352</ele>
        <time>2021-07-17T08:55:13.000Z</time>
      </trkpt>
      <trkpt lat="45.19782" lon="5.72866">
        <ele>344.39999389648</ele>
        <time>2021-07-17T08:55:14.000Z</time>
      </trkpt>
      <trkpt lat="45.1978" lon="5.72866">
        <ele>343.79998779297</ele>
        <time>2021-07-17T08:55:15.000Z</time>
      </trkpt>
      <trkpt lat="45.19775" lon="5.72866">
        <ele>343.79998779297</ele>
        <time>2021-07-17T08:55:17.000Z</time>
      </trkpt>
      <trkpt lat="45.1977" lon="5.72866">
        <ele>343.39999389648</ele>
        <time>2021-07-17T08:55:19.000Z</time>
      </trkpt>
      <trkpt lat="45.19767" lon="5.72865">
        <ele>343</ele>
        <time>2021-07-17T08:55:20.000Z</time>
      </trkpt>
      <trkpt lat="45.19763" lon="5.72864">
        <ele>342.39999389648</ele>
        <time>2021-07-17T08:55:22.000Z</time>
      </trkpt>
      <trkpt lat="45.19761" lon="5.72863">
        <ele>341.39999389648</ele>
        <time>2021-07-17T08:55:23.000Z</time>
      </trkpt>
      <trkpt lat="45.19759" lon="5.72861">
        <ele>341.39999389648</ele>
        <time>2021-07-17T08:55:24.000Z</time>
      </trkpt>
      <trkpt lat="45.19748" lon="5.72852">
        <ele>339.79998779297</ele>
        <time>2021-07-17T08:55:28.000Z</time>
      </trkpt>
      <trkpt lat="45.19743" lon="5.7285">
        <ele>339.39999389648</ele>
        <time>2021-07-17T08:55:30.000Z</time>
      </trkpt>
      <trkpt lat="45.1974" lon="5.7285">
        <ele>339.20001220703</ele>
        <time>2021-07-17T08:55:32.000Z</time>
      </trkpt>
      <trkpt lat="45.1974" lon="5.72851">
        <ele>338.79998779297</ele>
        <time>2021-07-17T08:55:33.000Z</time>
      </trkpt>
      <trkpt lat="45.1974" lon="5.72852">
        <ele>338.20001220703</ele>
        <time>2021-07-17T08:55:34.000Z</time>
      </trkpt>
      <trkpt lat="45.19743" lon="5.72853">
        <ele>337.60000610352</ele>
        <time>2021-07-17T08:55:35.000Z</time>
      </trkpt>
      <trkpt lat="45.19745" lon="5.72855">
        <ele>337.60000610352</ele>
        <time>2021-07-17T08:55:36.000Z</time>
      </trkpt>
      <trkpt lat="45.19751" lon="5.72861">
        <ele>336</ele>
        <time>2021-07-17T08:55:39.000Z</time>
      </trkpt>
      <trkpt lat="45.19753" lon="5.72863">
        <ele>336</ele>
        <time>2021-07-17T08:55:40.000Z</time>
      </trkpt>
      <trkpt lat="45.19758" lon="5.72868">
        <ele>335</ele>
        <time>2021-07-17T08:55:42.000Z</time>
      </trkpt>
      <trkpt lat="45.19765" lon="5.72876">
        <ele>334.20001220703</ele>
        <time>2021-07-17T08:55:46.000Z</time>
      </trkpt>
      <trkpt lat="45.1977" lon="5.72881">
        <ele>334</ele>
        <time>2021-07-17T08:55:48.000Z</time>
      </trkpt>
      <trkpt lat="45.19774" lon="5.72886">
        <ele>332.79998779297</ele>
        <time>2021-07-17T08:55:50.000Z</time>
      </trkpt>
      <trkpt lat="45.19776" lon="5.72889">
        <ele>332.39999389648</ele>
        <time>2021-07-17T08:55:51.000Z</time>
      </trkpt>
      <trkpt lat="45.19779" lon="5.72894">
        <ele>331.60000610352</ele>
        <time>2021-07-17T08:55:53.000Z</time>
      </trkpt>
      <trkpt lat="45.19783" lon="5.72899">
        <ele>331.20001220703</ele>
        <time>2021-07-17T08:55:56.000Z</time>
      </trkpt>
      <trkpt lat="45.19784" lon="5.72901">
        <ele>331.20001220703</ele>
        <time>2021-07-17T08:55:57.000Z</time>
      </trkpt>
      <trkpt lat="45.19786" lon="5.72903">
        <ele>330.39999389648</ele>
        <time>2021-07-17T08:55:58.000Z</time>
      </trkpt>
      <trkpt lat="45.19788" lon="5.72905">
        <ele>330</ele>
        <time>2021-07-17T08:55:59.000Z</time>
      </trkpt>
      <trkpt lat="45.19791" lon="5.72906">
        <ele>329.79998779297</ele>
        <time>2021-07-17T08:56:00.000Z</time>
      </trkpt>
      <trkpt lat="45.19792" lon="5.72908">
        <ele>329.39999389648</ele>
        <time>2021-07-17T08:56:01.000Z</time>
      </trkpt>
      <trkpt lat="45.19794" lon="5.7291">
        <ele>329.39999389648</ele>
        <time>2021-07-17T08:56:02.000Z</time>
      </trkpt>
      <trkpt lat="45.19792" lon="5.72913">
        <ele>329</ele>
        <time>2021-07-17T08:56:04.000Z</time>
      </trkpt>
      <trkpt lat="45.19789" lon="5.72915">
        <ele>327.39999389648</ele>
        <time>2021-07-17T08:56:06.000Z</time>
      </trkpt>
      <trkpt lat="45.19787" lon="5.72915">
        <ele>327.39999389648</ele>
        <time>2021-07-17T08:56:07.000Z</time>
      </trkpt>
      <trkpt lat="45.19785" lon="5.72914">
        <ele>327.39999389648</ele>
        <time>2021-07-17T08:56:08.000Z</time>
      </trkpt>
      <trkpt lat="45.19776" lon="5.72913">
        <ele>326.20001220703</ele>
        <time>2021-07-17T08:56:12.000Z</time>
      </trkpt>
      <trkpt lat="45.1977" lon="5.72912">
        <ele>325.79998779297</ele>
        <time>2021-07-17T08:56:14.000Z</time>
      </trkpt>
      <trkpt lat="45.19764" lon="5.7291">
        <ele>324.60000610352</ele>
        <time>2021-07-17T08:56:16.000Z</time>
      </trkpt>
      <trkpt lat="45.19754" lon="5.72907">
        <ele>323.60000610352</ele>
        <time>2021-07-17T08:56:20.000Z</time>
      </trkpt>
      <trkpt lat="45.19751" lon="5.72904">
        <ele>322.60000610352</ele>
        <time>2021-07-17T08:56:21.000Z</time>
      </trkpt>
      <trkpt lat="45.19747" lon="5.72902">
        <ele>322</ele>
        <time>2021-07-17T08:56:23.000Z</time>
      </trkpt>
      <trkpt lat="45.19745" lon="5.72901">
        <ele>322</ele>
        <time>2021-07-17T08:56:24.000Z</time>
      </trkpt>
      <trkpt lat="45.1974" lon="5.72899">
        <ele>321</ele>
        <time>2021-07-17T08:56:26.000Z</time>
      </trkpt>
      <trkpt lat="45.19732" lon="5.72893">
        <ele>320</ele>
        <time>2021-07-17T08:56:30.000Z</time>
      </trkpt>
      <trkpt lat="45.19729" lon="5.72892">
        <ele>319.20001220703</ele>
        <time>2021-07-17T08:56:31.000Z</time>
      </trkpt>
      <trkpt lat="45.19715" lon="5.72886">
        <ele>317.39999389648</ele>
        <time>2021-07-17T08:56:36.000Z</time>
      </trkpt>
      <trkpt lat="45.19707" lon="5.72879">
        <ele>317</ele>
        <time>2021-07-17T08:56:39.000Z</time>
      </trkpt>
      <trkpt lat="45.197" lon="5.72871">
        <ele>316.20001220703</ele>
        <time>2021-07-17T08:56:42.000Z</time>
      </trkpt>
      <trkpt lat="45.19693" lon="5.72864">
        <ele>315.20001220703</ele>
        <time>2021-07-17T08:56:45.000Z</time>
      </trkpt>
      <trkpt lat="45.19692" lon="5.72864">
        <ele>314.79998779297</ele>
        <time>2021-07-17T08:56:46.000Z</time>
      </trkpt>
      <trkpt lat="45.19693" lon="5.72864">
        <ele>314.39999389648</ele>
        <time>2021-07-17T08:56:48.000Z</time>
      </trkpt>
      <trkpt lat="45.19694" lon="5.72865">
        <ele>314</ele>
        <time>2021-07-17T08:56:49.000Z</time>
      </trkpt>
      <trkpt lat="45.19698" lon="5.72869">
        <ele>312.79998779297</ele>
        <time>2021-07-17T08:56:53.000Z</time>
      </trkpt>
      <trkpt lat="45.19699" lon="5.72871">
        <ele>312.39999389648</ele>
        <time>2021-07-17T08:56:54.000Z</time>
      </trkpt>
      <trkpt lat="45.19702" lon="5.72875">
        <ele>311.39999389648</ele>
        <time>2021-07-17T08:56:57.000Z</time>
      </trkpt>
      <trkpt lat="45.19711" lon="5.72883">
        <ele>310.20001220703</ele>
        <time>2021-07-17T08:57:01.000Z</time>
      </trkpt>
      <trkpt lat="45.19712" lon="5.72885">
        <ele>310</ele>
        <time>2021-07-17T08:57:02.000Z</time>
      </trkpt>
      <trkpt lat="45.19714" lon="5.72891">
        <ele>309.60000610352</ele>
        <time>2021-07-17T08:57:04.000Z</time>
      </trkpt>
      <trkpt lat="45.19715" lon="5.72893">
        <ele>308.79998779297</ele>
        <time>2021-07-17T08:57:05.000Z</time>
      </trkpt>
      <trkpt lat="45.19722" lon="5.729">
        <ele>308.39999389648</ele>
        <time>2021-07-17T08:57:08.000Z</time>
      </trkpt>
      <trkpt lat="45.19726" lon="5.72904">
        <ele>307.79998779297</ele>
        <time>2021-07-17T08:57:10.000Z</time>
      </trkpt>
      <trkpt lat="45.1973" lon="5.72914">
        <ele>306.39999389648</ele>
        <time>2021-07-17T08:57:14.000Z</time>
      </trkpt>
      <trkpt lat="45.19732" lon="5.72918">
        <ele>306</ele>
        <time>2021-07-17T08:57:16.000Z</time>
      </trkpt>
      <trkpt lat="45.19735" lon="5.72922">
        <ele>305</ele>
        <time>2021-07-17T08:57:17.000Z</time>
      </trkpt>
      <trkpt lat="45.19742" lon="5.72933">
        <ele>304.39999389648</ele>
        <time>2021-07-17T08:57:20.000Z</time>
      </trkpt>
      <trkpt lat="45.19744" lon="5.72937">
        <ele>304</ele>
        <time>2021-07-17T08:57:21.000Z</time>
      </trkpt>
      <trkpt lat="45.19753" lon="5.7295">
        <ele>303</ele>
        <time>2021-07-17T08:57:25.000Z</time>
      </trkpt>
      <trkpt lat="45.19757" lon="5.72956">
        <ele>302.39999389648</ele>
        <time>2021-07-17T08:57:27.000Z</time>
      </trkpt>
      <trkpt lat="45.1976" lon="5.72961">
        <ele>301.39999389648</ele>
        <time>2021-07-17T08:57:29.000Z</time>
      </trkpt>
      <trkpt lat="45.19772" lon="5.72976">
        <ele>299.79998779297</ele>
        <time>2021-07-17T08:57:34.000Z</time>
      </trkpt>
      <trkpt lat="45.19781" lon="5.72988">
        <ele>298.60000610352</ele>
        <time>2021-07-17T08:57:38.000Z</time>
      </trkpt>
      <trkpt lat="45.19784" lon="5.72993">
        <ele>298.39999389648</ele>
        <time>2021-07-17T08:57:40.000Z</time>
      </trkpt>
      <trkpt lat="45.19787" lon="5.72998">
        <ele>297.60000610352</ele>
        <time>2021-07-17T08:57:42.000Z</time>
      </trkpt>
      <trkpt lat="45.19791" lon="5.73001">
        <ele>297.20001220703</ele>
        <time>2021-07-17T08:57:44.000Z</time>
      </trkpt>
      <trkpt lat="45.19793" lon="5.73001">
        <ele>297.20001220703</ele>
        <time>2021-07-17T08:57:45.000Z</time>
      </trkpt>
      <trkpt lat="45.19795" lon="5.73002">
        <ele>296.79998779297</ele>
        <time>2021-07-17T08:57:46.000Z</time>
      </trkpt>
      <trkpt lat="45.198" lon="5.73007">
        <ele>296.20001220703</ele>
        <time>2021-07-17T08:57:48.000Z</time>
      </trkpt>
      <trkpt lat="45.198" lon="5.7301">
        <ele>296</ele>
        <time>2021-07-17T08:57:49.000Z</time>
      </trkpt>
      <trkpt lat="45.19796" lon="5.73014">
        <ele>295</ele>
        <time>2021-07-17T08:57:51.000Z</time>
      </trkpt>
      <trkpt lat="45.19791" lon="5.73015">
        <ele>294.39999389648</ele>
        <time>2021-07-17T08:57:53.000Z</time>
      </trkpt>
      <trkpt lat="45.19787" lon="5.73014">
        <ele>293.79998779297</ele>
        <time>2021-07-17T08:57:55.000Z</time>
      </trkpt>
      <trkpt lat="45.19778" lon="5.73012">
        <ele>292.79998779297</ele>
        <time>2021-07-17T08:57:58.000Z</time>
      </trkpt>
      <trkpt lat="45.19766" lon="5.73016">
        <ele>292</ele>
        <time>2021-07-17T08:58:03.000Z</time>
      </trkpt>
      <trkpt lat="45.19763" lon="5.73018">
        <ele>291.60000610352</ele>
        <time>2021-07-17T08:58:05.000Z</time>
      </trkpt>
      <trkpt lat="45.19763" lon="5.73019">
        <ele>290.39999389648</ele>
        <time>2021-07-17T08:58:06.000Z</time>
      </trkpt>
      <trkpt lat="45.19765" lon="5.73019">
        <ele>290.39999389648</ele>
        <time>2021-07-17T08:58:07.000Z</time>
      </trkpt>
      <trkpt lat="45.19771" lon="5.7302">
        <ele>289.39999389648</ele>
        <time>2021-07-17T08:58:11.000Z</time>
      </trkpt>
      <trkpt lat="45.19773" lon="5.7302">
        <ele>289</ele>
        <time>2021-07-17T08:58:12.000Z</time>
      </trkpt>
      <trkpt lat="45.19775" lon="5.73021">
        <ele>289</ele>
        <time>2021-07-17T08:58:13.000Z</time>
      </trkpt>
      <trkpt lat="45.19776" lon="5.7302">
        <ele>288.20001220703</ele>
        <time>2021-07-17T08:58:14.000Z</time>
      </trkpt>
      <trkpt lat="45.19789" lon="5.73021">
        <ele>287</ele>
        <time>2021-07-17T08:58:18.000Z</time>
      </trkpt>
      <trkpt lat="45.19792" lon="5.73022">
        <ele>287</ele>
        <time>2021-07-17T08:58:19.000Z</time>
      </trkpt>
      <trkpt lat="45.19797" lon="5.73026">
        <ele>286.79998779297</ele>
        <time>2021-07-17T08:58:21.000Z</time>
      </trkpt>
      <trkpt lat="45.19802" lon="5.73032">
        <ele>285.79998779297</ele>
        <time>2021-07-17T08:58:23.000Z</time>
      </trkpt>
      <trkpt lat="45.19801" lon="5.73035">
        <ele>285.60000610352</ele>
        <time>2021-07-17T08:58:24.000Z</time>
      </trkpt>
      <trkpt lat="45.19796" lon="5.73038">
        <ele>285.20001220703</ele>
        <time>2021-07-17T08:58:26.000Z</time>
      </trkpt>
      <trkpt lat="45.19794" lon="5.73038">
        <ele>284.60000610352</ele>
        <time>2021-07-17T08:58:27.000Z</time>
      </trkpt>
      <trkpt lat="45.19787" lon="5.73037">
        <ele>283.39999389648</ele>
        <time>2021-07-17T08:58:30.000Z</time>
      </trkpt>
      <trkpt lat="45.19785" lon="5.73038">
        <ele>283.20001220703</ele>
        <time>2021-07-17T08:58:31.000Z</time>
      </trkpt>
      <trkpt lat="45.19782" lon="5.73038">
        <ele>282</ele>
        <time>2021-07-17T08:58:32.000Z</time>
      </trkpt>
      <trkpt lat="45.1978" lon="5.73037">
        <ele>281.79998779297</ele>
        <time>2021-07-17T08:58:33.000Z</time>
      </trkpt>
      <trkpt lat="45.1977" lon="5.73037">
        <ele>280.79998779297</ele>
        <time>2021-07-17T08:58:37.000Z</time>
      </trkpt>
      <trkpt lat="45.19767" lon="5.73035">
        <ele>280.20001220703</ele>
        <time>2021-07-17T08:58:38.000Z</time>
      </trkpt>
      <trkpt lat="45.19759" lon="5.73035">
        <ele>279.79998779297</ele>
        <time>2021-07-17T08:58:41.000Z</time>
      </trkpt>
      <trkpt lat="45.19757" lon="5.73035">
        <ele>278.79998779297</ele>
        <time>2021-07-17T08:58:42.000Z</time>
      </trkpt>
      <trkpt lat="45.19755" lon="5.73036">
        <ele>278.60000610352</ele>
        <time>2021-07-17T08:58:44.000Z</time>
      </trkpt>
      <trkpt lat="45.1976" lon="5.73039">
        <ele>278.20001220703</ele>
        <time>2021-07-17T08:58:47.000Z</time>
      </trkpt>
      <trkpt lat="45.19763" lon="5.73039">
        <ele>278.20001220703</ele>
        <time>2021-07-17T08:58:48.000Z</time>
      </trkpt>
      <trkpt lat="45.1977" lon="5.73041">
        <ele>277.60000610352</ele>
        <time>2021-07-17T08:58:51.000Z</time>
      </trkpt>
      <trkpt lat="45.19773" lon="5.73043">
        <ele>276.20001220703</ele>
        <time>2021-07-17T08:58:53.000Z</time>
      </trkpt>
      <trkpt lat="45.19783" lon="5.73045">
        <ele>274.79998779297</ele>
        <time>2021-07-17T08:58:58.000Z</time>
      </trkpt>
      <trkpt lat="45.19785" lon="5.73046">
        <ele>274.39999389648</ele>
        <time>2021-07-17T08:58:59.000Z</time>
      </trkpt>
      <trkpt lat="45.19789" lon="5.73047">
        <ele>273.39999389648</ele>
        <time>2021-07-17T08:59:01.000Z</time>
      </trkpt>
      <trkpt lat="45.19792" lon="5.7305">
        <ele>273.39999389648</ele>
        <time>2021-07-17T08:59:03.000Z</time>
      </trkpt>
      <trkpt lat="45.19792" lon="5.73052">
        <ele>273.20001220703</ele>
        <time>2021-07-17T08:59:04.000Z</time>
      </trkpt>
      <trkpt lat="45.19787" lon="5.73058">
        <ele>272.39999389648</ele>
        <time>2021-07-17T08:59:06.000Z</time>
      </trkpt>
      <trkpt lat="45.19777" lon="5.73059">
        <ele>270.79998779297</ele>
        <time>2021-07-17T08:59:10.000Z</time>
      </trkpt>
      <trkpt lat="45.19768" lon="5.73057">
        <ele>269.79998779297</ele>
        <time>2021-07-17T08:59:14.000Z</time>
      </trkpt>
      <trkpt lat="45.19764" lon="5.73055">
        <ele>269</ele>
        <time>2021-07-17T08:59:16.000Z</time>
      </trkpt>
      <trkpt lat="45.19761" lon="5.73055">
        <ele>268.39999389648</ele>
        <time>2021-07-17T08:59:17.000Z</time>
      </trkpt>
      <trkpt lat="45.19756" lon="5.73056">
        <ele>268.20001220703</ele>
        <time>2021-07-17T08:59:19.000Z</time>
      </trkpt>
      <trkpt lat="45.19753" lon="5.73059">
        <ele>267.79998779297</ele>
        <time>2021-07-17T08:59:21.000Z</time>
      </trkpt>
      <trkpt lat="45.19753" lon="5.7306">
        <ele>267</ele>
        <time>2021-07-17T08:59:22.000Z</time>
      </trkpt>
      <trkpt lat="45.19753" lon="5.7306">
        <ele>266.39999389648</ele>
        <time>2021-07-17T08:59:24.000Z</time>
      </trkpt>
      <trkpt lat="45.19754" lon="5.7306">
        <ele>266.39999389648</ele>
        <time>2021-07-17T08:59:25.000Z</time>
      </trkpt>
      <trkpt lat="45.19756" lon="5.7306">
        <ele>265.60000610352</ele>
        <time>2021-07-17T08:59:28.000Z</time>
      </trkpt>
      <trkpt lat="45.1976" lon="5.73063">
        <ele>265</ele>
        <time>2021-07-17T08:59:31.000Z</time>
      </trkpt>
      <trkpt lat="45.19765" lon="5.73068">
        <ele>263.79998779297</ele>
        <time>2021-07-17T08:59:34.000Z</time>
      </trkpt>
      <trkpt lat="45.19768" lon="5.7307">
        <ele>262.60000610352</ele>
        <time>2021-07-17T08:59:36.000Z</time>
      </trkpt>
      <trkpt lat="45.19771" lon="5.73072">
        <ele>262.60000610352</ele>
        <time>2021-07-17T08:59:37.000Z</time>
      </trkpt>
      <trkpt lat="45.19776" lon="5.73074">
        <ele>262</ele>
        <time>2021-07-17T08:59:40.000Z</time>
      </trkpt>
      <trkpt lat="45.1978" lon="5.73076">
        <ele>261.20001220703</ele>
        <time>2021-07-17T08:59:42.000Z</time>
      </trkpt>
      <trkpt lat="45.19785" lon="5.73078">
        <ele>260.60000610352</ele>
        <time>2021-07-17T08:59:44.000Z</time>
      </trkpt>
      <trkpt lat="45.1979" lon="5.73086">
        <ele>260.39999389648</ele>
        <time>2021-07-17T08:59:46.000Z</time>
      </trkpt>
      <trkpt lat="45.19789" lon="5.73094">
        <ele>260</ele>
        <time>2021-07-17T08:59:48.000Z</time>
      </trkpt>
      <trkpt lat="45.19783" lon="5.73101">
        <ele>259</ele>
        <time>2021-07-17T08:59:51.000Z</time>
      </trkpt>
      <trkpt lat="45.19782" lon="5.73101">
        <ele>259</ele>
        <time>2021-07-17T08:59:52.000Z</time>
      </trkpt>
      <trkpt lat="45.1978" lon="5.73101">
        <ele>258.79998779297</ele>
        <time>2021-07-17T08:59:53.000Z</time>
      </trkpt>
      <trkpt lat="45.19775" lon="5.73101">
        <ele>257.60000610352</ele>
        <time>2021-07-17T08:59:55.000Z</time>
      </trkpt>
      <trkpt lat="45.19767" lon="5.73101">
        <ele>256.79998779297</ele>
        <time>2021-07-17T08:59:59.000Z</time>
      </trkpt>
      <trkpt lat="45.19765" lon="5.73101">
        <ele>256.39999389648</ele>
        <time>2021-07-17T09:00:00.000Z</time>
      </trkpt>
      <trkpt lat="45.19759" lon="5.73102">
        <ele>255.60000610352</ele>
        <time>2021-07-17T09:00:04.000Z</time>
      </trkpt>
      <trkpt lat="45.1976" lon="5.73101">
        <ele>255.19999694824</ele>
        <time>2021-07-17T09:00:05.000Z</time>
      </trkpt>
      <trkpt lat="45.19763" lon="5.73101">
        <ele>254.19999694824</ele>
        <time>2021-07-17T09:00:09.000Z</time>
      </trkpt>
      <trkpt lat="45.19764" lon="5.73101">
        <ele>253.60000610352</ele>
        <time>2021-07-17T09:00:10.000Z</time>
      </trkpt>
      <trkpt lat="45.19764" lon="5.73102">
        <ele>253.39999389648</ele>
        <time>2021-07-17T09:00:12.000Z</time>
      </trkpt>
      <trkpt lat="45.19766" lon="5.73103">
        <ele>252.80000305176</ele>
        <time>2021-07-17T09:00:13.000Z</time>
      </trkpt>
      <trkpt lat="45.19766" lon="5.73105">
        <ele>252.60000610352</ele>
        <time>2021-07-17T09:00:14.000Z</time>
      </trkpt>
      <trkpt lat="45.1977" lon="5.73113">
        <ele>250.60000610352</ele>
        <time>2021-07-17T09:00:20.000Z</time>
      </trkpt>
      <trkpt lat="45.19772" lon="5.73115">
        <ele>250.39999389648</ele>
        <time>2021-07-17T09:00:22.000Z</time>
      </trkpt>
      <trkpt lat="45.19773" lon="5.73114">
        <ele>250.39999389648</ele>
        <time>2021-07-17T09:00:23.000Z</time>
      </trkpt>
      <trkpt lat="45.19778" lon="5.73113">
        <ele>249.60000610352</ele>
        <time>2021-07-17T09:00:25.000Z</time>
      </trkpt>
      <trkpt lat="45.19781" lon="5.73116">
        <ele>249.19999694824</ele>
        <time>2021-07-17T09:00:27.000Z</time>
      </trkpt>
      <trkpt lat="45.1978" lon="5.73119">
        <ele>249.19999694824</ele>
        <time>2021-07-17T09:00:28.000Z</time>
      </trkpt>
      <trkpt lat="45.19779" lon="5.73122">
        <ele>249.19999694824</ele>
        <time>2021-07-17T09:00:29.000Z</time>
      </trkpt>
      <trkpt lat="45.19777" lon="5.73124">
        <ele>248</ele>
        <time>2021-07-17T09:00:30.000Z</time>
      </trkpt>
      <trkpt lat="45.19772" lon="5.73135">
        <ele>246.80000305176</ele>
        <time>2021-07-17T09:00:35.000Z</time>
      </trkpt>
      <trkpt lat="45.1977" lon="5.7315">
        <ele>245.19999694824</ele>
        <time>2021-07-17T09:00:39.000Z</time>
      </trkpt>
      <trkpt lat="45.19771" lon="5.73163">
        <ele>244.60000610352</ele>
        <time>2021-07-17T09:00:42.000Z</time>
      </trkpt>
      <trkpt lat="45.19772" lon="5.73166">
        <ele>244.19999694824</ele>
        <time>2021-07-17T09:00:43.000Z</time>
      </trkpt>
      <trkpt lat="45.19774" lon="5.73173">
        <ele>243.60000610352</ele>
        <time>2021-07-17T09:00:45.000Z</time>
      </trkpt>
      <trkpt lat="45.19774" lon="5.73177">
        <ele>243</ele>
        <time>2021-07-17T09:00:46.000Z</time>
      </trkpt>
      <trkpt lat="45.19776" lon="5.73184">
        <ele>242.19999694824</ele>
        <time>2021-07-17T09:00:48.000Z</time>
      </trkpt>
      <trkpt lat="45.19778" lon="5.73188">
        <ele>241.80000305176</ele>
        <time>2021-07-17T09:00:49.000Z</time>
      </trkpt>
      <trkpt lat="45.19781" lon="5.73199">
        <ele>241.19999694824</ele>
        <time>2021-07-17T09:00:52.000Z</time>
      </trkpt>
      <trkpt lat="45.19782" lon="5.73205">
        <ele>241.80000305176</ele>
        <time>2021-07-17T09:00:54.000Z</time>
      </trkpt>
      <trkpt lat="45.19782" lon="5.73232">
        <ele>241.60000610352</ele>
        <time>2021-07-17T09:01:01.000Z</time>
      </trkpt>
      <trkpt lat="45.1978" lon="5.73237">
        <ele>241.80000305176</ele>
        <time>2021-07-17T09:01:03.000Z</time>
      </trkpt>
      <trkpt lat="45.1978" lon="5.7324">
        <ele>242.19999694824</ele>
        <time>2021-07-17T09:01:04.000Z</time>
      </trkpt>
      <trkpt lat="45.19783" lon="5.73248">
        <ele>242.19999694824</ele>
        <time>2021-07-17T09:01:07.000Z</time>
      </trkpt>
      <trkpt lat="45.19792" lon="5.73258">
        <ele>242.19999694824</ele>
        <time>2021-07-17T09:01:11.000Z</time>
      </trkpt>
      <trkpt lat="45.19795" lon="5.7326">
        <ele>242.19999694824</ele>
        <time>2021-07-17T09:01:12.000Z</time>
      </trkpt>
      <trkpt lat="45.19802" lon="5.73262">
        <ele>242</ele>
        <time>2021-07-17T09:01:14.000Z</time>
      </trkpt>
      <trkpt lat="45.19814" lon="5.73265">
        <ele>242.39999389648</ele>
        <time>2021-07-17T09:01:18.000Z</time>
      </trkpt>
      <trkpt lat="45.19825" lon="5.73267">
        <ele>242</ele>
        <time>2021-07-17T09:01:23.000Z</time>
      </trkpt>
      <trkpt lat="45.19835" lon="5.73268">
        <ele>242.19999694824</ele>
        <time>2021-07-17T09:01:27.000Z</time>
      </trkpt>
      <trkpt lat="45.19841" lon="5.73269">
        <ele>242</ele>
        <time>2021-07-17T09:01:29.000Z</time>
      </trkpt>
      <trkpt lat="45.19851" lon="5.73269">
        <ele>242</ele>
        <time>2021-07-17T09:01:34.000Z</time>
      </trkpt>
      <trkpt lat="45.19861" lon="5.73269">
        <ele>242</ele>
        <time>2021-07-17T09:01:39.000Z</time>
      </trkpt>
      <trkpt lat="45.19872" lon="5.73271">
        <ele>242.60000610352</ele>
        <time>2021-07-17T09:01:44.000Z</time>
      </trkpt>
      <trkpt lat="45.19874" lon="5.73271">
        <ele>242.60000610352</ele>
        <time>2021-07-17T09:01:45.000Z</time>
      </trkpt>
      <trkpt lat="45.19878" lon="5.73272">
        <ele>242.60000610352</ele>
        <time>2021-07-17T09:01:48.000Z</time>
      </trkpt>
      <trkpt lat="45.19891" lon="5.73271">
        <ele>242.39999389648</ele>
        <time>2021-07-17T09:01:54.000Z</time>
      </trkpt>
      <trkpt lat="45.19902" lon="5.73278">
        <ele>242.39999389648</ele>
        <time>2021-07-17T09:01:59.000Z</time>
      </trkpt>
      <trkpt lat="45.19921" lon="5.73287">
        <ele>242.39999389648</ele>
        <time>2021-07-17T09:02:06.000Z</time>
      </trkpt>
      <trkpt lat="45.1994" lon="5.73299">
        <ele>242.60000610352</ele>
        <time>2021-07-17T09:02:13.000Z</time>
      </trkpt>
      <trkpt lat="45.19946" lon="5.73301">
        <ele>242.60000610352</ele>
        <time>2021-07-17T09:02:15.000Z</time>
      </trkpt>
      <trkpt lat="45.19965" lon="5.73313">
        <ele>242.19999694824</ele>
        <time>2021-07-17T09:02:21.000Z</time>
      </trkpt>
      <trkpt lat="45.19971" lon="5.73318">
        <ele>242.19999694824</ele>
        <time>2021-07-17T09:02:24.000Z</time>
      </trkpt>
      <trkpt lat="45.19983" lon="5.73322">
        <ele>242.19999694824</ele>
        <time>2021-07-17T09:02:28.000Z</time>
      </trkpt>
      <trkpt lat="45.19988" lon="5.73324">
        <ele>242.19999694824</ele>
        <time>2021-07-17T09:02:30.000Z</time>
      </trkpt>
      <trkpt lat="45.20006" lon="5.7333">
        <ele>241.60000610352</ele>
        <time>2021-07-17T09:02:36.000Z</time>
      </trkpt>
      <trkpt lat="45.2002" lon="5.73335">
        <ele>241.80000305176</ele>
        <time>2021-07-17T09:02:41.000Z</time>
      </trkpt>
      <trkpt lat="45.20034" lon="5.7334">
        <ele>241.60000610352</ele>
        <time>2021-07-17T09:02:47.000Z</time>
      </trkpt>
      <trkpt lat="45.20049" lon="5.73345">
        <ele>241.60000610352</ele>
        <time>2021-07-17T09:02:54.000Z</time>
      </trkpt>
      <trkpt lat="45.20067" lon="5.73356">
        <ele>241.39999389648</ele>
        <time>2021-07-17T09:02:59.000Z</time>
      </trkpt>
      <trkpt lat="45.2007" lon="5.73358">
        <ele>241.39999389648</ele>
        <time>2021-07-17T09:03:00.000Z</time>
      </trkpt>
      <trkpt lat="45.20075" lon="5.7336">
        <ele>241.19999694824</ele>
        <time>2021-07-17T09:03:01.000Z</time>
      </trkpt>
      <trkpt lat="45.20079" lon="5.73362">
        <ele>241.19999694824</ele>
        <time>2021-07-17T09:03:02.000Z</time>
      </trkpt>
      <trkpt lat="45.20098" lon="5.73377">
        <ele>241.39999389648</ele>
        <time>2021-07-17T09:03:07.000Z</time>
      </trkpt>
      <trkpt lat="45.20114" lon="5.7339">
        <ele>241.19999694824</ele>
        <time>2021-07-17T09:03:12.000Z</time>
      </trkpt>
      <trkpt lat="45.2012" lon="5.73394">
        <ele>240.80000305176</ele>
        <time>2021-07-17T09:03:14.000Z</time>
      </trkpt>
      <trkpt lat="45.20134" lon="5.7341">
        <ele>240.39999389648</ele>
        <time>2021-07-17T09:03:18.000Z</time>
      </trkpt>
      <trkpt lat="45.20136" lon="5.73417">
        <ele>240.19999694824</ele>
        <time>2021-07-17T09:03:20.000Z</time>
      </trkpt>
      <trkpt lat="45.20141" lon="5.73426">
        <ele>239.80000305176</ele>
        <time>2021-07-17T09:03:23.000Z</time>
      </trkpt>
      <trkpt lat="45.20148" lon="5.73436">
        <ele>239.60000610352</ele>
        <time>2021-07-17T09:03:27.000Z</time>
      </trkpt>
      <trkpt lat="45.2016" lon="5.73453">
        <ele>239.19999694824</ele>
        <time>2021-07-17T09:03:32.000Z</time>
      </trkpt>
      <trkpt lat="45.20163" lon="5.73457">
        <ele>239.19999694824</ele>
        <time>2021-07-17T09:03:33.000Z</time>
      </trkpt>
      <trkpt lat="45.20166" lon="5.73461">
        <ele>239.19999694824</ele>
        <time>2021-07-17T09:03:34.000Z</time>
      </trkpt>
      <trkpt lat="45.20176" lon="5.73474">
        <ele>239</ele>
        <time>2021-07-17T09:03:38.000Z</time>
      </trkpt>
      <trkpt lat="45.2019" lon="5.73496">
        <ele>239.39999389648</ele>
        <time>2021-07-17T09:03:45.000Z</time>
      </trkpt>
      <trkpt lat="45.20193" lon="5.73499">
        <ele>239.39999389648</ele>
        <time>2021-07-17T09:03:46.000Z</time>
      </trkpt>
      <trkpt lat="45.20207" lon="5.73519">
        <ele>239.39999389648</ele>
        <time>2021-07-17T09:03:52.000Z</time>
      </trkpt>
      <trkpt lat="45.20208" lon="5.73523">
        <ele>239.39999389648</ele>
        <time>2021-07-17T09:03:53.000Z</time>
      </trkpt>
      <trkpt lat="45.20213" lon="5.73541">
        <ele>239.80000305176</ele>
        <time>2021-07-17T09:03:58.000Z</time>
      </trkpt>
      <trkpt lat="45.20224" lon="5.73562">
        <ele>240.60000610352</ele>
        <time>2021-07-17T09:04:04.000Z</time>
      </trkpt>
      <trkpt lat="45.20228" lon="5.73569">
        <ele>240.39999389648</ele>
        <time>2021-07-17T09:04:06.000Z</time>
      </trkpt>
      <trkpt lat="45.20233" lon="5.73576">
        <ele>240.39999389648</ele>
        <time>2021-07-17T09:04:08.000Z</time>
      </trkpt>
      <trkpt lat="45.20236" lon="5.73583">
        <ele>240.39999389648</ele>
        <time>2021-07-17T09:04:10.000Z</time>
      </trkpt>
      <trkpt lat="45.20239" lon="5.73589">
        <ele>240.39999389648</ele>
        <time>2021-07-17T09:04:12.000Z</time>
      </trkpt>
      <trkpt lat="45.20246" lon="5.73615">
        <ele>240.19999694824</ele>
        <time>2021-07-17T09:04:19.000Z</time>
      </trkpt>
      <trkpt lat="45.20249" lon="5.73622">
        <ele>239.80000305176</ele>
        <time>2021-07-17T09:04:21.000Z</time>
      </trkpt>
      <trkpt lat="45.20256" lon="5.73649">
        <ele>240.60000610352</ele>
        <time>2021-07-17T09:04:28.000Z</time>
      </trkpt>
      <trkpt lat="45.20257" lon="5.73653">
        <ele>240</ele>
        <time>2021-07-17T09:04:29.000Z</time>
      </trkpt>
      <trkpt lat="45.20262" lon="5.73679">
        <ele>240.80000305176</ele>
        <time>2021-07-17T09:04:36.000Z</time>
      </trkpt>
      <trkpt lat="45.20263" lon="5.73686">
        <ele>240.80000305176</ele>
        <time>2021-07-17T09:04:38.000Z</time>
      </trkpt>
      <trkpt lat="45.20265" lon="5.73712">
        <ele>240.39999389648</ele>
        <time>2021-07-17T09:04:44.000Z</time>
      </trkpt>
      <trkpt lat="45.20265" lon="5.73716">
        <ele>240.60000610352</ele>
        <time>2021-07-17T09:04:45.000Z</time>
      </trkpt>
      <trkpt lat="45.20271" lon="5.7374">
        <ele>241</ele>
        <time>2021-07-17T09:04:51.000Z</time>
      </trkpt>
      <trkpt lat="45.20274" lon="5.73754">
        <ele>240.19999694824</ele>
        <time>2021-07-17T09:04:54.000Z</time>
      </trkpt>
      <trkpt lat="45.20273" lon="5.73775">
        <ele>240.80000305176</ele>
        <time>2021-07-17T09:04:59.000Z</time>
      </trkpt>
      <trkpt lat="45.20269" lon="5.73797">
        <ele>240.80000305176</ele>
        <time>2021-07-17T09:05:04.000Z</time>
      </trkpt>
      <trkpt lat="45.20266" lon="5.73806">
        <ele>241.19999694824</ele>
        <time>2021-07-17T09:05:06.000Z</time>
      </trkpt>
      <trkpt lat="45.20262" lon="5.73831">
        <ele>241</ele>
        <time>2021-07-17T09:05:12.000Z</time>
      </trkpt>
      <trkpt lat="45.20261" lon="5.73836">
        <ele>241</ele>
        <time>2021-07-17T09:05:13.000Z</time>
      </trkpt>
      <trkpt lat="45.20259" lon="5.73848">
        <ele>241</ele>
        <time>2021-07-17T09:05:16.000Z</time>
      </trkpt>
      <trkpt lat="45.20255" lon="5.73863">
        <ele>241</ele>
        <time>2021-07-17T09:05:20.000Z</time>
      </trkpt>
      <trkpt lat="45.20254" lon="5.73868">
        <ele>242</ele>
        <time>2021-07-17T09:05:21.000Z</time>
      </trkpt>
      <trkpt lat="45.20252" lon="5.73873">
        <ele>241</ele>
        <time>2021-07-17T09:05:22.000Z</time>
      </trkpt>
      <trkpt lat="45.20246" lon="5.73897">
        <ele>241</ele>
        <time>2021-07-17T09:05:28.000Z</time>
      </trkpt>
      <trkpt lat="45.20239" lon="5.7392">
        <ele>241</ele>
        <time>2021-07-17T09:05:34.000Z</time>
      </trkpt>
      <trkpt lat="45.20238" lon="5.73925">
        <ele>241.19999694824</ele>
        <time>2021-07-17T09:05:35.000Z</time>
      </trkpt>
      <trkpt lat="45.20231" lon="5.73945">
        <ele>241.19999694824</ele>
        <time>2021-07-17T09:05:40.000Z</time>
      </trkpt>
      <trkpt lat="45.20229" lon="5.73952">
        <ele>241.19999694824</ele>
        <time>2021-07-17T09:05:42.000Z</time>
      </trkpt>
      <trkpt lat="45.20221" lon="5.73977">
        <ele>241</ele>
        <time>2021-07-17T09:05:48.000Z</time>
      </trkpt>
      <trkpt lat="45.20214" lon="5.73999">
        <ele>241</ele>
        <time>2021-07-17T09:05:54.000Z</time>
      </trkpt>
      <trkpt lat="45.20205" lon="5.74022">
        <ele>240.80000305176</ele>
        <time>2021-07-17T09:06:00.000Z</time>
      </trkpt>
      <trkpt lat="45.20203" lon="5.74025">
        <ele>240.80000305176</ele>
        <time>2021-07-17T09:06:01.000Z</time>
      </trkpt>
      <trkpt lat="45.20192" lon="5.74047">
        <ele>241</ele>
        <time>2021-07-17T09:06:07.000Z</time>
      </trkpt>
      <trkpt lat="45.20182" lon="5.74067">
        <ele>241</ele>
        <time>2021-07-17T09:06:13.000Z</time>
      </trkpt>
      <trkpt lat="45.20171" lon="5.74087">
        <ele>241.60000610352</ele>
        <time>2021-07-17T09:06:20.000Z</time>
      </trkpt>
      <trkpt lat="45.2017" lon="5.7409">
        <ele>241.60000610352</ele>
        <time>2021-07-17T09:06:21.000Z</time>
      </trkpt>
      <trkpt lat="45.20164" lon="5.741">
        <ele>241.80000305176</ele>
        <time>2021-07-17T09:06:25.000Z</time>
      </trkpt>
      <trkpt lat="45.20163" lon="5.74102">
        <ele>241.80000305176</ele>
        <time>2021-07-17T09:06:26.000Z</time>
      </trkpt>
      <trkpt lat="45.20162" lon="5.74108">
        <ele>242</ele>
        <time>2021-07-17T09:06:28.000Z</time>
      </trkpt>
      <trkpt lat="45.20159" lon="5.74115">
        <ele>242.39999389648</ele>
        <time>2021-07-17T09:06:31.000Z</time>
      </trkpt>
      <trkpt lat="45.20157" lon="5.74117">
        <ele>242.39999389648</ele>
        <time>2021-07-17T09:06:32.000Z</time>
      </trkpt>
      <trkpt lat="45.20156" lon="5.74119">
        <ele>243.19999694824</ele>
        <time>2021-07-17T09:06:33.000Z</time>
      </trkpt>
      <trkpt lat="45.20153" lon="5.74124">
        <ele>243.19999694824</ele>
        <time>2021-07-17T09:06:35.000Z</time>
      </trkpt>
      <trkpt lat="45.2015" lon="5.74132">
        <ele>243.80000305176</ele>
        <time>2021-07-17T09:06:38.000Z</time>
      </trkpt>
      <trkpt lat="45.20142" lon="5.74141">
        <ele>244.60000610352</ele>
        <time>2021-07-17T09:06:41.000Z</time>
      </trkpt>
      <trkpt lat="45.20133" lon="5.74155">
        <ele>245.19999694824</ele>
        <time>2021-07-17T09:06:45.000Z</time>
      </trkpt>
      <trkpt lat="45.2013" lon="5.74159">
        <ele>245.39999389648</ele>
        <time>2021-07-17T09:06:46.000Z</time>
      </trkpt>
      <trkpt lat="45.20123" lon="5.74168">
        <ele>245.80000305176</ele>
        <time>2021-07-17T09:06:49.000Z</time>
      </trkpt>
      <trkpt lat="45.20118" lon="5.74176">
        <ele>246</ele>
        <time>2021-07-17T09:06:52.000Z</time>
      </trkpt>
      <trkpt lat="45.20117" lon="5.74178">
        <ele>246</ele>
        <time>2021-07-17T09:06:53.000Z</time>
      </trkpt>
      <trkpt lat="45.20112" lon="5.74184">
        <ele>245.80000305176</ele>
        <time>2021-07-17T09:06:56.000Z</time>
      </trkpt>
      <trkpt lat="45.20105" lon="5.74191">
        <ele>245.80000305176</ele>
        <time>2021-07-17T09:06:59.000Z</time>
      </trkpt>
      <trkpt lat="45.2009" lon="5.74189">
        <ele>246</ele>
        <time>2021-07-17T09:07:03.000Z</time>
      </trkpt>
      <trkpt lat="45.20076" lon="5.74172">
        <ele>246.39999389648</ele>
        <time>2021-07-17T09:07:08.000Z</time>
      </trkpt>
      <trkpt lat="45.2007" lon="5.74166">
        <ele>246.39999389648</ele>
        <time>2021-07-17T09:07:10.000Z</time>
      </trkpt>
      <trkpt lat="45.20065" lon="5.7416">
        <ele>246.80000305176</ele>
        <time>2021-07-17T09:07:12.000Z</time>
      </trkpt>
      <trkpt lat="45.20058" lon="5.7415">
        <ele>245.80000305176</ele>
        <time>2021-07-17T09:07:15.000Z</time>
      </trkpt>
      <trkpt lat="45.20054" lon="5.74143">
        <ele>245.80000305176</ele>
        <time>2021-07-17T09:07:17.000Z</time>
      </trkpt>
      <trkpt lat="45.20041" lon="5.74127">
        <ele>246.39999389648</ele>
        <time>2021-07-17T09:07:23.000Z</time>
      </trkpt>
      <trkpt lat="45.20035" lon="5.74117">
        <ele>246.39999389648</ele>
        <time>2021-07-17T09:07:26.000Z</time>
      </trkpt>
      <trkpt lat="45.20021" lon="5.741">
        <ele>246.39999389648</ele>
        <time>2021-07-17T09:07:33.000Z</time>
      </trkpt>
      <trkpt lat="45.20018" lon="5.74097">
        <ele>246.39999389648</ele>
        <time>2021-07-17T09:07:34.000Z</time>
      </trkpt>
      <trkpt lat="45.20016" lon="5.74095">
        <ele>246.39999389648</ele>
        <time>2021-07-17T09:07:35.000Z</time>
      </trkpt>
      <trkpt lat="45.20009" lon="5.7409">
        <ele>246</ele>
        <time>2021-07-17T09:07:38.000Z</time>
      </trkpt>
      <trkpt lat="45.20008" lon="5.7409">
        <ele>245.80000305176</ele>
        <time>2021-07-17T09:07:39.000Z</time>
      </trkpt>
      <trkpt lat="45.20003" lon="5.74097">
        <ele>245.19999694824</ele>
        <time>2021-07-17T09:07:42.000Z</time>
      </trkpt>
      <trkpt lat="45.20001" lon="5.741">
        <ele>245.19999694824</ele>
        <time>2021-07-17T09:07:43.000Z</time>
      </trkpt>
      <trkpt lat="45.19995" lon="5.74112">
        <ele>244.60000610352</ele>
        <time>2021-07-17T09:07:47.000Z</time>
      </trkpt>
      <trkpt lat="45.1999" lon="5.74122">
        <ele>244.19999694824</ele>
        <time>2021-07-17T09:07:50.000Z</time>
      </trkpt>
      <trkpt lat="45.19983" lon="5.74135">
        <ele>243</ele>
        <time>2021-07-17T09:07:54.000Z</time>
      </trkpt>
      <trkpt lat="45.19973" lon="5.74148">
        <ele>242.60000610352</ele>
        <time>2021-07-17T09:07:59.000Z</time>
      </trkpt>
      <trkpt lat="45.19958" lon="5.74165">
        <ele>242.80000305176</ele>
        <time>2021-07-17T09:08:05.000Z</time>
      </trkpt>
      <trkpt lat="45.19955" lon="5.74167">
        <ele>242.80000305176</ele>
        <time>2021-07-17T09:08:06.000Z</time>
      </trkpt>
      <trkpt lat="45.19945" lon="5.74175">
        <ele>243.19999694824</ele>
        <time>2021-07-17T09:08:10.000Z</time>
      </trkpt>
      <trkpt lat="45.19928" lon="5.74188">
        <ele>242.60000610352</ele>
        <time>2021-07-17T09:08:16.000Z</time>
      </trkpt>
      <trkpt lat="45.1992" lon="5.74193">
        <ele>242.39999389648</ele>
        <time>2021-07-17T09:08:19.000Z</time>
      </trkpt>
      <trkpt lat="45.19904" lon="5.74202">
        <ele>243.39999389648</ele>
        <time>2021-07-17T09:08:25.000Z</time>
      </trkpt>
      <trkpt lat="45.19888" lon="5.7421">
        <ele>242.60000610352</ele>
        <time>2021-07-17T09:08:31.000Z</time>
      </trkpt>
      <trkpt lat="45.19868" lon="5.74216">
        <ele>242.60000610352</ele>
        <time>2021-07-17T09:08:37.000Z</time>
      </trkpt>
      <trkpt lat="45.19865" lon="5.74217">
        <ele>242.60000610352</ele>
        <time>2021-07-17T09:08:38.000Z</time>
      </trkpt>
      <trkpt lat="45.19852" lon="5.74225">
        <ele>242.60000610352</ele>
        <time>2021-07-17T09:08:42.000Z</time>
      </trkpt>
      <trkpt lat="45.19848" lon="5.74227">
        <ele>242.60000610352</ele>
        <time>2021-07-17T09:08:43.000Z</time>
      </trkpt>
      <trkpt lat="45.19834" lon="5.74233">
        <ele>242.60000610352</ele>
        <time>2021-07-17T09:08:48.000Z</time>
      </trkpt>
      <trkpt lat="45.19828" lon="5.74234">
        <ele>243.19999694824</ele>
        <time>2021-07-17T09:08:50.000Z</time>
      </trkpt>
      <trkpt lat="45.19822" lon="5.74235">
        <ele>243</ele>
        <time>2021-07-17T09:08:52.000Z</time>
      </trkpt>
      <trkpt lat="45.19819" lon="5.74235">
        <ele>243</ele>
        <time>2021-07-17T09:08:53.000Z</time>
      </trkpt>
      <trkpt lat="45.19801" lon="5.7424">
        <ele>242.60000610352</ele>
        <time>2021-07-17T09:08:59.000Z</time>
      </trkpt>
      <trkpt lat="45.19781" lon="5.74245">
        <ele>242.60000610352</ele>
        <time>2021-07-17T09:09:05.000Z</time>
      </trkpt>
      <trkpt lat="45.19778" lon="5.74245">
        <ele>242.60000610352</ele>
        <time>2021-07-17T09:09:06.000Z</time>
      </trkpt>
      <trkpt lat="45.1976" lon="5.74249">
        <ele>242.39999389648</ele>
        <time>2021-07-17T09:09:12.000Z</time>
      </trkpt>
      <trkpt lat="45.19757" lon="5.7425">
        <ele>242.60000610352</ele>
        <time>2021-07-17T09:09:13.000Z</time>
      </trkpt>
      <trkpt lat="45.19743" lon="5.74253">
        <ele>242.60000610352</ele>
        <time>2021-07-17T09:09:18.000Z</time>
      </trkpt>
      <trkpt lat="45.19734" lon="5.74252">
        <ele>242.19999694824</ele>
        <time>2021-07-17T09:09:23.000Z</time>
      </trkpt>
      <trkpt lat="45.19733" lon="5.7425">
        <ele>242</ele>
        <time>2021-07-17T09:09:24.000Z</time>
      </trkpt>
      <trkpt lat="45.19733" lon="5.74248">
        <ele>241.80000305176</ele>
        <time>2021-07-17T09:09:25.000Z</time>
      </trkpt>
      <trkpt lat="45.19729" lon="5.74242">
        <ele>241</ele>
        <time>2021-07-17T09:09:27.000Z</time>
      </trkpt>
      <trkpt lat="45.19728" lon="5.74239">
        <ele>241</ele>
        <time>2021-07-17T09:09:28.000Z</time>
      </trkpt>
      <trkpt lat="45.19723" lon="5.7422">
        <ele>240.80000305176</ele>
        <time>2021-07-17T09:09:33.000Z</time>
      </trkpt>
      <trkpt lat="45.19721" lon="5.74201">
        <ele>241</ele>
        <time>2021-07-17T09:09:38.000Z</time>
      </trkpt>
      <trkpt lat="45.1972" lon="5.74197">
        <ele>240.80000305176</ele>
        <time>2021-07-17T09:09:39.000Z</time>
      </trkpt>
      <trkpt lat="45.19716" lon="5.7418">
        <ele>241</ele>
        <time>2021-07-17T09:09:44.000Z</time>
      </trkpt>
      <trkpt lat="45.19709" lon="5.74154">
        <ele>241.19999694824</ele>
        <time>2021-07-17T09:09:51.000Z</time>
      </trkpt>
      <trkpt lat="45.19708" lon="5.74149">
        <ele>240.80000305176</ele>
        <time>2021-07-17T09:09:52.000Z</time>
      </trkpt>
      <trkpt lat="45.19704" lon="5.74128">
        <ele>240.80000305176</ele>
        <time>2021-07-17T09:09:57.000Z</time>
      </trkpt>
      <trkpt lat="45.19699" lon="5.74106">
        <ele>240.80000305176</ele>
        <time>2021-07-17T09:10:02.000Z</time>
      </trkpt>
      <trkpt lat="45.19694" lon="5.74081">
        <ele>241</ele>
        <time>2021-07-17T09:10:08.000Z</time>
      </trkpt>
      <trkpt lat="45.19694" lon="5.74077">
        <ele>241</ele>
        <time>2021-07-17T09:10:09.000Z</time>
      </trkpt>
      <trkpt lat="45.19689" lon="5.74055">
        <ele>241.19999694824</ele>
        <time>2021-07-17T09:10:15.000Z</time>
      </trkpt>
      <trkpt lat="45.19689" lon="5.74044">
        <ele>241.19999694824</ele>
        <time>2021-07-17T09:10:18.000Z</time>
      </trkpt>
      <trkpt lat="45.19688" lon="5.7404">
        <ele>241.19999694824</ele>
        <time>2021-07-17T09:10:19.000Z</time>
      </trkpt>
      <trkpt lat="45.19687" lon="5.74033">
        <ele>241</ele>
        <time>2021-07-17T09:10:21.000Z</time>
      </trkpt>
      <trkpt lat="45.19685" lon="5.74027">
        <ele>241</ele>
        <time>2021-07-17T09:10:23.000Z</time>
      </trkpt>
      <trkpt lat="45.19678" lon="5.7402">
        <ele>240.80000305176</ele>
        <time>2021-07-17T09:10:26.000Z</time>
      </trkpt>
      <trkpt lat="45.19675" lon="5.7402">
        <ele>240.80000305176</ele>
        <time>2021-07-17T09:10:27.000Z</time>
      </trkpt>
      <trkpt lat="45.19661" lon="5.74016">
        <ele>240.80000305176</ele>
        <time>2021-07-17T09:10:32.000Z</time>
      </trkpt>
      <trkpt lat="45.19652" lon="5.74012">
        <ele>240.80000305176</ele>
        <time>2021-07-17T09:10:36.000Z</time>
      </trkpt>
      <trkpt lat="45.1965" lon="5.74014">
        <ele>240.80000305176</ele>
        <time>2021-07-17T09:10:37.000Z</time>
      </trkpt>
      <trkpt lat="45.19647" lon="5.74015">
        <ele>240.80000305176</ele>
        <time>2021-07-17T09:10:38.000Z</time>
      </trkpt>
      <trkpt lat="45.1964" lon="5.74013">
        <ele>240.60000610352</ele>
        <time>2021-07-17T09:10:40.000Z</time>
      </trkpt>
      <trkpt lat="45.19637" lon="5.74012">
        <ele>240.19999694824</ele>
        <time>2021-07-17T09:10:41.000Z</time>
      </trkpt>
      <trkpt lat="45.1962" lon="5.74006">
        <ele>240.19999694824</ele>
        <time>2021-07-17T09:10:47.000Z</time>
      </trkpt>
      <trkpt lat="45.19617" lon="5.73998">
        <ele>240.39999389648</ele>
        <time>2021-07-17T09:10:49.000Z</time>
      </trkpt>
      <trkpt lat="45.19617" lon="5.73992">
        <ele>240.39999389648</ele>
        <time>2021-07-17T09:10:51.000Z</time>
      </trkpt>
      <trkpt lat="45.19618" lon="5.73978">
        <ele>240.39999389648</ele>
        <time>2021-07-17T09:10:54.000Z</time>
      </trkpt>
      <trkpt lat="45.19622" lon="5.73973">
        <ele>240.39999389648</ele>
        <time>2021-07-17T09:10:56.000Z</time>
      </trkpt>
      <trkpt lat="45.19635" lon="5.73969">
        <ele>241.19999694824</ele>
        <time>2021-07-17T09:11:03.000Z</time>
      </trkpt>
      <trkpt lat="45.19639" lon="5.7397">
        <ele>241</ele>
        <time>2021-07-17T09:11:08.000Z</time>
      </trkpt>
      <trkpt lat="45.19639" lon="5.73969">
        <ele>241</ele>
        <time>2021-07-17T09:11:09.000Z</time>
      </trkpt>
      <trkpt lat="45.19645" lon="5.7398">
        <ele>244.39999389648</ele>
        <time>2021-07-17T09:11:35.000Z</time>
      </trkpt>
      <trkpt lat="45.19639" lon="5.73965">
        <ele>245.60000610352</ele>
        <time>2021-07-17T09:11:38.000Z</time>
      </trkpt>
      <trkpt lat="45.19638" lon="5.73963">
        <ele>245.60000610352</ele>
        <time>2021-07-17T09:11:39.000Z</time>
      </trkpt>
      <trkpt lat="45.19636" lon="5.73964">
        <ele>246</ele>
        <time>2021-07-17T09:11:42.000Z</time>
      </trkpt>
      <trkpt lat="45.19638" lon="5.73967">
        <ele>246.60000610352</ele>
        <time>2021-07-17T09:11:45.000Z</time>
      </trkpt>
      <trkpt lat="45.19638" lon="5.73967">
        <ele>247</ele>
        <time>2021-07-17T09:11:46.000Z</time>
      </trkpt>
      <trkpt lat="45.1964" lon="5.73969">
        <ele>247.39999389648</ele>
        <time>2021-07-17T09:11:49.000Z</time>
      </trkpt>
      <trkpt lat="45.19641" lon="5.73969">
        <ele>248.39999389648</ele>
        <time>2021-07-17T09:11:50.000Z</time>
      </trkpt>
      <trkpt lat="45.1964" lon="5.73968">
        <ele>248.60000610352</ele>
        <time>2021-07-17T09:11:52.000Z</time>
      </trkpt>
      <trkpt lat="45.19641" lon="5.73975">
        <ele>248.80000305176</ele>
        <time>2021-07-17T09:11:55.000Z</time>
      </trkpt>
      <trkpt lat="45.19647" lon="5.73967">
        <ele>248.80000305176</ele>
        <time>2021-07-17T09:11:59.000Z</time>
      </trkpt>
      <trkpt lat="45.1965" lon="5.73969">
        <ele>248.80000305176</ele>
        <time>2021-07-17T09:12:02.000Z</time>
      </trkpt>
      <trkpt lat="45.19652" lon="5.73969">
        <ele>248.80000305176</ele>
        <time>2021-07-17T09:12:04.000Z</time>
      </trkpt>
      <trkpt lat="45.19652" lon="5.73968">
        <ele>248.60000610352</ele>
        <time>2021-07-17T09:12:05.000Z</time>
      </trkpt>
    </trkseg>
  </trk>
</gpx>